<?xml version="1.0" encoding="UTF-8" standalone="no" ?>
<gpx xmlns="http://www.topografix.com/GPX/1/1" xmlns:xsi="http://www.w3.org/2001/XMLSchema-instance" xsi:schemaLocation="http://www.topografix.com/GPX/1/1 http://www.topografix.com/GPX/1/1/gpx.xsd" version="1.1" creator="VisuGPX - https://www.visugpx.com">
  <metadata>
    <name>VTT la clermontoise</name>
    <desc><![CDATA[Voilà une très belle randonnée au départ du village de Clermont. une randonnée entre la Belgique et la France.
Video
https://www.youtube.com/watch?v=TAXN_8NwHI0]]></desc>
  </metadata>
  <trk>
    <name><![CDATA[Cousolre]]></name>
    <trkseg>
      <trkpt lat="50.25961" lon="4.31598">
        <ele>178.437775</ele>
        <time>2023-05-18T06:39:52Z</time>
      </trkpt>
      <trkpt lat="50.25958" lon="4.31609">
        <ele>178.552185</ele>
        <time>2023-05-18T06:39:54Z</time>
      </trkpt>
      <trkpt lat="50.25959" lon="4.31612">
        <ele>178.61882</ele>
        <time>2023-05-18T06:39:56Z</time>
      </trkpt>
      <trkpt lat="50.25962" lon="4.31614">
        <ele>178.670883</ele>
        <time>2023-05-18T06:39:58Z</time>
      </trkpt>
      <trkpt lat="50.25967" lon="4.31615">
        <ele>178.755356</ele>
        <time>2023-05-18T06:40:00Z</time>
      </trkpt>
      <trkpt lat="50.25971" lon="4.31618">
        <ele>179.33374</ele>
        <time>2023-05-18T06:40:02Z</time>
      </trkpt>
      <trkpt lat="50.25974" lon="4.31623">
        <ele>179.402466</ele>
        <time>2023-05-18T06:40:03Z</time>
      </trkpt>
      <trkpt lat="50.25977" lon="4.31629">
        <ele>179.429535</ele>
        <time>2023-05-18T06:40:06Z</time>
      </trkpt>
      <trkpt lat="50.25979" lon="4.31632">
        <ele>179.489944</ele>
        <time>2023-05-18T06:40:07Z</time>
      </trkpt>
      <trkpt lat="50.25982" lon="4.31639">
        <ele>180.0737</ele>
        <time>2023-05-18T06:40:09Z</time>
      </trkpt>
      <trkpt lat="50.25986" lon="4.31645">
        <ele>180.144516</ele>
        <time>2023-05-18T06:40:11Z</time>
      </trkpt>
      <trkpt lat="50.2599" lon="4.31652">
        <ele>180.227325</ele>
        <time>2023-05-18T06:40:13Z</time>
      </trkpt>
      <trkpt lat="50.25994" lon="4.31659">
        <ele>180.358536</ele>
        <time>2023-05-18T06:40:15Z</time>
      </trkpt>
      <trkpt lat="50.25997" lon="4.31666">
        <ele>180.447342</ele>
        <time>2023-05-18T06:40:17Z</time>
      </trkpt>
      <trkpt lat="50.26" lon="4.31672">
        <ele>180.66188</ele>
        <time>2023-05-18T06:40:19Z</time>
      </trkpt>
      <trkpt lat="50.26002" lon="4.31677">
        <ele>180.876419</ele>
        <time>2023-05-18T06:40:21Z</time>
      </trkpt>
      <trkpt lat="50.26005" lon="4.31679">
        <ele>181.099304</ele>
        <time>2023-05-18T06:40:23Z</time>
      </trkpt>
      <trkpt lat="50.26008" lon="4.31678">
        <ele>181.188873</ele>
        <time>2023-05-18T06:40:25Z</time>
      </trkpt>
      <trkpt lat="50.26014" lon="4.31673">
        <ele>181.403442</ele>
        <time>2023-05-18T06:40:27Z</time>
      </trkpt>
      <trkpt lat="50.26018" lon="4.31667">
        <ele>181.633408</ele>
        <time>2023-05-18T06:40:29Z</time>
      </trkpt>
      <trkpt lat="50.26021" lon="4.31657">
        <ele>181.845978</ele>
        <time>2023-05-18T06:40:31Z</time>
      </trkpt>
      <trkpt lat="50.26022" lon="4.31652">
        <ele>181.970551</ele>
        <time>2023-05-18T06:40:32Z</time>
      </trkpt>
      <trkpt lat="50.26021" lon="4.31641">
        <ele>182.202072</ele>
        <time>2023-05-18T06:40:34Z</time>
      </trkpt>
      <trkpt lat="50.26018" lon="4.3163">
        <ele>182.393829</ele>
        <time>2023-05-18T06:40:36Z</time>
      </trkpt>
      <trkpt lat="50.26015" lon="4.31619">
        <ele>182.68338</ele>
        <time>2023-05-18T06:40:38Z</time>
      </trkpt>
      <trkpt lat="50.26011" lon="4.31607">
        <ele>182.972931</ele>
        <time>2023-05-18T06:40:40Z</time>
      </trkpt>
      <trkpt lat="50.26007" lon="4.31594">
        <ele>183.223801</ele>
        <time>2023-05-18T06:40:42Z</time>
      </trkpt>
      <trkpt lat="50.26003" lon="4.31578">
        <ele>183.449677</ele>
        <time>2023-05-18T06:40:44Z</time>
      </trkpt>
      <trkpt lat="50.25998" lon="4.31561">
        <ele>183.722565</ele>
        <time>2023-05-18T06:40:46Z</time>
      </trkpt>
      <trkpt lat="50.25993" lon="4.31541">
        <ele>183.943726</ele>
        <time>2023-05-18T06:40:48Z</time>
      </trkpt>
      <trkpt lat="50.25987" lon="4.31521">
        <ele>184.109177</ele>
        <time>2023-05-18T06:40:50Z</time>
      </trkpt>
      <trkpt lat="50.2598" lon="4.315">
        <ele>184.326477</ele>
        <time>2023-05-18T06:40:52Z</time>
      </trkpt>
      <trkpt lat="50.25974" lon="4.31481">
        <ele>184.429062</ele>
        <time>2023-05-18T06:40:54Z</time>
      </trkpt>
      <trkpt lat="50.25973" lon="4.31461">
        <ele>184.558228</ele>
        <time>2023-05-18T06:40:56Z</time>
      </trkpt>
      <trkpt lat="50.25977" lon="4.31443">
        <ele>184.633224</ele>
        <time>2023-05-18T06:40:58Z</time>
      </trkpt>
      <trkpt lat="50.25982" lon="4.31425">
        <ele>184.731476</ele>
        <time>2023-05-18T06:41:00Z</time>
      </trkpt>
      <trkpt lat="50.25987" lon="4.31408">
        <ele>184.779388</ele>
        <time>2023-05-18T06:41:02Z</time>
      </trkpt>
      <trkpt lat="50.25991" lon="4.31391">
        <ele>184.796066</ele>
        <time>2023-05-18T06:41:04Z</time>
      </trkpt>
      <trkpt lat="50.25995" lon="4.31374">
        <ele>184.839874</ele>
        <time>2023-05-18T06:41:06Z</time>
      </trkpt>
      <trkpt lat="50.25997" lon="4.31358">
        <ele>184.819061</ele>
        <time>2023-05-18T06:41:08Z</time>
      </trkpt>
      <trkpt lat="50.25997" lon="4.31342">
        <ele>184.820282</ele>
        <time>2023-05-18T06:41:10Z</time>
      </trkpt>
      <trkpt lat="50.25997" lon="4.31325">
        <ele>184.871918</ele>
        <time>2023-05-18T06:41:12Z</time>
      </trkpt>
      <trkpt lat="50.25996" lon="4.31309">
        <ele>184.839127</ele>
        <time>2023-05-18T06:41:14Z</time>
      </trkpt>
      <trkpt lat="50.25995" lon="4.31293">
        <ele>184.818283</ele>
        <time>2023-05-18T06:41:16Z</time>
      </trkpt>
      <trkpt lat="50.25993" lon="4.31278">
        <ele>184.787033</ele>
        <time>2023-05-18T06:41:18Z</time>
      </trkpt>
      <trkpt lat="50.2599" lon="4.31264">
        <ele>184.76828</ele>
        <time>2023-05-18T06:41:20Z</time>
      </trkpt>
      <trkpt lat="50.25985" lon="4.31249">
        <ele>184.695374</ele>
        <time>2023-05-18T06:41:22Z</time>
      </trkpt>
      <trkpt lat="50.2598" lon="4.31236">
        <ele>184.655792</ele>
        <time>2023-05-18T06:41:24Z</time>
      </trkpt>
      <trkpt lat="50.25975" lon="4.31223">
        <ele>184.600952</ele>
        <time>2023-05-18T06:41:26Z</time>
      </trkpt>
      <trkpt lat="50.25969" lon="4.31211">
        <ele>184.533936</ele>
        <time>2023-05-18T06:41:28Z</time>
      </trkpt>
      <trkpt lat="50.25964" lon="4.31199">
        <ele>184.527832</ele>
        <time>2023-05-18T06:41:30Z</time>
      </trkpt>
      <trkpt lat="50.25958" lon="4.31187">
        <ele>184.54866</ele>
        <time>2023-05-18T06:41:32Z</time>
      </trkpt>
      <trkpt lat="50.25953" lon="4.31176">
        <ele>184.483429</ele>
        <time>2023-05-18T06:41:34Z</time>
      </trkpt>
      <trkpt lat="50.25947" lon="4.31164">
        <ele>184.55217</ele>
        <time>2023-05-18T06:41:36Z</time>
      </trkpt>
      <trkpt lat="50.25942" lon="4.31151">
        <ele>184.533417</ele>
        <time>2023-05-18T06:41:38Z</time>
      </trkpt>
      <trkpt lat="50.25937" lon="4.31139">
        <ele>184.493835</ele>
        <time>2023-05-18T06:41:40Z</time>
      </trkpt>
      <trkpt lat="50.25931" lon="4.31127">
        <ele>184.502167</ele>
        <time>2023-05-18T06:41:42Z</time>
      </trkpt>
      <trkpt lat="50.25926" lon="4.31115">
        <ele>184.504242</ele>
        <time>2023-05-18T06:41:44Z</time>
      </trkpt>
      <trkpt lat="50.25921" lon="4.31103">
        <ele>184.512527</ele>
        <time>2023-05-18T06:41:46Z</time>
      </trkpt>
      <trkpt lat="50.25917" lon="4.31091">
        <ele>184.51442</ele>
        <time>2023-05-18T06:41:48Z</time>
      </trkpt>
      <trkpt lat="50.25912" lon="4.31079">
        <ele>184.541504</ele>
        <time>2023-05-18T06:41:50Z</time>
      </trkpt>
      <trkpt lat="50.25908" lon="4.31068">
        <ele>184.537323</ele>
        <time>2023-05-18T06:41:52Z</time>
      </trkpt>
      <trkpt lat="50.25903" lon="4.31056">
        <ele>184.516495</ele>
        <time>2023-05-18T06:41:54Z</time>
      </trkpt>
      <trkpt lat="50.25899" lon="4.31044">
        <ele>184.618576</ele>
        <time>2023-05-18T06:41:56Z</time>
      </trkpt>
      <trkpt lat="50.25895" lon="4.31031">
        <ele>184.64534</ele>
        <time>2023-05-18T06:41:58Z</time>
      </trkpt>
      <trkpt lat="50.25891" lon="4.31019">
        <ele>184.61409</ele>
        <time>2023-05-18T06:42:00Z</time>
      </trkpt>
      <trkpt lat="50.25887" lon="4.31006">
        <ele>184.616165</ele>
        <time>2023-05-18T06:42:02Z</time>
      </trkpt>
      <trkpt lat="50.25882" lon="4.30993">
        <ele>184.640793</ele>
        <time>2023-05-18T06:42:04Z</time>
      </trkpt>
      <trkpt lat="50.25878" lon="4.3098">
        <ele>184.698883</ele>
        <time>2023-05-18T06:42:06Z</time>
      </trkpt>
      <trkpt lat="50.25874" lon="4.30967">
        <ele>184.715561</ele>
        <time>2023-05-18T06:42:08Z</time>
      </trkpt>
      <trkpt lat="50.25869" lon="4.30953">
        <ele>184.694733</ele>
        <time>2023-05-18T06:42:10Z</time>
      </trkpt>
      <trkpt lat="50.25864" lon="4.3094">
        <ele>184.720291</ele>
        <time>2023-05-18T06:42:12Z</time>
      </trkpt>
      <trkpt lat="50.25858" lon="4.30928">
        <ele>184.755707</ele>
        <time>2023-05-18T06:42:14Z</time>
      </trkpt>
      <trkpt lat="50.25852" lon="4.30916">
        <ele>184.753616</ele>
        <time>2023-05-18T06:42:16Z</time>
      </trkpt>
      <trkpt lat="50.25845" lon="4.30903">
        <ele>184.753616</ele>
        <time>2023-05-18T06:42:18Z</time>
      </trkpt>
      <trkpt lat="50.25838" lon="4.30889">
        <ele>184.760178</ele>
        <time>2023-05-18T06:42:20Z</time>
      </trkpt>
      <trkpt lat="50.25831" lon="4.30874">
        <ele>184.696335</ele>
        <time>2023-05-18T06:42:22Z</time>
      </trkpt>
      <trkpt lat="50.25826" lon="4.30859">
        <ele>184.740814</ele>
        <time>2023-05-18T06:42:24Z</time>
      </trkpt>
      <trkpt lat="50.2582" lon="4.30845">
        <ele>184.744995</ele>
        <time>2023-05-18T06:42:26Z</time>
      </trkpt>
      <trkpt lat="50.25816" lon="4.30832">
        <ele>184.699356</ele>
        <time>2023-05-18T06:42:28Z</time>
      </trkpt>
      <trkpt lat="50.25812" lon="4.30818">
        <ele>184.72226</ele>
        <time>2023-05-18T06:42:30Z</time>
      </trkpt>
      <trkpt lat="50.25808" lon="4.30805">
        <ele>184.703522</ele>
        <time>2023-05-18T06:42:32Z</time>
      </trkpt>
      <trkpt lat="50.25805" lon="4.30791">
        <ele>184.695175</ele>
        <time>2023-05-18T06:42:34Z</time>
      </trkpt>
      <trkpt lat="50.25801" lon="4.30778">
        <ele>184.613922</ele>
        <time>2023-05-18T06:42:36Z</time>
      </trkpt>
      <trkpt lat="50.25797" lon="4.30766">
        <ele>184.57016</ele>
        <time>2023-05-18T06:42:38Z</time>
      </trkpt>
      <trkpt lat="50.25794" lon="4.30753">
        <ele>184.53299</ele>
        <time>2023-05-18T06:42:40Z</time>
      </trkpt>
      <trkpt lat="50.25789" lon="4.30741">
        <ele>184.570175</ele>
        <time>2023-05-18T06:42:42Z</time>
      </trkpt>
      <trkpt lat="50.25784" lon="4.30728">
        <ele>184.61792</ele>
        <time>2023-05-18T06:42:44Z</time>
      </trkpt>
      <trkpt lat="50.25779" lon="4.30716">
        <ele>184.634628</ele>
        <time>2023-05-18T06:42:46Z</time>
      </trkpt>
      <trkpt lat="50.25773" lon="4.30703">
        <ele>184.570038</ele>
        <time>2023-05-18T06:42:48Z</time>
      </trkpt>
      <trkpt lat="50.25768" lon="4.30691">
        <ele>184.599533</ele>
        <time>2023-05-18T06:42:50Z</time>
      </trkpt>
      <trkpt lat="50.25763" lon="4.30679">
        <ele>184.593277</ele>
        <time>2023-05-18T06:42:52Z</time>
      </trkpt>
      <trkpt lat="50.25758" lon="4.30667">
        <ele>184.569656</ele>
        <time>2023-05-18T06:42:54Z</time>
      </trkpt>
      <trkpt lat="50.25752" lon="4.30655">
        <ele>184.563858</ele>
        <time>2023-05-18T06:42:56Z</time>
      </trkpt>
      <trkpt lat="50.25747" lon="4.30644">
        <ele>184.645111</ele>
        <time>2023-05-18T06:42:58Z</time>
      </trkpt>
      <trkpt lat="50.25742" lon="4.30632">
        <ele>184.663544</ele>
        <time>2023-05-18T06:43:00Z</time>
      </trkpt>
      <trkpt lat="50.25737" lon="4.3062">
        <ele>184.673233</ele>
        <time>2023-05-18T06:43:02Z</time>
      </trkpt>
      <trkpt lat="50.25732" lon="4.30607">
        <ele>184.730042</ele>
        <time>2023-05-18T06:43:04Z</time>
      </trkpt>
      <trkpt lat="50.25727" lon="4.30595">
        <ele>184.705048</ele>
        <time>2023-05-18T06:43:06Z</time>
      </trkpt>
      <trkpt lat="50.25722" lon="4.30582">
        <ele>184.725861</ele>
        <time>2023-05-18T06:43:08Z</time>
      </trkpt>
      <trkpt lat="50.25718" lon="4.3057">
        <ele>184.686295</ele>
        <time>2023-05-18T06:43:10Z</time>
      </trkpt>
      <trkpt lat="50.25713" lon="4.30558">
        <ele>184.671692</ele>
        <time>2023-05-18T06:43:12Z</time>
      </trkpt>
      <trkpt lat="50.25709" lon="4.30545">
        <ele>184.655045</ele>
        <time>2023-05-18T06:43:14Z</time>
      </trkpt>
      <trkpt lat="50.25704" lon="4.30532">
        <ele>184.734222</ele>
        <time>2023-05-18T06:43:16Z</time>
      </trkpt>
      <trkpt lat="50.257" lon="4.30519">
        <ele>184.759216</ele>
        <time>2023-05-18T06:43:18Z</time>
      </trkpt>
      <trkpt lat="50.25696" lon="4.30506">
        <ele>184.813385</ele>
        <time>2023-05-18T06:43:20Z</time>
      </trkpt>
      <trkpt lat="50.25693" lon="4.30492">
        <ele>184.90744</ele>
        <time>2023-05-18T06:43:22Z</time>
      </trkpt>
      <trkpt lat="50.25692" lon="4.30478">
        <ele>184.886612</ele>
        <time>2023-05-18T06:43:24Z</time>
      </trkpt>
      <trkpt lat="50.25691" lon="4.30463">
        <ele>184.905914</ele>
        <time>2023-05-18T06:43:26Z</time>
      </trkpt>
      <trkpt lat="50.25691" lon="4.30447">
        <ele>184.940887</ele>
        <time>2023-05-18T06:43:28Z</time>
      </trkpt>
      <trkpt lat="50.25692" lon="4.3043">
        <ele>184.98587</ele>
        <time>2023-05-18T06:43:30Z</time>
      </trkpt>
      <trkpt lat="50.25694" lon="4.30412">
        <ele>185.003357</ele>
        <time>2023-05-18T06:43:32Z</time>
      </trkpt>
      <trkpt lat="50.25697" lon="4.30394">
        <ele>185.02211</ele>
        <time>2023-05-18T06:43:34Z</time>
      </trkpt>
      <trkpt lat="50.25699" lon="4.30378">
        <ele>185.074203</ele>
        <time>2023-05-18T06:43:36Z</time>
      </trkpt>
      <trkpt lat="50.25701" lon="4.30363">
        <ele>185.068283</ele>
        <time>2023-05-18T06:43:38Z</time>
      </trkpt>
      <trkpt lat="50.25703" lon="4.30348">
        <ele>185.08287</ele>
        <time>2023-05-18T06:43:40Z</time>
      </trkpt>
      <trkpt lat="50.25705" lon="4.30333">
        <ele>185.030792</ele>
        <time>2023-05-18T06:43:42Z</time>
      </trkpt>
      <trkpt lat="50.25707" lon="4.30318">
        <ele>185.063126</ele>
        <time>2023-05-18T06:43:44Z</time>
      </trkpt>
      <trkpt lat="50.25709" lon="4.30303">
        <ele>185.163132</ele>
        <time>2023-05-18T06:43:46Z</time>
      </trkpt>
      <trkpt lat="50.2571" lon="4.30288">
        <ele>185.154816</ele>
        <time>2023-05-18T06:43:48Z</time>
      </trkpt>
      <trkpt lat="50.25711" lon="4.30273">
        <ele>185.223572</ele>
        <time>2023-05-18T06:43:50Z</time>
      </trkpt>
      <trkpt lat="50.25711" lon="4.30258">
        <ele>185.298584</ele>
        <time>2023-05-18T06:43:52Z</time>
      </trkpt>
      <trkpt lat="50.2571" lon="4.30243">
        <ele>185.294403</ele>
        <time>2023-05-18T06:43:54Z</time>
      </trkpt>
      <trkpt lat="50.25708" lon="4.30229">
        <ele>185.344421</ele>
        <time>2023-05-18T06:43:56Z</time>
      </trkpt>
      <trkpt lat="50.25706" lon="4.30215">
        <ele>185.354843</ele>
        <time>2023-05-18T06:43:58Z</time>
      </trkpt>
      <trkpt lat="50.25703" lon="4.30202">
        <ele>185.463196</ele>
        <time>2023-05-18T06:44:00Z</time>
      </trkpt>
      <trkpt lat="50.257" lon="4.30189">
        <ele>185.500702</ele>
        <time>2023-05-18T06:44:02Z</time>
      </trkpt>
      <trkpt lat="50.25695" lon="4.30177">
        <ele>185.519455</ele>
        <time>2023-05-18T06:44:04Z</time>
      </trkpt>
      <trkpt lat="50.2569" lon="4.30167">
        <ele>185.573624</ele>
        <time>2023-05-18T06:44:06Z</time>
      </trkpt>
      <trkpt lat="50.25684" lon="4.30156">
        <ele>185.62767</ele>
        <time>2023-05-18T06:44:08Z</time>
      </trkpt>
      <trkpt lat="50.25679" lon="4.30146">
        <ele>185.686172</ele>
        <time>2023-05-18T06:44:10Z</time>
      </trkpt>
      <trkpt lat="50.25674" lon="4.30137">
        <ele>185.744232</ele>
        <time>2023-05-18T06:44:12Z</time>
      </trkpt>
      <trkpt lat="50.25668" lon="4.30128">
        <ele>185.829681</ele>
        <time>2023-05-18T06:44:14Z</time>
      </trkpt>
      <trkpt lat="50.25663" lon="4.3012">
        <ele>185.992233</ele>
        <time>2023-05-18T06:44:16Z</time>
      </trkpt>
      <trkpt lat="50.25657" lon="4.30111">
        <ele>185.998489</ele>
        <time>2023-05-18T06:44:18Z</time>
      </trkpt>
      <trkpt lat="50.25652" lon="4.30102">
        <ele>186.126907</ele>
        <time>2023-05-18T06:44:20Z</time>
      </trkpt>
      <trkpt lat="50.25647" lon="4.30094">
        <ele>186.160553</ele>
        <time>2023-05-18T06:44:22Z</time>
      </trkpt>
      <trkpt lat="50.25641" lon="4.30086">
        <ele>186.376007</ele>
        <time>2023-05-18T06:44:24Z</time>
      </trkpt>
      <trkpt lat="50.25636" lon="4.30076">
        <ele>186.425873</ele>
        <time>2023-05-18T06:44:26Z</time>
      </trkpt>
      <trkpt lat="50.25631" lon="4.30067">
        <ele>186.521744</ele>
        <time>2023-05-18T06:44:28Z</time>
      </trkpt>
      <trkpt lat="50.25625" lon="4.30058">
        <ele>186.665527</ele>
        <time>2023-05-18T06:44:30Z</time>
      </trkpt>
      <trkpt lat="50.2562" lon="4.30048">
        <ele>186.838104</ele>
        <time>2023-05-18T06:44:32Z</time>
      </trkpt>
      <trkpt lat="50.25614" lon="4.3004">
        <ele>186.983841</ele>
        <time>2023-05-18T06:44:34Z</time>
      </trkpt>
      <trkpt lat="50.25608" lon="4.30031">
        <ele>187.187531</ele>
        <time>2023-05-18T06:44:36Z</time>
      </trkpt>
      <trkpt lat="50.25601" lon="4.30024">
        <ele>187.325668</ele>
        <time>2023-05-18T06:44:38Z</time>
      </trkpt>
      <trkpt lat="50.25593" lon="4.30017">
        <ele>187.429123</ele>
        <time>2023-05-18T06:44:40Z</time>
      </trkpt>
      <trkpt lat="50.25586" lon="4.30011">
        <ele>187.563492</ele>
        <time>2023-05-18T06:44:42Z</time>
      </trkpt>
      <trkpt lat="50.25579" lon="4.30006">
        <ele>187.786514</ele>
        <time>2023-05-18T06:44:44Z</time>
      </trkpt>
      <trkpt lat="50.25571" lon="4.30002">
        <ele>188.05954</ele>
        <time>2023-05-18T06:44:46Z</time>
      </trkpt>
      <trkpt lat="50.25565" lon="4.29997">
        <ele>188.303528</ele>
        <time>2023-05-18T06:44:48Z</time>
      </trkpt>
      <trkpt lat="50.25559" lon="4.29992">
        <ele>188.491104</ele>
        <time>2023-05-18T06:44:50Z</time>
      </trkpt>
      <trkpt lat="50.25553" lon="4.29986">
        <ele>188.702408</ele>
        <time>2023-05-18T06:44:52Z</time>
      </trkpt>
      <trkpt lat="50.25547" lon="4.2998">
        <ele>188.893631</ele>
        <time>2023-05-18T06:44:54Z</time>
      </trkpt>
      <trkpt lat="50.25542" lon="4.29973">
        <ele>189.118744</ele>
        <time>2023-05-18T06:44:56Z</time>
      </trkpt>
      <trkpt lat="50.25536" lon="4.29966">
        <ele>189.245895</ele>
        <time>2023-05-18T06:44:58Z</time>
      </trkpt>
      <trkpt lat="50.25531" lon="4.29957">
        <ele>189.493927</ele>
        <time>2023-05-18T06:45:00Z</time>
      </trkpt>
      <trkpt lat="50.25529" lon="4.29953">
        <ele>189.681534</ele>
        <time>2023-05-18T06:45:01Z</time>
      </trkpt>
      <trkpt lat="50.25523" lon="4.29944">
        <ele>189.801697</ele>
        <time>2023-05-18T06:45:03Z</time>
      </trkpt>
      <trkpt lat="50.25519" lon="4.29936">
        <ele>190.032806</ele>
        <time>2023-05-18T06:45:05Z</time>
      </trkpt>
      <trkpt lat="50.25514" lon="4.29927">
        <ele>190.289322</ele>
        <time>2023-05-18T06:45:07Z</time>
      </trkpt>
      <trkpt lat="50.2551" lon="4.29918">
        <ele>190.543671</ele>
        <time>2023-05-18T06:45:09Z</time>
      </trkpt>
      <trkpt lat="50.25506" lon="4.29908">
        <ele>190.812592</ele>
        <time>2023-05-18T06:45:11Z</time>
      </trkpt>
      <trkpt lat="50.25503" lon="4.29899">
        <ele>191.054794</ele>
        <time>2023-05-18T06:45:13Z</time>
      </trkpt>
      <trkpt lat="50.25499" lon="4.29888">
        <ele>191.353119</ele>
        <time>2023-05-18T06:45:15Z</time>
      </trkpt>
      <trkpt lat="50.25497" lon="4.29876">
        <ele>191.647614</ele>
        <time>2023-05-18T06:45:17Z</time>
      </trkpt>
      <trkpt lat="50.25493" lon="4.29863">
        <ele>191.926407</ele>
        <time>2023-05-18T06:45:19Z</time>
      </trkpt>
      <trkpt lat="50.25491" lon="4.2985">
        <ele>192.197906</ele>
        <time>2023-05-18T06:45:21Z</time>
      </trkpt>
      <trkpt lat="50.25489" lon="4.29836">
        <ele>192.434601</ele>
        <time>2023-05-18T06:45:23Z</time>
      </trkpt>
      <trkpt lat="50.25488" lon="4.29821">
        <ele>192.668152</ele>
        <time>2023-05-18T06:45:25Z</time>
      </trkpt>
      <trkpt lat="50.25488" lon="4.29805">
        <ele>192.827698</ele>
        <time>2023-05-18T06:45:27Z</time>
      </trkpt>
      <trkpt lat="50.25486" lon="4.29789">
        <ele>192.936142</ele>
        <time>2023-05-18T06:45:29Z</time>
      </trkpt>
      <trkpt lat="50.25485" lon="4.29773">
        <ele>193.09462</ele>
        <time>2023-05-18T06:45:31Z</time>
      </trkpt>
      <trkpt lat="50.25484" lon="4.29755">
        <ele>193.286438</ele>
        <time>2023-05-18T06:45:33Z</time>
      </trkpt>
      <trkpt lat="50.25483" lon="4.29738">
        <ele>193.472015</ele>
        <time>2023-05-18T06:45:35Z</time>
      </trkpt>
      <trkpt lat="50.25482" lon="4.2972">
        <ele>193.629898</ele>
        <time>2023-05-18T06:45:37Z</time>
      </trkpt>
      <trkpt lat="50.2548" lon="4.29703">
        <ele>193.788361</ele>
        <time>2023-05-18T06:45:39Z</time>
      </trkpt>
      <trkpt lat="50.25479" lon="4.29686">
        <ele>194.024017</ele>
        <time>2023-05-18T06:45:41Z</time>
      </trkpt>
      <trkpt lat="50.25476" lon="4.2967">
        <ele>194.199188</ele>
        <time>2023-05-18T06:45:43Z</time>
      </trkpt>
      <trkpt lat="50.25473" lon="4.29654">
        <ele>194.340622</ele>
        <time>2023-05-18T06:45:45Z</time>
      </trkpt>
      <trkpt lat="50.25468" lon="4.29639">
        <ele>194.454498</ele>
        <time>2023-05-18T06:45:47Z</time>
      </trkpt>
      <trkpt lat="50.25462" lon="4.29625">
        <ele>194.57901</ele>
        <time>2023-05-18T06:45:49Z</time>
      </trkpt>
      <trkpt lat="50.25456" lon="4.29613">
        <ele>194.66243</ele>
        <time>2023-05-18T06:45:51Z</time>
      </trkpt>
      <trkpt lat="50.25449" lon="4.29601">
        <ele>194.831345</ele>
        <time>2023-05-18T06:45:53Z</time>
      </trkpt>
      <trkpt lat="50.25443" lon="4.2959">
        <ele>194.835526</ele>
        <time>2023-05-18T06:45:55Z</time>
      </trkpt>
      <trkpt lat="50.25435" lon="4.2958">
        <ele>194.916855</ele>
        <time>2023-05-18T06:45:57Z</time>
      </trkpt>
      <trkpt lat="50.25428" lon="4.29571">
        <ele>195.010712</ele>
        <time>2023-05-18T06:45:59Z</time>
      </trkpt>
      <trkpt lat="50.2542" lon="4.29562">
        <ele>195.092316</ele>
        <time>2023-05-18T06:46:01Z</time>
      </trkpt>
      <trkpt lat="50.25413" lon="4.29553">
        <ele>195.161148</ele>
        <time>2023-05-18T06:46:03Z</time>
      </trkpt>
      <trkpt lat="50.25405" lon="4.29544">
        <ele>195.204941</ele>
        <time>2023-05-18T06:46:05Z</time>
      </trkpt>
      <trkpt lat="50.25398" lon="4.29535">
        <ele>195.240387</ele>
        <time>2023-05-18T06:46:07Z</time>
      </trkpt>
      <trkpt lat="50.2539" lon="4.29525">
        <ele>195.33316</ele>
        <time>2023-05-18T06:46:09Z</time>
      </trkpt>
      <trkpt lat="50.25383" lon="4.29515">
        <ele>195.485413</ele>
        <time>2023-05-18T06:46:11Z</time>
      </trkpt>
      <trkpt lat="50.25377" lon="4.29504">
        <ele>195.595963</ele>
        <time>2023-05-18T06:46:13Z</time>
      </trkpt>
      <trkpt lat="50.2537" lon="4.29491">
        <ele>195.681473</ele>
        <time>2023-05-18T06:46:15Z</time>
      </trkpt>
      <trkpt lat="50.25366" lon="4.29477">
        <ele>195.794769</ele>
        <time>2023-05-18T06:46:17Z</time>
      </trkpt>
      <trkpt lat="50.25364" lon="4.29462">
        <ele>195.867767</ele>
        <time>2023-05-18T06:46:19Z</time>
      </trkpt>
      <trkpt lat="50.25363" lon="4.29447">
        <ele>195.974152</ele>
        <time>2023-05-18T06:46:21Z</time>
      </trkpt>
      <trkpt lat="50.25363" lon="4.29431">
        <ele>195.997879</ele>
        <time>2023-05-18T06:46:23Z</time>
      </trkpt>
      <trkpt lat="50.25363" lon="4.29416">
        <ele>196.110504</ele>
        <time>2023-05-18T06:46:25Z</time>
      </trkpt>
      <trkpt lat="50.25364" lon="4.29401">
        <ele>196.194748</ele>
        <time>2023-05-18T06:46:27Z</time>
      </trkpt>
      <trkpt lat="50.25365" lon="4.29387">
        <ele>196.334503</ele>
        <time>2023-05-18T06:46:29Z</time>
      </trkpt>
      <trkpt lat="50.25365" lon="4.29373">
        <ele>196.435257</ele>
        <time>2023-05-18T06:46:31Z</time>
      </trkpt>
      <trkpt lat="50.25364" lon="4.2936">
        <ele>196.593781</ele>
        <time>2023-05-18T06:46:33Z</time>
      </trkpt>
      <trkpt lat="50.25357" lon="4.2935">
        <ele>196.637604</ele>
        <time>2023-05-18T06:46:35Z</time>
      </trkpt>
      <trkpt lat="50.25346" lon="4.29347">
        <ele>196.75647</ele>
        <time>2023-05-18T06:46:37Z</time>
      </trkpt>
      <trkpt lat="50.25334" lon="4.29347">
        <ele>196.879562</ele>
        <time>2023-05-18T06:46:39Z</time>
      </trkpt>
      <trkpt lat="50.25321" lon="4.29346">
        <ele>196.946869</ele>
        <time>2023-05-18T06:46:41Z</time>
      </trkpt>
      <trkpt lat="50.25307" lon="4.29345">
        <ele>196.944855</ele>
        <time>2023-05-18T06:46:43Z</time>
      </trkpt>
      <trkpt lat="50.25293" lon="4.29342">
        <ele>196.921921</ele>
        <time>2023-05-18T06:46:45Z</time>
      </trkpt>
      <trkpt lat="50.25277" lon="4.29337">
        <ele>196.923996</ele>
        <time>2023-05-18T06:46:47Z</time>
      </trkpt>
      <trkpt lat="50.25263" lon="4.29327">
        <ele>196.836395</ele>
        <time>2023-05-18T06:46:49Z</time>
      </trkpt>
      <trkpt lat="50.25248" lon="4.29315">
        <ele>196.667511</ele>
        <time>2023-05-18T06:46:51Z</time>
      </trkpt>
      <trkpt lat="50.25234" lon="4.29308">
        <ele>196.509003</ele>
        <time>2023-05-18T06:46:53Z</time>
      </trkpt>
      <trkpt lat="50.25219" lon="4.29309">
        <ele>196.401276</ele>
        <time>2023-05-18T06:46:55Z</time>
      </trkpt>
      <trkpt lat="50.25205" lon="4.29311">
        <ele>196.301178</ele>
        <time>2023-05-18T06:46:57Z</time>
      </trkpt>
      <trkpt lat="50.25192" lon="4.29314">
        <ele>196.159744</ele>
        <time>2023-05-18T06:46:59Z</time>
      </trkpt>
      <trkpt lat="50.2518" lon="4.29317">
        <ele>196.121872</ele>
        <time>2023-05-18T06:47:01Z</time>
      </trkpt>
      <trkpt lat="50.25169" lon="4.2932">
        <ele>195.754837</ele>
        <time>2023-05-18T06:47:03Z</time>
      </trkpt>
      <trkpt lat="50.25158" lon="4.29323">
        <ele>195.645599</ele>
        <time>2023-05-18T06:47:05Z</time>
      </trkpt>
      <trkpt lat="50.25148" lon="4.29326">
        <ele>195.466949</ele>
        <time>2023-05-18T06:47:07Z</time>
      </trkpt>
      <trkpt lat="50.25138" lon="4.29328">
        <ele>195.239395</ele>
        <time>2023-05-18T06:47:09Z</time>
      </trkpt>
      <trkpt lat="50.25129" lon="4.2933">
        <ele>194.957855</ele>
        <time>2023-05-18T06:47:11Z</time>
      </trkpt>
      <trkpt lat="50.2512" lon="4.29331">
        <ele>194.695053</ele>
        <time>2023-05-18T06:47:13Z</time>
      </trkpt>
      <trkpt lat="50.25111" lon="4.29331">
        <ele>194.390289</ele>
        <time>2023-05-18T06:47:15Z</time>
      </trkpt>
      <trkpt lat="50.25103" lon="4.2933">
        <ele>194.075378</ele>
        <time>2023-05-18T06:47:17Z</time>
      </trkpt>
      <trkpt lat="50.25094" lon="4.29331">
        <ele>193.793808</ele>
        <time>2023-05-18T06:47:19Z</time>
      </trkpt>
      <trkpt lat="50.25085" lon="4.29331">
        <ele>193.480438</ele>
        <time>2023-05-18T06:47:21Z</time>
      </trkpt>
      <trkpt lat="50.25077" lon="4.29329">
        <ele>193.215485</ele>
        <time>2023-05-18T06:47:23Z</time>
      </trkpt>
      <trkpt lat="50.25069" lon="4.29327">
        <ele>193.104965</ele>
        <time>2023-05-18T06:47:25Z</time>
      </trkpt>
      <trkpt lat="50.25061" lon="4.29325">
        <ele>192.994446</ele>
        <time>2023-05-18T06:47:27Z</time>
      </trkpt>
      <trkpt lat="50.25054" lon="4.29324">
        <ele>192.918594</ele>
        <time>2023-05-18T06:47:29Z</time>
      </trkpt>
      <trkpt lat="50.25047" lon="4.29323">
        <ele>192.922745</ele>
        <time>2023-05-18T06:47:31Z</time>
      </trkpt>
      <trkpt lat="50.25039" lon="4.29323">
        <ele>192.868515</ele>
        <time>2023-05-18T06:47:33Z</time>
      </trkpt>
      <trkpt lat="50.25031" lon="4.29321">
        <ele>192.774521</ele>
        <time>2023-05-18T06:47:35Z</time>
      </trkpt>
      <trkpt lat="50.25023" lon="4.29317">
        <ele>192.738251</ele>
        <time>2023-05-18T06:47:37Z</time>
      </trkpt>
      <trkpt lat="50.25016" lon="4.29313">
        <ele>192.689514</ele>
        <time>2023-05-18T06:47:39Z</time>
      </trkpt>
      <trkpt lat="50.2501" lon="4.2931">
        <ele>192.697403</ele>
        <time>2023-05-18T06:47:41Z</time>
      </trkpt>
      <trkpt lat="50.25003" lon="4.29306">
        <ele>192.837433</ele>
        <time>2023-05-18T06:47:43Z</time>
      </trkpt>
      <trkpt lat="50.24997" lon="4.29302">
        <ele>192.995941</ele>
        <time>2023-05-18T06:47:45Z</time>
      </trkpt>
      <trkpt lat="50.2499" lon="4.29298">
        <ele>193.073364</ele>
        <time>2023-05-18T06:47:47Z</time>
      </trkpt>
      <trkpt lat="50.24983" lon="4.29292">
        <ele>193.14473</ele>
        <time>2023-05-18T06:47:49Z</time>
      </trkpt>
      <trkpt lat="50.24976" lon="4.29289">
        <ele>193.236481</ele>
        <time>2023-05-18T06:47:51Z</time>
      </trkpt>
      <trkpt lat="50.24968" lon="4.29286">
        <ele>193.43042</ele>
        <time>2023-05-18T06:47:53Z</time>
      </trkpt>
      <trkpt lat="50.24961" lon="4.29283">
        <ele>193.557617</ele>
        <time>2023-05-18T06:47:55Z</time>
      </trkpt>
      <trkpt lat="50.24953" lon="4.2928">
        <ele>193.701752</ele>
        <time>2023-05-18T06:47:57Z</time>
      </trkpt>
      <trkpt lat="50.24946" lon="4.29278">
        <ele>193.999969</ele>
        <time>2023-05-18T06:47:59Z</time>
      </trkpt>
      <trkpt lat="50.24938" lon="4.29275">
        <ele>194.129272</ele>
        <time>2023-05-18T06:48:01Z</time>
      </trkpt>
      <trkpt lat="50.24931" lon="4.29273">
        <ele>194.329468</ele>
        <time>2023-05-18T06:48:03Z</time>
      </trkpt>
      <trkpt lat="50.24923" lon="4.29271">
        <ele>194.550537</ele>
        <time>2023-05-18T06:48:05Z</time>
      </trkpt>
      <trkpt lat="50.24915" lon="4.29268">
        <ele>194.715286</ele>
        <time>2023-05-18T06:48:07Z</time>
      </trkpt>
      <trkpt lat="50.24908" lon="4.29266">
        <ele>194.911407</ele>
        <time>2023-05-18T06:48:09Z</time>
      </trkpt>
      <trkpt lat="50.24901" lon="4.29264">
        <ele>195.021637</ele>
        <time>2023-05-18T06:48:11Z</time>
      </trkpt>
      <trkpt lat="50.24894" lon="4.29261">
        <ele>195.26358</ele>
        <time>2023-05-18T06:48:13Z</time>
      </trkpt>
      <trkpt lat="50.24886" lon="4.29258">
        <ele>195.47229</ele>
        <time>2023-05-18T06:48:15Z</time>
      </trkpt>
      <trkpt lat="50.24879" lon="4.29254">
        <ele>195.829056</ele>
        <time>2023-05-18T06:48:17Z</time>
      </trkpt>
      <trkpt lat="50.24872" lon="4.29251">
        <ele>195.984161</ele>
        <time>2023-05-18T06:48:19Z</time>
      </trkpt>
      <trkpt lat="50.24865" lon="4.29247">
        <ele>196.181549</ele>
        <time>2023-05-18T06:48:21Z</time>
      </trkpt>
      <trkpt lat="50.24857" lon="4.29243">
        <ele>196.398468</ele>
        <time>2023-05-18T06:48:23Z</time>
      </trkpt>
      <trkpt lat="50.24851" lon="4.29239">
        <ele>196.504852</ele>
        <time>2023-05-18T06:48:25Z</time>
      </trkpt>
      <trkpt lat="50.24847" lon="4.29238">
        <ele>196.60083</ele>
        <time>2023-05-18T06:48:26Z</time>
      </trkpt>
      <trkpt lat="50.24841" lon="4.29234">
        <ele>196.898148</ele>
        <time>2023-05-18T06:48:28Z</time>
      </trkpt>
      <trkpt lat="50.24834" lon="4.2923">
        <ele>197.187897</ele>
        <time>2023-05-18T06:48:30Z</time>
      </trkpt>
      <trkpt lat="50.24827" lon="4.29227">
        <ele>197.492462</ele>
        <time>2023-05-18T06:48:32Z</time>
      </trkpt>
      <trkpt lat="50.2482" lon="4.29224">
        <ele>197.803055</ele>
        <time>2023-05-18T06:48:34Z</time>
      </trkpt>
      <trkpt lat="50.24817" lon="4.29223">
        <ele>197.949097</ele>
        <time>2023-05-18T06:48:35Z</time>
      </trkpt>
      <trkpt lat="50.24814" lon="4.29221">
        <ele>198.151459</ele>
        <time>2023-05-18T06:48:36Z</time>
      </trkpt>
      <trkpt lat="50.24807" lon="4.29218">
        <ele>198.506134</ele>
        <time>2023-05-18T06:48:38Z</time>
      </trkpt>
      <trkpt lat="50.24801" lon="4.29215">
        <ele>198.741898</ele>
        <time>2023-05-18T06:48:40Z</time>
      </trkpt>
      <trkpt lat="50.24795" lon="4.29213">
        <ele>199.123734</ele>
        <time>2023-05-18T06:48:42Z</time>
      </trkpt>
      <trkpt lat="50.24789" lon="4.2921">
        <ele>199.488861</ele>
        <time>2023-05-18T06:48:44Z</time>
      </trkpt>
      <trkpt lat="50.24783" lon="4.29208">
        <ele>199.675858</ele>
        <time>2023-05-18T06:48:46Z</time>
      </trkpt>
      <trkpt lat="50.24777" lon="4.29206">
        <ele>200.055634</ele>
        <time>2023-05-18T06:48:48Z</time>
      </trkpt>
      <trkpt lat="50.24771" lon="4.29204">
        <ele>200.444458</ele>
        <time>2023-05-18T06:48:50Z</time>
      </trkpt>
      <trkpt lat="50.24768" lon="4.29203">
        <ele>200.628098</ele>
        <time>2023-05-18T06:48:51Z</time>
      </trkpt>
      <trkpt lat="50.24762" lon="4.29201">
        <ele>201.01387</ele>
        <time>2023-05-18T06:48:53Z</time>
      </trkpt>
      <trkpt lat="50.24757" lon="4.29199">
        <ele>201.475098</ele>
        <time>2023-05-18T06:48:55Z</time>
      </trkpt>
      <trkpt lat="50.24751" lon="4.29197">
        <ele>201.93428</ele>
        <time>2023-05-18T06:48:57Z</time>
      </trkpt>
      <trkpt lat="50.24745" lon="4.29195">
        <ele>202.342972</ele>
        <time>2023-05-18T06:48:59Z</time>
      </trkpt>
      <trkpt lat="50.24739" lon="4.29193">
        <ele>202.843262</ele>
        <time>2023-05-18T06:49:01Z</time>
      </trkpt>
      <trkpt lat="50.24733" lon="4.29191">
        <ele>203.367157</ele>
        <time>2023-05-18T06:49:03Z</time>
      </trkpt>
      <trkpt lat="50.24727" lon="4.29188">
        <ele>203.92659</ele>
        <time>2023-05-18T06:49:05Z</time>
      </trkpt>
      <trkpt lat="50.24721" lon="4.29185">
        <ele>204.364914</ele>
        <time>2023-05-18T06:49:07Z</time>
      </trkpt>
      <trkpt lat="50.24715" lon="4.29183">
        <ele>204.784515</ele>
        <time>2023-05-18T06:49:09Z</time>
      </trkpt>
      <trkpt lat="50.24708" lon="4.2918">
        <ele>205.220825</ele>
        <time>2023-05-18T06:49:11Z</time>
      </trkpt>
      <trkpt lat="50.24701" lon="4.29177">
        <ele>205.711426</ele>
        <time>2023-05-18T06:49:13Z</time>
      </trkpt>
      <trkpt lat="50.24694" lon="4.29174">
        <ele>206.118805</ele>
        <time>2023-05-18T06:49:15Z</time>
      </trkpt>
      <trkpt lat="50.24687" lon="4.29171">
        <ele>206.32756</ele>
        <time>2023-05-18T06:49:17Z</time>
      </trkpt>
      <trkpt lat="50.2468" lon="4.29168">
        <ele>206.80571</ele>
        <time>2023-05-18T06:49:19Z</time>
      </trkpt>
      <trkpt lat="50.24673" lon="4.29165">
        <ele>207.294281</ele>
        <time>2023-05-18T06:49:21Z</time>
      </trkpt>
      <trkpt lat="50.24666" lon="4.29162">
        <ele>207.782913</ele>
        <time>2023-05-18T06:49:23Z</time>
      </trkpt>
      <trkpt lat="50.24658" lon="4.29159">
        <ele>208.181732</ele>
        <time>2023-05-18T06:49:25Z</time>
      </trkpt>
      <trkpt lat="50.2465" lon="4.29156">
        <ele>208.672363</ele>
        <time>2023-05-18T06:49:27Z</time>
      </trkpt>
      <trkpt lat="50.24643" lon="4.29152">
        <ele>209.06311</ele>
        <time>2023-05-18T06:49:29Z</time>
      </trkpt>
      <trkpt lat="50.24635" lon="4.29149">
        <ele>209.418182</ele>
        <time>2023-05-18T06:49:31Z</time>
      </trkpt>
      <trkpt lat="50.24628" lon="4.29147">
        <ele>209.822845</ele>
        <time>2023-05-18T06:49:33Z</time>
      </trkpt>
      <trkpt lat="50.24623" lon="4.29143">
        <ele>210.209869</ele>
        <time>2023-05-18T06:49:35Z</time>
      </trkpt>
      <trkpt lat="50.24617" lon="4.2914">
        <ele>210.498077</ele>
        <time>2023-05-18T06:49:37Z</time>
      </trkpt>
      <trkpt lat="50.24611" lon="4.29139">
        <ele>210.901581</ele>
        <time>2023-05-18T06:49:39Z</time>
      </trkpt>
      <trkpt lat="50.24603" lon="4.29138">
        <ele>211.237183</ele>
        <time>2023-05-18T06:49:41Z</time>
      </trkpt>
      <trkpt lat="50.24597" lon="4.29137">
        <ele>211.53801</ele>
        <time>2023-05-18T06:49:43Z</time>
      </trkpt>
      <trkpt lat="50.2459" lon="4.29134">
        <ele>211.815872</ele>
        <time>2023-05-18T06:49:45Z</time>
      </trkpt>
      <trkpt lat="50.24583" lon="4.29131">
        <ele>212.22319</ele>
        <time>2023-05-18T06:49:47Z</time>
      </trkpt>
      <trkpt lat="50.24577" lon="4.29128">
        <ele>212.585251</ele>
        <time>2023-05-18T06:49:49Z</time>
      </trkpt>
      <trkpt lat="50.2457" lon="4.29125">
        <ele>212.935989</ele>
        <time>2023-05-18T06:49:51Z</time>
      </trkpt>
      <trkpt lat="50.24564" lon="4.29122">
        <ele>213.310715</ele>
        <time>2023-05-18T06:49:53Z</time>
      </trkpt>
      <trkpt lat="50.24557" lon="4.29119">
        <ele>213.720215</ele>
        <time>2023-05-18T06:49:55Z</time>
      </trkpt>
      <trkpt lat="50.24551" lon="4.29116">
        <ele>214.037872</ele>
        <time>2023-05-18T06:49:57Z</time>
      </trkpt>
      <trkpt lat="50.24545" lon="4.2911">
        <ele>214.50386</ele>
        <time>2023-05-18T06:49:59Z</time>
      </trkpt>
      <trkpt lat="50.24539" lon="4.29105">
        <ele>214.819366</ele>
        <time>2023-05-18T06:50:01Z</time>
      </trkpt>
      <trkpt lat="50.24531" lon="4.29098">
        <ele>215.189056</ele>
        <time>2023-05-18T06:50:03Z</time>
      </trkpt>
      <trkpt lat="50.24524" lon="4.29091">
        <ele>215.51506</ele>
        <time>2023-05-18T06:50:05Z</time>
      </trkpt>
      <trkpt lat="50.24517" lon="4.29083">
        <ele>215.883713</ele>
        <time>2023-05-18T06:50:07Z</time>
      </trkpt>
      <trkpt lat="50.24509" lon="4.29075">
        <ele>216.272186</ele>
        <time>2023-05-18T06:50:09Z</time>
      </trkpt>
      <trkpt lat="50.24503" lon="4.29066">
        <ele>216.717285</ele>
        <time>2023-05-18T06:50:11Z</time>
      </trkpt>
      <trkpt lat="50.24495" lon="4.29057">
        <ele>217.133636</ele>
        <time>2023-05-18T06:50:13Z</time>
      </trkpt>
      <trkpt lat="50.24488" lon="4.29048">
        <ele>217.490997</ele>
        <time>2023-05-18T06:50:15Z</time>
      </trkpt>
      <trkpt lat="50.24482" lon="4.29039">
        <ele>217.752228</ele>
        <time>2023-05-18T06:50:17Z</time>
      </trkpt>
      <trkpt lat="50.24475" lon="4.29031">
        <ele>218.143066</ele>
        <time>2023-05-18T06:50:19Z</time>
      </trkpt>
      <trkpt lat="50.24468" lon="4.29022">
        <ele>219.084351</ele>
        <time>2023-05-18T06:50:21Z</time>
      </trkpt>
      <trkpt lat="50.24461" lon="4.29014">
        <ele>219.312164</ele>
        <time>2023-05-18T06:50:23Z</time>
      </trkpt>
      <trkpt lat="50.24455" lon="4.29007">
        <ele>219.535843</ele>
        <time>2023-05-18T06:50:25Z</time>
      </trkpt>
      <trkpt lat="50.24448" lon="4.29">
        <ele>219.767853</ele>
        <time>2023-05-18T06:50:27Z</time>
      </trkpt>
      <trkpt lat="50.2444" lon="4.28995">
        <ele>219.974777</ele>
        <time>2023-05-18T06:50:29Z</time>
      </trkpt>
      <trkpt lat="50.24431" lon="4.28992">
        <ele>220.270966</ele>
        <time>2023-05-18T06:50:31Z</time>
      </trkpt>
      <trkpt lat="50.24424" lon="4.2899">
        <ele>220.001953</ele>
        <time>2023-05-18T06:50:33Z</time>
      </trkpt>
      <trkpt lat="50.24416" lon="4.28987">
        <ele>220.239532</ele>
        <time>2023-05-18T06:50:35Z</time>
      </trkpt>
      <trkpt lat="50.24407" lon="4.28984">
        <ele>220.456955</ele>
        <time>2023-05-18T06:50:37Z</time>
      </trkpt>
      <trkpt lat="50.24399" lon="4.28982">
        <ele>219.970291</ele>
        <time>2023-05-18T06:50:39Z</time>
      </trkpt>
      <trkpt lat="50.24391" lon="4.2898">
        <ele>220.139618</ele>
        <time>2023-05-18T06:50:41Z</time>
      </trkpt>
      <trkpt lat="50.24382" lon="4.28977">
        <ele>220.344696</ele>
        <time>2023-05-18T06:50:43Z</time>
      </trkpt>
      <trkpt lat="50.24375" lon="4.28974">
        <ele>221.056183</ele>
        <time>2023-05-18T06:50:45Z</time>
      </trkpt>
      <trkpt lat="50.24368" lon="4.28973">
        <ele>221.22554</ele>
        <time>2023-05-18T06:50:47Z</time>
      </trkpt>
      <trkpt lat="50.24361" lon="4.28971">
        <ele>221.445099</ele>
        <time>2023-05-18T06:50:49Z</time>
      </trkpt>
      <trkpt lat="50.24354" lon="4.28968">
        <ele>221.629105</ele>
        <time>2023-05-18T06:50:51Z</time>
      </trkpt>
      <trkpt lat="50.24346" lon="4.28965">
        <ele>221.871674</ele>
        <time>2023-05-18T06:50:53Z</time>
      </trkpt>
      <trkpt lat="50.24338" lon="4.28962">
        <ele>222.097534</ele>
        <time>2023-05-18T06:50:55Z</time>
      </trkpt>
      <trkpt lat="50.24331" lon="4.28959">
        <ele>222.360992</ele>
        <time>2023-05-18T06:50:57Z</time>
      </trkpt>
      <trkpt lat="50.24323" lon="4.28956">
        <ele>222.528275</ele>
        <time>2023-05-18T06:50:59Z</time>
      </trkpt>
      <trkpt lat="50.24315" lon="4.28954">
        <ele>222.689301</ele>
        <time>2023-05-18T06:51:01Z</time>
      </trkpt>
      <trkpt lat="50.24308" lon="4.28953">
        <ele>222.272705</ele>
        <time>2023-05-18T06:51:03Z</time>
      </trkpt>
      <trkpt lat="50.24299" lon="4.28952">
        <ele>222.548737</ele>
        <time>2023-05-18T06:51:05Z</time>
      </trkpt>
      <trkpt lat="50.24291" lon="4.28951">
        <ele>222.71814</ele>
        <time>2023-05-18T06:51:07Z</time>
      </trkpt>
      <trkpt lat="50.24283" lon="4.2895">
        <ele>223.071564</ele>
        <time>2023-05-18T06:51:09Z</time>
      </trkpt>
      <trkpt lat="50.24275" lon="4.28951">
        <ele>223.399872</ele>
        <time>2023-05-18T06:51:11Z</time>
      </trkpt>
      <trkpt lat="50.24266" lon="4.28953">
        <ele>223.60791</ele>
        <time>2023-05-18T06:51:13Z</time>
      </trkpt>
      <trkpt lat="50.24259" lon="4.28953">
        <ele>224.352295</ele>
        <time>2023-05-18T06:51:15Z</time>
      </trkpt>
      <trkpt lat="50.24251" lon="4.28952">
        <ele>224.636765</ele>
        <time>2023-05-18T06:51:17Z</time>
      </trkpt>
      <trkpt lat="50.24243" lon="4.28951">
        <ele>224.917023</ele>
        <time>2023-05-18T06:51:19Z</time>
      </trkpt>
      <trkpt lat="50.24237" lon="4.28947">
        <ele>225.880615</ele>
        <time>2023-05-18T06:51:21Z</time>
      </trkpt>
      <trkpt lat="50.2423" lon="4.28946">
        <ele>226.165085</ele>
        <time>2023-05-18T06:51:23Z</time>
      </trkpt>
      <trkpt lat="50.24224" lon="4.28943">
        <ele>226.43161</ele>
        <time>2023-05-18T06:51:25Z</time>
      </trkpt>
      <trkpt lat="50.24218" lon="4.28938">
        <ele>226.198212</ele>
        <time>2023-05-18T06:51:27Z</time>
      </trkpt>
      <trkpt lat="50.24212" lon="4.28934">
        <ele>226.451324</ele>
        <time>2023-05-18T06:51:29Z</time>
      </trkpt>
      <trkpt lat="50.24204" lon="4.28931">
        <ele>226.712814</ele>
        <time>2023-05-18T06:51:31Z</time>
      </trkpt>
      <trkpt lat="50.24198" lon="4.28927">
        <ele>227.04129</ele>
        <time>2023-05-18T06:51:33Z</time>
      </trkpt>
      <trkpt lat="50.2419" lon="4.28926">
        <ele>227.152145</ele>
        <time>2023-05-18T06:51:35Z</time>
      </trkpt>
      <trkpt lat="50.24181" lon="4.28928">
        <ele>227.403198</ele>
        <time>2023-05-18T06:51:37Z</time>
      </trkpt>
      <trkpt lat="50.24173" lon="4.28931">
        <ele>227.670975</ele>
        <time>2023-05-18T06:51:39Z</time>
      </trkpt>
      <trkpt lat="50.24162" lon="4.28935">
        <ele>227.901093</ele>
        <time>2023-05-18T06:51:41Z</time>
      </trkpt>
      <trkpt lat="50.24149" lon="4.28937">
        <ele>228.114868</ele>
        <time>2023-05-18T06:51:43Z</time>
      </trkpt>
      <trkpt lat="50.24139" lon="4.2894">
        <ele>228.240402</ele>
        <time>2023-05-18T06:51:45Z</time>
      </trkpt>
      <trkpt lat="50.2413" lon="4.28943">
        <ele>228.468475</ele>
        <time>2023-05-18T06:51:47Z</time>
      </trkpt>
      <trkpt lat="50.24121" lon="4.28945">
        <ele>228.80954</ele>
        <time>2023-05-18T06:51:49Z</time>
      </trkpt>
      <trkpt lat="50.24112" lon="4.28947">
        <ele>228.953934</ele>
        <time>2023-05-18T06:51:51Z</time>
      </trkpt>
      <trkpt lat="50.24104" lon="4.28949">
        <ele>229.229004</ele>
        <time>2023-05-18T06:51:53Z</time>
      </trkpt>
      <trkpt lat="50.24096" lon="4.2895">
        <ele>229.447723</ele>
        <time>2023-05-18T06:51:55Z</time>
      </trkpt>
      <trkpt lat="50.24089" lon="4.2895">
        <ele>229.637726</ele>
        <time>2023-05-18T06:51:57Z</time>
      </trkpt>
      <trkpt lat="50.24082" lon="4.28951">
        <ele>229.914215</ele>
        <time>2023-05-18T06:51:59Z</time>
      </trkpt>
      <trkpt lat="50.24075" lon="4.28953">
        <ele>230.131836</ele>
        <time>2023-05-18T06:52:01Z</time>
      </trkpt>
      <trkpt lat="50.24068" lon="4.28957">
        <ele>230.278351</ele>
        <time>2023-05-18T06:52:03Z</time>
      </trkpt>
      <trkpt lat="50.2406" lon="4.28962">
        <ele>230.499298</ele>
        <time>2023-05-18T06:52:05Z</time>
      </trkpt>
      <trkpt lat="50.24055" lon="4.28969">
        <ele>230.713623</ele>
        <time>2023-05-18T06:52:07Z</time>
      </trkpt>
      <trkpt lat="50.24049" lon="4.28977">
        <ele>230.964752</ele>
        <time>2023-05-18T06:52:09Z</time>
      </trkpt>
      <trkpt lat="50.2404" lon="4.28986">
        <ele>231.213821</ele>
        <time>2023-05-18T06:52:11Z</time>
      </trkpt>
      <trkpt lat="50.24034" lon="4.28993">
        <ele>231.393799</ele>
        <time>2023-05-18T06:52:13Z</time>
      </trkpt>
      <trkpt lat="50.24026" lon="4.29">
        <ele>231.592972</ele>
        <time>2023-05-18T06:52:15Z</time>
      </trkpt>
      <trkpt lat="50.24019" lon="4.29008">
        <ele>231.856689</ele>
        <time>2023-05-18T06:52:17Z</time>
      </trkpt>
      <trkpt lat="50.24011" lon="4.29015">
        <ele>232.132965</ele>
        <time>2023-05-18T06:52:19Z</time>
      </trkpt>
      <trkpt lat="50.24003" lon="4.29021">
        <ele>232.319214</ele>
        <time>2023-05-18T06:52:21Z</time>
      </trkpt>
      <trkpt lat="50.23996" lon="4.29027">
        <ele>232.497116</ele>
        <time>2023-05-18T06:52:23Z</time>
      </trkpt>
      <trkpt lat="50.23987" lon="4.29033">
        <ele>232.645355</ele>
        <time>2023-05-18T06:52:25Z</time>
      </trkpt>
      <trkpt lat="50.23979" lon="4.29037">
        <ele>232.77095</ele>
        <time>2023-05-18T06:52:27Z</time>
      </trkpt>
      <trkpt lat="50.23971" lon="4.2904">
        <ele>232.863037</ele>
        <time>2023-05-18T06:52:29Z</time>
      </trkpt>
      <trkpt lat="50.23967" lon="4.29042">
        <ele>232.999069</ele>
        <time>2023-05-18T06:52:30Z</time>
      </trkpt>
      <trkpt lat="50.23959" lon="4.29045">
        <ele>233.110031</ele>
        <time>2023-05-18T06:52:32Z</time>
      </trkpt>
      <trkpt lat="50.23951" lon="4.29047">
        <ele>233.272339</ele>
        <time>2023-05-18T06:52:34Z</time>
      </trkpt>
      <trkpt lat="50.23944" lon="4.2905">
        <ele>233.477463</ele>
        <time>2023-05-18T06:52:36Z</time>
      </trkpt>
      <trkpt lat="50.2394" lon="4.29051">
        <ele>233.523514</ele>
        <time>2023-05-18T06:52:37Z</time>
      </trkpt>
      <trkpt lat="50.23932" lon="4.29055">
        <ele>233.709839</ele>
        <time>2023-05-18T06:52:39Z</time>
      </trkpt>
      <trkpt lat="50.23924" lon="4.29059">
        <ele>233.829712</ele>
        <time>2023-05-18T06:52:41Z</time>
      </trkpt>
      <trkpt lat="50.23916" lon="4.29064">
        <ele>234.074677</ele>
        <time>2023-05-18T06:52:43Z</time>
      </trkpt>
      <trkpt lat="50.23908" lon="4.29069">
        <ele>234.202362</ele>
        <time>2023-05-18T06:52:45Z</time>
      </trkpt>
      <trkpt lat="50.23901" lon="4.29074">
        <ele>234.338455</ele>
        <time>2023-05-18T06:52:47Z</time>
      </trkpt>
      <trkpt lat="50.23893" lon="4.2908">
        <ele>234.517853</ele>
        <time>2023-05-18T06:52:49Z</time>
      </trkpt>
      <trkpt lat="50.23886" lon="4.29087">
        <ele>234.599487</ele>
        <time>2023-05-18T06:52:51Z</time>
      </trkpt>
      <trkpt lat="50.23879" lon="4.29093">
        <ele>234.829269</ele>
        <time>2023-05-18T06:52:53Z</time>
      </trkpt>
      <trkpt lat="50.23872" lon="4.29099">
        <ele>234.971649</ele>
        <time>2023-05-18T06:52:55Z</time>
      </trkpt>
      <trkpt lat="50.23866" lon="4.29106">
        <ele>235.132538</ele>
        <time>2023-05-18T06:52:57Z</time>
      </trkpt>
      <trkpt lat="50.23859" lon="4.29112">
        <ele>235.187622</ele>
        <time>2023-05-18T06:52:59Z</time>
      </trkpt>
      <trkpt lat="50.23852" lon="4.29118">
        <ele>235.256714</ele>
        <time>2023-05-18T06:53:01Z</time>
      </trkpt>
      <trkpt lat="50.23846" lon="4.29124">
        <ele>235.484787</ele>
        <time>2023-05-18T06:53:03Z</time>
      </trkpt>
      <trkpt lat="50.2384" lon="4.2913">
        <ele>235.695099</ele>
        <time>2023-05-18T06:53:05Z</time>
      </trkpt>
      <trkpt lat="50.23834" lon="4.29135">
        <ele>235.837814</ele>
        <time>2023-05-18T06:53:07Z</time>
      </trkpt>
      <trkpt lat="50.23829" lon="4.29139">
        <ele>236.051392</ele>
        <time>2023-05-18T06:53:09Z</time>
      </trkpt>
      <trkpt lat="50.23824" lon="4.29145">
        <ele>236.235626</ele>
        <time>2023-05-18T06:53:11Z</time>
      </trkpt>
      <trkpt lat="50.23818" lon="4.2915">
        <ele>236.3508</ele>
        <time>2023-05-18T06:53:13Z</time>
      </trkpt>
      <trkpt lat="50.23812" lon="4.29156">
        <ele>236.568604</ele>
        <time>2023-05-18T06:53:15Z</time>
      </trkpt>
      <trkpt lat="50.23809" lon="4.29159">
        <ele>236.595825</ele>
        <time>2023-05-18T06:53:16Z</time>
      </trkpt>
      <trkpt lat="50.23803" lon="4.29166">
        <ele>236.895309</ele>
        <time>2023-05-18T06:53:18Z</time>
      </trkpt>
      <trkpt lat="50.23796" lon="4.29172">
        <ele>237.096359</ele>
        <time>2023-05-18T06:53:20Z</time>
      </trkpt>
      <trkpt lat="50.23789" lon="4.29178">
        <ele>237.37825</ele>
        <time>2023-05-18T06:53:22Z</time>
      </trkpt>
      <trkpt lat="50.23782" lon="4.29184">
        <ele>237.562546</ele>
        <time>2023-05-18T06:53:24Z</time>
      </trkpt>
      <trkpt lat="50.23776" lon="4.2919">
        <ele>237.711227</ele>
        <time>2023-05-18T06:53:26Z</time>
      </trkpt>
      <trkpt lat="50.23769" lon="4.29196">
        <ele>237.830597</ele>
        <time>2023-05-18T06:53:28Z</time>
      </trkpt>
      <trkpt lat="50.23761" lon="4.29201">
        <ele>238.049072</ele>
        <time>2023-05-18T06:53:30Z</time>
      </trkpt>
      <trkpt lat="50.23754" lon="4.29204">
        <ele>238.266891</ele>
        <time>2023-05-18T06:53:32Z</time>
      </trkpt>
      <trkpt lat="50.23747" lon="4.29208">
        <ele>238.38884</ele>
        <time>2023-05-18T06:53:34Z</time>
      </trkpt>
      <trkpt lat="50.23739" lon="4.29213">
        <ele>238.531281</ele>
        <time>2023-05-18T06:53:36Z</time>
      </trkpt>
      <trkpt lat="50.23731" lon="4.29218">
        <ele>238.776321</ele>
        <time>2023-05-18T06:53:38Z</time>
      </trkpt>
      <trkpt lat="50.23723" lon="4.29223">
        <ele>239.045242</ele>
        <time>2023-05-18T06:53:40Z</time>
      </trkpt>
      <trkpt lat="50.23715" lon="4.29229">
        <ele>239.243576</ele>
        <time>2023-05-18T06:53:42Z</time>
      </trkpt>
      <trkpt lat="50.23708" lon="4.29234">
        <ele>239.472</ele>
        <time>2023-05-18T06:53:44Z</time>
      </trkpt>
      <trkpt lat="50.23703" lon="4.29237">
        <ele>239.567459</ele>
        <time>2023-05-18T06:53:45Z</time>
      </trkpt>
      <trkpt lat="50.23695" lon="4.29242">
        <ele>239.755569</ele>
        <time>2023-05-18T06:53:47Z</time>
      </trkpt>
      <trkpt lat="50.23688" lon="4.29248">
        <ele>240.018509</ele>
        <time>2023-05-18T06:53:49Z</time>
      </trkpt>
      <trkpt lat="50.23681" lon="4.29255">
        <ele>240.247635</ele>
        <time>2023-05-18T06:53:51Z</time>
      </trkpt>
      <trkpt lat="50.23673" lon="4.2926">
        <ele>240.446625</ele>
        <time>2023-05-18T06:53:53Z</time>
      </trkpt>
      <trkpt lat="50.23666" lon="4.29265">
        <ele>240.14119</ele>
        <time>2023-05-18T06:53:55Z</time>
      </trkpt>
      <trkpt lat="50.23658" lon="4.2927">
        <ele>239.867157</ele>
        <time>2023-05-18T06:53:57Z</time>
      </trkpt>
      <trkpt lat="50.23649" lon="4.29274">
        <ele>239.456985</ele>
        <time>2023-05-18T06:53:59Z</time>
      </trkpt>
      <trkpt lat="50.23641" lon="4.29277">
        <ele>239.590378</ele>
        <time>2023-05-18T06:54:01Z</time>
      </trkpt>
      <trkpt lat="50.23633" lon="4.29279">
        <ele>239.709793</ele>
        <time>2023-05-18T06:54:03Z</time>
      </trkpt>
      <trkpt lat="50.23628" lon="4.2928">
        <ele>239.724457</ele>
        <time>2023-05-18T06:54:04Z</time>
      </trkpt>
      <trkpt lat="50.23624" lon="4.29281">
        <ele>239.770538</ele>
        <time>2023-05-18T06:54:05Z</time>
      </trkpt>
      <trkpt lat="50.23616" lon="4.29283">
        <ele>239.944382</ele>
        <time>2023-05-18T06:54:07Z</time>
      </trkpt>
      <trkpt lat="50.23609" lon="4.29285">
        <ele>240.149002</ele>
        <time>2023-05-18T06:54:09Z</time>
      </trkpt>
      <trkpt lat="50.23602" lon="4.29288">
        <ele>240.251984</ele>
        <time>2023-05-18T06:54:11Z</time>
      </trkpt>
      <trkpt lat="50.23595" lon="4.2929">
        <ele>239.896317</ele>
        <time>2023-05-18T06:54:13Z</time>
      </trkpt>
      <trkpt lat="50.23591" lon="4.29291">
        <ele>239.946579</ele>
        <time>2023-05-18T06:54:14Z</time>
      </trkpt>
      <trkpt lat="50.23584" lon="4.29292">
        <ele>240.026199</ele>
        <time>2023-05-18T06:54:16Z</time>
      </trkpt>
      <trkpt lat="50.23576" lon="4.29293">
        <ele>240.174957</ele>
        <time>2023-05-18T06:54:18Z</time>
      </trkpt>
      <trkpt lat="50.23571" lon="4.29293">
        <ele>240.22139</ele>
        <time>2023-05-18T06:54:19Z</time>
      </trkpt>
      <trkpt lat="50.23563" lon="4.29294">
        <ele>240.402802</ele>
        <time>2023-05-18T06:54:21Z</time>
      </trkpt>
      <trkpt lat="50.23554" lon="4.29295">
        <ele>240.469849</ele>
        <time>2023-05-18T06:54:23Z</time>
      </trkpt>
      <trkpt lat="50.23545" lon="4.29295">
        <ele>240.524338</ele>
        <time>2023-05-18T06:54:25Z</time>
      </trkpt>
      <trkpt lat="50.23537" lon="4.29294">
        <ele>240.650055</ele>
        <time>2023-05-18T06:54:27Z</time>
      </trkpt>
      <trkpt lat="50.2353" lon="4.29295">
        <ele>240.728546</ele>
        <time>2023-05-18T06:54:29Z</time>
      </trkpt>
      <trkpt lat="50.23523" lon="4.29294">
        <ele>240.908737</ele>
        <time>2023-05-18T06:54:31Z</time>
      </trkpt>
      <trkpt lat="50.23517" lon="4.2929">
        <ele>240.483078</ele>
        <time>2023-05-18T06:54:33Z</time>
      </trkpt>
      <trkpt lat="50.23509" lon="4.29285">
        <ele>240.609528</ele>
        <time>2023-05-18T06:54:35Z</time>
      </trkpt>
      <trkpt lat="50.23501" lon="4.2928">
        <ele>242.197235</ele>
        <time>2023-05-18T06:54:37Z</time>
      </trkpt>
      <trkpt lat="50.23497" lon="4.29278">
        <ele>242.247528</ele>
        <time>2023-05-18T06:54:38Z</time>
      </trkpt>
      <trkpt lat="50.23489" lon="4.29274">
        <ele>242.784393</ele>
        <time>2023-05-18T06:54:40Z</time>
      </trkpt>
      <trkpt lat="50.23481" lon="4.29269">
        <ele>242.929657</ele>
        <time>2023-05-18T06:54:42Z</time>
      </trkpt>
      <trkpt lat="50.23473" lon="4.29265">
        <ele>243.009277</ele>
        <time>2023-05-18T06:54:44Z</time>
      </trkpt>
      <trkpt lat="50.23465" lon="4.29261">
        <ele>243.149658</ele>
        <time>2023-05-18T06:54:46Z</time>
      </trkpt>
      <trkpt lat="50.23458" lon="4.29257">
        <ele>243.153839</ele>
        <time>2023-05-18T06:54:48Z</time>
      </trkpt>
      <trkpt lat="50.23451" lon="4.29254">
        <ele>243.217407</ele>
        <time>2023-05-18T06:54:50Z</time>
      </trkpt>
      <trkpt lat="50.23444" lon="4.29248">
        <ele>243.852463</ele>
        <time>2023-05-18T06:54:52Z</time>
      </trkpt>
      <trkpt lat="50.23435" lon="4.29244">
        <ele>244.495636</ele>
        <time>2023-05-18T06:54:54Z</time>
      </trkpt>
      <trkpt lat="50.23426" lon="4.29239">
        <ele>244.401337</ele>
        <time>2023-05-18T06:54:56Z</time>
      </trkpt>
      <trkpt lat="50.23415" lon="4.29236">
        <ele>244.458527</ele>
        <time>2023-05-18T06:54:58Z</time>
      </trkpt>
      <trkpt lat="50.23406" lon="4.29232">
        <ele>244.61116</ele>
        <time>2023-05-18T06:55:00Z</time>
      </trkpt>
      <trkpt lat="50.23395" lon="4.29227">
        <ele>244.119141</ele>
        <time>2023-05-18T06:55:02Z</time>
      </trkpt>
      <trkpt lat="50.23384" lon="4.29223">
        <ele>244.25325</ele>
        <time>2023-05-18T06:55:04Z</time>
      </trkpt>
      <trkpt lat="50.23373" lon="4.29219">
        <ele>244.316116</ele>
        <time>2023-05-18T06:55:06Z</time>
      </trkpt>
      <trkpt lat="50.23362" lon="4.29215">
        <ele>244.418793</ele>
        <time>2023-05-18T06:55:08Z</time>
      </trkpt>
      <trkpt lat="50.23352" lon="4.29211">
        <ele>244.52771</ele>
        <time>2023-05-18T06:55:10Z</time>
      </trkpt>
      <trkpt lat="50.2334" lon="4.29207">
        <ele>244.477417</ele>
        <time>2023-05-18T06:55:12Z</time>
      </trkpt>
      <trkpt lat="50.23329" lon="4.29203">
        <ele>245.059402</ele>
        <time>2023-05-18T06:55:14Z</time>
      </trkpt>
      <trkpt lat="50.23317" lon="4.29199">
        <ele>245.039825</ele>
        <time>2023-05-18T06:55:16Z</time>
      </trkpt>
      <trkpt lat="50.23306" lon="4.29196">
        <ele>244.511276</ele>
        <time>2023-05-18T06:55:18Z</time>
      </trkpt>
      <trkpt lat="50.23294" lon="4.29192">
        <ele>244.024658</ele>
        <time>2023-05-18T06:55:20Z</time>
      </trkpt>
      <trkpt lat="50.23282" lon="4.29189">
        <ele>244.525513</ele>
        <time>2023-05-18T06:55:22Z</time>
      </trkpt>
      <trkpt lat="50.2327" lon="4.29185">
        <ele>244.538086</ele>
        <time>2023-05-18T06:55:24Z</time>
      </trkpt>
      <trkpt lat="50.23259" lon="4.29182">
        <ele>244.565353</ele>
        <time>2023-05-18T06:55:26Z</time>
      </trkpt>
      <trkpt lat="50.23248" lon="4.29179">
        <ele>244.600998</ele>
        <time>2023-05-18T06:55:28Z</time>
      </trkpt>
      <trkpt lat="50.23237" lon="4.29179">
        <ele>245.272049</ele>
        <time>2023-05-18T06:55:30Z</time>
      </trkpt>
      <trkpt lat="50.23224" lon="4.29182">
        <ele>244.678558</ele>
        <time>2023-05-18T06:55:32Z</time>
      </trkpt>
      <trkpt lat="50.2321" lon="4.29187">
        <ele>244.583817</ele>
        <time>2023-05-18T06:55:34Z</time>
      </trkpt>
      <trkpt lat="50.23195" lon="4.29189">
        <ele>244.162018</ele>
        <time>2023-05-18T06:55:36Z</time>
      </trkpt>
      <trkpt lat="50.23181" lon="4.29183">
        <ele>243.603104</ele>
        <time>2023-05-18T06:55:38Z</time>
      </trkpt>
      <trkpt lat="50.23167" lon="4.29176">
        <ele>243.748993</ele>
        <time>2023-05-18T06:55:40Z</time>
      </trkpt>
      <trkpt lat="50.23154" lon="4.29167">
        <ele>243.547852</ele>
        <time>2023-05-18T06:55:42Z</time>
      </trkpt>
      <trkpt lat="50.23142" lon="4.29154">
        <ele>244.023834</ele>
        <time>2023-05-18T06:55:44Z</time>
      </trkpt>
      <trkpt lat="50.23131" lon="4.2914">
        <ele>243.952591</ele>
        <time>2023-05-18T06:55:46Z</time>
      </trkpt>
      <trkpt lat="50.23119" lon="4.29125">
        <ele>243.766113</ele>
        <time>2023-05-18T06:55:48Z</time>
      </trkpt>
      <trkpt lat="50.23109" lon="4.2911">
        <ele>243.565521</ele>
        <time>2023-05-18T06:55:50Z</time>
      </trkpt>
      <trkpt lat="50.23098" lon="4.29097">
        <ele>243.471237</ele>
        <time>2023-05-18T06:55:52Z</time>
      </trkpt>
      <trkpt lat="50.23087" lon="4.29084">
        <ele>243.20517</ele>
        <time>2023-05-18T06:55:54Z</time>
      </trkpt>
      <trkpt lat="50.23075" lon="4.29071">
        <ele>243.0439</ele>
        <time>2023-05-18T06:55:56Z</time>
      </trkpt>
      <trkpt lat="50.23064" lon="4.29056">
        <ele>242.742188</ele>
        <time>2023-05-18T06:55:58Z</time>
      </trkpt>
      <trkpt lat="50.23053" lon="4.29043">
        <ele>242.306549</ele>
        <time>2023-05-18T06:56:00Z</time>
      </trkpt>
      <trkpt lat="50.23043" lon="4.29029">
        <ele>242.216461</ele>
        <time>2023-05-18T06:56:02Z</time>
      </trkpt>
      <trkpt lat="50.23032" lon="4.29017">
        <ele>241.851349</ele>
        <time>2023-05-18T06:56:04Z</time>
      </trkpt>
      <trkpt lat="50.23021" lon="4.29004">
        <ele>241.470062</ele>
        <time>2023-05-18T06:56:06Z</time>
      </trkpt>
      <trkpt lat="50.23011" lon="4.28991">
        <ele>241.283646</ele>
        <time>2023-05-18T06:56:08Z</time>
      </trkpt>
      <trkpt lat="50.23" lon="4.28979">
        <ele>240.947098</ele>
        <time>2023-05-18T06:56:10Z</time>
      </trkpt>
      <trkpt lat="50.2299" lon="4.28965">
        <ele>240.1064</ele>
        <time>2023-05-18T06:56:12Z</time>
      </trkpt>
      <trkpt lat="50.2298" lon="4.28954">
        <ele>239.760788</ele>
        <time>2023-05-18T06:56:14Z</time>
      </trkpt>
      <trkpt lat="50.22971" lon="4.28943">
        <ele>239.353439</ele>
        <time>2023-05-18T06:56:16Z</time>
      </trkpt>
      <trkpt lat="50.22961" lon="4.28932">
        <ele>240.102005</ele>
        <time>2023-05-18T06:56:18Z</time>
      </trkpt>
      <trkpt lat="50.22953" lon="4.28922">
        <ele>239.618408</ele>
        <time>2023-05-18T06:56:20Z</time>
      </trkpt>
      <trkpt lat="50.22944" lon="4.28911">
        <ele>239.186722</ele>
        <time>2023-05-18T06:56:22Z</time>
      </trkpt>
      <trkpt lat="50.22936" lon="4.28901">
        <ele>238.864182</ele>
        <time>2023-05-18T06:56:24Z</time>
      </trkpt>
      <trkpt lat="50.22926" lon="4.28891">
        <ele>238.362885</ele>
        <time>2023-05-18T06:56:26Z</time>
      </trkpt>
      <trkpt lat="50.22916" lon="4.28882">
        <ele>238.069656</ele>
        <time>2023-05-18T06:56:28Z</time>
      </trkpt>
      <trkpt lat="50.22907" lon="4.28873">
        <ele>237.611038</ele>
        <time>2023-05-18T06:56:30Z</time>
      </trkpt>
      <trkpt lat="50.22897" lon="4.28863">
        <ele>237.122849</ele>
        <time>2023-05-18T06:56:32Z</time>
      </trkpt>
      <trkpt lat="50.22886" lon="4.28853">
        <ele>236.864548</ele>
        <time>2023-05-18T06:56:34Z</time>
      </trkpt>
      <trkpt lat="50.22875" lon="4.28844">
        <ele>236.45462</ele>
        <time>2023-05-18T06:56:36Z</time>
      </trkpt>
      <trkpt lat="50.22864" lon="4.28835">
        <ele>236.236908</ele>
        <time>2023-05-18T06:56:38Z</time>
      </trkpt>
      <trkpt lat="50.22853" lon="4.28826">
        <ele>236.140594</ele>
        <time>2023-05-18T06:56:40Z</time>
      </trkpt>
      <trkpt lat="50.22842" lon="4.28816">
        <ele>235.742752</ele>
        <time>2023-05-18T06:56:42Z</time>
      </trkpt>
      <trkpt lat="50.22831" lon="4.28807">
        <ele>235.55217</ele>
        <time>2023-05-18T06:56:44Z</time>
      </trkpt>
      <trkpt lat="50.22821" lon="4.28797">
        <ele>235.308929</ele>
        <time>2023-05-18T06:56:46Z</time>
      </trkpt>
      <trkpt lat="50.2281" lon="4.28788">
        <ele>235.033661</ele>
        <time>2023-05-18T06:56:48Z</time>
      </trkpt>
      <trkpt lat="50.228" lon="4.2878">
        <ele>234.804657</ele>
        <time>2023-05-18T06:56:50Z</time>
      </trkpt>
      <trkpt lat="50.22791" lon="4.28773">
        <ele>234.501068</ele>
        <time>2023-05-18T06:56:52Z</time>
      </trkpt>
      <trkpt lat="50.22781" lon="4.28767">
        <ele>234.407471</ele>
        <time>2023-05-18T06:56:54Z</time>
      </trkpt>
      <trkpt lat="50.22772" lon="4.28762">
        <ele>234.114349</ele>
        <time>2023-05-18T06:56:56Z</time>
      </trkpt>
      <trkpt lat="50.22764" lon="4.28755">
        <ele>233.737625</ele>
        <time>2023-05-18T06:56:58Z</time>
      </trkpt>
      <trkpt lat="50.22755" lon="4.28749">
        <ele>233.44931</ele>
        <time>2023-05-18T06:57:00Z</time>
      </trkpt>
      <trkpt lat="50.22744" lon="4.28743">
        <ele>233.09549</ele>
        <time>2023-05-18T06:57:02Z</time>
      </trkpt>
      <trkpt lat="50.22734" lon="4.28737">
        <ele>232.12114</ele>
        <time>2023-05-18T06:57:04Z</time>
      </trkpt>
      <trkpt lat="50.22724" lon="4.2873">
        <ele>231.817673</ele>
        <time>2023-05-18T06:57:06Z</time>
      </trkpt>
      <trkpt lat="50.22714" lon="4.28722">
        <ele>231.698395</ele>
        <time>2023-05-18T06:57:08Z</time>
      </trkpt>
      <trkpt lat="50.22704" lon="4.28713">
        <ele>231.457642</ele>
        <time>2023-05-18T06:57:10Z</time>
      </trkpt>
      <trkpt lat="50.22695" lon="4.28703">
        <ele>231.30484</ele>
        <time>2023-05-18T06:57:12Z</time>
      </trkpt>
      <trkpt lat="50.22686" lon="4.28692">
        <ele>231.099411</ele>
        <time>2023-05-18T06:57:14Z</time>
      </trkpt>
      <trkpt lat="50.22677" lon="4.28682">
        <ele>230.811279</ele>
        <time>2023-05-18T06:57:16Z</time>
      </trkpt>
      <trkpt lat="50.22667" lon="4.28671">
        <ele>230.549103</ele>
        <time>2023-05-18T06:57:18Z</time>
      </trkpt>
      <trkpt lat="50.22659" lon="4.28659">
        <ele>230.358566</ele>
        <time>2023-05-18T06:57:20Z</time>
      </trkpt>
      <trkpt lat="50.22651" lon="4.28648">
        <ele>230.22464</ele>
        <time>2023-05-18T06:57:22Z</time>
      </trkpt>
      <trkpt lat="50.22643" lon="4.28636">
        <ele>230.064697</ele>
        <time>2023-05-18T06:57:24Z</time>
      </trkpt>
      <trkpt lat="50.22636" lon="4.28624">
        <ele>229.713104</ele>
        <time>2023-05-18T06:57:26Z</time>
      </trkpt>
      <trkpt lat="50.22628" lon="4.28612">
        <ele>229.667389</ele>
        <time>2023-05-18T06:57:28Z</time>
      </trkpt>
      <trkpt lat="50.22621" lon="4.286">
        <ele>229.45076</ele>
        <time>2023-05-18T06:57:30Z</time>
      </trkpt>
      <trkpt lat="50.22615" lon="4.28589">
        <ele>229.13269</ele>
        <time>2023-05-18T06:57:32Z</time>
      </trkpt>
      <trkpt lat="50.22608" lon="4.28576">
        <ele>228.83078</ele>
        <time>2023-05-18T06:57:34Z</time>
      </trkpt>
      <trkpt lat="50.226" lon="4.28563">
        <ele>228.571289</ele>
        <time>2023-05-18T06:57:36Z</time>
      </trkpt>
      <trkpt lat="50.22591" lon="4.28552">
        <ele>228.447845</ele>
        <time>2023-05-18T06:57:38Z</time>
      </trkpt>
      <trkpt lat="50.22581" lon="4.28541">
        <ele>228.330658</ele>
        <time>2023-05-18T06:57:40Z</time>
      </trkpt>
      <trkpt lat="50.22572" lon="4.2853">
        <ele>228.106781</ele>
        <time>2023-05-18T06:57:42Z</time>
      </trkpt>
      <trkpt lat="50.22562" lon="4.28519">
        <ele>227.711456</ele>
        <time>2023-05-18T06:57:44Z</time>
      </trkpt>
      <trkpt lat="50.22551" lon="4.28508">
        <ele>228.223419</ele>
        <time>2023-05-18T06:57:46Z</time>
      </trkpt>
      <trkpt lat="50.2254" lon="4.28496">
        <ele>228.134125</ele>
        <time>2023-05-18T06:57:48Z</time>
      </trkpt>
      <trkpt lat="50.22529" lon="4.28485">
        <ele>227.912354</ele>
        <time>2023-05-18T06:57:50Z</time>
      </trkpt>
      <trkpt lat="50.22518" lon="4.28473">
        <ele>227.573395</ele>
        <time>2023-05-18T06:57:52Z</time>
      </trkpt>
      <trkpt lat="50.22508" lon="4.28462">
        <ele>227.429031</ele>
        <time>2023-05-18T06:57:54Z</time>
      </trkpt>
      <trkpt lat="50.225" lon="4.2845">
        <ele>227.219818</ele>
        <time>2023-05-18T06:57:56Z</time>
      </trkpt>
      <trkpt lat="50.22492" lon="4.28434">
        <ele>226.945801</ele>
        <time>2023-05-18T06:57:58Z</time>
      </trkpt>
      <trkpt lat="50.22488" lon="4.28415">
        <ele>226.648026</ele>
        <time>2023-05-18T06:58:00Z</time>
      </trkpt>
      <trkpt lat="50.22487" lon="4.28395">
        <ele>226.38652</ele>
        <time>2023-05-18T06:58:02Z</time>
      </trkpt>
      <trkpt lat="50.22487" lon="4.28374">
        <ele>226.023438</ele>
        <time>2023-05-18T06:58:04Z</time>
      </trkpt>
      <trkpt lat="50.22485" lon="4.28357">
        <ele>225.720123</ele>
        <time>2023-05-18T06:58:06Z</time>
      </trkpt>
      <trkpt lat="50.22479" lon="4.28348">
        <ele>225.452347</ele>
        <time>2023-05-18T06:58:08Z</time>
      </trkpt>
      <trkpt lat="50.22475" lon="4.28345">
        <ele>225.130203</ele>
        <time>2023-05-18T06:58:10Z</time>
      </trkpt>
      <trkpt lat="50.22472" lon="4.28345">
        <ele>224.837357</ele>
        <time>2023-05-18T06:58:12Z</time>
      </trkpt>
      <trkpt lat="50.2247" lon="4.28346">
        <ele>223.888458</ele>
        <time>2023-05-18T06:58:16Z</time>
      </trkpt>
      <trkpt lat="50.22467" lon="4.28344">
        <ele>223.767136</ele>
        <time>2023-05-18T06:58:18Z</time>
      </trkpt>
      <trkpt lat="50.22462" lon="4.28343">
        <ele>223.47641</ele>
        <time>2023-05-18T06:58:20Z</time>
      </trkpt>
      <trkpt lat="50.22455" lon="4.28344">
        <ele>223.202438</ele>
        <time>2023-05-18T06:58:22Z</time>
      </trkpt>
      <trkpt lat="50.22448" lon="4.28342">
        <ele>223.005417</ele>
        <time>2023-05-18T06:58:24Z</time>
      </trkpt>
      <trkpt lat="50.22441" lon="4.28339">
        <ele>222.923828</ele>
        <time>2023-05-18T06:58:26Z</time>
      </trkpt>
      <trkpt lat="50.22434" lon="4.28335">
        <ele>222.658081</ele>
        <time>2023-05-18T06:58:28Z</time>
      </trkpt>
      <trkpt lat="50.22425" lon="4.28332">
        <ele>222.310211</ele>
        <time>2023-05-18T06:58:30Z</time>
      </trkpt>
      <trkpt lat="50.22417" lon="4.28329">
        <ele>222.113617</ele>
        <time>2023-05-18T06:58:32Z</time>
      </trkpt>
      <trkpt lat="50.22408" lon="4.28326">
        <ele>221.871063</ele>
        <time>2023-05-18T06:58:34Z</time>
      </trkpt>
      <trkpt lat="50.22398" lon="4.28324">
        <ele>221.582474</ele>
        <time>2023-05-18T06:58:36Z</time>
      </trkpt>
      <trkpt lat="50.22389" lon="4.28322">
        <ele>221.362915</ele>
        <time>2023-05-18T06:58:38Z</time>
      </trkpt>
      <trkpt lat="50.2238" lon="4.28318">
        <ele>221.13504</ele>
        <time>2023-05-18T06:58:40Z</time>
      </trkpt>
      <trkpt lat="50.22372" lon="4.28315">
        <ele>220.826294</ele>
        <time>2023-05-18T06:58:42Z</time>
      </trkpt>
      <trkpt lat="50.22365" lon="4.28312">
        <ele>220.610916</ele>
        <time>2023-05-18T06:58:44Z</time>
      </trkpt>
      <trkpt lat="50.22356" lon="4.28309">
        <ele>220.435272</ele>
        <time>2023-05-18T06:58:46Z</time>
      </trkpt>
      <trkpt lat="50.22348" lon="4.28308">
        <ele>220.235428</ele>
        <time>2023-05-18T06:58:48Z</time>
      </trkpt>
      <trkpt lat="50.2234" lon="4.28307">
        <ele>220.026367</ele>
        <time>2023-05-18T06:58:50Z</time>
      </trkpt>
      <trkpt lat="50.22332" lon="4.28311">
        <ele>219.857025</ele>
        <time>2023-05-18T06:58:52Z</time>
      </trkpt>
      <trkpt lat="50.22326" lon="4.28319">
        <ele>219.660492</ele>
        <time>2023-05-18T06:58:54Z</time>
      </trkpt>
      <trkpt lat="50.22322" lon="4.28328">
        <ele>220.038452</ele>
        <time>2023-05-18T06:58:56Z</time>
      </trkpt>
      <trkpt lat="50.22319" lon="4.2833">
        <ele>219.923462</ele>
        <time>2023-05-18T06:58:57Z</time>
      </trkpt>
      <trkpt lat="50.22311" lon="4.28328">
        <ele>219.763031</ele>
        <time>2023-05-18T06:58:59Z</time>
      </trkpt>
      <trkpt lat="50.22305" lon="4.28318">
        <ele>219.633423</ele>
        <time>2023-05-18T06:59:01Z</time>
      </trkpt>
      <trkpt lat="50.22299" lon="4.28304">
        <ele>219.499634</ele>
        <time>2023-05-18T06:59:03Z</time>
      </trkpt>
      <trkpt lat="50.22294" lon="4.28289">
        <ele>219.299316</ele>
        <time>2023-05-18T06:59:05Z</time>
      </trkpt>
      <trkpt lat="50.22289" lon="4.28274">
        <ele>219.150909</ele>
        <time>2023-05-18T06:59:07Z</time>
      </trkpt>
      <trkpt lat="50.22283" lon="4.28257">
        <ele>218.997284</ele>
        <time>2023-05-18T06:59:09Z</time>
      </trkpt>
      <trkpt lat="50.22278" lon="4.28241">
        <ele>218.909622</ele>
        <time>2023-05-18T06:59:11Z</time>
      </trkpt>
      <trkpt lat="50.22272" lon="4.28224">
        <ele>218.706833</ele>
        <time>2023-05-18T06:59:13Z</time>
      </trkpt>
      <trkpt lat="50.22269" lon="4.2821">
        <ele>218.586273</ele>
        <time>2023-05-18T06:59:15Z</time>
      </trkpt>
      <trkpt lat="50.22274" lon="4.28198">
        <ele>218.444489</ele>
        <time>2023-05-18T06:59:17Z</time>
      </trkpt>
      <trkpt lat="50.22286" lon="4.28181">
        <ele>218.143143</ele>
        <time>2023-05-18T06:59:20Z</time>
      </trkpt>
      <trkpt lat="50.22295" lon="4.2817">
        <ele>218.072098</ele>
        <time>2023-05-18T06:59:22Z</time>
      </trkpt>
      <trkpt lat="50.22305" lon="4.28158">
        <ele>217.929535</ele>
        <time>2023-05-18T06:59:24Z</time>
      </trkpt>
      <trkpt lat="50.22314" lon="4.28145">
        <ele>217.757645</ele>
        <time>2023-05-18T06:59:26Z</time>
      </trkpt>
      <trkpt lat="50.22323" lon="4.28133">
        <ele>217.606155</ele>
        <time>2023-05-18T06:59:28Z</time>
      </trkpt>
      <trkpt lat="50.22332" lon="4.28121">
        <ele>217.467484</ele>
        <time>2023-05-18T06:59:30Z</time>
      </trkpt>
      <trkpt lat="50.22342" lon="4.28109">
        <ele>217.311691</ele>
        <time>2023-05-18T06:59:32Z</time>
      </trkpt>
      <trkpt lat="50.22352" lon="4.28097">
        <ele>217.131958</ele>
        <time>2023-05-18T06:59:34Z</time>
      </trkpt>
      <trkpt lat="50.2236" lon="4.28086">
        <ele>216.966843</ele>
        <time>2023-05-18T06:59:36Z</time>
      </trkpt>
      <trkpt lat="50.22368" lon="4.28075">
        <ele>216.766205</ele>
        <time>2023-05-18T06:59:38Z</time>
      </trkpt>
      <trkpt lat="50.22374" lon="4.28065">
        <ele>216.575439</ele>
        <time>2023-05-18T06:59:40Z</time>
      </trkpt>
      <trkpt lat="50.22382" lon="4.28055">
        <ele>216.385254</ele>
        <time>2023-05-18T06:59:42Z</time>
      </trkpt>
      <trkpt lat="50.22389" lon="4.28046">
        <ele>216.238968</ele>
        <time>2023-05-18T06:59:44Z</time>
      </trkpt>
      <trkpt lat="50.22396" lon="4.28037">
        <ele>216.055054</ele>
        <time>2023-05-18T06:59:46Z</time>
      </trkpt>
      <trkpt lat="50.22402" lon="4.28026">
        <ele>215.927567</ele>
        <time>2023-05-18T06:59:48Z</time>
      </trkpt>
      <trkpt lat="50.22408" lon="4.28016">
        <ele>215.853317</ele>
        <time>2023-05-18T06:59:50Z</time>
      </trkpt>
      <trkpt lat="50.22412" lon="4.28004">
        <ele>215.782791</ele>
        <time>2023-05-18T06:59:52Z</time>
      </trkpt>
      <trkpt lat="50.22414" lon="4.27991">
        <ele>215.69072</ele>
        <time>2023-05-18T06:59:54Z</time>
      </trkpt>
      <trkpt lat="50.22415" lon="4.27977">
        <ele>215.62944</ele>
        <time>2023-05-18T06:59:56Z</time>
      </trkpt>
      <trkpt lat="50.22416" lon="4.27964">
        <ele>215.662888</ele>
        <time>2023-05-18T06:59:58Z</time>
      </trkpt>
      <trkpt lat="50.22417" lon="4.2795">
        <ele>215.687622</ele>
        <time>2023-05-18T07:00:00Z</time>
      </trkpt>
      <trkpt lat="50.22417" lon="4.27935">
        <ele>215.773651</ele>
        <time>2023-05-18T07:00:02Z</time>
      </trkpt>
      <trkpt lat="50.22418" lon="4.2792">
        <ele>215.813553</ele>
        <time>2023-05-18T07:00:04Z</time>
      </trkpt>
      <trkpt lat="50.22419" lon="4.27906">
        <ele>215.918533</ele>
        <time>2023-05-18T07:00:06Z</time>
      </trkpt>
      <trkpt lat="50.22419" lon="4.27891">
        <ele>216.026154</ele>
        <time>2023-05-18T07:00:08Z</time>
      </trkpt>
      <trkpt lat="50.2242" lon="4.27876">
        <ele>216.157684</ele>
        <time>2023-05-18T07:00:10Z</time>
      </trkpt>
      <trkpt lat="50.22421" lon="4.27861">
        <ele>216.188034</ele>
        <time>2023-05-18T07:00:12Z</time>
      </trkpt>
      <trkpt lat="50.22421" lon="4.27845">
        <ele>216.353149</ele>
        <time>2023-05-18T07:00:14Z</time>
      </trkpt>
      <trkpt lat="50.2242" lon="4.2783">
        <ele>216.497345</ele>
        <time>2023-05-18T07:00:16Z</time>
      </trkpt>
      <trkpt lat="50.22418" lon="4.27814">
        <ele>216.67009</ele>
        <time>2023-05-18T07:00:18Z</time>
      </trkpt>
      <trkpt lat="50.22415" lon="4.278">
        <ele>216.868652</ele>
        <time>2023-05-18T07:00:20Z</time>
      </trkpt>
      <trkpt lat="50.22411" lon="4.27785">
        <ele>217.092285</ele>
        <time>2023-05-18T07:00:22Z</time>
      </trkpt>
      <trkpt lat="50.22407" lon="4.27771">
        <ele>217.198883</ele>
        <time>2023-05-18T07:00:24Z</time>
      </trkpt>
      <trkpt lat="50.22403" lon="4.27756">
        <ele>217.393753</ele>
        <time>2023-05-18T07:00:26Z</time>
      </trkpt>
      <trkpt lat="50.224" lon="4.27742">
        <ele>217.632523</ele>
        <time>2023-05-18T07:00:28Z</time>
      </trkpt>
      <trkpt lat="50.22396" lon="4.2773">
        <ele>217.814331</ele>
        <time>2023-05-18T07:00:30Z</time>
      </trkpt>
      <trkpt lat="50.22392" lon="4.27717">
        <ele>217.97319</ele>
        <time>2023-05-18T07:00:32Z</time>
      </trkpt>
      <trkpt lat="50.22388" lon="4.27704">
        <ele>218.206757</ele>
        <time>2023-05-18T07:00:34Z</time>
      </trkpt>
      <trkpt lat="50.22384" lon="4.27691">
        <ele>218.374725</ele>
        <time>2023-05-18T07:00:36Z</time>
      </trkpt>
      <trkpt lat="50.2238" lon="4.27678">
        <ele>218.532867</ele>
        <time>2023-05-18T07:00:38Z</time>
      </trkpt>
      <trkpt lat="50.22377" lon="4.27665">
        <ele>218.720993</ele>
        <time>2023-05-18T07:00:40Z</time>
      </trkpt>
      <trkpt lat="50.22374" lon="4.27652">
        <ele>218.894485</ele>
        <time>2023-05-18T07:00:42Z</time>
      </trkpt>
      <trkpt lat="50.2237" lon="4.2764">
        <ele>219.114258</ele>
        <time>2023-05-18T07:00:44Z</time>
      </trkpt>
      <trkpt lat="50.22365" lon="4.27627">
        <ele>219.333588</ele>
        <time>2023-05-18T07:00:46Z</time>
      </trkpt>
      <trkpt lat="50.2236" lon="4.27616">
        <ele>219.465286</ele>
        <time>2023-05-18T07:00:48Z</time>
      </trkpt>
      <trkpt lat="50.22353" lon="4.27605">
        <ele>219.569824</ele>
        <time>2023-05-18T07:00:50Z</time>
      </trkpt>
      <trkpt lat="50.22346" lon="4.27594">
        <ele>219.81015</ele>
        <time>2023-05-18T07:00:52Z</time>
      </trkpt>
      <trkpt lat="50.22339" lon="4.27584">
        <ele>220.023392</ele>
        <time>2023-05-18T07:00:54Z</time>
      </trkpt>
      <trkpt lat="50.22332" lon="4.27574">
        <ele>220.138382</ele>
        <time>2023-05-18T07:00:56Z</time>
      </trkpt>
      <trkpt lat="50.22324" lon="4.27565">
        <ele>220.352325</ele>
        <time>2023-05-18T07:00:58Z</time>
      </trkpt>
      <trkpt lat="50.22317" lon="4.27555">
        <ele>220.517487</ele>
        <time>2023-05-18T07:01:00Z</time>
      </trkpt>
      <trkpt lat="50.2231" lon="4.27545">
        <ele>220.557205</ele>
        <time>2023-05-18T07:01:02Z</time>
      </trkpt>
      <trkpt lat="50.22302" lon="4.27534">
        <ele>220.740143</ele>
        <time>2023-05-18T07:01:04Z</time>
      </trkpt>
      <trkpt lat="50.22294" lon="4.27521">
        <ele>220.854645</ele>
        <time>2023-05-18T07:01:06Z</time>
      </trkpt>
      <trkpt lat="50.22286" lon="4.27508">
        <ele>220.931488</ele>
        <time>2023-05-18T07:01:08Z</time>
      </trkpt>
      <trkpt lat="50.22278" lon="4.27494">
        <ele>221.076828</ele>
        <time>2023-05-18T07:01:10Z</time>
      </trkpt>
      <trkpt lat="50.22271" lon="4.27479">
        <ele>221.149994</ele>
        <time>2023-05-18T07:01:12Z</time>
      </trkpt>
      <trkpt lat="50.22264" lon="4.27464">
        <ele>221.218994</ele>
        <time>2023-05-18T07:01:14Z</time>
      </trkpt>
      <trkpt lat="50.22257" lon="4.27448">
        <ele>221.295609</ele>
        <time>2023-05-18T07:01:16Z</time>
      </trkpt>
      <trkpt lat="50.2225" lon="4.27431">
        <ele>221.363235</ele>
        <time>2023-05-18T07:01:18Z</time>
      </trkpt>
      <trkpt lat="50.22244" lon="4.27415">
        <ele>221.379959</ele>
        <time>2023-05-18T07:01:20Z</time>
      </trkpt>
      <trkpt lat="50.22239" lon="4.27402">
        <ele>221.369507</ele>
        <time>2023-05-18T07:01:22Z</time>
      </trkpt>
      <trkpt lat="50.22237" lon="4.27391">
        <ele>221.400848</ele>
        <time>2023-05-18T07:01:24Z</time>
      </trkpt>
      <trkpt lat="50.22241" lon="4.27381">
        <ele>221.350677</ele>
        <time>2023-05-18T07:01:26Z</time>
      </trkpt>
      <trkpt lat="50.22249" lon="4.27374">
        <ele>221.334076</ele>
        <time>2023-05-18T07:01:28Z</time>
      </trkpt>
      <trkpt lat="50.22258" lon="4.27367">
        <ele>221.363358</ele>
        <time>2023-05-18T07:01:30Z</time>
      </trkpt>
      <trkpt lat="50.22267" lon="4.27358">
        <ele>221.336182</ele>
        <time>2023-05-18T07:01:32Z</time>
      </trkpt>
      <trkpt lat="50.22275" lon="4.27349">
        <ele>221.269333</ele>
        <time>2023-05-18T07:01:34Z</time>
      </trkpt>
      <trkpt lat="50.22283" lon="4.27339">
        <ele>221.252609</ele>
        <time>2023-05-18T07:01:36Z</time>
      </trkpt>
      <trkpt lat="50.22291" lon="4.27328">
        <ele>221.250519</ele>
        <time>2023-05-18T07:01:38Z</time>
      </trkpt>
      <trkpt lat="50.22299" lon="4.27317">
        <ele>221.265167</ele>
        <time>2023-05-18T07:01:40Z</time>
      </trkpt>
      <trkpt lat="50.22307" lon="4.27306">
        <ele>221.181549</ele>
        <time>2023-05-18T07:01:42Z</time>
      </trkpt>
      <trkpt lat="50.22315" lon="4.27294">
        <ele>221.06958</ele>
        <time>2023-05-18T07:01:44Z</time>
      </trkpt>
      <trkpt lat="50.22322" lon="4.27282">
        <ele>220.94519</ele>
        <time>2023-05-18T07:01:46Z</time>
      </trkpt>
      <trkpt lat="50.22329" lon="4.2727">
        <ele>220.899628</ele>
        <time>2023-05-18T07:01:48Z</time>
      </trkpt>
      <trkpt lat="50.22335" lon="4.27259">
        <ele>220.330322</ele>
        <time>2023-05-18T07:01:50Z</time>
      </trkpt>
      <trkpt lat="50.22341" lon="4.27247">
        <ele>220.36702</ele>
        <time>2023-05-18T07:01:52Z</time>
      </trkpt>
      <trkpt lat="50.22347" lon="4.27234">
        <ele>220.314743</ele>
        <time>2023-05-18T07:01:54Z</time>
      </trkpt>
      <trkpt lat="50.22352" lon="4.27222">
        <ele>220.226959</ele>
        <time>2023-05-18T07:01:56Z</time>
      </trkpt>
      <trkpt lat="50.22358" lon="4.27209">
        <ele>220.222809</ele>
        <time>2023-05-18T07:01:58Z</time>
      </trkpt>
      <trkpt lat="50.22365" lon="4.27195">
        <ele>220.080643</ele>
        <time>2023-05-18T07:02:00Z</time>
      </trkpt>
      <trkpt lat="50.22369" lon="4.27188">
        <ele>220.013718</ele>
        <time>2023-05-18T07:02:01Z</time>
      </trkpt>
      <trkpt lat="50.22379" lon="4.27174">
        <ele>219.98027</ele>
        <time>2023-05-18T07:02:03Z</time>
      </trkpt>
      <trkpt lat="50.22388" lon="4.27157">
        <ele>219.900833</ele>
        <time>2023-05-18T07:02:05Z</time>
      </trkpt>
      <trkpt lat="50.22397" lon="4.27141">
        <ele>219.882004</ele>
        <time>2023-05-18T07:02:07Z</time>
      </trkpt>
      <trkpt lat="50.22406" lon="4.27123">
        <ele>219.739868</ele>
        <time>2023-05-18T07:02:09Z</time>
      </trkpt>
      <trkpt lat="50.22415" lon="4.27106">
        <ele>220.304977</ele>
        <time>2023-05-18T07:02:11Z</time>
      </trkpt>
      <trkpt lat="50.22424" lon="4.27089">
        <ele>220.215118</ele>
        <time>2023-05-18T07:02:13Z</time>
      </trkpt>
      <trkpt lat="50.22434" lon="4.2707">
        <ele>220.20256</ele>
        <time>2023-05-18T07:02:15Z</time>
      </trkpt>
      <trkpt lat="50.22443" lon="4.27051">
        <ele>219.857712</ele>
        <time>2023-05-18T07:02:17Z</time>
      </trkpt>
      <trkpt lat="50.22453" lon="4.27031">
        <ele>219.648682</ele>
        <time>2023-05-18T07:02:19Z</time>
      </trkpt>
      <trkpt lat="50.22464" lon="4.27009">
        <ele>219.310028</ele>
        <time>2023-05-18T07:02:21Z</time>
      </trkpt>
      <trkpt lat="50.2247" lon="4.26998">
        <ele>219.350174</ele>
        <time>2023-05-18T07:02:22Z</time>
      </trkpt>
      <trkpt lat="50.2248" lon="4.26973">
        <ele>219.226807</ele>
        <time>2023-05-18T07:02:24Z</time>
      </trkpt>
      <trkpt lat="50.2249" lon="4.26948">
        <ele>219.028244</ele>
        <time>2023-05-18T07:02:26Z</time>
      </trkpt>
      <trkpt lat="50.225" lon="4.26923">
        <ele>218.877289</ele>
        <time>2023-05-18T07:02:28Z</time>
      </trkpt>
      <trkpt lat="50.22508" lon="4.269">
        <ele>218.595001</ele>
        <time>2023-05-18T07:02:30Z</time>
      </trkpt>
      <trkpt lat="50.22517" lon="4.26878">
        <ele>218.564529</ele>
        <time>2023-05-18T07:02:32Z</time>
      </trkpt>
      <trkpt lat="50.22525" lon="4.26858">
        <ele>217.958664</ele>
        <time>2023-05-18T07:02:34Z</time>
      </trkpt>
      <trkpt lat="50.22534" lon="4.2684">
        <ele>217.65979</ele>
        <time>2023-05-18T07:02:36Z</time>
      </trkpt>
      <trkpt lat="50.22541" lon="4.26824">
        <ele>217.250275</ele>
        <time>2023-05-18T07:02:38Z</time>
      </trkpt>
      <trkpt lat="50.22549" lon="4.26808">
        <ele>216.71933</ele>
        <time>2023-05-18T07:02:40Z</time>
      </trkpt>
      <trkpt lat="50.22556" lon="4.26793">
        <ele>216.399689</ele>
        <time>2023-05-18T07:02:42Z</time>
      </trkpt>
      <trkpt lat="50.22562" lon="4.2678">
        <ele>215.745697</ele>
        <time>2023-05-18T07:02:44Z</time>
      </trkpt>
      <trkpt lat="50.22568" lon="4.26769">
        <ele>215.18779</ele>
        <time>2023-05-18T07:02:46Z</time>
      </trkpt>
      <trkpt lat="50.22573" lon="4.26759">
        <ele>214.654984</ele>
        <time>2023-05-18T07:02:48Z</time>
      </trkpt>
      <trkpt lat="50.22577" lon="4.2675">
        <ele>214.28772</ele>
        <time>2023-05-18T07:02:50Z</time>
      </trkpt>
      <trkpt lat="50.22582" lon="4.26741">
        <ele>213.0289</ele>
        <time>2023-05-18T07:02:52Z</time>
      </trkpt>
      <trkpt lat="50.22586" lon="4.26732">
        <ele>212.727982</ele>
        <time>2023-05-18T07:02:54Z</time>
      </trkpt>
      <trkpt lat="50.2259" lon="4.26723">
        <ele>212.234772</ele>
        <time>2023-05-18T07:02:56Z</time>
      </trkpt>
      <trkpt lat="50.22595" lon="4.26714">
        <ele>211.948532</ele>
        <time>2023-05-18T07:02:58Z</time>
      </trkpt>
      <trkpt lat="50.226" lon="4.26705">
        <ele>211.846161</ele>
        <time>2023-05-18T07:03:00Z</time>
      </trkpt>
      <trkpt lat="50.22604" lon="4.26696">
        <ele>211.641113</ele>
        <time>2023-05-18T07:03:02Z</time>
      </trkpt>
      <trkpt lat="50.22607" lon="4.26687">
        <ele>211.157074</ele>
        <time>2023-05-18T07:03:04Z</time>
      </trkpt>
      <trkpt lat="50.22611" lon="4.26678">
        <ele>210.808182</ele>
        <time>2023-05-18T07:03:06Z</time>
      </trkpt>
      <trkpt lat="50.22613" lon="4.26668">
        <ele>210.531738</ele>
        <time>2023-05-18T07:03:08Z</time>
      </trkpt>
      <trkpt lat="50.22616" lon="4.26659">
        <ele>210.258224</ele>
        <time>2023-05-18T07:03:10Z</time>
      </trkpt>
      <trkpt lat="50.2262" lon="4.2665">
        <ele>210.276825</ele>
        <time>2023-05-18T07:03:12Z</time>
      </trkpt>
      <trkpt lat="50.22623" lon="4.26641">
        <ele>210.529083</ele>
        <time>2023-05-18T07:03:14Z</time>
      </trkpt>
      <trkpt lat="50.22627" lon="4.26633">
        <ele>210.549805</ele>
        <time>2023-05-18T07:03:16Z</time>
      </trkpt>
      <trkpt lat="50.2263" lon="4.26624">
        <ele>210.622894</ele>
        <time>2023-05-18T07:03:18Z</time>
      </trkpt>
      <trkpt lat="50.22634" lon="4.26616">
        <ele>210.80481</ele>
        <time>2023-05-18T07:03:20Z</time>
      </trkpt>
      <trkpt lat="50.22636" lon="4.26612">
        <ele>210.897903</ele>
        <time>2023-05-18T07:03:21Z</time>
      </trkpt>
      <trkpt lat="50.2264" lon="4.26604">
        <ele>211.100555</ele>
        <time>2023-05-18T07:03:23Z</time>
      </trkpt>
      <trkpt lat="50.22643" lon="4.26596">
        <ele>211.438934</ele>
        <time>2023-05-18T07:03:25Z</time>
      </trkpt>
      <trkpt lat="50.22647" lon="4.26588">
        <ele>211.791992</ele>
        <time>2023-05-18T07:03:27Z</time>
      </trkpt>
      <trkpt lat="50.22651" lon="4.2658">
        <ele>212.142975</ele>
        <time>2023-05-18T07:03:29Z</time>
      </trkpt>
      <trkpt lat="50.22654" lon="4.26571">
        <ele>212.355591</ele>
        <time>2023-05-18T07:03:31Z</time>
      </trkpt>
      <trkpt lat="50.22659" lon="4.26563">
        <ele>212.768188</ele>
        <time>2023-05-18T07:03:33Z</time>
      </trkpt>
      <trkpt lat="50.22662" lon="4.26554">
        <ele>213.048264</ele>
        <time>2023-05-18T07:03:35Z</time>
      </trkpt>
      <trkpt lat="50.22666" lon="4.26546">
        <ele>213.357498</ele>
        <time>2023-05-18T07:03:37Z</time>
      </trkpt>
      <trkpt lat="50.22671" lon="4.26538">
        <ele>213.739822</ele>
        <time>2023-05-18T07:03:39Z</time>
      </trkpt>
      <trkpt lat="50.22675" lon="4.26529">
        <ele>213.861008</ele>
        <time>2023-05-18T07:03:41Z</time>
      </trkpt>
      <trkpt lat="50.22679" lon="4.26521">
        <ele>214.151733</ele>
        <time>2023-05-18T07:03:43Z</time>
      </trkpt>
      <trkpt lat="50.22683" lon="4.26512">
        <ele>214.481842</ele>
        <time>2023-05-18T07:03:45Z</time>
      </trkpt>
      <trkpt lat="50.22686" lon="4.26502">
        <ele>214.851532</ele>
        <time>2023-05-18T07:03:47Z</time>
      </trkpt>
      <trkpt lat="50.2269" lon="4.26493">
        <ele>215.278351</ele>
        <time>2023-05-18T07:03:49Z</time>
      </trkpt>
      <trkpt lat="50.22694" lon="4.26483">
        <ele>215.666962</ele>
        <time>2023-05-18T07:03:51Z</time>
      </trkpt>
      <trkpt lat="50.22699" lon="4.26472">
        <ele>215.949142</ele>
        <time>2023-05-18T07:03:53Z</time>
      </trkpt>
      <trkpt lat="50.22704" lon="4.26459">
        <ele>216.18782</ele>
        <time>2023-05-18T07:03:55Z</time>
      </trkpt>
      <trkpt lat="50.22709" lon="4.26447">
        <ele>216.430252</ele>
        <time>2023-05-18T07:03:57Z</time>
      </trkpt>
      <trkpt lat="50.22714" lon="4.26434">
        <ele>216.724884</ele>
        <time>2023-05-18T07:03:59Z</time>
      </trkpt>
      <trkpt lat="50.22718" lon="4.26421">
        <ele>216.795929</ele>
        <time>2023-05-18T07:04:01Z</time>
      </trkpt>
      <trkpt lat="50.22723" lon="4.26408">
        <ele>216.989136</ele>
        <time>2023-05-18T07:04:03Z</time>
      </trkpt>
      <trkpt lat="50.22726" lon="4.26393">
        <ele>217.091476</ele>
        <time>2023-05-18T07:04:05Z</time>
      </trkpt>
      <trkpt lat="50.2273" lon="4.26376">
        <ele>217.264969</ele>
        <time>2023-05-18T07:04:07Z</time>
      </trkpt>
      <trkpt lat="50.22734" lon="4.26359">
        <ele>217.348602</ele>
        <time>2023-05-18T07:04:09Z</time>
      </trkpt>
      <trkpt lat="50.22736" lon="4.2635">
        <ele>217.373657</ele>
        <time>2023-05-18T07:04:10Z</time>
      </trkpt>
      <trkpt lat="50.22739" lon="4.26332">
        <ele>217.499069</ele>
        <time>2023-05-18T07:04:12Z</time>
      </trkpt>
      <trkpt lat="50.22743" lon="4.26313">
        <ele>217.57431</ele>
        <time>2023-05-18T07:04:14Z</time>
      </trkpt>
      <trkpt lat="50.22746" lon="4.26293">
        <ele>217.735062</ele>
        <time>2023-05-18T07:04:16Z</time>
      </trkpt>
      <trkpt lat="50.22749" lon="4.26273">
        <ele>217.985886</ele>
        <time>2023-05-18T07:04:18Z</time>
      </trkpt>
      <trkpt lat="50.22751" lon="4.26251">
        <ele>217.877228</ele>
        <time>2023-05-18T07:04:20Z</time>
      </trkpt>
      <trkpt lat="50.22752" lon="4.26229">
        <ele>217.866776</ele>
        <time>2023-05-18T07:04:22Z</time>
      </trkpt>
      <trkpt lat="50.22755" lon="4.26207">
        <ele>217.833328</ele>
        <time>2023-05-18T07:04:24Z</time>
      </trkpt>
      <trkpt lat="50.22759" lon="4.26184">
        <ele>217.88562</ele>
        <time>2023-05-18T07:04:26Z</time>
      </trkpt>
      <trkpt lat="50.22764" lon="4.26161">
        <ele>217.680984</ele>
        <time>2023-05-18T07:04:28Z</time>
      </trkpt>
      <trkpt lat="50.22768" lon="4.26137">
        <ele>217.446991</ele>
        <time>2023-05-18T07:04:30Z</time>
      </trkpt>
      <trkpt lat="50.22773" lon="4.26112">
        <ele>217.532806</ele>
        <time>2023-05-18T07:04:32Z</time>
      </trkpt>
      <trkpt lat="50.22777" lon="4.26087">
        <ele>217.236053</ele>
        <time>2023-05-18T07:04:34Z</time>
      </trkpt>
      <trkpt lat="50.22781" lon="4.26061">
        <ele>217.131561</ele>
        <time>2023-05-18T07:04:36Z</time>
      </trkpt>
      <trkpt lat="50.22785" lon="4.26034">
        <ele>216.951828</ele>
        <time>2023-05-18T07:04:38Z</time>
      </trkpt>
      <trkpt lat="50.22789" lon="4.26007">
        <ele>216.538116</ele>
        <time>2023-05-18T07:04:40Z</time>
      </trkpt>
      <trkpt lat="50.22794" lon="4.25982">
        <ele>216.262283</ele>
        <time>2023-05-18T07:04:42Z</time>
      </trkpt>
      <trkpt lat="50.228" lon="4.2596">
        <ele>216.040741</ele>
        <time>2023-05-18T07:04:44Z</time>
      </trkpt>
      <trkpt lat="50.22805" lon="4.25938">
        <ele>215.77124</ele>
        <time>2023-05-18T07:04:46Z</time>
      </trkpt>
      <trkpt lat="50.2281" lon="4.25914">
        <ele>215.436859</ele>
        <time>2023-05-18T07:04:48Z</time>
      </trkpt>
      <trkpt lat="50.22815" lon="4.2589">
        <ele>215.175705</ele>
        <time>2023-05-18T07:04:50Z</time>
      </trkpt>
      <trkpt lat="50.22822" lon="4.25866">
        <ele>214.831833</ele>
        <time>2023-05-18T07:04:52Z</time>
      </trkpt>
      <trkpt lat="50.22829" lon="4.25842">
        <ele>214.537872</ele>
        <time>2023-05-18T07:04:54Z</time>
      </trkpt>
      <trkpt lat="50.22836" lon="4.25818">
        <ele>214.105957</ele>
        <time>2023-05-18T07:04:56Z</time>
      </trkpt>
      <trkpt lat="50.22842" lon="4.25794">
        <ele>213.4991</ele>
        <time>2023-05-18T07:04:58Z</time>
      </trkpt>
      <trkpt lat="50.22849" lon="4.2577">
        <ele>212.89119</ele>
        <time>2023-05-18T07:05:00Z</time>
      </trkpt>
      <trkpt lat="50.22856" lon="4.25747">
        <ele>212.446259</ele>
        <time>2023-05-18T07:05:02Z</time>
      </trkpt>
      <trkpt lat="50.22863" lon="4.25724">
        <ele>211.848953</ele>
        <time>2023-05-18T07:05:04Z</time>
      </trkpt>
      <trkpt lat="50.2287" lon="4.257">
        <ele>211.101074</ele>
        <time>2023-05-18T07:05:06Z</time>
      </trkpt>
      <trkpt lat="50.22876" lon="4.25676">
        <ele>210.670807</ele>
        <time>2023-05-18T07:05:08Z</time>
      </trkpt>
      <trkpt lat="50.22883" lon="4.25652">
        <ele>210.207245</ele>
        <time>2023-05-18T07:05:10Z</time>
      </trkpt>
      <trkpt lat="50.2289" lon="4.2563">
        <ele>209.011475</ele>
        <time>2023-05-18T07:05:12Z</time>
      </trkpt>
      <trkpt lat="50.22898" lon="4.25608">
        <ele>208.042313</ele>
        <time>2023-05-18T07:05:14Z</time>
      </trkpt>
      <trkpt lat="50.22905" lon="4.25587">
        <ele>207.424164</ele>
        <time>2023-05-18T07:05:16Z</time>
      </trkpt>
      <trkpt lat="50.22911" lon="4.25565">
        <ele>206.798141</ele>
        <time>2023-05-18T07:05:18Z</time>
      </trkpt>
      <trkpt lat="50.22916" lon="4.25545">
        <ele>206.315216</ele>
        <time>2023-05-18T07:05:20Z</time>
      </trkpt>
      <trkpt lat="50.22921" lon="4.25526">
        <ele>205.871429</ele>
        <time>2023-05-18T07:05:22Z</time>
      </trkpt>
      <trkpt lat="50.22925" lon="4.25508">
        <ele>205.161591</ele>
        <time>2023-05-18T07:05:24Z</time>
      </trkpt>
      <trkpt lat="50.2293" lon="4.25491">
        <ele>204.495575</ele>
        <time>2023-05-18T07:05:26Z</time>
      </trkpt>
      <trkpt lat="50.22934" lon="4.25475">
        <ele>203.852692</ele>
        <time>2023-05-18T07:05:28Z</time>
      </trkpt>
      <trkpt lat="50.22936" lon="4.25468">
        <ele>203.476898</ele>
        <time>2023-05-18T07:05:29Z</time>
      </trkpt>
      <trkpt lat="50.2294" lon="4.25454">
        <ele>203.236862</ele>
        <time>2023-05-18T07:05:31Z</time>
      </trkpt>
      <trkpt lat="50.22943" lon="4.2544">
        <ele>202.65036</ele>
        <time>2023-05-18T07:05:33Z</time>
      </trkpt>
      <trkpt lat="50.22945" lon="4.25433">
        <ele>202.330292</ele>
        <time>2023-05-18T07:05:34Z</time>
      </trkpt>
      <trkpt lat="50.22947" lon="4.25421">
        <ele>201.575836</ele>
        <time>2023-05-18T07:05:36Z</time>
      </trkpt>
      <trkpt lat="50.22947" lon="4.25415">
        <ele>201.310822</ele>
        <time>2023-05-18T07:05:37Z</time>
      </trkpt>
      <trkpt lat="50.22943" lon="4.25409">
        <ele>200.788239</ele>
        <time>2023-05-18T07:05:39Z</time>
      </trkpt>
      <trkpt lat="50.22936" lon="4.25408">
        <ele>200.29158</ele>
        <time>2023-05-18T07:05:41Z</time>
      </trkpt>
      <trkpt lat="50.22929" lon="4.25408">
        <ele>199.84079</ele>
        <time>2023-05-18T07:05:43Z</time>
      </trkpt>
      <trkpt lat="50.2292" lon="4.25406">
        <ele>199.425568</ele>
        <time>2023-05-18T07:05:45Z</time>
      </trkpt>
      <trkpt lat="50.22912" lon="4.254">
        <ele>198.962357</ele>
        <time>2023-05-18T07:05:47Z</time>
      </trkpt>
      <trkpt lat="50.22903" lon="4.25393">
        <ele>198.392685</ele>
        <time>2023-05-18T07:05:49Z</time>
      </trkpt>
      <trkpt lat="50.22896" lon="4.25385">
        <ele>198.006714</ele>
        <time>2023-05-18T07:05:51Z</time>
      </trkpt>
      <trkpt lat="50.22889" lon="4.25377">
        <ele>198.108582</ele>
        <time>2023-05-18T07:05:53Z</time>
      </trkpt>
      <trkpt lat="50.2288" lon="4.25369">
        <ele>197.84993</ele>
        <time>2023-05-18T07:05:55Z</time>
      </trkpt>
      <trkpt lat="50.22872" lon="4.25361">
        <ele>197.434769</ele>
        <time>2023-05-18T07:05:57Z</time>
      </trkpt>
      <trkpt lat="50.22865" lon="4.25352">
        <ele>197.305634</ele>
        <time>2023-05-18T07:05:59Z</time>
      </trkpt>
      <trkpt lat="50.2286" lon="4.25342">
        <ele>196.629684</ele>
        <time>2023-05-18T07:06:01Z</time>
      </trkpt>
      <trkpt lat="50.22852" lon="4.25333">
        <ele>196.182861</ele>
        <time>2023-05-18T07:06:03Z</time>
      </trkpt>
      <trkpt lat="50.22844" lon="4.25324">
        <ele>195.912781</ele>
        <time>2023-05-18T07:06:05Z</time>
      </trkpt>
      <trkpt lat="50.22836" lon="4.25316">
        <ele>195.581573</ele>
        <time>2023-05-18T07:06:07Z</time>
      </trkpt>
      <trkpt lat="50.22829" lon="4.25308">
        <ele>195.331284</ele>
        <time>2023-05-18T07:06:09Z</time>
      </trkpt>
      <trkpt lat="50.22822" lon="4.25298">
        <ele>195.101868</ele>
        <time>2023-05-18T07:06:11Z</time>
      </trkpt>
      <trkpt lat="50.22818" lon="4.25293">
        <ele>194.968384</ele>
        <time>2023-05-18T07:06:12Z</time>
      </trkpt>
      <trkpt lat="50.2281" lon="4.25283">
        <ele>194.651443</ele>
        <time>2023-05-18T07:06:14Z</time>
      </trkpt>
      <trkpt lat="50.22802" lon="4.25273">
        <ele>194.330536</ele>
        <time>2023-05-18T07:06:16Z</time>
      </trkpt>
      <trkpt lat="50.22792" lon="4.25264">
        <ele>194.088638</ele>
        <time>2023-05-18T07:06:18Z</time>
      </trkpt>
      <trkpt lat="50.22783" lon="4.25256">
        <ele>193.872528</ele>
        <time>2023-05-18T07:06:20Z</time>
      </trkpt>
      <trkpt lat="50.22774" lon="4.25248">
        <ele>193.797424</ele>
        <time>2023-05-18T07:06:22Z</time>
      </trkpt>
      <trkpt lat="50.22765" lon="4.25238">
        <ele>193.559662</ele>
        <time>2023-05-18T07:06:24Z</time>
      </trkpt>
      <trkpt lat="50.22755" lon="4.2523">
        <ele>193.417862</ele>
        <time>2023-05-18T07:06:26Z</time>
      </trkpt>
      <trkpt lat="50.22746" lon="4.25225">
        <ele>193.248962</ele>
        <time>2023-05-18T07:06:28Z</time>
      </trkpt>
      <trkpt lat="50.22735" lon="4.25216">
        <ele>193.217667</ele>
        <time>2023-05-18T07:06:30Z</time>
      </trkpt>
      <trkpt lat="50.22726" lon="4.25204">
        <ele>193.088394</ele>
        <time>2023-05-18T07:06:32Z</time>
      </trkpt>
      <trkpt lat="50.22716" lon="4.2519">
        <ele>192.92157</ele>
        <time>2023-05-18T07:06:34Z</time>
      </trkpt>
      <trkpt lat="50.22704" lon="4.25176">
        <ele>192.9216</ele>
        <time>2023-05-18T07:06:35Z</time>
      </trkpt>
      <trkpt lat="50.22692" lon="4.25164">
        <ele>192.640121</ele>
        <time>2023-05-18T07:06:38Z</time>
      </trkpt>
      <trkpt lat="50.2268" lon="4.25158">
        <ele>192.496063</ele>
        <time>2023-05-18T07:06:40Z</time>
      </trkpt>
      <trkpt lat="50.22677" lon="4.25156">
        <ele>192.47728</ele>
        <time>2023-05-18T07:06:41Z</time>
      </trkpt>
      <trkpt lat="50.2267" lon="4.25153">
        <ele>192.232635</ele>
        <time>2023-05-18T07:06:43Z</time>
      </trkpt>
      <trkpt lat="50.22669" lon="4.25149">
        <ele>192.088852</ele>
        <time>2023-05-18T07:06:45Z</time>
      </trkpt>
      <trkpt lat="50.22672" lon="4.25145">
        <ele>191.850769</ele>
        <time>2023-05-18T07:06:47Z</time>
      </trkpt>
      <trkpt lat="50.22677" lon="4.25145">
        <ele>191.688141</ele>
        <time>2023-05-18T07:06:49Z</time>
      </trkpt>
      <trkpt lat="50.22682" lon="4.25145">
        <ele>191.513031</ele>
        <time>2023-05-18T07:06:51Z</time>
      </trkpt>
      <trkpt lat="50.22686" lon="4.25145">
        <ele>191.314972</ele>
        <time>2023-05-18T07:06:53Z</time>
      </trkpt>
      <trkpt lat="50.2269" lon="4.25145">
        <ele>191.136703</ele>
        <time>2023-05-18T07:06:55Z</time>
      </trkpt>
      <trkpt lat="50.22695" lon="4.25143">
        <ele>190.990768</ele>
        <time>2023-05-18T07:06:57Z</time>
      </trkpt>
      <trkpt lat="50.22699" lon="4.25141">
        <ele>190.926147</ele>
        <time>2023-05-18T07:06:59Z</time>
      </trkpt>
      <trkpt lat="50.22704" lon="4.2514">
        <ele>190.832321</ele>
        <time>2023-05-18T07:07:01Z</time>
      </trkpt>
      <trkpt lat="50.22709" lon="4.25138">
        <ele>190.617554</ele>
        <time>2023-05-18T07:07:03Z</time>
      </trkpt>
      <trkpt lat="50.22713" lon="4.25136">
        <ele>190.50705</ele>
        <time>2023-05-18T07:07:05Z</time>
      </trkpt>
      <trkpt lat="50.22717" lon="4.25133">
        <ele>190.371536</ele>
        <time>2023-05-18T07:07:07Z</time>
      </trkpt>
      <trkpt lat="50.2272" lon="4.25131">
        <ele>190.359024</ele>
        <time>2023-05-18T07:07:08Z</time>
      </trkpt>
      <trkpt lat="50.22725" lon="4.25127">
        <ele>190.328583</ele>
        <time>2023-05-18T07:07:10Z</time>
      </trkpt>
      <trkpt lat="50.2273" lon="4.25122">
        <ele>190.213898</ele>
        <time>2023-05-18T07:07:12Z</time>
      </trkpt>
      <trkpt lat="50.22734" lon="4.25117">
        <ele>190.209564</ele>
        <time>2023-05-18T07:07:14Z</time>
      </trkpt>
      <trkpt lat="50.22738" lon="4.2511">
        <ele>190.087494</ele>
        <time>2023-05-18T07:07:16Z</time>
      </trkpt>
      <trkpt lat="50.22742" lon="4.25104">
        <ele>190.244003</ele>
        <time>2023-05-18T07:07:18Z</time>
      </trkpt>
      <trkpt lat="50.22745" lon="4.25096">
        <ele>190.362854</ele>
        <time>2023-05-18T07:07:20Z</time>
      </trkpt>
      <trkpt lat="50.22749" lon="4.25085">
        <ele>190.551041</ele>
        <time>2023-05-18T07:07:23Z</time>
      </trkpt>
      <trkpt lat="50.22752" lon="4.25078">
        <ele>190.826233</ele>
        <time>2023-05-18T07:07:25Z</time>
      </trkpt>
      <trkpt lat="50.22755" lon="4.2507">
        <ele>191.006439</ele>
        <time>2023-05-18T07:07:27Z</time>
      </trkpt>
      <trkpt lat="50.22757" lon="4.25061">
        <ele>191.15654</ele>
        <time>2023-05-18T07:07:29Z</time>
      </trkpt>
      <trkpt lat="50.2276" lon="4.25052">
        <ele>191.4422</ele>
        <time>2023-05-18T07:07:31Z</time>
      </trkpt>
      <trkpt lat="50.22762" lon="4.25044">
        <ele>191.767456</ele>
        <time>2023-05-18T07:07:33Z</time>
      </trkpt>
      <trkpt lat="50.22763" lon="4.25035">
        <ele>192.071869</ele>
        <time>2023-05-18T07:07:35Z</time>
      </trkpt>
      <trkpt lat="50.22765" lon="4.25027">
        <ele>192.424255</ele>
        <time>2023-05-18T07:07:37Z</time>
      </trkpt>
      <trkpt lat="50.22767" lon="4.25018">
        <ele>192.747314</ele>
        <time>2023-05-18T07:07:39Z</time>
      </trkpt>
      <trkpt lat="50.22769" lon="4.25009">
        <ele>193.059418</ele>
        <time>2023-05-18T07:07:41Z</time>
      </trkpt>
      <trkpt lat="50.22771" lon="4.25">
        <ele>193.391357</ele>
        <time>2023-05-18T07:07:43Z</time>
      </trkpt>
      <trkpt lat="50.22773" lon="4.24991">
        <ele>193.700485</ele>
        <time>2023-05-18T07:07:45Z</time>
      </trkpt>
      <trkpt lat="50.22776" lon="4.24981">
        <ele>194.032059</ele>
        <time>2023-05-18T07:07:47Z</time>
      </trkpt>
      <trkpt lat="50.22778" lon="4.24972">
        <ele>194.353622</ele>
        <time>2023-05-18T07:07:49Z</time>
      </trkpt>
      <trkpt lat="50.22781" lon="4.24962">
        <ele>194.686478</ele>
        <time>2023-05-18T07:07:51Z</time>
      </trkpt>
      <trkpt lat="50.22783" lon="4.24953">
        <ele>195.070221</ele>
        <time>2023-05-18T07:07:53Z</time>
      </trkpt>
      <trkpt lat="50.22786" lon="4.24944">
        <ele>195.493774</ele>
        <time>2023-05-18T07:07:55Z</time>
      </trkpt>
      <trkpt lat="50.2279" lon="4.24934">
        <ele>195.816071</ele>
        <time>2023-05-18T07:07:57Z</time>
      </trkpt>
      <trkpt lat="50.22794" lon="4.24925">
        <ele>196.162155</ele>
        <time>2023-05-18T07:07:59Z</time>
      </trkpt>
      <trkpt lat="50.22799" lon="4.24915">
        <ele>196.461304</ele>
        <time>2023-05-18T07:08:01Z</time>
      </trkpt>
      <trkpt lat="50.22804" lon="4.24908">
        <ele>196.750198</ele>
        <time>2023-05-18T07:08:03Z</time>
      </trkpt>
      <trkpt lat="50.2281" lon="4.24901">
        <ele>197.035629</ele>
        <time>2023-05-18T07:08:05Z</time>
      </trkpt>
      <trkpt lat="50.22816" lon="4.24894">
        <ele>197.319305</ele>
        <time>2023-05-18T07:08:07Z</time>
      </trkpt>
      <trkpt lat="50.22823" lon="4.24887">
        <ele>197.644714</ele>
        <time>2023-05-18T07:08:09Z</time>
      </trkpt>
      <trkpt lat="50.22829" lon="4.2488">
        <ele>198.452728</ele>
        <time>2023-05-18T07:08:11Z</time>
      </trkpt>
      <trkpt lat="50.22836" lon="4.24872">
        <ele>198.675949</ele>
        <time>2023-05-18T07:08:13Z</time>
      </trkpt>
      <trkpt lat="50.22843" lon="4.24865">
        <ele>199.473557</ele>
        <time>2023-05-18T07:08:15Z</time>
      </trkpt>
      <trkpt lat="50.2285" lon="4.24858">
        <ele>199.83139</ele>
        <time>2023-05-18T07:08:17Z</time>
      </trkpt>
      <trkpt lat="50.22857" lon="4.24851">
        <ele>200.013031</ele>
        <time>2023-05-18T07:08:19Z</time>
      </trkpt>
      <trkpt lat="50.22864" lon="4.24844">
        <ele>200.337372</ele>
        <time>2023-05-18T07:08:21Z</time>
      </trkpt>
      <trkpt lat="50.22871" lon="4.24837">
        <ele>200.664536</ele>
        <time>2023-05-18T07:08:23Z</time>
      </trkpt>
      <trkpt lat="50.22878" lon="4.2483">
        <ele>200.92485</ele>
        <time>2023-05-18T07:08:25Z</time>
      </trkpt>
      <trkpt lat="50.22884" lon="4.24823">
        <ele>201.152283</ele>
        <time>2023-05-18T07:08:27Z</time>
      </trkpt>
      <trkpt lat="50.22891" lon="4.24817">
        <ele>201.400146</ele>
        <time>2023-05-18T07:08:29Z</time>
      </trkpt>
      <trkpt lat="50.22898" lon="4.2481">
        <ele>201.61087</ele>
        <time>2023-05-18T07:08:31Z</time>
      </trkpt>
      <trkpt lat="50.22905" lon="4.24804">
        <ele>201.82373</ele>
        <time>2023-05-18T07:08:33Z</time>
      </trkpt>
      <trkpt lat="50.22912" lon="4.24799">
        <ele>201.982849</ele>
        <time>2023-05-18T07:08:35Z</time>
      </trkpt>
      <trkpt lat="50.2292" lon="4.24793">
        <ele>202.139359</ele>
        <time>2023-05-18T07:08:37Z</time>
      </trkpt>
      <trkpt lat="50.22926" lon="4.24787">
        <ele>202.373077</ele>
        <time>2023-05-18T07:08:39Z</time>
      </trkpt>
      <trkpt lat="50.22934" lon="4.2478">
        <ele>202.59317</ele>
        <time>2023-05-18T07:08:41Z</time>
      </trkpt>
      <trkpt lat="50.22942" lon="4.24775">
        <ele>202.790375</ele>
        <time>2023-05-18T07:08:43Z</time>
      </trkpt>
      <trkpt lat="50.22949" lon="4.24768">
        <ele>203.00325</ele>
        <time>2023-05-18T07:08:45Z</time>
      </trkpt>
      <trkpt lat="50.22957" lon="4.24762">
        <ele>203.185165</ele>
        <time>2023-05-18T07:08:47Z</time>
      </trkpt>
      <trkpt lat="50.22964" lon="4.24757">
        <ele>203.373001</ele>
        <time>2023-05-18T07:08:49Z</time>
      </trkpt>
      <trkpt lat="50.22971" lon="4.24752">
        <ele>203.562927</ele>
        <time>2023-05-18T07:08:51Z</time>
      </trkpt>
      <trkpt lat="50.22979" lon="4.24747">
        <ele>203.206985</ele>
        <time>2023-05-18T07:08:53Z</time>
      </trkpt>
      <trkpt lat="50.22986" lon="4.24743">
        <ele>203.311554</ele>
        <time>2023-05-18T07:08:55Z</time>
      </trkpt>
      <trkpt lat="50.22993" lon="4.24739">
        <ele>202.88324</ele>
        <time>2023-05-18T07:08:57Z</time>
      </trkpt>
      <trkpt lat="50.22997" lon="4.24732">
        <ele>202.917694</ele>
        <time>2023-05-18T07:08:59Z</time>
      </trkpt>
      <trkpt lat="50.22997" lon="4.2472">
        <ele>203.044144</ele>
        <time>2023-05-18T07:09:01Z</time>
      </trkpt>
      <trkpt lat="50.22993" lon="4.24706">
        <ele>203.173309</ele>
        <time>2023-05-18T07:09:03Z</time>
      </trkpt>
      <trkpt lat="50.22989" lon="4.24692">
        <ele>203.271423</ele>
        <time>2023-05-18T07:09:05Z</time>
      </trkpt>
      <trkpt lat="50.22984" lon="4.24678">
        <ele>203.413345</ele>
        <time>2023-05-18T07:09:07Z</time>
      </trkpt>
      <trkpt lat="50.2298" lon="4.24663">
        <ele>203.560623</ele>
        <time>2023-05-18T07:09:09Z</time>
      </trkpt>
      <trkpt lat="50.22976" lon="4.24649">
        <ele>203.724808</ele>
        <time>2023-05-18T07:09:11Z</time>
      </trkpt>
      <trkpt lat="50.22971" lon="4.24635">
        <ele>203.902222</ele>
        <time>2023-05-18T07:09:13Z</time>
      </trkpt>
      <trkpt lat="50.22968" lon="4.24621">
        <ele>203.933014</ele>
        <time>2023-05-18T07:09:15Z</time>
      </trkpt>
      <trkpt lat="50.22963" lon="4.24606">
        <ele>204.066605</ele>
        <time>2023-05-18T07:09:17Z</time>
      </trkpt>
      <trkpt lat="50.22959" lon="4.24591">
        <ele>204.50531</ele>
        <time>2023-05-18T07:09:19Z</time>
      </trkpt>
      <trkpt lat="50.22957" lon="4.24584">
        <ele>204.58255</ele>
        <time>2023-05-18T07:09:20Z</time>
      </trkpt>
      <trkpt lat="50.22953" lon="4.24568">
        <ele>204.499298</ele>
        <time>2023-05-18T07:09:22Z</time>
      </trkpt>
      <trkpt lat="50.22949" lon="4.24553">
        <ele>204.480515</ele>
        <time>2023-05-18T07:09:24Z</time>
      </trkpt>
      <trkpt lat="50.22945" lon="4.24539">
        <ele>204.467987</ele>
        <time>2023-05-18T07:09:26Z</time>
      </trkpt>
      <trkpt lat="50.22942" lon="4.24525">
        <ele>204.565796</ele>
        <time>2023-05-18T07:09:28Z</time>
      </trkpt>
      <trkpt lat="50.22938" lon="4.24511">
        <ele>205.012894</ele>
        <time>2023-05-18T07:09:30Z</time>
      </trkpt>
      <trkpt lat="50.22934" lon="4.24496">
        <ele>204.948212</ele>
        <time>2023-05-18T07:09:32Z</time>
      </trkpt>
      <trkpt lat="50.2293" lon="4.24482">
        <ele>204.947021</ele>
        <time>2023-05-18T07:09:34Z</time>
      </trkpt>
      <trkpt lat="50.22925" lon="4.24469">
        <ele>204.819534</ele>
        <time>2023-05-18T07:09:36Z</time>
      </trkpt>
      <trkpt lat="50.22921" lon="4.24454">
        <ele>204.592041</ele>
        <time>2023-05-18T07:09:38Z</time>
      </trkpt>
      <trkpt lat="50.22917" lon="4.24439">
        <ele>204.324936</ele>
        <time>2023-05-18T07:09:40Z</time>
      </trkpt>
      <trkpt lat="50.22913" lon="4.24425">
        <ele>204.069122</ele>
        <time>2023-05-18T07:09:42Z</time>
      </trkpt>
      <trkpt lat="50.22908" lon="4.24413">
        <ele>204.007309</ele>
        <time>2023-05-18T07:09:44Z</time>
      </trkpt>
      <trkpt lat="50.22904" lon="4.24399">
        <ele>203.806946</ele>
        <time>2023-05-18T07:09:46Z</time>
      </trkpt>
      <trkpt lat="50.229" lon="4.24386">
        <ele>203.683807</ele>
        <time>2023-05-18T07:09:48Z</time>
      </trkpt>
      <trkpt lat="50.22896" lon="4.24373">
        <ele>203.49588</ele>
        <time>2023-05-18T07:09:50Z</time>
      </trkpt>
      <trkpt lat="50.22894" lon="4.24358">
        <ele>203.306396</ele>
        <time>2023-05-18T07:09:52Z</time>
      </trkpt>
      <trkpt lat="50.22893" lon="4.24344">
        <ele>203.132721</ele>
        <time>2023-05-18T07:09:54Z</time>
      </trkpt>
      <trkpt lat="50.22893" lon="4.24329">
        <ele>203.02211</ele>
        <time>2023-05-18T07:09:56Z</time>
      </trkpt>
      <trkpt lat="50.22891" lon="4.24314">
        <ele>202.189987</ele>
        <time>2023-05-18T07:09:58Z</time>
      </trkpt>
      <trkpt lat="50.22888" lon="4.24301">
        <ele>201.125778</ele>
        <time>2023-05-18T07:10:00Z</time>
      </trkpt>
      <trkpt lat="50.22884" lon="4.24286">
        <ele>200.856583</ele>
        <time>2023-05-18T07:10:02Z</time>
      </trkpt>
      <trkpt lat="50.2288" lon="4.24272">
        <ele>200.697998</ele>
        <time>2023-05-18T07:10:04Z</time>
      </trkpt>
      <trkpt lat="50.22876" lon="4.24258">
        <ele>200.476791</ele>
        <time>2023-05-18T07:10:06Z</time>
      </trkpt>
      <trkpt lat="50.22874" lon="4.2425">
        <ele>200.330719</ele>
        <time>2023-05-18T07:10:07Z</time>
      </trkpt>
      <trkpt lat="50.22869" lon="4.24235">
        <ele>200.155396</ele>
        <time>2023-05-18T07:10:09Z</time>
      </trkpt>
      <trkpt lat="50.22864" lon="4.24218">
        <ele>200.005005</ele>
        <time>2023-05-18T07:10:11Z</time>
      </trkpt>
      <trkpt lat="50.2286" lon="4.24202">
        <ele>199.806747</ele>
        <time>2023-05-18T07:10:13Z</time>
      </trkpt>
      <trkpt lat="50.22855" lon="4.24186">
        <ele>199.610367</ele>
        <time>2023-05-18T07:10:15Z</time>
      </trkpt>
      <trkpt lat="50.22851" lon="4.24169">
        <ele>199.447617</ele>
        <time>2023-05-18T07:10:17Z</time>
      </trkpt>
      <trkpt lat="50.22847" lon="4.24153">
        <ele>199.378754</ele>
        <time>2023-05-18T07:10:19Z</time>
      </trkpt>
      <trkpt lat="50.22844" lon="4.24134">
        <ele>199.430573</ele>
        <time>2023-05-18T07:10:21Z</time>
      </trkpt>
      <trkpt lat="50.22842" lon="4.24115">
        <ele>199.439713</ele>
        <time>2023-05-18T07:10:23Z</time>
      </trkpt>
      <trkpt lat="50.22841" lon="4.24096">
        <ele>199.25943</ele>
        <time>2023-05-18T07:10:25Z</time>
      </trkpt>
      <trkpt lat="50.22839" lon="4.24076">
        <ele>199.077911</ele>
        <time>2023-05-18T07:10:27Z</time>
      </trkpt>
      <trkpt lat="50.22838" lon="4.24057">
        <ele>198.754547</ele>
        <time>2023-05-18T07:10:29Z</time>
      </trkpt>
      <trkpt lat="50.22837" lon="4.24037">
        <ele>198.419662</ele>
        <time>2023-05-18T07:10:31Z</time>
      </trkpt>
      <trkpt lat="50.22836" lon="4.24018">
        <ele>198.240479</ele>
        <time>2023-05-18T07:10:33Z</time>
      </trkpt>
      <trkpt lat="50.22834" lon="4.23998">
        <ele>197.952637</ele>
        <time>2023-05-18T07:10:35Z</time>
      </trkpt>
      <trkpt lat="50.22831" lon="4.23978">
        <ele>197.595917</ele>
        <time>2023-05-18T07:10:37Z</time>
      </trkpt>
      <trkpt lat="50.22829" lon="4.23958">
        <ele>197.827148</ele>
        <time>2023-05-18T07:10:39Z</time>
      </trkpt>
      <trkpt lat="50.22826" lon="4.23939">
        <ele>197.987396</ele>
        <time>2023-05-18T07:10:41Z</time>
      </trkpt>
      <trkpt lat="50.22822" lon="4.23923">
        <ele>197.687088</ele>
        <time>2023-05-18T07:10:43Z</time>
      </trkpt>
      <trkpt lat="50.22817" lon="4.23912">
        <ele>197.470169</ele>
        <time>2023-05-18T07:10:45Z</time>
      </trkpt>
      <trkpt lat="50.2281" lon="4.23902">
        <ele>197.123032</ele>
        <time>2023-05-18T07:10:47Z</time>
      </trkpt>
      <trkpt lat="50.22802" lon="4.23893">
        <ele>196.653839</ele>
        <time>2023-05-18T07:10:49Z</time>
      </trkpt>
      <trkpt lat="50.22794" lon="4.23884">
        <ele>196.361832</ele>
        <time>2023-05-18T07:10:51Z</time>
      </trkpt>
      <trkpt lat="50.22787" lon="4.23876">
        <ele>195.24707</ele>
        <time>2023-05-18T07:10:53Z</time>
      </trkpt>
      <trkpt lat="50.22781" lon="4.23866">
        <ele>194.794525</ele>
        <time>2023-05-18T07:10:55Z</time>
      </trkpt>
      <trkpt lat="50.22775" lon="4.23855">
        <ele>194.344193</ele>
        <time>2023-05-18T07:10:57Z</time>
      </trkpt>
      <trkpt lat="50.22769" lon="4.23844">
        <ele>193.896332</ele>
        <time>2023-05-18T07:10:59Z</time>
      </trkpt>
      <trkpt lat="50.22763" lon="4.23834">
        <ele>193.295578</ele>
        <time>2023-05-18T07:11:01Z</time>
      </trkpt>
      <trkpt lat="50.22758" lon="4.23828">
        <ele>192.658951</ele>
        <time>2023-05-18T07:11:03Z</time>
      </trkpt>
      <trkpt lat="50.22752" lon="4.23821">
        <ele>191.883377</ele>
        <time>2023-05-18T07:11:05Z</time>
      </trkpt>
      <trkpt lat="50.22744" lon="4.23815">
        <ele>190.606598</ele>
        <time>2023-05-18T07:11:07Z</time>
      </trkpt>
      <trkpt lat="50.2274" lon="4.23809">
        <ele>189.908249</ele>
        <time>2023-05-18T07:11:09Z</time>
      </trkpt>
      <trkpt lat="50.22734" lon="4.23803">
        <ele>189.299591</ele>
        <time>2023-05-18T07:11:11Z</time>
      </trkpt>
      <trkpt lat="50.22728" lon="4.23797">
        <ele>188.697235</ele>
        <time>2023-05-18T07:11:13Z</time>
      </trkpt>
      <trkpt lat="50.22725" lon="4.23791">
        <ele>187.964127</ele>
        <time>2023-05-18T07:11:15Z</time>
      </trkpt>
      <trkpt lat="50.22726" lon="4.23787">
        <ele>187.060028</ele>
        <time>2023-05-18T07:11:17Z</time>
      </trkpt>
      <trkpt lat="50.22732" lon="4.23783">
        <ele>186.261963</ele>
        <time>2023-05-18T07:11:19Z</time>
      </trkpt>
      <trkpt lat="50.2274" lon="4.23781">
        <ele>185.924438</ele>
        <time>2023-05-18T07:11:21Z</time>
      </trkpt>
      <trkpt lat="50.22748" lon="4.2378">
        <ele>185.163177</ele>
        <time>2023-05-18T07:11:23Z</time>
      </trkpt>
      <trkpt lat="50.22756" lon="4.2378">
        <ele>184.438965</ele>
        <time>2023-05-18T07:11:25Z</time>
      </trkpt>
      <trkpt lat="50.22763" lon="4.23779">
        <ele>183.561142</ele>
        <time>2023-05-18T07:11:27Z</time>
      </trkpt>
      <trkpt lat="50.22769" lon="4.2378">
        <ele>182.750214</ele>
        <time>2023-05-18T07:11:29Z</time>
      </trkpt>
      <trkpt lat="50.22776" lon="4.2378">
        <ele>182.037842</ele>
        <time>2023-05-18T07:11:31Z</time>
      </trkpt>
      <trkpt lat="50.22785" lon="4.23781">
        <ele>181.134201</ele>
        <time>2023-05-18T07:11:33Z</time>
      </trkpt>
      <trkpt lat="50.22796" lon="4.23783">
        <ele>180.455231</ele>
        <time>2023-05-18T07:11:35Z</time>
      </trkpt>
      <trkpt lat="50.22806" lon="4.23783">
        <ele>179.611542</ele>
        <time>2023-05-18T07:11:37Z</time>
      </trkpt>
      <trkpt lat="50.22815" lon="4.23783">
        <ele>178.82431</ele>
        <time>2023-05-18T07:11:39Z</time>
      </trkpt>
      <trkpt lat="50.22825" lon="4.23786">
        <ele>178.084518</ele>
        <time>2023-05-18T07:11:41Z</time>
      </trkpt>
      <trkpt lat="50.22835" lon="4.23786">
        <ele>177.314606</ele>
        <time>2023-05-18T07:11:43Z</time>
      </trkpt>
      <trkpt lat="50.22846" lon="4.23785">
        <ele>176.544052</ele>
        <time>2023-05-18T07:11:45Z</time>
      </trkpt>
      <trkpt lat="50.22855" lon="4.23782">
        <ele>176.53952</ele>
        <time>2023-05-18T07:11:47Z</time>
      </trkpt>
      <trkpt lat="50.22864" lon="4.23778">
        <ele>175.861618</ele>
        <time>2023-05-18T07:11:49Z</time>
      </trkpt>
      <trkpt lat="50.22875" lon="4.23772">
        <ele>175.218353</ele>
        <time>2023-05-18T07:11:51Z</time>
      </trkpt>
      <trkpt lat="50.22884" lon="4.23768">
        <ele>174.552124</ele>
        <time>2023-05-18T07:11:53Z</time>
      </trkpt>
      <trkpt lat="50.22894" lon="4.23764">
        <ele>173.856094</ele>
        <time>2023-05-18T07:11:55Z</time>
      </trkpt>
      <trkpt lat="50.22903" lon="4.23762">
        <ele>173.647949</ele>
        <time>2023-05-18T07:11:57Z</time>
      </trkpt>
      <trkpt lat="50.2291" lon="4.2376">
        <ele>173.258194</ele>
        <time>2023-05-18T07:11:59Z</time>
      </trkpt>
      <trkpt lat="50.22918" lon="4.2376">
        <ele>172.897186</ele>
        <time>2023-05-18T07:12:01Z</time>
      </trkpt>
      <trkpt lat="50.22924" lon="4.23761">
        <ele>172.448227</ele>
        <time>2023-05-18T07:12:03Z</time>
      </trkpt>
      <trkpt lat="50.22932" lon="4.23764">
        <ele>172.064392</ele>
        <time>2023-05-18T07:12:05Z</time>
      </trkpt>
      <trkpt lat="50.22938" lon="4.23766">
        <ele>171.860428</ele>
        <time>2023-05-18T07:12:07Z</time>
      </trkpt>
      <trkpt lat="50.22945" lon="4.23769">
        <ele>171.592468</ele>
        <time>2023-05-18T07:12:09Z</time>
      </trkpt>
      <trkpt lat="50.22949" lon="4.23773">
        <ele>171.385696</ele>
        <time>2023-05-18T07:12:11Z</time>
      </trkpt>
      <trkpt lat="50.22954" lon="4.23778">
        <ele>171.302444</ele>
        <time>2023-05-18T07:12:13Z</time>
      </trkpt>
      <trkpt lat="50.22959" lon="4.23783">
        <ele>171.298279</ele>
        <time>2023-05-18T07:12:15Z</time>
      </trkpt>
      <trkpt lat="50.22962" lon="4.23785">
        <ele>171.258743</ele>
        <time>2023-05-18T07:12:16Z</time>
      </trkpt>
      <trkpt lat="50.22965" lon="4.23789">
        <ele>171.246246</ele>
        <time>2023-05-18T07:12:18Z</time>
      </trkpt>
      <trkpt lat="50.22971" lon="4.23792">
        <ele>171.283722</ele>
        <time>2023-05-18T07:12:20Z</time>
      </trkpt>
      <trkpt lat="50.22977" lon="4.23792">
        <ele>171.333649</ele>
        <time>2023-05-18T07:12:22Z</time>
      </trkpt>
      <trkpt lat="50.22982" lon="4.23792">
        <ele>171.473083</ele>
        <time>2023-05-18T07:12:24Z</time>
      </trkpt>
      <trkpt lat="50.22988" lon="4.2379">
        <ele>171.668686</ele>
        <time>2023-05-18T07:12:26Z</time>
      </trkpt>
      <trkpt lat="50.22992" lon="4.23787">
        <ele>171.791473</ele>
        <time>2023-05-18T07:12:28Z</time>
      </trkpt>
      <trkpt lat="50.22995" lon="4.23784">
        <ele>171.917999</ele>
        <time>2023-05-18T07:12:30Z</time>
      </trkpt>
      <trkpt lat="50.22998" lon="4.2378">
        <ele>172.221848</ele>
        <time>2023-05-18T07:12:32Z</time>
      </trkpt>
      <trkpt lat="50.23001" lon="4.23775">
        <ele>172.511139</ele>
        <time>2023-05-18T07:12:34Z</time>
      </trkpt>
      <trkpt lat="50.23004" lon="4.23771">
        <ele>172.827469</ele>
        <time>2023-05-18T07:12:36Z</time>
      </trkpt>
      <trkpt lat="50.23007" lon="4.23766">
        <ele>173.131317</ele>
        <time>2023-05-18T07:12:38Z</time>
      </trkpt>
      <trkpt lat="50.2301" lon="4.23762">
        <ele>173.4711</ele>
        <time>2023-05-18T07:12:40Z</time>
      </trkpt>
      <trkpt lat="50.23012" lon="4.23758">
        <ele>173.848785</ele>
        <time>2023-05-18T07:12:42Z</time>
      </trkpt>
      <trkpt lat="50.23014" lon="4.23753">
        <ele>174.240082</ele>
        <time>2023-05-18T07:12:44Z</time>
      </trkpt>
      <trkpt lat="50.23017" lon="4.23748">
        <ele>174.675125</ele>
        <time>2023-05-18T07:12:46Z</time>
      </trkpt>
      <trkpt lat="50.23019" lon="4.23745">
        <ele>175.016693</ele>
        <time>2023-05-18T07:12:48Z</time>
      </trkpt>
      <trkpt lat="50.23021" lon="4.23743">
        <ele>175.258179</ele>
        <time>2023-05-18T07:12:49Z</time>
      </trkpt>
      <trkpt lat="50.23024" lon="4.23739">
        <ele>175.684967</ele>
        <time>2023-05-18T07:12:51Z</time>
      </trkpt>
      <trkpt lat="50.23027" lon="4.23736">
        <ele>176.149216</ele>
        <time>2023-05-18T07:12:53Z</time>
      </trkpt>
      <trkpt lat="50.23031" lon="4.23734">
        <ele>176.592697</ele>
        <time>2023-05-18T07:12:55Z</time>
      </trkpt>
      <trkpt lat="50.23035" lon="4.23732">
        <ele>177.034058</ele>
        <time>2023-05-18T07:12:57Z</time>
      </trkpt>
      <trkpt lat="50.23038" lon="4.23731">
        <ele>177.498367</ele>
        <time>2023-05-18T07:12:59Z</time>
      </trkpt>
      <trkpt lat="50.23041" lon="4.23732">
        <ele>177.95224</ele>
        <time>2023-05-18T07:13:01Z</time>
      </trkpt>
      <trkpt lat="50.23045" lon="4.23731">
        <ele>178.395462</ele>
        <time>2023-05-18T07:13:03Z</time>
      </trkpt>
      <trkpt lat="50.2305" lon="4.23731">
        <ele>178.846649</ele>
        <time>2023-05-18T07:13:05Z</time>
      </trkpt>
      <trkpt lat="50.23052" lon="4.23733">
        <ele>179.063141</ele>
        <time>2023-05-18T07:13:07Z</time>
      </trkpt>
      <trkpt lat="50.23056" lon="4.23734">
        <ele>179.54837</ele>
        <time>2023-05-18T07:13:09Z</time>
      </trkpt>
      <trkpt lat="50.2306" lon="4.23734">
        <ele>180.012283</ele>
        <time>2023-05-18T07:13:11Z</time>
      </trkpt>
      <trkpt lat="50.23065" lon="4.23735">
        <ele>180.432953</ele>
        <time>2023-05-18T07:13:13Z</time>
      </trkpt>
      <trkpt lat="50.23069" lon="4.23736">
        <ele>180.876572</ele>
        <time>2023-05-18T07:13:15Z</time>
      </trkpt>
      <trkpt lat="50.23072" lon="4.23737">
        <ele>181.334213</ele>
        <time>2023-05-18T07:13:17Z</time>
      </trkpt>
      <trkpt lat="50.23072" lon="4.23739">
        <ele>181.784698</ele>
        <time>2023-05-18T07:13:19Z</time>
      </trkpt>
      <trkpt lat="50.23076" lon="4.2374">
        <ele>182.194626</ele>
        <time>2023-05-18T07:13:21Z</time>
      </trkpt>
      <trkpt lat="50.23081" lon="4.23738">
        <ele>182.586258</ele>
        <time>2023-05-18T07:13:23Z</time>
      </trkpt>
      <trkpt lat="50.23087" lon="4.23737">
        <ele>183.036224</ele>
        <time>2023-05-18T07:13:25Z</time>
      </trkpt>
      <trkpt lat="50.23093" lon="4.23736">
        <ele>183.434113</ele>
        <time>2023-05-18T07:13:27Z</time>
      </trkpt>
      <trkpt lat="50.23099" lon="4.23735">
        <ele>183.856628</ele>
        <time>2023-05-18T07:13:29Z</time>
      </trkpt>
      <trkpt lat="50.23103" lon="4.23734">
        <ele>184.19989</ele>
        <time>2023-05-18T07:13:31Z</time>
      </trkpt>
      <trkpt lat="50.23109" lon="4.23734">
        <ele>184.529083</ele>
        <time>2023-05-18T07:13:33Z</time>
      </trkpt>
      <trkpt lat="50.23113" lon="4.23733">
        <ele>184.856689</ele>
        <time>2023-05-18T07:13:35Z</time>
      </trkpt>
      <trkpt lat="50.23118" lon="4.23732">
        <ele>185.179642</ele>
        <time>2023-05-18T07:13:37Z</time>
      </trkpt>
      <trkpt lat="50.23123" lon="4.23731">
        <ele>185.53595</ele>
        <time>2023-05-18T07:13:39Z</time>
      </trkpt>
      <trkpt lat="50.23127" lon="4.23731">
        <ele>185.698486</ele>
        <time>2023-05-18T07:13:41Z</time>
      </trkpt>
      <trkpt lat="50.23131" lon="4.2373">
        <ele>186.251007</ele>
        <time>2023-05-18T07:13:43Z</time>
      </trkpt>
      <trkpt lat="50.23136" lon="4.2373">
        <ele>186.593384</ele>
        <time>2023-05-18T07:13:45Z</time>
      </trkpt>
      <trkpt lat="50.23141" lon="4.23728">
        <ele>186.729553</ele>
        <time>2023-05-18T07:13:47Z</time>
      </trkpt>
      <trkpt lat="50.23146" lon="4.23727">
        <ele>187.036469</ele>
        <time>2023-05-18T07:13:49Z</time>
      </trkpt>
      <trkpt lat="50.2315" lon="4.23725">
        <ele>187.347</ele>
        <time>2023-05-18T07:13:51Z</time>
      </trkpt>
      <trkpt lat="50.23151" lon="4.23719">
        <ele>187.655457</ele>
        <time>2023-05-18T07:13:53Z</time>
      </trkpt>
      <trkpt lat="50.23149" lon="4.23715">
        <ele>187.968384</ele>
        <time>2023-05-18T07:13:55Z</time>
      </trkpt>
      <trkpt lat="50.23147" lon="4.2371">
        <ele>188.281021</ele>
        <time>2023-05-18T07:13:57Z</time>
      </trkpt>
      <trkpt lat="50.23143" lon="4.23705">
        <ele>188.60817</ele>
        <time>2023-05-18T07:13:59Z</time>
      </trkpt>
      <trkpt lat="50.23138" lon="4.23699">
        <ele>188.90036</ele>
        <time>2023-05-18T07:14:01Z</time>
      </trkpt>
      <trkpt lat="50.23132" lon="4.23691">
        <ele>189.215057</ele>
        <time>2023-05-18T07:14:03Z</time>
      </trkpt>
      <trkpt lat="50.23127" lon="4.23682">
        <ele>189.511063</ele>
        <time>2023-05-18T07:14:05Z</time>
      </trkpt>
      <trkpt lat="50.23121" lon="4.23672">
        <ele>189.713882</ele>
        <time>2023-05-18T07:14:07Z</time>
      </trkpt>
      <trkpt lat="50.23115" lon="4.23661">
        <ele>189.922333</ele>
        <time>2023-05-18T07:14:09Z</time>
      </trkpt>
      <trkpt lat="50.23108" lon="4.23649">
        <ele>190.161774</ele>
        <time>2023-05-18T07:14:11Z</time>
      </trkpt>
      <trkpt lat="50.231" lon="4.23635">
        <ele>190.374374</ele>
        <time>2023-05-18T07:14:13Z</time>
      </trkpt>
      <trkpt lat="50.23092" lon="4.23621">
        <ele>190.501541</ele>
        <time>2023-05-18T07:14:15Z</time>
      </trkpt>
      <trkpt lat="50.23083" lon="4.23606">
        <ele>190.557327</ele>
        <time>2023-05-18T07:14:17Z</time>
      </trkpt>
      <trkpt lat="50.23079" lon="4.23598">
        <ele>190.557327</ele>
        <time>2023-05-18T07:14:18Z</time>
      </trkpt>
      <trkpt lat="50.23069" lon="4.23583">
        <ele>190.692902</ele>
        <time>2023-05-18T07:14:20Z</time>
      </trkpt>
      <trkpt lat="50.23061" lon="4.23568">
        <ele>190.730423</ele>
        <time>2023-05-18T07:14:22Z</time>
      </trkpt>
      <trkpt lat="50.23052" lon="4.23553">
        <ele>190.676224</ele>
        <time>2023-05-18T07:14:24Z</time>
      </trkpt>
      <trkpt lat="50.23044" lon="4.2354">
        <ele>190.56575</ele>
        <time>2023-05-18T07:14:26Z</time>
      </trkpt>
      <trkpt lat="50.23036" lon="4.23526">
        <ele>190.467072</ele>
        <time>2023-05-18T07:14:28Z</time>
      </trkpt>
      <trkpt lat="50.2303" lon="4.23515">
        <ele>190.30191</ele>
        <time>2023-05-18T07:14:30Z</time>
      </trkpt>
      <trkpt lat="50.23026" lon="4.23509">
        <ele>190.128891</ele>
        <time>2023-05-18T07:14:32Z</time>
      </trkpt>
      <trkpt lat="50.23024" lon="4.23505">
        <ele>189.889206</ele>
        <time>2023-05-18T07:14:34Z</time>
      </trkpt>
      <trkpt lat="50.23025" lon="4.235">
        <ele>188.317398</ele>
        <time>2023-05-18T07:14:44Z</time>
      </trkpt>
      <trkpt lat="50.23026" lon="4.23495">
        <ele>187.877625</ele>
        <time>2023-05-18T07:14:46Z</time>
      </trkpt>
      <trkpt lat="50.23027" lon="4.23489">
        <ele>187.70256</ele>
        <time>2023-05-18T07:14:48Z</time>
      </trkpt>
      <trkpt lat="50.23031" lon="4.23483">
        <ele>187.320557</ele>
        <time>2023-05-18T07:14:50Z</time>
      </trkpt>
      <trkpt lat="50.23035" lon="4.2348">
        <ele>186.848358</ele>
        <time>2023-05-18T07:14:52Z</time>
      </trkpt>
      <trkpt lat="50.23039" lon="4.23479">
        <ele>186.312805</ele>
        <time>2023-05-18T07:14:54Z</time>
      </trkpt>
      <trkpt lat="50.23042" lon="4.23477">
        <ele>185.908798</ele>
        <time>2023-05-18T07:14:56Z</time>
      </trkpt>
      <trkpt lat="50.23046" lon="4.23477">
        <ele>185.621246</ele>
        <time>2023-05-18T07:14:58Z</time>
      </trkpt>
      <trkpt lat="50.23053" lon="4.23476">
        <ele>184.590546</ele>
        <time>2023-05-18T07:15:00Z</time>
      </trkpt>
      <trkpt lat="50.2306" lon="4.23475">
        <ele>184.184204</ele>
        <time>2023-05-18T07:15:02Z</time>
      </trkpt>
      <trkpt lat="50.2307" lon="4.23474">
        <ele>183.259918</ele>
        <time>2023-05-18T07:15:04Z</time>
      </trkpt>
      <trkpt lat="50.23077" lon="4.23474">
        <ele>182.939056</ele>
        <time>2023-05-18T07:15:06Z</time>
      </trkpt>
      <trkpt lat="50.23082" lon="4.23475">
        <ele>182.640778</ele>
        <time>2023-05-18T07:15:08Z</time>
      </trkpt>
      <trkpt lat="50.23089" lon="4.23473">
        <ele>182.349121</ele>
        <time>2023-05-18T07:15:10Z</time>
      </trkpt>
      <trkpt lat="50.23095" lon="4.23473">
        <ele>182.111603</ele>
        <time>2023-05-18T07:15:12Z</time>
      </trkpt>
      <trkpt lat="50.23098" lon="4.23475">
        <ele>181.878265</ele>
        <time>2023-05-18T07:15:14Z</time>
      </trkpt>
      <trkpt lat="50.23105" lon="4.23474">
        <ele>181.690125</ele>
        <time>2023-05-18T07:15:16Z</time>
      </trkpt>
      <trkpt lat="50.23112" lon="4.23476">
        <ele>181.471375</ele>
        <time>2023-05-18T07:15:18Z</time>
      </trkpt>
      <trkpt lat="50.23119" lon="4.23479">
        <ele>181.277695</ele>
        <time>2023-05-18T07:15:20Z</time>
      </trkpt>
      <trkpt lat="50.23127" lon="4.23479">
        <ele>181.154785</ele>
        <time>2023-05-18T07:15:22Z</time>
      </trkpt>
      <trkpt lat="50.23135" lon="4.23482">
        <ele>181.070084</ele>
        <time>2023-05-18T07:15:24Z</time>
      </trkpt>
      <trkpt lat="50.23142" lon="4.23484">
        <ele>181.090912</ele>
        <time>2023-05-18T07:15:26Z</time>
      </trkpt>
      <trkpt lat="50.23148" lon="4.23488">
        <ele>181.105499</ele>
        <time>2023-05-18T07:15:28Z</time>
      </trkpt>
      <trkpt lat="50.23154" lon="4.23494">
        <ele>181.053421</ele>
        <time>2023-05-18T07:15:30Z</time>
      </trkpt>
      <trkpt lat="50.23161" lon="4.235">
        <ele>181.107285</ele>
        <time>2023-05-18T07:15:32Z</time>
      </trkpt>
      <trkpt lat="50.23169" lon="4.23508">
        <ele>181.157288</ele>
        <time>2023-05-18T07:15:34Z</time>
      </trkpt>
      <trkpt lat="50.23176" lon="4.23515">
        <ele>181.231964</ele>
        <time>2023-05-18T07:15:36Z</time>
      </trkpt>
      <trkpt lat="50.23183" lon="4.2352">
        <ele>181.292389</ele>
        <time>2023-05-18T07:15:38Z</time>
      </trkpt>
      <trkpt lat="50.2319" lon="4.23525">
        <ele>181.356979</ele>
        <time>2023-05-18T07:15:40Z</time>
      </trkpt>
      <trkpt lat="50.23196" lon="4.23531">
        <ele>182.042618</ele>
        <time>2023-05-18T07:15:42Z</time>
      </trkpt>
      <trkpt lat="50.23203" lon="4.23536">
        <ele>182.128448</ele>
        <time>2023-05-18T07:15:44Z</time>
      </trkpt>
      <trkpt lat="50.23211" lon="4.23541">
        <ele>182.788757</ele>
        <time>2023-05-18T07:15:46Z</time>
      </trkpt>
      <trkpt lat="50.23219" lon="4.23544">
        <ele>182.99379</ele>
        <time>2023-05-18T07:15:48Z</time>
      </trkpt>
      <trkpt lat="50.23227" lon="4.23546">
        <ele>183.156265</ele>
        <time>2023-05-18T07:15:50Z</time>
      </trkpt>
      <trkpt lat="50.23234" lon="4.23549">
        <ele>183.197922</ele>
        <time>2023-05-18T07:15:52Z</time>
      </trkpt>
      <trkpt lat="50.23241" lon="4.2355">
        <ele>183.637726</ele>
        <time>2023-05-18T07:15:54Z</time>
      </trkpt>
      <trkpt lat="50.23247" lon="4.23551">
        <ele>183.787704</ele>
        <time>2023-05-18T07:15:56Z</time>
      </trkpt>
      <trkpt lat="50.23253" lon="4.23553">
        <ele>183.934174</ele>
        <time>2023-05-18T07:15:58Z</time>
      </trkpt>
      <trkpt lat="50.23259" lon="4.23554">
        <ele>184.097305</ele>
        <time>2023-05-18T07:16:00Z</time>
      </trkpt>
      <trkpt lat="50.23265" lon="4.23554">
        <ele>184.263885</ele>
        <time>2023-05-18T07:16:02Z</time>
      </trkpt>
      <trkpt lat="50.23272" lon="4.23553">
        <ele>184.432648</ele>
        <time>2023-05-18T07:16:04Z</time>
      </trkpt>
      <trkpt lat="50.23278" lon="4.2355">
        <ele>184.477753</ele>
        <time>2023-05-18T07:16:06Z</time>
      </trkpt>
      <trkpt lat="50.23285" lon="4.23548">
        <ele>184.509003</ele>
        <time>2023-05-18T07:16:08Z</time>
      </trkpt>
      <trkpt lat="50.23291" lon="4.23546">
        <ele>184.606934</ele>
        <time>2023-05-18T07:16:10Z</time>
      </trkpt>
      <trkpt lat="50.23298" lon="4.23543">
        <ele>184.694733</ele>
        <time>2023-05-18T07:16:12Z</time>
      </trkpt>
      <trkpt lat="50.23305" lon="4.2354">
        <ele>184.826004</ele>
        <time>2023-05-18T07:16:14Z</time>
      </trkpt>
      <trkpt lat="50.23314" lon="4.23537">
        <ele>184.888504</ele>
        <time>2023-05-18T07:16:16Z</time>
      </trkpt>
      <trkpt lat="50.23321" lon="4.23533">
        <ele>185.057266</ele>
        <time>2023-05-18T07:16:18Z</time>
      </trkpt>
      <trkpt lat="50.23327" lon="4.23532">
        <ele>185.228119</ele>
        <time>2023-05-18T07:16:20Z</time>
      </trkpt>
      <trkpt lat="50.23333" lon="4.23531">
        <ele>185.320145</ele>
        <time>2023-05-18T07:16:22Z</time>
      </trkpt>
      <trkpt lat="50.23338" lon="4.2353">
        <ele>185.444733</ele>
        <time>2023-05-18T07:16:24Z</time>
      </trkpt>
      <trkpt lat="50.23344" lon="4.23527">
        <ele>185.508652</ele>
        <time>2023-05-18T07:16:26Z</time>
      </trkpt>
      <trkpt lat="50.23349" lon="4.23527">
        <ele>185.606583</ele>
        <time>2023-05-18T07:16:28Z</time>
      </trkpt>
      <trkpt lat="50.23355" lon="4.23524">
        <ele>185.70816</ele>
        <time>2023-05-18T07:16:30Z</time>
      </trkpt>
      <trkpt lat="50.2336" lon="4.23521">
        <ele>185.824844</ele>
        <time>2023-05-18T07:16:32Z</time>
      </trkpt>
      <trkpt lat="50.23364" lon="4.23517">
        <ele>185.648605</ele>
        <time>2023-05-18T07:16:34Z</time>
      </trkpt>
      <trkpt lat="50.2337" lon="4.23515">
        <ele>185.820969</ele>
        <time>2023-05-18T07:16:36Z</time>
      </trkpt>
      <trkpt lat="50.23375" lon="4.23512">
        <ele>185.99382</ele>
        <time>2023-05-18T07:16:38Z</time>
      </trkpt>
      <trkpt lat="50.23381" lon="4.23507">
        <ele>186.12175</ele>
        <time>2023-05-18T07:16:40Z</time>
      </trkpt>
      <trkpt lat="50.23386" lon="4.23505">
        <ele>186.228699</ele>
        <time>2023-05-18T07:16:42Z</time>
      </trkpt>
      <trkpt lat="50.23392" lon="4.23503">
        <ele>186.435013</ele>
        <time>2023-05-18T07:16:44Z</time>
      </trkpt>
      <trkpt lat="50.23397" lon="4.235">
        <ele>186.618378</ele>
        <time>2023-05-18T07:16:46Z</time>
      </trkpt>
      <trkpt lat="50.23402" lon="4.23498">
        <ele>186.824692</ele>
        <time>2023-05-18T07:16:48Z</time>
      </trkpt>
      <trkpt lat="50.23407" lon="4.23495">
        <ele>187.028931</ele>
        <time>2023-05-18T07:16:50Z</time>
      </trkpt>
      <trkpt lat="50.2341" lon="4.23494">
        <ele>187.241486</ele>
        <time>2023-05-18T07:16:52Z</time>
      </trkpt>
      <trkpt lat="50.23416" lon="4.23491">
        <ele>187.412369</ele>
        <time>2023-05-18T07:16:54Z</time>
      </trkpt>
      <trkpt lat="50.23421" lon="4.23487">
        <ele>187.615585</ele>
        <time>2023-05-18T07:16:56Z</time>
      </trkpt>
      <trkpt lat="50.23426" lon="4.23484">
        <ele>187.688538</ele>
        <time>2023-05-18T07:16:58Z</time>
      </trkpt>
      <trkpt lat="50.23432" lon="4.23481">
        <ele>187.841766</ele>
        <time>2023-05-18T07:17:00Z</time>
      </trkpt>
      <trkpt lat="50.23437" lon="4.23476">
        <ele>187.941803</ele>
        <time>2023-05-18T07:17:02Z</time>
      </trkpt>
      <trkpt lat="50.23442" lon="4.23473">
        <ele>188.17601</ele>
        <time>2023-05-18T07:17:04Z</time>
      </trkpt>
      <trkpt lat="50.23447" lon="4.23471">
        <ele>188.366699</ele>
        <time>2023-05-18T07:17:06Z</time>
      </trkpt>
      <trkpt lat="50.23451" lon="4.23468">
        <ele>188.614899</ele>
        <time>2023-05-18T07:17:08Z</time>
      </trkpt>
      <trkpt lat="50.23456" lon="4.23464">
        <ele>188.802505</ele>
        <time>2023-05-18T07:17:10Z</time>
      </trkpt>
      <trkpt lat="50.2346" lon="4.23461">
        <ele>188.971344</ele>
        <time>2023-05-18T07:17:12Z</time>
      </trkpt>
      <trkpt lat="50.23465" lon="4.23458">
        <ele>189.233978</ele>
        <time>2023-05-18T07:17:14Z</time>
      </trkpt>
      <trkpt lat="50.2347" lon="4.23455">
        <ele>189.464874</ele>
        <time>2023-05-18T07:17:16Z</time>
      </trkpt>
      <trkpt lat="50.23475" lon="4.23453">
        <ele>189.658844</ele>
        <time>2023-05-18T07:17:18Z</time>
      </trkpt>
      <trkpt lat="50.2348" lon="4.23449">
        <ele>189.930511</ele>
        <time>2023-05-18T07:17:20Z</time>
      </trkpt>
      <trkpt lat="50.23485" lon="4.23447">
        <ele>190.196671</ele>
        <time>2023-05-18T07:17:22Z</time>
      </trkpt>
      <trkpt lat="50.23489" lon="4.23443">
        <ele>190.480194</ele>
        <time>2023-05-18T07:17:24Z</time>
      </trkpt>
      <trkpt lat="50.23493" lon="4.23439">
        <ele>190.607361</ele>
        <time>2023-05-18T07:17:26Z</time>
      </trkpt>
      <trkpt lat="50.23496" lon="4.23435">
        <ele>190.811661</ele>
        <time>2023-05-18T07:17:28Z</time>
      </trkpt>
      <trkpt lat="50.235" lon="4.23431">
        <ele>191.063934</ele>
        <time>2023-05-18T07:17:30Z</time>
      </trkpt>
      <trkpt lat="50.23504" lon="4.23427">
        <ele>191.257828</ele>
        <time>2023-05-18T07:17:32Z</time>
      </trkpt>
      <trkpt lat="50.23507" lon="4.23424">
        <ele>191.591415</ele>
        <time>2023-05-18T07:17:34Z</time>
      </trkpt>
      <trkpt lat="50.2351" lon="4.23421">
        <ele>191.82077</ele>
        <time>2023-05-18T07:17:36Z</time>
      </trkpt>
      <trkpt lat="50.23513" lon="4.23418">
        <ele>192.06781</ele>
        <time>2023-05-18T07:17:38Z</time>
      </trkpt>
      <trkpt lat="50.23515" lon="4.23415">
        <ele>192.334244</ele>
        <time>2023-05-18T07:17:40Z</time>
      </trkpt>
      <trkpt lat="50.23517" lon="4.23411">
        <ele>192.480194</ele>
        <time>2023-05-18T07:17:42Z</time>
      </trkpt>
      <trkpt lat="50.23519" lon="4.23409">
        <ele>192.683197</ele>
        <time>2023-05-18T07:17:44Z</time>
      </trkpt>
      <trkpt lat="50.23521" lon="4.23407">
        <ele>194.280914</ele>
        <time>2023-05-18T07:17:59Z</time>
      </trkpt>
      <trkpt lat="50.23521" lon="4.23402">
        <ele>194.412308</ele>
        <time>2023-05-18T07:18:01Z</time>
      </trkpt>
      <trkpt lat="50.23525" lon="4.23398">
        <ele>194.531174</ele>
        <time>2023-05-18T07:18:03Z</time>
      </trkpt>
      <trkpt lat="50.23528" lon="4.23396">
        <ele>194.614594</ele>
        <time>2023-05-18T07:18:05Z</time>
      </trkpt>
      <trkpt lat="50.23533" lon="4.23394">
        <ele>194.704239</ele>
        <time>2023-05-18T07:18:07Z</time>
      </trkpt>
      <trkpt lat="50.23539" lon="4.23394">
        <ele>194.752197</ele>
        <time>2023-05-18T07:18:09Z</time>
      </trkpt>
      <trkpt lat="50.23544" lon="4.23393">
        <ele>194.795212</ele>
        <time>2023-05-18T07:18:11Z</time>
      </trkpt>
      <trkpt lat="50.2355" lon="4.2339">
        <ele>194.807724</ele>
        <time>2023-05-18T07:18:13Z</time>
      </trkpt>
      <trkpt lat="50.23555" lon="4.23383">
        <ele>194.767212</ele>
        <time>2023-05-18T07:18:15Z</time>
      </trkpt>
      <trkpt lat="50.23555" lon="4.23372">
        <ele>194.687302</ele>
        <time>2023-05-18T07:18:17Z</time>
      </trkpt>
      <trkpt lat="50.23553" lon="4.23363">
        <ele>194.681061</ele>
        <time>2023-05-18T07:18:19Z</time>
      </trkpt>
      <trkpt lat="50.2355" lon="4.23351">
        <ele>194.605988</ele>
        <time>2023-05-18T07:18:21Z</time>
      </trkpt>
      <trkpt lat="50.23549" lon="4.23337">
        <ele>194.486481</ele>
        <time>2023-05-18T07:18:23Z</time>
      </trkpt>
      <trkpt lat="50.23547" lon="4.23323">
        <ele>194.318939</ele>
        <time>2023-05-18T07:18:25Z</time>
      </trkpt>
      <trkpt lat="50.23547" lon="4.23309">
        <ele>194.173798</ele>
        <time>2023-05-18T07:18:27Z</time>
      </trkpt>
      <trkpt lat="50.23548" lon="4.23297">
        <ele>194.082031</ele>
        <time>2023-05-18T07:18:29Z</time>
      </trkpt>
      <trkpt lat="50.23549" lon="4.23287">
        <ele>193.820007</ele>
        <time>2023-05-18T07:18:31Z</time>
      </trkpt>
      <trkpt lat="50.23549" lon="4.23274">
        <ele>193.374832</ele>
        <time>2023-05-18T07:18:33Z</time>
      </trkpt>
      <trkpt lat="50.2355" lon="4.23262">
        <ele>193.131851</ele>
        <time>2023-05-18T07:18:35Z</time>
      </trkpt>
      <trkpt lat="50.2355" lon="4.23251">
        <ele>192.853363</ele>
        <time>2023-05-18T07:18:37Z</time>
      </trkpt>
      <trkpt lat="50.2355" lon="4.23242">
        <ele>192.417709</ele>
        <time>2023-05-18T07:18:39Z</time>
      </trkpt>
      <trkpt lat="50.23551" lon="4.23233">
        <ele>191.913223</ele>
        <time>2023-05-18T07:18:41Z</time>
      </trkpt>
      <trkpt lat="50.23553" lon="4.23224">
        <ele>191.542099</ele>
        <time>2023-05-18T07:18:43Z</time>
      </trkpt>
      <trkpt lat="50.23555" lon="4.23216">
        <ele>191.206818</ele>
        <time>2023-05-18T07:18:45Z</time>
      </trkpt>
      <trkpt lat="50.23557" lon="4.23211">
        <ele>190.885773</ele>
        <time>2023-05-18T07:18:47Z</time>
      </trkpt>
      <trkpt lat="50.23558" lon="4.23204">
        <ele>190.541809</ele>
        <time>2023-05-18T07:18:49Z</time>
      </trkpt>
      <trkpt lat="50.2356" lon="4.232">
        <ele>190.208267</ele>
        <time>2023-05-18T07:18:51Z</time>
      </trkpt>
      <trkpt lat="50.23562" lon="4.23199">
        <ele>189.455261</ele>
        <time>2023-05-18T07:18:55Z</time>
      </trkpt>
      <trkpt lat="50.23562" lon="4.23198">
        <ele>189.08902</ele>
        <time>2023-05-18T07:18:57Z</time>
      </trkpt>
      <trkpt lat="50.23563" lon="4.23198">
        <ele>188.807632</ele>
        <time>2023-05-18T07:18:59Z</time>
      </trkpt>
      <trkpt lat="50.23564" lon="4.23201">
        <ele>188.607513</ele>
        <time>2023-05-18T07:19:01Z</time>
      </trkpt>
      <trkpt lat="50.23564" lon="4.23202">
        <ele>188.475815</ele>
        <time>2023-05-18T07:19:02Z</time>
      </trkpt>
      <trkpt lat="50.23564" lon="4.23204">
        <ele>188.228043</ele>
        <time>2023-05-18T07:19:04Z</time>
      </trkpt>
      <trkpt lat="50.23565" lon="4.23207">
        <ele>187.992508</ele>
        <time>2023-05-18T07:19:06Z</time>
      </trkpt>
      <trkpt lat="50.23565" lon="4.23211">
        <ele>187.758209</ele>
        <time>2023-05-18T07:19:08Z</time>
      </trkpt>
      <trkpt lat="50.23566" lon="4.23213">
        <ele>187.462189</ele>
        <time>2023-05-18T07:19:10Z</time>
      </trkpt>
      <trkpt lat="50.23567" lon="4.23215">
        <ele>187.324326</ele>
        <time>2023-05-18T07:19:12Z</time>
      </trkpt>
      <trkpt lat="50.23568" lon="4.23216">
        <ele>187.36087</ele>
        <time>2023-05-18T07:19:14Z</time>
      </trkpt>
      <trkpt lat="50.2357" lon="4.23217">
        <ele>187.216049</ele>
        <time>2023-05-18T07:19:16Z</time>
      </trkpt>
      <trkpt lat="50.23571" lon="4.23219">
        <ele>187.11293</ele>
        <time>2023-05-18T07:19:18Z</time>
      </trkpt>
      <trkpt lat="50.23572" lon="4.23219">
        <ele>187.242096</ele>
        <time>2023-05-18T07:19:20Z</time>
      </trkpt>
      <trkpt lat="50.23574" lon="4.23217">
        <ele>187.483841</ele>
        <time>2023-05-18T07:19:24Z</time>
      </trkpt>
      <trkpt lat="50.23581" lon="4.23225">
        <ele>189.94841</ele>
        <time>2023-05-18T07:19:48Z</time>
      </trkpt>
      <trkpt lat="50.23582" lon="4.23225">
        <ele>190.063065</ele>
        <time>2023-05-18T07:19:49Z</time>
      </trkpt>
      <trkpt lat="50.23584" lon="4.23227">
        <ele>190.369507</ele>
        <time>2023-05-18T07:19:51Z</time>
      </trkpt>
      <trkpt lat="50.23587" lon="4.23229">
        <ele>191.997803</ele>
        <time>2023-05-18T07:20:01Z</time>
      </trkpt>
      <trkpt lat="50.23589" lon="4.23231">
        <ele>192.245926</ele>
        <time>2023-05-18T07:20:03Z</time>
      </trkpt>
      <trkpt lat="50.23592" lon="4.23234">
        <ele>192.404373</ele>
        <time>2023-05-18T07:20:05Z</time>
      </trkpt>
      <trkpt lat="50.23595" lon="4.23238">
        <ele>192.660843</ele>
        <time>2023-05-18T07:20:07Z</time>
      </trkpt>
      <trkpt lat="50.236" lon="4.2324">
        <ele>192.984009</ele>
        <time>2023-05-18T07:20:09Z</time>
      </trkpt>
      <trkpt lat="50.23603" lon="4.23241">
        <ele>193.257126</ele>
        <time>2023-05-18T07:20:11Z</time>
      </trkpt>
      <trkpt lat="50.23607" lon="4.23242">
        <ele>193.574997</ele>
        <time>2023-05-18T07:20:13Z</time>
      </trkpt>
      <trkpt lat="50.23614" lon="4.23242">
        <ele>193.868576</ele>
        <time>2023-05-18T07:20:15Z</time>
      </trkpt>
      <trkpt lat="50.2362" lon="4.23243">
        <ele>194.150665</ele>
        <time>2023-05-18T07:20:17Z</time>
      </trkpt>
      <trkpt lat="50.23626" lon="4.23244">
        <ele>194.391937</ele>
        <time>2023-05-18T07:20:19Z</time>
      </trkpt>
      <trkpt lat="50.23632" lon="4.23246">
        <ele>194.604691</ele>
        <time>2023-05-18T07:20:21Z</time>
      </trkpt>
      <trkpt lat="50.23637" lon="4.23249">
        <ele>194.857025</ele>
        <time>2023-05-18T07:20:23Z</time>
      </trkpt>
      <trkpt lat="50.23642" lon="4.2325">
        <ele>195.158844</ele>
        <time>2023-05-18T07:20:25Z</time>
      </trkpt>
      <trkpt lat="50.23647" lon="4.23251">
        <ele>195.432083</ele>
        <time>2023-05-18T07:20:27Z</time>
      </trkpt>
      <trkpt lat="50.23652" lon="4.23251">
        <ele>195.694885</ele>
        <time>2023-05-18T07:20:29Z</time>
      </trkpt>
      <trkpt lat="50.23655" lon="4.2325">
        <ele>195.968109</ele>
        <time>2023-05-18T07:20:31Z</time>
      </trkpt>
      <trkpt lat="50.23662" lon="4.23247">
        <ele>196.347778</ele>
        <time>2023-05-18T07:20:33Z</time>
      </trkpt>
      <trkpt lat="50.23667" lon="4.23244">
        <ele>196.851135</ele>
        <time>2023-05-18T07:20:35Z</time>
      </trkpt>
      <trkpt lat="50.23674" lon="4.23241">
        <ele>197.01535</ele>
        <time>2023-05-18T07:20:37Z</time>
      </trkpt>
      <trkpt lat="50.23684" lon="4.23238">
        <ele>197.320053</ele>
        <time>2023-05-18T07:20:39Z</time>
      </trkpt>
      <trkpt lat="50.23695" lon="4.23237">
        <ele>197.374283</ele>
        <time>2023-05-18T07:20:41Z</time>
      </trkpt>
      <trkpt lat="50.23706" lon="4.23236">
        <ele>197.590103</ele>
        <time>2023-05-18T07:20:43Z</time>
      </trkpt>
      <trkpt lat="50.23718" lon="4.23232">
        <ele>197.829987</ele>
        <time>2023-05-18T07:20:45Z</time>
      </trkpt>
      <trkpt lat="50.23728" lon="4.23234">
        <ele>197.974304</ele>
        <time>2023-05-18T07:20:47Z</time>
      </trkpt>
      <trkpt lat="50.2374" lon="4.23231">
        <ele>198.055649</ele>
        <time>2023-05-18T07:20:49Z</time>
      </trkpt>
      <trkpt lat="50.23753" lon="4.23228">
        <ele>197.986877</ele>
        <time>2023-05-18T07:20:51Z</time>
      </trkpt>
      <trkpt lat="50.23768" lon="4.23228">
        <ele>197.98085</ele>
        <time>2023-05-18T07:20:53Z</time>
      </trkpt>
      <trkpt lat="50.23784" lon="4.23226">
        <ele>197.820251</ele>
        <time>2023-05-18T07:20:55Z</time>
      </trkpt>
      <trkpt lat="50.23799" lon="4.23225">
        <ele>197.659683</ele>
        <time>2023-05-18T07:20:57Z</time>
      </trkpt>
      <trkpt lat="50.23814" lon="4.23227">
        <ele>197.41568</ele>
        <time>2023-05-18T07:20:59Z</time>
      </trkpt>
      <trkpt lat="50.23829" lon="4.23229">
        <ele>197.257797</ele>
        <time>2023-05-18T07:21:01Z</time>
      </trkpt>
      <trkpt lat="50.23841" lon="4.2323">
        <ele>197.038834</ele>
        <time>2023-05-18T07:21:03Z</time>
      </trkpt>
      <trkpt lat="50.2385" lon="4.23228">
        <ele>196.641144</ele>
        <time>2023-05-18T07:21:05Z</time>
      </trkpt>
      <trkpt lat="50.23858" lon="4.23226">
        <ele>196.405487</ele>
        <time>2023-05-18T07:21:07Z</time>
      </trkpt>
      <trkpt lat="50.23863" lon="4.23224">
        <ele>195.94046</ele>
        <time>2023-05-18T07:21:09Z</time>
      </trkpt>
      <trkpt lat="50.23867" lon="4.2322">
        <ele>195.408722</ele>
        <time>2023-05-18T07:21:11Z</time>
      </trkpt>
      <trkpt lat="50.23867" lon="4.23218">
        <ele>194.85408</ele>
        <time>2023-05-18T07:21:13Z</time>
      </trkpt>
      <trkpt lat="50.23868" lon="4.23216">
        <ele>194.124207</ele>
        <time>2023-05-18T07:21:15Z</time>
      </trkpt>
      <trkpt lat="50.2387" lon="4.23209">
        <ele>193.302475</ele>
        <time>2023-05-18T07:21:17Z</time>
      </trkpt>
      <trkpt lat="50.23869" lon="4.23202">
        <ele>192.724945</ele>
        <time>2023-05-18T07:21:19Z</time>
      </trkpt>
      <trkpt lat="50.23867" lon="4.23195">
        <ele>191.903336</ele>
        <time>2023-05-18T07:21:21Z</time>
      </trkpt>
      <trkpt lat="50.23863" lon="4.2319">
        <ele>191.18309</ele>
        <time>2023-05-18T07:21:23Z</time>
      </trkpt>
      <trkpt lat="50.2386" lon="4.23183">
        <ele>190.357468</ele>
        <time>2023-05-18T07:21:25Z</time>
      </trkpt>
      <trkpt lat="50.23855" lon="4.23176">
        <ele>189.623276</ele>
        <time>2023-05-18T07:21:27Z</time>
      </trkpt>
      <trkpt lat="50.23854" lon="4.23169">
        <ele>188.931229</ele>
        <time>2023-05-18T07:21:29Z</time>
      </trkpt>
      <trkpt lat="50.23851" lon="4.23166">
        <ele>188.270493</ele>
        <time>2023-05-18T07:21:31Z</time>
      </trkpt>
      <trkpt lat="50.23847" lon="4.23162">
        <ele>187.726974</ele>
        <time>2023-05-18T07:21:33Z</time>
      </trkpt>
      <trkpt lat="50.23844" lon="4.23157">
        <ele>187.057709</ele>
        <time>2023-05-18T07:21:35Z</time>
      </trkpt>
      <trkpt lat="50.23843" lon="4.23155">
        <ele>186.442856</ele>
        <time>2023-05-18T07:21:37Z</time>
      </trkpt>
      <trkpt lat="50.23841" lon="4.2315">
        <ele>186.194855</ele>
        <time>2023-05-18T07:21:39Z</time>
      </trkpt>
      <trkpt lat="50.23838" lon="4.23148">
        <ele>185.70932</ele>
        <time>2023-05-18T07:21:41Z</time>
      </trkpt>
      <trkpt lat="50.23835" lon="4.23144">
        <ele>185.075806</ele>
        <time>2023-05-18T07:21:43Z</time>
      </trkpt>
      <trkpt lat="50.23832" lon="4.23142">
        <ele>184.556305</ele>
        <time>2023-05-18T07:21:45Z</time>
      </trkpt>
      <trkpt lat="50.23829" lon="4.23139">
        <ele>184.139572</ele>
        <time>2023-05-18T07:21:47Z</time>
      </trkpt>
      <trkpt lat="50.23824" lon="4.23138">
        <ele>183.737411</ele>
        <time>2023-05-18T07:21:49Z</time>
      </trkpt>
      <trkpt lat="50.23821" lon="4.23135">
        <ele>183.389465</ele>
        <time>2023-05-18T07:21:51Z</time>
      </trkpt>
      <trkpt lat="50.23815" lon="4.23133">
        <ele>183.10611</ele>
        <time>2023-05-18T07:21:53Z</time>
      </trkpt>
      <trkpt lat="50.23812" lon="4.23129">
        <ele>182.851944</ele>
        <time>2023-05-18T07:21:55Z</time>
      </trkpt>
      <trkpt lat="50.23808" lon="4.23125">
        <ele>182.532562</ele>
        <time>2023-05-18T07:21:57Z</time>
      </trkpt>
      <trkpt lat="50.23803" lon="4.23122">
        <ele>182.218002</ele>
        <time>2023-05-18T07:21:59Z</time>
      </trkpt>
      <trkpt lat="50.23798" lon="4.2312">
        <ele>182.040924</ele>
        <time>2023-05-18T07:22:01Z</time>
      </trkpt>
      <trkpt lat="50.23794" lon="4.23116">
        <ele>181.903473</ele>
        <time>2023-05-18T07:22:03Z</time>
      </trkpt>
      <trkpt lat="50.23792" lon="4.23113">
        <ele>181.782654</ele>
        <time>2023-05-18T07:22:05Z</time>
      </trkpt>
      <trkpt lat="50.23789" lon="4.23111">
        <ele>181.58783</ele>
        <time>2023-05-18T07:22:07Z</time>
      </trkpt>
      <trkpt lat="50.23787" lon="4.23109">
        <ele>181.448273</ele>
        <time>2023-05-18T07:22:09Z</time>
      </trkpt>
      <trkpt lat="50.23785" lon="4.2311">
        <ele>181.433685</ele>
        <time>2023-05-18T07:22:11Z</time>
      </trkpt>
      <trkpt lat="50.23784" lon="4.23111">
        <ele>181.292053</ele>
        <time>2023-05-18T07:22:13Z</time>
      </trkpt>
      <trkpt lat="50.23782" lon="4.23111">
        <ele>181.233215</ele>
        <time>2023-05-18T07:22:15Z</time>
      </trkpt>
      <trkpt lat="50.2378" lon="4.23111">
        <ele>181.193634</ele>
        <time>2023-05-18T07:22:17Z</time>
      </trkpt>
      <trkpt lat="50.23769" lon="4.23114">
        <ele>179.733017</ele>
        <time>2023-05-18T07:22:35Z</time>
      </trkpt>
      <trkpt lat="50.23766" lon="4.23116">
        <ele>180.122925</ele>
        <time>2023-05-18T07:22:37Z</time>
      </trkpt>
      <trkpt lat="50.23762" lon="4.23119">
        <ele>179.912613</ele>
        <time>2023-05-18T07:22:39Z</time>
      </trkpt>
      <trkpt lat="50.2376" lon="4.2312">
        <ele>179.798584</ele>
        <time>2023-05-18T07:22:40Z</time>
      </trkpt>
      <trkpt lat="50.23753" lon="4.23123">
        <ele>179.621567</ele>
        <time>2023-05-18T07:22:42Z</time>
      </trkpt>
      <trkpt lat="50.23751" lon="4.23126">
        <ele>179.409195</ele>
        <time>2023-05-18T07:22:44Z</time>
      </trkpt>
      <trkpt lat="50.23748" lon="4.23127">
        <ele>179.250931</ele>
        <time>2023-05-18T07:22:46Z</time>
      </trkpt>
      <trkpt lat="50.23744" lon="4.23129">
        <ele>179.006348</ele>
        <time>2023-05-18T07:22:48Z</time>
      </trkpt>
      <trkpt lat="50.23739" lon="4.23129">
        <ele>178.731506</ele>
        <time>2023-05-18T07:22:50Z</time>
      </trkpt>
      <trkpt lat="50.23732" lon="4.23131">
        <ele>178.49704</ele>
        <time>2023-05-18T07:22:52Z</time>
      </trkpt>
      <trkpt lat="50.23721" lon="4.23132">
        <ele>178.269089</ele>
        <time>2023-05-18T07:22:54Z</time>
      </trkpt>
      <trkpt lat="50.23714" lon="4.23133">
        <ele>178.108749</ele>
        <time>2023-05-18T07:22:55Z</time>
      </trkpt>
      <trkpt lat="50.23698" lon="4.23133">
        <ele>177.792282</ele>
        <time>2023-05-18T07:22:57Z</time>
      </trkpt>
      <trkpt lat="50.23685" lon="4.23133">
        <ele>177.311111</ele>
        <time>2023-05-18T07:22:59Z</time>
      </trkpt>
      <trkpt lat="50.23653" lon="4.23127">
        <ele>176.921814</ele>
        <time>2023-05-18T07:23:01Z</time>
      </trkpt>
      <trkpt lat="50.23634" lon="4.23119">
        <ele>176.549164</ele>
        <time>2023-05-18T07:23:03Z</time>
      </trkpt>
      <trkpt lat="50.23621" lon="4.23116">
        <ele>176.083038</ele>
        <time>2023-05-18T07:23:05Z</time>
      </trkpt>
      <trkpt lat="50.23614" lon="4.23108">
        <ele>175.876938</ele>
        <time>2023-05-18T07:23:07Z</time>
      </trkpt>
      <trkpt lat="50.23608" lon="4.23101">
        <ele>175.443985</ele>
        <time>2023-05-18T07:23:09Z</time>
      </trkpt>
      <trkpt lat="50.23606" lon="4.23094">
        <ele>175.074402</ele>
        <time>2023-05-18T07:23:11Z</time>
      </trkpt>
      <trkpt lat="50.23603" lon="4.23087">
        <ele>174.658539</ele>
        <time>2023-05-18T07:23:13Z</time>
      </trkpt>
      <trkpt lat="50.23603" lon="4.23083">
        <ele>174.517014</ele>
        <time>2023-05-18T07:23:14Z</time>
      </trkpt>
      <trkpt lat="50.23602" lon="4.23076">
        <ele>174.549515</ele>
        <time>2023-05-18T07:23:16Z</time>
      </trkpt>
      <trkpt lat="50.23599" lon="4.23065">
        <ele>173.501801</ele>
        <time>2023-05-18T07:23:19Z</time>
      </trkpt>
      <trkpt lat="50.23595" lon="4.23061">
        <ele>173.202423</ele>
        <time>2023-05-18T07:23:21Z</time>
      </trkpt>
      <trkpt lat="50.23591" lon="4.23057">
        <ele>172.865219</ele>
        <time>2023-05-18T07:23:23Z</time>
      </trkpt>
      <trkpt lat="50.23587" lon="4.23052">
        <ele>172.607147</ele>
        <time>2023-05-18T07:23:25Z</time>
      </trkpt>
      <trkpt lat="50.23586" lon="4.23047">
        <ele>172.484329</ele>
        <time>2023-05-18T07:23:27Z</time>
      </trkpt>
      <trkpt lat="50.23583" lon="4.23041">
        <ele>172.14502</ele>
        <time>2023-05-18T07:23:29Z</time>
      </trkpt>
      <trkpt lat="50.2358" lon="4.23036">
        <ele>172.030563</ele>
        <time>2023-05-18T07:23:31Z</time>
      </trkpt>
      <trkpt lat="50.23576" lon="4.23032">
        <ele>171.837006</ele>
        <time>2023-05-18T07:23:33Z</time>
      </trkpt>
      <trkpt lat="50.23573" lon="4.23027">
        <ele>171.663406</ele>
        <time>2023-05-18T07:23:35Z</time>
      </trkpt>
      <trkpt lat="50.23571" lon="4.23022">
        <ele>171.443802</ele>
        <time>2023-05-18T07:23:37Z</time>
      </trkpt>
      <trkpt lat="50.23568" lon="4.23016">
        <ele>171.341843</ele>
        <time>2023-05-18T07:23:39Z</time>
      </trkpt>
      <trkpt lat="50.23565" lon="4.2301">
        <ele>171.46077</ele>
        <time>2023-05-18T07:23:41Z</time>
      </trkpt>
      <trkpt lat="50.23565" lon="4.23004">
        <ele>171.49614</ele>
        <time>2023-05-18T07:23:43Z</time>
      </trkpt>
      <trkpt lat="50.23564" lon="4.22998">
        <ele>171.558563</ele>
        <time>2023-05-18T07:23:45Z</time>
      </trkpt>
      <trkpt lat="50.23565" lon="4.22991">
        <ele>171.681351</ele>
        <time>2023-05-18T07:23:47Z</time>
      </trkpt>
      <trkpt lat="50.23565" lon="4.22984">
        <ele>171.809448</ele>
        <time>2023-05-18T07:23:49Z</time>
      </trkpt>
      <trkpt lat="50.23565" lon="4.22978">
        <ele>171.92598</ele>
        <time>2023-05-18T07:23:51Z</time>
      </trkpt>
      <trkpt lat="50.23566" lon="4.22974">
        <ele>171.974976</ele>
        <time>2023-05-18T07:23:52Z</time>
      </trkpt>
      <trkpt lat="50.23566" lon="4.22968">
        <ele>172.149323</ele>
        <time>2023-05-18T07:23:54Z</time>
      </trkpt>
      <trkpt lat="50.23568" lon="4.22962">
        <ele>172.355347</ele>
        <time>2023-05-18T07:23:56Z</time>
      </trkpt>
      <trkpt lat="50.2357" lon="4.22956">
        <ele>172.575943</ele>
        <time>2023-05-18T07:23:58Z</time>
      </trkpt>
      <trkpt lat="50.23573" lon="4.22951">
        <ele>172.747894</ele>
        <time>2023-05-18T07:24:00Z</time>
      </trkpt>
      <trkpt lat="50.23576" lon="4.22945">
        <ele>172.947357</ele>
        <time>2023-05-18T07:24:02Z</time>
      </trkpt>
      <trkpt lat="50.2358" lon="4.22941">
        <ele>173.007721</ele>
        <time>2023-05-18T07:24:04Z</time>
      </trkpt>
      <trkpt lat="50.23584" lon="4.22937">
        <ele>173.217926</ele>
        <time>2023-05-18T07:24:06Z</time>
      </trkpt>
      <trkpt lat="50.23588" lon="4.22933">
        <ele>173.396896</ele>
        <time>2023-05-18T07:24:08Z</time>
      </trkpt>
      <trkpt lat="50.23591" lon="4.22929">
        <ele>173.580048</ele>
        <time>2023-05-18T07:24:10Z</time>
      </trkpt>
      <trkpt lat="50.23595" lon="4.22926">
        <ele>173.791718</ele>
        <time>2023-05-18T07:24:12Z</time>
      </trkpt>
      <trkpt lat="50.23597" lon="4.22924">
        <ele>173.893967</ele>
        <time>2023-05-18T07:24:13Z</time>
      </trkpt>
      <trkpt lat="50.236" lon="4.22919">
        <ele>174.122162</ele>
        <time>2023-05-18T07:24:15Z</time>
      </trkpt>
      <trkpt lat="50.23603" lon="4.22913">
        <ele>174.37471</ele>
        <time>2023-05-18T07:24:17Z</time>
      </trkpt>
      <trkpt lat="50.23607" lon="4.22907">
        <ele>174.605423</ele>
        <time>2023-05-18T07:24:19Z</time>
      </trkpt>
      <trkpt lat="50.2361" lon="4.22901">
        <ele>174.878098</ele>
        <time>2023-05-18T07:24:21Z</time>
      </trkpt>
      <trkpt lat="50.23613" lon="4.22895">
        <ele>175.111252</ele>
        <time>2023-05-18T07:24:23Z</time>
      </trkpt>
      <trkpt lat="50.23616" lon="4.22889">
        <ele>175.30069</ele>
        <time>2023-05-18T07:24:25Z</time>
      </trkpt>
      <trkpt lat="50.2362" lon="4.22883">
        <ele>175.598389</ele>
        <time>2023-05-18T07:24:27Z</time>
      </trkpt>
      <trkpt lat="50.23624" lon="4.22875">
        <ele>175.835724</ele>
        <time>2023-05-18T07:24:29Z</time>
      </trkpt>
      <trkpt lat="50.23628" lon="4.22869">
        <ele>176.088531</ele>
        <time>2023-05-18T07:24:31Z</time>
      </trkpt>
      <trkpt lat="50.23631" lon="4.22861">
        <ele>176.423737</ele>
        <time>2023-05-18T07:24:33Z</time>
      </trkpt>
      <trkpt lat="50.23635" lon="4.22855">
        <ele>176.163879</ele>
        <time>2023-05-18T07:24:35Z</time>
      </trkpt>
      <trkpt lat="50.23638" lon="4.22848">
        <ele>176.463684</ele>
        <time>2023-05-18T07:24:37Z</time>
      </trkpt>
      <trkpt lat="50.23641" lon="4.2284">
        <ele>176.60527</ele>
        <time>2023-05-18T07:24:39Z</time>
      </trkpt>
      <trkpt lat="50.23644" lon="4.22832">
        <ele>176.87178</ele>
        <time>2023-05-18T07:24:41Z</time>
      </trkpt>
      <trkpt lat="50.23647" lon="4.22823">
        <ele>176.666885</ele>
        <time>2023-05-18T07:24:43Z</time>
      </trkpt>
      <trkpt lat="50.2365" lon="4.22814">
        <ele>176.983368</ele>
        <time>2023-05-18T07:24:45Z</time>
      </trkpt>
      <trkpt lat="50.23653" lon="4.22804">
        <ele>177.26236</ele>
        <time>2023-05-18T07:24:47Z</time>
      </trkpt>
      <trkpt lat="50.23655" lon="4.22795">
        <ele>177.618393</ele>
        <time>2023-05-18T07:24:49Z</time>
      </trkpt>
      <trkpt lat="50.23657" lon="4.22786">
        <ele>177.901581</ele>
        <time>2023-05-18T07:24:51Z</time>
      </trkpt>
      <trkpt lat="50.23659" lon="4.22776">
        <ele>178.277039</ele>
        <time>2023-05-18T07:24:53Z</time>
      </trkpt>
      <trkpt lat="50.23661" lon="4.22767">
        <ele>178.065704</ele>
        <time>2023-05-18T07:24:55Z</time>
      </trkpt>
      <trkpt lat="50.23662" lon="4.22759">
        <ele>178.303085</ele>
        <time>2023-05-18T07:24:57Z</time>
      </trkpt>
      <trkpt lat="50.23663" lon="4.22751">
        <ele>178.596619</ele>
        <time>2023-05-18T07:24:59Z</time>
      </trkpt>
      <trkpt lat="50.23661" lon="4.22743">
        <ele>178.83403</ele>
        <time>2023-05-18T07:25:01Z</time>
      </trkpt>
      <trkpt lat="50.23657" lon="4.22732">
        <ele>179.096451</ele>
        <time>2023-05-18T07:25:03Z</time>
      </trkpt>
      <trkpt lat="50.23654" lon="4.2272">
        <ele>179.335953</ele>
        <time>2023-05-18T07:25:05Z</time>
      </trkpt>
      <trkpt lat="50.23653" lon="4.22705">
        <ele>179.525208</ele>
        <time>2023-05-18T07:25:07Z</time>
      </trkpt>
      <trkpt lat="50.23651" lon="4.22688">
        <ele>179.695999</ele>
        <time>2023-05-18T07:25:09Z</time>
      </trkpt>
      <trkpt lat="50.23652" lon="4.22667">
        <ele>179.818863</ele>
        <time>2023-05-18T07:25:11Z</time>
      </trkpt>
      <trkpt lat="50.23656" lon="4.22642">
        <ele>179.950043</ele>
        <time>2023-05-18T07:25:13Z</time>
      </trkpt>
      <trkpt lat="50.23661" lon="4.22616">
        <ele>179.996872</ele>
        <time>2023-05-18T07:25:15Z</time>
      </trkpt>
      <trkpt lat="50.23667" lon="4.22589">
        <ele>180.506027</ele>
        <time>2023-05-18T07:25:17Z</time>
      </trkpt>
      <trkpt lat="50.23674" lon="4.22561">
        <ele>180.376923</ele>
        <time>2023-05-18T07:25:19Z</time>
      </trkpt>
      <trkpt lat="50.23681" lon="4.22536">
        <ele>180.297806</ele>
        <time>2023-05-18T07:25:21Z</time>
      </trkpt>
      <trkpt lat="50.23686" lon="4.22511">
        <ele>180.172012</ele>
        <time>2023-05-18T07:25:23Z</time>
      </trkpt>
      <trkpt lat="50.23689" lon="4.22489">
        <ele>180.446381</ele>
        <time>2023-05-18T07:25:25Z</time>
      </trkpt>
      <trkpt lat="50.2369" lon="4.22477">
        <ele>180.267334</ele>
        <time>2023-05-18T07:25:26Z</time>
      </trkpt>
      <trkpt lat="50.23691" lon="4.22453">
        <ele>179.97168</ele>
        <time>2023-05-18T07:25:28Z</time>
      </trkpt>
      <trkpt lat="50.23697" lon="4.22428">
        <ele>179.571945</ele>
        <time>2023-05-18T07:25:30Z</time>
      </trkpt>
      <trkpt lat="50.23707" lon="4.22408">
        <ele>179.292938</ele>
        <time>2023-05-18T07:25:32Z</time>
      </trkpt>
      <trkpt lat="50.23716" lon="4.2239">
        <ele>178.712036</ele>
        <time>2023-05-18T07:25:34Z</time>
      </trkpt>
      <trkpt lat="50.23722" lon="4.22376">
        <ele>178.75531</ele>
        <time>2023-05-18T07:25:36Z</time>
      </trkpt>
      <trkpt lat="50.23728" lon="4.22364">
        <ele>178.303513</ele>
        <time>2023-05-18T07:25:38Z</time>
      </trkpt>
      <trkpt lat="50.23733" lon="4.22353">
        <ele>177.753586</ele>
        <time>2023-05-18T07:25:40Z</time>
      </trkpt>
      <trkpt lat="50.23737" lon="4.22342">
        <ele>177.172729</ele>
        <time>2023-05-18T07:25:42Z</time>
      </trkpt>
      <trkpt lat="50.23742" lon="4.22332">
        <ele>176.625168</ele>
        <time>2023-05-18T07:25:44Z</time>
      </trkpt>
      <trkpt lat="50.23744" lon="4.22327">
        <ele>176.625168</ele>
        <time>2023-05-18T07:25:45Z</time>
      </trkpt>
      <trkpt lat="50.23748" lon="4.22317">
        <ele>176.09082</ele>
        <time>2023-05-18T07:25:47Z</time>
      </trkpt>
      <trkpt lat="50.2375" lon="4.22312">
        <ele>175.812103</ele>
        <time>2023-05-18T07:25:48Z</time>
      </trkpt>
      <trkpt lat="50.23753" lon="4.223">
        <ele>175.271332</ele>
        <time>2023-05-18T07:25:50Z</time>
      </trkpt>
      <trkpt lat="50.23756" lon="4.22288">
        <ele>174.750839</ele>
        <time>2023-05-18T07:25:52Z</time>
      </trkpt>
      <trkpt lat="50.2376" lon="4.22278">
        <ele>174.276184</ele>
        <time>2023-05-18T07:25:54Z</time>
      </trkpt>
      <trkpt lat="50.23763" lon="4.22267">
        <ele>173.78717</ele>
        <time>2023-05-18T07:25:56Z</time>
      </trkpt>
      <trkpt lat="50.23766" lon="4.22256">
        <ele>173.352142</ele>
        <time>2023-05-18T07:25:58Z</time>
      </trkpt>
      <trkpt lat="50.23771" lon="4.22245">
        <ele>172.973343</ele>
        <time>2023-05-18T07:26:00Z</time>
      </trkpt>
      <trkpt lat="50.23776" lon="4.22235">
        <ele>172.586197</ele>
        <time>2023-05-18T07:26:02Z</time>
      </trkpt>
      <trkpt lat="50.23781" lon="4.22222">
        <ele>172.149887</ele>
        <time>2023-05-18T07:26:04Z</time>
      </trkpt>
      <trkpt lat="50.23787" lon="4.22207">
        <ele>171.879349</ele>
        <time>2023-05-18T07:26:06Z</time>
      </trkpt>
      <trkpt lat="50.23793" lon="4.2219">
        <ele>171.700363</ele>
        <time>2023-05-18T07:26:08Z</time>
      </trkpt>
      <trkpt lat="50.23798" lon="4.22171">
        <ele>171.471466</ele>
        <time>2023-05-18T07:26:10Z</time>
      </trkpt>
      <trkpt lat="50.23801" lon="4.22153">
        <ele>171.21965</ele>
        <time>2023-05-18T07:26:12Z</time>
      </trkpt>
      <trkpt lat="50.23805" lon="4.22135">
        <ele>171.061493</ele>
        <time>2023-05-18T07:26:14Z</time>
      </trkpt>
      <trkpt lat="50.23807" lon="4.22116">
        <ele>170.843033</ele>
        <time>2023-05-18T07:26:16Z</time>
      </trkpt>
      <trkpt lat="50.23809" lon="4.22098">
        <ele>170.759964</ele>
        <time>2023-05-18T07:26:18Z</time>
      </trkpt>
      <trkpt lat="50.23813" lon="4.22082">
        <ele>170.55191</ele>
        <time>2023-05-18T07:26:20Z</time>
      </trkpt>
      <trkpt lat="50.23815" lon="4.22065">
        <ele>170.345932</ele>
        <time>2023-05-18T07:26:22Z</time>
      </trkpt>
      <trkpt lat="50.2382" lon="4.22049">
        <ele>170.241241</ele>
        <time>2023-05-18T07:26:24Z</time>
      </trkpt>
      <trkpt lat="50.23825" lon="4.22033">
        <ele>170.070038</ele>
        <time>2023-05-18T07:26:26Z</time>
      </trkpt>
      <trkpt lat="50.23831" lon="4.22016">
        <ele>169.88205</ele>
        <time>2023-05-18T07:26:28Z</time>
      </trkpt>
      <trkpt lat="50.23836" lon="4.21999">
        <ele>169.636032</ele>
        <time>2023-05-18T07:26:30Z</time>
      </trkpt>
      <trkpt lat="50.23841" lon="4.21981">
        <ele>169.459183</ele>
        <time>2023-05-18T07:26:32Z</time>
      </trkpt>
      <trkpt lat="50.23846" lon="4.21963">
        <ele>169.21579</ele>
        <time>2023-05-18T07:26:34Z</time>
      </trkpt>
      <trkpt lat="50.23849" lon="4.21945">
        <ele>168.973221</ele>
        <time>2023-05-18T07:26:36Z</time>
      </trkpt>
      <trkpt lat="50.2385" lon="4.21936">
        <ele>168.921204</ele>
        <time>2023-05-18T07:26:37Z</time>
      </trkpt>
      <trkpt lat="50.23851" lon="4.21908">
        <ele>168.63028</ele>
        <time>2023-05-18T07:26:40Z</time>
      </trkpt>
      <trkpt lat="50.23852" lon="4.21898">
        <ele>168.480499</ele>
        <time>2023-05-18T07:26:41Z</time>
      </trkpt>
      <trkpt lat="50.23852" lon="4.2188">
        <ele>168.277847</ele>
        <time>2023-05-18T07:26:43Z</time>
      </trkpt>
      <trkpt lat="50.23853" lon="4.21862">
        <ele>168.015747</ele>
        <time>2023-05-18T07:26:45Z</time>
      </trkpt>
      <trkpt lat="50.23854" lon="4.21844">
        <ele>167.895111</ele>
        <time>2023-05-18T07:26:47Z</time>
      </trkpt>
      <trkpt lat="50.23855" lon="4.21826">
        <ele>167.675797</ele>
        <time>2023-05-18T07:26:49Z</time>
      </trkpt>
      <trkpt lat="50.23856" lon="4.21809">
        <ele>167.609222</ele>
        <time>2023-05-18T07:26:51Z</time>
      </trkpt>
      <trkpt lat="50.23858" lon="4.21791">
        <ele>167.428253</ele>
        <time>2023-05-18T07:26:53Z</time>
      </trkpt>
      <trkpt lat="50.23859" lon="4.21774">
        <ele>167.157181</ele>
        <time>2023-05-18T07:26:55Z</time>
      </trkpt>
      <trkpt lat="50.23859" lon="4.21757">
        <ele>166.973541</ele>
        <time>2023-05-18T07:26:57Z</time>
      </trkpt>
      <trkpt lat="50.23861" lon="4.21741">
        <ele>166.71962</ele>
        <time>2023-05-18T07:26:59Z</time>
      </trkpt>
      <trkpt lat="50.23862" lon="4.21725">
        <ele>166.554718</ele>
        <time>2023-05-18T07:27:01Z</time>
      </trkpt>
      <trkpt lat="50.23863" lon="4.2171">
        <ele>166.429916</ele>
        <time>2023-05-18T07:27:03Z</time>
      </trkpt>
      <trkpt lat="50.23864" lon="4.21693">
        <ele>166.274612</ele>
        <time>2023-05-18T07:27:05Z</time>
      </trkpt>
      <trkpt lat="50.23864" lon="4.21679">
        <ele>166.133759</ele>
        <time>2023-05-18T07:27:07Z</time>
      </trkpt>
      <trkpt lat="50.23865" lon="4.21665">
        <ele>165.925781</ele>
        <time>2023-05-18T07:27:09Z</time>
      </trkpt>
      <trkpt lat="50.23862" lon="4.2165">
        <ele>165.857147</ele>
        <time>2023-05-18T07:27:11Z</time>
      </trkpt>
      <trkpt lat="50.23858" lon="4.21636">
        <ele>165.699066</ele>
        <time>2023-05-18T07:27:13Z</time>
      </trkpt>
      <trkpt lat="50.23852" lon="4.21625">
        <ele>165.626282</ele>
        <time>2023-05-18T07:27:15Z</time>
      </trkpt>
      <trkpt lat="50.23848" lon="4.21611">
        <ele>165.522293</ele>
        <time>2023-05-18T07:27:17Z</time>
      </trkpt>
      <trkpt lat="50.23846" lon="4.21595">
        <ele>165.351761</ele>
        <time>2023-05-18T07:27:19Z</time>
      </trkpt>
      <trkpt lat="50.23845" lon="4.21577">
        <ele>165.212585</ele>
        <time>2023-05-18T07:27:21Z</time>
      </trkpt>
      <trkpt lat="50.23844" lon="4.2156">
        <ele>165.150192</ele>
        <time>2023-05-18T07:27:23Z</time>
      </trkpt>
      <trkpt lat="50.23843" lon="4.21544">
        <ele>165.088669</ele>
        <time>2023-05-18T07:27:25Z</time>
      </trkpt>
      <trkpt lat="50.23842" lon="4.21528">
        <ele>165.026276</ele>
        <time>2023-05-18T07:27:27Z</time>
      </trkpt>
      <trkpt lat="50.2384" lon="4.21514">
        <ele>164.855743</ele>
        <time>2023-05-18T07:27:29Z</time>
      </trkpt>
      <trkpt lat="50.23838" lon="4.215">
        <ele>164.773438</ele>
        <time>2023-05-18T07:27:31Z</time>
      </trkpt>
      <trkpt lat="50.23838" lon="4.21485">
        <ele>164.704803</ele>
        <time>2023-05-18T07:27:33Z</time>
      </trkpt>
      <trkpt lat="50.23837" lon="4.2147">
        <ele>164.613968</ele>
        <time>2023-05-18T07:27:35Z</time>
      </trkpt>
      <trkpt lat="50.23837" lon="4.21463">
        <ele>164.649323</ele>
        <time>2023-05-18T07:27:36Z</time>
      </trkpt>
      <trkpt lat="50.23838" lon="4.21447">
        <ele>164.624969</ele>
        <time>2023-05-18T07:27:38Z</time>
      </trkpt>
      <trkpt lat="50.2384" lon="4.21431">
        <ele>164.662399</ele>
        <time>2023-05-18T07:27:40Z</time>
      </trkpt>
      <trkpt lat="50.23842" lon="4.21416">
        <ele>164.679642</ele>
        <time>2023-05-18T07:27:42Z</time>
      </trkpt>
      <trkpt lat="50.23843" lon="4.21402">
        <ele>164.737869</ele>
        <time>2023-05-18T07:27:44Z</time>
      </trkpt>
      <trkpt lat="50.23844" lon="4.21387">
        <ele>164.721237</ele>
        <time>2023-05-18T07:27:46Z</time>
      </trkpt>
      <trkpt lat="50.23846" lon="4.21373">
        <ele>164.729538</ele>
        <time>2023-05-18T07:27:48Z</time>
      </trkpt>
      <trkpt lat="50.23847" lon="4.21359">
        <ele>164.875122</ele>
        <time>2023-05-18T07:27:50Z</time>
      </trkpt>
      <trkpt lat="50.23848" lon="4.21344">
        <ele>164.901291</ele>
        <time>2023-05-18T07:27:52Z</time>
      </trkpt>
      <trkpt lat="50.23849" lon="4.2133">
        <ele>164.932327</ele>
        <time>2023-05-18T07:27:54Z</time>
      </trkpt>
      <trkpt lat="50.2385" lon="4.21315">
        <ele>165.028</ele>
        <time>2023-05-18T07:27:56Z</time>
      </trkpt>
      <trkpt lat="50.2385" lon="4.213">
        <ele>165.104935</ele>
        <time>2023-05-18T07:27:58Z</time>
      </trkpt>
      <trkpt lat="50.23851" lon="4.21285">
        <ele>165.222458</ele>
        <time>2023-05-18T07:28:00Z</time>
      </trkpt>
      <trkpt lat="50.23851" lon="4.21269">
        <ele>165.274445</ele>
        <time>2023-05-18T07:28:02Z</time>
      </trkpt>
      <trkpt lat="50.23851" lon="4.21252">
        <ele>165.41217</ele>
        <time>2023-05-18T07:28:04Z</time>
      </trkpt>
      <trkpt lat="50.23851" lon="4.21235">
        <ele>165.528427</ele>
        <time>2023-05-18T07:28:06Z</time>
      </trkpt>
      <trkpt lat="50.23851" lon="4.21226">
        <ele>165.570023</ele>
        <time>2023-05-18T07:28:07Z</time>
      </trkpt>
      <trkpt lat="50.23851" lon="4.21207">
        <ele>165.69046</ele>
        <time>2023-05-18T07:28:09Z</time>
      </trkpt>
      <trkpt lat="50.23852" lon="4.21188">
        <ele>165.820557</ele>
        <time>2023-05-18T07:28:11Z</time>
      </trkpt>
      <trkpt lat="50.23852" lon="4.21167">
        <ele>165.876709</ele>
        <time>2023-05-18T07:28:13Z</time>
      </trkpt>
      <trkpt lat="50.23852" lon="4.21156">
        <ele>165.868393</ele>
        <time>2023-05-18T07:28:14Z</time>
      </trkpt>
      <trkpt lat="50.23853" lon="4.21133">
        <ele>165.941452</ele>
        <time>2023-05-18T07:28:16Z</time>
      </trkpt>
      <trkpt lat="50.23854" lon="4.2111">
        <ele>166.006821</ele>
        <time>2023-05-18T07:28:18Z</time>
      </trkpt>
      <trkpt lat="50.23856" lon="4.21086">
        <ele>166.048416</ele>
        <time>2023-05-18T07:28:20Z</time>
      </trkpt>
      <trkpt lat="50.23858" lon="4.21062">
        <ele>166.048416</ele>
        <time>2023-05-18T07:28:22Z</time>
      </trkpt>
      <trkpt lat="50.23861" lon="4.21037">
        <ele>166.021378</ele>
        <time>2023-05-18T07:28:24Z</time>
      </trkpt>
      <trkpt lat="50.23864" lon="4.21012">
        <ele>165.969391</ele>
        <time>2023-05-18T07:28:26Z</time>
      </trkpt>
      <trkpt lat="50.23866" lon="4.20999">
        <ele>165.942352</ele>
        <time>2023-05-18T07:28:27Z</time>
      </trkpt>
      <trkpt lat="50.23869" lon="4.20973">
        <ele>165.84462</ele>
        <time>2023-05-18T07:28:29Z</time>
      </trkpt>
      <trkpt lat="50.23875" lon="4.20948">
        <ele>165.661621</ele>
        <time>2023-05-18T07:28:31Z</time>
      </trkpt>
      <trkpt lat="50.2388" lon="4.20923">
        <ele>165.598007</ele>
        <time>2023-05-18T07:28:33Z</time>
      </trkpt>
      <trkpt lat="50.23885" lon="4.209">
        <ele>165.505707</ele>
        <time>2023-05-18T07:28:35Z</time>
      </trkpt>
      <trkpt lat="50.23888" lon="4.20879">
        <ele>165.338486</ele>
        <time>2023-05-18T07:28:37Z</time>
      </trkpt>
      <trkpt lat="50.2389" lon="4.20859">
        <ele>165.16333</ele>
        <time>2023-05-18T07:28:39Z</time>
      </trkpt>
      <trkpt lat="50.23893" lon="4.20839">
        <ele>164.92836</ele>
        <time>2023-05-18T07:28:41Z</time>
      </trkpt>
      <trkpt lat="50.239" lon="4.20821">
        <ele>164.629974</ele>
        <time>2023-05-18T07:28:43Z</time>
      </trkpt>
      <trkpt lat="50.23908" lon="4.20804">
        <ele>164.381592</ele>
        <time>2023-05-18T07:28:45Z</time>
      </trkpt>
      <trkpt lat="50.23916" lon="4.20787">
        <ele>164.024185</ele>
        <time>2023-05-18T07:28:47Z</time>
      </trkpt>
      <trkpt lat="50.23922" lon="4.20771">
        <ele>163.708313</ele>
        <time>2023-05-18T07:28:49Z</time>
      </trkpt>
      <trkpt lat="50.23928" lon="4.20756">
        <ele>163.369415</ele>
        <time>2023-05-18T07:28:51Z</time>
      </trkpt>
      <trkpt lat="50.23934" lon="4.20742">
        <ele>163.118744</ele>
        <time>2023-05-18T07:28:53Z</time>
      </trkpt>
      <trkpt lat="50.23941" lon="4.20727">
        <ele>162.981232</ele>
        <time>2023-05-18T07:28:55Z</time>
      </trkpt>
      <trkpt lat="50.23946" lon="4.20713">
        <ele>162.70668</ele>
        <time>2023-05-18T07:28:57Z</time>
      </trkpt>
      <trkpt lat="50.23954" lon="4.207">
        <ele>162.38858</ele>
        <time>2023-05-18T07:28:59Z</time>
      </trkpt>
      <trkpt lat="50.23962" lon="4.2069">
        <ele>162.046707</ele>
        <time>2023-05-18T07:29:01Z</time>
      </trkpt>
      <trkpt lat="50.2397" lon="4.2068">
        <ele>161.786362</ele>
        <time>2023-05-18T07:29:03Z</time>
      </trkpt>
      <trkpt lat="50.23978" lon="4.20669">
        <ele>161.470367</ele>
        <time>2023-05-18T07:29:05Z</time>
      </trkpt>
      <trkpt lat="50.23985" lon="4.20658">
        <ele>161.149002</ele>
        <time>2023-05-18T07:29:07Z</time>
      </trkpt>
      <trkpt lat="50.23993" lon="4.20648">
        <ele>160.81015</ele>
        <time>2023-05-18T07:29:09Z</time>
      </trkpt>
      <trkpt lat="50.23997" lon="4.20635">
        <ele>160.465118</ele>
        <time>2023-05-18T07:29:11Z</time>
      </trkpt>
      <trkpt lat="50.24" lon="4.2062">
        <ele>160.766922</ele>
        <time>2023-05-18T07:29:13Z</time>
      </trkpt>
      <trkpt lat="50.24004" lon="4.20604">
        <ele>160.510132</ele>
        <time>2023-05-18T07:29:15Z</time>
      </trkpt>
      <trkpt lat="50.24009" lon="4.20593">
        <ele>160.316803</ele>
        <time>2023-05-18T07:29:17Z</time>
      </trkpt>
      <trkpt lat="50.24013" lon="4.20584">
        <ele>160.10733</ele>
        <time>2023-05-18T07:29:19Z</time>
      </trkpt>
      <trkpt lat="50.24017" lon="4.20573">
        <ele>159.951935</ele>
        <time>2023-05-18T07:29:21Z</time>
      </trkpt>
      <trkpt lat="50.24018" lon="4.20562">
        <ele>159.673416</ele>
        <time>2023-05-18T07:29:23Z</time>
      </trkpt>
      <trkpt lat="50.24017" lon="4.2055">
        <ele>159.686646</ele>
        <time>2023-05-18T07:29:25Z</time>
      </trkpt>
      <trkpt lat="50.24017" lon="4.20535">
        <ele>159.412781</ele>
        <time>2023-05-18T07:29:27Z</time>
      </trkpt>
      <trkpt lat="50.24017" lon="4.20524">
        <ele>159.464752</ele>
        <time>2023-05-18T07:29:29Z</time>
      </trkpt>
      <trkpt lat="50.24019" lon="4.2051">
        <ele>159.408646</ele>
        <time>2023-05-18T07:29:31Z</time>
      </trkpt>
      <trkpt lat="50.2402" lon="4.20502">
        <ele>159.2341</ele>
        <time>2023-05-18T07:29:32Z</time>
      </trkpt>
      <trkpt lat="50.2402" lon="4.2049">
        <ele>159.62114</ele>
        <time>2023-05-18T07:29:34Z</time>
      </trkpt>
      <trkpt lat="50.2402" lon="4.20479">
        <ele>159.451004</ele>
        <time>2023-05-18T07:29:36Z</time>
      </trkpt>
      <trkpt lat="50.24026" lon="4.20467">
        <ele>159.349014</ele>
        <time>2023-05-18T07:29:38Z</time>
      </trkpt>
      <trkpt lat="50.24031" lon="4.20454">
        <ele>159.233368</ele>
        <time>2023-05-18T07:29:40Z</time>
      </trkpt>
      <trkpt lat="50.24036" lon="4.2044">
        <ele>159.283524</ele>
        <time>2023-05-18T07:29:42Z</time>
      </trkpt>
      <trkpt lat="50.2404" lon="4.20428">
        <ele>159.756256</ele>
        <time>2023-05-18T07:29:44Z</time>
      </trkpt>
      <trkpt lat="50.24041" lon="4.20415">
        <ele>159.741714</ele>
        <time>2023-05-18T07:29:46Z</time>
      </trkpt>
      <trkpt lat="50.24037" lon="4.20403">
        <ele>159.813599</ele>
        <time>2023-05-18T07:29:48Z</time>
      </trkpt>
      <trkpt lat="50.24034" lon="4.20388">
        <ele>159.908188</ele>
        <time>2023-05-18T07:29:50Z</time>
      </trkpt>
      <trkpt lat="50.24036" lon="4.2037">
        <ele>160.519684</ele>
        <time>2023-05-18T07:29:52Z</time>
      </trkpt>
      <trkpt lat="50.24035" lon="4.20354">
        <ele>160.020813</ele>
        <time>2023-05-18T07:29:54Z</time>
      </trkpt>
      <trkpt lat="50.24032" lon="4.20339">
        <ele>160.002106</ele>
        <time>2023-05-18T07:29:56Z</time>
      </trkpt>
      <trkpt lat="50.24028" lon="4.20323">
        <ele>160.060303</ele>
        <time>2023-05-18T07:29:58Z</time>
      </trkpt>
      <trkpt lat="50.24028" lon="4.20308">
        <ele>159.504242</ele>
        <time>2023-05-18T07:30:00Z</time>
      </trkpt>
      <trkpt lat="50.24023" lon="4.20296">
        <ele>159.556183</ele>
        <time>2023-05-18T07:30:02Z</time>
      </trkpt>
      <trkpt lat="50.24023" lon="4.2028">
        <ele>159.593597</ele>
        <time>2023-05-18T07:30:04Z</time>
      </trkpt>
      <trkpt lat="50.24024" lon="4.20262">
        <ele>159.542328</ele>
        <time>2023-05-18T07:30:06Z</time>
      </trkpt>
      <trkpt lat="50.24023" lon="4.20249">
        <ele>160.220322</ele>
        <time>2023-05-18T07:30:08Z</time>
      </trkpt>
      <trkpt lat="50.24023" lon="4.20235">
        <ele>160.058197</ele>
        <time>2023-05-18T07:30:10Z</time>
      </trkpt>
      <trkpt lat="50.24024" lon="4.20224">
        <ele>160.045074</ele>
        <time>2023-05-18T07:30:12Z</time>
      </trkpt>
      <trkpt lat="50.24022" lon="4.20212">
        <ele>160.733444</ele>
        <time>2023-05-18T07:30:14Z</time>
      </trkpt>
      <trkpt lat="50.24022" lon="4.20199">
        <ele>160.739685</ele>
        <time>2023-05-18T07:30:16Z</time>
      </trkpt>
      <trkpt lat="50.24023" lon="4.20183">
        <ele>160.208206</ele>
        <time>2023-05-18T07:30:18Z</time>
      </trkpt>
      <trkpt lat="50.24024" lon="4.2017">
        <ele>160.268448</ele>
        <time>2023-05-18T07:30:20Z</time>
      </trkpt>
      <trkpt lat="50.24027" lon="4.20157">
        <ele>160.157578</ele>
        <time>2023-05-18T07:30:22Z</time>
      </trkpt>
      <trkpt lat="50.24028" lon="4.20144">
        <ele>159.556183</ele>
        <time>2023-05-18T07:30:24Z</time>
      </trkpt>
      <trkpt lat="50.24028" lon="4.20128">
        <ele>159.473053</ele>
        <time>2023-05-18T07:30:26Z</time>
      </trkpt>
      <trkpt lat="50.2403" lon="4.20114">
        <ele>159.371231</ele>
        <time>2023-05-18T07:30:28Z</time>
      </trkpt>
      <trkpt lat="50.24033" lon="4.201">
        <ele>159.273544</ele>
        <time>2023-05-18T07:30:30Z</time>
      </trkpt>
      <trkpt lat="50.2404" lon="4.20086">
        <ele>159.208038</ele>
        <time>2023-05-18T07:30:32Z</time>
      </trkpt>
      <trkpt lat="50.24045" lon="4.20071">
        <ele>158.590805</ele>
        <time>2023-05-18T07:30:34Z</time>
      </trkpt>
      <trkpt lat="50.24046" lon="4.20054">
        <ele>158.032288</ele>
        <time>2023-05-18T07:30:36Z</time>
      </trkpt>
      <trkpt lat="50.24048" lon="4.20048">
        <ele>158.063461</ele>
        <time>2023-05-18T07:30:37Z</time>
      </trkpt>
      <trkpt lat="50.24051" lon="4.20033">
        <ele>158.497284</ele>
        <time>2023-05-18T07:30:40Z</time>
      </trkpt>
      <trkpt lat="50.24051" lon="4.20024">
        <ele>158.999664</ele>
        <time>2023-05-18T07:30:42Z</time>
      </trkpt>
      <trkpt lat="50.24051" lon="4.20015">
        <ele>159.089325</ele>
        <time>2023-05-18T07:30:44Z</time>
      </trkpt>
      <trkpt lat="50.2405" lon="4.20004">
        <ele>159.066513</ele>
        <time>2023-05-18T07:30:46Z</time>
      </trkpt>
      <trkpt lat="50.24051" lon="4.19996">
        <ele>159.108093</ele>
        <time>2023-05-18T07:30:48Z</time>
      </trkpt>
      <trkpt lat="50.24053" lon="4.19991">
        <ele>158.653748</ele>
        <time>2023-05-18T07:30:50Z</time>
      </trkpt>
      <trkpt lat="50.24054" lon="4.19988">
        <ele>158.74765</ele>
        <time>2023-05-18T07:30:52Z</time>
      </trkpt>
      <trkpt lat="50.24056" lon="4.19983">
        <ele>158.242813</ele>
        <time>2023-05-18T07:30:54Z</time>
      </trkpt>
      <trkpt lat="50.24058" lon="4.19976">
        <ele>157.718582</ele>
        <time>2023-05-18T07:30:56Z</time>
      </trkpt>
      <trkpt lat="50.2406" lon="4.19971">
        <ele>158.84288</ele>
        <time>2023-05-18T07:30:58Z</time>
      </trkpt>
      <trkpt lat="50.24062" lon="4.19966">
        <ele>158.911469</ele>
        <time>2023-05-18T07:31:00Z</time>
      </trkpt>
      <trkpt lat="50.24064" lon="4.1996">
        <ele>158.450653</ele>
        <time>2023-05-18T07:31:02Z</time>
      </trkpt>
      <trkpt lat="50.24065" lon="4.19956">
        <ele>158.465195</ele>
        <time>2023-05-18T07:31:04Z</time>
      </trkpt>
      <trkpt lat="50.24067" lon="4.19951">
        <ele>158.562866</ele>
        <time>2023-05-18T07:31:06Z</time>
      </trkpt>
      <trkpt lat="50.24069" lon="4.19945">
        <ele>158.702118</ele>
        <time>2023-05-18T07:31:08Z</time>
      </trkpt>
      <trkpt lat="50.24079" lon="4.1992">
        <ele>158.833054</ele>
        <time>2023-05-18T07:31:10Z</time>
      </trkpt>
      <trkpt lat="50.2408" lon="4.19916">
        <ele>159.018036</ele>
        <time>2023-05-18T07:31:12Z</time>
      </trkpt>
      <trkpt lat="50.24082" lon="4.1991">
        <ele>159.144348</ele>
        <time>2023-05-18T07:31:14Z</time>
      </trkpt>
      <trkpt lat="50.24084" lon="4.19905">
        <ele>159.308273</ele>
        <time>2023-05-18T07:31:16Z</time>
      </trkpt>
      <trkpt lat="50.24085" lon="4.19901">
        <ele>160.080902</ele>
        <time>2023-05-18T07:31:18Z</time>
      </trkpt>
      <trkpt lat="50.24085" lon="4.19894">
        <ele>159.762466</ele>
        <time>2023-05-18T07:31:20Z</time>
      </trkpt>
      <trkpt lat="50.24086" lon="4.19888">
        <ele>159.944351</ele>
        <time>2023-05-18T07:31:22Z</time>
      </trkpt>
      <trkpt lat="50.24089" lon="4.1988">
        <ele>160.195602</ele>
        <time>2023-05-18T07:31:24Z</time>
      </trkpt>
      <trkpt lat="50.24091" lon="4.19875">
        <ele>160.310516</ele>
        <time>2023-05-18T07:31:26Z</time>
      </trkpt>
      <trkpt lat="50.24092" lon="4.19868">
        <ele>160.599457</ele>
        <time>2023-05-18T07:31:28Z</time>
      </trkpt>
      <trkpt lat="50.24094" lon="4.19861">
        <ele>160.863464</ele>
        <time>2023-05-18T07:31:30Z</time>
      </trkpt>
      <trkpt lat="50.24095" lon="4.19852">
        <ele>161.057205</ele>
        <time>2023-05-18T07:31:32Z</time>
      </trkpt>
      <trkpt lat="50.24096" lon="4.19843">
        <ele>161.317047</ele>
        <time>2023-05-18T07:31:34Z</time>
      </trkpt>
      <trkpt lat="50.24097" lon="4.19836">
        <ele>161.65799</ele>
        <time>2023-05-18T07:31:36Z</time>
      </trkpt>
      <trkpt lat="50.24099" lon="4.19832">
        <ele>161.46637</ele>
        <time>2023-05-18T07:31:38Z</time>
      </trkpt>
      <trkpt lat="50.24101" lon="4.19824">
        <ele>161.744034</ele>
        <time>2023-05-18T07:31:40Z</time>
      </trkpt>
      <trkpt lat="50.24104" lon="4.19816">
        <ele>161.891632</ele>
        <time>2023-05-18T07:31:42Z</time>
      </trkpt>
      <trkpt lat="50.24107" lon="4.19803">
        <ele>162.784851</ele>
        <time>2023-05-18T07:31:44Z</time>
      </trkpt>
      <trkpt lat="50.24109" lon="4.19793">
        <ele>163.119614</ele>
        <time>2023-05-18T07:31:46Z</time>
      </trkpt>
      <trkpt lat="50.24112" lon="4.19785">
        <ele>163.419952</ele>
        <time>2023-05-18T07:31:48Z</time>
      </trkpt>
      <trkpt lat="50.24117" lon="4.19775">
        <ele>163.769958</ele>
        <time>2023-05-18T07:31:50Z</time>
      </trkpt>
      <trkpt lat="50.24123" lon="4.19762">
        <ele>164.117203</ele>
        <time>2023-05-18T07:31:52Z</time>
      </trkpt>
      <trkpt lat="50.24128" lon="4.19749">
        <ele>164.46698</ele>
        <time>2023-05-18T07:31:54Z</time>
      </trkpt>
      <trkpt lat="50.24131" lon="4.19737">
        <ele>164.813583</ele>
        <time>2023-05-18T07:31:56Z</time>
      </trkpt>
      <trkpt lat="50.24135" lon="4.19724">
        <ele>165.027771</ele>
        <time>2023-05-18T07:31:58Z</time>
      </trkpt>
      <trkpt lat="50.24138" lon="4.19712">
        <ele>165.279388</ele>
        <time>2023-05-18T07:32:00Z</time>
      </trkpt>
      <trkpt lat="50.2414" lon="4.19698">
        <ele>165.541412</ele>
        <time>2023-05-18T07:32:02Z</time>
      </trkpt>
      <trkpt lat="50.24141" lon="4.19686">
        <ele>165.695328</ele>
        <time>2023-05-18T07:32:04Z</time>
      </trkpt>
      <trkpt lat="50.24144" lon="4.19677">
        <ele>165.955261</ele>
        <time>2023-05-18T07:32:06Z</time>
      </trkpt>
      <trkpt lat="50.24147" lon="4.19667">
        <ele>166.227722</ele>
        <time>2023-05-18T07:32:08Z</time>
      </trkpt>
      <trkpt lat="50.2415" lon="4.19655">
        <ele>166.399872</ele>
        <time>2023-05-18T07:32:10Z</time>
      </trkpt>
      <trkpt lat="50.2415" lon="4.1965">
        <ele>166.530914</ele>
        <time>2023-05-18T07:32:11Z</time>
      </trkpt>
      <trkpt lat="50.24152" lon="4.19639">
        <ele>166.623962</ele>
        <time>2023-05-18T07:32:13Z</time>
      </trkpt>
      <trkpt lat="50.24155" lon="4.19625">
        <ele>166.83403</ele>
        <time>2023-05-18T07:32:15Z</time>
      </trkpt>
      <trkpt lat="50.24159" lon="4.19612">
        <ele>166.981735</ele>
        <time>2023-05-18T07:32:17Z</time>
      </trkpt>
      <trkpt lat="50.24165" lon="4.19599">
        <ele>167.098633</ele>
        <time>2023-05-18T07:32:19Z</time>
      </trkpt>
      <trkpt lat="50.2417" lon="4.19585">
        <ele>167.262039</ele>
        <time>2023-05-18T07:32:21Z</time>
      </trkpt>
      <trkpt lat="50.24175" lon="4.19571">
        <ele>167.447861</ele>
        <time>2023-05-18T07:32:23Z</time>
      </trkpt>
      <trkpt lat="50.2418" lon="4.19559">
        <ele>167.595551</ele>
        <time>2023-05-18T07:32:25Z</time>
      </trkpt>
      <trkpt lat="50.24184" lon="4.19545">
        <ele>167.689148</ele>
        <time>2023-05-18T07:32:27Z</time>
      </trkpt>
      <trkpt lat="50.24188" lon="4.19532">
        <ele>167.796356</ele>
        <time>2023-05-18T07:32:29Z</time>
      </trkpt>
      <trkpt lat="50.24192" lon="4.19517">
        <ele>167.858704</ele>
        <time>2023-05-18T07:32:31Z</time>
      </trkpt>
      <trkpt lat="50.24196" lon="4.19503">
        <ele>167.859283</ele>
        <time>2023-05-18T07:32:33Z</time>
      </trkpt>
      <trkpt lat="50.24202" lon="4.1949">
        <ele>167.863434</ele>
        <time>2023-05-18T07:32:35Z</time>
      </trkpt>
      <trkpt lat="50.24204" lon="4.19478">
        <ele>167.832306</ele>
        <time>2023-05-18T07:32:37Z</time>
      </trkpt>
      <trkpt lat="50.24208" lon="4.19465">
        <ele>167.924973</ele>
        <time>2023-05-18T07:32:39Z</time>
      </trkpt>
      <trkpt lat="50.2421" lon="4.19452">
        <ele>167.943695</ele>
        <time>2023-05-18T07:32:41Z</time>
      </trkpt>
      <trkpt lat="50.24211" lon="4.19438">
        <ele>167.960342</ele>
        <time>2023-05-18T07:32:43Z</time>
      </trkpt>
      <trkpt lat="50.24212" lon="4.19425">
        <ele>168.004013</ele>
        <time>2023-05-18T07:32:45Z</time>
      </trkpt>
      <trkpt lat="50.24214" lon="4.19409">
        <ele>167.981827</ele>
        <time>2023-05-18T07:32:47Z</time>
      </trkpt>
      <trkpt lat="50.24219" lon="4.19392">
        <ele>167.888229</ele>
        <time>2023-05-18T07:32:49Z</time>
      </trkpt>
      <trkpt lat="50.24218" lon="4.19376">
        <ele>167.74472</ele>
        <time>2023-05-18T07:32:51Z</time>
      </trkpt>
      <trkpt lat="50.24221" lon="4.19361">
        <ele>167.751434</ele>
        <time>2023-05-18T07:32:53Z</time>
      </trkpt>
      <trkpt lat="50.2422" lon="4.19346">
        <ele>167.433807</ele>
        <time>2023-05-18T07:32:55Z</time>
      </trkpt>
      <trkpt lat="50.24218" lon="4.19326">
        <ele>167.464996</ele>
        <time>2023-05-18T07:32:57Z</time>
      </trkpt>
      <trkpt lat="50.24218" lon="4.1931">
        <ele>167.237854</ele>
        <time>2023-05-18T07:32:59Z</time>
      </trkpt>
      <trkpt lat="50.24217" lon="4.19294">
        <ele>167.142166</ele>
        <time>2023-05-18T07:33:01Z</time>
      </trkpt>
      <trkpt lat="50.24216" lon="4.19276">
        <ele>166.957947</ele>
        <time>2023-05-18T07:33:03Z</time>
      </trkpt>
      <trkpt lat="50.24218" lon="4.19257">
        <ele>166.80632</ele>
        <time>2023-05-18T07:33:05Z</time>
      </trkpt>
      <trkpt lat="50.24217" lon="4.19239">
        <ele>166.614975</ele>
        <time>2023-05-18T07:33:07Z</time>
      </trkpt>
      <trkpt lat="50.24218" lon="4.19218">
        <ele>166.419495</ele>
        <time>2023-05-18T07:33:09Z</time>
      </trkpt>
      <trkpt lat="50.24219" lon="4.19197">
        <ele>166.194855</ele>
        <time>2023-05-18T07:33:11Z</time>
      </trkpt>
      <trkpt lat="50.24223" lon="4.19181">
        <ele>166.032013</ele>
        <time>2023-05-18T07:33:13Z</time>
      </trkpt>
      <trkpt lat="50.24223" lon="4.19162">
        <ele>165.954483</ele>
        <time>2023-05-18T07:33:15Z</time>
      </trkpt>
      <trkpt lat="50.24227" lon="4.19144">
        <ele>165.898346</ele>
        <time>2023-05-18T07:33:17Z</time>
      </trkpt>
      <trkpt lat="50.24229" lon="4.19131">
        <ele>165.789703</ele>
        <time>2023-05-18T07:33:19Z</time>
      </trkpt>
      <trkpt lat="50.2423" lon="4.19119">
        <ele>165.601379</ele>
        <time>2023-05-18T07:33:21Z</time>
      </trkpt>
      <trkpt lat="50.24229" lon="4.19107">
        <ele>165.364304</ele>
        <time>2023-05-18T07:33:23Z</time>
      </trkpt>
      <trkpt lat="50.24227" lon="4.19092">
        <ele>165.152161</ele>
        <time>2023-05-18T07:33:25Z</time>
      </trkpt>
      <trkpt lat="50.2422" lon="4.19075">
        <ele>164.91095</ele>
        <time>2023-05-18T07:33:27Z</time>
      </trkpt>
      <trkpt lat="50.24215" lon="4.19053">
        <ele>164.669037</ele>
        <time>2023-05-18T07:33:29Z</time>
      </trkpt>
      <trkpt lat="50.24213" lon="4.19035">
        <ele>164.515747</ele>
        <time>2023-05-18T07:33:31Z</time>
      </trkpt>
      <trkpt lat="50.24207" lon="4.19011">
        <ele>164.259995</ele>
        <time>2023-05-18T07:33:33Z</time>
      </trkpt>
      <trkpt lat="50.24198" lon="4.18986">
        <ele>163.279343</ele>
        <time>2023-05-18T07:33:35Z</time>
      </trkpt>
      <trkpt lat="50.24194" lon="4.18976">
        <ele>163.306366</ele>
        <time>2023-05-18T07:33:36Z</time>
      </trkpt>
      <trkpt lat="50.24185" lon="4.18958">
        <ele>163.070282</ele>
        <time>2023-05-18T07:33:38Z</time>
      </trkpt>
      <trkpt lat="50.24175" lon="4.18939">
        <ele>162.8582</ele>
        <time>2023-05-18T07:33:40Z</time>
      </trkpt>
      <trkpt lat="50.24168" lon="4.18919">
        <ele>162.484009</ele>
        <time>2023-05-18T07:33:42Z</time>
      </trkpt>
      <trkpt lat="50.2416" lon="4.18902">
        <ele>162.184418</ele>
        <time>2023-05-18T07:33:44Z</time>
      </trkpt>
      <trkpt lat="50.24154" lon="4.18887">
        <ele>161.853302</ele>
        <time>2023-05-18T07:33:46Z</time>
      </trkpt>
      <trkpt lat="50.2415" lon="4.18875">
        <ele>161.485367</ele>
        <time>2023-05-18T07:33:48Z</time>
      </trkpt>
      <trkpt lat="50.24145" lon="4.18863">
        <ele>161.15329</ele>
        <time>2023-05-18T07:33:50Z</time>
      </trkpt>
      <trkpt lat="50.24137" lon="4.18849">
        <ele>160.932968</ele>
        <time>2023-05-18T07:33:52Z</time>
      </trkpt>
      <trkpt lat="50.24128" lon="4.18838">
        <ele>160.554962</ele>
        <time>2023-05-18T07:33:54Z</time>
      </trkpt>
      <trkpt lat="50.24118" lon="4.18828">
        <ele>160.139893</ele>
        <time>2023-05-18T07:33:56Z</time>
      </trkpt>
      <trkpt lat="50.2411" lon="4.18818">
        <ele>159.570969</ele>
        <time>2023-05-18T07:33:58Z</time>
      </trkpt>
      <trkpt lat="50.24101" lon="4.18807">
        <ele>159.138229</ele>
        <time>2023-05-18T07:34:00Z</time>
      </trkpt>
      <trkpt lat="50.24093" lon="4.18797">
        <ele>158.574982</ele>
        <time>2023-05-18T07:34:02Z</time>
      </trkpt>
      <trkpt lat="50.24085" lon="4.18788">
        <ele>158.107391</ele>
        <time>2023-05-18T07:34:04Z</time>
      </trkpt>
      <trkpt lat="50.24078" lon="4.18781">
        <ele>157.596115</ele>
        <time>2023-05-18T07:34:06Z</time>
      </trkpt>
      <trkpt lat="50.24072" lon="4.1877">
        <ele>157.165924</ele>
        <time>2023-05-18T07:34:08Z</time>
      </trkpt>
      <trkpt lat="50.2407" lon="4.18758">
        <ele>156.750305</ele>
        <time>2023-05-18T07:34:10Z</time>
      </trkpt>
      <trkpt lat="50.2407" lon="4.18745">
        <ele>156.199341</ele>
        <time>2023-05-18T07:34:12Z</time>
      </trkpt>
      <trkpt lat="50.2407" lon="4.18734">
        <ele>155.873077</ele>
        <time>2023-05-18T07:34:14Z</time>
      </trkpt>
      <trkpt lat="50.2407" lon="4.18725">
        <ele>156.136536</ele>
        <time>2023-05-18T07:34:16Z</time>
      </trkpt>
      <trkpt lat="50.24069" lon="4.18717">
        <ele>155.816238</ele>
        <time>2023-05-18T07:34:18Z</time>
      </trkpt>
      <trkpt lat="50.24067" lon="4.18712">
        <ele>155.40799</ele>
        <time>2023-05-18T07:34:20Z</time>
      </trkpt>
      <trkpt lat="50.24065" lon="4.18709">
        <ele>155.243851</ele>
        <time>2023-05-18T07:34:22Z</time>
      </trkpt>
      <trkpt lat="50.24061" lon="4.18712">
        <ele>155.037949</ele>
        <time>2023-05-18T07:34:24Z</time>
      </trkpt>
      <trkpt lat="50.24059" lon="4.18718">
        <ele>154.775299</ele>
        <time>2023-05-18T07:34:26Z</time>
      </trkpt>
      <trkpt lat="50.24056" lon="4.18725">
        <ele>154.576859</ele>
        <time>2023-05-18T07:34:28Z</time>
      </trkpt>
      <trkpt lat="50.24053" lon="4.18733">
        <ele>154.468796</ele>
        <time>2023-05-18T07:34:30Z</time>
      </trkpt>
      <trkpt lat="50.24051" lon="4.18741">
        <ele>154.304169</ele>
        <time>2023-05-18T07:34:32Z</time>
      </trkpt>
      <trkpt lat="50.24048" lon="4.18749">
        <ele>154.208237</ele>
        <time>2023-05-18T07:34:34Z</time>
      </trkpt>
      <trkpt lat="50.24045" lon="4.18758">
        <ele>154.141113</ele>
        <time>2023-05-18T07:34:36Z</time>
      </trkpt>
      <trkpt lat="50.24041" lon="4.18765">
        <ele>154.079727</ele>
        <time>2023-05-18T07:34:38Z</time>
      </trkpt>
      <trkpt lat="50.24038" lon="4.18773">
        <ele>154.121307</ele>
        <time>2023-05-18T07:34:40Z</time>
      </trkpt>
      <trkpt lat="50.24033" lon="4.1878">
        <ele>154.181549</ele>
        <time>2023-05-18T07:34:42Z</time>
      </trkpt>
      <trkpt lat="50.24028" lon="4.18787">
        <ele>154.337357</ele>
        <time>2023-05-18T07:34:44Z</time>
      </trkpt>
      <trkpt lat="50.24022" lon="4.18796">
        <ele>154.430847</ele>
        <time>2023-05-18T07:34:46Z</time>
      </trkpt>
      <trkpt lat="50.2402" lon="4.18809">
        <ele>154.551361</ele>
        <time>2023-05-18T07:34:48Z</time>
      </trkpt>
      <trkpt lat="50.24023" lon="4.18825">
        <ele>154.672455</ele>
        <time>2023-05-18T07:34:50Z</time>
      </trkpt>
      <trkpt lat="50.24027" lon="4.18842">
        <ele>154.776321</ele>
        <time>2023-05-18T07:34:52Z</time>
      </trkpt>
      <trkpt lat="50.24031" lon="4.18857">
        <ele>154.836212</ele>
        <time>2023-05-18T07:34:54Z</time>
      </trkpt>
      <trkpt lat="50.24034" lon="4.18872">
        <ele>154.838287</ele>
        <time>2023-05-18T07:34:56Z</time>
      </trkpt>
      <trkpt lat="50.24033" lon="4.18886">
        <ele>154.965332</ele>
        <time>2023-05-18T07:34:58Z</time>
      </trkpt>
      <trkpt lat="50.24033" lon="4.18899">
        <ele>155.096207</ele>
        <time>2023-05-18T07:35:00Z</time>
      </trkpt>
      <trkpt lat="50.24033" lon="4.18913">
        <ele>155.17514</ele>
        <time>2023-05-18T07:35:02Z</time>
      </trkpt>
      <trkpt lat="50.24031" lon="4.18926">
        <ele>155.297562</ele>
        <time>2023-05-18T07:35:04Z</time>
      </trkpt>
      <trkpt lat="50.24028" lon="4.18937">
        <ele>155.438049</ele>
        <time>2023-05-18T07:35:06Z</time>
      </trkpt>
      <trkpt lat="50.24024" lon="4.18947">
        <ele>155.603394</ele>
        <time>2023-05-18T07:35:08Z</time>
      </trkpt>
      <trkpt lat="50.24021" lon="4.18956">
        <ele>155.733856</ele>
        <time>2023-05-18T07:35:10Z</time>
      </trkpt>
      <trkpt lat="50.24022" lon="4.18966">
        <ele>155.883453</ele>
        <time>2023-05-18T07:35:12Z</time>
      </trkpt>
      <trkpt lat="50.24022" lon="4.18977">
        <ele>156.099518</ele>
        <time>2023-05-18T07:35:14Z</time>
      </trkpt>
      <trkpt lat="50.24022" lon="4.18985">
        <ele>156.796234</ele>
        <time>2023-05-18T07:35:16Z</time>
      </trkpt>
      <trkpt lat="50.24026" lon="4.18993">
        <ele>157.000381</ele>
        <time>2023-05-18T07:35:18Z</time>
      </trkpt>
      <trkpt lat="50.2403" lon="4.18999">
        <ele>157.235184</ele>
        <time>2023-05-18T07:35:20Z</time>
      </trkpt>
      <trkpt lat="50.24032" lon="4.19004">
        <ele>157.470764</ele>
        <time>2023-05-18T07:35:22Z</time>
      </trkpt>
      <trkpt lat="50.24033" lon="4.1901">
        <ele>157.674423</ele>
        <time>2023-05-18T07:35:24Z</time>
      </trkpt>
      <trkpt lat="50.24038" lon="4.19014">
        <ele>157.89679</ele>
        <time>2023-05-18T07:35:26Z</time>
      </trkpt>
      <trkpt lat="50.24041" lon="4.1902">
        <ele>158.094208</ele>
        <time>2023-05-18T07:35:28Z</time>
      </trkpt>
      <trkpt lat="50.24042" lon="4.19026">
        <ele>158.328461</ele>
        <time>2023-05-18T07:35:30Z</time>
      </trkpt>
      <trkpt lat="50.24041" lon="4.1903">
        <ele>158.461472</ele>
        <time>2023-05-18T07:35:32Z</time>
      </trkpt>
      <trkpt lat="50.24041" lon="4.19035">
        <ele>158.812698</ele>
        <time>2023-05-18T07:35:34Z</time>
      </trkpt>
      <trkpt lat="50.24038" lon="4.1904">
        <ele>159.19928</ele>
        <time>2023-05-18T07:35:36Z</time>
      </trkpt>
      <trkpt lat="50.24036" lon="4.19042">
        <ele>159.631561</ele>
        <time>2023-05-18T07:35:38Z</time>
      </trkpt>
      <trkpt lat="50.24034" lon="4.19045">
        <ele>160.016556</ele>
        <time>2023-05-18T07:35:40Z</time>
      </trkpt>
      <trkpt lat="50.24031" lon="4.19046">
        <ele>160.478027</ele>
        <time>2023-05-18T07:35:42Z</time>
      </trkpt>
      <trkpt lat="50.24027" lon="4.19046">
        <ele>160.825302</ele>
        <time>2023-05-18T07:35:44Z</time>
      </trkpt>
      <trkpt lat="50.24021" lon="4.19045">
        <ele>161.194183</ele>
        <time>2023-05-18T07:35:46Z</time>
      </trkpt>
      <trkpt lat="50.24018" lon="4.19046">
        <ele>161.647217</ele>
        <time>2023-05-18T07:35:48Z</time>
      </trkpt>
      <trkpt lat="50.24014" lon="4.19047">
        <ele>162.035919</ele>
        <time>2023-05-18T07:35:50Z</time>
      </trkpt>
      <trkpt lat="50.24009" lon="4.19047">
        <ele>162.41011</ele>
        <time>2023-05-18T07:35:52Z</time>
      </trkpt>
      <trkpt lat="50.24004" lon="4.19047">
        <ele>162.848755</ele>
        <time>2023-05-18T07:35:54Z</time>
      </trkpt>
      <trkpt lat="50.23999" lon="4.19048">
        <ele>162.771561</ele>
        <time>2023-05-18T07:35:56Z</time>
      </trkpt>
      <trkpt lat="50.23994" lon="4.19046">
        <ele>163.033524</ele>
        <time>2023-05-18T07:35:58Z</time>
      </trkpt>
      <trkpt lat="50.2399" lon="4.19045">
        <ele>163.426468</ele>
        <time>2023-05-18T07:36:00Z</time>
      </trkpt>
      <trkpt lat="50.23984" lon="4.19044">
        <ele>163.788254</ele>
        <time>2023-05-18T07:36:02Z</time>
      </trkpt>
      <trkpt lat="50.23978" lon="4.19045">
        <ele>164.107819</ele>
        <time>2023-05-18T07:36:04Z</time>
      </trkpt>
      <trkpt lat="50.23972" lon="4.19047">
        <ele>164.398895</ele>
        <time>2023-05-18T07:36:06Z</time>
      </trkpt>
      <trkpt lat="50.23968" lon="4.19048">
        <ele>164.756546</ele>
        <time>2023-05-18T07:36:08Z</time>
      </trkpt>
      <trkpt lat="50.23963" lon="4.19051">
        <ele>165.112137</ele>
        <time>2023-05-18T07:36:10Z</time>
      </trkpt>
      <trkpt lat="50.23959" lon="4.19055">
        <ele>165.324219</ele>
        <time>2023-05-18T07:36:12Z</time>
      </trkpt>
      <trkpt lat="50.23953" lon="4.19058">
        <ele>165.663208</ele>
        <time>2023-05-18T07:36:14Z</time>
      </trkpt>
      <trkpt lat="50.23948" lon="4.19062">
        <ele>165.993851</ele>
        <time>2023-05-18T07:36:16Z</time>
      </trkpt>
      <trkpt lat="50.23943" lon="4.19066">
        <ele>166.251755</ele>
        <time>2023-05-18T07:36:18Z</time>
      </trkpt>
      <trkpt lat="50.23938" lon="4.1907">
        <ele>166.448273</ele>
        <time>2023-05-18T07:36:20Z</time>
      </trkpt>
      <trkpt lat="50.23933" lon="4.19073">
        <ele>166.735474</ele>
        <time>2023-05-18T07:36:22Z</time>
      </trkpt>
      <trkpt lat="50.23928" lon="4.19077">
        <ele>166.977585</ele>
        <time>2023-05-18T07:36:24Z</time>
      </trkpt>
      <trkpt lat="50.23922" lon="4.19081">
        <ele>167.256302</ele>
        <time>2023-05-18T07:36:26Z</time>
      </trkpt>
      <trkpt lat="50.23917" lon="4.19084">
        <ele>167.485107</ele>
        <time>2023-05-18T07:36:28Z</time>
      </trkpt>
      <trkpt lat="50.23912" lon="4.19088">
        <ele>167.770081</ele>
        <time>2023-05-18T07:36:30Z</time>
      </trkpt>
      <trkpt lat="50.23908" lon="4.19091">
        <ele>168.088409</ele>
        <time>2023-05-18T07:36:32Z</time>
      </trkpt>
      <trkpt lat="50.23903" lon="4.19094">
        <ele>168.371323</ele>
        <time>2023-05-18T07:36:34Z</time>
      </trkpt>
      <trkpt lat="50.23897" lon="4.19097">
        <ele>168.629303</ele>
        <time>2023-05-18T07:36:36Z</time>
      </trkpt>
      <trkpt lat="50.23892" lon="4.19101">
        <ele>168.85289</ele>
        <time>2023-05-18T07:36:38Z</time>
      </trkpt>
      <trkpt lat="50.23887" lon="4.19105">
        <ele>169.027634</ele>
        <time>2023-05-18T07:36:40Z</time>
      </trkpt>
      <trkpt lat="50.23882" lon="4.19108">
        <ele>169.3647</ele>
        <time>2023-05-18T07:36:42Z</time>
      </trkpt>
      <trkpt lat="50.23877" lon="4.19112">
        <ele>169.699677</ele>
        <time>2023-05-18T07:36:44Z</time>
      </trkpt>
      <trkpt lat="50.23872" lon="4.19115">
        <ele>170.076935</ele>
        <time>2023-05-18T07:36:46Z</time>
      </trkpt>
      <trkpt lat="50.23867" lon="4.19118">
        <ele>170.459747</ele>
        <time>2023-05-18T07:36:48Z</time>
      </trkpt>
      <trkpt lat="50.23861" lon="4.1912">
        <ele>170.871048</ele>
        <time>2023-05-18T07:36:50Z</time>
      </trkpt>
      <trkpt lat="50.23856" lon="4.1912">
        <ele>171.190414</ele>
        <time>2023-05-18T07:36:52Z</time>
      </trkpt>
      <trkpt lat="50.23852" lon="4.1912">
        <ele>171.52684</ele>
        <time>2023-05-18T07:36:54Z</time>
      </trkpt>
      <trkpt lat="50.23847" lon="4.19121">
        <ele>171.900879</ele>
        <time>2023-05-18T07:36:56Z</time>
      </trkpt>
      <trkpt lat="50.23842" lon="4.1912">
        <ele>172.319153</ele>
        <time>2023-05-18T07:36:58Z</time>
      </trkpt>
      <trkpt lat="50.23837" lon="4.19122">
        <ele>172.771851</ele>
        <time>2023-05-18T07:37:00Z</time>
      </trkpt>
      <trkpt lat="50.23832" lon="4.19123">
        <ele>173.229141</ele>
        <time>2023-05-18T07:37:02Z</time>
      </trkpt>
      <trkpt lat="50.23827" lon="4.19124">
        <ele>173.609146</ele>
        <time>2023-05-18T07:37:04Z</time>
      </trkpt>
      <trkpt lat="50.23822" lon="4.19125">
        <ele>173.981705</ele>
        <time>2023-05-18T07:37:06Z</time>
      </trkpt>
      <trkpt lat="50.23816" lon="4.19126">
        <ele>174.375061</ele>
        <time>2023-05-18T07:37:08Z</time>
      </trkpt>
      <trkpt lat="50.23813" lon="4.19127">
        <ele>174.849655</ele>
        <time>2023-05-18T07:37:10Z</time>
      </trkpt>
      <trkpt lat="50.23809" lon="4.19129">
        <ele>174.514862</ele>
        <time>2023-05-18T07:37:12Z</time>
      </trkpt>
      <trkpt lat="50.23805" lon="4.19129">
        <ele>174.912445</ele>
        <time>2023-05-18T07:37:14Z</time>
      </trkpt>
      <trkpt lat="50.23803" lon="4.19129">
        <ele>175.326416</ele>
        <time>2023-05-18T07:37:16Z</time>
      </trkpt>
      <trkpt lat="50.23798" lon="4.1913">
        <ele>175.813568</ele>
        <time>2023-05-18T07:37:18Z</time>
      </trkpt>
      <trkpt lat="50.23792" lon="4.19133">
        <ele>176.24559</ele>
        <time>2023-05-18T07:37:20Z</time>
      </trkpt>
      <trkpt lat="50.23786" lon="4.19135">
        <ele>176.607819</ele>
        <time>2023-05-18T07:37:22Z</time>
      </trkpt>
      <trkpt lat="50.2378" lon="4.19137">
        <ele>176.974274</ele>
        <time>2023-05-18T07:37:24Z</time>
      </trkpt>
      <trkpt lat="50.23773" lon="4.19138">
        <ele>177.363632</ele>
        <time>2023-05-18T07:37:26Z</time>
      </trkpt>
      <trkpt lat="50.23766" lon="4.19139">
        <ele>177.759247</ele>
        <time>2023-05-18T07:37:28Z</time>
      </trkpt>
      <trkpt lat="50.23758" lon="4.19141">
        <ele>178.177628</ele>
        <time>2023-05-18T07:37:30Z</time>
      </trkpt>
      <trkpt lat="50.23751" lon="4.19142">
        <ele>178.476471</ele>
        <time>2023-05-18T07:37:32Z</time>
      </trkpt>
      <trkpt lat="50.23745" lon="4.19143">
        <ele>178.887405</ele>
        <time>2023-05-18T07:37:34Z</time>
      </trkpt>
      <trkpt lat="50.23739" lon="4.19144">
        <ele>179.273193</ele>
        <time>2023-05-18T07:37:36Z</time>
      </trkpt>
      <trkpt lat="50.23734" lon="4.19146">
        <ele>179.585571</ele>
        <time>2023-05-18T07:37:38Z</time>
      </trkpt>
      <trkpt lat="50.2373" lon="4.19143">
        <ele>179.96254</ele>
        <time>2023-05-18T07:37:40Z</time>
      </trkpt>
      <trkpt lat="50.23727" lon="4.19136">
        <ele>180.079803</ele>
        <time>2023-05-18T07:37:42Z</time>
      </trkpt>
      <trkpt lat="50.23723" lon="4.19127">
        <ele>180.264511</ele>
        <time>2023-05-18T07:37:44Z</time>
      </trkpt>
      <trkpt lat="50.23721" lon="4.19123">
        <ele>180.435287</ele>
        <time>2023-05-18T07:37:45Z</time>
      </trkpt>
      <trkpt lat="50.23718" lon="4.19113">
        <ele>180.750092</ele>
        <time>2023-05-18T07:37:46Z</time>
      </trkpt>
      <trkpt lat="50.23716" lon="4.19103">
        <ele>181.031265</ele>
        <time>2023-05-18T07:37:49Z</time>
      </trkpt>
      <trkpt lat="50.23711" lon="4.19095">
        <ele>181.266632</ele>
        <time>2023-05-18T07:37:51Z</time>
      </trkpt>
      <trkpt lat="50.23707" lon="4.19087">
        <ele>182.017914</ele>
        <time>2023-05-18T07:37:53Z</time>
      </trkpt>
      <trkpt lat="50.23703" lon="4.19081">
        <ele>182.242859</ele>
        <time>2023-05-18T07:37:55Z</time>
      </trkpt>
      <trkpt lat="50.23699" lon="4.19074">
        <ele>182.433487</ele>
        <time>2023-05-18T07:37:57Z</time>
      </trkpt>
      <trkpt lat="50.23697" lon="4.19067">
        <ele>182.568893</ele>
        <time>2023-05-18T07:37:59Z</time>
      </trkpt>
      <trkpt lat="50.23694" lon="4.19061">
        <ele>182.793854</ele>
        <time>2023-05-18T07:38:01Z</time>
      </trkpt>
      <trkpt lat="50.23692" lon="4.19056">
        <ele>183.035477</ele>
        <time>2023-05-18T07:38:03Z</time>
      </trkpt>
      <trkpt lat="50.23689" lon="4.1905">
        <ele>183.223709</ele>
        <time>2023-05-18T07:38:05Z</time>
      </trkpt>
      <trkpt lat="50.23687" lon="4.19044">
        <ele>183.369537</ele>
        <time>2023-05-18T07:38:07Z</time>
      </trkpt>
      <trkpt lat="50.23685" lon="4.19038">
        <ele>183.457016</ele>
        <time>2023-05-18T07:38:09Z</time>
      </trkpt>
      <trkpt lat="50.23684" lon="4.19032">
        <ele>183.609955</ele>
        <time>2023-05-18T07:38:11Z</time>
      </trkpt>
      <trkpt lat="50.23681" lon="4.19027">
        <ele>183.778702</ele>
        <time>2023-05-18T07:38:13Z</time>
      </trkpt>
      <trkpt lat="50.23679" lon="4.19022">
        <ele>183.791199</ele>
        <time>2023-05-18T07:38:15Z</time>
      </trkpt>
      <trkpt lat="50.23678" lon="4.19016">
        <ele>183.837021</ele>
        <time>2023-05-18T07:38:17Z</time>
      </trkpt>
      <trkpt lat="50.23676" lon="4.19011">
        <ele>183.905777</ele>
        <time>2023-05-18T07:38:19Z</time>
      </trkpt>
      <trkpt lat="50.23673" lon="4.19004">
        <ele>183.980774</ele>
        <time>2023-05-18T07:38:21Z</time>
      </trkpt>
      <trkpt lat="50.23671" lon="4.18995">
        <ele>183.967636</ele>
        <time>2023-05-18T07:38:23Z</time>
      </trkpt>
      <trkpt lat="50.2367" lon="4.18986">
        <ele>184.145859</ele>
        <time>2023-05-18T07:38:25Z</time>
      </trkpt>
      <trkpt lat="50.23668" lon="4.18977">
        <ele>184.212234</ele>
        <time>2023-05-18T07:38:27Z</time>
      </trkpt>
      <trkpt lat="50.23668" lon="4.18967">
        <ele>184.235138</ele>
        <time>2023-05-18T07:38:29Z</time>
      </trkpt>
      <trkpt lat="50.23668" lon="4.18956">
        <ele>184.335129</ele>
        <time>2023-05-18T07:38:31Z</time>
      </trkpt>
      <trkpt lat="50.23669" lon="4.18945">
        <ele>184.3741</ele>
        <time>2023-05-18T07:38:33Z</time>
      </trkpt>
      <trkpt lat="50.23669" lon="4.1894">
        <ele>184.380341</ele>
        <time>2023-05-18T07:38:34Z</time>
      </trkpt>
      <trkpt lat="50.23667" lon="4.18923">
        <ele>184.446198</ele>
        <time>2023-05-18T07:38:37Z</time>
      </trkpt>
      <trkpt lat="50.23665" lon="4.18914">
        <ele>184.495514</ele>
        <time>2023-05-18T07:38:39Z</time>
      </trkpt>
      <trkpt lat="50.23661" lon="4.18908">
        <ele>184.460114</ele>
        <time>2023-05-18T07:38:41Z</time>
      </trkpt>
      <trkpt lat="50.23656" lon="4.18898">
        <ele>184.460114</ele>
        <time>2023-05-18T07:38:43Z</time>
      </trkpt>
      <trkpt lat="50.2365" lon="4.18891">
        <ele>184.490616</ele>
        <time>2023-05-18T07:38:45Z</time>
      </trkpt>
      <trkpt lat="50.23646" lon="4.18881">
        <ele>184.47847</ele>
        <time>2023-05-18T07:38:47Z</time>
      </trkpt>
      <trkpt lat="50.23641" lon="4.18872">
        <ele>184.54306</ele>
        <time>2023-05-18T07:38:49Z</time>
      </trkpt>
      <trkpt lat="50.23638" lon="4.18863">
        <ele>184.534714</ele>
        <time>2023-05-18T07:38:51Z</time>
      </trkpt>
      <trkpt lat="50.23633" lon="4.18854">
        <ele>184.513718</ele>
        <time>2023-05-18T07:38:53Z</time>
      </trkpt>
      <trkpt lat="50.23628" lon="4.18847">
        <ele>184.512253</ele>
        <time>2023-05-18T07:38:55Z</time>
      </trkpt>
      <trkpt lat="50.23624" lon="4.1884">
        <ele>184.535187</ele>
        <time>2023-05-18T07:38:57Z</time>
      </trkpt>
      <trkpt lat="50.23618" lon="4.18833">
        <ele>184.499771</ele>
        <time>2023-05-18T07:38:59Z</time>
      </trkpt>
      <trkpt lat="50.23613" lon="4.18824">
        <ele>184.447678</ele>
        <time>2023-05-18T07:39:01Z</time>
      </trkpt>
      <trkpt lat="50.23607" lon="4.18814">
        <ele>184.558121</ele>
        <time>2023-05-18T07:39:03Z</time>
      </trkpt>
      <trkpt lat="50.23603" lon="4.18804">
        <ele>184.572083</ele>
        <time>2023-05-18T07:39:05Z</time>
      </trkpt>
      <trkpt lat="50.23597" lon="4.18795">
        <ele>184.697113</ele>
        <time>2023-05-18T07:39:07Z</time>
      </trkpt>
      <trkpt lat="50.23592" lon="4.18786">
        <ele>184.640854</ele>
        <time>2023-05-18T07:39:09Z</time>
      </trkpt>
      <trkpt lat="50.23587" lon="4.18776">
        <ele>184.620026</ele>
        <time>2023-05-18T07:39:11Z</time>
      </trkpt>
      <trkpt lat="50.23582" lon="4.18766">
        <ele>184.657547</ele>
        <time>2023-05-18T07:39:13Z</time>
      </trkpt>
      <trkpt lat="50.23576" lon="4.18756">
        <ele>184.683151</ele>
        <time>2023-05-18T07:39:15Z</time>
      </trkpt>
      <trkpt lat="50.2357" lon="4.18746">
        <ele>184.768585</ele>
        <time>2023-05-18T07:39:17Z</time>
      </trkpt>
      <trkpt lat="50.23565" lon="4.18737">
        <ele>184.893616</ele>
        <time>2023-05-18T07:39:19Z</time>
      </trkpt>
      <trkpt lat="50.2356" lon="4.18727">
        <ele>184.888046</ele>
        <time>2023-05-18T07:39:21Z</time>
      </trkpt>
      <trkpt lat="50.23554" lon="4.18717">
        <ele>185.031036</ele>
        <time>2023-05-18T07:39:23Z</time>
      </trkpt>
      <trkpt lat="50.23548" lon="4.18707">
        <ele>185.058136</ele>
        <time>2023-05-18T07:39:25Z</time>
      </trkpt>
      <trkpt lat="50.23542" lon="4.18697">
        <ele>185.106049</ele>
        <time>2023-05-18T07:39:27Z</time>
      </trkpt>
      <trkpt lat="50.23536" lon="4.18687">
        <ele>185.170273</ele>
        <time>2023-05-18T07:39:29Z</time>
      </trkpt>
      <trkpt lat="50.23531" lon="4.18677">
        <ele>185.180695</ele>
        <time>2023-05-18T07:39:31Z</time>
      </trkpt>
      <trkpt lat="50.23525" lon="4.18668">
        <ele>185.395493</ele>
        <time>2023-05-18T07:39:33Z</time>
      </trkpt>
      <trkpt lat="50.2352" lon="4.18659">
        <ele>185.528244</ele>
        <time>2023-05-18T07:39:35Z</time>
      </trkpt>
      <trkpt lat="50.23515" lon="4.18649">
        <ele>185.651199</ele>
        <time>2023-05-18T07:39:37Z</time>
      </trkpt>
      <trkpt lat="50.23509" lon="4.1864">
        <ele>185.920013</ele>
        <time>2023-05-18T07:39:39Z</time>
      </trkpt>
      <trkpt lat="50.23504" lon="4.1863">
        <ele>186.099182</ele>
        <time>2023-05-18T07:39:41Z</time>
      </trkpt>
      <trkpt lat="50.23497" lon="4.18621">
        <ele>186.198669</ele>
        <time>2023-05-18T07:39:43Z</time>
      </trkpt>
      <trkpt lat="50.23491" lon="4.18611">
        <ele>186.292419</ele>
        <time>2023-05-18T07:39:45Z</time>
      </trkpt>
      <trkpt lat="50.23486" lon="4.18601">
        <ele>186.298676</ele>
        <time>2023-05-18T07:39:47Z</time>
      </trkpt>
      <trkpt lat="50.23479" lon="4.1859">
        <ele>186.340347</ele>
        <time>2023-05-18T07:39:49Z</time>
      </trkpt>
      <trkpt lat="50.23473" lon="4.1858">
        <ele>186.386185</ele>
        <time>2023-05-18T07:39:51Z</time>
      </trkpt>
      <trkpt lat="50.2347" lon="4.18575">
        <ele>186.471634</ele>
        <time>2023-05-18T07:39:52Z</time>
      </trkpt>
      <trkpt lat="50.23464" lon="4.18566">
        <ele>186.657089</ele>
        <time>2023-05-18T07:39:54Z</time>
      </trkpt>
      <trkpt lat="50.23458" lon="4.18556">
        <ele>186.880081</ele>
        <time>2023-05-18T07:39:56Z</time>
      </trkpt>
      <trkpt lat="50.23452" lon="4.18546">
        <ele>186.925919</ele>
        <time>2023-05-18T07:39:58Z</time>
      </trkpt>
      <trkpt lat="50.23446" lon="4.18535">
        <ele>187.028046</ele>
        <time>2023-05-18T07:40:00Z</time>
      </trkpt>
      <trkpt lat="50.23439" lon="4.18524">
        <ele>187.063461</ele>
        <time>2023-05-18T07:40:02Z</time>
      </trkpt>
      <trkpt lat="50.23433" lon="4.18514">
        <ele>187.198502</ele>
        <time>2023-05-18T07:40:04Z</time>
      </trkpt>
      <trkpt lat="50.23428" lon="4.18504">
        <ele>187.320663</ele>
        <time>2023-05-18T07:40:06Z</time>
      </trkpt>
      <trkpt lat="50.23422" lon="4.18494">
        <ele>187.545761</ele>
        <time>2023-05-18T07:40:08Z</time>
      </trkpt>
      <trkpt lat="50.23416" lon="4.18484">
        <ele>187.689545</ele>
        <time>2023-05-18T07:40:10Z</time>
      </trkpt>
      <trkpt lat="50.23413" lon="4.18479">
        <ele>187.727066</ele>
        <time>2023-05-18T07:40:11Z</time>
      </trkpt>
      <trkpt lat="50.23407" lon="4.18468">
        <ele>187.791656</ele>
        <time>2023-05-18T07:40:13Z</time>
      </trkpt>
      <trkpt lat="50.23401" lon="4.18457">
        <ele>187.797913</ele>
        <time>2023-05-18T07:40:15Z</time>
      </trkpt>
      <trkpt lat="50.23394" lon="4.18447">
        <ele>187.835419</ele>
        <time>2023-05-18T07:40:17Z</time>
      </trkpt>
      <trkpt lat="50.23388" lon="4.18437">
        <ele>187.808334</ele>
        <time>2023-05-18T07:40:19Z</time>
      </trkpt>
      <trkpt lat="50.23383" lon="4.18429">
        <ele>187.879135</ele>
        <time>2023-05-18T07:40:21Z</time>
      </trkpt>
      <trkpt lat="50.23378" lon="4.1842">
        <ele>187.933853</ele>
        <time>2023-05-18T07:40:23Z</time>
      </trkpt>
      <trkpt lat="50.23373" lon="4.18409">
        <ele>187.988052</ele>
        <time>2023-05-18T07:40:25Z</time>
      </trkpt>
      <trkpt lat="50.23368" lon="4.18398">
        <ele>188.094345</ele>
        <time>2023-05-18T07:40:27Z</time>
      </trkpt>
      <trkpt lat="50.23362" lon="4.18388">
        <ele>188.2173</ele>
        <time>2023-05-18T07:40:29Z</time>
      </trkpt>
      <trkpt lat="50.23357" lon="4.18378">
        <ele>188.30899</ele>
        <time>2023-05-18T07:40:31Z</time>
      </trkpt>
      <trkpt lat="50.23351" lon="4.18368">
        <ele>188.419464</ele>
        <time>2023-05-18T07:40:33Z</time>
      </trkpt>
      <trkpt lat="50.23348" lon="4.1836">
        <ele>188.512314</ele>
        <time>2023-05-18T07:40:35Z</time>
      </trkpt>
      <trkpt lat="50.23343" lon="4.18352">
        <ele>188.533173</ele>
        <time>2023-05-18T07:40:37Z</time>
      </trkpt>
      <trkpt lat="50.23338" lon="4.18344">
        <ele>188.645721</ele>
        <time>2023-05-18T07:40:39Z</time>
      </trkpt>
      <trkpt lat="50.23332" lon="4.18335">
        <ele>188.764542</ele>
        <time>2023-05-18T07:40:41Z</time>
      </trkpt>
      <trkpt lat="50.23325" lon="4.18326">
        <ele>188.850098</ele>
        <time>2023-05-18T07:40:43Z</time>
      </trkpt>
      <trkpt lat="50.2332" lon="4.18318">
        <ele>188.955536</ele>
        <time>2023-05-18T07:40:45Z</time>
      </trkpt>
      <trkpt lat="50.23314" lon="4.18309">
        <ele>189.1064</ele>
        <time>2023-05-18T07:40:47Z</time>
      </trkpt>
      <trkpt lat="50.23307" lon="4.183">
        <ele>189.13974</ele>
        <time>2023-05-18T07:40:49Z</time>
      </trkpt>
      <trkpt lat="50.23302" lon="4.1829">
        <ele>189.13974</ele>
        <time>2023-05-18T07:40:51Z</time>
      </trkpt>
      <trkpt lat="50.23296" lon="4.18282">
        <ele>189.274445</ele>
        <time>2023-05-18T07:40:53Z</time>
      </trkpt>
      <trkpt lat="50.2329" lon="4.18274">
        <ele>189.341156</ele>
        <time>2023-05-18T07:40:55Z</time>
      </trkpt>
      <trkpt lat="50.23284" lon="4.18265">
        <ele>189.54129</ele>
        <time>2023-05-18T07:40:57Z</time>
      </trkpt>
      <trkpt lat="50.23278" lon="4.18254">
        <ele>189.707489</ele>
        <time>2023-05-18T07:40:59Z</time>
      </trkpt>
      <trkpt lat="50.23273" lon="4.18244">
        <ele>189.763763</ele>
        <time>2023-05-18T07:41:01Z</time>
      </trkpt>
      <trkpt lat="50.23267" lon="4.18234">
        <ele>189.928497</ele>
        <time>2023-05-18T07:41:03Z</time>
      </trkpt>
      <trkpt lat="50.23262" lon="4.18222">
        <ele>189.97226</ele>
        <time>2023-05-18T07:41:05Z</time>
      </trkpt>
      <trkpt lat="50.23261" lon="4.18215">
        <ele>190.053177</ele>
        <time>2023-05-18T07:41:06Z</time>
      </trkpt>
      <trkpt lat="50.23256" lon="4.18202">
        <ele>190.242859</ele>
        <time>2023-05-18T07:41:08Z</time>
      </trkpt>
      <trkpt lat="50.23251" lon="4.18191">
        <ele>190.352631</ele>
        <time>2023-05-18T07:41:10Z</time>
      </trkpt>
      <trkpt lat="50.23243" lon="4.18179">
        <ele>190.521454</ele>
        <time>2023-05-18T07:41:12Z</time>
      </trkpt>
      <trkpt lat="50.23237" lon="4.1817">
        <ele>190.594421</ele>
        <time>2023-05-18T07:41:14Z</time>
      </trkpt>
      <trkpt lat="50.2323" lon="4.18161">
        <ele>190.626633</ele>
        <time>2023-05-18T07:41:16Z</time>
      </trkpt>
      <trkpt lat="50.23224" lon="4.18154">
        <ele>190.730865</ele>
        <time>2023-05-18T07:41:18Z</time>
      </trkpt>
      <trkpt lat="50.23217" lon="4.18147">
        <ele>190.905991</ele>
        <time>2023-05-18T07:41:20Z</time>
      </trkpt>
      <trkpt lat="50.23211" lon="4.18141">
        <ele>190.912247</ele>
        <time>2023-05-18T07:41:22Z</time>
      </trkpt>
      <trkpt lat="50.23204" lon="4.18135">
        <ele>191.270752</ele>
        <time>2023-05-18T07:41:24Z</time>
      </trkpt>
      <trkpt lat="50.23196" lon="4.18131">
        <ele>191.354141</ele>
        <time>2023-05-18T07:41:26Z</time>
      </trkpt>
      <trkpt lat="50.23189" lon="4.18128">
        <ele>191.441711</ele>
        <time>2023-05-18T07:41:28Z</time>
      </trkpt>
      <trkpt lat="50.23182" lon="4.18126">
        <ele>191.425812</ele>
        <time>2023-05-18T07:41:30Z</time>
      </trkpt>
      <trkpt lat="50.23175" lon="4.18124">
        <ele>191.692673</ele>
        <time>2023-05-18T07:41:32Z</time>
      </trkpt>
      <trkpt lat="50.23168" lon="4.18123">
        <ele>191.805267</ele>
        <time>2023-05-18T07:41:34Z</time>
      </trkpt>
      <trkpt lat="50.2316" lon="4.18124">
        <ele>191.926987</ele>
        <time>2023-05-18T07:41:36Z</time>
      </trkpt>
      <trkpt lat="50.23153" lon="4.18124">
        <ele>192.120865</ele>
        <time>2023-05-18T07:41:38Z</time>
      </trkpt>
      <trkpt lat="50.23146" lon="4.18124">
        <ele>192.244415</ele>
        <time>2023-05-18T07:41:40Z</time>
      </trkpt>
      <trkpt lat="50.23138" lon="4.18127">
        <ele>192.369843</ele>
        <time>2023-05-18T07:41:42Z</time>
      </trkpt>
      <trkpt lat="50.2313" lon="4.18129">
        <ele>192.519989</ele>
        <time>2023-05-18T07:41:44Z</time>
      </trkpt>
      <trkpt lat="50.23122" lon="4.18132">
        <ele>192.657608</ele>
        <time>2023-05-18T07:41:46Z</time>
      </trkpt>
      <trkpt lat="50.23114" lon="4.18133">
        <ele>192.764343</ele>
        <time>2023-05-18T07:41:48Z</time>
      </trkpt>
      <trkpt lat="50.23107" lon="4.18134">
        <ele>192.852646</ele>
        <time>2023-05-18T07:41:50Z</time>
      </trkpt>
      <trkpt lat="50.23099" lon="4.18136">
        <ele>192.963165</ele>
        <time>2023-05-18T07:41:52Z</time>
      </trkpt>
      <trkpt lat="50.23092" lon="4.18137">
        <ele>193.069489</ele>
        <time>2023-05-18T07:41:54Z</time>
      </trkpt>
      <trkpt lat="50.23084" lon="4.18137">
        <ele>193.259247</ele>
        <time>2023-05-18T07:41:56Z</time>
      </trkpt>
      <trkpt lat="50.23075" lon="4.18137">
        <ele>193.3741</ele>
        <time>2023-05-18T07:41:58Z</time>
      </trkpt>
      <trkpt lat="50.23069" lon="4.18135">
        <ele>193.563858</ele>
        <time>2023-05-18T07:42:00Z</time>
      </trkpt>
      <trkpt lat="50.23063" lon="4.18134">
        <ele>193.749451</ele>
        <time>2023-05-18T07:42:02Z</time>
      </trkpt>
      <trkpt lat="50.23057" lon="4.18132">
        <ele>193.930893</ele>
        <time>2023-05-18T07:42:04Z</time>
      </trkpt>
      <trkpt lat="50.23052" lon="4.1813">
        <ele>193.978867</ele>
        <time>2023-05-18T07:42:06Z</time>
      </trkpt>
      <trkpt lat="50.23048" lon="4.18128">
        <ele>194.22287</ele>
        <time>2023-05-18T07:42:08Z</time>
      </trkpt>
      <trkpt lat="50.23044" lon="4.18126">
        <ele>194.422333</ele>
        <time>2023-05-18T07:42:10Z</time>
      </trkpt>
      <trkpt lat="50.2304" lon="4.18124">
        <ele>194.570404</ele>
        <time>2023-05-18T07:42:12Z</time>
      </trkpt>
      <trkpt lat="50.23037" lon="4.18122">
        <ele>194.850403</ele>
        <time>2023-05-18T07:42:14Z</time>
      </trkpt>
      <trkpt lat="50.23034" lon="4.1812">
        <ele>195.040176</ele>
        <time>2023-05-18T07:42:16Z</time>
      </trkpt>
      <trkpt lat="50.23029" lon="4.18117">
        <ele>195.227921</ele>
        <time>2023-05-18T07:42:18Z</time>
      </trkpt>
      <trkpt lat="50.23025" lon="4.18113">
        <ele>195.465683</ele>
        <time>2023-05-18T07:42:20Z</time>
      </trkpt>
      <trkpt lat="50.23022" lon="4.18109">
        <ele>195.784821</ele>
        <time>2023-05-18T07:42:22Z</time>
      </trkpt>
      <trkpt lat="50.23018" lon="4.18105">
        <ele>196.057602</ele>
        <time>2023-05-18T07:42:24Z</time>
      </trkpt>
      <trkpt lat="50.23015" lon="4.181">
        <ele>196.861069</ele>
        <time>2023-05-18T07:42:26Z</time>
      </trkpt>
      <trkpt lat="50.23011" lon="4.18097">
        <ele>197.125961</ele>
        <time>2023-05-18T07:42:28Z</time>
      </trkpt>
      <trkpt lat="50.23007" lon="4.18094">
        <ele>197.536926</ele>
        <time>2023-05-18T07:42:30Z</time>
      </trkpt>
      <trkpt lat="50.23003" lon="4.1809">
        <ele>198.399155</ele>
        <time>2023-05-18T07:42:32Z</time>
      </trkpt>
      <trkpt lat="50.22998" lon="4.18086">
        <ele>198.847656</ele>
        <time>2023-05-18T07:42:34Z</time>
      </trkpt>
      <trkpt lat="50.22995" lon="4.18083">
        <ele>199.321228</ele>
        <time>2023-05-18T07:42:36Z</time>
      </trkpt>
      <trkpt lat="50.22992" lon="4.1808">
        <ele>199.767563</ele>
        <time>2023-05-18T07:42:38Z</time>
      </trkpt>
      <trkpt lat="50.22989" lon="4.18077">
        <ele>200.12851</ele>
        <time>2023-05-18T07:42:40Z</time>
      </trkpt>
      <trkpt lat="50.22984" lon="4.18074">
        <ele>200.314178</ele>
        <time>2023-05-18T07:42:42Z</time>
      </trkpt>
      <trkpt lat="50.22981" lon="4.18071">
        <ele>200.677246</ele>
        <time>2023-05-18T07:42:44Z</time>
      </trkpt>
      <trkpt lat="50.22977" lon="4.18068">
        <ele>201.000687</ele>
        <time>2023-05-18T07:42:46Z</time>
      </trkpt>
      <trkpt lat="50.22973" lon="4.18066">
        <ele>201.363754</ele>
        <time>2023-05-18T07:42:48Z</time>
      </trkpt>
      <trkpt lat="50.22969" lon="4.18063">
        <ele>201.673447</ele>
        <time>2023-05-18T07:42:50Z</time>
      </trkpt>
      <trkpt lat="50.22966" lon="4.1806">
        <ele>202.126251</ele>
        <time>2023-05-18T07:42:52Z</time>
      </trkpt>
      <trkpt lat="50.22962" lon="4.18059">
        <ele>202.528458</ele>
        <time>2023-05-18T07:42:54Z</time>
      </trkpt>
      <trkpt lat="50.22959" lon="4.18056">
        <ele>202.978241</ele>
        <time>2023-05-18T07:42:56Z</time>
      </trkpt>
      <trkpt lat="50.22955" lon="4.18054">
        <ele>203.412354</ele>
        <time>2023-05-18T07:42:58Z</time>
      </trkpt>
      <trkpt lat="50.22951" lon="4.18052">
        <ele>203.836029</ele>
        <time>2023-05-18T07:43:00Z</time>
      </trkpt>
      <trkpt lat="50.22947" lon="4.18049">
        <ele>204.297333</ele>
        <time>2023-05-18T07:43:02Z</time>
      </trkpt>
      <trkpt lat="50.22942" lon="4.18047">
        <ele>204.694122</ele>
        <time>2023-05-18T07:43:04Z</time>
      </trkpt>
      <trkpt lat="50.22938" lon="4.18045">
        <ele>204.560165</ele>
        <time>2023-05-18T07:43:06Z</time>
      </trkpt>
      <trkpt lat="50.22934" lon="4.18043">
        <ele>205.084473</ele>
        <time>2023-05-18T07:43:08Z</time>
      </trkpt>
      <trkpt lat="50.22929" lon="4.1804">
        <ele>205.489456</ele>
        <time>2023-05-18T07:43:10Z</time>
      </trkpt>
      <trkpt lat="50.22925" lon="4.18037">
        <ele>205.702393</ele>
        <time>2023-05-18T07:43:12Z</time>
      </trkpt>
      <trkpt lat="50.2292" lon="4.18034">
        <ele>205.677078</ele>
        <time>2023-05-18T07:43:14Z</time>
      </trkpt>
      <trkpt lat="50.22915" lon="4.18032">
        <ele>206.130157</ele>
        <time>2023-05-18T07:43:16Z</time>
      </trkpt>
      <trkpt lat="50.2291" lon="4.1803">
        <ele>206.562378</ele>
        <time>2023-05-18T07:43:18Z</time>
      </trkpt>
      <trkpt lat="50.22905" lon="4.18028">
        <ele>206.952682</ele>
        <time>2023-05-18T07:43:20Z</time>
      </trkpt>
      <trkpt lat="50.229" lon="4.18025">
        <ele>207.402008</ele>
        <time>2023-05-18T07:43:22Z</time>
      </trkpt>
      <trkpt lat="50.22895" lon="4.18021">
        <ele>207.876984</ele>
        <time>2023-05-18T07:43:24Z</time>
      </trkpt>
      <trkpt lat="50.2289" lon="4.18019">
        <ele>208.311935</ele>
        <time>2023-05-18T07:43:26Z</time>
      </trkpt>
      <trkpt lat="50.22884" lon="4.18017">
        <ele>208.740036</ele>
        <time>2023-05-18T07:43:28Z</time>
      </trkpt>
      <trkpt lat="50.22879" lon="4.18016">
        <ele>209.260056</ele>
        <time>2023-05-18T07:43:30Z</time>
      </trkpt>
      <trkpt lat="50.22875" lon="4.18014">
        <ele>209.677582</ele>
        <time>2023-05-18T07:43:32Z</time>
      </trkpt>
      <trkpt lat="50.2287" lon="4.18012">
        <ele>210.208054</ele>
        <time>2023-05-18T07:43:34Z</time>
      </trkpt>
      <trkpt lat="50.22867" lon="4.18011">
        <ele>210.421097</ele>
        <time>2023-05-18T07:43:35Z</time>
      </trkpt>
      <trkpt lat="50.22862" lon="4.1801">
        <ele>210.883667</ele>
        <time>2023-05-18T07:43:37Z</time>
      </trkpt>
      <trkpt lat="50.22855" lon="4.18008">
        <ele>211.353668</ele>
        <time>2023-05-18T07:43:39Z</time>
      </trkpt>
      <trkpt lat="50.2285" lon="4.18006">
        <ele>211.846649</ele>
        <time>2023-05-18T07:43:41Z</time>
      </trkpt>
      <trkpt lat="50.22844" lon="4.18004">
        <ele>212.259369</ele>
        <time>2023-05-18T07:43:43Z</time>
      </trkpt>
      <trkpt lat="50.22839" lon="4.18001">
        <ele>212.706375</ele>
        <time>2023-05-18T07:43:45Z</time>
      </trkpt>
      <trkpt lat="50.22833" lon="4.17999">
        <ele>213.21199</ele>
        <time>2023-05-18T07:43:47Z</time>
      </trkpt>
      <trkpt lat="50.22826" lon="4.17997">
        <ele>213.646164</ele>
        <time>2023-05-18T07:43:49Z</time>
      </trkpt>
      <trkpt lat="50.2282" lon="4.17995">
        <ele>213.909393</ele>
        <time>2023-05-18T07:43:51Z</time>
      </trkpt>
      <trkpt lat="50.22813" lon="4.17991">
        <ele>214.571808</ele>
        <time>2023-05-18T07:43:53Z</time>
      </trkpt>
      <trkpt lat="50.22807" lon="4.17988">
        <ele>214.807907</ele>
        <time>2023-05-18T07:43:55Z</time>
      </trkpt>
      <trkpt lat="50.22801" lon="4.17984">
        <ele>215.140167</ele>
        <time>2023-05-18T07:43:57Z</time>
      </trkpt>
      <trkpt lat="50.22794" lon="4.17981">
        <ele>215.469208</ele>
        <time>2023-05-18T07:43:59Z</time>
      </trkpt>
      <trkpt lat="50.22791" lon="4.1798">
        <ele>215.678345</ele>
        <time>2023-05-18T07:44:00Z</time>
      </trkpt>
      <trkpt lat="50.22784" lon="4.17977">
        <ele>216.060379</ele>
        <time>2023-05-18T07:44:02Z</time>
      </trkpt>
      <trkpt lat="50.22779" lon="4.17973">
        <ele>216.487839</ele>
        <time>2023-05-18T07:44:04Z</time>
      </trkpt>
      <trkpt lat="50.22774" lon="4.1797">
        <ele>216.863403</ele>
        <time>2023-05-18T07:44:06Z</time>
      </trkpt>
      <trkpt lat="50.22769" lon="4.17969">
        <ele>217.218674</ele>
        <time>2023-05-18T07:44:08Z</time>
      </trkpt>
      <trkpt lat="50.22763" lon="4.17967">
        <ele>217.55481</ele>
        <time>2023-05-18T07:44:10Z</time>
      </trkpt>
      <trkpt lat="50.22757" lon="4.17966">
        <ele>217.934036</ele>
        <time>2023-05-18T07:44:12Z</time>
      </trkpt>
      <trkpt lat="50.22751" lon="4.17964">
        <ele>218.21756</ele>
        <time>2023-05-18T07:44:14Z</time>
      </trkpt>
      <trkpt lat="50.22744" lon="4.17961">
        <ele>218.482986</ele>
        <time>2023-05-18T07:44:16Z</time>
      </trkpt>
      <trkpt lat="50.22738" lon="4.17958">
        <ele>218.73172</ele>
        <time>2023-05-18T07:44:18Z</time>
      </trkpt>
      <trkpt lat="50.22731" lon="4.17955">
        <ele>218.978363</ele>
        <time>2023-05-18T07:44:20Z</time>
      </trkpt>
      <trkpt lat="50.22724" lon="4.17952">
        <ele>219.172775</ele>
        <time>2023-05-18T07:44:22Z</time>
      </trkpt>
      <trkpt lat="50.22717" lon="4.17949">
        <ele>219.386917</ele>
        <time>2023-05-18T07:44:24Z</time>
      </trkpt>
      <trkpt lat="50.22709" lon="4.17946">
        <ele>219.58548</ele>
        <time>2023-05-18T07:44:26Z</time>
      </trkpt>
      <trkpt lat="50.22701" lon="4.17942">
        <ele>219.723465</ele>
        <time>2023-05-18T07:44:28Z</time>
      </trkpt>
      <trkpt lat="50.22693" lon="4.17939">
        <ele>220.468781</ele>
        <time>2023-05-18T07:44:30Z</time>
      </trkpt>
      <trkpt lat="50.22685" lon="4.17936">
        <ele>220.523117</ele>
        <time>2023-05-18T07:44:32Z</time>
      </trkpt>
      <trkpt lat="50.22676" lon="4.17933">
        <ele>220.621384</ele>
        <time>2023-05-18T07:44:34Z</time>
      </trkpt>
      <trkpt lat="50.22667" lon="4.1793">
        <ele>220.727859</ele>
        <time>2023-05-18T07:44:36Z</time>
      </trkpt>
      <trkpt lat="50.22657" lon="4.17926">
        <ele>220.949921</ele>
        <time>2023-05-18T07:44:38Z</time>
      </trkpt>
      <trkpt lat="50.22648" lon="4.17923">
        <ele>221.097382</ele>
        <time>2023-05-18T07:44:40Z</time>
      </trkpt>
      <trkpt lat="50.22641" lon="4.17918">
        <ele>221.276855</ele>
        <time>2023-05-18T07:44:42Z</time>
      </trkpt>
      <trkpt lat="50.22633" lon="4.17914">
        <ele>221.344238</ele>
        <time>2023-05-18T07:44:44Z</time>
      </trkpt>
      <trkpt lat="50.22624" lon="4.1791">
        <ele>221.438324</ele>
        <time>2023-05-18T07:44:46Z</time>
      </trkpt>
      <trkpt lat="50.22615" lon="4.17907">
        <ele>221.524048</ele>
        <time>2023-05-18T07:44:48Z</time>
      </trkpt>
      <trkpt lat="50.22604" lon="4.17903">
        <ele>221.578766</ele>
        <time>2023-05-18T07:44:50Z</time>
      </trkpt>
      <trkpt lat="50.226" lon="4.17901">
        <ele>221.10881</ele>
        <time>2023-05-18T07:44:51Z</time>
      </trkpt>
      <trkpt lat="50.2259" lon="4.17897">
        <ele>221.162201</ele>
        <time>2023-05-18T07:44:53Z</time>
      </trkpt>
      <trkpt lat="50.2258" lon="4.17894">
        <ele>220.721527</ele>
        <time>2023-05-18T07:44:55Z</time>
      </trkpt>
      <trkpt lat="50.2257" lon="4.1789">
        <ele>220.28923</ele>
        <time>2023-05-18T07:44:57Z</time>
      </trkpt>
      <trkpt lat="50.22561" lon="4.17886">
        <ele>220.322678</ele>
        <time>2023-05-18T07:44:59Z</time>
      </trkpt>
      <trkpt lat="50.22552" lon="4.17882">
        <ele>220.322678</ele>
        <time>2023-05-18T07:45:01Z</time>
      </trkpt>
      <trkpt lat="50.22542" lon="4.17879">
        <ele>220.314331</ele>
        <time>2023-05-18T07:45:03Z</time>
      </trkpt>
      <trkpt lat="50.22531" lon="4.17876">
        <ele>220.314331</ele>
        <time>2023-05-18T07:45:05Z</time>
      </trkpt>
      <trkpt lat="50.22521" lon="4.17872">
        <ele>220.328979</ele>
        <time>2023-05-18T07:45:07Z</time>
      </trkpt>
      <trkpt lat="50.2251" lon="4.17868">
        <ele>220.30806</ele>
        <time>2023-05-18T07:45:09Z</time>
      </trkpt>
      <trkpt lat="50.22501" lon="4.17863">
        <ele>219.761749</ele>
        <time>2023-05-18T07:45:11Z</time>
      </trkpt>
      <trkpt lat="50.22494" lon="4.17857">
        <ele>219.834061</ele>
        <time>2023-05-18T07:45:13Z</time>
      </trkpt>
      <trkpt lat="50.2249" lon="4.17851">
        <ele>219.904755</ele>
        <time>2023-05-18T07:45:15Z</time>
      </trkpt>
      <trkpt lat="50.22492" lon="4.17855">
        <ele>219.762283</ele>
        <time>2023-05-18T07:45:21Z</time>
      </trkpt>
      <trkpt lat="50.22494" lon="4.17857">
        <ele>219.689407</ele>
        <time>2023-05-18T07:45:23Z</time>
      </trkpt>
      <trkpt lat="50.22495" lon="4.17858">
        <ele>219.659637</ele>
        <time>2023-05-18T07:45:24Z</time>
      </trkpt>
      <trkpt lat="50.22498" lon="4.17856">
        <ele>219.667999</ele>
        <time>2023-05-18T07:45:26Z</time>
      </trkpt>
      <trkpt lat="50.22502" lon="4.17852">
        <ele>219.60527</ele>
        <time>2023-05-18T07:45:28Z</time>
      </trkpt>
      <trkpt lat="50.22507" lon="4.17848">
        <ele>219.525314</ele>
        <time>2023-05-18T07:45:30Z</time>
      </trkpt>
      <trkpt lat="50.22513" lon="4.17843">
        <ele>220.012009</ele>
        <time>2023-05-18T07:45:32Z</time>
      </trkpt>
      <trkpt lat="50.2252" lon="4.17836">
        <ele>219.959747</ele>
        <time>2023-05-18T07:45:34Z</time>
      </trkpt>
      <trkpt lat="50.22527" lon="4.17828">
        <ele>220.479858</ele>
        <time>2023-05-18T07:45:36Z</time>
      </trkpt>
      <trkpt lat="50.22534" lon="4.17821">
        <ele>220.932693</ele>
        <time>2023-05-18T07:45:38Z</time>
      </trkpt>
      <trkpt lat="50.22542" lon="4.17815">
        <ele>220.966141</ele>
        <time>2023-05-18T07:45:40Z</time>
      </trkpt>
      <trkpt lat="50.22549" lon="4.17807">
        <ele>221.103928</ele>
        <time>2023-05-18T07:45:42Z</time>
      </trkpt>
      <trkpt lat="50.22556" lon="4.17798">
        <ele>221.729691</ele>
        <time>2023-05-18T07:45:44Z</time>
      </trkpt>
      <trkpt lat="50.22564" lon="4.17789">
        <ele>221.77359</ele>
        <time>2023-05-18T07:45:46Z</time>
      </trkpt>
      <trkpt lat="50.22573" lon="4.1778">
        <ele>221.795578</ele>
        <time>2023-05-18T07:45:48Z</time>
      </trkpt>
      <trkpt lat="50.22582" lon="4.17772">
        <ele>221.290085</ele>
        <time>2023-05-18T07:45:50Z</time>
      </trkpt>
      <trkpt lat="50.22591" lon="4.17764">
        <ele>221.932571</ele>
        <time>2023-05-18T07:45:52Z</time>
      </trkpt>
      <trkpt lat="50.22599" lon="4.17756">
        <ele>221.973175</ele>
        <time>2023-05-18T07:45:54Z</time>
      </trkpt>
      <trkpt lat="50.22609" lon="4.17749">
        <ele>222.030029</ele>
        <time>2023-05-18T07:45:56Z</time>
      </trkpt>
      <trkpt lat="50.22616" lon="4.1774">
        <ele>222.174286</ele>
        <time>2023-05-18T07:45:58Z</time>
      </trkpt>
      <trkpt lat="50.2262" lon="4.17735">
        <ele>222.268387</ele>
        <time>2023-05-18T07:45:59Z</time>
      </trkpt>
      <trkpt lat="50.22627" lon="4.17728">
        <ele>222.433563</ele>
        <time>2023-05-18T07:46:01Z</time>
      </trkpt>
      <trkpt lat="50.22634" lon="4.1772">
        <ele>222.630157</ele>
        <time>2023-05-18T07:46:03Z</time>
      </trkpt>
      <trkpt lat="50.22638" lon="4.17712">
        <ele>222.826736</ele>
        <time>2023-05-18T07:46:05Z</time>
      </trkpt>
      <trkpt lat="50.22639" lon="4.17699">
        <ele>222.778656</ele>
        <time>2023-05-18T07:46:07Z</time>
      </trkpt>
      <trkpt lat="50.22637" lon="4.17688">
        <ele>223.004517</ele>
        <time>2023-05-18T07:46:09Z</time>
      </trkpt>
      <trkpt lat="50.22634" lon="4.17674">
        <ele>223.214066</ele>
        <time>2023-05-18T07:46:11Z</time>
      </trkpt>
      <trkpt lat="50.2263" lon="4.17661">
        <ele>223.383453</ele>
        <time>2023-05-18T07:46:13Z</time>
      </trkpt>
      <trkpt lat="50.22625" lon="4.17648">
        <ele>223.559113</ele>
        <time>2023-05-18T07:46:15Z</time>
      </trkpt>
      <trkpt lat="50.22622" lon="4.17634">
        <ele>223.751953</ele>
        <time>2023-05-18T07:46:17Z</time>
      </trkpt>
      <trkpt lat="50.22618" lon="4.17621">
        <ele>223.881622</ele>
        <time>2023-05-18T07:46:19Z</time>
      </trkpt>
      <trkpt lat="50.22613" lon="4.17607">
        <ele>224.4366</ele>
        <time>2023-05-18T07:46:21Z</time>
      </trkpt>
      <trkpt lat="50.22609" lon="4.17592">
        <ele>224.449371</ele>
        <time>2023-05-18T07:46:23Z</time>
      </trkpt>
      <trkpt lat="50.22605" lon="4.17577">
        <ele>223.959518</ele>
        <time>2023-05-18T07:46:25Z</time>
      </trkpt>
      <trkpt lat="50.22602" lon="4.17565">
        <ele>224.547653</ele>
        <time>2023-05-18T07:46:27Z</time>
      </trkpt>
      <trkpt lat="50.22599" lon="4.17555">
        <ele>224.61557</ele>
        <time>2023-05-18T07:46:29Z</time>
      </trkpt>
      <trkpt lat="50.22596" lon="4.17545">
        <ele>225.221466</ele>
        <time>2023-05-18T07:46:31Z</time>
      </trkpt>
      <trkpt lat="50.22594" lon="4.17535">
        <ele>224.746246</ele>
        <time>2023-05-18T07:46:33Z</time>
      </trkpt>
      <trkpt lat="50.22591" lon="4.17524">
        <ele>224.744141</ele>
        <time>2023-05-18T07:46:35Z</time>
      </trkpt>
      <trkpt lat="50.22589" lon="4.17513">
        <ele>224.76506</ele>
        <time>2023-05-18T07:46:37Z</time>
      </trkpt>
      <trkpt lat="50.22586" lon="4.17502">
        <ele>224.767136</ele>
        <time>2023-05-18T07:46:39Z</time>
      </trkpt>
      <trkpt lat="50.22583" lon="4.17489">
        <ele>224.729523</ele>
        <time>2023-05-18T07:46:41Z</time>
      </trkpt>
      <trkpt lat="50.22582" lon="4.17477">
        <ele>225.156586</ele>
        <time>2023-05-18T07:46:43Z</time>
      </trkpt>
      <trkpt lat="50.22583" lon="4.17465">
        <ele>225.075027</ele>
        <time>2023-05-18T07:46:45Z</time>
      </trkpt>
      <trkpt lat="50.22579" lon="4.17453">
        <ele>225.056198</ele>
        <time>2023-05-18T07:46:47Z</time>
      </trkpt>
      <trkpt lat="50.22578" lon="4.17444">
        <ele>225.010162</ele>
        <time>2023-05-18T07:46:49Z</time>
      </trkpt>
      <trkpt lat="50.22578" lon="4.17433">
        <ele>224.899368</ele>
        <time>2023-05-18T07:46:51Z</time>
      </trkpt>
      <trkpt lat="50.22578" lon="4.17423">
        <ele>224.918503</ele>
        <time>2023-05-18T07:46:53Z</time>
      </trkpt>
      <trkpt lat="50.22575" lon="4.17413">
        <ele>224.84111</ele>
        <time>2023-05-18T07:46:55Z</time>
      </trkpt>
      <trkpt lat="50.22572" lon="4.17404">
        <ele>224.805099</ele>
        <time>2023-05-18T07:46:57Z</time>
      </trkpt>
      <trkpt lat="50.22569" lon="4.17394">
        <ele>224.779755</ele>
        <time>2023-05-18T07:46:59Z</time>
      </trkpt>
      <trkpt lat="50.2257" lon="4.1738">
        <ele>224.266998</ele>
        <time>2023-05-18T07:47:01Z</time>
      </trkpt>
      <trkpt lat="50.22569" lon="4.17366">
        <ele>223.713348</ele>
        <time>2023-05-18T07:47:03Z</time>
      </trkpt>
      <trkpt lat="50.22567" lon="4.17353">
        <ele>224.132111</ele>
        <time>2023-05-18T07:47:05Z</time>
      </trkpt>
      <trkpt lat="50.22565" lon="4.1734">
        <ele>223.621338</ele>
        <time>2023-05-18T07:47:07Z</time>
      </trkpt>
      <trkpt lat="50.22565" lon="4.17329">
        <ele>223.575348</ele>
        <time>2023-05-18T07:47:09Z</time>
      </trkpt>
      <trkpt lat="50.22564" lon="4.17314">
        <ele>223.571136</ele>
        <time>2023-05-18T07:47:11Z</time>
      </trkpt>
      <trkpt lat="50.22561" lon="4.17298">
        <ele>223.564865</ele>
        <time>2023-05-18T07:47:13Z</time>
      </trkpt>
      <trkpt lat="50.22561" lon="4.17283">
        <ele>223.516769</ele>
        <time>2023-05-18T07:47:15Z</time>
      </trkpt>
      <trkpt lat="50.22558" lon="4.17269">
        <ele>223.509186</ele>
        <time>2023-05-18T07:47:17Z</time>
      </trkpt>
      <trkpt lat="50.22555" lon="4.17252">
        <ele>223.481979</ele>
        <time>2023-05-18T07:47:19Z</time>
      </trkpt>
      <trkpt lat="50.22547" lon="4.17233">
        <ele>223.423431</ele>
        <time>2023-05-18T07:47:21Z</time>
      </trkpt>
      <trkpt lat="50.22538" lon="4.17216">
        <ele>223.381622</ele>
        <time>2023-05-18T07:47:23Z</time>
      </trkpt>
      <trkpt lat="50.22528" lon="4.17196">
        <ele>222.910614</ele>
        <time>2023-05-18T07:47:25Z</time>
      </trkpt>
      <trkpt lat="50.2252" lon="4.17181">
        <ele>222.866699</ele>
        <time>2023-05-18T07:47:27Z</time>
      </trkpt>
      <trkpt lat="50.2251" lon="4.1717">
        <ele>222.996338</ele>
        <time>2023-05-18T07:47:29Z</time>
      </trkpt>
      <trkpt lat="50.22503" lon="4.17154">
        <ele>223.021439</ele>
        <time>2023-05-18T07:47:31Z</time>
      </trkpt>
      <trkpt lat="50.22498" lon="4.1714">
        <ele>223.020599</ele>
        <time>2023-05-18T07:47:33Z</time>
      </trkpt>
      <trkpt lat="50.22493" lon="4.17128">
        <ele>223.052734</ele>
        <time>2023-05-18T07:47:35Z</time>
      </trkpt>
      <trkpt lat="50.22488" lon="4.17115">
        <ele>223.052368</ele>
        <time>2023-05-18T07:47:37Z</time>
      </trkpt>
      <trkpt lat="50.22483" lon="4.17104">
        <ele>222.918533</ele>
        <time>2023-05-18T07:47:39Z</time>
      </trkpt>
      <trkpt lat="50.22478" lon="4.17093">
        <ele>222.807938</ele>
        <time>2023-05-18T07:47:41Z</time>
      </trkpt>
      <trkpt lat="50.22473" lon="4.17081">
        <ele>223.28421</ele>
        <time>2023-05-18T07:47:43Z</time>
      </trkpt>
      <trkpt lat="50.2247" lon="4.17067">
        <ele>223.267456</ele>
        <time>2023-05-18T07:47:45Z</time>
      </trkpt>
      <trkpt lat="50.22466" lon="4.17054">
        <ele>222.658447</ele>
        <time>2023-05-18T07:47:47Z</time>
      </trkpt>
      <trkpt lat="50.22464" lon="4.17043">
        <ele>222.631256</ele>
        <time>2023-05-18T07:47:49Z</time>
      </trkpt>
      <trkpt lat="50.22461" lon="4.17027">
        <ele>222.516266</ele>
        <time>2023-05-18T07:47:51Z</time>
      </trkpt>
      <trkpt lat="50.22457" lon="4.17011">
        <ele>222.486984</ele>
        <time>2023-05-18T07:47:53Z</time>
      </trkpt>
      <trkpt lat="50.22456" lon="4.16997">
        <ele>222.371994</ele>
        <time>2023-05-18T07:47:55Z</time>
      </trkpt>
      <trkpt lat="50.22456" lon="4.16983">
        <ele>222.347488</ele>
        <time>2023-05-18T07:47:57Z</time>
      </trkpt>
      <trkpt lat="50.22456" lon="4.1697">
        <ele>222.324493</ele>
        <time>2023-05-18T07:47:59Z</time>
      </trkpt>
      <trkpt lat="50.22456" lon="4.16958">
        <ele>222.245026</ele>
        <time>2023-05-18T07:48:01Z</time>
      </trkpt>
      <trkpt lat="50.22457" lon="4.16947">
        <ele>222.126999</ele>
        <time>2023-05-18T07:48:03Z</time>
      </trkpt>
      <trkpt lat="50.22457" lon="4.16942">
        <ele>222.097733</ele>
        <time>2023-05-18T07:48:04Z</time>
      </trkpt>
      <trkpt lat="50.22458" lon="4.1693">
        <ele>221.960297</ele>
        <time>2023-05-18T07:48:06Z</time>
      </trkpt>
      <trkpt lat="50.2246" lon="4.16918">
        <ele>221.813934</ele>
        <time>2023-05-18T07:48:08Z</time>
      </trkpt>
      <trkpt lat="50.22462" lon="4.16905">
        <ele>221.535858</ele>
        <time>2023-05-18T07:48:10Z</time>
      </trkpt>
      <trkpt lat="50.22464" lon="4.16892">
        <ele>221.458527</ele>
        <time>2023-05-18T07:48:12Z</time>
      </trkpt>
      <trkpt lat="50.22465" lon="4.1688">
        <ele>221.206009</ele>
        <time>2023-05-18T07:48:14Z</time>
      </trkpt>
      <trkpt lat="50.22467" lon="4.16867">
        <ele>221.002441</ele>
        <time>2023-05-18T07:48:16Z</time>
      </trkpt>
      <trkpt lat="50.22469" lon="4.16853">
        <ele>220.785355</ele>
        <time>2023-05-18T07:48:18Z</time>
      </trkpt>
      <trkpt lat="50.22472" lon="4.1684">
        <ele>220.687958</ele>
        <time>2023-05-18T07:48:20Z</time>
      </trkpt>
      <trkpt lat="50.22475" lon="4.16826">
        <ele>220.535187</ele>
        <time>2023-05-18T07:48:22Z</time>
      </trkpt>
      <trkpt lat="50.22479" lon="4.16813">
        <ele>220.424393</ele>
        <time>2023-05-18T07:48:24Z</time>
      </trkpt>
      <trkpt lat="50.22482" lon="4.168">
        <ele>220.217407</ele>
        <time>2023-05-18T07:48:26Z</time>
      </trkpt>
      <trkpt lat="50.22485" lon="4.16786">
        <ele>220.079437</ele>
        <time>2023-05-18T07:48:28Z</time>
      </trkpt>
      <trkpt lat="50.22488" lon="4.16774">
        <ele>219.826508</ele>
        <time>2023-05-18T07:48:30Z</time>
      </trkpt>
      <trkpt lat="50.22492" lon="4.16761">
        <ele>219.665558</ele>
        <time>2023-05-18T07:48:32Z</time>
      </trkpt>
      <trkpt lat="50.22496" lon="4.16748">
        <ele>219.4384</ele>
        <time>2023-05-18T07:48:34Z</time>
      </trkpt>
      <trkpt lat="50.225" lon="4.16735">
        <ele>219.361038</ele>
        <time>2023-05-18T07:48:36Z</time>
      </trkpt>
      <trkpt lat="50.22504" lon="4.16721">
        <ele>219.037796</ele>
        <time>2023-05-18T07:48:38Z</time>
      </trkpt>
      <trkpt lat="50.22508" lon="4.16709">
        <ele>218.483963</ele>
        <time>2023-05-18T07:48:40Z</time>
      </trkpt>
      <trkpt lat="50.2251" lon="4.16699">
        <ele>218.189255</ele>
        <time>2023-05-18T07:48:42Z</time>
      </trkpt>
      <trkpt lat="50.22509" lon="4.16688">
        <ele>217.928879</ele>
        <time>2023-05-18T07:48:44Z</time>
      </trkpt>
      <trkpt lat="50.22503" lon="4.1668">
        <ele>217.728516</ele>
        <time>2023-05-18T07:48:46Z</time>
      </trkpt>
      <trkpt lat="50.22496" lon="4.16672">
        <ele>217.624542</ele>
        <time>2023-05-18T07:48:48Z</time>
      </trkpt>
      <trkpt lat="50.22488" lon="4.16662">
        <ele>217.417633</ele>
        <time>2023-05-18T07:48:50Z</time>
      </trkpt>
      <trkpt lat="50.2248" lon="4.16653">
        <ele>217.233719</ele>
        <time>2023-05-18T07:48:52Z</time>
      </trkpt>
      <trkpt lat="50.22471" lon="4.16646">
        <ele>216.85965</ele>
        <time>2023-05-18T07:48:54Z</time>
      </trkpt>
      <trkpt lat="50.22461" lon="4.16642">
        <ele>216.470947</ele>
        <time>2023-05-18T07:48:56Z</time>
      </trkpt>
      <trkpt lat="50.2245" lon="4.16636">
        <ele>216.178391</ele>
        <time>2023-05-18T07:48:58Z</time>
      </trkpt>
      <trkpt lat="50.2244" lon="4.1663">
        <ele>215.85379</ele>
        <time>2023-05-18T07:49:00Z</time>
      </trkpt>
      <trkpt lat="50.22429" lon="4.16624">
        <ele>215.553864</ele>
        <time>2023-05-18T07:49:02Z</time>
      </trkpt>
      <trkpt lat="50.22416" lon="4.16619">
        <ele>215.165939</ele>
        <time>2023-05-18T07:49:04Z</time>
      </trkpt>
      <trkpt lat="50.22403" lon="4.16614">
        <ele>214.733475</ele>
        <time>2023-05-18T07:49:06Z</time>
      </trkpt>
      <trkpt lat="50.22388" lon="4.1661">
        <ele>214.353149</ele>
        <time>2023-05-18T07:49:08Z</time>
      </trkpt>
      <trkpt lat="50.22374" lon="4.16604">
        <ele>214.079498</ele>
        <time>2023-05-18T07:49:10Z</time>
      </trkpt>
      <trkpt lat="50.22361" lon="4.16595">
        <ele>213.605545</ele>
        <time>2023-05-18T07:49:12Z</time>
      </trkpt>
      <trkpt lat="50.22348" lon="4.16587">
        <ele>213.107635</ele>
        <time>2023-05-18T07:49:14Z</time>
      </trkpt>
      <trkpt lat="50.22342" lon="4.16582">
        <ele>212.917526</ele>
        <time>2023-05-18T07:49:15Z</time>
      </trkpt>
      <trkpt lat="50.22336" lon="4.16573">
        <ele>212.357574</ele>
        <time>2023-05-18T07:49:17Z</time>
      </trkpt>
      <trkpt lat="50.22327" lon="4.1656">
        <ele>211.958542</ele>
        <time>2023-05-18T07:49:19Z</time>
      </trkpt>
      <trkpt lat="50.22318" lon="4.16547">
        <ele>211.726685</ele>
        <time>2023-05-18T07:49:20Z</time>
      </trkpt>
      <trkpt lat="50.22314" lon="4.16539">
        <ele>211.398682</ele>
        <time>2023-05-18T07:49:23Z</time>
      </trkpt>
      <trkpt lat="50.22314" lon="4.16532">
        <ele>208.045868</ele>
        <time>2023-05-18T07:49:42Z</time>
      </trkpt>
      <trkpt lat="50.22316" lon="4.16528">
        <ele>207.648468</ele>
        <time>2023-05-18T07:49:44Z</time>
      </trkpt>
      <trkpt lat="50.22319" lon="4.16523">
        <ele>207.405563</ele>
        <time>2023-05-18T07:49:46Z</time>
      </trkpt>
      <trkpt lat="50.22323" lon="4.16516">
        <ele>207.098831</ele>
        <time>2023-05-18T07:49:48Z</time>
      </trkpt>
      <trkpt lat="50.22328" lon="4.16506">
        <ele>206.81485</ele>
        <time>2023-05-18T07:49:50Z</time>
      </trkpt>
      <trkpt lat="50.22333" lon="4.16496">
        <ele>206.547211</ele>
        <time>2023-05-18T07:49:52Z</time>
      </trkpt>
      <trkpt lat="50.22335" lon="4.16488">
        <ele>206.469681</ele>
        <time>2023-05-18T07:49:54Z</time>
      </trkpt>
      <trkpt lat="50.22337" lon="4.16483">
        <ele>206.369461</ele>
        <time>2023-05-18T07:49:56Z</time>
      </trkpt>
      <trkpt lat="50.22339" lon="4.16475">
        <ele>206.238525</ele>
        <time>2023-05-18T07:49:58Z</time>
      </trkpt>
      <trkpt lat="50.2234" lon="4.16469">
        <ele>206.114914</ele>
        <time>2023-05-18T07:50:00Z</time>
      </trkpt>
      <trkpt lat="50.2234" lon="4.1646">
        <ele>206.066864</ele>
        <time>2023-05-18T07:50:02Z</time>
      </trkpt>
      <trkpt lat="50.22337" lon="4.16452">
        <ele>205.966705</ele>
        <time>2023-05-18T07:50:04Z</time>
      </trkpt>
      <trkpt lat="50.22334" lon="4.16444">
        <ele>205.924957</ele>
        <time>2023-05-18T07:50:06Z</time>
      </trkpt>
      <trkpt lat="50.22333" lon="4.16434">
        <ele>205.853119</ele>
        <time>2023-05-18T07:50:08Z</time>
      </trkpt>
      <trkpt lat="50.22335" lon="4.16424">
        <ele>205.783569</ele>
        <time>2023-05-18T07:50:10Z</time>
      </trkpt>
      <trkpt lat="50.22334" lon="4.16414">
        <ele>205.744659</ele>
        <time>2023-05-18T07:50:12Z</time>
      </trkpt>
      <trkpt lat="50.22335" lon="4.16401">
        <ele>205.652802</ele>
        <time>2023-05-18T07:50:14Z</time>
      </trkpt>
      <trkpt lat="50.22334" lon="4.16391">
        <ele>205.604782</ele>
        <time>2023-05-18T07:50:16Z</time>
      </trkpt>
      <trkpt lat="50.22335" lon="4.16381">
        <ele>205.598999</ele>
        <time>2023-05-18T07:50:18Z</time>
      </trkpt>
      <trkpt lat="50.22338" lon="4.16372">
        <ele>205.654785</ele>
        <time>2023-05-18T07:50:20Z</time>
      </trkpt>
      <trkpt lat="50.2234" lon="4.16367">
        <ele>205.692291</ele>
        <time>2023-05-18T07:50:22Z</time>
      </trkpt>
      <trkpt lat="50.2234" lon="4.16361">
        <ele>205.702545</ele>
        <time>2023-05-18T07:50:24Z</time>
      </trkpt>
      <trkpt lat="50.22343" lon="4.16351">
        <ele>205.761673</ele>
        <time>2023-05-18T07:50:26Z</time>
      </trkpt>
      <trkpt lat="50.22342" lon="4.16344">
        <ele>205.838577</ele>
        <time>2023-05-18T07:50:28Z</time>
      </trkpt>
      <trkpt lat="50.2234" lon="4.16341">
        <ele>205.946823</ele>
        <time>2023-05-18T07:50:30Z</time>
      </trkpt>
      <trkpt lat="50.22342" lon="4.16336">
        <ele>206.099243</ele>
        <time>2023-05-18T07:50:32Z</time>
      </trkpt>
      <trkpt lat="50.22343" lon="4.16331">
        <ele>206.166061</ele>
        <time>2023-05-18T07:50:34Z</time>
      </trkpt>
      <trkpt lat="50.22342" lon="4.16326">
        <ele>206.194183</ele>
        <time>2023-05-18T07:50:36Z</time>
      </trkpt>
      <trkpt lat="50.2234" lon="4.16322">
        <ele>206.15596</ele>
        <time>2023-05-18T07:50:38Z</time>
      </trkpt>
      <trkpt lat="50.22339" lon="4.16318">
        <ele>206.163651</ele>
        <time>2023-05-18T07:50:40Z</time>
      </trkpt>
      <trkpt lat="50.22338" lon="4.16314">
        <ele>206.080154</ele>
        <time>2023-05-18T07:50:42Z</time>
      </trkpt>
      <trkpt lat="50.22335" lon="4.1631">
        <ele>205.942673</ele>
        <time>2023-05-18T07:50:46Z</time>
      </trkpt>
      <trkpt lat="50.22332" lon="4.16299">
        <ele>205.479691</ele>
        <time>2023-05-18T07:50:54Z</time>
      </trkpt>
      <trkpt lat="50.22327" lon="4.16297">
        <ele>205.325241</ele>
        <time>2023-05-18T07:50:56Z</time>
      </trkpt>
      <trkpt lat="50.22326" lon="4.16299">
        <ele>205.085236</ele>
        <time>2023-05-18T07:50:58Z</time>
      </trkpt>
      <trkpt lat="50.22323" lon="4.16306">
        <ele>204.788727</ele>
        <time>2023-05-18T07:51:00Z</time>
      </trkpt>
      <trkpt lat="50.22323" lon="4.16311">
        <ele>204.547974</ele>
        <time>2023-05-18T07:51:02Z</time>
      </trkpt>
      <trkpt lat="50.22322" lon="4.16316">
        <ele>204.270111</ele>
        <time>2023-05-18T07:51:04Z</time>
      </trkpt>
      <trkpt lat="50.2232" lon="4.16321">
        <ele>203.970413</ele>
        <time>2023-05-18T07:51:06Z</time>
      </trkpt>
      <trkpt lat="50.22318" lon="4.16322">
        <ele>203.60321</ele>
        <time>2023-05-18T07:51:08Z</time>
      </trkpt>
      <trkpt lat="50.22316" lon="4.16324">
        <ele>203.252563</ele>
        <time>2023-05-18T07:51:10Z</time>
      </trkpt>
      <trkpt lat="50.22315" lon="4.16326">
        <ele>202.843765</ele>
        <time>2023-05-18T07:51:12Z</time>
      </trkpt>
      <trkpt lat="50.22316" lon="4.1633">
        <ele>202.443024</ele>
        <time>2023-05-18T07:51:14Z</time>
      </trkpt>
      <trkpt lat="50.22315" lon="4.16336">
        <ele>202.022827</ele>
        <time>2023-05-18T07:51:16Z</time>
      </trkpt>
      <trkpt lat="50.22312" lon="4.16339">
        <ele>201.694138</ele>
        <time>2023-05-18T07:51:18Z</time>
      </trkpt>
      <trkpt lat="50.2231" lon="4.16342">
        <ele>201.28302</ele>
        <time>2023-05-18T07:51:20Z</time>
      </trkpt>
      <trkpt lat="50.22309" lon="4.16343">
        <ele>200.908478</ele>
        <time>2023-05-18T07:51:22Z</time>
      </trkpt>
      <trkpt lat="50.22305" lon="4.16346">
        <ele>200.078156</ele>
        <time>2023-05-18T07:51:26Z</time>
      </trkpt>
      <trkpt lat="50.22304" lon="4.16345">
        <ele>199.932098</ele>
        <time>2023-05-18T07:51:28Z</time>
      </trkpt>
      <trkpt lat="50.22301" lon="4.16348">
        <ele>199.54985</ele>
        <time>2023-05-18T07:51:30Z</time>
      </trkpt>
      <trkpt lat="50.223" lon="4.16349">
        <ele>199.224976</ele>
        <time>2023-05-18T07:51:32Z</time>
      </trkpt>
      <trkpt lat="50.22297" lon="4.16353">
        <ele>199.009613</ele>
        <time>2023-05-18T07:51:34Z</time>
      </trkpt>
      <trkpt lat="50.22295" lon="4.16355">
        <ele>198.739761</ele>
        <time>2023-05-18T07:51:36Z</time>
      </trkpt>
      <trkpt lat="50.22294" lon="4.16358">
        <ele>198.545349</ele>
        <time>2023-05-18T07:51:38Z</time>
      </trkpt>
      <trkpt lat="50.22295" lon="4.1636">
        <ele>198.332138</ele>
        <time>2023-05-18T07:51:40Z</time>
      </trkpt>
      <trkpt lat="50.22296" lon="4.16365">
        <ele>198.080948</ele>
        <time>2023-05-18T07:51:42Z</time>
      </trkpt>
      <trkpt lat="50.22296" lon="4.16372">
        <ele>197.891449</ele>
        <time>2023-05-18T07:51:44Z</time>
      </trkpt>
      <trkpt lat="50.22296" lon="4.16381">
        <ele>197.767471</ele>
        <time>2023-05-18T07:51:46Z</time>
      </trkpt>
      <trkpt lat="50.22295" lon="4.16389">
        <ele>197.727814</ele>
        <time>2023-05-18T07:51:48Z</time>
      </trkpt>
      <trkpt lat="50.22295" lon="4.16396">
        <ele>197.638123</ele>
        <time>2023-05-18T07:51:50Z</time>
      </trkpt>
      <trkpt lat="50.22295" lon="4.16401">
        <ele>197.54425</ele>
        <time>2023-05-18T07:51:52Z</time>
      </trkpt>
      <trkpt lat="50.22293" lon="4.16408">
        <ele>197.531723</ele>
        <time>2023-05-18T07:51:54Z</time>
      </trkpt>
      <trkpt lat="50.22288" lon="4.16411">
        <ele>197.564056</ele>
        <time>2023-05-18T07:51:58Z</time>
      </trkpt>
      <trkpt lat="50.22284" lon="4.16412">
        <ele>197.649597</ele>
        <time>2023-05-18T07:52:00Z</time>
      </trkpt>
      <trkpt lat="50.22281" lon="4.16413">
        <ele>197.753922</ele>
        <time>2023-05-18T07:52:02Z</time>
      </trkpt>
      <trkpt lat="50.22276" lon="4.16413">
        <ele>197.85614</ele>
        <time>2023-05-18T07:52:04Z</time>
      </trkpt>
      <trkpt lat="50.22273" lon="4.16415">
        <ele>198.028778</ele>
        <time>2023-05-18T07:52:06Z</time>
      </trkpt>
      <trkpt lat="50.22269" lon="4.16421">
        <ele>198.089294</ele>
        <time>2023-05-18T07:52:08Z</time>
      </trkpt>
      <trkpt lat="50.22268" lon="4.16429">
        <ele>198.792999</ele>
        <time>2023-05-18T07:52:10Z</time>
      </trkpt>
      <trkpt lat="50.22268" lon="4.16438">
        <ele>198.953644</ele>
        <time>2023-05-18T07:52:12Z</time>
      </trkpt>
      <trkpt lat="50.22268" lon="4.16446">
        <ele>199.100113</ele>
        <time>2023-05-18T07:52:14Z</time>
      </trkpt>
      <trkpt lat="50.22268" lon="4.16454">
        <ele>199.209305</ele>
        <time>2023-05-18T07:52:16Z</time>
      </trkpt>
      <trkpt lat="50.22269" lon="4.1646">
        <ele>199.898819</ele>
        <time>2023-05-18T07:52:18Z</time>
      </trkpt>
      <trkpt lat="50.22269" lon="4.16467">
        <ele>200.055969</ele>
        <time>2023-05-18T07:52:20Z</time>
      </trkpt>
      <trkpt lat="50.22269" lon="4.16474">
        <ele>200.176971</ele>
        <time>2023-05-18T07:52:22Z</time>
      </trkpt>
      <trkpt lat="50.22269" lon="4.16479">
        <ele>200.300064</ele>
        <time>2023-05-18T07:52:24Z</time>
      </trkpt>
      <trkpt lat="50.22269" lon="4.16481">
        <ele>200.454453</ele>
        <time>2023-05-18T07:52:28Z</time>
      </trkpt>
      <trkpt lat="50.22269" lon="4.16485">
        <ele>200.667007</ele>
        <time>2023-05-18T07:52:34Z</time>
      </trkpt>
      <trkpt lat="50.22267" lon="4.16487">
        <ele>200.689392</ele>
        <time>2023-05-18T07:52:36Z</time>
      </trkpt>
      <trkpt lat="50.22267" lon="4.16485">
        <ele>195.12999</ele>
        <time>2023-05-18T07:58:03Z</time>
      </trkpt>
      <trkpt lat="50.22268" lon="4.16487">
        <ele>195.153839</ele>
        <time>2023-05-18T07:58:05Z</time>
      </trkpt>
      <trkpt lat="50.22267" lon="4.16496">
        <ele>195.765457</ele>
        <time>2023-05-18T07:58:21Z</time>
      </trkpt>
      <trkpt lat="50.22265" lon="4.16506">
        <ele>195.924759</ele>
        <time>2023-05-18T07:58:23Z</time>
      </trkpt>
      <trkpt lat="50.22263" lon="4.1651">
        <ele>196.114578</ele>
        <time>2023-05-18T07:58:25Z</time>
      </trkpt>
      <trkpt lat="50.22263" lon="4.16512">
        <ele>196.189667</ele>
        <time>2023-05-18T07:58:26Z</time>
      </trkpt>
      <trkpt lat="50.2226" lon="4.16515">
        <ele>199.955597</ele>
        <time>2023-05-18T07:58:49Z</time>
      </trkpt>
      <trkpt lat="50.22253" lon="4.16516">
        <ele>200.226837</ele>
        <time>2023-05-18T07:58:51Z</time>
      </trkpt>
      <trkpt lat="50.22249" lon="4.16516">
        <ele>200.539825</ele>
        <time>2023-05-18T07:58:53Z</time>
      </trkpt>
      <trkpt lat="50.22245" lon="4.16516">
        <ele>200.882034</ele>
        <time>2023-05-18T07:58:55Z</time>
      </trkpt>
      <trkpt lat="50.2224" lon="4.16517">
        <ele>201.01767</ele>
        <time>2023-05-18T07:58:57Z</time>
      </trkpt>
      <trkpt lat="50.22235" lon="4.16517">
        <ele>201.274323</ele>
        <time>2023-05-18T07:58:59Z</time>
      </trkpt>
      <trkpt lat="50.22229" lon="4.16516">
        <ele>201.546722</ele>
        <time>2023-05-18T07:59:01Z</time>
      </trkpt>
      <trkpt lat="50.22225" lon="4.16516">
        <ele>201.847565</ele>
        <time>2023-05-18T07:59:03Z</time>
      </trkpt>
      <trkpt lat="50.22222" lon="4.16516">
        <ele>202.166077</ele>
        <time>2023-05-18T07:59:05Z</time>
      </trkpt>
      <trkpt lat="50.22216" lon="4.16516">
        <ele>202.498734</ele>
        <time>2023-05-18T07:59:07Z</time>
      </trkpt>
      <trkpt lat="50.22209" lon="4.16516">
        <ele>203.3246</ele>
        <time>2023-05-18T07:59:09Z</time>
      </trkpt>
      <trkpt lat="50.22205" lon="4.16517">
        <ele>203.660629</ele>
        <time>2023-05-18T07:59:11Z</time>
      </trkpt>
      <trkpt lat="50.22199" lon="4.16516">
        <ele>203.948669</ele>
        <time>2023-05-18T07:59:13Z</time>
      </trkpt>
      <trkpt lat="50.22192" lon="4.16516">
        <ele>203.724945</ele>
        <time>2023-05-18T07:59:15Z</time>
      </trkpt>
      <trkpt lat="50.22183" lon="4.16514">
        <ele>203.958725</ele>
        <time>2023-05-18T07:59:17Z</time>
      </trkpt>
      <trkpt lat="50.22176" lon="4.16513">
        <ele>204.184174</ele>
        <time>2023-05-18T07:59:19Z</time>
      </trkpt>
      <trkpt lat="50.22169" lon="4.16511">
        <ele>204.305237</ele>
        <time>2023-05-18T07:59:21Z</time>
      </trkpt>
      <trkpt lat="50.22162" lon="4.16509">
        <ele>204.394989</ele>
        <time>2023-05-18T07:59:23Z</time>
      </trkpt>
      <trkpt lat="50.22154" lon="4.16507">
        <ele>204.486832</ele>
        <time>2023-05-18T07:59:25Z</time>
      </trkpt>
      <trkpt lat="50.22146" lon="4.16505">
        <ele>204.572418</ele>
        <time>2023-05-18T07:59:27Z</time>
      </trkpt>
      <trkpt lat="50.22138" lon="4.16503">
        <ele>204.65799</ele>
        <time>2023-05-18T07:59:29Z</time>
      </trkpt>
      <trkpt lat="50.22129" lon="4.16502">
        <ele>204.797852</ele>
        <time>2023-05-18T07:59:31Z</time>
      </trkpt>
      <trkpt lat="50.22121" lon="4.165">
        <ele>205.025391</ele>
        <time>2023-05-18T07:59:33Z</time>
      </trkpt>
      <trkpt lat="50.22114" lon="4.16498">
        <ele>205.033737</ele>
        <time>2023-05-18T07:59:35Z</time>
      </trkpt>
      <trkpt lat="50.22105" lon="4.16496">
        <ele>205.138138</ele>
        <time>2023-05-18T07:59:37Z</time>
      </trkpt>
      <trkpt lat="50.22097" lon="4.16495">
        <ele>205.290527</ele>
        <time>2023-05-18T07:59:39Z</time>
      </trkpt>
      <trkpt lat="50.22089" lon="4.16493">
        <ele>205.480499</ele>
        <time>2023-05-18T07:59:41Z</time>
      </trkpt>
      <trkpt lat="50.22082" lon="4.16492">
        <ele>205.661011</ele>
        <time>2023-05-18T07:59:43Z</time>
      </trkpt>
      <trkpt lat="50.22075" lon="4.16492">
        <ele>205.773285</ele>
        <time>2023-05-18T07:59:45Z</time>
      </trkpt>
      <trkpt lat="50.22067" lon="4.16492">
        <ele>205.937408</ele>
        <time>2023-05-18T07:59:47Z</time>
      </trkpt>
      <trkpt lat="50.22059" lon="4.16492">
        <ele>206.018829</ele>
        <time>2023-05-18T07:59:49Z</time>
      </trkpt>
      <trkpt lat="50.22052" lon="4.16492">
        <ele>206.137848</ele>
        <time>2023-05-18T07:59:51Z</time>
      </trkpt>
      <trkpt lat="50.22044" lon="4.16493">
        <ele>206.238068</ele>
        <time>2023-05-18T07:59:53Z</time>
      </trkpt>
      <trkpt lat="50.22038" lon="4.16493">
        <ele>206.246414</ele>
        <time>2023-05-18T07:59:55Z</time>
      </trkpt>
      <trkpt lat="50.22031" lon="4.16494">
        <ele>206.32785</ele>
        <time>2023-05-18T07:59:57Z</time>
      </trkpt>
      <trkpt lat="50.22026" lon="4.16494">
        <ele>206.553345</ele>
        <time>2023-05-18T07:59:59Z</time>
      </trkpt>
      <trkpt lat="50.2202" lon="4.16494">
        <ele>206.760086</ele>
        <time>2023-05-18T08:00:01Z</time>
      </trkpt>
      <trkpt lat="50.22014" lon="4.16494">
        <ele>206.9814</ele>
        <time>2023-05-18T08:00:03Z</time>
      </trkpt>
      <trkpt lat="50.22007" lon="4.16494">
        <ele>207.150543</ele>
        <time>2023-05-18T08:00:05Z</time>
      </trkpt>
      <trkpt lat="50.22002" lon="4.16493">
        <ele>207.378128</ele>
        <time>2023-05-18T08:00:07Z</time>
      </trkpt>
      <trkpt lat="50.21996" lon="4.16492">
        <ele>207.628708</ele>
        <time>2023-05-18T08:00:09Z</time>
      </trkpt>
      <trkpt lat="50.2199" lon="4.16492">
        <ele>207.883469</ele>
        <time>2023-05-18T08:00:11Z</time>
      </trkpt>
      <trkpt lat="50.21984" lon="4.16491">
        <ele>208.154938</ele>
        <time>2023-05-18T08:00:13Z</time>
      </trkpt>
      <trkpt lat="50.21978" lon="4.16491">
        <ele>208.303223</ele>
        <time>2023-05-18T08:00:15Z</time>
      </trkpt>
      <trkpt lat="50.21972" lon="4.1649">
        <ele>208.758469</ele>
        <time>2023-05-18T08:00:17Z</time>
      </trkpt>
      <trkpt lat="50.21966" lon="4.16489">
        <ele>208.887939</ele>
        <time>2023-05-18T08:00:19Z</time>
      </trkpt>
      <trkpt lat="50.21959" lon="4.16488">
        <ele>209.079391</ele>
        <time>2023-05-18T08:00:21Z</time>
      </trkpt>
      <trkpt lat="50.21953" lon="4.16488">
        <ele>209.304535</ele>
        <time>2023-05-18T08:00:23Z</time>
      </trkpt>
      <trkpt lat="50.21946" lon="4.16487">
        <ele>209.54776</ele>
        <time>2023-05-18T08:00:25Z</time>
      </trkpt>
      <trkpt lat="50.2194" lon="4.16487">
        <ele>209.760162</ele>
        <time>2023-05-18T08:00:27Z</time>
      </trkpt>
      <trkpt lat="50.21934" lon="4.16486">
        <ele>209.989899</ele>
        <time>2023-05-18T08:00:29Z</time>
      </trkpt>
      <trkpt lat="50.21928" lon="4.16486">
        <ele>210.248901</ele>
        <time>2023-05-18T08:00:31Z</time>
      </trkpt>
      <trkpt lat="50.21922" lon="4.16486">
        <ele>210.453583</ele>
        <time>2023-05-18T08:00:33Z</time>
      </trkpt>
      <trkpt lat="50.21915" lon="4.16486">
        <ele>210.679123</ele>
        <time>2023-05-18T08:00:35Z</time>
      </trkpt>
      <trkpt lat="50.21909" lon="4.16486">
        <ele>210.946457</ele>
        <time>2023-05-18T08:00:37Z</time>
      </trkpt>
      <trkpt lat="50.21903" lon="4.16486">
        <ele>211.159546</ele>
        <time>2023-05-18T08:00:39Z</time>
      </trkpt>
      <trkpt lat="50.21896" lon="4.16487">
        <ele>211.368439</ele>
        <time>2023-05-18T08:00:41Z</time>
      </trkpt>
      <trkpt lat="50.2189" lon="4.16489">
        <ele>211.589874</ele>
        <time>2023-05-18T08:00:43Z</time>
      </trkpt>
      <trkpt lat="50.21883" lon="4.16491">
        <ele>211.825897</ele>
        <time>2023-05-18T08:00:45Z</time>
      </trkpt>
      <trkpt lat="50.21876" lon="4.16495">
        <ele>212.064041</ele>
        <time>2023-05-18T08:00:47Z</time>
      </trkpt>
      <trkpt lat="50.2187" lon="4.16498">
        <ele>212.358612</ele>
        <time>2023-05-18T08:00:49Z</time>
      </trkpt>
      <trkpt lat="50.21863" lon="4.16501">
        <ele>212.540359</ele>
        <time>2023-05-18T08:00:51Z</time>
      </trkpt>
      <trkpt lat="50.21856" lon="4.16505">
        <ele>212.702957</ele>
        <time>2023-05-18T08:00:53Z</time>
      </trkpt>
      <trkpt lat="50.21849" lon="4.16508">
        <ele>212.796951</ele>
        <time>2023-05-18T08:00:55Z</time>
      </trkpt>
      <trkpt lat="50.21842" lon="4.1651">
        <ele>212.895142</ele>
        <time>2023-05-18T08:00:57Z</time>
      </trkpt>
      <trkpt lat="50.21836" lon="4.16512">
        <ele>213.048065</ele>
        <time>2023-05-18T08:00:59Z</time>
      </trkpt>
      <trkpt lat="50.21829" lon="4.16515">
        <ele>213.34964</ele>
        <time>2023-05-18T08:01:01Z</time>
      </trkpt>
      <trkpt lat="50.21823" lon="4.16518">
        <ele>213.577759</ele>
        <time>2023-05-18T08:01:03Z</time>
      </trkpt>
      <trkpt lat="50.21817" lon="4.16521">
        <ele>213.777466</ele>
        <time>2023-05-18T08:01:05Z</time>
      </trkpt>
      <trkpt lat="50.21811" lon="4.16523">
        <ele>213.986328</ele>
        <time>2023-05-18T08:01:07Z</time>
      </trkpt>
      <trkpt lat="50.21805" lon="4.16525">
        <ele>214.222748</ele>
        <time>2023-05-18T08:01:09Z</time>
      </trkpt>
      <trkpt lat="50.218" lon="4.16524">
        <ele>214.500687</ele>
        <time>2023-05-18T08:01:11Z</time>
      </trkpt>
      <trkpt lat="50.21795" lon="4.16523">
        <ele>214.73262</ele>
        <time>2023-05-18T08:01:13Z</time>
      </trkpt>
      <trkpt lat="50.21789" lon="4.16522">
        <ele>215.050262</ele>
        <time>2023-05-18T08:01:15Z</time>
      </trkpt>
      <trkpt lat="50.21783" lon="4.16521">
        <ele>215.340729</ele>
        <time>2023-05-18T08:01:17Z</time>
      </trkpt>
      <trkpt lat="50.21777" lon="4.16522">
        <ele>215.685547</ele>
        <time>2023-05-18T08:01:19Z</time>
      </trkpt>
      <trkpt lat="50.21772" lon="4.16525">
        <ele>215.973953</ele>
        <time>2023-05-18T08:01:21Z</time>
      </trkpt>
      <trkpt lat="50.21767" lon="4.16527">
        <ele>216.247726</ele>
        <time>2023-05-18T08:01:23Z</time>
      </trkpt>
      <trkpt lat="50.21762" lon="4.16527">
        <ele>216.596756</ele>
        <time>2023-05-18T08:01:25Z</time>
      </trkpt>
      <trkpt lat="50.21756" lon="4.16527">
        <ele>216.755615</ele>
        <time>2023-05-18T08:01:27Z</time>
      </trkpt>
      <trkpt lat="50.21751" lon="4.16526">
        <ele>217.190353</ele>
        <time>2023-05-18T08:01:29Z</time>
      </trkpt>
      <trkpt lat="50.21744" lon="4.16524">
        <ele>217.508087</ele>
        <time>2023-05-18T08:01:31Z</time>
      </trkpt>
      <trkpt lat="50.21738" lon="4.16523">
        <ele>217.942841</ele>
        <time>2023-05-18T08:01:33Z</time>
      </trkpt>
      <trkpt lat="50.21732" lon="4.16522">
        <ele>218.402985</ele>
        <time>2023-05-18T08:01:35Z</time>
      </trkpt>
      <trkpt lat="50.21726" lon="4.16521">
        <ele>218.902512</ele>
        <time>2023-05-18T08:01:37Z</time>
      </trkpt>
      <trkpt lat="50.2172" lon="4.1652">
        <ele>219.361649</ele>
        <time>2023-05-18T08:01:39Z</time>
      </trkpt>
      <trkpt lat="50.21714" lon="4.16518">
        <ele>219.670654</ele>
        <time>2023-05-18T08:01:41Z</time>
      </trkpt>
      <trkpt lat="50.21709" lon="4.16517">
        <ele>220.113815</ele>
        <time>2023-05-18T08:01:43Z</time>
      </trkpt>
      <trkpt lat="50.21703" lon="4.16516">
        <ele>220.563202</ele>
        <time>2023-05-18T08:01:45Z</time>
      </trkpt>
      <trkpt lat="50.21696" lon="4.16515">
        <ele>221.102997</ele>
        <time>2023-05-18T08:01:47Z</time>
      </trkpt>
      <trkpt lat="50.2169" lon="4.16512">
        <ele>221.566895</ele>
        <time>2023-05-18T08:01:49Z</time>
      </trkpt>
      <trkpt lat="50.21683" lon="4.1651">
        <ele>221.899338</ele>
        <time>2023-05-18T08:01:51Z</time>
      </trkpt>
      <trkpt lat="50.21676" lon="4.16506">
        <ele>222.329865</ele>
        <time>2023-05-18T08:01:53Z</time>
      </trkpt>
      <trkpt lat="50.21671" lon="4.16504">
        <ele>222.718796</ele>
        <time>2023-05-18T08:01:55Z</time>
      </trkpt>
      <trkpt lat="50.21667" lon="4.16503">
        <ele>223.097244</ele>
        <time>2023-05-18T08:01:57Z</time>
      </trkpt>
      <trkpt lat="50.21663" lon="4.16504">
        <ele>223.47612</ele>
        <time>2023-05-18T08:01:59Z</time>
      </trkpt>
      <trkpt lat="50.2166" lon="4.16509">
        <ele>223.825348</ele>
        <time>2023-05-18T08:02:01Z</time>
      </trkpt>
      <trkpt lat="50.21656" lon="4.1651">
        <ele>224.026093</ele>
        <time>2023-05-18T08:02:03Z</time>
      </trkpt>
      <trkpt lat="50.2165" lon="4.1651">
        <ele>224.301178</ele>
        <time>2023-05-18T08:02:05Z</time>
      </trkpt>
      <trkpt lat="50.21645" lon="4.16508">
        <ele>224.656708</ele>
        <time>2023-05-18T08:02:07Z</time>
      </trkpt>
      <trkpt lat="50.2164" lon="4.16505">
        <ele>224.95195</ele>
        <time>2023-05-18T08:02:09Z</time>
      </trkpt>
      <trkpt lat="50.21634" lon="4.16505">
        <ele>225.223846</ele>
        <time>2023-05-18T08:02:11Z</time>
      </trkpt>
      <trkpt lat="50.21627" lon="4.16505">
        <ele>225.55014</ele>
        <time>2023-05-18T08:02:13Z</time>
      </trkpt>
      <trkpt lat="50.21621" lon="4.16506">
        <ele>225.813812</ele>
        <time>2023-05-18T08:02:15Z</time>
      </trkpt>
      <trkpt lat="50.21613" lon="4.16506">
        <ele>226.073273</ele>
        <time>2023-05-18T08:02:17Z</time>
      </trkpt>
      <trkpt lat="50.21607" lon="4.16504">
        <ele>226.350174</ele>
        <time>2023-05-18T08:02:19Z</time>
      </trkpt>
      <trkpt lat="50.21602" lon="4.16501">
        <ele>226.636795</ele>
        <time>2023-05-18T08:02:21Z</time>
      </trkpt>
      <trkpt lat="50.21597" lon="4.16497">
        <ele>226.902908</ele>
        <time>2023-05-18T08:02:23Z</time>
      </trkpt>
      <trkpt lat="50.21592" lon="4.16496">
        <ele>227.204147</ele>
        <time>2023-05-18T08:02:25Z</time>
      </trkpt>
      <trkpt lat="50.21585" lon="4.16496">
        <ele>227.426788</ele>
        <time>2023-05-18T08:02:27Z</time>
      </trkpt>
      <trkpt lat="50.21577" lon="4.16497">
        <ele>227.60881</ele>
        <time>2023-05-18T08:02:29Z</time>
      </trkpt>
      <trkpt lat="50.21573" lon="4.16497">
        <ele>227.728073</ele>
        <time>2023-05-18T08:02:30Z</time>
      </trkpt>
      <trkpt lat="50.21565" lon="4.16495">
        <ele>227.870316</ele>
        <time>2023-05-18T08:02:32Z</time>
      </trkpt>
      <trkpt lat="50.21555" lon="4.16493">
        <ele>227.983521</ele>
        <time>2023-05-18T08:02:34Z</time>
      </trkpt>
      <trkpt lat="50.21545" lon="4.16494">
        <ele>228.098587</ele>
        <time>2023-05-18T08:02:36Z</time>
      </trkpt>
      <trkpt lat="50.21537" lon="4.16497">
        <ele>228.364288</ele>
        <time>2023-05-18T08:02:38Z</time>
      </trkpt>
      <trkpt lat="50.21526" lon="4.165">
        <ele>228.493652</ele>
        <time>2023-05-18T08:02:40Z</time>
      </trkpt>
      <trkpt lat="50.21517" lon="4.16505">
        <ele>228.518768</ele>
        <time>2023-05-18T08:02:42Z</time>
      </trkpt>
      <trkpt lat="50.21508" lon="4.16511">
        <ele>228.591995</ele>
        <time>2023-05-18T08:02:44Z</time>
      </trkpt>
      <trkpt lat="50.21504" lon="4.16514">
        <ele>228.659912</ele>
        <time>2023-05-18T08:02:46Z</time>
      </trkpt>
      <trkpt lat="50.21501" lon="4.16515">
        <ele>228.630615</ele>
        <time>2023-05-18T08:02:48Z</time>
      </trkpt>
      <trkpt lat="50.21497" lon="4.16518">
        <ele>228.569626</ele>
        <time>2023-05-18T08:02:50Z</time>
      </trkpt>
      <trkpt lat="50.21495" lon="4.16517">
        <ele>228.526932</ele>
        <time>2023-05-18T08:02:52Z</time>
      </trkpt>
      <trkpt lat="50.21492" lon="4.16522">
        <ele>228.386765</ele>
        <time>2023-05-18T08:02:54Z</time>
      </trkpt>
      <trkpt lat="50.21488" lon="4.16527">
        <ele>228.248703</ele>
        <time>2023-05-18T08:02:56Z</time>
      </trkpt>
      <trkpt lat="50.21486" lon="4.16529">
        <ele>228.060257</ele>
        <time>2023-05-18T08:02:58Z</time>
      </trkpt>
      <trkpt lat="50.21482" lon="4.16531">
        <ele>227.74646</ele>
        <time>2023-05-18T08:03:00Z</time>
      </trkpt>
      <trkpt lat="50.21479" lon="4.16532">
        <ele>227.432693</ele>
        <time>2023-05-18T08:03:02Z</time>
      </trkpt>
      <trkpt lat="50.21477" lon="4.16527">
        <ele>227.112213</ele>
        <time>2023-05-18T08:03:04Z</time>
      </trkpt>
      <trkpt lat="50.21475" lon="4.16524">
        <ele>226.723114</ele>
        <time>2023-05-18T08:03:06Z</time>
      </trkpt>
      <trkpt lat="50.21475" lon="4.16519">
        <ele>226.32988</ele>
        <time>2023-05-18T08:03:08Z</time>
      </trkpt>
      <trkpt lat="50.21475" lon="4.16513">
        <ele>225.852982</ele>
        <time>2023-05-18T08:03:10Z</time>
      </trkpt>
      <trkpt lat="50.21474" lon="4.16507">
        <ele>225.435638</ele>
        <time>2023-05-18T08:03:12Z</time>
      </trkpt>
      <trkpt lat="50.21474" lon="4.16504">
        <ele>225.01738</ele>
        <time>2023-05-18T08:03:14Z</time>
      </trkpt>
      <trkpt lat="50.21473" lon="4.16501">
        <ele>224.574005</ele>
        <time>2023-05-18T08:03:16Z</time>
      </trkpt>
      <trkpt lat="50.21472" lon="4.16497">
        <ele>223.984207</ele>
        <time>2023-05-18T08:03:18Z</time>
      </trkpt>
      <trkpt lat="50.21471" lon="4.16492">
        <ele>223.70816</ele>
        <time>2023-05-18T08:03:20Z</time>
      </trkpt>
      <trkpt lat="50.21471" lon="4.16485">
        <ele>223.089111</ele>
        <time>2023-05-18T08:03:22Z</time>
      </trkpt>
      <trkpt lat="50.2147" lon="4.16479">
        <ele>222.547455</ele>
        <time>2023-05-18T08:03:24Z</time>
      </trkpt>
      <trkpt lat="50.21468" lon="4.16473">
        <ele>222.060272</ele>
        <time>2023-05-18T08:03:26Z</time>
      </trkpt>
      <trkpt lat="50.21468" lon="4.16465">
        <ele>221.564728</ele>
        <time>2023-05-18T08:03:28Z</time>
      </trkpt>
      <trkpt lat="50.2147" lon="4.16454">
        <ele>221.027374</ele>
        <time>2023-05-18T08:03:30Z</time>
      </trkpt>
      <trkpt lat="50.21473" lon="4.16441">
        <ele>220.451141</ele>
        <time>2023-05-18T08:03:32Z</time>
      </trkpt>
      <trkpt lat="50.21474" lon="4.1643">
        <ele>219.991165</ele>
        <time>2023-05-18T08:03:34Z</time>
      </trkpt>
      <trkpt lat="50.21471" lon="4.16421">
        <ele>219.368164</ele>
        <time>2023-05-18T08:03:36Z</time>
      </trkpt>
      <trkpt lat="50.2147" lon="4.16411">
        <ele>218.908249</ele>
        <time>2023-05-18T08:03:38Z</time>
      </trkpt>
      <trkpt lat="50.2147" lon="4.16401">
        <ele>218.412994</ele>
        <time>2023-05-18T08:03:40Z</time>
      </trkpt>
      <trkpt lat="50.2147" lon="4.16391">
        <ele>217.951004</ele>
        <time>2023-05-18T08:03:42Z</time>
      </trkpt>
      <trkpt lat="50.21472" lon="4.16382">
        <ele>217.46817</ele>
        <time>2023-05-18T08:03:44Z</time>
      </trkpt>
      <trkpt lat="50.21472" lon="4.16374">
        <ele>217.004181</ele>
        <time>2023-05-18T08:03:46Z</time>
      </trkpt>
      <trkpt lat="50.21473" lon="4.16364">
        <ele>216.540161</ele>
        <time>2023-05-18T08:03:48Z</time>
      </trkpt>
      <trkpt lat="50.21472" lon="4.16356">
        <ele>216.333252</ele>
        <time>2023-05-18T08:03:50Z</time>
      </trkpt>
      <trkpt lat="50.21472" lon="4.1635">
        <ele>215.941315</ele>
        <time>2023-05-18T08:03:52Z</time>
      </trkpt>
      <trkpt lat="50.21472" lon="4.16346">
        <ele>215.453293</ele>
        <time>2023-05-18T08:03:54Z</time>
      </trkpt>
      <trkpt lat="50.21474" lon="4.16341">
        <ele>215.056244</ele>
        <time>2023-05-18T08:03:56Z</time>
      </trkpt>
      <trkpt lat="50.21474" lon="4.16337">
        <ele>214.586105</ele>
        <time>2023-05-18T08:03:58Z</time>
      </trkpt>
      <trkpt lat="50.21475" lon="4.16333">
        <ele>214.178665</ele>
        <time>2023-05-18T08:04:00Z</time>
      </trkpt>
      <trkpt lat="50.21476" lon="4.16325">
        <ele>213.769135</ele>
        <time>2023-05-18T08:04:02Z</time>
      </trkpt>
      <trkpt lat="50.21476" lon="4.16321">
        <ele>213.445038</ele>
        <time>2023-05-18T08:04:04Z</time>
      </trkpt>
      <trkpt lat="50.21476" lon="4.16313">
        <ele>213.045135</ele>
        <time>2023-05-18T08:04:06Z</time>
      </trkpt>
      <trkpt lat="50.21475" lon="4.16306">
        <ele>212.67749</ele>
        <time>2023-05-18T08:04:08Z</time>
      </trkpt>
      <trkpt lat="50.21473" lon="4.16299">
        <ele>212.21579</ele>
        <time>2023-05-18T08:04:10Z</time>
      </trkpt>
      <trkpt lat="50.2147" lon="4.16289">
        <ele>211.894089</ele>
        <time>2023-05-18T08:04:12Z</time>
      </trkpt>
      <trkpt lat="50.21468" lon="4.16278">
        <ele>211.480469</ele>
        <time>2023-05-18T08:04:14Z</time>
      </trkpt>
      <trkpt lat="50.21463" lon="4.16267">
        <ele>211.058517</ele>
        <time>2023-05-18T08:04:16Z</time>
      </trkpt>
      <trkpt lat="50.21457" lon="4.16259">
        <ele>210.778641</ele>
        <time>2023-05-18T08:04:18Z</time>
      </trkpt>
      <trkpt lat="50.21453" lon="4.16251">
        <ele>210.421387</ele>
        <time>2023-05-18T08:04:20Z</time>
      </trkpt>
      <trkpt lat="50.21451" lon="4.16247">
        <ele>210.1185</ele>
        <time>2023-05-18T08:04:22Z</time>
      </trkpt>
      <trkpt lat="50.21446" lon="4.16238">
        <ele>210.007843</ele>
        <time>2023-05-18T08:04:24Z</time>
      </trkpt>
      <trkpt lat="50.21438" lon="4.16223">
        <ele>209.709106</ele>
        <time>2023-05-18T08:04:26Z</time>
      </trkpt>
      <trkpt lat="50.21436" lon="4.16214">
        <ele>209.427048</ele>
        <time>2023-05-18T08:04:28Z</time>
      </trkpt>
      <trkpt lat="50.21434" lon="4.16204">
        <ele>209.11795</ele>
        <time>2023-05-18T08:04:30Z</time>
      </trkpt>
      <trkpt lat="50.21434" lon="4.16201">
        <ele>208.816208</ele>
        <time>2023-05-18T08:04:32Z</time>
      </trkpt>
      <trkpt lat="50.21434" lon="4.16197">
        <ele>208.580734</ele>
        <time>2023-05-18T08:04:34Z</time>
      </trkpt>
      <trkpt lat="50.21433" lon="4.16189">
        <ele>208.33728</ele>
        <time>2023-05-18T08:04:36Z</time>
      </trkpt>
      <trkpt lat="50.2143" lon="4.16181">
        <ele>208.16394</ele>
        <time>2023-05-18T08:04:38Z</time>
      </trkpt>
      <trkpt lat="50.21425" lon="4.1617">
        <ele>207.948853</ele>
        <time>2023-05-18T08:04:40Z</time>
      </trkpt>
      <trkpt lat="50.21418" lon="4.16164">
        <ele>207.698288</ele>
        <time>2023-05-18T08:04:42Z</time>
      </trkpt>
      <trkpt lat="50.21415" lon="4.16156">
        <ele>207.451874</ele>
        <time>2023-05-18T08:04:44Z</time>
      </trkpt>
      <trkpt lat="50.21414" lon="4.16146">
        <ele>207.203613</ele>
        <time>2023-05-18T08:04:46Z</time>
      </trkpt>
      <trkpt lat="50.21414" lon="4.16136">
        <ele>206.949707</ele>
        <time>2023-05-18T08:04:48Z</time>
      </trkpt>
      <trkpt lat="50.21414" lon="4.16128">
        <ele>206.697067</ele>
        <time>2023-05-18T08:04:50Z</time>
      </trkpt>
      <trkpt lat="50.21412" lon="4.16121">
        <ele>206.477859</ele>
        <time>2023-05-18T08:04:52Z</time>
      </trkpt>
      <trkpt lat="50.21412" lon="4.16111">
        <ele>206.27951</ele>
        <time>2023-05-18T08:04:54Z</time>
      </trkpt>
      <trkpt lat="50.21409" lon="4.161">
        <ele>206.104156</ele>
        <time>2023-05-18T08:04:56Z</time>
      </trkpt>
      <trkpt lat="50.21407" lon="4.16093">
        <ele>205.884933</ele>
        <time>2023-05-18T08:04:58Z</time>
      </trkpt>
      <trkpt lat="50.21407" lon="4.16084">
        <ele>205.649017</ele>
        <time>2023-05-18T08:05:00Z</time>
      </trkpt>
      <trkpt lat="50.21406" lon="4.16071">
        <ele>205.327545</ele>
        <time>2023-05-18T08:05:02Z</time>
      </trkpt>
      <trkpt lat="50.21409" lon="4.16059">
        <ele>205.037323</ele>
        <time>2023-05-18T08:05:04Z</time>
      </trkpt>
      <trkpt lat="50.2141" lon="4.1605">
        <ele>204.884964</ele>
        <time>2023-05-18T08:05:06Z</time>
      </trkpt>
      <trkpt lat="50.2141" lon="4.16045">
        <ele>204.618942</ele>
        <time>2023-05-18T08:05:08Z</time>
      </trkpt>
      <trkpt lat="50.21409" lon="4.16039">
        <ele>204.894852</ele>
        <time>2023-05-18T08:05:10Z</time>
      </trkpt>
      <trkpt lat="50.21409" lon="4.16029">
        <ele>204.608856</ele>
        <time>2023-05-18T08:05:12Z</time>
      </trkpt>
      <trkpt lat="50.21406" lon="4.16018">
        <ele>204.341675</ele>
        <time>2023-05-18T08:05:14Z</time>
      </trkpt>
      <trkpt lat="50.21405" lon="4.1601">
        <ele>204.51474</ele>
        <time>2023-05-18T08:05:16Z</time>
      </trkpt>
      <trkpt lat="50.21408" lon="4.15998">
        <ele>204.189285</ele>
        <time>2023-05-18T08:05:18Z</time>
      </trkpt>
      <trkpt lat="50.21411" lon="4.15988">
        <ele>204.431824</ele>
        <time>2023-05-18T08:05:20Z</time>
      </trkpt>
      <trkpt lat="50.21413" lon="4.15978">
        <ele>204.160492</ele>
        <time>2023-05-18T08:05:22Z</time>
      </trkpt>
      <trkpt lat="50.21417" lon="4.15967">
        <ele>203.903778</ele>
        <time>2023-05-18T08:05:24Z</time>
      </trkpt>
      <trkpt lat="50.2142" lon="4.15956">
        <ele>203.601166</ele>
        <time>2023-05-18T08:05:26Z</time>
      </trkpt>
      <trkpt lat="50.21421" lon="4.15941">
        <ele>203.373672</ele>
        <time>2023-05-18T08:05:28Z</time>
      </trkpt>
      <trkpt lat="50.2142" lon="4.15929">
        <ele>203.16539</ele>
        <time>2023-05-18T08:05:30Z</time>
      </trkpt>
      <trkpt lat="50.2142" lon="4.1592">
        <ele>202.908707</ele>
        <time>2023-05-18T08:05:32Z</time>
      </trkpt>
      <trkpt lat="50.21418" lon="4.15909">
        <ele>202.60614</ele>
        <time>2023-05-18T08:05:34Z</time>
      </trkpt>
      <trkpt lat="50.21418" lon="4.159">
        <ele>202.222198</ele>
        <time>2023-05-18T08:05:36Z</time>
      </trkpt>
      <trkpt lat="50.21415" lon="4.1589">
        <ele>201.975967</ele>
        <time>2023-05-18T08:05:38Z</time>
      </trkpt>
      <trkpt lat="50.21413" lon="4.15881">
        <ele>201.721375</ele>
        <time>2023-05-18T08:05:40Z</time>
      </trkpt>
      <trkpt lat="50.21413" lon="4.15868">
        <ele>201.435516</ele>
        <time>2023-05-18T08:05:42Z</time>
      </trkpt>
      <trkpt lat="50.21411" lon="4.15856">
        <ele>201.2686</ele>
        <time>2023-05-18T08:05:44Z</time>
      </trkpt>
      <trkpt lat="50.21412" lon="4.15845">
        <ele>200.911835</ele>
        <time>2023-05-18T08:05:46Z</time>
      </trkpt>
      <trkpt lat="50.21413" lon="4.15834">
        <ele>200.46225</ele>
        <time>2023-05-18T08:05:48Z</time>
      </trkpt>
      <trkpt lat="50.21417" lon="4.15825">
        <ele>200.23996</ele>
        <time>2023-05-18T08:05:50Z</time>
      </trkpt>
      <trkpt lat="50.21417" lon="4.15814">
        <ele>199.420029</ele>
        <time>2023-05-18T08:05:52Z</time>
      </trkpt>
      <trkpt lat="50.21416" lon="4.15803">
        <ele>199.067474</ele>
        <time>2023-05-18T08:05:54Z</time>
      </trkpt>
      <trkpt lat="50.21417" lon="4.15791">
        <ele>198.827545</ele>
        <time>2023-05-18T08:05:56Z</time>
      </trkpt>
      <trkpt lat="50.21417" lon="4.15778">
        <ele>198.513641</ele>
        <time>2023-05-18T08:05:58Z</time>
      </trkpt>
      <trkpt lat="50.21418" lon="4.15767">
        <ele>197.761963</ele>
        <time>2023-05-18T08:06:00Z</time>
      </trkpt>
      <trkpt lat="50.21417" lon="4.15758">
        <ele>196.978973</ele>
        <time>2023-05-18T08:06:02Z</time>
      </trkpt>
      <trkpt lat="50.21418" lon="4.15748">
        <ele>196.670685</ele>
        <time>2023-05-18T08:06:04Z</time>
      </trkpt>
      <trkpt lat="50.21418" lon="4.15741">
        <ele>196.414093</ele>
        <time>2023-05-18T08:06:06Z</time>
      </trkpt>
      <trkpt lat="50.21415" lon="4.15734">
        <ele>196.222153</ele>
        <time>2023-05-18T08:06:08Z</time>
      </trkpt>
      <trkpt lat="50.21413" lon="4.15726">
        <ele>195.881744</ele>
        <time>2023-05-18T08:06:10Z</time>
      </trkpt>
      <trkpt lat="50.2141" lon="4.1572">
        <ele>195.593903</ele>
        <time>2023-05-18T08:06:12Z</time>
      </trkpt>
      <trkpt lat="50.21409" lon="4.15712">
        <ele>195.373413</ele>
        <time>2023-05-18T08:06:14Z</time>
      </trkpt>
      <trkpt lat="50.21409" lon="4.15705">
        <ele>195.211884</ele>
        <time>2023-05-18T08:06:16Z</time>
      </trkpt>
      <trkpt lat="50.21411" lon="4.15698">
        <ele>195.045822</ele>
        <time>2023-05-18T08:06:18Z</time>
      </trkpt>
      <trkpt lat="50.21409" lon="4.15687">
        <ele>194.780579</ele>
        <time>2023-05-18T08:06:20Z</time>
      </trkpt>
      <trkpt lat="50.21409" lon="4.15676">
        <ele>194.555328</ele>
        <time>2023-05-18T08:06:22Z</time>
      </trkpt>
      <trkpt lat="50.2141" lon="4.15666">
        <ele>194.438553</ele>
        <time>2023-05-18T08:06:24Z</time>
      </trkpt>
      <trkpt lat="50.21412" lon="4.15654">
        <ele>194.263382</ele>
        <time>2023-05-18T08:06:26Z</time>
      </trkpt>
      <trkpt lat="50.21412" lon="4.15646">
        <ele>194.244598</ele>
        <time>2023-05-18T08:06:28Z</time>
      </trkpt>
      <trkpt lat="50.2141" lon="4.15636">
        <ele>193.922501</ele>
        <time>2023-05-18T08:06:30Z</time>
      </trkpt>
      <trkpt lat="50.2141" lon="4.15632">
        <ele>193.855759</ele>
        <time>2023-05-18T08:06:31Z</time>
      </trkpt>
      <trkpt lat="50.21408" lon="4.15625">
        <ele>193.689178</ele>
        <time>2023-05-18T08:06:33Z</time>
      </trkpt>
      <trkpt lat="50.21406" lon="4.15617">
        <ele>193.532806</ele>
        <time>2023-05-18T08:06:35Z</time>
      </trkpt>
      <trkpt lat="50.21405" lon="4.15609">
        <ele>193.344589</ele>
        <time>2023-05-18T08:06:37Z</time>
      </trkpt>
      <trkpt lat="50.21401" lon="4.15602">
        <ele>193.26535</ele>
        <time>2023-05-18T08:06:39Z</time>
      </trkpt>
      <trkpt lat="50.21398" lon="4.15593">
        <ele>193.083008</ele>
        <time>2023-05-18T08:06:41Z</time>
      </trkpt>
      <trkpt lat="50.21395" lon="4.15586">
        <ele>192.886993</ele>
        <time>2023-05-18T08:06:43Z</time>
      </trkpt>
      <trkpt lat="50.21394" lon="4.15581">
        <ele>192.722321</ele>
        <time>2023-05-18T08:06:45Z</time>
      </trkpt>
      <trkpt lat="50.21394" lon="4.15578">
        <ele>192.520065</ele>
        <time>2023-05-18T08:06:47Z</time>
      </trkpt>
      <trkpt lat="50.21394" lon="4.15575">
        <ele>192.234406</ele>
        <time>2023-05-18T08:06:49Z</time>
      </trkpt>
      <trkpt lat="50.21393" lon="4.15571">
        <ele>191.841904</ele>
        <time>2023-05-18T08:06:55Z</time>
      </trkpt>
      <trkpt lat="50.21391" lon="4.15566">
        <ele>191.455719</ele>
        <time>2023-05-18T08:07:01Z</time>
      </trkpt>
      <trkpt lat="50.21388" lon="4.15561">
        <ele>190.999527</ele>
        <time>2023-05-18T08:07:07Z</time>
      </trkpt>
      <trkpt lat="50.21388" lon="4.15558">
        <ele>190.832184</ele>
        <time>2023-05-18T08:07:09Z</time>
      </trkpt>
      <trkpt lat="50.21386" lon="4.15556">
        <ele>190.781799</ele>
        <time>2023-05-18T08:07:11Z</time>
      </trkpt>
      <trkpt lat="50.21385" lon="4.15553">
        <ele>190.40358</ele>
        <time>2023-05-18T08:07:15Z</time>
      </trkpt>
      <trkpt lat="50.21382" lon="4.15545">
        <ele>189.646255</ele>
        <time>2023-05-18T08:07:23Z</time>
      </trkpt>
      <trkpt lat="50.21381" lon="4.15543">
        <ele>189.458145</ele>
        <time>2023-05-18T08:07:25Z</time>
      </trkpt>
      <trkpt lat="50.2138" lon="4.1554">
        <ele>189.285141</ele>
        <time>2023-05-18T08:07:27Z</time>
      </trkpt>
      <trkpt lat="50.2137" lon="4.1552">
        <ele>189.169861</ele>
        <time>2023-05-18T08:07:29Z</time>
      </trkpt>
      <trkpt lat="50.21369" lon="4.15517">
        <ele>188.961411</ele>
        <time>2023-05-18T08:07:31Z</time>
      </trkpt>
      <trkpt lat="50.21367" lon="4.15513">
        <ele>188.796646</ele>
        <time>2023-05-18T08:07:33Z</time>
      </trkpt>
      <trkpt lat="50.21363" lon="4.15509">
        <ele>188.64447</ele>
        <time>2023-05-18T08:07:35Z</time>
      </trkpt>
      <trkpt lat="50.2136" lon="4.15503">
        <ele>188.484955</ele>
        <time>2023-05-18T08:07:37Z</time>
      </trkpt>
      <trkpt lat="50.21359" lon="4.155">
        <ele>188.298309</ele>
        <time>2023-05-18T08:07:39Z</time>
      </trkpt>
      <trkpt lat="50.21359" lon="4.15497">
        <ele>188.225357</ele>
        <time>2023-05-18T08:07:41Z</time>
      </trkpt>
      <trkpt lat="50.21359" lon="4.15494">
        <ele>188.077362</ele>
        <time>2023-05-18T08:07:43Z</time>
      </trkpt>
      <trkpt lat="50.21356" lon="4.15491">
        <ele>187.891861</ele>
        <time>2023-05-18T08:07:45Z</time>
      </trkpt>
      <trkpt lat="50.21355" lon="4.15489">
        <ele>187.831406</ele>
        <time>2023-05-18T08:07:46Z</time>
      </trkpt>
      <trkpt lat="50.21351" lon="4.15484">
        <ele>187.710434</ele>
        <time>2023-05-18T08:07:48Z</time>
      </trkpt>
      <trkpt lat="50.21347" lon="4.15477">
        <ele>187.548767</ele>
        <time>2023-05-18T08:07:50Z</time>
      </trkpt>
      <trkpt lat="50.21344" lon="4.1547">
        <ele>187.369858</ele>
        <time>2023-05-18T08:07:52Z</time>
      </trkpt>
      <trkpt lat="50.21341" lon="4.15464">
        <ele>187.244843</ele>
        <time>2023-05-18T08:07:54Z</time>
      </trkpt>
      <trkpt lat="50.21336" lon="4.15456">
        <ele>187.130188</ele>
        <time>2023-05-18T08:07:56Z</time>
      </trkpt>
      <trkpt lat="50.21333" lon="4.1545">
        <ele>186.959305</ele>
        <time>2023-05-18T08:07:58Z</time>
      </trkpt>
      <trkpt lat="50.21328" lon="4.15445">
        <ele>186.863434</ele>
        <time>2023-05-18T08:08:00Z</time>
      </trkpt>
      <trkpt lat="50.21323" lon="4.1544">
        <ele>186.796768</ele>
        <time>2023-05-18T08:08:02Z</time>
      </trkpt>
      <trkpt lat="50.21318" lon="4.15435">
        <ele>186.682144</ele>
        <time>2023-05-18T08:08:04Z</time>
      </trkpt>
      <trkpt lat="50.21311" lon="4.15422">
        <ele>186.577942</ele>
        <time>2023-05-18T08:08:06Z</time>
      </trkpt>
      <trkpt lat="50.2131" lon="4.15412">
        <ele>186.519592</ele>
        <time>2023-05-18T08:08:08Z</time>
      </trkpt>
      <trkpt lat="50.21309" lon="4.15404">
        <ele>186.450821</ele>
        <time>2023-05-18T08:08:10Z</time>
      </trkpt>
      <trkpt lat="50.21307" lon="4.15396">
        <ele>186.366028</ele>
        <time>2023-05-18T08:08:12Z</time>
      </trkpt>
      <trkpt lat="50.21304" lon="4.1539">
        <ele>186.272247</ele>
        <time>2023-05-18T08:08:14Z</time>
      </trkpt>
      <trkpt lat="50.21303" lon="4.15381">
        <ele>186.201401</ele>
        <time>2023-05-18T08:08:16Z</time>
      </trkpt>
      <trkpt lat="50.21301" lon="4.15374">
        <ele>186.218079</ele>
        <time>2023-05-18T08:08:18Z</time>
      </trkpt>
      <trkpt lat="50.21299" lon="4.15365">
        <ele>186.206314</ele>
        <time>2023-05-18T08:08:20Z</time>
      </trkpt>
      <trkpt lat="50.21296" lon="4.15359">
        <ele>186.125061</ele>
        <time>2023-05-18T08:08:22Z</time>
      </trkpt>
      <trkpt lat="50.21292" lon="4.15353">
        <ele>186.116714</ele>
        <time>2023-05-18T08:08:24Z</time>
      </trkpt>
      <trkpt lat="50.21286" lon="4.15343">
        <ele>186.090805</ele>
        <time>2023-05-18T08:08:26Z</time>
      </trkpt>
      <trkpt lat="50.2128" lon="4.15331">
        <ele>186.153336</ele>
        <time>2023-05-18T08:08:28Z</time>
      </trkpt>
      <trkpt lat="50.21279" lon="4.15325">
        <ele>186.138855</ele>
        <time>2023-05-18T08:08:29Z</time>
      </trkpt>
      <trkpt lat="50.21277" lon="4.15305">
        <ele>186.200638</ele>
        <time>2023-05-18T08:08:32Z</time>
      </trkpt>
      <trkpt lat="50.21277" lon="4.15292">
        <ele>186.18605</ele>
        <time>2023-05-18T08:08:34Z</time>
      </trkpt>
      <trkpt lat="50.21282" lon="4.15279">
        <ele>186.127701</ele>
        <time>2023-05-18T08:08:36Z</time>
      </trkpt>
      <trkpt lat="50.21288" lon="4.15268">
        <ele>185.923523</ele>
        <time>2023-05-18T08:08:38Z</time>
      </trkpt>
      <trkpt lat="50.21293" lon="4.15258">
        <ele>185.90062</ele>
        <time>2023-05-18T08:08:40Z</time>
      </trkpt>
      <trkpt lat="50.21296" lon="4.15253">
        <ele>185.867279</ele>
        <time>2023-05-18T08:08:42Z</time>
      </trkpt>
      <trkpt lat="50.21302" lon="4.1525">
        <ele>185.740204</ele>
        <time>2023-05-18T08:08:44Z</time>
      </trkpt>
      <trkpt lat="50.21304" lon="4.15244">
        <ele>185.608932</ele>
        <time>2023-05-18T08:08:46Z</time>
      </trkpt>
      <trkpt lat="50.21307" lon="4.15238">
        <ele>185.442291</ele>
        <time>2023-05-18T08:08:48Z</time>
      </trkpt>
      <trkpt lat="50.21312" lon="4.15231">
        <ele>185.204803</ele>
        <time>2023-05-18T08:08:50Z</time>
      </trkpt>
      <trkpt lat="50.21316" lon="4.15223">
        <ele>185.008942</ele>
        <time>2023-05-18T08:08:52Z</time>
      </trkpt>
      <trkpt lat="50.21321" lon="4.15218">
        <ele>184.833481</ele>
        <time>2023-05-18T08:08:54Z</time>
      </trkpt>
      <trkpt lat="50.21325" lon="4.15213">
        <ele>184.613556</ele>
        <time>2023-05-18T08:08:56Z</time>
      </trkpt>
      <trkpt lat="50.21328" lon="4.15207">
        <ele>184.282349</ele>
        <time>2023-05-18T08:08:58Z</time>
      </trkpt>
      <trkpt lat="50.21334" lon="4.15199">
        <ele>183.996841</ele>
        <time>2023-05-18T08:09:00Z</time>
      </trkpt>
      <trkpt lat="50.21339" lon="4.15192">
        <ele>183.57608</ele>
        <time>2023-05-18T08:09:02Z</time>
      </trkpt>
      <trkpt lat="50.21343" lon="4.15182">
        <ele>183.363785</ele>
        <time>2023-05-18T08:09:04Z</time>
      </trkpt>
      <trkpt lat="50.21348" lon="4.15172">
        <ele>183.04921</ele>
        <time>2023-05-18T08:09:06Z</time>
      </trkpt>
      <trkpt lat="50.21352" lon="4.15166">
        <ele>182.693832</ele>
        <time>2023-05-18T08:09:08Z</time>
      </trkpt>
      <trkpt lat="50.21356" lon="4.1516">
        <ele>181.825867</ele>
        <time>2023-05-18T08:09:10Z</time>
      </trkpt>
      <trkpt lat="50.21356" lon="4.15153">
        <ele>181.538773</ele>
        <time>2023-05-18T08:09:12Z</time>
      </trkpt>
      <trkpt lat="50.21357" lon="4.15147">
        <ele>181.24295</ele>
        <time>2023-05-18T08:09:14Z</time>
      </trkpt>
      <trkpt lat="50.21357" lon="4.15141">
        <ele>180.795074</ele>
        <time>2023-05-18T08:09:18Z</time>
      </trkpt>
      <trkpt lat="50.2136" lon="4.15135">
        <ele>180.707596</ele>
        <time>2023-05-18T08:09:20Z</time>
      </trkpt>
      <trkpt lat="50.21363" lon="4.15129">
        <ele>180.501358</ele>
        <time>2023-05-18T08:09:22Z</time>
      </trkpt>
      <trkpt lat="50.21363" lon="4.15125">
        <ele>180.371704</ele>
        <time>2023-05-18T08:09:24Z</time>
      </trkpt>
      <trkpt lat="50.21365" lon="4.15119">
        <ele>180.221725</ele>
        <time>2023-05-18T08:09:26Z</time>
      </trkpt>
      <trkpt lat="50.21365" lon="4.15112">
        <ele>180.109253</ele>
        <time>2023-05-18T08:09:28Z</time>
      </trkpt>
      <trkpt lat="50.21367" lon="4.15103">
        <ele>180.100922</ele>
        <time>2023-05-18T08:09:30Z</time>
      </trkpt>
      <trkpt lat="50.21367" lon="4.15097">
        <ele>180.009277</ele>
        <time>2023-05-18T08:09:32Z</time>
      </trkpt>
      <trkpt lat="50.21368" lon="4.15091">
        <ele>179.905594</ele>
        <time>2023-05-18T08:09:34Z</time>
      </trkpt>
      <trkpt lat="50.21371" lon="4.15084">
        <ele>179.81868</ele>
        <time>2023-05-18T08:09:36Z</time>
      </trkpt>
      <trkpt lat="50.21374" lon="4.15076">
        <ele>179.760376</ele>
        <time>2023-05-18T08:09:38Z</time>
      </trkpt>
      <trkpt lat="50.21378" lon="4.15068">
        <ele>179.654221</ele>
        <time>2023-05-18T08:09:40Z</time>
      </trkpt>
      <trkpt lat="50.21381" lon="4.15063">
        <ele>179.527191</ele>
        <time>2023-05-18T08:09:42Z</time>
      </trkpt>
      <trkpt lat="50.21379" lon="4.15062">
        <ele>179.048752</ele>
        <time>2023-05-18T08:09:44Z</time>
      </trkpt>
      <trkpt lat="50.21376" lon="4.15065">
        <ele>178.948608</ele>
        <time>2023-05-18T08:09:46Z</time>
      </trkpt>
      <trkpt lat="50.21378" lon="4.15068">
        <ele>178.871552</ele>
        <time>2023-05-18T08:09:48Z</time>
      </trkpt>
      <trkpt lat="50.21378" lon="4.1507">
        <ele>179.316681</ele>
        <time>2023-05-18T08:09:50Z</time>
      </trkpt>
      <trkpt lat="50.21376" lon="4.15071">
        <ele>177.891541</ele>
        <time>2023-05-18T08:11:11Z</time>
      </trkpt>
      <trkpt lat="50.21378" lon="4.15073">
        <ele>177.897797</ele>
        <time>2023-05-18T08:11:13Z</time>
      </trkpt>
      <trkpt lat="50.2138" lon="4.15076">
        <ele>177.88739</ele>
        <time>2023-05-18T08:11:15Z</time>
      </trkpt>
      <trkpt lat="50.21387" lon="4.15088">
        <ele>177.891541</ele>
        <time>2023-05-18T08:11:17Z</time>
      </trkpt>
      <trkpt lat="50.21388" lon="4.15091">
        <ele>177.893646</ele>
        <time>2023-05-18T08:11:19Z</time>
      </trkpt>
      <trkpt lat="50.21388" lon="4.15094">
        <ele>177.887405</ele>
        <time>2023-05-18T08:11:21Z</time>
      </trkpt>
      <trkpt lat="50.2139" lon="4.15099">
        <ele>177.941544</ele>
        <time>2023-05-18T08:11:23Z</time>
      </trkpt>
      <trkpt lat="50.21391" lon="4.15101">
        <ele>178.525131</ele>
        <time>2023-05-18T08:11:25Z</time>
      </trkpt>
      <trkpt lat="50.21392" lon="4.15105">
        <ele>178.650345</ele>
        <time>2023-05-18T08:11:27Z</time>
      </trkpt>
      <trkpt lat="50.21393" lon="4.15109">
        <ele>178.781525</ele>
        <time>2023-05-18T08:11:29Z</time>
      </trkpt>
      <trkpt lat="50.21393" lon="4.15113">
        <ele>178.940643</ele>
        <time>2023-05-18T08:11:31Z</time>
      </trkpt>
      <trkpt lat="50.21395" lon="4.15117">
        <ele>179.096832</ele>
        <time>2023-05-18T08:11:33Z</time>
      </trkpt>
      <trkpt lat="50.21395" lon="4.15121">
        <ele>179.273468</ele>
        <time>2023-05-18T08:11:35Z</time>
      </trkpt>
      <trkpt lat="50.21394" lon="4.15127">
        <ele>179.454636</ele>
        <time>2023-05-18T08:11:37Z</time>
      </trkpt>
      <trkpt lat="50.21395" lon="4.15132">
        <ele>179.664963</ele>
        <time>2023-05-18T08:11:39Z</time>
      </trkpt>
      <trkpt lat="50.21395" lon="4.15134">
        <ele>179.861237</ele>
        <time>2023-05-18T08:11:41Z</time>
      </trkpt>
      <trkpt lat="50.21395" lon="4.15138">
        <ele>180.117401</ele>
        <time>2023-05-18T08:11:43Z</time>
      </trkpt>
      <trkpt lat="50.21395" lon="4.15145">
        <ele>180.392044</ele>
        <time>2023-05-18T08:11:45Z</time>
      </trkpt>
      <trkpt lat="50.21396" lon="4.15151">
        <ele>180.562836</ele>
        <time>2023-05-18T08:11:47Z</time>
      </trkpt>
      <trkpt lat="50.21396" lon="4.15158">
        <ele>180.871246</ele>
        <time>2023-05-18T08:11:49Z</time>
      </trkpt>
      <trkpt lat="50.21395" lon="4.15164">
        <ele>181.258652</ele>
        <time>2023-05-18T08:11:51Z</time>
      </trkpt>
      <trkpt lat="50.21394" lon="4.15168">
        <ele>181.594086</ele>
        <time>2023-05-18T08:11:53Z</time>
      </trkpt>
      <trkpt lat="50.21395" lon="4.15174">
        <ele>181.927322</ele>
        <time>2023-05-18T08:11:55Z</time>
      </trkpt>
      <trkpt lat="50.21397" lon="4.15178">
        <ele>182.306976</ele>
        <time>2023-05-18T08:11:57Z</time>
      </trkpt>
      <trkpt lat="50.21397" lon="4.15182">
        <ele>182.729828</ele>
        <time>2023-05-18T08:11:59Z</time>
      </trkpt>
      <trkpt lat="50.21397" lon="4.15188">
        <ele>183.132416</ele>
        <time>2023-05-18T08:12:01Z</time>
      </trkpt>
      <trkpt lat="50.21398" lon="4.15194">
        <ele>183.57196</ele>
        <time>2023-05-18T08:12:03Z</time>
      </trkpt>
      <trkpt lat="50.214" lon="4.15201">
        <ele>183.482071</ele>
        <time>2023-05-18T08:12:05Z</time>
      </trkpt>
      <trkpt lat="50.214" lon="4.15208">
        <ele>183.898758</ele>
        <time>2023-05-18T08:12:07Z</time>
      </trkpt>
      <trkpt lat="50.21401" lon="4.15213">
        <ele>184.317307</ele>
        <time>2023-05-18T08:12:09Z</time>
      </trkpt>
      <trkpt lat="50.21402" lon="4.15218">
        <ele>184.750702</ele>
        <time>2023-05-18T08:12:11Z</time>
      </trkpt>
      <trkpt lat="50.21403" lon="4.15223">
        <ele>185.19455</ele>
        <time>2023-05-18T08:12:13Z</time>
      </trkpt>
      <trkpt lat="50.21403" lon="4.15229">
        <ele>185.648026</ele>
        <time>2023-05-18T08:12:15Z</time>
      </trkpt>
      <trkpt lat="50.21404" lon="4.15233">
        <ele>185.864746</ele>
        <time>2023-05-18T08:12:16Z</time>
      </trkpt>
      <trkpt lat="50.21404" lon="4.15239">
        <ele>186.116867</ele>
        <time>2023-05-18T08:12:18Z</time>
      </trkpt>
      <trkpt lat="50.21405" lon="4.15243">
        <ele>186.608673</ele>
        <time>2023-05-18T08:12:20Z</time>
      </trkpt>
      <trkpt lat="50.21407" lon="4.15247">
        <ele>186.86084</ele>
        <time>2023-05-18T08:12:21Z</time>
      </trkpt>
      <trkpt lat="50.21409" lon="4.15253">
        <ele>187.320648</ele>
        <time>2023-05-18T08:12:23Z</time>
      </trkpt>
      <trkpt lat="50.2141" lon="4.1526">
        <ele>187.816681</ele>
        <time>2023-05-18T08:12:25Z</time>
      </trkpt>
      <trkpt lat="50.2141" lon="4.15266">
        <ele>188.271286</ele>
        <time>2023-05-18T08:12:27Z</time>
      </trkpt>
      <trkpt lat="50.21412" lon="4.15274">
        <ele>188.748413</ele>
        <time>2023-05-18T08:12:29Z</time>
      </trkpt>
      <trkpt lat="50.21414" lon="4.15282">
        <ele>189.240326</ele>
        <time>2023-05-18T08:12:31Z</time>
      </trkpt>
      <trkpt lat="50.21415" lon="4.15288">
        <ele>189.792633</ele>
        <time>2023-05-18T08:12:33Z</time>
      </trkpt>
      <trkpt lat="50.21415" lon="4.15294">
        <ele>190.315887</ele>
        <time>2023-05-18T08:12:35Z</time>
      </trkpt>
      <trkpt lat="50.21416" lon="4.15299">
        <ele>190.817703</ele>
        <time>2023-05-18T08:12:37Z</time>
      </trkpt>
      <trkpt lat="50.21415" lon="4.15308">
        <ele>191.272659</ele>
        <time>2023-05-18T08:12:39Z</time>
      </trkpt>
      <trkpt lat="50.21417" lon="4.15316">
        <ele>191.508255</ele>
        <time>2023-05-18T08:12:41Z</time>
      </trkpt>
      <trkpt lat="50.21417" lon="4.15321">
        <ele>191.991043</ele>
        <time>2023-05-18T08:12:43Z</time>
      </trkpt>
      <trkpt lat="50.21419" lon="4.15328">
        <ele>192.436859</ele>
        <time>2023-05-18T08:12:45Z</time>
      </trkpt>
      <trkpt lat="50.21421" lon="4.15336">
        <ele>192.916428</ele>
        <time>2023-05-18T08:12:47Z</time>
      </trkpt>
      <trkpt lat="50.21423" lon="4.15341">
        <ele>193.350677</ele>
        <time>2023-05-18T08:12:49Z</time>
      </trkpt>
      <trkpt lat="50.21424" lon="4.15346">
        <ele>193.776077</ele>
        <time>2023-05-18T08:12:51Z</time>
      </trkpt>
      <trkpt lat="50.21425" lon="4.15353">
        <ele>194.203583</ele>
        <time>2023-05-18T08:12:53Z</time>
      </trkpt>
      <trkpt lat="50.21425" lon="4.15357">
        <ele>194.572067</ele>
        <time>2023-05-18T08:12:55Z</time>
      </trkpt>
      <trkpt lat="50.21426" lon="4.15366">
        <ele>195.021591</ele>
        <time>2023-05-18T08:12:57Z</time>
      </trkpt>
      <trkpt lat="50.21427" lon="4.15375">
        <ele>195.415894</ele>
        <time>2023-05-18T08:12:59Z</time>
      </trkpt>
      <trkpt lat="50.21428" lon="4.15382">
        <ele>195.855988</ele>
        <time>2023-05-18T08:13:01Z</time>
      </trkpt>
      <trkpt lat="50.21432" lon="4.15392">
        <ele>196.280579</ele>
        <time>2023-05-18T08:13:03Z</time>
      </trkpt>
      <trkpt lat="50.21436" lon="4.15401">
        <ele>196.687317</ele>
        <time>2023-05-18T08:13:05Z</time>
      </trkpt>
      <trkpt lat="50.21438" lon="4.15408">
        <ele>197.100311</ele>
        <time>2023-05-18T08:13:07Z</time>
      </trkpt>
      <trkpt lat="50.2144" lon="4.15414">
        <ele>197.321426</ele>
        <time>2023-05-18T08:13:09Z</time>
      </trkpt>
      <trkpt lat="50.21443" lon="4.15423">
        <ele>198.285004</ele>
        <time>2023-05-18T08:13:11Z</time>
      </trkpt>
      <trkpt lat="50.21445" lon="4.1543">
        <ele>198.654282</ele>
        <time>2023-05-18T08:13:13Z</time>
      </trkpt>
      <trkpt lat="50.21446" lon="4.15437">
        <ele>198.97348</ele>
        <time>2023-05-18T08:13:15Z</time>
      </trkpt>
      <trkpt lat="50.21445" lon="4.15441">
        <ele>199.342072</ele>
        <time>2023-05-18T08:13:17Z</time>
      </trkpt>
      <trkpt lat="50.21447" lon="4.15449">
        <ele>199.700195</ele>
        <time>2023-05-18T08:13:19Z</time>
      </trkpt>
      <trkpt lat="50.21447" lon="4.15457">
        <ele>200.048157</ele>
        <time>2023-05-18T08:13:21Z</time>
      </trkpt>
      <trkpt lat="50.21448" lon="4.15464">
        <ele>200.394806</ele>
        <time>2023-05-18T08:13:23Z</time>
      </trkpt>
      <trkpt lat="50.2145" lon="4.15469">
        <ele>200.741486</ele>
        <time>2023-05-18T08:13:25Z</time>
      </trkpt>
      <trkpt lat="50.21451" lon="4.15476">
        <ele>202.058029</ele>
        <time>2023-05-18T08:13:33Z</time>
      </trkpt>
      <trkpt lat="50.21451" lon="4.15486">
        <ele>198.261353</ele>
        <time>2023-05-18T08:15:47Z</time>
      </trkpt>
      <trkpt lat="50.21452" lon="4.15498">
        <ele>198.168747</ele>
        <time>2023-05-18T08:15:49Z</time>
      </trkpt>
      <trkpt lat="50.21455" lon="4.15521">
        <ele>198.091568</ele>
        <time>2023-05-18T08:15:51Z</time>
      </trkpt>
      <trkpt lat="50.21457" lon="4.1553">
        <ele>198.008102</ele>
        <time>2023-05-18T08:15:53Z</time>
      </trkpt>
      <trkpt lat="50.2146" lon="4.1554">
        <ele>197.974716</ele>
        <time>2023-05-18T08:15:55Z</time>
      </trkpt>
      <trkpt lat="50.21462" lon="4.1555">
        <ele>197.9935</ele>
        <time>2023-05-18T08:15:57Z</time>
      </trkpt>
      <trkpt lat="50.21464" lon="4.15561">
        <ele>198.01915</ele>
        <time>2023-05-18T08:15:59Z</time>
      </trkpt>
      <trkpt lat="50.21467" lon="4.15571">
        <ele>198.117218</ele>
        <time>2023-05-18T08:16:01Z</time>
      </trkpt>
      <trkpt lat="50.21469" lon="4.1558">
        <ele>198.265091</ele>
        <time>2023-05-18T08:16:03Z</time>
      </trkpt>
      <trkpt lat="50.21471" lon="4.1559">
        <ele>198.856171</ele>
        <time>2023-05-18T08:16:05Z</time>
      </trkpt>
      <trkpt lat="50.21473" lon="4.156">
        <ele>198.981537</ele>
        <time>2023-05-18T08:16:07Z</time>
      </trkpt>
      <trkpt lat="50.21475" lon="4.1561">
        <ele>199.637314</ele>
        <time>2023-05-18T08:16:09Z</time>
      </trkpt>
      <trkpt lat="50.21478" lon="4.1562">
        <ele>199.756241</ele>
        <time>2023-05-18T08:16:11Z</time>
      </trkpt>
      <trkpt lat="50.2148" lon="4.15632">
        <ele>199.975327</ele>
        <time>2023-05-18T08:16:13Z</time>
      </trkpt>
      <trkpt lat="50.21481" lon="4.15643">
        <ele>200.148514</ele>
        <time>2023-05-18T08:16:15Z</time>
      </trkpt>
      <trkpt lat="50.21483" lon="4.15655">
        <ele>200.280945</ele>
        <time>2023-05-18T08:16:17Z</time>
      </trkpt>
      <trkpt lat="50.21485" lon="4.15666">
        <ele>200.473358</ele>
        <time>2023-05-18T08:16:19Z</time>
      </trkpt>
      <trkpt lat="50.21485" lon="4.15677">
        <ele>200.671219</ele>
        <time>2023-05-18T08:16:21Z</time>
      </trkpt>
      <trkpt lat="50.21487" lon="4.15688">
        <ele>200.892395</ele>
        <time>2023-05-18T08:16:23Z</time>
      </trkpt>
      <trkpt lat="50.21489" lon="4.15699">
        <ele>201.29306</ele>
        <time>2023-05-18T08:16:25Z</time>
      </trkpt>
      <trkpt lat="50.21492" lon="4.15709">
        <ele>201.566437</ele>
        <time>2023-05-18T08:16:27Z</time>
      </trkpt>
      <trkpt lat="50.21495" lon="4.15719">
        <ele>201.83432</ele>
        <time>2023-05-18T08:16:29Z</time>
      </trkpt>
      <trkpt lat="50.21497" lon="4.15727">
        <ele>202.134857</ele>
        <time>2023-05-18T08:16:31Z</time>
      </trkpt>
      <trkpt lat="50.21499" lon="4.15736">
        <ele>202.529236</ele>
        <time>2023-05-18T08:16:33Z</time>
      </trkpt>
      <trkpt lat="50.215" lon="4.15743">
        <ele>202.915314</ele>
        <time>2023-05-18T08:16:35Z</time>
      </trkpt>
      <trkpt lat="50.21501" lon="4.15751">
        <ele>203.264618</ele>
        <time>2023-05-18T08:16:37Z</time>
      </trkpt>
      <trkpt lat="50.21503" lon="4.15759">
        <ele>203.43158</ele>
        <time>2023-05-18T08:16:39Z</time>
      </trkpt>
      <trkpt lat="50.21504" lon="4.15766">
        <ele>203.757172</ele>
        <time>2023-05-18T08:16:41Z</time>
      </trkpt>
      <trkpt lat="50.21504" lon="4.15772">
        <ele>203.975967</ele>
        <time>2023-05-18T08:16:43Z</time>
      </trkpt>
      <trkpt lat="50.21505" lon="4.15778">
        <ele>204.230637</ele>
        <time>2023-05-18T08:16:45Z</time>
      </trkpt>
      <trkpt lat="50.21505" lon="4.15784">
        <ele>204.067474</ele>
        <time>2023-05-18T08:16:47Z</time>
      </trkpt>
      <trkpt lat="50.21506" lon="4.1579">
        <ele>204.457672</ele>
        <time>2023-05-18T08:16:49Z</time>
      </trkpt>
      <trkpt lat="50.21506" lon="4.15796">
        <ele>204.26683</ele>
        <time>2023-05-18T08:16:51Z</time>
      </trkpt>
      <trkpt lat="50.21507" lon="4.15803">
        <ele>204.636322</ele>
        <time>2023-05-18T08:16:53Z</time>
      </trkpt>
      <trkpt lat="50.21508" lon="4.15809">
        <ele>204.957809</ele>
        <time>2023-05-18T08:16:55Z</time>
      </trkpt>
      <trkpt lat="50.21509" lon="4.15815">
        <ele>205.347244</ele>
        <time>2023-05-18T08:16:57Z</time>
      </trkpt>
      <trkpt lat="50.2151" lon="4.1582">
        <ele>205.801712</ele>
        <time>2023-05-18T08:16:59Z</time>
      </trkpt>
      <trkpt lat="50.2151" lon="4.15826">
        <ele>206.175781</ele>
        <time>2023-05-18T08:17:01Z</time>
      </trkpt>
      <trkpt lat="50.2151" lon="4.15832">
        <ele>206.536224</ele>
        <time>2023-05-18T08:17:03Z</time>
      </trkpt>
      <trkpt lat="50.21512" lon="4.15837">
        <ele>206.882813</ele>
        <time>2023-05-18T08:17:05Z</time>
      </trkpt>
      <trkpt lat="50.21512" lon="4.15841">
        <ele>207.197311</ele>
        <time>2023-05-18T08:17:07Z</time>
      </trkpt>
      <trkpt lat="50.21513" lon="4.15844">
        <ele>207.558548</ele>
        <time>2023-05-18T08:17:09Z</time>
      </trkpt>
      <trkpt lat="50.21515" lon="4.15847">
        <ele>209.833527</ele>
        <time>2023-05-18T08:17:27Z</time>
      </trkpt>
      <trkpt lat="50.21516" lon="4.15849">
        <ele>209.95256</ele>
        <time>2023-05-18T08:17:29Z</time>
      </trkpt>
      <trkpt lat="50.21516" lon="4.15854">
        <ele>210.046539</ele>
        <time>2023-05-18T08:17:31Z</time>
      </trkpt>
      <trkpt lat="50.21518" lon="4.15859">
        <ele>210.15564</ele>
        <time>2023-05-18T08:17:33Z</time>
      </trkpt>
      <trkpt lat="50.2152" lon="4.15865">
        <ele>210.241287</ele>
        <time>2023-05-18T08:17:35Z</time>
      </trkpt>
      <trkpt lat="50.21521" lon="4.15871">
        <ele>210.383331</ele>
        <time>2023-05-18T08:17:37Z</time>
      </trkpt>
      <trkpt lat="50.21522" lon="4.15875">
        <ele>210.437622</ele>
        <time>2023-05-18T08:17:39Z</time>
      </trkpt>
      <trkpt lat="50.21523" lon="4.15879">
        <ele>210.534332</ele>
        <time>2023-05-18T08:17:41Z</time>
      </trkpt>
      <trkpt lat="50.21521" lon="4.15878">
        <ele>211.005447</ele>
        <time>2023-05-18T08:17:51Z</time>
      </trkpt>
      <trkpt lat="50.21521" lon="4.1588">
        <ele>211.36264</ele>
        <time>2023-05-18T08:18:01Z</time>
      </trkpt>
      <trkpt lat="50.21538" lon="4.15897">
        <ele>190.667023</ele>
        <time>2023-05-18T08:35:24Z</time>
      </trkpt>
      <trkpt lat="50.21545" lon="4.15897">
        <ele>199.855515</ele>
        <time>2023-05-18T08:35:35Z</time>
      </trkpt>
      <trkpt lat="50.21556" lon="4.15893">
        <ele>200.522461</ele>
        <time>2023-05-18T08:35:37Z</time>
      </trkpt>
      <trkpt lat="50.21561" lon="4.1589">
        <ele>201.029007</ele>
        <time>2023-05-18T08:35:39Z</time>
      </trkpt>
      <trkpt lat="50.21567" lon="4.15887">
        <ele>201.508972</ele>
        <time>2023-05-18T08:35:41Z</time>
      </trkpt>
      <trkpt lat="50.21573" lon="4.15884">
        <ele>201.983856</ele>
        <time>2023-05-18T08:35:43Z</time>
      </trkpt>
      <trkpt lat="50.2158" lon="4.15882">
        <ele>202.40123</ele>
        <time>2023-05-18T08:35:45Z</time>
      </trkpt>
      <trkpt lat="50.21587" lon="4.15879">
        <ele>202.881393</ele>
        <time>2023-05-18T08:35:47Z</time>
      </trkpt>
      <trkpt lat="50.21595" lon="4.15876">
        <ele>202.962875</ele>
        <time>2023-05-18T08:35:49Z</time>
      </trkpt>
      <trkpt lat="50.21601" lon="4.15873">
        <ele>203.267075</ele>
        <time>2023-05-18T08:35:51Z</time>
      </trkpt>
      <trkpt lat="50.21605" lon="4.15872">
        <ele>203.416946</ele>
        <time>2023-05-18T08:35:52Z</time>
      </trkpt>
      <trkpt lat="50.21612" lon="4.15869">
        <ele>203.699844</ele>
        <time>2023-05-18T08:35:54Z</time>
      </trkpt>
      <trkpt lat="50.21619" lon="4.15866">
        <ele>203.87175</ele>
        <time>2023-05-18T08:35:56Z</time>
      </trkpt>
      <trkpt lat="50.21626" lon="4.15862">
        <ele>205.613373</ele>
        <time>2023-05-18T08:35:58Z</time>
      </trkpt>
      <trkpt lat="50.21632" lon="4.15859">
        <ele>207.244263</ele>
        <time>2023-05-18T08:36:00Z</time>
      </trkpt>
      <trkpt lat="50.21639" lon="4.15856">
        <ele>208.041962</ele>
        <time>2023-05-18T08:36:02Z</time>
      </trkpt>
      <trkpt lat="50.21646" lon="4.15853">
        <ele>207.969086</ele>
        <time>2023-05-18T08:36:04Z</time>
      </trkpt>
      <trkpt lat="50.21653" lon="4.1585">
        <ele>207.948196</ele>
        <time>2023-05-18T08:36:06Z</time>
      </trkpt>
      <trkpt lat="50.21659" lon="4.15848">
        <ele>208.166916</ele>
        <time>2023-05-18T08:36:08Z</time>
      </trkpt>
      <trkpt lat="50.21663" lon="4.15846">
        <ele>208.160645</ele>
        <time>2023-05-18T08:36:10Z</time>
      </trkpt>
      <trkpt lat="50.21669" lon="4.15843">
        <ele>208.32576</ele>
        <time>2023-05-18T08:36:12Z</time>
      </trkpt>
      <trkpt lat="50.21675" lon="4.1584">
        <ele>208.306976</ele>
        <time>2023-05-18T08:36:14Z</time>
      </trkpt>
      <trkpt lat="50.21681" lon="4.15839">
        <ele>208.430252</ele>
        <time>2023-05-18T08:36:16Z</time>
      </trkpt>
      <trkpt lat="50.21688" lon="4.15836">
        <ele>208.472443</ele>
        <time>2023-05-18T08:36:18Z</time>
      </trkpt>
      <trkpt lat="50.21692" lon="4.15835">
        <ele>208.625656</ele>
        <time>2023-05-18T08:36:20Z</time>
      </trkpt>
      <trkpt lat="50.21697" lon="4.15831">
        <ele>208.668213</ele>
        <time>2023-05-18T08:36:22Z</time>
      </trkpt>
      <trkpt lat="50.21702" lon="4.15826">
        <ele>208.706024</ele>
        <time>2023-05-18T08:36:24Z</time>
      </trkpt>
      <trkpt lat="50.21707" lon="4.15823">
        <ele>208.791702</ele>
        <time>2023-05-18T08:36:26Z</time>
      </trkpt>
      <trkpt lat="50.21712" lon="4.15822">
        <ele>208.768341</ele>
        <time>2023-05-18T08:36:28Z</time>
      </trkpt>
      <trkpt lat="50.21717" lon="4.1582">
        <ele>208.916702</ele>
        <time>2023-05-18T08:36:30Z</time>
      </trkpt>
      <trkpt lat="50.21722" lon="4.15817">
        <ele>209.032501</ele>
        <time>2023-05-18T08:36:32Z</time>
      </trkpt>
      <trkpt lat="50.21727" lon="4.15813">
        <ele>209.106766</ele>
        <time>2023-05-18T08:36:34Z</time>
      </trkpt>
      <trkpt lat="50.21732" lon="4.15807">
        <ele>209.180939</ele>
        <time>2023-05-18T08:36:36Z</time>
      </trkpt>
      <trkpt lat="50.21738" lon="4.15803">
        <ele>209.295853</ele>
        <time>2023-05-18T08:36:38Z</time>
      </trkpt>
      <trkpt lat="50.21745" lon="4.15799">
        <ele>209.40242</ele>
        <time>2023-05-18T08:36:40Z</time>
      </trkpt>
      <trkpt lat="50.21755" lon="4.15794">
        <ele>209.488113</ele>
        <time>2023-05-18T08:36:42Z</time>
      </trkpt>
      <trkpt lat="50.21764" lon="4.1579">
        <ele>209.621857</ele>
        <time>2023-05-18T08:36:44Z</time>
      </trkpt>
      <trkpt lat="50.21774" lon="4.15786">
        <ele>209.396118</ele>
        <time>2023-05-18T08:36:46Z</time>
      </trkpt>
      <trkpt lat="50.21787" lon="4.15781">
        <ele>209.607208</ele>
        <time>2023-05-18T08:36:48Z</time>
      </trkpt>
      <trkpt lat="50.21798" lon="4.15776">
        <ele>209.809937</ele>
        <time>2023-05-18T08:36:50Z</time>
      </trkpt>
      <trkpt lat="50.21808" lon="4.15772">
        <ele>209.935333</ele>
        <time>2023-05-18T08:36:52Z</time>
      </trkpt>
      <trkpt lat="50.21817" lon="4.15768">
        <ele>209.889328</ele>
        <time>2023-05-18T08:36:54Z</time>
      </trkpt>
      <trkpt lat="50.21825" lon="4.15765">
        <ele>210.050217</ele>
        <time>2023-05-18T08:36:56Z</time>
      </trkpt>
      <trkpt lat="50.21833" lon="4.15763">
        <ele>210.144821</ele>
        <time>2023-05-18T08:36:58Z</time>
      </trkpt>
      <trkpt lat="50.21839" lon="4.15761">
        <ele>210.23259</ele>
        <time>2023-05-18T08:37:00Z</time>
      </trkpt>
      <trkpt lat="50.21844" lon="4.1576">
        <ele>210.215866</ele>
        <time>2023-05-18T08:37:02Z</time>
      </trkpt>
      <trkpt lat="50.2185" lon="4.15758">
        <ele>210.15947</ele>
        <time>2023-05-18T08:37:04Z</time>
      </trkpt>
      <trkpt lat="50.21856" lon="4.15755">
        <ele>210.048737</ele>
        <time>2023-05-18T08:37:06Z</time>
      </trkpt>
      <trkpt lat="50.21862" lon="4.15752">
        <ele>209.864868</ele>
        <time>2023-05-18T08:37:08Z</time>
      </trkpt>
      <trkpt lat="50.21868" lon="4.15745">
        <ele>209.787933</ele>
        <time>2023-05-18T08:37:10Z</time>
      </trkpt>
      <trkpt lat="50.21872" lon="4.15738">
        <ele>209.548859</ele>
        <time>2023-05-18T08:37:12Z</time>
      </trkpt>
      <trkpt lat="50.21874" lon="4.1573">
        <ele>209.239655</ele>
        <time>2023-05-18T08:37:14Z</time>
      </trkpt>
      <trkpt lat="50.21876" lon="4.15719">
        <ele>208.845551</ele>
        <time>2023-05-18T08:37:16Z</time>
      </trkpt>
      <trkpt lat="50.21878" lon="4.15708">
        <ele>208.51001</ele>
        <time>2023-05-18T08:37:18Z</time>
      </trkpt>
      <trkpt lat="50.2188" lon="4.15696">
        <ele>208.092361</ele>
        <time>2023-05-18T08:37:20Z</time>
      </trkpt>
      <trkpt lat="50.21883" lon="4.15682">
        <ele>207.590988</ele>
        <time>2023-05-18T08:37:22Z</time>
      </trkpt>
      <trkpt lat="50.21885" lon="4.15668">
        <ele>206.945587</ele>
        <time>2023-05-18T08:37:24Z</time>
      </trkpt>
      <trkpt lat="50.21886" lon="4.15655">
        <ele>206.699051</ele>
        <time>2023-05-18T08:37:26Z</time>
      </trkpt>
      <trkpt lat="50.21886" lon="4.15642">
        <ele>205.321442</ele>
        <time>2023-05-18T08:37:28Z</time>
      </trkpt>
      <trkpt lat="50.21886" lon="4.15625">
        <ele>204.527756</ele>
        <time>2023-05-18T08:37:30Z</time>
      </trkpt>
      <trkpt lat="50.21885" lon="4.1561">
        <ele>203.783829</ele>
        <time>2023-05-18T08:37:32Z</time>
      </trkpt>
      <trkpt lat="50.21884" lon="4.15593">
        <ele>203.065338</ele>
        <time>2023-05-18T08:37:34Z</time>
      </trkpt>
      <trkpt lat="50.21882" lon="4.15579">
        <ele>202.202896</ele>
        <time>2023-05-18T08:37:36Z</time>
      </trkpt>
      <trkpt lat="50.21884" lon="4.15565">
        <ele>201.375961</ele>
        <time>2023-05-18T08:37:38Z</time>
      </trkpt>
      <trkpt lat="50.21881" lon="4.15552">
        <ele>200.557648</ele>
        <time>2023-05-18T08:37:40Z</time>
      </trkpt>
      <trkpt lat="50.21877" lon="4.15534">
        <ele>199.78923</ele>
        <time>2023-05-18T08:37:42Z</time>
      </trkpt>
      <trkpt lat="50.21875" lon="4.15515">
        <ele>198.864471</ele>
        <time>2023-05-18T08:37:44Z</time>
      </trkpt>
      <trkpt lat="50.21872" lon="4.15493">
        <ele>197.975159</ele>
        <time>2023-05-18T08:37:46Z</time>
      </trkpt>
      <trkpt lat="50.21869" lon="4.15468">
        <ele>197.240463</ele>
        <time>2023-05-18T08:37:48Z</time>
      </trkpt>
      <trkpt lat="50.21869" lon="4.15445">
        <ele>196.795883</ele>
        <time>2023-05-18T08:37:50Z</time>
      </trkpt>
      <trkpt lat="50.21867" lon="4.15424">
        <ele>195.581024</ele>
        <time>2023-05-18T08:37:52Z</time>
      </trkpt>
      <trkpt lat="50.21866" lon="4.15406">
        <ele>195.180328</ele>
        <time>2023-05-18T08:37:54Z</time>
      </trkpt>
      <trkpt lat="50.21866" lon="4.15386">
        <ele>194.170456</ele>
        <time>2023-05-18T08:37:56Z</time>
      </trkpt>
      <trkpt lat="50.21867" lon="4.15365">
        <ele>193.390533</ele>
        <time>2023-05-18T08:37:58Z</time>
      </trkpt>
      <trkpt lat="50.21869" lon="4.15344">
        <ele>192.576584</ele>
        <time>2023-05-18T08:38:00Z</time>
      </trkpt>
      <trkpt lat="50.21871" lon="4.15324">
        <ele>191.898499</ele>
        <time>2023-05-18T08:38:02Z</time>
      </trkpt>
      <trkpt lat="50.21874" lon="4.15305">
        <ele>191.17128</ele>
        <time>2023-05-18T08:38:04Z</time>
      </trkpt>
      <trkpt lat="50.21874" lon="4.15289">
        <ele>190.450348</ele>
        <time>2023-05-18T08:38:06Z</time>
      </trkpt>
      <trkpt lat="50.21876" lon="4.15276">
        <ele>190.335556</ele>
        <time>2023-05-18T08:38:08Z</time>
      </trkpt>
      <trkpt lat="50.21878" lon="4.15265">
        <ele>189.624359</ele>
        <time>2023-05-18T08:38:10Z</time>
      </trkpt>
      <trkpt lat="50.21879" lon="4.15254">
        <ele>188.754974</ele>
        <time>2023-05-18T08:38:12Z</time>
      </trkpt>
      <trkpt lat="50.21878" lon="4.1524">
        <ele>188.093811</ele>
        <time>2023-05-18T08:38:14Z</time>
      </trkpt>
      <trkpt lat="50.21877" lon="4.15226">
        <ele>187.455643</ele>
        <time>2023-05-18T08:38:16Z</time>
      </trkpt>
      <trkpt lat="50.21875" lon="4.1521">
        <ele>186.75914</ele>
        <time>2023-05-18T08:38:18Z</time>
      </trkpt>
      <trkpt lat="50.21874" lon="4.15194">
        <ele>186.052338</ele>
        <time>2023-05-18T08:38:20Z</time>
      </trkpt>
      <trkpt lat="50.21869" lon="4.1518">
        <ele>185.23613</ele>
        <time>2023-05-18T08:38:22Z</time>
      </trkpt>
      <trkpt lat="50.21863" lon="4.15169">
        <ele>184.618958</ele>
        <time>2023-05-18T08:38:24Z</time>
      </trkpt>
      <trkpt lat="50.21859" lon="4.15161">
        <ele>184.062408</ele>
        <time>2023-05-18T08:38:26Z</time>
      </trkpt>
      <trkpt lat="50.21853" lon="4.15149">
        <ele>183.420166</ele>
        <time>2023-05-18T08:38:28Z</time>
      </trkpt>
      <trkpt lat="50.21846" lon="4.15137">
        <ele>182.76149</ele>
        <time>2023-05-18T08:38:30Z</time>
      </trkpt>
      <trkpt lat="50.2185" lon="4.15121">
        <ele>182.144516</ele>
        <time>2023-05-18T08:38:32Z</time>
      </trkpt>
      <trkpt lat="50.21859" lon="4.15108">
        <ele>181.435852</ele>
        <time>2023-05-18T08:38:34Z</time>
      </trkpt>
      <trkpt lat="50.21868" lon="4.151">
        <ele>181.082458</ele>
        <time>2023-05-18T08:38:36Z</time>
      </trkpt>
      <trkpt lat="50.21875" lon="4.15091">
        <ele>180.430817</ele>
        <time>2023-05-18T08:38:38Z</time>
      </trkpt>
      <trkpt lat="50.21883" lon="4.15082">
        <ele>180.111969</ele>
        <time>2023-05-18T08:38:40Z</time>
      </trkpt>
      <trkpt lat="50.2189" lon="4.15072">
        <ele>179.559708</ele>
        <time>2023-05-18T08:38:42Z</time>
      </trkpt>
      <trkpt lat="50.21897" lon="4.15066">
        <ele>179.11969</ele>
        <time>2023-05-18T08:38:44Z</time>
      </trkpt>
      <trkpt lat="50.21903" lon="4.15066">
        <ele>178.496979</ele>
        <time>2023-05-18T08:38:46Z</time>
      </trkpt>
      <trkpt lat="50.21906" lon="4.15067">
        <ele>178.10318</ele>
        <time>2023-05-18T08:38:48Z</time>
      </trkpt>
      <trkpt lat="50.21907" lon="4.15067">
        <ele>177.640381</ele>
        <time>2023-05-18T08:38:50Z</time>
      </trkpt>
      <trkpt lat="50.21908" lon="4.15068">
        <ele>177.375793</ele>
        <time>2023-05-18T08:38:52Z</time>
      </trkpt>
      <trkpt lat="50.21909" lon="4.15068">
        <ele>177.082062</ele>
        <time>2023-05-18T08:38:54Z</time>
      </trkpt>
      <trkpt lat="50.21911" lon="4.15069">
        <ele>176.703461</ele>
        <time>2023-05-18T08:38:56Z</time>
      </trkpt>
      <trkpt lat="50.21912" lon="4.15071">
        <ele>176.332581</ele>
        <time>2023-05-18T08:38:58Z</time>
      </trkpt>
      <trkpt lat="50.21912" lon="4.15072">
        <ele>176.130493</ele>
        <time>2023-05-18T08:39:00Z</time>
      </trkpt>
      <trkpt lat="50.21913" lon="4.15072">
        <ele>175.972168</ele>
        <time>2023-05-18T08:39:02Z</time>
      </trkpt>
      <trkpt lat="50.21914" lon="4.15074">
        <ele>175.840912</ele>
        <time>2023-05-18T08:39:04Z</time>
      </trkpt>
      <trkpt lat="50.21916" lon="4.15075">
        <ele>175.726349</ele>
        <time>2023-05-18T08:39:06Z</time>
      </trkpt>
      <trkpt lat="50.21918" lon="4.15077">
        <ele>175.60968</ele>
        <time>2023-05-18T08:39:08Z</time>
      </trkpt>
      <trkpt lat="50.21919" lon="4.15078">
        <ele>175.570099</ele>
        <time>2023-05-18T08:39:10Z</time>
      </trkpt>
      <trkpt lat="50.2192" lon="4.15081">
        <ele>175.555527</ele>
        <time>2023-05-18T08:39:12Z</time>
      </trkpt>
      <trkpt lat="50.21922" lon="4.15083">
        <ele>175.597183</ele>
        <time>2023-05-18T08:39:14Z</time>
      </trkpt>
      <trkpt lat="50.21923" lon="4.15084">
        <ele>175.762634</ele>
        <time>2023-05-18T08:39:18Z</time>
      </trkpt>
      <trkpt lat="50.21925" lon="4.15085">
        <ele>175.843872</ele>
        <time>2023-05-18T08:39:20Z</time>
      </trkpt>
      <trkpt lat="50.21926" lon="4.15085">
        <ele>175.89595</ele>
        <time>2023-05-18T08:39:21Z</time>
      </trkpt>
      <trkpt lat="50.21928" lon="4.15087">
        <ele>176.000458</ele>
        <time>2023-05-18T08:39:23Z</time>
      </trkpt>
      <trkpt lat="50.21929" lon="4.15088">
        <ele>176.198166</ele>
        <time>2023-05-18T08:39:25Z</time>
      </trkpt>
      <trkpt lat="50.2193" lon="4.15088">
        <ele>176.337738</ele>
        <time>2023-05-18T08:39:27Z</time>
      </trkpt>
      <trkpt lat="50.21933" lon="4.15088">
        <ele>176.558746</ele>
        <time>2023-05-18T08:39:31Z</time>
      </trkpt>
      <trkpt lat="50.21935" lon="4.15089">
        <ele>176.683716</ele>
        <time>2023-05-18T08:39:33Z</time>
      </trkpt>
      <trkpt lat="50.21936" lon="4.15089">
        <ele>176.898285</ele>
        <time>2023-05-18T08:39:35Z</time>
      </trkpt>
      <trkpt lat="50.21938" lon="4.15089">
        <ele>177.076813</ele>
        <time>2023-05-18T08:39:37Z</time>
      </trkpt>
      <trkpt lat="50.2194" lon="4.15088">
        <ele>177.299713</ele>
        <time>2023-05-18T08:39:39Z</time>
      </trkpt>
      <trkpt lat="50.21943" lon="4.15088">
        <ele>177.535126</ele>
        <time>2023-05-18T08:39:41Z</time>
      </trkpt>
      <trkpt lat="50.21944" lon="4.15088">
        <ele>177.753876</ele>
        <time>2023-05-18T08:39:43Z</time>
      </trkpt>
      <trkpt lat="50.21945" lon="4.15089">
        <ele>177.987228</ele>
        <time>2023-05-18T08:39:45Z</time>
      </trkpt>
      <trkpt lat="50.21947" lon="4.15093">
        <ele>179.520584</ele>
        <time>2023-05-18T08:39:57Z</time>
      </trkpt>
      <trkpt lat="50.21948" lon="4.15095">
        <ele>179.786987</ele>
        <time>2023-05-18T08:39:59Z</time>
      </trkpt>
      <trkpt lat="50.21948" lon="4.15098">
        <ele>179.957855</ele>
        <time>2023-05-18T08:40:01Z</time>
      </trkpt>
      <trkpt lat="50.21949" lon="4.15102">
        <ele>180.212082</ele>
        <time>2023-05-18T08:40:03Z</time>
      </trkpt>
      <trkpt lat="50.2195" lon="4.15106">
        <ele>180.489227</ele>
        <time>2023-05-18T08:40:05Z</time>
      </trkpt>
      <trkpt lat="50.21951" lon="4.1511">
        <ele>180.795746</ele>
        <time>2023-05-18T08:40:07Z</time>
      </trkpt>
      <trkpt lat="50.21952" lon="4.15113">
        <ele>181.064117</ele>
        <time>2023-05-18T08:40:09Z</time>
      </trkpt>
      <trkpt lat="50.21953" lon="4.15118">
        <ele>181.382782</ele>
        <time>2023-05-18T08:40:11Z</time>
      </trkpt>
      <trkpt lat="50.21954" lon="4.15122">
        <ele>181.703705</ele>
        <time>2023-05-18T08:40:13Z</time>
      </trkpt>
      <trkpt lat="50.21954" lon="4.15127">
        <ele>182.003616</ele>
        <time>2023-05-18T08:40:15Z</time>
      </trkpt>
      <trkpt lat="50.21956" lon="4.15132">
        <ele>182.360016</ele>
        <time>2023-05-18T08:40:17Z</time>
      </trkpt>
      <trkpt lat="50.21956" lon="4.15136">
        <ele>182.649811</ele>
        <time>2023-05-18T08:40:19Z</time>
      </trkpt>
      <trkpt lat="50.21956" lon="4.15139">
        <ele>182.918274</ele>
        <time>2023-05-18T08:40:21Z</time>
      </trkpt>
      <trkpt lat="50.21957" lon="4.15144">
        <ele>183.237183</ele>
        <time>2023-05-18T08:40:23Z</time>
      </trkpt>
      <trkpt lat="50.21957" lon="4.15148">
        <ele>183.556122</ele>
        <time>2023-05-18T08:40:25Z</time>
      </trkpt>
      <trkpt lat="50.21958" lon="4.15153">
        <ele>183.845871</ele>
        <time>2023-05-18T08:40:27Z</time>
      </trkpt>
      <trkpt lat="50.21959" lon="4.15158">
        <ele>184.149902</ele>
        <time>2023-05-18T08:40:29Z</time>
      </trkpt>
      <trkpt lat="50.2196" lon="4.15162">
        <ele>184.460526</ele>
        <time>2023-05-18T08:40:31Z</time>
      </trkpt>
      <trkpt lat="50.2196" lon="4.15166">
        <ele>184.608932</ele>
        <time>2023-05-18T08:40:33Z</time>
      </trkpt>
      <trkpt lat="50.2196" lon="4.1517">
        <ele>184.963348</ele>
        <time>2023-05-18T08:40:35Z</time>
      </trkpt>
      <trkpt lat="50.2196" lon="4.15175">
        <ele>185.276077</ele>
        <time>2023-05-18T08:40:37Z</time>
      </trkpt>
      <trkpt lat="50.2196" lon="4.15179">
        <ele>185.624054</ele>
        <time>2023-05-18T08:40:39Z</time>
      </trkpt>
      <trkpt lat="50.2196" lon="4.15183">
        <ele>185.928345</ele>
        <time>2023-05-18T08:40:41Z</time>
      </trkpt>
      <trkpt lat="50.21961" lon="4.15187">
        <ele>186.257797</ele>
        <time>2023-05-18T08:40:43Z</time>
      </trkpt>
      <trkpt lat="50.21961" lon="4.15191">
        <ele>186.631027</ele>
        <time>2023-05-18T08:40:45Z</time>
      </trkpt>
      <trkpt lat="50.21962" lon="4.15195">
        <ele>186.975067</ele>
        <time>2023-05-18T08:40:47Z</time>
      </trkpt>
      <trkpt lat="50.21962" lon="4.152">
        <ele>187.31958</ele>
        <time>2023-05-18T08:40:49Z</time>
      </trkpt>
      <trkpt lat="50.21962" lon="4.15205">
        <ele>187.598999</ele>
        <time>2023-05-18T08:40:51Z</time>
      </trkpt>
      <trkpt lat="50.21963" lon="4.1521">
        <ele>187.936813</ele>
        <time>2023-05-18T08:40:53Z</time>
      </trkpt>
      <trkpt lat="50.21964" lon="4.15215">
        <ele>188.251709</ele>
        <time>2023-05-18T08:40:55Z</time>
      </trkpt>
      <trkpt lat="50.21964" lon="4.15219">
        <ele>188.560562</ele>
        <time>2023-05-18T08:40:57Z</time>
      </trkpt>
      <trkpt lat="50.21964" lon="4.15224">
        <ele>188.887909</ele>
        <time>2023-05-18T08:40:59Z</time>
      </trkpt>
      <trkpt lat="50.21964" lon="4.1523">
        <ele>189.201157</ele>
        <time>2023-05-18T08:41:01Z</time>
      </trkpt>
      <trkpt lat="50.21965" lon="4.15235">
        <ele>189.503571</ele>
        <time>2023-05-18T08:41:03Z</time>
      </trkpt>
      <trkpt lat="50.21967" lon="4.1524">
        <ele>189.760452</ele>
        <time>2023-05-18T08:41:05Z</time>
      </trkpt>
      <trkpt lat="50.21968" lon="4.15246">
        <ele>190.025345</ele>
        <time>2023-05-18T08:41:07Z</time>
      </trkpt>
      <trkpt lat="50.21969" lon="4.15252">
        <ele>190.311111</ele>
        <time>2023-05-18T08:41:09Z</time>
      </trkpt>
      <trkpt lat="50.2197" lon="4.15259">
        <ele>190.575027</ele>
        <time>2023-05-18T08:41:11Z</time>
      </trkpt>
      <trkpt lat="50.21972" lon="4.15263">
        <ele>190.854523</ele>
        <time>2023-05-18T08:41:13Z</time>
      </trkpt>
      <trkpt lat="50.21975" lon="4.15268">
        <ele>191.138229</ele>
        <time>2023-05-18T08:41:15Z</time>
      </trkpt>
      <trkpt lat="50.21977" lon="4.15273">
        <ele>191.398361</ele>
        <time>2023-05-18T08:41:17Z</time>
      </trkpt>
      <trkpt lat="50.21978" lon="4.1528">
        <ele>191.625748</ele>
        <time>2023-05-18T08:41:19Z</time>
      </trkpt>
      <trkpt lat="50.21978" lon="4.15286">
        <ele>191.784286</ele>
        <time>2023-05-18T08:41:21Z</time>
      </trkpt>
      <trkpt lat="50.21978" lon="4.15292">
        <ele>192.001923</ele>
        <time>2023-05-18T08:41:23Z</time>
      </trkpt>
      <trkpt lat="50.21979" lon="4.15298">
        <ele>192.239746</ele>
        <time>2023-05-18T08:41:25Z</time>
      </trkpt>
      <trkpt lat="50.2198" lon="4.15304">
        <ele>192.477585</ele>
        <time>2023-05-18T08:41:27Z</time>
      </trkpt>
      <trkpt lat="50.21982" lon="4.15311">
        <ele>192.7509</ele>
        <time>2023-05-18T08:41:29Z</time>
      </trkpt>
      <trkpt lat="50.21983" lon="4.15314">
        <ele>192.836105</ele>
        <time>2023-05-18T08:41:30Z</time>
      </trkpt>
      <trkpt lat="50.21984" lon="4.1532">
        <ele>193.12915</ele>
        <time>2023-05-18T08:41:32Z</time>
      </trkpt>
      <trkpt lat="50.21985" lon="4.15327">
        <ele>193.389969</ele>
        <time>2023-05-18T08:41:34Z</time>
      </trkpt>
      <trkpt lat="50.21986" lon="4.15333">
        <ele>193.650787</ele>
        <time>2023-05-18T08:41:36Z</time>
      </trkpt>
      <trkpt lat="50.21988" lon="4.15343">
        <ele>194.111969</ele>
        <time>2023-05-18T08:41:39Z</time>
      </trkpt>
      <trkpt lat="50.2199" lon="4.15349">
        <ele>194.36496</ele>
        <time>2023-05-18T08:41:41Z</time>
      </trkpt>
      <trkpt lat="50.21991" lon="4.15352">
        <ele>194.506882</ele>
        <time>2023-05-18T08:41:42Z</time>
      </trkpt>
      <trkpt lat="50.21992" lon="4.15359">
        <ele>194.809479</ele>
        <time>2023-05-18T08:41:44Z</time>
      </trkpt>
      <trkpt lat="50.21994" lon="4.15368">
        <ele>195.076218</ele>
        <time>2023-05-18T08:41:46Z</time>
      </trkpt>
      <trkpt lat="50.21996" lon="4.1538">
        <ele>195.336273</ele>
        <time>2023-05-18T08:41:48Z</time>
      </trkpt>
      <trkpt lat="50.21997" lon="4.15387">
        <ele>195.455246</ele>
        <time>2023-05-18T08:41:50Z</time>
      </trkpt>
      <trkpt lat="50.21998" lon="4.15395">
        <ele>195.732025</ele>
        <time>2023-05-18T08:41:52Z</time>
      </trkpt>
      <trkpt lat="50.22" lon="4.15403">
        <ele>196.053421</ele>
        <time>2023-05-18T08:41:54Z</time>
      </trkpt>
      <trkpt lat="50.22003" lon="4.15412">
        <ele>196.326828</ele>
        <time>2023-05-18T08:41:56Z</time>
      </trkpt>
      <trkpt lat="50.22008" lon="4.15416">
        <ele>196.554428</ele>
        <time>2023-05-18T08:41:58Z</time>
      </trkpt>
      <trkpt lat="50.22013" lon="4.15417">
        <ele>196.841019</ele>
        <time>2023-05-18T08:42:00Z</time>
      </trkpt>
      <trkpt lat="50.22018" lon="4.15416">
        <ele>197.10817</ele>
        <time>2023-05-18T08:42:02Z</time>
      </trkpt>
      <trkpt lat="50.22023" lon="4.15417">
        <ele>197.456787</ele>
        <time>2023-05-18T08:42:04Z</time>
      </trkpt>
      <trkpt lat="50.22028" lon="4.15416">
        <ele>197.744843</ele>
        <time>2023-05-18T08:42:06Z</time>
      </trkpt>
      <trkpt lat="50.22031" lon="4.15415">
        <ele>198.045425</ele>
        <time>2023-05-18T08:42:08Z</time>
      </trkpt>
      <trkpt lat="50.22036" lon="4.15413">
        <ele>198.389862</ele>
        <time>2023-05-18T08:42:10Z</time>
      </trkpt>
      <trkpt lat="50.22041" lon="4.15412">
        <ele>198.709579</ele>
        <time>2023-05-18T08:42:12Z</time>
      </trkpt>
      <trkpt lat="50.22044" lon="4.15411">
        <ele>198.844299</ele>
        <time>2023-05-18T08:42:13Z</time>
      </trkpt>
      <trkpt lat="50.22047" lon="4.1541">
        <ele>199.149094</ele>
        <time>2023-05-18T08:42:15Z</time>
      </trkpt>
      <trkpt lat="50.22048" lon="4.15409">
        <ele>199.285797</ele>
        <time>2023-05-18T08:42:16Z</time>
      </trkpt>
      <trkpt lat="50.22052" lon="4.15408">
        <ele>199.603165</ele>
        <time>2023-05-18T08:42:18Z</time>
      </trkpt>
      <trkpt lat="50.22057" lon="4.15407">
        <ele>199.918427</ele>
        <time>2023-05-18T08:42:20Z</time>
      </trkpt>
      <trkpt lat="50.22062" lon="4.15405">
        <ele>200.279114</ele>
        <time>2023-05-18T08:42:22Z</time>
      </trkpt>
      <trkpt lat="50.22067" lon="4.15404">
        <ele>200.594391</ele>
        <time>2023-05-18T08:42:24Z</time>
      </trkpt>
      <trkpt lat="50.22072" lon="4.15402">
        <ele>200.950531</ele>
        <time>2023-05-18T08:42:26Z</time>
      </trkpt>
      <trkpt lat="50.22077" lon="4.15399">
        <ele>201.295685</ele>
        <time>2023-05-18T08:42:28Z</time>
      </trkpt>
      <trkpt lat="50.22084" lon="4.15399">
        <ele>201.693207</ele>
        <time>2023-05-18T08:42:30Z</time>
      </trkpt>
      <trkpt lat="50.22091" lon="4.15396">
        <ele>201.841461</ele>
        <time>2023-05-18T08:42:32Z</time>
      </trkpt>
      <trkpt lat="50.221" lon="4.15392">
        <ele>202.175568</ele>
        <time>2023-05-18T08:42:34Z</time>
      </trkpt>
      <trkpt lat="50.22106" lon="4.15389">
        <ele>202.384384</ele>
        <time>2023-05-18T08:42:36Z</time>
      </trkpt>
      <trkpt lat="50.22116" lon="4.15384">
        <ele>202.707199</ele>
        <time>2023-05-18T08:42:38Z</time>
      </trkpt>
      <trkpt lat="50.22125" lon="4.15379">
        <ele>202.943069</ele>
        <time>2023-05-18T08:42:40Z</time>
      </trkpt>
      <trkpt lat="50.22135" lon="4.15376">
        <ele>203.298065</ele>
        <time>2023-05-18T08:42:42Z</time>
      </trkpt>
      <trkpt lat="50.22144" lon="4.15375">
        <ele>203.598801</ele>
        <time>2023-05-18T08:42:44Z</time>
      </trkpt>
      <trkpt lat="50.22153" lon="4.15377">
        <ele>203.89537</ele>
        <time>2023-05-18T08:42:46Z</time>
      </trkpt>
      <trkpt lat="50.22163" lon="4.1538">
        <ele>204.181488</ele>
        <time>2023-05-18T08:42:48Z</time>
      </trkpt>
      <trkpt lat="50.22171" lon="4.15384">
        <ele>204.452362</ele>
        <time>2023-05-18T08:42:50Z</time>
      </trkpt>
      <trkpt lat="50.22179" lon="4.15389">
        <ele>204.675842</ele>
        <time>2023-05-18T08:42:52Z</time>
      </trkpt>
      <trkpt lat="50.22189" lon="4.15394">
        <ele>204.876343</ele>
        <time>2023-05-18T08:42:54Z</time>
      </trkpt>
      <trkpt lat="50.22198" lon="4.15401">
        <ele>205.06015</ele>
        <time>2023-05-18T08:42:56Z</time>
      </trkpt>
      <trkpt lat="50.2221" lon="4.15408">
        <ele>205.257568</ele>
        <time>2023-05-18T08:42:58Z</time>
      </trkpt>
      <trkpt lat="50.22222" lon="4.15415">
        <ele>205.410034</ele>
        <time>2023-05-18T08:43:00Z</time>
      </trkpt>
      <trkpt lat="50.22231" lon="4.15419">
        <ele>205.602219</ele>
        <time>2023-05-18T08:43:02Z</time>
      </trkpt>
      <trkpt lat="50.22241" lon="4.15422">
        <ele>205.600143</ele>
        <time>2023-05-18T08:43:04Z</time>
      </trkpt>
      <trkpt lat="50.22251" lon="4.15422">
        <ele>205.651199</ele>
        <time>2023-05-18T08:43:06Z</time>
      </trkpt>
      <trkpt lat="50.22261" lon="4.15422">
        <ele>205.700684</ele>
        <time>2023-05-18T08:43:08Z</time>
      </trkpt>
      <trkpt lat="50.22272" lon="4.15419">
        <ele>205.67981</ele>
        <time>2023-05-18T08:43:10Z</time>
      </trkpt>
      <trkpt lat="50.22281" lon="4.1541">
        <ele>205.573273</ele>
        <time>2023-05-18T08:43:12Z</time>
      </trkpt>
      <trkpt lat="50.22287" lon="4.15401">
        <ele>205.548218</ele>
        <time>2023-05-18T08:43:14Z</time>
      </trkpt>
      <trkpt lat="50.22291" lon="4.15397">
        <ele>205.596268</ele>
        <time>2023-05-18T08:43:16Z</time>
      </trkpt>
      <trkpt lat="50.22294" lon="4.15395">
        <ele>205.530273</ele>
        <time>2023-05-18T08:43:18Z</time>
      </trkpt>
      <trkpt lat="50.22294" lon="4.1539">
        <ele>205.502899</ele>
        <time>2023-05-18T08:43:20Z</time>
      </trkpt>
      <trkpt lat="50.22292" lon="4.15383">
        <ele>205.440231</ele>
        <time>2023-05-18T08:43:22Z</time>
      </trkpt>
      <trkpt lat="50.22292" lon="4.15378">
        <ele>205.356689</ele>
        <time>2023-05-18T08:43:23Z</time>
      </trkpt>
      <trkpt lat="50.22291" lon="4.15368">
        <ele>205.244232</ele>
        <time>2023-05-18T08:43:25Z</time>
      </trkpt>
      <trkpt lat="50.22291" lon="4.15356">
        <ele>204.981079</ele>
        <time>2023-05-18T08:43:27Z</time>
      </trkpt>
      <trkpt lat="50.2229" lon="4.15342">
        <ele>204.864166</ele>
        <time>2023-05-18T08:43:29Z</time>
      </trkpt>
      <trkpt lat="50.22289" lon="4.15327">
        <ele>204.497238</ele>
        <time>2023-05-18T08:43:31Z</time>
      </trkpt>
      <trkpt lat="50.22289" lon="4.15312">
        <ele>204.290466</ele>
        <time>2023-05-18T08:43:33Z</time>
      </trkpt>
      <trkpt lat="50.22288" lon="4.15294">
        <ele>204.107925</ele>
        <time>2023-05-18T08:43:35Z</time>
      </trkpt>
      <trkpt lat="50.22287" lon="4.15275">
        <ele>203.692368</ele>
        <time>2023-05-18T08:43:37Z</time>
      </trkpt>
      <trkpt lat="50.22284" lon="4.15256">
        <ele>203.210022</ele>
        <time>2023-05-18T08:43:39Z</time>
      </trkpt>
      <trkpt lat="50.22281" lon="4.15236">
        <ele>202.903046</ele>
        <time>2023-05-18T08:43:41Z</time>
      </trkpt>
      <trkpt lat="50.22275" lon="4.15215">
        <ele>202.408249</ele>
        <time>2023-05-18T08:43:43Z</time>
      </trkpt>
      <trkpt lat="50.22273" lon="4.15192">
        <ele>202.084641</ele>
        <time>2023-05-18T08:43:45Z</time>
      </trkpt>
      <trkpt lat="50.22271" lon="4.15169">
        <ele>201.911301</ele>
        <time>2023-05-18T08:43:47Z</time>
      </trkpt>
      <trkpt lat="50.22273" lon="4.15146">
        <ele>201.522491</ele>
        <time>2023-05-18T08:43:49Z</time>
      </trkpt>
      <trkpt lat="50.22278" lon="4.15124">
        <ele>201.174469</ele>
        <time>2023-05-18T08:43:51Z</time>
      </trkpt>
      <trkpt lat="50.22283" lon="4.15104">
        <ele>200.742355</ele>
        <time>2023-05-18T08:43:53Z</time>
      </trkpt>
      <trkpt lat="50.22288" lon="4.15084">
        <ele>200.105682</ele>
        <time>2023-05-18T08:43:55Z</time>
      </trkpt>
      <trkpt lat="50.22293" lon="4.15066">
        <ele>199.753036</ele>
        <time>2023-05-18T08:43:57Z</time>
      </trkpt>
      <trkpt lat="50.22298" lon="4.15049">
        <ele>199.262436</ele>
        <time>2023-05-18T08:43:59Z</time>
      </trkpt>
      <trkpt lat="50.22299" lon="4.15032">
        <ele>199.117203</ele>
        <time>2023-05-18T08:44:01Z</time>
      </trkpt>
      <trkpt lat="50.223" lon="4.15012">
        <ele>198.804535</ele>
        <time>2023-05-18T08:44:03Z</time>
      </trkpt>
      <trkpt lat="50.22303" lon="4.14992">
        <ele>198.17807</ele>
        <time>2023-05-18T08:44:05Z</time>
      </trkpt>
      <trkpt lat="50.22302" lon="4.1497">
        <ele>197.462326</ele>
        <time>2023-05-18T08:44:07Z</time>
      </trkpt>
      <trkpt lat="50.22298" lon="4.14946">
        <ele>197.0112</ele>
        <time>2023-05-18T08:44:09Z</time>
      </trkpt>
      <trkpt lat="50.22292" lon="4.14921">
        <ele>196.263931</ele>
        <time>2023-05-18T08:44:11Z</time>
      </trkpt>
      <trkpt lat="50.22286" lon="4.14899">
        <ele>195.763107</ele>
        <time>2023-05-18T08:44:13Z</time>
      </trkpt>
      <trkpt lat="50.22279" lon="4.1488">
        <ele>195.126495</ele>
        <time>2023-05-18T08:44:15Z</time>
      </trkpt>
      <trkpt lat="50.22271" lon="4.14867">
        <ele>194.18869</ele>
        <time>2023-05-18T08:44:17Z</time>
      </trkpt>
      <trkpt lat="50.22262" lon="4.14858">
        <ele>193.652954</ele>
        <time>2023-05-18T08:44:19Z</time>
      </trkpt>
      <trkpt lat="50.22252" lon="4.14853">
        <ele>192.937592</ele>
        <time>2023-05-18T08:44:21Z</time>
      </trkpt>
      <trkpt lat="50.22244" lon="4.14851">
        <ele>192.05954</ele>
        <time>2023-05-18T08:44:23Z</time>
      </trkpt>
      <trkpt lat="50.22239" lon="4.14848">
        <ele>191.009888</ele>
        <time>2023-05-18T08:44:25Z</time>
      </trkpt>
      <trkpt lat="50.22239" lon="4.1484">
        <ele>190.073395</ele>
        <time>2023-05-18T08:44:27Z</time>
      </trkpt>
      <trkpt lat="50.22245" lon="4.14837">
        <ele>189.145325</ele>
        <time>2023-05-18T08:44:29Z</time>
      </trkpt>
      <trkpt lat="50.2225" lon="4.14837">
        <ele>187.62265</ele>
        <time>2023-05-18T08:44:31Z</time>
      </trkpt>
      <trkpt lat="50.22258" lon="4.14835">
        <ele>187.074417</ele>
        <time>2023-05-18T08:44:33Z</time>
      </trkpt>
      <trkpt lat="50.22267" lon="4.14835">
        <ele>186.223923</ele>
        <time>2023-05-18T08:44:35Z</time>
      </trkpt>
      <trkpt lat="50.22275" lon="4.14834">
        <ele>185.064484</ele>
        <time>2023-05-18T08:44:37Z</time>
      </trkpt>
      <trkpt lat="50.22282" lon="4.14832">
        <ele>184.047073</ele>
        <time>2023-05-18T08:44:39Z</time>
      </trkpt>
      <trkpt lat="50.22291" lon="4.14831">
        <ele>183.61554</ele>
        <time>2023-05-18T08:44:41Z</time>
      </trkpt>
      <trkpt lat="50.223" lon="4.14831">
        <ele>182.467621</ele>
        <time>2023-05-18T08:44:43Z</time>
      </trkpt>
      <trkpt lat="50.2231" lon="4.14827">
        <ele>181.361801</ele>
        <time>2023-05-18T08:44:45Z</time>
      </trkpt>
      <trkpt lat="50.2232" lon="4.14823">
        <ele>180.362762</ele>
        <time>2023-05-18T08:44:47Z</time>
      </trkpt>
      <trkpt lat="50.2233" lon="4.14818">
        <ele>179.85025</ele>
        <time>2023-05-18T08:44:49Z</time>
      </trkpt>
      <trkpt lat="50.2234" lon="4.14814">
        <ele>179.064636</ele>
        <time>2023-05-18T08:44:51Z</time>
      </trkpt>
      <trkpt lat="50.22351" lon="4.14809">
        <ele>178.05751</ele>
        <time>2023-05-18T08:44:53Z</time>
      </trkpt>
      <trkpt lat="50.22361" lon="4.14803">
        <ele>177.74115</ele>
        <time>2023-05-18T08:44:55Z</time>
      </trkpt>
      <trkpt lat="50.22372" lon="4.14796">
        <ele>176.830658</ele>
        <time>2023-05-18T08:44:57Z</time>
      </trkpt>
      <trkpt lat="50.22382" lon="4.14789">
        <ele>176.187103</ele>
        <time>2023-05-18T08:44:59Z</time>
      </trkpt>
      <trkpt lat="50.22393" lon="4.14782">
        <ele>175.257462</ele>
        <time>2023-05-18T08:45:01Z</time>
      </trkpt>
      <trkpt lat="50.22403" lon="4.14776">
        <ele>174.565979</ele>
        <time>2023-05-18T08:45:03Z</time>
      </trkpt>
      <trkpt lat="50.22414" lon="4.14772">
        <ele>173.962082</ele>
        <time>2023-05-18T08:45:05Z</time>
      </trkpt>
      <trkpt lat="50.22425" lon="4.14768">
        <ele>173.239532</ele>
        <time>2023-05-18T08:45:07Z</time>
      </trkpt>
      <trkpt lat="50.22437" lon="4.14764">
        <ele>172.625031</ele>
        <time>2023-05-18T08:45:09Z</time>
      </trkpt>
      <trkpt lat="50.22447" lon="4.1476">
        <ele>172.349503</ele>
        <time>2023-05-18T08:45:11Z</time>
      </trkpt>
      <trkpt lat="50.22455" lon="4.14759">
        <ele>171.710236</ele>
        <time>2023-05-18T08:45:13Z</time>
      </trkpt>
      <trkpt lat="50.22464" lon="4.14756">
        <ele>171.24176</ele>
        <time>2023-05-18T08:45:15Z</time>
      </trkpt>
      <trkpt lat="50.22472" lon="4.14751">
        <ele>170.708801</ele>
        <time>2023-05-18T08:45:17Z</time>
      </trkpt>
      <trkpt lat="50.22477" lon="4.14753">
        <ele>170.22374</ele>
        <time>2023-05-18T08:45:19Z</time>
      </trkpt>
      <trkpt lat="50.22482" lon="4.14758">
        <ele>169.803909</ele>
        <time>2023-05-18T08:45:21Z</time>
      </trkpt>
      <trkpt lat="50.22483" lon="4.14761">
        <ele>169.312592</ele>
        <time>2023-05-18T08:45:23Z</time>
      </trkpt>
      <trkpt lat="50.22483" lon="4.14762">
        <ele>168.87384</ele>
        <time>2023-05-18T08:45:24Z</time>
      </trkpt>
      <trkpt lat="50.22484" lon="4.14761">
        <ele>167.596863</ele>
        <time>2023-05-18T08:45:30Z</time>
      </trkpt>
      <trkpt lat="50.22484" lon="4.14757">
        <ele>166.880768</ele>
        <time>2023-05-18T08:45:34Z</time>
      </trkpt>
      <trkpt lat="50.22483" lon="4.14753">
        <ele>166.2397</ele>
        <time>2023-05-18T08:45:38Z</time>
      </trkpt>
      <trkpt lat="50.22485" lon="4.14749">
        <ele>165.85051</ele>
        <time>2023-05-18T08:45:42Z</time>
      </trkpt>
      <trkpt lat="50.22488" lon="4.14747">
        <ele>165.67485</ele>
        <time>2023-05-18T08:45:44Z</time>
      </trkpt>
      <trkpt lat="50.22491" lon="4.14745">
        <ele>165.506302</ele>
        <time>2023-05-18T08:45:46Z</time>
      </trkpt>
      <trkpt lat="50.22495" lon="4.14745">
        <ele>165.296112</ele>
        <time>2023-05-18T08:45:48Z</time>
      </trkpt>
      <trkpt lat="50.22498" lon="4.14747">
        <ele>165.111053</ele>
        <time>2023-05-18T08:45:50Z</time>
      </trkpt>
      <trkpt lat="50.225" lon="4.14747">
        <ele>165.007645</ele>
        <time>2023-05-18T08:45:52Z</time>
      </trkpt>
      <trkpt lat="50.22501" lon="4.14745">
        <ele>164.911942</ele>
        <time>2023-05-18T08:45:54Z</time>
      </trkpt>
      <trkpt lat="50.22503" lon="4.14743">
        <ele>164.830765</ele>
        <time>2023-05-18T08:45:56Z</time>
      </trkpt>
      <trkpt lat="50.22506" lon="4.14741">
        <ele>164.792648</ele>
        <time>2023-05-18T08:45:57Z</time>
      </trkpt>
      <trkpt lat="50.22511" lon="4.14738">
        <ele>164.790573</ele>
        <time>2023-05-18T08:46:01Z</time>
      </trkpt>
      <trkpt lat="50.22515" lon="4.14733">
        <ele>164.715057</ele>
        <time>2023-05-18T08:46:03Z</time>
      </trkpt>
      <trkpt lat="50.2252" lon="4.14729">
        <ele>164.852341</ele>
        <time>2023-05-18T08:46:05Z</time>
      </trkpt>
      <trkpt lat="50.22525" lon="4.14723">
        <ele>164.814896</ele>
        <time>2023-05-18T08:46:07Z</time>
      </trkpt>
      <trkpt lat="50.22526" lon="4.14718">
        <ele>164.827393</ele>
        <time>2023-05-18T08:46:09Z</time>
      </trkpt>
      <trkpt lat="50.2253" lon="4.14714">
        <ele>164.783691</ele>
        <time>2023-05-18T08:46:11Z</time>
      </trkpt>
      <trkpt lat="50.22533" lon="4.14712">
        <ele>164.771225</ele>
        <time>2023-05-18T08:46:12Z</time>
      </trkpt>
      <trkpt lat="50.22539" lon="4.14712">
        <ele>164.777451</ele>
        <time>2023-05-18T08:46:15Z</time>
      </trkpt>
      <trkpt lat="50.22544" lon="4.1471">
        <ele>164.823227</ele>
        <time>2023-05-18T08:46:17Z</time>
      </trkpt>
      <trkpt lat="50.22549" lon="4.14706">
        <ele>164.821136</ele>
        <time>2023-05-18T08:46:19Z</time>
      </trkpt>
      <trkpt lat="50.22551" lon="4.14702">
        <ele>164.860458</ele>
        <time>2023-05-18T08:46:21Z</time>
      </trkpt>
      <trkpt lat="50.22554" lon="4.147">
        <ele>164.939484</ele>
        <time>2023-05-18T08:46:23Z</time>
      </trkpt>
      <trkpt lat="50.22559" lon="4.14697">
        <ele>165.000671</ele>
        <time>2023-05-18T08:46:25Z</time>
      </trkpt>
      <trkpt lat="50.22564" lon="4.14692">
        <ele>165.278992</ele>
        <time>2023-05-18T08:46:33Z</time>
      </trkpt>
      <trkpt lat="50.22566" lon="4.14691">
        <ele>165.383041</ele>
        <time>2023-05-18T08:46:35Z</time>
      </trkpt>
      <trkpt lat="50.22569" lon="4.14689">
        <ele>165.521027</ele>
        <time>2023-05-18T08:46:39Z</time>
      </trkpt>
      <trkpt lat="50.22573" lon="4.14686">
        <ele>165.558487</ele>
        <time>2023-05-18T08:46:41Z</time>
      </trkpt>
      <trkpt lat="50.22578" lon="4.14682">
        <ele>165.647888</ele>
        <time>2023-05-18T08:46:43Z</time>
      </trkpt>
      <trkpt lat="50.22586" lon="4.14675">
        <ele>165.751495</ele>
        <time>2023-05-18T08:46:45Z</time>
      </trkpt>
      <trkpt lat="50.2259" lon="4.14673">
        <ele>165.753586</ele>
        <time>2023-05-18T08:46:47Z</time>
      </trkpt>
      <trkpt lat="50.22594" lon="4.14674">
        <ele>165.818146</ele>
        <time>2023-05-18T08:46:49Z</time>
      </trkpt>
      <trkpt lat="50.22598" lon="4.14673">
        <ele>165.825943</ele>
        <time>2023-05-18T08:46:51Z</time>
      </trkpt>
      <trkpt lat="50.22603" lon="4.14671">
        <ele>165.911255</ele>
        <time>2023-05-18T08:46:53Z</time>
      </trkpt>
      <trkpt lat="50.22609" lon="4.14667">
        <ele>165.913315</ele>
        <time>2023-05-18T08:46:55Z</time>
      </trkpt>
      <trkpt lat="50.22615" lon="4.14665">
        <ele>165.891449</ele>
        <time>2023-05-18T08:46:57Z</time>
      </trkpt>
      <trkpt lat="50.22622" lon="4.14663">
        <ele>165.908066</ele>
        <time>2023-05-18T08:46:59Z</time>
      </trkpt>
      <trkpt lat="50.2263" lon="4.14661">
        <ele>165.919373</ele>
        <time>2023-05-18T08:47:01Z</time>
      </trkpt>
      <trkpt lat="50.22637" lon="4.14659">
        <ele>165.884018</ele>
        <time>2023-05-18T08:47:03Z</time>
      </trkpt>
      <trkpt lat="50.22643" lon="4.14657">
        <ele>165.852844</ele>
        <time>2023-05-18T08:47:05Z</time>
      </trkpt>
      <trkpt lat="50.22651" lon="4.14657">
        <ele>165.890289</ele>
        <time>2023-05-18T08:47:07Z</time>
      </trkpt>
      <trkpt lat="50.22658" lon="4.14656">
        <ele>165.865326</ele>
        <time>2023-05-18T08:47:09Z</time>
      </trkpt>
      <trkpt lat="50.22664" lon="4.14656">
        <ele>165.813324</ele>
        <time>2023-05-18T08:47:11Z</time>
      </trkpt>
      <trkpt lat="50.22674" lon="4.14656">
        <ele>165.782089</ele>
        <time>2023-05-18T08:47:13Z</time>
      </trkpt>
      <trkpt lat="50.2268" lon="4.14656">
        <ele>165.830704</ele>
        <time>2023-05-18T08:47:15Z</time>
      </trkpt>
      <trkpt lat="50.22685" lon="4.14654">
        <ele>165.797394</ele>
        <time>2023-05-18T08:47:17Z</time>
      </trkpt>
      <trkpt lat="50.22689" lon="4.14653">
        <ele>165.75296</ele>
        <time>2023-05-18T08:47:19Z</time>
      </trkpt>
      <trkpt lat="50.22694" lon="4.14654">
        <ele>165.732162</ele>
        <time>2023-05-18T08:47:21Z</time>
      </trkpt>
      <trkpt lat="50.227" lon="4.14657">
        <ele>165.719666</ele>
        <time>2023-05-18T08:47:23Z</time>
      </trkpt>
      <trkpt lat="50.22704" lon="4.14658">
        <ele>165.739243</ele>
        <time>2023-05-18T08:47:25Z</time>
      </trkpt>
      <trkpt lat="50.22711" lon="4.14657">
        <ele>165.673096</ele>
        <time>2023-05-18T08:47:27Z</time>
      </trkpt>
      <trkpt lat="50.22715" lon="4.14658">
        <ele>165.621017</ele>
        <time>2023-05-18T08:47:29Z</time>
      </trkpt>
      <trkpt lat="50.22719" lon="4.1466">
        <ele>165.627228</ele>
        <time>2023-05-18T08:47:31Z</time>
      </trkpt>
      <trkpt lat="50.22724" lon="4.14663">
        <ele>165.635529</ele>
        <time>2023-05-18T08:47:33Z</time>
      </trkpt>
      <trkpt lat="50.22728" lon="4.14665">
        <ele>165.702118</ele>
        <time>2023-05-18T08:47:35Z</time>
      </trkpt>
      <trkpt lat="50.22735" lon="4.14666">
        <ele>165.765594</ele>
        <time>2023-05-18T08:47:37Z</time>
      </trkpt>
      <trkpt lat="50.22741" lon="4.14671">
        <ele>165.871796</ele>
        <time>2023-05-18T08:47:39Z</time>
      </trkpt>
      <trkpt lat="50.22747" lon="4.14677">
        <ele>165.975861</ele>
        <time>2023-05-18T08:47:41Z</time>
      </trkpt>
      <trkpt lat="50.22755" lon="4.14684">
        <ele>166.025101</ele>
        <time>2023-05-18T08:47:43Z</time>
      </trkpt>
      <trkpt lat="50.22762" lon="4.14689">
        <ele>166.127319</ele>
        <time>2023-05-18T08:47:45Z</time>
      </trkpt>
      <trkpt lat="50.22764" lon="4.1469">
        <ele>166.289154</ele>
        <time>2023-05-18T08:47:47Z</time>
      </trkpt>
      <trkpt lat="50.22767" lon="4.14691">
        <ele>166.890625</ele>
        <time>2023-05-18T08:47:53Z</time>
      </trkpt>
      <trkpt lat="50.2277" lon="4.14692">
        <ele>167.233841</ele>
        <time>2023-05-18T08:47:57Z</time>
      </trkpt>
      <trkpt lat="50.22776" lon="4.14689">
        <ele>167.924225</ele>
        <time>2023-05-18T08:48:03Z</time>
      </trkpt>
      <trkpt lat="50.22781" lon="4.1469">
        <ele>168.150223</ele>
        <time>2023-05-18T08:48:05Z</time>
      </trkpt>
      <trkpt lat="50.22785" lon="4.14691">
        <ele>168.30899</ele>
        <time>2023-05-18T08:48:07Z</time>
      </trkpt>
      <trkpt lat="50.22788" lon="4.14692">
        <ele>168.44841</ele>
        <time>2023-05-18T08:48:09Z</time>
      </trkpt>
      <trkpt lat="50.22791" lon="4.14693">
        <ele>168.696579</ele>
        <time>2023-05-18T08:48:11Z</time>
      </trkpt>
      <trkpt lat="50.22797" lon="4.14698">
        <ele>168.853256</ele>
        <time>2023-05-18T08:48:12Z</time>
      </trkpt>
      <trkpt lat="50.22802" lon="4.147">
        <ele>169.011826</ele>
        <time>2023-05-18T08:48:15Z</time>
      </trkpt>
      <trkpt lat="50.22808" lon="4.14701">
        <ele>169.142975</ele>
        <time>2023-05-18T08:48:17Z</time>
      </trkpt>
      <trkpt lat="50.22813" lon="4.14702">
        <ele>169.250916</ele>
        <time>2023-05-18T08:48:19Z</time>
      </trkpt>
      <trkpt lat="50.22816" lon="4.14702">
        <ele>169.271729</ele>
        <time>2023-05-18T08:48:20Z</time>
      </trkpt>
      <trkpt lat="50.22823" lon="4.14704">
        <ele>169.388275</ele>
        <time>2023-05-18T08:48:22Z</time>
      </trkpt>
      <trkpt lat="50.22833" lon="4.14703">
        <ele>169.453644</ele>
        <time>2023-05-18T08:48:25Z</time>
      </trkpt>
      <trkpt lat="50.22841" lon="4.14703">
        <ele>169.491241</ele>
        <time>2023-05-18T08:48:27Z</time>
      </trkpt>
      <trkpt lat="50.22847" lon="4.14703">
        <ele>169.41423</ele>
        <time>2023-05-18T08:48:29Z</time>
      </trkpt>
      <trkpt lat="50.22853" lon="4.14702">
        <ele>169.378571</ele>
        <time>2023-05-18T08:48:31Z</time>
      </trkpt>
      <trkpt lat="50.22855" lon="4.14702">
        <ele>169.340576</ele>
        <time>2023-05-18T08:48:32Z</time>
      </trkpt>
      <trkpt lat="50.22858" lon="4.14707">
        <ele>169.321838</ele>
        <time>2023-05-18T08:48:34Z</time>
      </trkpt>
      <trkpt lat="50.22859" lon="4.14713">
        <ele>169.224014</ele>
        <time>2023-05-18T08:48:35Z</time>
      </trkpt>
      <trkpt lat="50.22859" lon="4.14717">
        <ele>169.117844</ele>
        <time>2023-05-18T08:48:38Z</time>
      </trkpt>
      <trkpt lat="50.22857" lon="4.14721">
        <ele>169.053192</ele>
        <time>2023-05-18T08:48:40Z</time>
      </trkpt>
      <trkpt lat="50.22857" lon="4.14724">
        <ele>168.940781</ele>
        <time>2023-05-18T08:48:42Z</time>
      </trkpt>
      <trkpt lat="50.22857" lon="4.14729">
        <ele>168.851273</ele>
        <time>2023-05-18T08:48:44Z</time>
      </trkpt>
      <trkpt lat="50.22858" lon="4.14734">
        <ele>168.751068</ele>
        <time>2023-05-18T08:48:46Z</time>
      </trkpt>
      <trkpt lat="50.2286" lon="4.1474">
        <ele>168.69223</ele>
        <time>2023-05-18T08:48:48Z</time>
      </trkpt>
      <trkpt lat="50.22862" lon="4.14746">
        <ele>168.665161</ele>
        <time>2023-05-18T08:48:50Z</time>
      </trkpt>
      <trkpt lat="50.22862" lon="4.1475">
        <ele>168.647537</ele>
        <time>2023-05-18T08:48:52Z</time>
      </trkpt>
      <trkpt lat="50.22863" lon="4.14754">
        <ele>168.695419</ele>
        <time>2023-05-18T08:48:54Z</time>
      </trkpt>
      <trkpt lat="50.22863" lon="4.14759">
        <ele>168.753082</ele>
        <time>2023-05-18T08:48:56Z</time>
      </trkpt>
      <trkpt lat="50.22864" lon="4.14764">
        <ele>168.836365</ele>
        <time>2023-05-18T08:48:58Z</time>
      </trkpt>
      <trkpt lat="50.22864" lon="4.14769">
        <ele>168.984467</ele>
        <time>2023-05-18T08:49:00Z</time>
      </trkpt>
      <trkpt lat="50.22865" lon="4.14774">
        <ele>169.200989</ele>
        <time>2023-05-18T08:49:02Z</time>
      </trkpt>
      <trkpt lat="50.22865" lon="4.14779">
        <ele>169.351501</ele>
        <time>2023-05-18T08:49:04Z</time>
      </trkpt>
      <trkpt lat="50.22864" lon="4.14784">
        <ele>169.601349</ele>
        <time>2023-05-18T08:49:06Z</time>
      </trkpt>
      <trkpt lat="50.22864" lon="4.1479">
        <ele>169.824265</ele>
        <time>2023-05-18T08:49:08Z</time>
      </trkpt>
      <trkpt lat="50.22864" lon="4.14793">
        <ele>170.178207</ele>
        <time>2023-05-18T08:49:10Z</time>
      </trkpt>
      <trkpt lat="50.22864" lon="4.14795">
        <ele>170.453217</ele>
        <time>2023-05-18T08:49:12Z</time>
      </trkpt>
      <trkpt lat="50.22864" lon="4.14801">
        <ele>170.746811</ele>
        <time>2023-05-18T08:49:14Z</time>
      </trkpt>
      <trkpt lat="50.22863" lon="4.14807">
        <ele>170.907135</ele>
        <time>2023-05-18T08:49:16Z</time>
      </trkpt>
      <trkpt lat="50.22863" lon="4.14817">
        <ele>171.284515</ele>
        <time>2023-05-18T08:49:18Z</time>
      </trkpt>
      <trkpt lat="50.22864" lon="4.14822">
        <ele>171.660004</ele>
        <time>2023-05-18T08:49:20Z</time>
      </trkpt>
      <trkpt lat="50.22864" lon="4.14826">
        <ele>172.039093</ele>
        <time>2023-05-18T08:49:22Z</time>
      </trkpt>
      <trkpt lat="50.22864" lon="4.14832">
        <ele>172.477158</ele>
        <time>2023-05-18T08:49:24Z</time>
      </trkpt>
      <trkpt lat="50.22864" lon="4.14836">
        <ele>172.920242</ele>
        <time>2023-05-18T08:49:26Z</time>
      </trkpt>
      <trkpt lat="50.22865" lon="4.14842">
        <ele>173.352631</ele>
        <time>2023-05-18T08:49:28Z</time>
      </trkpt>
      <trkpt lat="50.22865" lon="4.14846">
        <ele>173.768646</ele>
        <time>2023-05-18T08:49:30Z</time>
      </trkpt>
      <trkpt lat="50.22866" lon="4.14852">
        <ele>174.225189</ele>
        <time>2023-05-18T08:49:32Z</time>
      </trkpt>
      <trkpt lat="50.22866" lon="4.14858">
        <ele>174.668793</ele>
        <time>2023-05-18T08:49:34Z</time>
      </trkpt>
      <trkpt lat="50.22865" lon="4.14862">
        <ele>174.902054</ele>
        <time>2023-05-18T08:49:36Z</time>
      </trkpt>
      <trkpt lat="50.22865" lon="4.14867">
        <ele>175.314667</ele>
        <time>2023-05-18T08:49:38Z</time>
      </trkpt>
      <trkpt lat="50.22865" lon="4.14875">
        <ele>176.060257</ele>
        <time>2023-05-18T08:49:42Z</time>
      </trkpt>
      <trkpt lat="50.22865" lon="4.14881">
        <ele>176.410233</ele>
        <time>2023-05-18T08:49:44Z</time>
      </trkpt>
      <trkpt lat="50.22865" lon="4.14886">
        <ele>176.831635</ele>
        <time>2023-05-18T08:49:46Z</time>
      </trkpt>
      <trkpt lat="50.22865" lon="4.1489">
        <ele>177.21077</ele>
        <time>2023-05-18T08:49:48Z</time>
      </trkpt>
      <trkpt lat="50.22866" lon="4.14896">
        <ele>177.609253</ele>
        <time>2023-05-18T08:49:50Z</time>
      </trkpt>
      <trkpt lat="50.22866" lon="4.14901">
        <ele>177.924835</ele>
        <time>2023-05-18T08:49:52Z</time>
      </trkpt>
      <trkpt lat="50.22865" lon="4.14907">
        <ele>178.295746</ele>
        <time>2023-05-18T08:49:54Z</time>
      </trkpt>
      <trkpt lat="50.22864" lon="4.14913">
        <ele>178.658783</ele>
        <time>2023-05-18T08:49:56Z</time>
      </trkpt>
      <trkpt lat="50.22863" lon="4.14917">
        <ele>179.031219</ele>
        <time>2023-05-18T08:49:58Z</time>
      </trkpt>
      <trkpt lat="50.22862" lon="4.14921">
        <ele>179.187469</ele>
        <time>2023-05-18T08:50:00Z</time>
      </trkpt>
      <trkpt lat="50.22861" lon="4.14926">
        <ele>179.504318</ele>
        <time>2023-05-18T08:50:02Z</time>
      </trkpt>
      <trkpt lat="50.2286" lon="4.1493">
        <ele>179.860626</ele>
        <time>2023-05-18T08:50:04Z</time>
      </trkpt>
      <trkpt lat="50.22859" lon="4.14934">
        <ele>180.187775</ele>
        <time>2023-05-18T08:50:06Z</time>
      </trkpt>
      <trkpt lat="50.22856" lon="4.14939">
        <ele>180.479523</ele>
        <time>2023-05-18T08:50:08Z</time>
      </trkpt>
      <trkpt lat="50.22853" lon="4.14942">
        <ele>180.762909</ele>
        <time>2023-05-18T08:50:10Z</time>
      </trkpt>
      <trkpt lat="50.22851" lon="4.14944">
        <ele>181.08638</ele>
        <time>2023-05-18T08:50:12Z</time>
      </trkpt>
      <trkpt lat="50.22848" lon="4.14946">
        <ele>181.369354</ele>
        <time>2023-05-18T08:50:14Z</time>
      </trkpt>
      <trkpt lat="50.22844" lon="4.1495">
        <ele>181.637863</ele>
        <time>2023-05-18T08:50:16Z</time>
      </trkpt>
      <trkpt lat="50.22842" lon="4.14952">
        <ele>181.908783</ele>
        <time>2023-05-18T08:50:18Z</time>
      </trkpt>
      <trkpt lat="50.22839" lon="4.14953">
        <ele>182.21225</ele>
        <time>2023-05-18T08:50:20Z</time>
      </trkpt>
      <trkpt lat="50.22835" lon="4.14954">
        <ele>182.527878</ele>
        <time>2023-05-18T08:50:22Z</time>
      </trkpt>
      <trkpt lat="50.22833" lon="4.14955">
        <ele>182.846771</ele>
        <time>2023-05-18T08:50:24Z</time>
      </trkpt>
      <trkpt lat="50.2283" lon="4.14957">
        <ele>183.157364</ele>
        <time>2023-05-18T08:50:26Z</time>
      </trkpt>
      <trkpt lat="50.22828" lon="4.1496">
        <ele>183.453354</ele>
        <time>2023-05-18T08:50:28Z</time>
      </trkpt>
      <trkpt lat="50.22825" lon="4.14961">
        <ele>183.597198</ele>
        <time>2023-05-18T08:50:30Z</time>
      </trkpt>
      <trkpt lat="50.22822" lon="4.14962">
        <ele>183.880951</ele>
        <time>2023-05-18T08:50:32Z</time>
      </trkpt>
      <trkpt lat="50.22818" lon="4.14962">
        <ele>184.190903</ele>
        <time>2023-05-18T08:50:34Z</time>
      </trkpt>
      <trkpt lat="50.22815" lon="4.14962">
        <ele>184.497345</ele>
        <time>2023-05-18T08:50:36Z</time>
      </trkpt>
      <trkpt lat="50.22814" lon="4.14962">
        <ele>184.67247</ele>
        <time>2023-05-18T08:50:37Z</time>
      </trkpt>
      <trkpt lat="50.22811" lon="4.14964">
        <ele>184.976852</ele>
        <time>2023-05-18T08:50:39Z</time>
      </trkpt>
      <trkpt lat="50.22809" lon="4.14964">
        <ele>185.271805</ele>
        <time>2023-05-18T08:50:41Z</time>
      </trkpt>
      <trkpt lat="50.22805" lon="4.14965">
        <ele>185.6483</ele>
        <time>2023-05-18T08:50:43Z</time>
      </trkpt>
      <trkpt lat="50.22802" lon="4.14965">
        <ele>185.940216</ele>
        <time>2023-05-18T08:50:45Z</time>
      </trkpt>
      <trkpt lat="50.22798" lon="4.14965">
        <ele>186.305115</ele>
        <time>2023-05-18T08:50:47Z</time>
      </trkpt>
      <trkpt lat="50.22795" lon="4.14966">
        <ele>186.670013</ele>
        <time>2023-05-18T08:50:49Z</time>
      </trkpt>
      <trkpt lat="50.22791" lon="4.14965">
        <ele>187.028671</ele>
        <time>2023-05-18T08:50:51Z</time>
      </trkpt>
      <trkpt lat="50.22787" lon="4.14964">
        <ele>187.364487</ele>
        <time>2023-05-18T08:50:53Z</time>
      </trkpt>
      <trkpt lat="50.22784" lon="4.14964">
        <ele>187.704834</ele>
        <time>2023-05-18T08:50:55Z</time>
      </trkpt>
      <trkpt lat="50.22779" lon="4.14963">
        <ele>188.061752</ele>
        <time>2023-05-18T08:50:57Z</time>
      </trkpt>
      <trkpt lat="50.22776" lon="4.14962">
        <ele>188.407196</ele>
        <time>2023-05-18T08:50:59Z</time>
      </trkpt>
      <trkpt lat="50.22774" lon="4.14961">
        <ele>188.580292</ele>
        <time>2023-05-18T08:51:01Z</time>
      </trkpt>
      <trkpt lat="50.22771" lon="4.14961">
        <ele>188.891022</ele>
        <time>2023-05-18T08:51:03Z</time>
      </trkpt>
      <trkpt lat="50.22769" lon="4.14959">
        <ele>189.195175</ele>
        <time>2023-05-18T08:51:05Z</time>
      </trkpt>
      <trkpt lat="50.22767" lon="4.14958">
        <ele>189.466217</ele>
        <time>2023-05-18T08:51:07Z</time>
      </trkpt>
      <trkpt lat="50.22765" lon="4.14956">
        <ele>189.744522</ele>
        <time>2023-05-18T08:51:09Z</time>
      </trkpt>
      <trkpt lat="50.22762" lon="4.14954">
        <ele>190.042786</ele>
        <time>2023-05-18T08:51:11Z</time>
      </trkpt>
      <trkpt lat="50.22759" lon="4.14951">
        <ele>190.379745</ele>
        <time>2023-05-18T08:51:13Z</time>
      </trkpt>
      <trkpt lat="50.22756" lon="4.1495">
        <ele>190.71109</ele>
        <time>2023-05-18T08:51:15Z</time>
      </trkpt>
      <trkpt lat="50.22754" lon="4.14947">
        <ele>191.021912</ele>
        <time>2023-05-18T08:51:17Z</time>
      </trkpt>
      <trkpt lat="50.2275" lon="4.14946">
        <ele>191.309784</ele>
        <time>2023-05-18T08:51:19Z</time>
      </trkpt>
      <trkpt lat="50.22746" lon="4.14944">
        <ele>191.600845</ele>
        <time>2023-05-18T08:51:21Z</time>
      </trkpt>
      <trkpt lat="50.22743" lon="4.14942">
        <ele>191.894989</ele>
        <time>2023-05-18T08:51:23Z</time>
      </trkpt>
      <trkpt lat="50.22739" lon="4.1494">
        <ele>192.191223</ele>
        <time>2023-05-18T08:51:25Z</time>
      </trkpt>
      <trkpt lat="50.22734" lon="4.14937">
        <ele>192.448456</ele>
        <time>2023-05-18T08:51:27Z</time>
      </trkpt>
      <trkpt lat="50.2273" lon="4.14935">
        <ele>192.721771</ele>
        <time>2023-05-18T08:51:29Z</time>
      </trkpt>
      <trkpt lat="50.22725" lon="4.14933">
        <ele>192.819839</ele>
        <time>2023-05-18T08:51:31Z</time>
      </trkpt>
      <trkpt lat="50.22722" lon="4.14931">
        <ele>193.07605</ele>
        <time>2023-05-18T08:51:33Z</time>
      </trkpt>
      <trkpt lat="50.22717" lon="4.1493">
        <ele>193.363861</ele>
        <time>2023-05-18T08:51:35Z</time>
      </trkpt>
      <trkpt lat="50.22714" lon="4.14928">
        <ele>193.595459</ele>
        <time>2023-05-18T08:51:37Z</time>
      </trkpt>
      <trkpt lat="50.22709" lon="4.14927">
        <ele>193.820786</ele>
        <time>2023-05-18T08:51:39Z</time>
      </trkpt>
      <trkpt lat="50.22706" lon="4.14926">
        <ele>194.042694</ele>
        <time>2023-05-18T08:51:41Z</time>
      </trkpt>
      <trkpt lat="50.22701" lon="4.14925">
        <ele>194.28476</ele>
        <time>2023-05-18T08:51:43Z</time>
      </trkpt>
      <trkpt lat="50.22696" lon="4.14924">
        <ele>193.991318</ele>
        <time>2023-05-18T08:51:45Z</time>
      </trkpt>
      <trkpt lat="50.22691" lon="4.14925">
        <ele>194.757828</ele>
        <time>2023-05-18T08:51:47Z</time>
      </trkpt>
      <trkpt lat="50.22687" lon="4.14927">
        <ele>194.968582</ele>
        <time>2023-05-18T08:51:49Z</time>
      </trkpt>
      <trkpt lat="50.22682" lon="4.14931">
        <ele>195.221893</ele>
        <time>2023-05-18T08:51:51Z</time>
      </trkpt>
      <trkpt lat="50.22678" lon="4.14937">
        <ele>195.415985</ele>
        <time>2023-05-18T08:51:53Z</time>
      </trkpt>
      <trkpt lat="50.22677" lon="4.14943">
        <ele>195.624512</ele>
        <time>2023-05-18T08:51:55Z</time>
      </trkpt>
      <trkpt lat="50.22676" lon="4.14949">
        <ele>195.772705</ele>
        <time>2023-05-18T08:51:57Z</time>
      </trkpt>
      <trkpt lat="50.22673" lon="4.14958">
        <ele>195.943817</ele>
        <time>2023-05-18T08:51:59Z</time>
      </trkpt>
      <trkpt lat="50.22671" lon="4.14962">
        <ele>196.008499</ele>
        <time>2023-05-18T08:52:00Z</time>
      </trkpt>
      <trkpt lat="50.22669" lon="4.14968">
        <ele>196.190063</ele>
        <time>2023-05-18T08:52:02Z</time>
      </trkpt>
      <trkpt lat="50.22666" lon="4.14976">
        <ele>196.342422</ele>
        <time>2023-05-18T08:52:04Z</time>
      </trkpt>
      <trkpt lat="50.22661" lon="4.14985">
        <ele>196.480164</ele>
        <time>2023-05-18T08:52:06Z</time>
      </trkpt>
      <trkpt lat="50.22657" lon="4.14994">
        <ele>196.557083</ele>
        <time>2023-05-18T08:52:08Z</time>
      </trkpt>
      <trkpt lat="50.22652" lon="4.15003">
        <ele>196.63739</ele>
        <time>2023-05-18T08:52:10Z</time>
      </trkpt>
      <trkpt lat="50.22648" lon="4.15015">
        <ele>196.66243</ele>
        <time>2023-05-18T08:52:12Z</time>
      </trkpt>
      <trkpt lat="50.22643" lon="4.15029">
        <ele>196.977509</ele>
        <time>2023-05-18T08:52:14Z</time>
      </trkpt>
      <trkpt lat="50.22637" lon="4.15047">
        <ele>197.049362</ele>
        <time>2023-05-18T08:52:16Z</time>
      </trkpt>
      <trkpt lat="50.22634" lon="4.15064">
        <ele>197.130768</ele>
        <time>2023-05-18T08:52:18Z</time>
      </trkpt>
      <trkpt lat="50.2263" lon="4.1508">
        <ele>197.220734</ele>
        <time>2023-05-18T08:52:20Z</time>
      </trkpt>
      <trkpt lat="50.22626" lon="4.15093">
        <ele>196.668213</ele>
        <time>2023-05-18T08:52:22Z</time>
      </trkpt>
      <trkpt lat="50.22622" lon="4.15113">
        <ele>196.743362</ele>
        <time>2023-05-18T08:52:24Z</time>
      </trkpt>
      <trkpt lat="50.22617" lon="4.15136">
        <ele>197.314651</ele>
        <time>2023-05-18T08:52:26Z</time>
      </trkpt>
      <trkpt lat="50.22615" lon="4.15155">
        <ele>196.189758</ele>
        <time>2023-05-18T08:52:28Z</time>
      </trkpt>
      <trkpt lat="50.22612" lon="4.15171">
        <ele>195.718582</ele>
        <time>2023-05-18T08:52:30Z</time>
      </trkpt>
      <trkpt lat="50.22609" lon="4.15181">
        <ele>195.720642</ele>
        <time>2023-05-18T08:52:32Z</time>
      </trkpt>
      <trkpt lat="50.22606" lon="4.15194">
        <ele>195.797882</ele>
        <time>2023-05-18T08:52:34Z</time>
      </trkpt>
      <trkpt lat="50.22603" lon="4.15209">
        <ele>195.95668</ele>
        <time>2023-05-18T08:52:36Z</time>
      </trkpt>
      <trkpt lat="50.22599" lon="4.15221">
        <ele>196.027618</ele>
        <time>2023-05-18T08:52:38Z</time>
      </trkpt>
      <trkpt lat="50.22596" lon="4.15233">
        <ele>196.221771</ele>
        <time>2023-05-18T08:52:40Z</time>
      </trkpt>
      <trkpt lat="50.22593" lon="4.15245">
        <ele>196.359589</ele>
        <time>2023-05-18T08:52:42Z</time>
      </trkpt>
      <trkpt lat="50.2259" lon="4.15254">
        <ele>196.44725</ele>
        <time>2023-05-18T08:52:44Z</time>
      </trkpt>
      <trkpt lat="50.22587" lon="4.15261">
        <ele>196.597275</ele>
        <time>2023-05-18T08:52:46Z</time>
      </trkpt>
      <trkpt lat="50.22584" lon="4.15268">
        <ele>196.757034</ele>
        <time>2023-05-18T08:52:48Z</time>
      </trkpt>
      <trkpt lat="50.2258" lon="4.15273">
        <ele>197.019745</ele>
        <time>2023-05-18T08:52:50Z</time>
      </trkpt>
      <trkpt lat="50.22577" lon="4.15279">
        <ele>197.26091</ele>
        <time>2023-05-18T08:52:52Z</time>
      </trkpt>
      <trkpt lat="50.22572" lon="4.15283">
        <ele>197.388245</ele>
        <time>2023-05-18T08:52:54Z</time>
      </trkpt>
      <trkpt lat="50.22568" lon="4.15287">
        <ele>197.628052</ele>
        <time>2023-05-18T08:52:55Z</time>
      </trkpt>
      <trkpt lat="50.22561" lon="4.15291">
        <ele>197.955811</ele>
        <time>2023-05-18T08:52:58Z</time>
      </trkpt>
      <trkpt lat="50.22549" lon="4.15299">
        <ele>198.479416</ele>
        <time>2023-05-18T08:53:01Z</time>
      </trkpt>
      <trkpt lat="50.22543" lon="4.15307">
        <ele>199.428619</ele>
        <time>2023-05-18T08:53:03Z</time>
      </trkpt>
      <trkpt lat="50.22538" lon="4.15313">
        <ele>199.773148</ele>
        <time>2023-05-18T08:53:05Z</time>
      </trkpt>
      <trkpt lat="50.22533" lon="4.15319">
        <ele>200.16568</ele>
        <time>2023-05-18T08:53:07Z</time>
      </trkpt>
      <trkpt lat="50.22526" lon="4.15325">
        <ele>200.434998</ele>
        <time>2023-05-18T08:53:08Z</time>
      </trkpt>
      <trkpt lat="50.22519" lon="4.15332">
        <ele>201.949341</ele>
        <time>2023-05-18T08:53:11Z</time>
      </trkpt>
      <trkpt lat="50.22513" lon="4.15338">
        <ele>202.108734</ele>
        <time>2023-05-18T08:53:13Z</time>
      </trkpt>
      <trkpt lat="50.22505" lon="4.15343">
        <ele>202.425461</ele>
        <time>2023-05-18T08:53:15Z</time>
      </trkpt>
      <trkpt lat="50.22495" lon="4.15346">
        <ele>202.705292</ele>
        <time>2023-05-18T08:53:17Z</time>
      </trkpt>
      <trkpt lat="50.22483" lon="4.15349">
        <ele>203.108353</ele>
        <time>2023-05-18T08:53:19Z</time>
      </trkpt>
      <trkpt lat="50.22467" lon="4.15352">
        <ele>203.187698</ele>
        <time>2023-05-18T08:53:21Z</time>
      </trkpt>
      <trkpt lat="50.2245" lon="4.15356">
        <ele>203.287949</ele>
        <time>2023-05-18T08:53:23Z</time>
      </trkpt>
      <trkpt lat="50.22442" lon="4.1536">
        <ele>203.386093</ele>
        <time>2023-05-18T08:53:24Z</time>
      </trkpt>
      <trkpt lat="50.22427" lon="4.15366">
        <ele>203.434418</ele>
        <time>2023-05-18T08:53:26Z</time>
      </trkpt>
      <trkpt lat="50.22413" lon="4.15377">
        <ele>203.333099</ele>
        <time>2023-05-18T08:53:28Z</time>
      </trkpt>
      <trkpt lat="50.22401" lon="4.15386">
        <ele>203.356079</ele>
        <time>2023-05-18T08:53:30Z</time>
      </trkpt>
      <trkpt lat="50.22393" lon="4.15402">
        <ele>203.368988</ele>
        <time>2023-05-18T08:53:32Z</time>
      </trkpt>
      <trkpt lat="50.22385" lon="4.15416">
        <ele>203.287537</ele>
        <time>2023-05-18T08:53:34Z</time>
      </trkpt>
      <trkpt lat="50.22383" lon="4.15429">
        <ele>203.133026</ele>
        <time>2023-05-18T08:53:36Z</time>
      </trkpt>
      <trkpt lat="50.22384" lon="4.15439">
        <ele>202.942993</ele>
        <time>2023-05-18T08:53:38Z</time>
      </trkpt>
      <trkpt lat="50.22387" lon="4.1545">
        <ele>202.934662</ele>
        <time>2023-05-18T08:53:40Z</time>
      </trkpt>
      <trkpt lat="50.2239" lon="4.15459">
        <ele>202.711227</ele>
        <time>2023-05-18T08:53:42Z</time>
      </trkpt>
      <trkpt lat="50.22393" lon="4.15468">
        <ele>202.611237</ele>
        <time>2023-05-18T08:53:44Z</time>
      </trkpt>
      <trkpt lat="50.22397" lon="4.15476">
        <ele>202.333527</ele>
        <time>2023-05-18T08:53:46Z</time>
      </trkpt>
      <trkpt lat="50.22401" lon="4.15484">
        <ele>202.047455</ele>
        <time>2023-05-18T08:53:48Z</time>
      </trkpt>
      <trkpt lat="50.22406" lon="4.15496">
        <ele>201.562546</ele>
        <time>2023-05-18T08:53:51Z</time>
      </trkpt>
      <trkpt lat="50.2241" lon="4.15504">
        <ele>201.280685</ele>
        <time>2023-05-18T08:53:53Z</time>
      </trkpt>
      <trkpt lat="50.22414" lon="4.15513">
        <ele>201.050293</ele>
        <time>2023-05-18T08:53:55Z</time>
      </trkpt>
      <trkpt lat="50.22418" lon="4.15521">
        <ele>200.675461</ele>
        <time>2023-05-18T08:53:57Z</time>
      </trkpt>
      <trkpt lat="50.22422" lon="4.15528">
        <ele>200.203537</ele>
        <time>2023-05-18T08:53:59Z</time>
      </trkpt>
      <trkpt lat="50.22426" lon="4.15533">
        <ele>199.923737</ele>
        <time>2023-05-18T08:54:01Z</time>
      </trkpt>
      <trkpt lat="50.2243" lon="4.15538">
        <ele>199.602188</ele>
        <time>2023-05-18T08:54:03Z</time>
      </trkpt>
      <trkpt lat="50.22435" lon="4.15543">
        <ele>199.453949</ele>
        <time>2023-05-18T08:54:05Z</time>
      </trkpt>
      <trkpt lat="50.2244" lon="4.15548">
        <ele>199.311981</ele>
        <time>2023-05-18T08:54:07Z</time>
      </trkpt>
      <trkpt lat="50.22445" lon="4.15553">
        <ele>199.323212</ele>
        <time>2023-05-18T08:54:09Z</time>
      </trkpt>
      <trkpt lat="50.2245" lon="4.15559">
        <ele>199.26683</ele>
        <time>2023-05-18T08:54:11Z</time>
      </trkpt>
      <trkpt lat="50.22455" lon="4.15564">
        <ele>199.19339</ele>
        <time>2023-05-18T08:54:13Z</time>
      </trkpt>
      <trkpt lat="50.2246" lon="4.15569">
        <ele>199.268555</ele>
        <time>2023-05-18T08:54:15Z</time>
      </trkpt>
      <trkpt lat="50.22462" lon="4.15572">
        <ele>199.322845</ele>
        <time>2023-05-18T08:54:16Z</time>
      </trkpt>
      <trkpt lat="50.22467" lon="4.15578">
        <ele>199.429886</ele>
        <time>2023-05-18T08:54:18Z</time>
      </trkpt>
      <trkpt lat="50.22472" lon="4.15583">
        <ele>199.515503</ele>
        <time>2023-05-18T08:54:20Z</time>
      </trkpt>
      <trkpt lat="50.22477" lon="4.15589">
        <ele>199.765106</ele>
        <time>2023-05-18T08:54:22Z</time>
      </trkpt>
      <trkpt lat="50.22482" lon="4.15594">
        <ele>199.863251</ele>
        <time>2023-05-18T08:54:24Z</time>
      </trkpt>
      <trkpt lat="50.22486" lon="4.156">
        <ele>200.065842</ele>
        <time>2023-05-18T08:54:26Z</time>
      </trkpt>
      <trkpt lat="50.22491" lon="4.15606">
        <ele>200.364273</ele>
        <time>2023-05-18T08:54:28Z</time>
      </trkpt>
      <trkpt lat="50.22496" lon="4.15611">
        <ele>200.77356</ele>
        <time>2023-05-18T08:54:30Z</time>
      </trkpt>
      <trkpt lat="50.22501" lon="4.15617">
        <ele>201.139496</ele>
        <time>2023-05-18T08:54:32Z</time>
      </trkpt>
      <trkpt lat="50.22506" lon="4.15622">
        <ele>201.621872</ele>
        <time>2023-05-18T08:54:34Z</time>
      </trkpt>
      <trkpt lat="50.22511" lon="4.15628">
        <ele>201.958084</ele>
        <time>2023-05-18T08:54:36Z</time>
      </trkpt>
      <trkpt lat="50.22516" lon="4.15633">
        <ele>202.455093</ele>
        <time>2023-05-18T08:54:38Z</time>
      </trkpt>
      <trkpt lat="50.22522" lon="4.15638">
        <ele>202.977142</ele>
        <time>2023-05-18T08:54:40Z</time>
      </trkpt>
      <trkpt lat="50.22527" lon="4.15642">
        <ele>203.432404</ele>
        <time>2023-05-18T08:54:42Z</time>
      </trkpt>
      <trkpt lat="50.22533" lon="4.15647">
        <ele>203.933609</ele>
        <time>2023-05-18T08:54:44Z</time>
      </trkpt>
      <trkpt lat="50.2254" lon="4.15652">
        <ele>204.42807</ele>
        <time>2023-05-18T08:54:46Z</time>
      </trkpt>
      <trkpt lat="50.22546" lon="4.15658">
        <ele>204.991989</ele>
        <time>2023-05-18T08:54:48Z</time>
      </trkpt>
      <trkpt lat="50.22552" lon="4.15664">
        <ele>205.4841</ele>
        <time>2023-05-18T08:54:50Z</time>
      </trkpt>
      <trkpt lat="50.22559" lon="4.15669">
        <ele>206.008469</ele>
        <time>2023-05-18T08:54:52Z</time>
      </trkpt>
      <trkpt lat="50.22562" lon="4.15671">
        <ele>206.190216</ele>
        <time>2023-05-18T08:54:53Z</time>
      </trkpt>
      <trkpt lat="50.22568" lon="4.15676">
        <ele>206.470123</ele>
        <time>2023-05-18T08:54:55Z</time>
      </trkpt>
      <trkpt lat="50.22575" lon="4.15681">
        <ele>206.889725</ele>
        <time>2023-05-18T08:54:57Z</time>
      </trkpt>
      <trkpt lat="50.22583" lon="4.15685">
        <ele>207.379684</ele>
        <time>2023-05-18T08:54:59Z</time>
      </trkpt>
      <trkpt lat="50.2259" lon="4.15688">
        <ele>207.707687</ele>
        <time>2023-05-18T08:55:01Z</time>
      </trkpt>
      <trkpt lat="50.22598" lon="4.15691">
        <ele>208.101471</ele>
        <time>2023-05-18T08:55:03Z</time>
      </trkpt>
      <trkpt lat="50.22606" lon="4.15695">
        <ele>208.51265</ele>
        <time>2023-05-18T08:55:05Z</time>
      </trkpt>
      <trkpt lat="50.22613" lon="4.15698">
        <ele>208.84697</ele>
        <time>2023-05-18T08:55:07Z</time>
      </trkpt>
      <trkpt lat="50.22621" lon="4.15701">
        <ele>209.22493</ele>
        <time>2023-05-18T08:55:09Z</time>
      </trkpt>
      <trkpt lat="50.22629" lon="4.15705">
        <ele>209.6241</ele>
        <time>2023-05-18T08:55:11Z</time>
      </trkpt>
      <trkpt lat="50.22637" lon="4.15708">
        <ele>209.986694</ele>
        <time>2023-05-18T08:55:13Z</time>
      </trkpt>
      <trkpt lat="50.22645" lon="4.15712">
        <ele>210.164307</ele>
        <time>2023-05-18T08:55:15Z</time>
      </trkpt>
      <trkpt lat="50.22653" lon="4.15717">
        <ele>210.473999</ele>
        <time>2023-05-18T08:55:17Z</time>
      </trkpt>
      <trkpt lat="50.2266" lon="4.15722">
        <ele>210.820923</ele>
        <time>2023-05-18T08:55:19Z</time>
      </trkpt>
      <trkpt lat="50.22667" lon="4.15726">
        <ele>211.117477</ele>
        <time>2023-05-18T08:55:21Z</time>
      </trkpt>
      <trkpt lat="50.22672" lon="4.15731">
        <ele>211.420532</ele>
        <time>2023-05-18T08:55:23Z</time>
      </trkpt>
      <trkpt lat="50.22678" lon="4.15735">
        <ele>211.689529</ele>
        <time>2023-05-18T08:55:25Z</time>
      </trkpt>
      <trkpt lat="50.22686" lon="4.15741">
        <ele>212.021286</ele>
        <time>2023-05-18T08:55:27Z</time>
      </trkpt>
      <trkpt lat="50.22693" lon="4.15747">
        <ele>212.282562</ele>
        <time>2023-05-18T08:55:29Z</time>
      </trkpt>
      <trkpt lat="50.22701" lon="4.15753">
        <ele>212.66301</ele>
        <time>2023-05-18T08:55:31Z</time>
      </trkpt>
      <trkpt lat="50.22709" lon="4.1576">
        <ele>212.903397</ele>
        <time>2023-05-18T08:55:33Z</time>
      </trkpt>
      <trkpt lat="50.22716" lon="4.15768">
        <ele>213.110321</ele>
        <time>2023-05-18T08:55:35Z</time>
      </trkpt>
      <trkpt lat="50.22723" lon="4.15776">
        <ele>213.305054</ele>
        <time>2023-05-18T08:55:37Z</time>
      </trkpt>
      <trkpt lat="50.22729" lon="4.15783">
        <ele>213.587723</ele>
        <time>2023-05-18T08:55:39Z</time>
      </trkpt>
      <trkpt lat="50.22738" lon="4.15792">
        <ele>213.790497</ele>
        <time>2023-05-18T08:55:41Z</time>
      </trkpt>
      <trkpt lat="50.22744" lon="4.15802">
        <ele>214.118729</ele>
        <time>2023-05-18T08:55:43Z</time>
      </trkpt>
      <trkpt lat="50.22751" lon="4.15812">
        <ele>214.223267</ele>
        <time>2023-05-18T08:55:45Z</time>
      </trkpt>
      <trkpt lat="50.22759" lon="4.15823">
        <ele>214.40979</ele>
        <time>2023-05-18T08:55:47Z</time>
      </trkpt>
      <trkpt lat="50.22763" lon="4.15834">
        <ele>214.006668</ele>
        <time>2023-05-18T08:55:49Z</time>
      </trkpt>
      <trkpt lat="50.22768" lon="4.15845">
        <ele>214.151321</ele>
        <time>2023-05-18T08:55:51Z</time>
      </trkpt>
      <trkpt lat="50.22775" lon="4.15857">
        <ele>214.182663</ele>
        <time>2023-05-18T08:55:53Z</time>
      </trkpt>
      <trkpt lat="50.22783" lon="4.15868">
        <ele>214.290329</ele>
        <time>2023-05-18T08:55:55Z</time>
      </trkpt>
      <trkpt lat="50.22789" lon="4.1588">
        <ele>214.338013</ele>
        <time>2023-05-18T08:55:57Z</time>
      </trkpt>
      <trkpt lat="50.22799" lon="4.15891">
        <ele>214.465622</ele>
        <time>2023-05-18T08:55:59Z</time>
      </trkpt>
      <trkpt lat="50.22808" lon="4.15904">
        <ele>214.480438</ele>
        <time>2023-05-18T08:56:01Z</time>
      </trkpt>
      <trkpt lat="50.22821" lon="4.1592">
        <ele>214.365479</ele>
        <time>2023-05-18T08:56:03Z</time>
      </trkpt>
      <trkpt lat="50.22833" lon="4.15938">
        <ele>214.240082</ele>
        <time>2023-05-18T08:56:05Z</time>
      </trkpt>
      <trkpt lat="50.22844" lon="4.15956">
        <ele>214.167526</ele>
        <time>2023-05-18T08:56:07Z</time>
      </trkpt>
      <trkpt lat="50.22855" lon="4.15974">
        <ele>214.143509</ele>
        <time>2023-05-18T08:56:09Z</time>
      </trkpt>
      <trkpt lat="50.22866" lon="4.15992">
        <ele>213.765167</ele>
        <time>2023-05-18T08:56:11Z</time>
      </trkpt>
      <trkpt lat="50.22876" lon="4.1601">
        <ele>213.370117</ele>
        <time>2023-05-18T08:56:13Z</time>
      </trkpt>
      <trkpt lat="50.22886" lon="4.1603">
        <ele>213.14859</ele>
        <time>2023-05-18T08:56:15Z</time>
      </trkpt>
      <trkpt lat="50.22895" lon="4.1605">
        <ele>212.688812</ele>
        <time>2023-05-18T08:56:17Z</time>
      </trkpt>
      <trkpt lat="50.22903" lon="4.16071">
        <ele>212.504929</ele>
        <time>2023-05-18T08:56:19Z</time>
      </trkpt>
      <trkpt lat="50.22906" lon="4.16093">
        <ele>212.111969</ele>
        <time>2023-05-18T08:56:21Z</time>
      </trkpt>
      <trkpt lat="50.22905" lon="4.16113">
        <ele>211.670975</ele>
        <time>2023-05-18T08:56:23Z</time>
      </trkpt>
      <trkpt lat="50.22903" lon="4.16131">
        <ele>211.192352</ele>
        <time>2023-05-18T08:56:25Z</time>
      </trkpt>
      <trkpt lat="50.22901" lon="4.16147">
        <ele>210.61348</ele>
        <time>2023-05-18T08:56:27Z</time>
      </trkpt>
      <trkpt lat="50.229" lon="4.1616">
        <ele>210.381516</ele>
        <time>2023-05-18T08:56:29Z</time>
      </trkpt>
      <trkpt lat="50.22899" lon="4.16169">
        <ele>210.322784</ele>
        <time>2023-05-18T08:56:31Z</time>
      </trkpt>
      <trkpt lat="50.22896" lon="4.16174">
        <ele>209.82756</ele>
        <time>2023-05-18T08:56:33Z</time>
      </trkpt>
      <trkpt lat="50.22892" lon="4.16177">
        <ele>209.303055</ele>
        <time>2023-05-18T08:56:35Z</time>
      </trkpt>
      <trkpt lat="50.22889" lon="4.16174">
        <ele>208.703293</ele>
        <time>2023-05-18T08:56:37Z</time>
      </trkpt>
      <trkpt lat="50.22886" lon="4.16174">
        <ele>208.176804</ele>
        <time>2023-05-18T08:56:39Z</time>
      </trkpt>
      <trkpt lat="50.22881" lon="4.16174">
        <ele>207.39151</ele>
        <time>2023-05-18T08:56:41Z</time>
      </trkpt>
      <trkpt lat="50.22878" lon="4.16175">
        <ele>206.955536</ele>
        <time>2023-05-18T08:56:43Z</time>
      </trkpt>
      <trkpt lat="50.22874" lon="4.16178">
        <ele>206.577393</ele>
        <time>2023-05-18T08:56:45Z</time>
      </trkpt>
      <trkpt lat="50.22872" lon="4.16182">
        <ele>206.06308</ele>
        <time>2023-05-18T08:56:47Z</time>
      </trkpt>
      <trkpt lat="50.2287" lon="4.16186">
        <ele>205.540192</ele>
        <time>2023-05-18T08:56:49Z</time>
      </trkpt>
      <trkpt lat="50.22869" lon="4.16191">
        <ele>205.155807</ele>
        <time>2023-05-18T08:56:51Z</time>
      </trkpt>
      <trkpt lat="50.22868" lon="4.16196">
        <ele>204.865448</ele>
        <time>2023-05-18T08:56:53Z</time>
      </trkpt>
      <trkpt lat="50.22866" lon="4.162">
        <ele>204.353577</ele>
        <time>2023-05-18T08:56:55Z</time>
      </trkpt>
      <trkpt lat="50.22865" lon="4.16204">
        <ele>204.153091</ele>
        <time>2023-05-18T08:56:57Z</time>
      </trkpt>
      <trkpt lat="50.22865" lon="4.1621">
        <ele>203.825012</ele>
        <time>2023-05-18T08:56:59Z</time>
      </trkpt>
      <trkpt lat="50.22862" lon="4.16214">
        <ele>203.414658</ele>
        <time>2023-05-18T08:57:01Z</time>
      </trkpt>
      <trkpt lat="50.2286" lon="4.16217">
        <ele>203.132904</ele>
        <time>2023-05-18T08:57:03Z</time>
      </trkpt>
      <trkpt lat="50.22857" lon="4.16222">
        <ele>203.050766</ele>
        <time>2023-05-18T08:57:05Z</time>
      </trkpt>
      <trkpt lat="50.22852" lon="4.16225">
        <ele>202.726349</ele>
        <time>2023-05-18T08:57:07Z</time>
      </trkpt>
      <trkpt lat="50.2285" lon="4.1623">
        <ele>202.642822</ele>
        <time>2023-05-18T08:57:09Z</time>
      </trkpt>
      <trkpt lat="50.22846" lon="4.16234">
        <ele>202.469482</ele>
        <time>2023-05-18T08:57:11Z</time>
      </trkpt>
      <trkpt lat="50.22843" lon="4.16238">
        <ele>202.317032</ele>
        <time>2023-05-18T08:57:13Z</time>
      </trkpt>
      <trkpt lat="50.22838" lon="4.16245">
        <ele>202.176758</ele>
        <time>2023-05-18T08:57:17Z</time>
      </trkpt>
      <trkpt lat="50.22836" lon="4.16248">
        <ele>202.143341</ele>
        <time>2023-05-18T08:57:19Z</time>
      </trkpt>
      <trkpt lat="50.22835" lon="4.16252">
        <ele>202.224792</ele>
        <time>2023-05-18T08:57:21Z</time>
      </trkpt>
      <trkpt lat="50.22833" lon="4.16255">
        <ele>202.176224</ele>
        <time>2023-05-18T08:57:23Z</time>
      </trkpt>
      <trkpt lat="50.22829" lon="4.16261">
        <ele>202.106613</ele>
        <time>2023-05-18T08:57:25Z</time>
      </trkpt>
      <trkpt lat="50.22826" lon="4.16265">
        <ele>202.027283</ele>
        <time>2023-05-18T08:57:27Z</time>
      </trkpt>
      <trkpt lat="50.22824" lon="4.16268">
        <ele>201.960785</ele>
        <time>2023-05-18T08:57:29Z</time>
      </trkpt>
      <trkpt lat="50.2282" lon="4.16271">
        <ele>201.886154</ele>
        <time>2023-05-18T08:57:31Z</time>
      </trkpt>
      <trkpt lat="50.22816" lon="4.16275">
        <ele>201.927383</ele>
        <time>2023-05-18T08:57:33Z</time>
      </trkpt>
      <trkpt lat="50.22812" lon="4.16278">
        <ele>202.040131</ele>
        <time>2023-05-18T08:57:35Z</time>
      </trkpt>
      <trkpt lat="50.22807" lon="4.16282">
        <ele>202.071228</ele>
        <time>2023-05-18T08:57:37Z</time>
      </trkpt>
      <trkpt lat="50.22803" lon="4.16286">
        <ele>202.0401</ele>
        <time>2023-05-18T08:57:39Z</time>
      </trkpt>
      <trkpt lat="50.228" lon="4.16289">
        <ele>202.0401</ele>
        <time>2023-05-18T08:57:41Z</time>
      </trkpt>
      <trkpt lat="50.22796" lon="4.16291">
        <ele>202.072311</ele>
        <time>2023-05-18T08:57:43Z</time>
      </trkpt>
      <trkpt lat="50.22791" lon="4.16295">
        <ele>202.028229</ele>
        <time>2023-05-18T08:57:45Z</time>
      </trkpt>
      <trkpt lat="50.22788" lon="4.16298">
        <ele>202.112442</ele>
        <time>2023-05-18T08:57:47Z</time>
      </trkpt>
      <trkpt lat="50.22783" lon="4.16302">
        <ele>202.085892</ele>
        <time>2023-05-18T08:57:49Z</time>
      </trkpt>
      <trkpt lat="50.22778" lon="4.16306">
        <ele>202.125549</ele>
        <time>2023-05-18T08:57:51Z</time>
      </trkpt>
      <trkpt lat="50.22776" lon="4.16309">
        <ele>202.194458</ele>
        <time>2023-05-18T08:57:53Z</time>
      </trkpt>
      <trkpt lat="50.22773" lon="4.16311">
        <ele>202.184357</ele>
        <time>2023-05-18T08:57:55Z</time>
      </trkpt>
      <trkpt lat="50.22768" lon="4.16314">
        <ele>202.226135</ele>
        <time>2023-05-18T08:57:57Z</time>
      </trkpt>
      <trkpt lat="50.22765" lon="4.16318">
        <ele>202.238663</ele>
        <time>2023-05-18T08:57:59Z</time>
      </trkpt>
      <trkpt lat="50.2276" lon="4.16321">
        <ele>202.303406</ele>
        <time>2023-05-18T08:58:01Z</time>
      </trkpt>
      <trkpt lat="50.22757" lon="4.16323">
        <ele>202.305496</ele>
        <time>2023-05-18T08:58:03Z</time>
      </trkpt>
      <trkpt lat="50.22754" lon="4.16324">
        <ele>202.444199</ele>
        <time>2023-05-18T08:58:05Z</time>
      </trkpt>
      <trkpt lat="50.2275" lon="4.16324">
        <ele>202.621704</ele>
        <time>2023-05-18T08:58:07Z</time>
      </trkpt>
      <trkpt lat="50.22747" lon="4.16326">
        <ele>202.815933</ele>
        <time>2023-05-18T08:58:09Z</time>
      </trkpt>
      <trkpt lat="50.22744" lon="4.16327">
        <ele>202.915604</ele>
        <time>2023-05-18T08:58:11Z</time>
      </trkpt>
      <trkpt lat="50.22738" lon="4.16328">
        <ele>203.056854</ele>
        <time>2023-05-18T08:58:13Z</time>
      </trkpt>
      <trkpt lat="50.22731" lon="4.16331">
        <ele>203.079834</ele>
        <time>2023-05-18T08:58:15Z</time>
      </trkpt>
      <trkpt lat="50.22725" lon="4.16333">
        <ele>203.077759</ele>
        <time>2023-05-18T08:58:17Z</time>
      </trkpt>
      <trkpt lat="50.22719" lon="4.16337">
        <ele>203.299118</ele>
        <time>2023-05-18T08:58:19Z</time>
      </trkpt>
      <trkpt lat="50.22712" lon="4.1634">
        <ele>203.39711</ele>
        <time>2023-05-18T08:58:21Z</time>
      </trkpt>
      <trkpt lat="50.22705" lon="4.16344">
        <ele>203.522415</ele>
        <time>2023-05-18T08:58:23Z</time>
      </trkpt>
      <trkpt lat="50.22697" lon="4.16347">
        <ele>203.626816</ele>
        <time>2023-05-18T08:58:25Z</time>
      </trkpt>
      <trkpt lat="50.22681" lon="4.16355">
        <ele>203.714523</ele>
        <time>2023-05-18T08:58:27Z</time>
      </trkpt>
      <trkpt lat="50.22675" lon="4.16359">
        <ele>203.764648</ele>
        <time>2023-05-18T08:58:29Z</time>
      </trkpt>
      <trkpt lat="50.22669" lon="4.16362">
        <ele>203.84819</ele>
        <time>2023-05-18T08:58:31Z</time>
      </trkpt>
      <trkpt lat="50.22663" lon="4.16366">
        <ele>203.894135</ele>
        <time>2023-05-18T08:58:33Z</time>
      </trkpt>
      <trkpt lat="50.22658" lon="4.16369">
        <ele>203.950531</ele>
        <time>2023-05-18T08:58:35Z</time>
      </trkpt>
      <trkpt lat="50.22653" lon="4.16371">
        <ele>203.986038</ele>
        <time>2023-05-18T08:58:37Z</time>
      </trkpt>
      <trkpt lat="50.22648" lon="4.16373">
        <ele>203.946365</ele>
        <time>2023-05-18T08:58:39Z</time>
      </trkpt>
      <trkpt lat="50.22643" lon="4.16375">
        <ele>203.929657</ele>
        <time>2023-05-18T08:58:41Z</time>
      </trkpt>
      <trkpt lat="50.22638" lon="4.16377">
        <ele>203.894135</ele>
        <time>2023-05-18T08:58:43Z</time>
      </trkpt>
      <trkpt lat="50.22633" lon="4.16378">
        <ele>203.841949</ele>
        <time>2023-05-18T08:58:45Z</time>
      </trkpt>
      <trkpt lat="50.22628" lon="4.16379">
        <ele>203.799286</ele>
        <time>2023-05-18T08:58:47Z</time>
      </trkpt>
      <trkpt lat="50.22622" lon="4.16381">
        <ele>203.709473</ele>
        <time>2023-05-18T08:58:49Z</time>
      </trkpt>
      <trkpt lat="50.22617" lon="4.16384">
        <ele>203.668289</ele>
        <time>2023-05-18T08:58:51Z</time>
      </trkpt>
      <trkpt lat="50.22611" lon="4.16386">
        <ele>203.579178</ele>
        <time>2023-05-18T08:58:53Z</time>
      </trkpt>
      <trkpt lat="50.22605" lon="4.16389">
        <ele>203.487473</ele>
        <time>2023-05-18T08:58:55Z</time>
      </trkpt>
      <trkpt lat="50.226" lon="4.16391">
        <ele>203.514648</ele>
        <time>2023-05-18T08:58:57Z</time>
      </trkpt>
      <trkpt lat="50.22596" lon="4.16393">
        <ele>203.380951</ele>
        <time>2023-05-18T08:58:59Z</time>
      </trkpt>
      <trkpt lat="50.2259" lon="4.16394">
        <ele>203.238571</ele>
        <time>2023-05-18T08:59:01Z</time>
      </trkpt>
      <trkpt lat="50.22585" lon="4.16396">
        <ele>203.031815</ele>
        <time>2023-05-18T08:59:03Z</time>
      </trkpt>
      <trkpt lat="50.22579" lon="4.16396">
        <ele>202.896072</ele>
        <time>2023-05-18T08:59:05Z</time>
      </trkpt>
      <trkpt lat="50.22573" lon="4.16397">
        <ele>202.733231</ele>
        <time>2023-05-18T08:59:07Z</time>
      </trkpt>
      <trkpt lat="50.22566" lon="4.16397">
        <ele>202.658051</ele>
        <time>2023-05-18T08:59:09Z</time>
      </trkpt>
      <trkpt lat="50.22559" lon="4.16397">
        <ele>202.534744</ele>
        <time>2023-05-18T08:59:11Z</time>
      </trkpt>
      <trkpt lat="50.22553" lon="4.16397">
        <ele>202.379318</ele>
        <time>2023-05-18T08:59:13Z</time>
      </trkpt>
      <trkpt lat="50.22546" lon="4.16397">
        <ele>202.204285</ele>
        <time>2023-05-18T08:59:15Z</time>
      </trkpt>
      <trkpt lat="50.2254" lon="4.16397">
        <ele>201.978775</ele>
        <time>2023-05-18T08:59:17Z</time>
      </trkpt>
      <trkpt lat="50.22533" lon="4.16397">
        <ele>201.807556</ele>
        <time>2023-05-18T08:59:19Z</time>
      </trkpt>
      <trkpt lat="50.22527" lon="4.16397">
        <ele>201.609222</ele>
        <time>2023-05-18T08:59:21Z</time>
      </trkpt>
      <trkpt lat="50.2252" lon="4.16397">
        <ele>201.440079</ele>
        <time>2023-05-18T08:59:23Z</time>
      </trkpt>
      <trkpt lat="50.22512" lon="4.16396">
        <ele>201.281387</ele>
        <time>2023-05-18T08:59:25Z</time>
      </trkpt>
      <trkpt lat="50.22505" lon="4.16396">
        <ele>201.0914</ele>
        <time>2023-05-18T08:59:27Z</time>
      </trkpt>
      <trkpt lat="50.22498" lon="4.16396">
        <ele>200.856354</ele>
        <time>2023-05-18T08:59:29Z</time>
      </trkpt>
      <trkpt lat="50.22493" lon="4.16396">
        <ele>200.59967</ele>
        <time>2023-05-18T08:59:31Z</time>
      </trkpt>
      <trkpt lat="50.22487" lon="4.16398">
        <ele>200.397766</ele>
        <time>2023-05-18T08:59:33Z</time>
      </trkpt>
      <trkpt lat="50.22481" lon="4.16399">
        <ele>200.180115</ele>
        <time>2023-05-18T08:59:35Z</time>
      </trkpt>
      <trkpt lat="50.22475" lon="4.164">
        <ele>199.829132</ele>
        <time>2023-05-18T08:59:37Z</time>
      </trkpt>
      <trkpt lat="50.22468" lon="4.16401">
        <ele>199.607819</ele>
        <time>2023-05-18T08:59:39Z</time>
      </trkpt>
      <trkpt lat="50.22462" lon="4.16404">
        <ele>198.725494</ele>
        <time>2023-05-18T08:59:41Z</time>
      </trkpt>
      <trkpt lat="50.22459" lon="4.16413">
        <ele>198.496475</ele>
        <time>2023-05-18T08:59:43Z</time>
      </trkpt>
      <trkpt lat="50.22459" lon="4.16426">
        <ele>198.774506</ele>
        <time>2023-05-18T08:59:45Z</time>
      </trkpt>
      <trkpt lat="50.22461" lon="4.16439">
        <ele>198.647156</ele>
        <time>2023-05-18T08:59:47Z</time>
      </trkpt>
      <trkpt lat="50.22462" lon="4.16452">
        <ele>198.503677</ele>
        <time>2023-05-18T08:59:49Z</time>
      </trkpt>
      <trkpt lat="50.22462" lon="4.16465">
        <ele>198.372269</ele>
        <time>2023-05-18T08:59:51Z</time>
      </trkpt>
      <trkpt lat="50.22463" lon="4.16478">
        <ele>198.089279</ele>
        <time>2023-05-18T08:59:53Z</time>
      </trkpt>
      <trkpt lat="50.22463" lon="4.16491">
        <ele>198.017929</ele>
        <time>2023-05-18T08:59:55Z</time>
      </trkpt>
      <trkpt lat="50.22463" lon="4.16504">
        <ele>197.938614</ele>
        <time>2023-05-18T08:59:57Z</time>
      </trkpt>
      <trkpt lat="50.22464" lon="4.16517">
        <ele>197.832169</ele>
        <time>2023-05-18T08:59:59Z</time>
      </trkpt>
      <trkpt lat="50.22463" lon="4.1653">
        <ele>197.76535</ele>
        <time>2023-05-18T09:00:01Z</time>
      </trkpt>
      <trkpt lat="50.22464" lon="4.16543">
        <ele>197.706894</ele>
        <time>2023-05-18T09:00:03Z</time>
      </trkpt>
      <trkpt lat="50.22465" lon="4.16556">
        <ele>197.675919</ele>
        <time>2023-05-18T09:00:05Z</time>
      </trkpt>
      <trkpt lat="50.22466" lon="4.16568">
        <ele>197.669662</ele>
        <time>2023-05-18T09:00:07Z</time>
      </trkpt>
      <trkpt lat="50.22467" lon="4.16579">
        <ele>197.732285</ele>
        <time>2023-05-18T09:00:09Z</time>
      </trkpt>
      <trkpt lat="50.22468" lon="4.1659">
        <ele>197.76268</ele>
        <time>2023-05-18T09:00:11Z</time>
      </trkpt>
      <trkpt lat="50.22469" lon="4.16601">
        <ele>197.881531</ele>
        <time>2023-05-18T09:00:13Z</time>
      </trkpt>
      <trkpt lat="50.22471" lon="4.16614">
        <ele>197.830841</ele>
        <time>2023-05-18T09:00:15Z</time>
      </trkpt>
      <trkpt lat="50.22473" lon="4.16627">
        <ele>197.999008</ele>
        <time>2023-05-18T09:00:17Z</time>
      </trkpt>
      <trkpt lat="50.22472" lon="4.16637">
        <ele>198.178558</ele>
        <time>2023-05-18T09:00:19Z</time>
      </trkpt>
      <trkpt lat="50.22466" lon="4.16641">
        <ele>198.923096</ele>
        <time>2023-05-18T09:00:21Z</time>
      </trkpt>
      <trkpt lat="50.22458" lon="4.16637">
        <ele>199.232025</ele>
        <time>2023-05-18T09:00:23Z</time>
      </trkpt>
      <trkpt lat="50.22449" lon="4.16633">
        <ele>198.885101</ele>
        <time>2023-05-18T09:00:25Z</time>
      </trkpt>
      <trkpt lat="50.2244" lon="4.16628">
        <ele>199.068802</ele>
        <time>2023-05-18T09:00:27Z</time>
      </trkpt>
      <trkpt lat="50.2243" lon="4.16622">
        <ele>199.134979</ele>
        <time>2023-05-18T09:00:29Z</time>
      </trkpt>
      <trkpt lat="50.22419" lon="4.16617">
        <ele>199.180908</ele>
        <time>2023-05-18T09:00:31Z</time>
      </trkpt>
      <trkpt lat="50.22407" lon="4.16613">
        <ele>199.120377</ele>
        <time>2023-05-18T09:00:33Z</time>
      </trkpt>
      <trkpt lat="50.22393" lon="4.16609">
        <ele>199.32074</ele>
        <time>2023-05-18T09:00:35Z</time>
      </trkpt>
      <trkpt lat="50.22378" lon="4.16603">
        <ele>199.289429</ele>
        <time>2023-05-18T09:00:37Z</time>
      </trkpt>
      <trkpt lat="50.22363" lon="4.16596">
        <ele>199.395569</ele>
        <time>2023-05-18T09:00:39Z</time>
      </trkpt>
      <trkpt lat="50.22351" lon="4.16587">
        <ele>199.4151</ele>
        <time>2023-05-18T09:00:41Z</time>
      </trkpt>
      <trkpt lat="50.2234" lon="4.16578">
        <ele>199.504852</ele>
        <time>2023-05-18T09:00:43Z</time>
      </trkpt>
      <trkpt lat="50.22331" lon="4.16571">
        <ele>199.504532</ele>
        <time>2023-05-18T09:00:45Z</time>
      </trkpt>
      <trkpt lat="50.22322" lon="4.16563">
        <ele>199.529572</ele>
        <time>2023-05-18T09:00:47Z</time>
      </trkpt>
      <trkpt lat="50.22314" lon="4.1655">
        <ele>199.524231</ele>
        <time>2023-05-18T09:00:49Z</time>
      </trkpt>
      <trkpt lat="50.22308" lon="4.16537">
        <ele>199.557648</ele>
        <time>2023-05-18T09:00:51Z</time>
      </trkpt>
      <trkpt lat="50.22301" lon="4.16529">
        <ele>199.509628</ele>
        <time>2023-05-18T09:00:53Z</time>
      </trkpt>
      <trkpt lat="50.22293" lon="4.16523">
        <ele>199.547211</ele>
        <time>2023-05-18T09:00:55Z</time>
      </trkpt>
      <trkpt lat="50.22286" lon="4.16519">
        <ele>199.728806</ele>
        <time>2023-05-18T09:00:57Z</time>
      </trkpt>
      <trkpt lat="50.22279" lon="4.16517">
        <ele>199.609787</ele>
        <time>2023-05-18T09:00:59Z</time>
      </trkpt>
      <trkpt lat="50.22273" lon="4.16511">
        <ele>199.628571</ele>
        <time>2023-05-18T09:01:01Z</time>
      </trkpt>
      <trkpt lat="50.22269" lon="4.16502">
        <ele>199.609802</ele>
        <time>2023-05-18T09:01:03Z</time>
      </trkpt>
      <trkpt lat="50.22268" lon="4.16494">
        <ele>199.542999</ele>
        <time>2023-05-18T09:01:05Z</time>
      </trkpt>
      <trkpt lat="50.22266" lon="4.1649">
        <ele>199.613998</ele>
        <time>2023-05-18T09:01:11Z</time>
      </trkpt>
      <trkpt lat="50.22263" lon="4.16487">
        <ele>193.473312</ele>
        <time>2023-05-18T09:02:39Z</time>
      </trkpt>
      <trkpt lat="50.22261" lon="4.16491">
        <ele>193.268311</ele>
        <time>2023-05-18T09:02:41Z</time>
      </trkpt>
      <trkpt lat="50.22261" lon="4.16493">
        <ele>194.135452</ele>
        <time>2023-05-18T09:02:43Z</time>
      </trkpt>
      <trkpt lat="50.22263" lon="4.16501">
        <ele>189.576309</ele>
        <time>2023-05-18T09:06:47Z</time>
      </trkpt>
      <trkpt lat="50.2226" lon="4.16509">
        <ele>189.423508</ele>
        <time>2023-05-18T09:06:49Z</time>
      </trkpt>
      <trkpt lat="50.22254" lon="4.16512">
        <ele>189.248657</ele>
        <time>2023-05-18T09:06:51Z</time>
      </trkpt>
      <trkpt lat="50.22249" lon="4.16515">
        <ele>189.156143</ele>
        <time>2023-05-18T09:06:53Z</time>
      </trkpt>
      <trkpt lat="50.22245" lon="4.16519">
        <ele>189.07991</ele>
        <time>2023-05-18T09:06:55Z</time>
      </trkpt>
      <trkpt lat="50.22244" lon="4.16523">
        <ele>189.064667</ele>
        <time>2023-05-18T09:06:57Z</time>
      </trkpt>
      <trkpt lat="50.22243" lon="4.16527">
        <ele>189.086716</ele>
        <time>2023-05-18T09:06:59Z</time>
      </trkpt>
      <trkpt lat="50.22242" lon="4.16531">
        <ele>189.184769</ele>
        <time>2023-05-18T09:07:01Z</time>
      </trkpt>
      <trkpt lat="50.22241" lon="4.16534">
        <ele>189.297394</ele>
        <time>2023-05-18T09:07:03Z</time>
      </trkpt>
      <trkpt lat="50.2224" lon="4.16539">
        <ele>189.284927</ele>
        <time>2023-05-18T09:07:05Z</time>
      </trkpt>
      <trkpt lat="50.22239" lon="4.16544">
        <ele>190.090179</ele>
        <time>2023-05-18T09:07:11Z</time>
      </trkpt>
      <trkpt lat="50.22238" lon="4.16547">
        <ele>190.759552</ele>
        <time>2023-05-18T09:07:15Z</time>
      </trkpt>
      <trkpt lat="50.22237" lon="4.16552">
        <ele>191.145538</ele>
        <time>2023-05-18T09:07:17Z</time>
      </trkpt>
      <trkpt lat="50.22236" lon="4.16557">
        <ele>191.525238</ele>
        <time>2023-05-18T09:07:19Z</time>
      </trkpt>
      <trkpt lat="50.22234" lon="4.16564">
        <ele>191.969635</ele>
        <time>2023-05-18T09:07:21Z</time>
      </trkpt>
      <trkpt lat="50.22234" lon="4.16572">
        <ele>192.440033</ele>
        <time>2023-05-18T09:07:23Z</time>
      </trkpt>
      <trkpt lat="50.22234" lon="4.16579">
        <ele>192.640167</ele>
        <time>2023-05-18T09:07:25Z</time>
      </trkpt>
      <trkpt lat="50.22234" lon="4.16588">
        <ele>193.148087</ele>
        <time>2023-05-18T09:07:27Z</time>
      </trkpt>
      <trkpt lat="50.22233" lon="4.16598">
        <ele>193.692673</ele>
        <time>2023-05-18T09:07:29Z</time>
      </trkpt>
      <trkpt lat="50.22232" lon="4.1661">
        <ele>194.210129</ele>
        <time>2023-05-18T09:07:31Z</time>
      </trkpt>
      <trkpt lat="50.22231" lon="4.16621">
        <ele>194.827774</ele>
        <time>2023-05-18T09:07:33Z</time>
      </trkpt>
      <trkpt lat="50.22229" lon="4.16629">
        <ele>195.432953</ele>
        <time>2023-05-18T09:07:35Z</time>
      </trkpt>
      <trkpt lat="50.22228" lon="4.16637">
        <ele>196.004791</ele>
        <time>2023-05-18T09:07:37Z</time>
      </trkpt>
      <trkpt lat="50.22226" lon="4.16646">
        <ele>196.580139</ele>
        <time>2023-05-18T09:07:39Z</time>
      </trkpt>
      <trkpt lat="50.22223" lon="4.16654">
        <ele>197.097748</ele>
        <time>2023-05-18T09:07:41Z</time>
      </trkpt>
      <trkpt lat="50.2222" lon="4.1666">
        <ele>197.671738</ele>
        <time>2023-05-18T09:07:43Z</time>
      </trkpt>
      <trkpt lat="50.22217" lon="4.16667">
        <ele>198.208221</ele>
        <time>2023-05-18T09:07:45Z</time>
      </trkpt>
      <trkpt lat="50.22215" lon="4.16673">
        <ele>198.916229</ele>
        <time>2023-05-18T09:07:47Z</time>
      </trkpt>
      <trkpt lat="50.22211" lon="4.1668">
        <ele>199.393738</ele>
        <time>2023-05-18T09:07:49Z</time>
      </trkpt>
      <trkpt lat="50.22209" lon="4.16685">
        <ele>199.840027</ele>
        <time>2023-05-18T09:07:51Z</time>
      </trkpt>
      <trkpt lat="50.22207" lon="4.16691">
        <ele>200.338608</ele>
        <time>2023-05-18T09:07:53Z</time>
      </trkpt>
      <trkpt lat="50.22205" lon="4.16699">
        <ele>200.820938</ele>
        <time>2023-05-18T09:07:55Z</time>
      </trkpt>
      <trkpt lat="50.22202" lon="4.16703">
        <ele>201.286591</ele>
        <time>2023-05-18T09:07:57Z</time>
      </trkpt>
      <trkpt lat="50.22199" lon="4.16709">
        <ele>201.825302</ele>
        <time>2023-05-18T09:07:59Z</time>
      </trkpt>
      <trkpt lat="50.22197" lon="4.16715">
        <ele>202.311859</ele>
        <time>2023-05-18T09:08:01Z</time>
      </trkpt>
      <trkpt lat="50.22195" lon="4.16722">
        <ele>202.765015</ele>
        <time>2023-05-18T09:08:03Z</time>
      </trkpt>
      <trkpt lat="50.22192" lon="4.16728">
        <ele>203.260376</ele>
        <time>2023-05-18T09:08:05Z</time>
      </trkpt>
      <trkpt lat="50.22189" lon="4.16732">
        <ele>203.717743</ele>
        <time>2023-05-18T09:08:07Z</time>
      </trkpt>
      <trkpt lat="50.22184" lon="4.16736">
        <ele>204.135895</ele>
        <time>2023-05-18T09:08:09Z</time>
      </trkpt>
      <trkpt lat="50.22177" lon="4.16741">
        <ele>204.413666</ele>
        <time>2023-05-18T09:08:11Z</time>
      </trkpt>
      <trkpt lat="50.22172" lon="4.16747">
        <ele>204.823929</ele>
        <time>2023-05-18T09:08:13Z</time>
      </trkpt>
      <trkpt lat="50.22167" lon="4.16752">
        <ele>205.239227</ele>
        <time>2023-05-18T09:08:15Z</time>
      </trkpt>
      <trkpt lat="50.22163" lon="4.16756">
        <ele>205.642426</ele>
        <time>2023-05-18T09:08:17Z</time>
      </trkpt>
      <trkpt lat="50.22158" lon="4.16762">
        <ele>206.087402</ele>
        <time>2023-05-18T09:08:19Z</time>
      </trkpt>
      <trkpt lat="50.22153" lon="4.16767">
        <ele>206.528275</ele>
        <time>2023-05-18T09:08:21Z</time>
      </trkpt>
      <trkpt lat="50.22147" lon="4.16775">
        <ele>206.932281</ele>
        <time>2023-05-18T09:08:23Z</time>
      </trkpt>
      <trkpt lat="50.22141" lon="4.16781">
        <ele>207.285355</ele>
        <time>2023-05-18T09:08:25Z</time>
      </trkpt>
      <trkpt lat="50.22136" lon="4.16786">
        <ele>207.632202</ele>
        <time>2023-05-18T09:08:27Z</time>
      </trkpt>
      <trkpt lat="50.22131" lon="4.16791">
        <ele>208.043259</ele>
        <time>2023-05-18T09:08:29Z</time>
      </trkpt>
      <trkpt lat="50.22123" lon="4.16796">
        <ele>208.432419</ele>
        <time>2023-05-18T09:08:31Z</time>
      </trkpt>
      <trkpt lat="50.22118" lon="4.16799">
        <ele>208.815277</ele>
        <time>2023-05-18T09:08:33Z</time>
      </trkpt>
      <trkpt lat="50.2211" lon="4.16803">
        <ele>209.2061</ele>
        <time>2023-05-18T09:08:35Z</time>
      </trkpt>
      <trkpt lat="50.22102" lon="4.16808">
        <ele>209.598969</ele>
        <time>2023-05-18T09:08:37Z</time>
      </trkpt>
      <trkpt lat="50.22096" lon="4.16814">
        <ele>209.983521</ele>
        <time>2023-05-18T09:08:39Z</time>
      </trkpt>
      <trkpt lat="50.2209" lon="4.16821">
        <ele>210.388962</ele>
        <time>2023-05-18T09:08:41Z</time>
      </trkpt>
      <trkpt lat="50.22085" lon="4.16826">
        <ele>210.804886</ele>
        <time>2023-05-18T09:08:43Z</time>
      </trkpt>
      <trkpt lat="50.2208" lon="4.16833">
        <ele>211.168549</ele>
        <time>2023-05-18T09:08:45Z</time>
      </trkpt>
      <trkpt lat="50.22074" lon="4.16838">
        <ele>211.059692</ele>
        <time>2023-05-18T09:08:47Z</time>
      </trkpt>
      <trkpt lat="50.22068" lon="4.16846">
        <ele>211.489777</ele>
        <time>2023-05-18T09:08:49Z</time>
      </trkpt>
      <trkpt lat="50.22064" lon="4.16853">
        <ele>211.838333</ele>
        <time>2023-05-18T09:08:51Z</time>
      </trkpt>
      <trkpt lat="50.22059" lon="4.16861">
        <ele>212.230423</ele>
        <time>2023-05-18T09:08:53Z</time>
      </trkpt>
      <trkpt lat="50.22055" lon="4.16868">
        <ele>212.374969</ele>
        <time>2023-05-18T09:08:55Z</time>
      </trkpt>
      <trkpt lat="50.22054" lon="4.16876">
        <ele>212.663422</ele>
        <time>2023-05-18T09:08:57Z</time>
      </trkpt>
      <trkpt lat="50.2205" lon="4.16885">
        <ele>212.9561</ele>
        <time>2023-05-18T09:08:59Z</time>
      </trkpt>
      <trkpt lat="50.22048" lon="4.16895">
        <ele>213.313477</ele>
        <time>2023-05-18T09:09:01Z</time>
      </trkpt>
      <trkpt lat="50.22049" lon="4.16904">
        <ele>214.170456</ele>
        <time>2023-05-18T09:09:03Z</time>
      </trkpt>
      <trkpt lat="50.22049" lon="4.16912">
        <ele>214.548874</ele>
        <time>2023-05-18T09:09:05Z</time>
      </trkpt>
      <trkpt lat="50.22048" lon="4.16923">
        <ele>214.881317</ele>
        <time>2023-05-18T09:09:07Z</time>
      </trkpt>
      <trkpt lat="50.22047" lon="4.16935">
        <ele>215.205368</ele>
        <time>2023-05-18T09:09:09Z</time>
      </trkpt>
      <trkpt lat="50.22048" lon="4.16944">
        <ele>215.424881</ele>
        <time>2023-05-18T09:09:11Z</time>
      </trkpt>
      <trkpt lat="50.22047" lon="4.16951">
        <ele>215.728058</ele>
        <time>2023-05-18T09:09:13Z</time>
      </trkpt>
      <trkpt lat="50.22047" lon="4.16959">
        <ele>216.014648</ele>
        <time>2023-05-18T09:09:15Z</time>
      </trkpt>
      <trkpt lat="50.22047" lon="4.16965">
        <ele>216.267944</ele>
        <time>2023-05-18T09:09:17Z</time>
      </trkpt>
      <trkpt lat="50.22047" lon="4.1697">
        <ele>216.486481</ele>
        <time>2023-05-18T09:09:19Z</time>
      </trkpt>
      <trkpt lat="50.22047" lon="4.16977">
        <ele>216.724884</ele>
        <time>2023-05-18T09:09:21Z</time>
      </trkpt>
      <trkpt lat="50.22046" lon="4.16986">
        <ele>216.827347</ele>
        <time>2023-05-18T09:09:23Z</time>
      </trkpt>
      <trkpt lat="50.22048" lon="4.16995">
        <ele>217.023956</ele>
        <time>2023-05-18T09:09:25Z</time>
      </trkpt>
      <trkpt lat="50.2205" lon="4.17002">
        <ele>217.705154</ele>
        <time>2023-05-18T09:09:27Z</time>
      </trkpt>
      <trkpt lat="50.22052" lon="4.1701">
        <ele>217.902252</ele>
        <time>2023-05-18T09:09:29Z</time>
      </trkpt>
      <trkpt lat="50.22053" lon="4.17017">
        <ele>218.000534</ele>
        <time>2023-05-18T09:09:31Z</time>
      </trkpt>
      <trkpt lat="50.22054" lon="4.17027">
        <ele>218.178299</ele>
        <time>2023-05-18T09:09:33Z</time>
      </trkpt>
      <trkpt lat="50.22056" lon="4.17038">
        <ele>218.232666</ele>
        <time>2023-05-18T09:09:35Z</time>
      </trkpt>
      <trkpt lat="50.22058" lon="4.17049">
        <ele>218.557907</ele>
        <time>2023-05-18T09:09:37Z</time>
      </trkpt>
      <trkpt lat="50.2206" lon="4.1706">
        <ele>218.647018</ele>
        <time>2023-05-18T09:09:39Z</time>
      </trkpt>
      <trkpt lat="50.22063" lon="4.17072">
        <ele>218.782104</ele>
        <time>2023-05-18T09:09:41Z</time>
      </trkpt>
      <trkpt lat="50.22065" lon="4.17082">
        <ele>218.369827</ele>
        <time>2023-05-18T09:09:43Z</time>
      </trkpt>
      <trkpt lat="50.22065" lon="4.17095">
        <ele>218.459763</ele>
        <time>2023-05-18T09:09:45Z</time>
      </trkpt>
      <trkpt lat="50.22063" lon="4.17108">
        <ele>218.518341</ele>
        <time>2023-05-18T09:09:47Z</time>
      </trkpt>
      <trkpt lat="50.2206" lon="4.17119">
        <ele>218.64592</ele>
        <time>2023-05-18T09:09:49Z</time>
      </trkpt>
      <trkpt lat="50.22057" lon="4.17131">
        <ele>218.754684</ele>
        <time>2023-05-18T09:09:51Z</time>
      </trkpt>
      <trkpt lat="50.22054" lon="4.17142">
        <ele>218.968018</ele>
        <time>2023-05-18T09:09:53Z</time>
      </trkpt>
      <trkpt lat="50.22052" lon="4.17152">
        <ele>219.095612</ele>
        <time>2023-05-18T09:09:55Z</time>
      </trkpt>
      <trkpt lat="50.22049" lon="4.17165">
        <ele>219.189941</ele>
        <time>2023-05-18T09:09:57Z</time>
      </trkpt>
      <trkpt lat="50.22047" lon="4.17177">
        <ele>219.292435</ele>
        <time>2023-05-18T09:09:59Z</time>
      </trkpt>
      <trkpt lat="50.22045" lon="4.17189">
        <ele>219.360382</ele>
        <time>2023-05-18T09:10:01Z</time>
      </trkpt>
      <trkpt lat="50.22043" lon="4.17202">
        <ele>219.444336</ele>
        <time>2023-05-18T09:10:03Z</time>
      </trkpt>
      <trkpt lat="50.22041" lon="4.17215">
        <ele>219.605392</ele>
        <time>2023-05-18T09:10:05Z</time>
      </trkpt>
      <trkpt lat="50.22042" lon="4.17228">
        <ele>219.717743</ele>
        <time>2023-05-18T09:10:07Z</time>
      </trkpt>
      <trkpt lat="50.22043" lon="4.17241">
        <ele>219.893463</ele>
        <time>2023-05-18T09:10:09Z</time>
      </trkpt>
      <trkpt lat="50.22043" lon="4.17253">
        <ele>220.012695</ele>
        <time>2023-05-18T09:10:11Z</time>
      </trkpt>
      <trkpt lat="50.22041" lon="4.17265">
        <ele>220.217697</ele>
        <time>2023-05-18T09:10:13Z</time>
      </trkpt>
      <trkpt lat="50.22038" lon="4.17279">
        <ele>220.351593</ele>
        <time>2023-05-18T09:10:15Z</time>
      </trkpt>
      <trkpt lat="50.22036" lon="4.17293">
        <ele>220.490631</ele>
        <time>2023-05-18T09:10:17Z</time>
      </trkpt>
      <trkpt lat="50.22036" lon="4.17307">
        <ele>220.614868</ele>
        <time>2023-05-18T09:10:19Z</time>
      </trkpt>
      <trkpt lat="50.22038" lon="4.17319">
        <ele>220.771484</ele>
        <time>2023-05-18T09:10:21Z</time>
      </trkpt>
      <trkpt lat="50.22036" lon="4.17335">
        <ele>220.896683</ele>
        <time>2023-05-18T09:10:23Z</time>
      </trkpt>
      <trkpt lat="50.22035" lon="4.17349">
        <ele>220.978241</ele>
        <time>2023-05-18T09:10:25Z</time>
      </trkpt>
      <trkpt lat="50.22034" lon="4.17362">
        <ele>221.193527</ele>
        <time>2023-05-18T09:10:27Z</time>
      </trkpt>
      <trkpt lat="50.22031" lon="4.17374">
        <ele>221.298492</ele>
        <time>2023-05-18T09:10:29Z</time>
      </trkpt>
      <trkpt lat="50.22032" lon="4.17387">
        <ele>221.449127</ele>
        <time>2023-05-18T09:10:31Z</time>
      </trkpt>
      <trkpt lat="50.2203" lon="4.17399">
        <ele>221.639496</ele>
        <time>2023-05-18T09:10:33Z</time>
      </trkpt>
      <trkpt lat="50.22026" lon="4.17408">
        <ele>221.794342</ele>
        <time>2023-05-18T09:10:35Z</time>
      </trkpt>
      <trkpt lat="50.22023" lon="4.17421">
        <ele>221.965576</ele>
        <time>2023-05-18T09:10:37Z</time>
      </trkpt>
      <trkpt lat="50.22021" lon="4.17432">
        <ele>222.130859</ele>
        <time>2023-05-18T09:10:39Z</time>
      </trkpt>
      <trkpt lat="50.22017" lon="4.17444">
        <ele>222.302399</ele>
        <time>2023-05-18T09:10:41Z</time>
      </trkpt>
      <trkpt lat="50.22013" lon="4.17457">
        <ele>222.490433</ele>
        <time>2023-05-18T09:10:43Z</time>
      </trkpt>
      <trkpt lat="50.22009" lon="4.1747">
        <ele>222.620148</ele>
        <time>2023-05-18T09:10:45Z</time>
      </trkpt>
      <trkpt lat="50.22007" lon="4.17482">
        <ele>222.754684</ele>
        <time>2023-05-18T09:10:47Z</time>
      </trkpt>
      <trkpt lat="50.22004" lon="4.17487">
        <ele>222.873932</ele>
        <time>2023-05-18T09:10:49Z</time>
      </trkpt>
      <trkpt lat="50.22001" lon="4.17491">
        <ele>222.937424</ele>
        <time>2023-05-18T09:10:51Z</time>
      </trkpt>
      <trkpt lat="50.21999" lon="4.17499">
        <ele>223.04924</ele>
        <time>2023-05-18T09:10:53Z</time>
      </trkpt>
      <trkpt lat="50.21998" lon="4.1751">
        <ele>223.086914</ele>
        <time>2023-05-18T09:10:55Z</time>
      </trkpt>
      <trkpt lat="50.21997" lon="4.1752">
        <ele>223.153839</ele>
        <time>2023-05-18T09:10:57Z</time>
      </trkpt>
      <trkpt lat="50.21996" lon="4.17532">
        <ele>223.253128</ele>
        <time>2023-05-18T09:10:59Z</time>
      </trkpt>
      <trkpt lat="50.21995" lon="4.17545">
        <ele>223.288696</ele>
        <time>2023-05-18T09:11:01Z</time>
      </trkpt>
      <trkpt lat="50.21997" lon="4.17556">
        <ele>223.354706</ele>
        <time>2023-05-18T09:11:03Z</time>
      </trkpt>
      <trkpt lat="50.22" lon="4.17567">
        <ele>223.333939</ele>
        <time>2023-05-18T09:11:05Z</time>
      </trkpt>
      <trkpt lat="50.22002" lon="4.17578">
        <ele>223.365524</ele>
        <time>2023-05-18T09:11:07Z</time>
      </trkpt>
      <trkpt lat="50.22003" lon="4.17589">
        <ele>223.421661</ele>
        <time>2023-05-18T09:11:09Z</time>
      </trkpt>
      <trkpt lat="50.22006" lon="4.176">
        <ele>223.442596</ele>
        <time>2023-05-18T09:11:11Z</time>
      </trkpt>
      <trkpt lat="50.22009" lon="4.17611">
        <ele>223.394455</ele>
        <time>2023-05-18T09:11:13Z</time>
      </trkpt>
      <trkpt lat="50.22012" lon="4.17622">
        <ele>223.310791</ele>
        <time>2023-05-18T09:11:15Z</time>
      </trkpt>
      <trkpt lat="50.22014" lon="4.17634">
        <ele>223.187332</ele>
        <time>2023-05-18T09:11:17Z</time>
      </trkpt>
      <trkpt lat="50.22014" lon="4.17643">
        <ele>223.122467</ele>
        <time>2023-05-18T09:11:19Z</time>
      </trkpt>
      <trkpt lat="50.22012" lon="4.17653">
        <ele>223.093185</ele>
        <time>2023-05-18T09:11:21Z</time>
      </trkpt>
      <trkpt lat="50.2201" lon="4.17658">
        <ele>222.988571</ele>
        <time>2023-05-18T09:11:23Z</time>
      </trkpt>
      <trkpt lat="50.22007" lon="4.17661">
        <ele>222.894409</ele>
        <time>2023-05-18T09:11:25Z</time>
      </trkpt>
      <trkpt lat="50.22005" lon="4.17659">
        <ele>222.804413</ele>
        <time>2023-05-18T09:11:27Z</time>
      </trkpt>
      <trkpt lat="50.22004" lon="4.17657">
        <ele>222.743729</ele>
        <time>2023-05-18T09:11:29Z</time>
      </trkpt>
      <trkpt lat="50.22002" lon="4.17658">
        <ele>222.655838</ele>
        <time>2023-05-18T09:11:31Z</time>
      </trkpt>
      <trkpt lat="50.22" lon="4.17657">
        <ele>222.577682</ele>
        <time>2023-05-18T09:11:33Z</time>
      </trkpt>
      <trkpt lat="50.21996" lon="4.17654">
        <ele>222.518158</ele>
        <time>2023-05-18T09:11:35Z</time>
      </trkpt>
      <trkpt lat="50.21991" lon="4.17649">
        <ele>222.470047</ele>
        <time>2023-05-18T09:11:37Z</time>
      </trkpt>
      <trkpt lat="50.21987" lon="4.17646">
        <ele>222.386383</ele>
        <time>2023-05-18T09:11:39Z</time>
      </trkpt>
      <trkpt lat="50.21981" lon="4.17644">
        <ele>222.310104</ele>
        <time>2023-05-18T09:11:41Z</time>
      </trkpt>
      <trkpt lat="50.21973" lon="4.17641">
        <ele>222.284988</ele>
        <time>2023-05-18T09:11:43Z</time>
      </trkpt>
      <trkpt lat="50.21965" lon="4.17638">
        <ele>222.297531</ele>
        <time>2023-05-18T09:11:45Z</time>
      </trkpt>
      <trkpt lat="50.21958" lon="4.17636">
        <ele>222.247314</ele>
        <time>2023-05-18T09:11:47Z</time>
      </trkpt>
      <trkpt lat="50.21952" lon="4.17633">
        <ele>222.086212</ele>
        <time>2023-05-18T09:11:49Z</time>
      </trkpt>
      <trkpt lat="50.21945" lon="4.17632">
        <ele>222.117584</ele>
        <time>2023-05-18T09:11:51Z</time>
      </trkpt>
      <trkpt lat="50.21938" lon="4.1763">
        <ele>222.128052</ele>
        <time>2023-05-18T09:11:53Z</time>
      </trkpt>
      <trkpt lat="50.21929" lon="4.17628">
        <ele>222.244781</ele>
        <time>2023-05-18T09:11:55Z</time>
      </trkpt>
      <trkpt lat="50.21922" lon="4.17628">
        <ele>222.437286</ele>
        <time>2023-05-18T09:11:57Z</time>
      </trkpt>
      <trkpt lat="50.21915" lon="4.17625">
        <ele>222.521973</ele>
        <time>2023-05-18T09:11:59Z</time>
      </trkpt>
      <trkpt lat="50.21909" lon="4.17623">
        <ele>222.654633</ele>
        <time>2023-05-18T09:12:01Z</time>
      </trkpt>
      <trkpt lat="50.21903" lon="4.17622">
        <ele>222.889008</ele>
        <time>2023-05-18T09:12:03Z</time>
      </trkpt>
      <trkpt lat="50.21896" lon="4.17619">
        <ele>223.02713</ele>
        <time>2023-05-18T09:12:05Z</time>
      </trkpt>
      <trkpt lat="50.21889" lon="4.17616">
        <ele>223.196655</ele>
        <time>2023-05-18T09:12:07Z</time>
      </trkpt>
      <trkpt lat="50.21882" lon="4.17612">
        <ele>223.384979</ele>
        <time>2023-05-18T09:12:09Z</time>
      </trkpt>
      <trkpt lat="50.21874" lon="4.1761">
        <ele>223.554489</ele>
        <time>2023-05-18T09:12:11Z</time>
      </trkpt>
      <trkpt lat="50.21867" lon="4.17607">
        <ele>223.797287</ele>
        <time>2023-05-18T09:12:13Z</time>
      </trkpt>
      <trkpt lat="50.21859" lon="4.17607">
        <ele>224.027496</ele>
        <time>2023-05-18T09:12:15Z</time>
      </trkpt>
      <trkpt lat="50.21851" lon="4.17604">
        <ele>224.188629</ele>
        <time>2023-05-18T09:12:17Z</time>
      </trkpt>
      <trkpt lat="50.21843" lon="4.17599">
        <ele>224.466965</ele>
        <time>2023-05-18T09:12:19Z</time>
      </trkpt>
      <trkpt lat="50.21835" lon="4.17596">
        <ele>224.741119</ele>
        <time>2023-05-18T09:12:21Z</time>
      </trkpt>
      <trkpt lat="50.21827" lon="4.17593">
        <ele>224.895966</ele>
        <time>2023-05-18T09:12:23Z</time>
      </trkpt>
      <trkpt lat="50.21819" lon="4.17589">
        <ele>225.142944</ele>
        <time>2023-05-18T09:12:25Z</time>
      </trkpt>
      <trkpt lat="50.21812" lon="4.17586">
        <ele>225.348022</ele>
        <time>2023-05-18T09:12:27Z</time>
      </trkpt>
      <trkpt lat="50.21804" lon="4.17582">
        <ele>225.682159</ele>
        <time>2023-05-18T09:12:29Z</time>
      </trkpt>
      <trkpt lat="50.21797" lon="4.17578">
        <ele>225.991013</ele>
        <time>2023-05-18T09:12:31Z</time>
      </trkpt>
      <trkpt lat="50.21792" lon="4.17576">
        <ele>226.238449</ele>
        <time>2023-05-18T09:12:33Z</time>
      </trkpt>
      <trkpt lat="50.21786" lon="4.17574">
        <ele>226.511017</ele>
        <time>2023-05-18T09:12:35Z</time>
      </trkpt>
      <trkpt lat="50.21779" lon="4.17572">
        <ele>226.692551</ele>
        <time>2023-05-18T09:12:37Z</time>
      </trkpt>
      <trkpt lat="50.21772" lon="4.17568">
        <ele>226.897018</ele>
        <time>2023-05-18T09:12:39Z</time>
      </trkpt>
      <trkpt lat="50.21765" lon="4.17567">
        <ele>227.10759</ele>
        <time>2023-05-18T09:12:41Z</time>
      </trkpt>
      <trkpt lat="50.21758" lon="4.17567">
        <ele>227.180862</ele>
        <time>2023-05-18T09:12:43Z</time>
      </trkpt>
      <trkpt lat="50.21751" lon="4.17565">
        <ele>227.373444</ele>
        <time>2023-05-18T09:12:45Z</time>
      </trkpt>
      <trkpt lat="50.21746" lon="4.17564">
        <ele>227.622559</ele>
        <time>2023-05-18T09:12:47Z</time>
      </trkpt>
      <trkpt lat="50.2174" lon="4.17562">
        <ele>227.808868</ele>
        <time>2023-05-18T09:12:49Z</time>
      </trkpt>
      <trkpt lat="50.21734" lon="4.17562">
        <ele>227.988892</ele>
        <time>2023-05-18T09:12:51Z</time>
      </trkpt>
      <trkpt lat="50.21729" lon="4.1756">
        <ele>228.158447</ele>
        <time>2023-05-18T09:12:53Z</time>
      </trkpt>
      <trkpt lat="50.21724" lon="4.1756">
        <ele>228.236282</ele>
        <time>2023-05-18T09:12:55Z</time>
      </trkpt>
      <trkpt lat="50.21722" lon="4.17561">
        <ele>228.451904</ele>
        <time>2023-05-18T09:12:57Z</time>
      </trkpt>
      <trkpt lat="50.21719" lon="4.1756">
        <ele>228.629852</ele>
        <time>2023-05-18T09:12:59Z</time>
      </trkpt>
      <trkpt lat="50.21717" lon="4.1756">
        <ele>228.791046</ele>
        <time>2023-05-18T09:13:01Z</time>
      </trkpt>
      <trkpt lat="50.21715" lon="4.17561">
        <ele>228.91037</ele>
        <time>2023-05-18T09:13:03Z</time>
      </trkpt>
      <trkpt lat="50.21711" lon="4.1756">
        <ele>228.962723</ele>
        <time>2023-05-18T09:13:05Z</time>
      </trkpt>
      <trkpt lat="50.21706" lon="4.17559">
        <ele>229.21817</ele>
        <time>2023-05-18T09:13:07Z</time>
      </trkpt>
      <trkpt lat="50.217" lon="4.17558">
        <ele>229.237747</ele>
        <time>2023-05-18T09:13:09Z</time>
      </trkpt>
      <trkpt lat="50.21693" lon="4.17559">
        <ele>229.293335</ele>
        <time>2023-05-18T09:13:11Z</time>
      </trkpt>
      <trkpt lat="50.21687" lon="4.1756">
        <ele>229.422653</ele>
        <time>2023-05-18T09:13:13Z</time>
      </trkpt>
      <trkpt lat="50.21682" lon="4.17562">
        <ele>229.488602</ele>
        <time>2023-05-18T09:13:15Z</time>
      </trkpt>
      <trkpt lat="50.21677" lon="4.17561">
        <ele>229.535492</ele>
        <time>2023-05-18T09:13:17Z</time>
      </trkpt>
      <trkpt lat="50.21674" lon="4.1756">
        <ele>229.629593</ele>
        <time>2023-05-18T09:13:19Z</time>
      </trkpt>
      <trkpt lat="50.2167" lon="4.1756">
        <ele>229.742645</ele>
        <time>2023-05-18T09:13:21Z</time>
      </trkpt>
      <trkpt lat="50.21667" lon="4.1756">
        <ele>229.889206</ele>
        <time>2023-05-18T09:13:23Z</time>
      </trkpt>
      <trkpt lat="50.21663" lon="4.1756">
        <ele>230.025314</ele>
        <time>2023-05-18T09:13:25Z</time>
      </trkpt>
      <trkpt lat="50.21659" lon="4.17559">
        <ele>230.146759</ele>
        <time>2023-05-18T09:13:27Z</time>
      </trkpt>
      <trkpt lat="50.21655" lon="4.1756">
        <ele>230.215851</ele>
        <time>2023-05-18T09:13:29Z</time>
      </trkpt>
      <trkpt lat="50.21649" lon="4.17558">
        <ele>230.31633</ele>
        <time>2023-05-18T09:13:31Z</time>
      </trkpt>
      <trkpt lat="50.21645" lon="4.17556">
        <ele>230.448242</ele>
        <time>2023-05-18T09:13:33Z</time>
      </trkpt>
      <trkpt lat="50.21641" lon="4.17555">
        <ele>230.630447</ele>
        <time>2023-05-18T09:13:35Z</time>
      </trkpt>
      <trkpt lat="50.21637" lon="4.17554">
        <ele>230.734772</ele>
        <time>2023-05-18T09:13:37Z</time>
      </trkpt>
      <trkpt lat="50.21634" lon="4.17552">
        <ele>230.854126</ele>
        <time>2023-05-18T09:13:39Z</time>
      </trkpt>
      <trkpt lat="50.21628" lon="4.17552">
        <ele>231.009109</ele>
        <time>2023-05-18T09:13:41Z</time>
      </trkpt>
      <trkpt lat="50.21623" lon="4.17551">
        <ele>231.180832</ele>
        <time>2023-05-18T09:13:43Z</time>
      </trkpt>
      <trkpt lat="50.21616" lon="4.17551">
        <ele>231.360916</ele>
        <time>2023-05-18T09:13:45Z</time>
      </trkpt>
      <trkpt lat="50.21611" lon="4.1755">
        <ele>231.513794</ele>
        <time>2023-05-18T09:13:47Z</time>
      </trkpt>
      <trkpt lat="50.21607" lon="4.17549">
        <ele>231.624954</ele>
        <time>2023-05-18T09:13:49Z</time>
      </trkpt>
      <trkpt lat="50.21603" lon="4.1755">
        <ele>231.828445</ele>
        <time>2023-05-18T09:13:51Z</time>
      </trkpt>
      <trkpt lat="50.21597" lon="4.17549">
        <ele>231.905914</ele>
        <time>2023-05-18T09:13:53Z</time>
      </trkpt>
      <trkpt lat="50.2159" lon="4.17549">
        <ele>232.127899</ele>
        <time>2023-05-18T09:13:55Z</time>
      </trkpt>
      <trkpt lat="50.21584" lon="4.17549">
        <ele>232.342575</ele>
        <time>2023-05-18T09:13:57Z</time>
      </trkpt>
      <trkpt lat="50.2158" lon="4.17547">
        <ele>232.532867</ele>
        <time>2023-05-18T09:13:59Z</time>
      </trkpt>
      <trkpt lat="50.21574" lon="4.17545">
        <ele>232.729584</ele>
        <time>2023-05-18T09:14:01Z</time>
      </trkpt>
      <trkpt lat="50.21568" lon="4.17544">
        <ele>232.922287</ele>
        <time>2023-05-18T09:14:03Z</time>
      </trkpt>
      <trkpt lat="50.21563" lon="4.17542">
        <ele>233.081512</ele>
        <time>2023-05-18T09:14:05Z</time>
      </trkpt>
      <trkpt lat="50.21556" lon="4.17542">
        <ele>233.221848</ele>
        <time>2023-05-18T09:14:07Z</time>
      </trkpt>
      <trkpt lat="50.21551" lon="4.17541">
        <ele>233.385223</ele>
        <time>2023-05-18T09:14:09Z</time>
      </trkpt>
      <trkpt lat="50.21547" lon="4.17542">
        <ele>233.561157</ele>
        <time>2023-05-18T09:14:11Z</time>
      </trkpt>
      <trkpt lat="50.21543" lon="4.17543">
        <ele>233.720367</ele>
        <time>2023-05-18T09:14:13Z</time>
      </trkpt>
      <trkpt lat="50.21538" lon="4.17542">
        <ele>233.816696</ele>
        <time>2023-05-18T09:14:15Z</time>
      </trkpt>
      <trkpt lat="50.21533" lon="4.17542">
        <ele>234.017792</ele>
        <time>2023-05-18T09:14:17Z</time>
      </trkpt>
      <trkpt lat="50.21529" lon="4.17543">
        <ele>234.239822</ele>
        <time>2023-05-18T09:14:19Z</time>
      </trkpt>
      <trkpt lat="50.21524" lon="4.17545">
        <ele>234.373901</ele>
        <time>2023-05-18T09:14:21Z</time>
      </trkpt>
      <trkpt lat="50.21519" lon="4.17546">
        <ele>234.478638</ele>
        <time>2023-05-18T09:14:23Z</time>
      </trkpt>
      <trkpt lat="50.21513" lon="4.17547">
        <ele>234.574982</ele>
        <time>2023-05-18T09:14:25Z</time>
      </trkpt>
      <trkpt lat="50.21507" lon="4.17546">
        <ele>234.771896</ele>
        <time>2023-05-18T09:14:27Z</time>
      </trkpt>
      <trkpt lat="50.215" lon="4.17543">
        <ele>234.868256</ele>
        <time>2023-05-18T09:14:29Z</time>
      </trkpt>
      <trkpt lat="50.21495" lon="4.17541">
        <ele>235.027267</ele>
        <time>2023-05-18T09:14:31Z</time>
      </trkpt>
      <trkpt lat="50.21489" lon="4.1754">
        <ele>235.166992</ele>
        <time>2023-05-18T09:14:33Z</time>
      </trkpt>
      <trkpt lat="50.2148" lon="4.1754">
        <ele>235.30835</ele>
        <time>2023-05-18T09:14:35Z</time>
      </trkpt>
      <trkpt lat="50.21471" lon="4.17542">
        <ele>235.457077</ele>
        <time>2023-05-18T09:14:37Z</time>
      </trkpt>
      <trkpt lat="50.21461" lon="4.17543">
        <ele>235.614227</ele>
        <time>2023-05-18T09:14:39Z</time>
      </trkpt>
      <trkpt lat="50.21447" lon="4.17545">
        <ele>235.750412</ele>
        <time>2023-05-18T09:14:41Z</time>
      </trkpt>
      <trkpt lat="50.21439" lon="4.17543">
        <ele>235.78389</ele>
        <time>2023-05-18T09:14:43Z</time>
      </trkpt>
      <trkpt lat="50.21431" lon="4.17543">
        <ele>235.913788</ele>
        <time>2023-05-18T09:14:45Z</time>
      </trkpt>
      <trkpt lat="50.21422" lon="4.17543">
        <ele>235.961945</ele>
        <time>2023-05-18T09:14:47Z</time>
      </trkpt>
      <trkpt lat="50.21414" lon="4.17543">
        <ele>236.056198</ele>
        <time>2023-05-18T09:14:49Z</time>
      </trkpt>
      <trkpt lat="50.21406" lon="4.17543">
        <ele>236.153687</ele>
        <time>2023-05-18T09:14:51Z</time>
      </trkpt>
      <trkpt lat="50.21398" lon="4.17542">
        <ele>236.214432</ele>
        <time>2023-05-18T09:14:53Z</time>
      </trkpt>
      <trkpt lat="50.21391" lon="4.17541">
        <ele>236.283539</ele>
        <time>2023-05-18T09:14:55Z</time>
      </trkpt>
      <trkpt lat="50.21383" lon="4.17541">
        <ele>236.231201</ele>
        <time>2023-05-18T09:14:57Z</time>
      </trkpt>
      <trkpt lat="50.21375" lon="4.17542">
        <ele>236.18721</ele>
        <time>2023-05-18T09:14:59Z</time>
      </trkpt>
      <trkpt lat="50.21367" lon="4.17542">
        <ele>236.188644</ele>
        <time>2023-05-18T09:15:01Z</time>
      </trkpt>
      <trkpt lat="50.21359" lon="4.17543">
        <ele>236.199127</ele>
        <time>2023-05-18T09:15:03Z</time>
      </trkpt>
      <trkpt lat="50.21351" lon="4.17544">
        <ele>236.127884</ele>
        <time>2023-05-18T09:15:05Z</time>
      </trkpt>
      <trkpt lat="50.21345" lon="4.17546">
        <ele>236.035721</ele>
        <time>2023-05-18T09:15:07Z</time>
      </trkpt>
      <trkpt lat="50.2134" lon="4.17548">
        <ele>235.914215</ele>
        <time>2023-05-18T09:15:09Z</time>
      </trkpt>
      <trkpt lat="50.21337" lon="4.1755">
        <ele>235.7948</ele>
        <time>2023-05-18T09:15:11Z</time>
      </trkpt>
      <trkpt lat="50.21334" lon="4.17552">
        <ele>235.654449</ele>
        <time>2023-05-18T09:15:13Z</time>
      </trkpt>
      <trkpt lat="50.21331" lon="4.17553">
        <ele>235.515182</ele>
        <time>2023-05-18T09:15:15Z</time>
      </trkpt>
      <trkpt lat="50.21328" lon="4.17555">
        <ele>235.337112</ele>
        <time>2023-05-18T09:15:17Z</time>
      </trkpt>
      <trkpt lat="50.21325" lon="4.17557">
        <ele>235.094086</ele>
        <time>2023-05-18T09:15:19Z</time>
      </trkpt>
      <trkpt lat="50.21321" lon="4.17558">
        <ele>234.892944</ele>
        <time>2023-05-18T09:15:21Z</time>
      </trkpt>
      <trkpt lat="50.21318" lon="4.17558">
        <ele>234.665726</ele>
        <time>2023-05-18T09:15:25Z</time>
      </trkpt>
      <trkpt lat="50.21315" lon="4.17558">
        <ele>234.437378</ele>
        <time>2023-05-18T09:15:27Z</time>
      </trkpt>
      <trkpt lat="50.21311" lon="4.1756">
        <ele>234.265625</ele>
        <time>2023-05-18T09:15:29Z</time>
      </trkpt>
      <trkpt lat="50.21305" lon="4.17562">
        <ele>233.994308</ele>
        <time>2023-05-18T09:15:31Z</time>
      </trkpt>
      <trkpt lat="50.21299" lon="4.17566">
        <ele>233.713043</ele>
        <time>2023-05-18T09:15:33Z</time>
      </trkpt>
      <trkpt lat="50.21293" lon="4.17569">
        <ele>233.455566</ele>
        <time>2023-05-18T09:15:35Z</time>
      </trkpt>
      <trkpt lat="50.21286" lon="4.17573">
        <ele>233.111816</ele>
        <time>2023-05-18T09:15:37Z</time>
      </trkpt>
      <trkpt lat="50.21279" lon="4.17576">
        <ele>232.805298</ele>
        <time>2023-05-18T09:15:39Z</time>
      </trkpt>
      <trkpt lat="50.21271" lon="4.17581">
        <ele>232.355103</ele>
        <time>2023-05-18T09:15:41Z</time>
      </trkpt>
      <trkpt lat="50.21263" lon="4.17585">
        <ele>232.091888</ele>
        <time>2023-05-18T09:15:43Z</time>
      </trkpt>
      <trkpt lat="50.21256" lon="4.1759">
        <ele>231.683563</ele>
        <time>2023-05-18T09:15:45Z</time>
      </trkpt>
      <trkpt lat="50.21248" lon="4.17594">
        <ele>231.289886</ele>
        <time>2023-05-18T09:15:47Z</time>
      </trkpt>
      <trkpt lat="50.21238" lon="4.17599">
        <ele>230.864838</ele>
        <time>2023-05-18T09:15:49Z</time>
      </trkpt>
      <trkpt lat="50.21228" lon="4.17605">
        <ele>230.477463</ele>
        <time>2023-05-18T09:15:51Z</time>
      </trkpt>
      <trkpt lat="50.21219" lon="4.17612">
        <ele>230.014771</ele>
        <time>2023-05-18T09:15:53Z</time>
      </trkpt>
      <trkpt lat="50.21208" lon="4.17619">
        <ele>229.610687</ele>
        <time>2023-05-18T09:15:55Z</time>
      </trkpt>
      <trkpt lat="50.21198" lon="4.17626">
        <ele>229.107346</ele>
        <time>2023-05-18T09:15:57Z</time>
      </trkpt>
      <trkpt lat="50.21187" lon="4.17633">
        <ele>228.573532</ele>
        <time>2023-05-18T09:15:59Z</time>
      </trkpt>
      <trkpt lat="50.21177" lon="4.17638">
        <ele>228.081589</ele>
        <time>2023-05-18T09:16:01Z</time>
      </trkpt>
      <trkpt lat="50.21166" lon="4.17643">
        <ele>227.721527</ele>
        <time>2023-05-18T09:16:03Z</time>
      </trkpt>
      <trkpt lat="50.21155" lon="4.17647">
        <ele>227.245193</ele>
        <time>2023-05-18T09:16:05Z</time>
      </trkpt>
      <trkpt lat="50.21143" lon="4.17648">
        <ele>226.803467</ele>
        <time>2023-05-18T09:16:07Z</time>
      </trkpt>
      <trkpt lat="50.21133" lon="4.17649">
        <ele>226.48526</ele>
        <time>2023-05-18T09:16:09Z</time>
      </trkpt>
      <trkpt lat="50.21122" lon="4.1765">
        <ele>225.980835</ele>
        <time>2023-05-18T09:16:11Z</time>
      </trkpt>
      <trkpt lat="50.21111" lon="4.17651">
        <ele>225.846848</ele>
        <time>2023-05-18T09:16:13Z</time>
      </trkpt>
      <trkpt lat="50.211" lon="4.17652">
        <ele>225.623459</ele>
        <time>2023-05-18T09:16:15Z</time>
      </trkpt>
      <trkpt lat="50.21089" lon="4.17653">
        <ele>225.300995</ele>
        <time>2023-05-18T09:16:17Z</time>
      </trkpt>
      <trkpt lat="50.21079" lon="4.17655">
        <ele>224.922409</ele>
        <time>2023-05-18T09:16:19Z</time>
      </trkpt>
      <trkpt lat="50.21067" lon="4.17656">
        <ele>224.768234</ele>
        <time>2023-05-18T09:16:21Z</time>
      </trkpt>
      <trkpt lat="50.21054" lon="4.1766">
        <ele>224.456345</ele>
        <time>2023-05-18T09:16:23Z</time>
      </trkpt>
      <trkpt lat="50.2104" lon="4.17666">
        <ele>224.394974</ele>
        <time>2023-05-18T09:16:25Z</time>
      </trkpt>
      <trkpt lat="50.21026" lon="4.17674">
        <ele>224.292679</ele>
        <time>2023-05-18T09:16:27Z</time>
      </trkpt>
      <trkpt lat="50.21011" lon="4.17682">
        <ele>224.213135</ele>
        <time>2023-05-18T09:16:29Z</time>
      </trkpt>
      <trkpt lat="50.20995" lon="4.17688">
        <ele>224.240326</ele>
        <time>2023-05-18T09:16:31Z</time>
      </trkpt>
      <trkpt lat="50.2098" lon="4.17692">
        <ele>224.079193</ele>
        <time>2023-05-18T09:16:33Z</time>
      </trkpt>
      <trkpt lat="50.20964" lon="4.17693">
        <ele>223.861603</ele>
        <time>2023-05-18T09:16:35Z</time>
      </trkpt>
      <trkpt lat="50.20949" lon="4.17694">
        <ele>223.912689</ele>
        <time>2023-05-18T09:16:37Z</time>
      </trkpt>
      <trkpt lat="50.20934" lon="4.17697">
        <ele>223.925339</ele>
        <time>2023-05-18T09:16:39Z</time>
      </trkpt>
      <trkpt lat="50.20921" lon="4.17701">
        <ele>224.057083</ele>
        <time>2023-05-18T09:16:41Z</time>
      </trkpt>
      <trkpt lat="50.20907" lon="4.17705">
        <ele>223.806793</ele>
        <time>2023-05-18T09:16:43Z</time>
      </trkpt>
      <trkpt lat="50.20894" lon="4.17706">
        <ele>223.830292</ele>
        <time>2023-05-18T09:16:45Z</time>
      </trkpt>
      <trkpt lat="50.20883" lon="4.177">
        <ele>223.83139</ele>
        <time>2023-05-18T09:16:47Z</time>
      </trkpt>
      <trkpt lat="50.20873" lon="4.1769">
        <ele>223.76236</ele>
        <time>2023-05-18T09:16:49Z</time>
      </trkpt>
      <trkpt lat="50.20864" lon="4.17679">
        <ele>223.823044</ele>
        <time>2023-05-18T09:16:51Z</time>
      </trkpt>
      <trkpt lat="50.20855" lon="4.17668">
        <ele>223.97998</ele>
        <time>2023-05-18T09:16:53Z</time>
      </trkpt>
      <trkpt lat="50.20846" lon="4.17658">
        <ele>223.896271</ele>
        <time>2023-05-18T09:16:55Z</time>
      </trkpt>
      <trkpt lat="50.20837" lon="4.17651">
        <ele>223.726761</ele>
        <time>2023-05-18T09:16:57Z</time>
      </trkpt>
      <trkpt lat="50.20826" lon="4.17646">
        <ele>223.628418</ele>
        <time>2023-05-18T09:16:59Z</time>
      </trkpt>
      <trkpt lat="50.20815" lon="4.17646">
        <ele>223.515427</ele>
        <time>2023-05-18T09:17:01Z</time>
      </trkpt>
      <trkpt lat="50.20805" lon="4.17647">
        <ele>223.43428</ele>
        <time>2023-05-18T09:17:03Z</time>
      </trkpt>
      <trkpt lat="50.20795" lon="4.17651">
        <ele>223.353516</ele>
        <time>2023-05-18T09:17:05Z</time>
      </trkpt>
      <trkpt lat="50.20785" lon="4.17655">
        <ele>223.097946</ele>
        <time>2023-05-18T09:17:07Z</time>
      </trkpt>
      <trkpt lat="50.20775" lon="4.1766">
        <ele>223.022659</ele>
        <time>2023-05-18T09:17:09Z</time>
      </trkpt>
      <trkpt lat="50.20766" lon="4.17666">
        <ele>222.853119</ele>
        <time>2023-05-18T09:17:11Z</time>
      </trkpt>
      <trkpt lat="50.20757" lon="4.17671">
        <ele>222.631348</ele>
        <time>2023-05-18T09:17:13Z</time>
      </trkpt>
      <trkpt lat="50.20748" lon="4.17674">
        <ele>222.668991</ele>
        <time>2023-05-18T09:17:15Z</time>
      </trkpt>
      <trkpt lat="50.20739" lon="4.17677">
        <ele>222.49321</ele>
        <time>2023-05-18T09:17:17Z</time>
      </trkpt>
      <trkpt lat="50.20731" lon="4.1768">
        <ele>222.525146</ele>
        <time>2023-05-18T09:17:19Z</time>
      </trkpt>
      <trkpt lat="50.20722" lon="4.17682">
        <ele>222.333786</ele>
        <time>2023-05-18T09:17:21Z</time>
      </trkpt>
      <trkpt lat="50.20713" lon="4.17683">
        <ele>222.142578</ele>
        <time>2023-05-18T09:17:23Z</time>
      </trkpt>
      <trkpt lat="50.20704" lon="4.17684">
        <ele>222.107574</ele>
        <time>2023-05-18T09:17:25Z</time>
      </trkpt>
      <trkpt lat="50.20696" lon="4.17685">
        <ele>221.857468</ele>
        <time>2023-05-18T09:17:27Z</time>
      </trkpt>
      <trkpt lat="50.20686" lon="4.17687">
        <ele>221.830276</ele>
        <time>2023-05-18T09:17:29Z</time>
      </trkpt>
      <trkpt lat="50.20677" lon="4.17691">
        <ele>221.690094</ele>
        <time>2023-05-18T09:17:31Z</time>
      </trkpt>
      <trkpt lat="50.20668" lon="4.17696">
        <ele>221.564545</ele>
        <time>2023-05-18T09:17:33Z</time>
      </trkpt>
      <trkpt lat="50.20659" lon="4.17702">
        <ele>221.35112</ele>
        <time>2023-05-18T09:17:35Z</time>
      </trkpt>
      <trkpt lat="50.2065" lon="4.17708">
        <ele>221.307175</ele>
        <time>2023-05-18T09:17:37Z</time>
      </trkpt>
      <trkpt lat="50.20641" lon="4.17714">
        <ele>220.611282</ele>
        <time>2023-05-18T09:17:39Z</time>
      </trkpt>
      <trkpt lat="50.20632" lon="4.17721">
        <ele>220.646454</ele>
        <time>2023-05-18T09:17:41Z</time>
      </trkpt>
      <trkpt lat="50.20624" lon="4.17727">
        <ele>220.69165</ele>
        <time>2023-05-18T09:17:43Z</time>
      </trkpt>
      <trkpt lat="50.20615" lon="4.17732">
        <ele>220.591064</ele>
        <time>2023-05-18T09:17:45Z</time>
      </trkpt>
      <trkpt lat="50.20607" lon="4.17738">
        <ele>220.512543</ele>
        <time>2023-05-18T09:17:47Z</time>
      </trkpt>
      <trkpt lat="50.20598" lon="4.17745">
        <ele>220.295044</ele>
        <time>2023-05-18T09:17:49Z</time>
      </trkpt>
      <trkpt lat="50.20589" lon="4.17752">
        <ele>220.179977</ele>
        <time>2023-05-18T09:17:51Z</time>
      </trkpt>
      <trkpt lat="50.20582" lon="4.17759">
        <ele>220.023102</ele>
        <time>2023-05-18T09:17:53Z</time>
      </trkpt>
      <trkpt lat="50.20574" lon="4.17766">
        <ele>219.968704</ele>
        <time>2023-05-18T09:17:55Z</time>
      </trkpt>
      <trkpt lat="50.20567" lon="4.17773">
        <ele>219.707306</ele>
        <time>2023-05-18T09:17:57Z</time>
      </trkpt>
      <trkpt lat="50.20558" lon="4.1778">
        <ele>219.602707</ele>
        <time>2023-05-18T09:17:59Z</time>
      </trkpt>
      <trkpt lat="50.20548" lon="4.17785">
        <ele>219.497482</ele>
        <time>2023-05-18T09:18:01Z</time>
      </trkpt>
      <trkpt lat="50.20538" lon="4.17786">
        <ele>219.416916</ele>
        <time>2023-05-18T09:18:03Z</time>
      </trkpt>
      <trkpt lat="50.20527" lon="4.17783">
        <ele>218.794235</ele>
        <time>2023-05-18T09:18:05Z</time>
      </trkpt>
      <trkpt lat="50.20513" lon="4.1778">
        <ele>218.669769</ele>
        <time>2023-05-18T09:18:07Z</time>
      </trkpt>
      <trkpt lat="50.20499" lon="4.17775">
        <ele>218.856354</ele>
        <time>2023-05-18T09:18:09Z</time>
      </trkpt>
      <trkpt lat="50.20484" lon="4.17769">
        <ele>218.741425</ele>
        <time>2023-05-18T09:18:11Z</time>
      </trkpt>
      <trkpt lat="50.20469" lon="4.17763">
        <ele>218.500885</ele>
        <time>2023-05-18T09:18:13Z</time>
      </trkpt>
      <trkpt lat="50.20454" lon="4.17757">
        <ele>218.111893</ele>
        <time>2023-05-18T09:18:15Z</time>
      </trkpt>
      <trkpt lat="50.20439" lon="4.17752">
        <ele>217.664352</ele>
        <time>2023-05-18T09:18:17Z</time>
      </trkpt>
      <trkpt lat="50.20427" lon="4.17747">
        <ele>218.146942</ele>
        <time>2023-05-18T09:18:19Z</time>
      </trkpt>
      <trkpt lat="50.20422" lon="4.17745">
        <ele>217.869186</ele>
        <time>2023-05-18T09:18:21Z</time>
      </trkpt>
      <trkpt lat="50.20418" lon="4.17749">
        <ele>217.472214</ele>
        <time>2023-05-18T09:18:23Z</time>
      </trkpt>
      <trkpt lat="50.20419" lon="4.17759">
        <ele>217.014008</ele>
        <time>2023-05-18T09:18:25Z</time>
      </trkpt>
      <trkpt lat="50.20421" lon="4.17771">
        <ele>216.62825</ele>
        <time>2023-05-18T09:18:27Z</time>
      </trkpt>
      <trkpt lat="50.20424" lon="4.17784">
        <ele>216.264404</ele>
        <time>2023-05-18T09:18:29Z</time>
      </trkpt>
      <trkpt lat="50.20426" lon="4.17796">
        <ele>215.958466</ele>
        <time>2023-05-18T09:18:31Z</time>
      </trkpt>
      <trkpt lat="50.20427" lon="4.17808">
        <ele>215.67453</ele>
        <time>2023-05-18T09:18:33Z</time>
      </trkpt>
      <trkpt lat="50.20429" lon="4.1782">
        <ele>215.457031</ele>
        <time>2023-05-18T09:18:35Z</time>
      </trkpt>
      <trkpt lat="50.2043" lon="4.17831">
        <ele>215.155914</ele>
        <time>2023-05-18T09:18:37Z</time>
      </trkpt>
      <trkpt lat="50.20431" lon="4.17843">
        <ele>214.930054</ele>
        <time>2023-05-18T09:18:39Z</time>
      </trkpt>
      <trkpt lat="50.20433" lon="4.17853">
        <ele>214.520187</ele>
        <time>2023-05-18T09:18:41Z</time>
      </trkpt>
      <trkpt lat="50.20434" lon="4.17863">
        <ele>214.331985</ele>
        <time>2023-05-18T09:18:43Z</time>
      </trkpt>
      <trkpt lat="50.20437" lon="4.17873">
        <ele>214.532318</ele>
        <time>2023-05-18T09:18:45Z</time>
      </trkpt>
      <trkpt lat="50.20439" lon="4.17884">
        <ele>214.321121</ele>
        <time>2023-05-18T09:18:47Z</time>
      </trkpt>
      <trkpt lat="50.20442" lon="4.17894">
        <ele>213.705856</ele>
        <time>2023-05-18T09:18:49Z</time>
      </trkpt>
      <trkpt lat="50.20446" lon="4.17905">
        <ele>213.611771</ele>
        <time>2023-05-18T09:18:51Z</time>
      </trkpt>
      <trkpt lat="50.2045" lon="4.17914">
        <ele>213.379547</ele>
        <time>2023-05-18T09:18:53Z</time>
      </trkpt>
      <trkpt lat="50.20454" lon="4.17923">
        <ele>213.285446</ele>
        <time>2023-05-18T09:18:55Z</time>
      </trkpt>
      <trkpt lat="50.20458" lon="4.17932">
        <ele>213.093109</ele>
        <time>2023-05-18T09:18:57Z</time>
      </trkpt>
      <trkpt lat="50.20463" lon="4.17941">
        <ele>213.185104</ele>
        <time>2023-05-18T09:18:59Z</time>
      </trkpt>
      <trkpt lat="50.20467" lon="4.1795">
        <ele>212.994904</ele>
        <time>2023-05-18T09:19:01Z</time>
      </trkpt>
      <trkpt lat="50.20472" lon="4.17959">
        <ele>213.030441</ele>
        <time>2023-05-18T09:19:03Z</time>
      </trkpt>
      <trkpt lat="50.20476" lon="4.17968">
        <ele>212.980469</ele>
        <time>2023-05-18T09:19:05Z</time>
      </trkpt>
      <trkpt lat="50.20481" lon="4.17978">
        <ele>213.057404</ele>
        <time>2023-05-18T09:19:07Z</time>
      </trkpt>
      <trkpt lat="50.20486" lon="4.17987">
        <ele>213.076218</ele>
        <time>2023-05-18T09:19:09Z</time>
      </trkpt>
      <trkpt lat="50.20491" lon="4.17997">
        <ele>213.10405</ele>
        <time>2023-05-18T09:19:11Z</time>
      </trkpt>
      <trkpt lat="50.20495" lon="4.18007">
        <ele>213.335648</ele>
        <time>2023-05-18T09:19:13Z</time>
      </trkpt>
      <trkpt lat="50.20499" lon="4.18017">
        <ele>213.36911</ele>
        <time>2023-05-18T09:19:15Z</time>
      </trkpt>
      <trkpt lat="50.20503" lon="4.18027">
        <ele>213.454865</ele>
        <time>2023-05-18T09:19:17Z</time>
      </trkpt>
      <trkpt lat="50.20507" lon="4.18038">
        <ele>213.569855</ele>
        <time>2023-05-18T09:19:19Z</time>
      </trkpt>
      <trkpt lat="50.20511" lon="4.18047">
        <ele>213.682739</ele>
        <time>2023-05-18T09:19:21Z</time>
      </trkpt>
      <trkpt lat="50.20514" lon="4.18056">
        <ele>213.311005</ele>
        <time>2023-05-18T09:19:23Z</time>
      </trkpt>
      <trkpt lat="50.20517" lon="4.18065">
        <ele>213.540985</ele>
        <time>2023-05-18T09:19:25Z</time>
      </trkpt>
      <trkpt lat="50.20521" lon="4.18073">
        <ele>213.704681</ele>
        <time>2023-05-18T09:19:27Z</time>
      </trkpt>
      <trkpt lat="50.20525" lon="4.18081">
        <ele>213.955597</ele>
        <time>2023-05-18T09:19:29Z</time>
      </trkpt>
      <trkpt lat="50.20529" lon="4.18089">
        <ele>214.168869</ele>
        <time>2023-05-18T09:19:31Z</time>
      </trkpt>
      <trkpt lat="50.20532" lon="4.18097">
        <ele>214.591309</ele>
        <time>2023-05-18T09:19:33Z</time>
      </trkpt>
      <trkpt lat="50.20536" lon="4.18105">
        <ele>215.315384</ele>
        <time>2023-05-18T09:19:35Z</time>
      </trkpt>
      <trkpt lat="50.2054" lon="4.18114">
        <ele>215.785858</ele>
        <time>2023-05-18T09:19:37Z</time>
      </trkpt>
      <trkpt lat="50.20545" lon="4.18122">
        <ele>216.120453</ele>
        <time>2023-05-18T09:19:39Z</time>
      </trkpt>
      <trkpt lat="50.20548" lon="4.18131">
        <ele>216.655884</ele>
        <time>2023-05-18T09:19:41Z</time>
      </trkpt>
      <trkpt lat="50.20552" lon="4.1814">
        <ele>217.245605</ele>
        <time>2023-05-18T09:19:43Z</time>
      </trkpt>
      <trkpt lat="50.20556" lon="4.1815">
        <ele>217.649246</ele>
        <time>2023-05-18T09:19:45Z</time>
      </trkpt>
      <trkpt lat="50.20558" lon="4.18158">
        <ele>218.118286</ele>
        <time>2023-05-18T09:19:47Z</time>
      </trkpt>
      <trkpt lat="50.20562" lon="4.18168">
        <ele>218.484299</ele>
        <time>2023-05-18T09:19:49Z</time>
      </trkpt>
      <trkpt lat="50.20565" lon="4.18178">
        <ele>218.666229</ele>
        <time>2023-05-18T09:19:51Z</time>
      </trkpt>
      <trkpt lat="50.20569" lon="4.18188">
        <ele>219.028076</ele>
        <time>2023-05-18T09:19:53Z</time>
      </trkpt>
      <trkpt lat="50.20572" lon="4.18198">
        <ele>219.440094</ele>
        <time>2023-05-18T09:19:55Z</time>
      </trkpt>
      <trkpt lat="50.20576" lon="4.18208">
        <ele>219.829147</ele>
        <time>2023-05-18T09:19:57Z</time>
      </trkpt>
      <trkpt lat="50.2058" lon="4.18218">
        <ele>220.183197</ele>
        <time>2023-05-18T09:19:59Z</time>
      </trkpt>
      <trkpt lat="50.20582" lon="4.18229">
        <ele>220.483612</ele>
        <time>2023-05-18T09:20:01Z</time>
      </trkpt>
      <trkpt lat="50.20585" lon="4.18241">
        <ele>220.804123</ele>
        <time>2023-05-18T09:20:03Z</time>
      </trkpt>
      <trkpt lat="50.20588" lon="4.18254">
        <ele>221.573212</ele>
        <time>2023-05-18T09:20:05Z</time>
      </trkpt>
      <trkpt lat="50.2059" lon="4.18266">
        <ele>221.823608</ele>
        <time>2023-05-18T09:20:07Z</time>
      </trkpt>
      <trkpt lat="50.20592" lon="4.18279">
        <ele>221.946991</ele>
        <time>2023-05-18T09:20:09Z</time>
      </trkpt>
      <trkpt lat="50.20594" lon="4.18292">
        <ele>222.156204</ele>
        <time>2023-05-18T09:20:11Z</time>
      </trkpt>
      <trkpt lat="50.20596" lon="4.18305">
        <ele>222.250336</ele>
        <time>2023-05-18T09:20:13Z</time>
      </trkpt>
      <trkpt lat="50.20599" lon="4.1832">
        <ele>221.827393</ele>
        <time>2023-05-18T09:20:15Z</time>
      </trkpt>
      <trkpt lat="50.20602" lon="4.18334">
        <ele>221.890167</ele>
        <time>2023-05-18T09:20:17Z</time>
      </trkpt>
      <trkpt lat="50.20605" lon="4.18347">
        <ele>221.856689</ele>
        <time>2023-05-18T09:20:19Z</time>
      </trkpt>
      <trkpt lat="50.20608" lon="4.18361">
        <ele>221.750854</ele>
        <time>2023-05-18T09:20:21Z</time>
      </trkpt>
      <trkpt lat="50.2061" lon="4.18374">
        <ele>221.692703</ele>
        <time>2023-05-18T09:20:23Z</time>
      </trkpt>
      <trkpt lat="50.20612" lon="4.18388">
        <ele>221.65715</ele>
        <time>2023-05-18T09:20:25Z</time>
      </trkpt>
      <trkpt lat="50.20614" lon="4.18403">
        <ele>221.627853</ele>
        <time>2023-05-18T09:20:27Z</time>
      </trkpt>
      <trkpt lat="50.20615" lon="4.18419">
        <ele>221.669922</ele>
        <time>2023-05-18T09:20:29Z</time>
      </trkpt>
      <trkpt lat="50.20617" lon="4.18435">
        <ele>221.676483</ele>
        <time>2023-05-18T09:20:31Z</time>
      </trkpt>
      <trkpt lat="50.20619" lon="4.1845">
        <ele>221.722504</ele>
        <time>2023-05-18T09:20:33Z</time>
      </trkpt>
      <trkpt lat="50.20622" lon="4.18466">
        <ele>221.647186</ele>
        <time>2023-05-18T09:20:35Z</time>
      </trkpt>
      <trkpt lat="50.20626" lon="4.18481">
        <ele>221.5112</ele>
        <time>2023-05-18T09:20:37Z</time>
      </trkpt>
      <trkpt lat="50.2063" lon="4.18496">
        <ele>221.502243</ele>
        <time>2023-05-18T09:20:39Z</time>
      </trkpt>
      <trkpt lat="50.20634" lon="4.18511">
        <ele>221.425629</ele>
        <time>2023-05-18T09:20:41Z</time>
      </trkpt>
      <trkpt lat="50.20639" lon="4.18524">
        <ele>221.492767</ele>
        <time>2023-05-18T09:20:43Z</time>
      </trkpt>
      <trkpt lat="50.20643" lon="4.18538">
        <ele>221.285126</ele>
        <time>2023-05-18T09:20:45Z</time>
      </trkpt>
      <trkpt lat="50.20649" lon="4.18552">
        <ele>221.3479</ele>
        <time>2023-05-18T09:20:47Z</time>
      </trkpt>
      <trkpt lat="50.20654" lon="4.18566">
        <ele>221.326981</ele>
        <time>2023-05-18T09:20:49Z</time>
      </trkpt>
      <trkpt lat="50.20659" lon="4.18579">
        <ele>221.19516</ele>
        <time>2023-05-18T09:20:51Z</time>
      </trkpt>
      <trkpt lat="50.20664" lon="4.18591">
        <ele>221.197266</ele>
        <time>2023-05-18T09:20:53Z</time>
      </trkpt>
      <trkpt lat="50.20668" lon="4.18603">
        <ele>221.0793</ele>
        <time>2023-05-18T09:20:55Z</time>
      </trkpt>
      <trkpt lat="50.20672" lon="4.18614">
        <ele>221.035355</ele>
        <time>2023-05-18T09:20:57Z</time>
      </trkpt>
      <trkpt lat="50.20675" lon="4.18626">
        <ele>220.980957</ele>
        <time>2023-05-18T09:20:59Z</time>
      </trkpt>
      <trkpt lat="50.20679" lon="4.18636">
        <ele>221.006058</ele>
        <time>2023-05-18T09:21:01Z</time>
      </trkpt>
      <trkpt lat="50.20684" lon="4.18645">
        <ele>220.886642</ele>
        <time>2023-05-18T09:21:03Z</time>
      </trkpt>
      <trkpt lat="50.20689" lon="4.18656">
        <ele>220.683258</ele>
        <time>2023-05-18T09:21:05Z</time>
      </trkpt>
      <trkpt lat="50.20693" lon="4.18667">
        <ele>220.543091</ele>
        <time>2023-05-18T09:21:07Z</time>
      </trkpt>
      <trkpt lat="50.20697" lon="4.1868">
        <ele>220.533401</ele>
        <time>2023-05-18T09:21:09Z</time>
      </trkpt>
      <trkpt lat="50.20701" lon="4.18692">
        <ele>220.457794</ele>
        <time>2023-05-18T09:21:11Z</time>
      </trkpt>
      <trkpt lat="50.20705" lon="4.18704">
        <ele>220.402313</ele>
        <time>2023-05-18T09:21:13Z</time>
      </trkpt>
      <trkpt lat="50.20709" lon="4.18716">
        <ele>220.350296</ele>
        <time>2023-05-18T09:21:15Z</time>
      </trkpt>
      <trkpt lat="50.20713" lon="4.18728">
        <ele>220.306351</ele>
        <time>2023-05-18T09:21:17Z</time>
      </trkpt>
      <trkpt lat="50.20716" lon="4.1874">
        <ele>220.312622</ele>
        <time>2023-05-18T09:21:19Z</time>
      </trkpt>
      <trkpt lat="50.2072" lon="4.18752">
        <ele>220.352127</ele>
        <time>2023-05-18T09:21:21Z</time>
      </trkpt>
      <trkpt lat="50.20723" lon="4.18765">
        <ele>220.397949</ele>
        <time>2023-05-18T09:21:23Z</time>
      </trkpt>
      <trkpt lat="50.20727" lon="4.18785">
        <ele>220.510132</ele>
        <time>2023-05-18T09:21:26Z</time>
      </trkpt>
      <trkpt lat="50.20729" lon="4.18798">
        <ele>220.629395</ele>
        <time>2023-05-18T09:21:28Z</time>
      </trkpt>
      <trkpt lat="50.2073" lon="4.18811">
        <ele>220.662888</ele>
        <time>2023-05-18T09:21:30Z</time>
      </trkpt>
      <trkpt lat="50.2073" lon="4.18824">
        <ele>220.773758</ele>
        <time>2023-05-18T09:21:32Z</time>
      </trkpt>
      <trkpt lat="50.2073" lon="4.18837">
        <ele>220.717285</ele>
        <time>2023-05-18T09:21:34Z</time>
      </trkpt>
      <trkpt lat="50.20728" lon="4.18849">
        <ele>220.594696</ele>
        <time>2023-05-18T09:21:36Z</time>
      </trkpt>
      <trkpt lat="50.20726" lon="4.1886">
        <ele>220.787186</ele>
        <time>2023-05-18T09:21:38Z</time>
      </trkpt>
      <trkpt lat="50.20725" lon="4.18874">
        <ele>220.946167</ele>
        <time>2023-05-18T09:21:40Z</time>
      </trkpt>
      <trkpt lat="50.20726" lon="4.18886">
        <ele>221.144943</ele>
        <time>2023-05-18T09:21:42Z</time>
      </trkpt>
      <trkpt lat="50.20727" lon="4.18899">
        <ele>221.248901</ele>
        <time>2023-05-18T09:21:44Z</time>
      </trkpt>
      <trkpt lat="50.2073" lon="4.18911">
        <ele>221.39743</ele>
        <time>2023-05-18T09:21:46Z</time>
      </trkpt>
      <trkpt lat="50.20733" lon="4.18923">
        <ele>221.604568</ele>
        <time>2023-05-18T09:21:48Z</time>
      </trkpt>
      <trkpt lat="50.20737" lon="4.18934">
        <ele>221.714233</ele>
        <time>2023-05-18T09:21:50Z</time>
      </trkpt>
      <trkpt lat="50.20741" lon="4.18943">
        <ele>221.774048</ele>
        <time>2023-05-18T09:21:52Z</time>
      </trkpt>
      <trkpt lat="50.20746" lon="4.18952">
        <ele>221.800247</ele>
        <time>2023-05-18T09:21:54Z</time>
      </trkpt>
      <trkpt lat="50.2075" lon="4.18962">
        <ele>221.927582</ele>
        <time>2023-05-18T09:21:56Z</time>
      </trkpt>
      <trkpt lat="50.20755" lon="4.18971">
        <ele>221.990326</ele>
        <time>2023-05-18T09:21:58Z</time>
      </trkpt>
      <trkpt lat="50.20759" lon="4.18979">
        <ele>221.94223</ele>
        <time>2023-05-18T09:22:00Z</time>
      </trkpt>
      <trkpt lat="50.20764" lon="4.18988">
        <ele>221.754196</ele>
        <time>2023-05-18T09:22:02Z</time>
      </trkpt>
      <trkpt lat="50.20768" lon="4.18997">
        <ele>221.680984</ele>
        <time>2023-05-18T09:22:04Z</time>
      </trkpt>
      <trkpt lat="50.20773" lon="4.19005">
        <ele>221.620651</ele>
        <time>2023-05-18T09:22:06Z</time>
      </trkpt>
      <trkpt lat="50.20777" lon="4.19013">
        <ele>221.391678</ele>
        <time>2023-05-18T09:22:08Z</time>
      </trkpt>
      <trkpt lat="50.20781" lon="4.19021">
        <ele>221.281174</ele>
        <time>2023-05-18T09:22:10Z</time>
      </trkpt>
      <trkpt lat="50.20784" lon="4.19028">
        <ele>221.250565</ele>
        <time>2023-05-18T09:22:12Z</time>
      </trkpt>
      <trkpt lat="50.20787" lon="4.19036">
        <ele>221.173172</ele>
        <time>2023-05-18T09:22:14Z</time>
      </trkpt>
      <trkpt lat="50.2079" lon="4.19043">
        <ele>221.20874</ele>
        <time>2023-05-18T09:22:16Z</time>
      </trkpt>
      <trkpt lat="50.20792" lon="4.19049">
        <ele>221.321564</ele>
        <time>2023-05-18T09:22:18Z</time>
      </trkpt>
      <trkpt lat="50.20795" lon="4.19055">
        <ele>221.308014</ele>
        <time>2023-05-18T09:22:20Z</time>
      </trkpt>
      <trkpt lat="50.20798" lon="4.19062">
        <ele>221.094574</ele>
        <time>2023-05-18T09:22:22Z</time>
      </trkpt>
      <trkpt lat="50.208" lon="4.1907">
        <ele>221.16777</ele>
        <time>2023-05-18T09:22:24Z</time>
      </trkpt>
      <trkpt lat="50.20802" lon="4.19076">
        <ele>221.025482</ele>
        <time>2023-05-18T09:22:26Z</time>
      </trkpt>
      <trkpt lat="50.20805" lon="4.19081">
        <ele>220.851837</ele>
        <time>2023-05-18T09:22:28Z</time>
      </trkpt>
      <trkpt lat="50.20807" lon="4.19085">
        <ele>220.761871</ele>
        <time>2023-05-18T09:22:30Z</time>
      </trkpt>
      <trkpt lat="50.20809" lon="4.1909">
        <ele>220.699142</ele>
        <time>2023-05-18T09:22:32Z</time>
      </trkpt>
      <trkpt lat="50.2081" lon="4.19092">
        <ele>220.614227</ele>
        <time>2023-05-18T09:22:34Z</time>
      </trkpt>
      <trkpt lat="50.20811" lon="4.19093">
        <ele>220.350586</ele>
        <time>2023-05-18T09:22:38Z</time>
      </trkpt>
      <trkpt lat="50.20812" lon="4.19096">
        <ele>220.388229</ele>
        <time>2023-05-18T09:22:40Z</time>
      </trkpt>
      <trkpt lat="50.20814" lon="4.191">
        <ele>220.402878</ele>
        <time>2023-05-18T09:22:42Z</time>
      </trkpt>
      <trkpt lat="50.20816" lon="4.19105">
        <ele>220.444702</ele>
        <time>2023-05-18T09:22:44Z</time>
      </trkpt>
      <trkpt lat="50.20817" lon="4.19109">
        <ele>220.490723</ele>
        <time>2023-05-18T09:22:46Z</time>
      </trkpt>
      <trkpt lat="50.20819" lon="4.19115">
        <ele>220.586227</ele>
        <time>2023-05-18T09:22:48Z</time>
      </trkpt>
      <trkpt lat="50.20821" lon="4.19121">
        <ele>220.632248</ele>
        <time>2023-05-18T09:22:50Z</time>
      </trkpt>
      <trkpt lat="50.20823" lon="4.19126">
        <ele>220.610931</ele>
        <time>2023-05-18T09:22:52Z</time>
      </trkpt>
      <trkpt lat="50.20825" lon="4.19133">
        <ele>220.603912</ele>
        <time>2023-05-18T09:22:54Z</time>
      </trkpt>
      <trkpt lat="50.20827" lon="4.19138">
        <ele>220.658295</ele>
        <time>2023-05-18T09:22:56Z</time>
      </trkpt>
      <trkpt lat="50.20828" lon="4.19143">
        <ele>220.670944</ele>
        <time>2023-05-18T09:22:58Z</time>
      </trkpt>
      <trkpt lat="50.2083" lon="4.19149">
        <ele>220.728439</ele>
        <time>2023-05-18T09:23:00Z</time>
      </trkpt>
      <trkpt lat="50.20832" lon="4.19157">
        <ele>220.751709</ele>
        <time>2023-05-18T09:23:02Z</time>
      </trkpt>
      <trkpt lat="50.20834" lon="4.19166">
        <ele>220.95256</ele>
        <time>2023-05-18T09:23:04Z</time>
      </trkpt>
      <trkpt lat="50.20836" lon="4.19174">
        <ele>221.189011</ele>
        <time>2023-05-18T09:23:06Z</time>
      </trkpt>
      <trkpt lat="50.20839" lon="4.19184">
        <ele>221.484055</ele>
        <time>2023-05-18T09:23:08Z</time>
      </trkpt>
      <trkpt lat="50.2084" lon="4.19194">
        <ele>221.733063</ele>
        <time>2023-05-18T09:23:10Z</time>
      </trkpt>
      <trkpt lat="50.20844" lon="4.19205">
        <ele>221.988327</ele>
        <time>2023-05-18T09:23:12Z</time>
      </trkpt>
      <trkpt lat="50.20846" lon="4.19216">
        <ele>222.300125</ele>
        <time>2023-05-18T09:23:14Z</time>
      </trkpt>
      <trkpt lat="50.2085" lon="4.19228">
        <ele>222.624466</ele>
        <time>2023-05-18T09:23:16Z</time>
      </trkpt>
      <trkpt lat="50.20853" lon="4.19239">
        <ele>222.827469</ele>
        <time>2023-05-18T09:23:18Z</time>
      </trkpt>
      <trkpt lat="50.20855" lon="4.1925">
        <ele>223.06604</ele>
        <time>2023-05-18T09:23:20Z</time>
      </trkpt>
      <trkpt lat="50.20858" lon="4.19261">
        <ele>223.444824</ele>
        <time>2023-05-18T09:23:22Z</time>
      </trkpt>
      <trkpt lat="50.20861" lon="4.19271">
        <ele>223.831955</ele>
        <time>2023-05-18T09:23:24Z</time>
      </trkpt>
      <trkpt lat="50.20864" lon="4.19281">
        <ele>224.204468</ele>
        <time>2023-05-18T09:23:26Z</time>
      </trkpt>
      <trkpt lat="50.20868" lon="4.1929">
        <ele>224.574875</ele>
        <time>2023-05-18T09:23:28Z</time>
      </trkpt>
      <trkpt lat="50.20872" lon="4.19299">
        <ele>224.907623</ele>
        <time>2023-05-18T09:23:30Z</time>
      </trkpt>
      <trkpt lat="50.20876" lon="4.19308">
        <ele>225.263397</ele>
        <time>2023-05-18T09:23:32Z</time>
      </trkpt>
      <trkpt lat="50.20881" lon="4.19316">
        <ele>225.537521</ele>
        <time>2023-05-18T09:23:34Z</time>
      </trkpt>
      <trkpt lat="50.20886" lon="4.19323">
        <ele>225.924683</ele>
        <time>2023-05-18T09:23:36Z</time>
      </trkpt>
      <trkpt lat="50.20889" lon="4.1933">
        <ele>226.286697</ele>
        <time>2023-05-18T09:23:38Z</time>
      </trkpt>
      <trkpt lat="50.20892" lon="4.19336">
        <ele>226.516891</ele>
        <time>2023-05-18T09:23:40Z</time>
      </trkpt>
      <trkpt lat="50.20896" lon="4.19343">
        <ele>226.788696</ele>
        <time>2023-05-18T09:23:42Z</time>
      </trkpt>
      <trkpt lat="50.209" lon="4.1935">
        <ele>227.025223</ele>
        <time>2023-05-18T09:23:44Z</time>
      </trkpt>
      <trkpt lat="50.20904" lon="4.19356">
        <ele>227.079636</ele>
        <time>2023-05-18T09:23:46Z</time>
      </trkpt>
      <trkpt lat="50.20908" lon="4.19363">
        <ele>227.230377</ele>
        <time>2023-05-18T09:23:48Z</time>
      </trkpt>
      <trkpt lat="50.20913" lon="4.19371">
        <ele>227.460617</ele>
        <time>2023-05-18T09:23:50Z</time>
      </trkpt>
      <trkpt lat="50.20917" lon="4.19378">
        <ele>227.633102</ele>
        <time>2023-05-18T09:23:52Z</time>
      </trkpt>
      <trkpt lat="50.20921" lon="4.19386">
        <ele>227.730804</ele>
        <time>2023-05-18T09:23:54Z</time>
      </trkpt>
      <trkpt lat="50.20926" lon="4.19393">
        <ele>227.873138</ele>
        <time>2023-05-18T09:23:56Z</time>
      </trkpt>
      <trkpt lat="50.20929" lon="4.194">
        <ele>227.915009</ele>
        <time>2023-05-18T09:23:58Z</time>
      </trkpt>
      <trkpt lat="50.20933" lon="4.19406">
        <ele>227.986176</ele>
        <time>2023-05-18T09:24:00Z</time>
      </trkpt>
      <trkpt lat="50.20935" lon="4.19412">
        <ele>228.071991</ele>
        <time>2023-05-18T09:24:02Z</time>
      </trkpt>
      <trkpt lat="50.20935" lon="4.1942">
        <ele>228.14946</ele>
        <time>2023-05-18T09:24:04Z</time>
      </trkpt>
      <trkpt lat="50.20932" lon="4.19428">
        <ele>228.287643</ele>
        <time>2023-05-18T09:24:06Z</time>
      </trkpt>
      <trkpt lat="50.20928" lon="4.19437">
        <ele>228.266693</ele>
        <time>2023-05-18T09:24:08Z</time>
      </trkpt>
      <trkpt lat="50.20924" lon="4.19447">
        <ele>228.360916</ele>
        <time>2023-05-18T09:24:10Z</time>
      </trkpt>
      <trkpt lat="50.2092" lon="4.19456">
        <ele>228.459305</ele>
        <time>2023-05-18T09:24:12Z</time>
      </trkpt>
      <trkpt lat="50.20916" lon="4.19464">
        <ele>228.607956</ele>
        <time>2023-05-18T09:24:14Z</time>
      </trkpt>
      <trkpt lat="50.20913" lon="4.19474">
        <ele>228.739838</ele>
        <time>2023-05-18T09:24:16Z</time>
      </trkpt>
      <trkpt lat="50.20911" lon="4.19484">
        <ele>228.859177</ele>
        <time>2023-05-18T09:24:18Z</time>
      </trkpt>
      <trkpt lat="50.20914" lon="4.19494">
        <ele>229.047607</ele>
        <time>2023-05-18T09:24:20Z</time>
      </trkpt>
      <trkpt lat="50.2092" lon="4.195">
        <ele>229.118805</ele>
        <time>2023-05-18T09:24:22Z</time>
      </trkpt>
      <trkpt lat="50.20927" lon="4.19505">
        <ele>229.28418</ele>
        <time>2023-05-18T09:24:24Z</time>
      </trkpt>
      <trkpt lat="50.20934" lon="4.1951">
        <ele>229.376297</ele>
        <time>2023-05-18T09:24:26Z</time>
      </trkpt>
      <trkpt lat="50.20942" lon="4.19515">
        <ele>229.663132</ele>
        <time>2023-05-18T09:24:28Z</time>
      </trkpt>
      <trkpt lat="50.20949" lon="4.1952">
        <ele>229.780365</ele>
        <time>2023-05-18T09:24:30Z</time>
      </trkpt>
      <trkpt lat="50.20957" lon="4.19525">
        <ele>229.688309</ele>
        <time>2023-05-18T09:24:32Z</time>
      </trkpt>
      <trkpt lat="50.20964" lon="4.1953">
        <ele>229.997437</ele>
        <time>2023-05-18T09:24:34Z</time>
      </trkpt>
      <trkpt lat="50.20971" lon="4.19535">
        <ele>230.184525</ele>
        <time>2023-05-18T09:24:36Z</time>
      </trkpt>
      <trkpt lat="50.20978" lon="4.19541">
        <ele>230.341553</ele>
        <time>2023-05-18T09:24:38Z</time>
      </trkpt>
      <trkpt lat="50.20985" lon="4.19546">
        <ele>230.426483</ele>
        <time>2023-05-18T09:24:40Z</time>
      </trkpt>
      <trkpt lat="50.20992" lon="4.19554">
        <ele>230.53537</ele>
        <time>2023-05-18T09:24:42Z</time>
      </trkpt>
      <trkpt lat="50.20996" lon="4.19564">
        <ele>230.640091</ele>
        <time>2023-05-18T09:24:44Z</time>
      </trkpt>
      <trkpt lat="50.20998" lon="4.19575">
        <ele>230.740601</ele>
        <time>2023-05-18T09:24:46Z</time>
      </trkpt>
      <trkpt lat="50.21" lon="4.19586">
        <ele>230.968903</ele>
        <time>2023-05-18T09:24:48Z</time>
      </trkpt>
      <trkpt lat="50.21003" lon="4.19598">
        <ele>231.128052</ele>
        <time>2023-05-18T09:24:50Z</time>
      </trkpt>
      <trkpt lat="50.21005" lon="4.1961">
        <ele>231.270432</ele>
        <time>2023-05-18T09:24:52Z</time>
      </trkpt>
      <trkpt lat="50.21008" lon="4.19621">
        <ele>231.316528</ele>
        <time>2023-05-18T09:24:54Z</time>
      </trkpt>
      <trkpt lat="50.21011" lon="4.19633">
        <ele>231.498093</ele>
        <time>2023-05-18T09:24:56Z</time>
      </trkpt>
      <trkpt lat="50.21013" lon="4.19644">
        <ele>231.611176</ele>
        <time>2023-05-18T09:24:58Z</time>
      </trkpt>
      <trkpt lat="50.21016" lon="4.19656">
        <ele>231.870895</ele>
        <time>2023-05-18T09:25:00Z</time>
      </trkpt>
      <trkpt lat="50.21018" lon="4.19668">
        <ele>232.178757</ele>
        <time>2023-05-18T09:25:02Z</time>
      </trkpt>
      <trkpt lat="50.21021" lon="4.1968">
        <ele>232.379807</ele>
        <time>2023-05-18T09:25:04Z</time>
      </trkpt>
      <trkpt lat="50.21024" lon="4.19692">
        <ele>232.593658</ele>
        <time>2023-05-18T09:25:06Z</time>
      </trkpt>
      <trkpt lat="50.21026" lon="4.19702">
        <ele>232.715118</ele>
        <time>2023-05-18T09:25:08Z</time>
      </trkpt>
      <trkpt lat="50.21029" lon="4.19714">
        <ele>232.872192</ele>
        <time>2023-05-18T09:25:10Z</time>
      </trkpt>
      <trkpt lat="50.2103" lon="4.19725">
        <ele>233.301514</ele>
        <time>2023-05-18T09:25:12Z</time>
      </trkpt>
      <trkpt lat="50.21033" lon="4.19736">
        <ele>233.374832</ele>
        <time>2023-05-18T09:25:14Z</time>
      </trkpt>
      <trkpt lat="50.21034" lon="4.19747">
        <ele>233.454422</ele>
        <time>2023-05-18T09:25:16Z</time>
      </trkpt>
      <trkpt lat="50.21034" lon="4.19759">
        <ele>233.469086</ele>
        <time>2023-05-18T09:25:18Z</time>
      </trkpt>
      <trkpt lat="50.21034" lon="4.19771">
        <ele>233.66597</ele>
        <time>2023-05-18T09:25:20Z</time>
      </trkpt>
      <trkpt lat="50.21035" lon="4.19783">
        <ele>233.895172</ele>
        <time>2023-05-18T09:25:22Z</time>
      </trkpt>
      <trkpt lat="50.21035" lon="4.19795">
        <ele>234.179764</ele>
        <time>2023-05-18T09:25:24Z</time>
      </trkpt>
      <trkpt lat="50.21035" lon="4.19806">
        <ele>234.372482</ele>
        <time>2023-05-18T09:25:26Z</time>
      </trkpt>
      <trkpt lat="50.21035" lon="4.19817">
        <ele>234.466751</ele>
        <time>2023-05-18T09:25:28Z</time>
      </trkpt>
      <trkpt lat="50.21035" lon="4.19827">
        <ele>234.829132</ele>
        <time>2023-05-18T09:25:30Z</time>
      </trkpt>
      <trkpt lat="50.21035" lon="4.19838">
        <ele>235.166428</ele>
        <time>2023-05-18T09:25:32Z</time>
      </trkpt>
      <trkpt lat="50.21035" lon="4.1985">
        <ele>235.524704</ele>
        <time>2023-05-18T09:25:34Z</time>
      </trkpt>
      <trkpt lat="50.21035" lon="4.19863">
        <ele>235.993988</ele>
        <time>2023-05-18T09:25:36Z</time>
      </trkpt>
      <trkpt lat="50.21035" lon="4.19875">
        <ele>236.44693</ele>
        <time>2023-05-18T09:25:38Z</time>
      </trkpt>
      <trkpt lat="50.21035" lon="4.19888">
        <ele>236.825409</ele>
        <time>2023-05-18T09:25:40Z</time>
      </trkpt>
      <trkpt lat="50.21035" lon="4.19902">
        <ele>237.139771</ele>
        <time>2023-05-18T09:25:42Z</time>
      </trkpt>
      <trkpt lat="50.21035" lon="4.19916">
        <ele>237.54422</ele>
        <time>2023-05-18T09:25:44Z</time>
      </trkpt>
      <trkpt lat="50.21036" lon="4.1993">
        <ele>238.005081</ele>
        <time>2023-05-18T09:25:46Z</time>
      </trkpt>
      <trkpt lat="50.21036" lon="4.19944">
        <ele>238.466141</ele>
        <time>2023-05-18T09:25:48Z</time>
      </trkpt>
      <trkpt lat="50.21035" lon="4.19959">
        <ele>239.036179</ele>
        <time>2023-05-18T09:25:50Z</time>
      </trkpt>
      <trkpt lat="50.21034" lon="4.19974">
        <ele>239.331665</ele>
        <time>2023-05-18T09:25:52Z</time>
      </trkpt>
      <trkpt lat="50.21034" lon="4.1999">
        <ele>239.884979</ele>
        <time>2023-05-18T09:25:54Z</time>
      </trkpt>
      <trkpt lat="50.21034" lon="4.20006">
        <ele>240.394699</ele>
        <time>2023-05-18T09:25:56Z</time>
      </trkpt>
      <trkpt lat="50.21035" lon="4.20022">
        <ele>240.597992</ele>
        <time>2023-05-18T09:25:58Z</time>
      </trkpt>
      <trkpt lat="50.21037" lon="4.20038">
        <ele>241.499359</ele>
        <time>2023-05-18T09:26:00Z</time>
      </trkpt>
      <trkpt lat="50.21038" lon="4.20053">
        <ele>241.820099</ele>
        <time>2023-05-18T09:26:02Z</time>
      </trkpt>
      <trkpt lat="50.2104" lon="4.20068">
        <ele>242.491699</ele>
        <time>2023-05-18T09:26:04Z</time>
      </trkpt>
      <trkpt lat="50.21042" lon="4.20082">
        <ele>242.93399</ele>
        <time>2023-05-18T09:26:06Z</time>
      </trkpt>
      <trkpt lat="50.21043" lon="4.20096">
        <ele>243.489471</ele>
        <time>2023-05-18T09:26:08Z</time>
      </trkpt>
      <trkpt lat="50.21046" lon="4.20109">
        <ele>243.967438</ele>
        <time>2023-05-18T09:26:10Z</time>
      </trkpt>
      <trkpt lat="50.21048" lon="4.20122">
        <ele>244.470627</ele>
        <time>2023-05-18T09:26:12Z</time>
      </trkpt>
      <trkpt lat="50.2105" lon="4.20136">
        <ele>244.772583</ele>
        <time>2023-05-18T09:26:14Z</time>
      </trkpt>
      <trkpt lat="50.21052" lon="4.20149">
        <ele>245.18985</ele>
        <time>2023-05-18T09:26:16Z</time>
      </trkpt>
      <trkpt lat="50.21054" lon="4.20162">
        <ele>245.566406</ele>
        <time>2023-05-18T09:26:18Z</time>
      </trkpt>
      <trkpt lat="50.21056" lon="4.20175">
        <ele>245.776031</ele>
        <time>2023-05-18T09:26:20Z</time>
      </trkpt>
      <trkpt lat="50.21058" lon="4.20189">
        <ele>246.026321</ele>
        <time>2023-05-18T09:26:22Z</time>
      </trkpt>
      <trkpt lat="50.21061" lon="4.20203">
        <ele>246.240189</ele>
        <time>2023-05-18T09:26:24Z</time>
      </trkpt>
      <trkpt lat="50.21062" lon="4.20218">
        <ele>246.395355</ele>
        <time>2023-05-18T09:26:26Z</time>
      </trkpt>
      <trkpt lat="50.21064" lon="4.20234">
        <ele>246.626343</ele>
        <time>2023-05-18T09:26:28Z</time>
      </trkpt>
      <trkpt lat="50.21066" lon="4.20251">
        <ele>246.695023</ele>
        <time>2023-05-18T09:26:30Z</time>
      </trkpt>
      <trkpt lat="50.21069" lon="4.20268">
        <ele>246.822952</ele>
        <time>2023-05-18T09:26:32Z</time>
      </trkpt>
      <trkpt lat="50.21072" lon="4.20286">
        <ele>246.812454</ele>
        <time>2023-05-18T09:26:34Z</time>
      </trkpt>
      <trkpt lat="50.21075" lon="4.20303">
        <ele>246.713531</ele>
        <time>2023-05-18T09:26:36Z</time>
      </trkpt>
      <trkpt lat="50.21078" lon="4.20322">
        <ele>246.686279</ele>
        <time>2023-05-18T09:26:38Z</time>
      </trkpt>
      <trkpt lat="50.21081" lon="4.2034">
        <ele>246.560425</ele>
        <time>2023-05-18T09:26:40Z</time>
      </trkpt>
      <trkpt lat="50.21085" lon="4.20359">
        <ele>246.533173</ele>
        <time>2023-05-18T09:26:42Z</time>
      </trkpt>
      <trkpt lat="50.21088" lon="4.20378">
        <ele>246.151566</ele>
        <time>2023-05-18T09:26:44Z</time>
      </trkpt>
      <trkpt lat="50.21091" lon="4.20397">
        <ele>246.000641</ele>
        <time>2023-05-18T09:26:46Z</time>
      </trkpt>
      <trkpt lat="50.21095" lon="4.20416">
        <ele>245.820313</ele>
        <time>2023-05-18T09:26:48Z</time>
      </trkpt>
      <trkpt lat="50.21098" lon="4.20436">
        <ele>245.486969</ele>
        <time>2023-05-18T09:26:50Z</time>
      </trkpt>
      <trkpt lat="50.21102" lon="4.20456">
        <ele>245.090668</ele>
        <time>2023-05-18T09:26:52Z</time>
      </trkpt>
      <trkpt lat="50.21106" lon="4.20476">
        <ele>244.631546</ele>
        <time>2023-05-18T09:26:54Z</time>
      </trkpt>
      <trkpt lat="50.2111" lon="4.20495">
        <ele>244.147217</ele>
        <time>2023-05-18T09:26:56Z</time>
      </trkpt>
      <trkpt lat="50.21114" lon="4.20512">
        <ele>243.528778</ele>
        <time>2023-05-18T09:26:58Z</time>
      </trkpt>
      <trkpt lat="50.21119" lon="4.20529">
        <ele>243.009842</ele>
        <time>2023-05-18T09:27:00Z</time>
      </trkpt>
      <trkpt lat="50.21123" lon="4.20546">
        <ele>242.483978</ele>
        <time>2023-05-18T09:27:02Z</time>
      </trkpt>
      <trkpt lat="50.21126" lon="4.20563">
        <ele>242.033325</ele>
        <time>2023-05-18T09:27:04Z</time>
      </trkpt>
      <trkpt lat="50.21129" lon="4.2058">
        <ele>241.526031</ele>
        <time>2023-05-18T09:27:06Z</time>
      </trkpt>
      <trkpt lat="50.2113" lon="4.20597">
        <ele>240.520172</ele>
        <time>2023-05-18T09:27:08Z</time>
      </trkpt>
      <trkpt lat="50.21132" lon="4.20615">
        <ele>239.904388</ele>
        <time>2023-05-18T09:27:10Z</time>
      </trkpt>
      <trkpt lat="50.21133" lon="4.20633">
        <ele>239.447433</ele>
        <time>2023-05-18T09:27:12Z</time>
      </trkpt>
      <trkpt lat="50.21135" lon="4.20651">
        <ele>238.873199</ele>
        <time>2023-05-18T09:27:14Z</time>
      </trkpt>
      <trkpt lat="50.21137" lon="4.20669">
        <ele>238.389069</ele>
        <time>2023-05-18T09:27:16Z</time>
      </trkpt>
      <trkpt lat="50.21139" lon="4.20687">
        <ele>237.934296</ele>
        <time>2023-05-18T09:27:18Z</time>
      </trkpt>
      <trkpt lat="50.21141" lon="4.20705">
        <ele>237.456375</ele>
        <time>2023-05-18T09:27:20Z</time>
      </trkpt>
      <trkpt lat="50.21142" lon="4.20722">
        <ele>236.986938</ele>
        <time>2023-05-18T09:27:22Z</time>
      </trkpt>
      <trkpt lat="50.21144" lon="4.2074">
        <ele>236.493774</ele>
        <time>2023-05-18T09:27:24Z</time>
      </trkpt>
      <trkpt lat="50.21145" lon="4.20757">
        <ele>236.280029</ele>
        <time>2023-05-18T09:27:26Z</time>
      </trkpt>
      <trkpt lat="50.21145" lon="4.20775">
        <ele>235.950684</ele>
        <time>2023-05-18T09:27:28Z</time>
      </trkpt>
      <trkpt lat="50.21145" lon="4.20792">
        <ele>235.54837</ele>
        <time>2023-05-18T09:27:30Z</time>
      </trkpt>
      <trkpt lat="50.21145" lon="4.20808">
        <ele>235.260529</ele>
        <time>2023-05-18T09:27:32Z</time>
      </trkpt>
      <trkpt lat="50.21144" lon="4.20824">
        <ele>235.093582</ele>
        <time>2023-05-18T09:27:34Z</time>
      </trkpt>
      <trkpt lat="50.21145" lon="4.2084">
        <ele>234.716553</ele>
        <time>2023-05-18T09:27:36Z</time>
      </trkpt>
      <trkpt lat="50.21145" lon="4.20857">
        <ele>234.419403</ele>
        <time>2023-05-18T09:27:38Z</time>
      </trkpt>
      <trkpt lat="50.21146" lon="4.20875">
        <ele>234.291595</ele>
        <time>2023-05-18T09:27:40Z</time>
      </trkpt>
      <trkpt lat="50.21147" lon="4.20894">
        <ele>234.000458</ele>
        <time>2023-05-18T09:27:42Z</time>
      </trkpt>
      <trkpt lat="50.21151" lon="4.20914">
        <ele>233.818207</ele>
        <time>2023-05-18T09:27:44Z</time>
      </trkpt>
      <trkpt lat="50.21154" lon="4.20936">
        <ele>233.709305</ele>
        <time>2023-05-18T09:27:46Z</time>
      </trkpt>
      <trkpt lat="50.21159" lon="4.20957">
        <ele>233.960373</ele>
        <time>2023-05-18T09:27:48Z</time>
      </trkpt>
      <trkpt lat="50.21165" lon="4.20976">
        <ele>233.845169</ele>
        <time>2023-05-18T09:27:50Z</time>
      </trkpt>
      <trkpt lat="50.21174" lon="4.20994">
        <ele>233.618927</ele>
        <time>2023-05-18T09:27:52Z</time>
      </trkpt>
      <trkpt lat="50.21183" lon="4.21012">
        <ele>233.359253</ele>
        <time>2023-05-18T09:27:54Z</time>
      </trkpt>
      <trkpt lat="50.21195" lon="4.21027">
        <ele>233.254562</ele>
        <time>2023-05-18T09:27:56Z</time>
      </trkpt>
      <trkpt lat="50.21207" lon="4.21041">
        <ele>232.745758</ele>
        <time>2023-05-18T09:27:58Z</time>
      </trkpt>
      <trkpt lat="50.21219" lon="4.21055">
        <ele>232.18457</ele>
        <time>2023-05-18T09:28:00Z</time>
      </trkpt>
      <trkpt lat="50.21232" lon="4.21068">
        <ele>231.799271</ele>
        <time>2023-05-18T09:28:02Z</time>
      </trkpt>
      <trkpt lat="50.21247" lon="4.21081">
        <ele>231.261154</ele>
        <time>2023-05-18T09:28:04Z</time>
      </trkpt>
      <trkpt lat="50.21259" lon="4.21094">
        <ele>230.890579</ele>
        <time>2023-05-18T09:28:06Z</time>
      </trkpt>
      <trkpt lat="50.21271" lon="4.21108">
        <ele>229.625641</ele>
        <time>2023-05-18T09:28:08Z</time>
      </trkpt>
      <trkpt lat="50.21282" lon="4.21126">
        <ele>228.836578</ele>
        <time>2023-05-18T09:28:10Z</time>
      </trkpt>
      <trkpt lat="50.21293" lon="4.21144">
        <ele>228.425003</ele>
        <time>2023-05-18T09:28:12Z</time>
      </trkpt>
      <trkpt lat="50.21302" lon="4.21162">
        <ele>227.163452</ele>
        <time>2023-05-18T09:28:14Z</time>
      </trkpt>
      <trkpt lat="50.21311" lon="4.21179">
        <ele>226.294876</ele>
        <time>2023-05-18T09:28:16Z</time>
      </trkpt>
      <trkpt lat="50.21321" lon="4.21197">
        <ele>225.488922</ele>
        <time>2023-05-18T09:28:18Z</time>
      </trkpt>
      <trkpt lat="50.2133" lon="4.21215">
        <ele>224.651825</ele>
        <time>2023-05-18T09:28:20Z</time>
      </trkpt>
      <trkpt lat="50.21337" lon="4.21233">
        <ele>223.783401</ele>
        <time>2023-05-18T09:28:22Z</time>
      </trkpt>
      <trkpt lat="50.21344" lon="4.21252">
        <ele>222.992554</ele>
        <time>2023-05-18T09:28:24Z</time>
      </trkpt>
      <trkpt lat="50.21349" lon="4.2127">
        <ele>221.848175</ele>
        <time>2023-05-18T09:28:26Z</time>
      </trkpt>
      <trkpt lat="50.21355" lon="4.21288">
        <ele>220.507248</ele>
        <time>2023-05-18T09:28:28Z</time>
      </trkpt>
      <trkpt lat="50.21359" lon="4.21306">
        <ele>219.341995</ele>
        <time>2023-05-18T09:28:30Z</time>
      </trkpt>
      <trkpt lat="50.21363" lon="4.21324">
        <ele>218.302444</ele>
        <time>2023-05-18T09:28:32Z</time>
      </trkpt>
      <trkpt lat="50.21367" lon="4.21342">
        <ele>217.041016</ele>
        <time>2023-05-18T09:28:34Z</time>
      </trkpt>
      <trkpt lat="50.21371" lon="4.21359">
        <ele>215.813263</ele>
        <time>2023-05-18T09:28:36Z</time>
      </trkpt>
      <trkpt lat="50.21375" lon="4.21376">
        <ele>214.778107</ele>
        <time>2023-05-18T09:28:38Z</time>
      </trkpt>
      <trkpt lat="50.21377" lon="4.21392">
        <ele>213.793427</ele>
        <time>2023-05-18T09:28:40Z</time>
      </trkpt>
      <trkpt lat="50.21378" lon="4.21409">
        <ele>212.738983</ele>
        <time>2023-05-18T09:28:42Z</time>
      </trkpt>
      <trkpt lat="50.2138" lon="4.21427">
        <ele>211.749435</ele>
        <time>2023-05-18T09:28:44Z</time>
      </trkpt>
      <trkpt lat="50.2138" lon="4.21444">
        <ele>210.478439</ele>
        <time>2023-05-18T09:28:46Z</time>
      </trkpt>
      <trkpt lat="50.2138" lon="4.21462">
        <ele>209.995331</ele>
        <time>2023-05-18T09:28:48Z</time>
      </trkpt>
      <trkpt lat="50.21379" lon="4.21479">
        <ele>209.700073</ele>
        <time>2023-05-18T09:28:50Z</time>
      </trkpt>
      <trkpt lat="50.21378" lon="4.21496">
        <ele>208.678391</ele>
        <time>2023-05-18T09:28:52Z</time>
      </trkpt>
      <trkpt lat="50.21376" lon="4.21514">
        <ele>207.743851</ele>
        <time>2023-05-18T09:28:54Z</time>
      </trkpt>
      <trkpt lat="50.21373" lon="4.21531">
        <ele>206.779449</ele>
        <time>2023-05-18T09:28:56Z</time>
      </trkpt>
      <trkpt lat="50.21372" lon="4.21547">
        <ele>206.018311</ele>
        <time>2023-05-18T09:28:58Z</time>
      </trkpt>
      <trkpt lat="50.21369" lon="4.21563">
        <ele>205.320526</ele>
        <time>2023-05-18T09:29:00Z</time>
      </trkpt>
      <trkpt lat="50.21367" lon="4.2158">
        <ele>204.547455</ele>
        <time>2023-05-18T09:29:02Z</time>
      </trkpt>
      <trkpt lat="50.21365" lon="4.21595">
        <ele>203.711807</ele>
        <time>2023-05-18T09:29:04Z</time>
      </trkpt>
      <trkpt lat="50.21363" lon="4.21612">
        <ele>203.128952</ele>
        <time>2023-05-18T09:29:06Z</time>
      </trkpt>
      <trkpt lat="50.21362" lon="4.2163">
        <ele>202.589645</ele>
        <time>2023-05-18T09:29:08Z</time>
      </trkpt>
      <trkpt lat="50.21361" lon="4.21649">
        <ele>202.063354</ele>
        <time>2023-05-18T09:29:10Z</time>
      </trkpt>
      <trkpt lat="50.21362" lon="4.21669">
        <ele>201.430695</ele>
        <time>2023-05-18T09:29:12Z</time>
      </trkpt>
      <trkpt lat="50.21364" lon="4.21689">
        <ele>200.636047</ele>
        <time>2023-05-18T09:29:14Z</time>
      </trkpt>
      <trkpt lat="50.21365" lon="4.21709">
        <ele>200.149033</ele>
        <time>2023-05-18T09:29:16Z</time>
      </trkpt>
      <trkpt lat="50.21367" lon="4.21729">
        <ele>199.176346</ele>
        <time>2023-05-18T09:29:18Z</time>
      </trkpt>
      <trkpt lat="50.21369" lon="4.21748">
        <ele>198.50827</ele>
        <time>2023-05-18T09:29:20Z</time>
      </trkpt>
      <trkpt lat="50.21372" lon="4.21766">
        <ele>198.305786</ele>
        <time>2023-05-18T09:29:22Z</time>
      </trkpt>
      <trkpt lat="50.21373" lon="4.21783">
        <ele>197.709244</ele>
        <time>2023-05-18T09:29:24Z</time>
      </trkpt>
      <trkpt lat="50.21375" lon="4.21801">
        <ele>197.066742</ele>
        <time>2023-05-18T09:29:26Z</time>
      </trkpt>
      <trkpt lat="50.21377" lon="4.2182">
        <ele>196.73587</ele>
        <time>2023-05-18T09:29:28Z</time>
      </trkpt>
      <trkpt lat="50.21378" lon="4.21839">
        <ele>196.28093</ele>
        <time>2023-05-18T09:29:30Z</time>
      </trkpt>
      <trkpt lat="50.21382" lon="4.21856">
        <ele>195.884674</ele>
        <time>2023-05-18T09:29:32Z</time>
      </trkpt>
      <trkpt lat="50.21386" lon="4.21874">
        <ele>195.498932</ele>
        <time>2023-05-18T09:29:34Z</time>
      </trkpt>
      <trkpt lat="50.2139" lon="4.21891">
        <ele>195.61972</ele>
        <time>2023-05-18T09:29:36Z</time>
      </trkpt>
      <trkpt lat="50.21397" lon="4.21905">
        <ele>195.329666</ele>
        <time>2023-05-18T09:29:38Z</time>
      </trkpt>
      <trkpt lat="50.21405" lon="4.21921">
        <ele>194.893936</ele>
        <time>2023-05-18T09:29:40Z</time>
      </trkpt>
      <trkpt lat="50.21414" lon="4.21936">
        <ele>194.357605</ele>
        <time>2023-05-18T09:29:42Z</time>
      </trkpt>
      <trkpt lat="50.21422" lon="4.21952">
        <ele>193.915237</ele>
        <time>2023-05-18T09:29:44Z</time>
      </trkpt>
      <trkpt lat="50.21428" lon="4.21967">
        <ele>193.531311</ele>
        <time>2023-05-18T09:29:46Z</time>
      </trkpt>
      <trkpt lat="50.21435" lon="4.21982">
        <ele>193.047089</ele>
        <time>2023-05-18T09:29:48Z</time>
      </trkpt>
      <trkpt lat="50.21443" lon="4.21994">
        <ele>192.848846</ele>
        <time>2023-05-18T09:29:50Z</time>
      </trkpt>
      <trkpt lat="50.21451" lon="4.22005">
        <ele>192.696503</ele>
        <time>2023-05-18T09:29:52Z</time>
      </trkpt>
      <trkpt lat="50.2146" lon="4.22015">
        <ele>192.43454</ele>
        <time>2023-05-18T09:29:54Z</time>
      </trkpt>
      <trkpt lat="50.2147" lon="4.22026">
        <ele>192.263947</ele>
        <time>2023-05-18T09:29:56Z</time>
      </trkpt>
      <trkpt lat="50.21478" lon="4.22038">
        <ele>192.270218</ele>
        <time>2023-05-18T09:29:58Z</time>
      </trkpt>
      <trkpt lat="50.21485" lon="4.22052">
        <ele>192.359756</ele>
        <time>2023-05-18T09:30:00Z</time>
      </trkpt>
      <trkpt lat="50.21492" lon="4.22066">
        <ele>192.29924</ele>
        <time>2023-05-18T09:30:02Z</time>
      </trkpt>
      <trkpt lat="50.21499" lon="4.22081">
        <ele>192.190765</ele>
        <time>2023-05-18T09:30:04Z</time>
      </trkpt>
      <trkpt lat="50.21504" lon="4.22096">
        <ele>192.084579</ele>
        <time>2023-05-18T09:30:06Z</time>
      </trkpt>
      <trkpt lat="50.21509" lon="4.22111">
        <ele>191.947968</ele>
        <time>2023-05-18T09:30:08Z</time>
      </trkpt>
      <trkpt lat="50.21512" lon="4.22128">
        <ele>191.74144</ele>
        <time>2023-05-18T09:30:10Z</time>
      </trkpt>
      <trkpt lat="50.21515" lon="4.22144">
        <ele>191.55368</ele>
        <time>2023-05-18T09:30:12Z</time>
      </trkpt>
      <trkpt lat="50.21515" lon="4.22161">
        <ele>191.426025</ele>
        <time>2023-05-18T09:30:14Z</time>
      </trkpt>
      <trkpt lat="50.21515" lon="4.22178">
        <ele>191.348846</ele>
        <time>2023-05-18T09:30:16Z</time>
      </trkpt>
      <trkpt lat="50.21514" lon="4.22194">
        <ele>191.184036</ele>
        <time>2023-05-18T09:30:18Z</time>
      </trkpt>
      <trkpt lat="50.21512" lon="4.2221">
        <ele>191.15097</ele>
        <time>2023-05-18T09:30:20Z</time>
      </trkpt>
      <trkpt lat="50.21509" lon="4.22226">
        <ele>191.052917</ele>
        <time>2023-05-18T09:30:22Z</time>
      </trkpt>
      <trkpt lat="50.21505" lon="4.2224">
        <ele>191.109238</ele>
        <time>2023-05-18T09:30:24Z</time>
      </trkpt>
      <trkpt lat="50.21501" lon="4.22255">
        <ele>191.186432</ele>
        <time>2023-05-18T09:30:26Z</time>
      </trkpt>
      <trkpt lat="50.21499" lon="4.2227">
        <ele>191.140488</ele>
        <time>2023-05-18T09:30:28Z</time>
      </trkpt>
      <trkpt lat="50.215" lon="4.22286">
        <ele>190.848389</ele>
        <time>2023-05-18T09:30:30Z</time>
      </trkpt>
      <trkpt lat="50.21503" lon="4.22302">
        <ele>190.781647</ele>
        <time>2023-05-18T09:30:32Z</time>
      </trkpt>
      <trkpt lat="50.21509" lon="4.22317">
        <ele>190.629364</ele>
        <time>2023-05-18T09:30:34Z</time>
      </trkpt>
      <trkpt lat="50.21515" lon="4.22332">
        <ele>190.537506</ele>
        <time>2023-05-18T09:30:36Z</time>
      </trkpt>
      <trkpt lat="50.21522" lon="4.22346">
        <ele>190.525925</ele>
        <time>2023-05-18T09:30:38Z</time>
      </trkpt>
      <trkpt lat="50.21529" lon="4.2236">
        <ele>190.397476</ele>
        <time>2023-05-18T09:30:40Z</time>
      </trkpt>
      <trkpt lat="50.21536" lon="4.22374">
        <ele>190.33139</ele>
        <time>2023-05-18T09:30:42Z</time>
      </trkpt>
      <trkpt lat="50.21543" lon="4.22389">
        <ele>190.261292</ele>
        <time>2023-05-18T09:30:44Z</time>
      </trkpt>
      <trkpt lat="50.2155" lon="4.22403">
        <ele>190.112976</ele>
        <time>2023-05-18T09:30:46Z</time>
      </trkpt>
      <trkpt lat="50.21557" lon="4.22417">
        <ele>190.02121</ele>
        <time>2023-05-18T09:30:48Z</time>
      </trkpt>
      <trkpt lat="50.21564" lon="4.22431">
        <ele>189.950287</ele>
        <time>2023-05-18T09:30:50Z</time>
      </trkpt>
      <trkpt lat="50.21571" lon="4.22444">
        <ele>189.917709</ele>
        <time>2023-05-18T09:30:52Z</time>
      </trkpt>
      <trkpt lat="50.21578" lon="4.22457">
        <ele>189.807159</ele>
        <time>2023-05-18T09:30:54Z</time>
      </trkpt>
      <trkpt lat="50.21584" lon="4.22471">
        <ele>189.673691</ele>
        <time>2023-05-18T09:30:56Z</time>
      </trkpt>
      <trkpt lat="50.21591" lon="4.22484">
        <ele>189.525604</ele>
        <time>2023-05-18T09:30:58Z</time>
      </trkpt>
      <trkpt lat="50.21597" lon="4.22498">
        <ele>189.408798</ele>
        <time>2023-05-18T09:31:00Z</time>
      </trkpt>
      <trkpt lat="50.21601" lon="4.22516">
        <ele>189.272919</ele>
        <time>2023-05-18T09:31:02Z</time>
      </trkpt>
      <trkpt lat="50.21602" lon="4.22538">
        <ele>189.10817</ele>
        <time>2023-05-18T09:31:04Z</time>
      </trkpt>
      <trkpt lat="50.21601" lon="4.2256">
        <ele>188.893341</ele>
        <time>2023-05-18T09:31:06Z</time>
      </trkpt>
      <trkpt lat="50.216" lon="4.22583">
        <ele>188.730682</ele>
        <time>2023-05-18T09:31:08Z</time>
      </trkpt>
      <trkpt lat="50.216" lon="4.22606">
        <ele>188.219833</ele>
        <time>2023-05-18T09:31:10Z</time>
      </trkpt>
      <trkpt lat="50.216" lon="4.22627">
        <ele>188.063446</ele>
        <time>2023-05-18T09:31:12Z</time>
      </trkpt>
      <trkpt lat="50.216" lon="4.22645">
        <ele>187.790268</ele>
        <time>2023-05-18T09:31:14Z</time>
      </trkpt>
      <trkpt lat="50.216" lon="4.22658">
        <ele>187.540054</ele>
        <time>2023-05-18T09:31:16Z</time>
      </trkpt>
      <trkpt lat="50.21601" lon="4.22666">
        <ele>187.28154</ele>
        <time>2023-05-18T09:31:18Z</time>
      </trkpt>
      <trkpt lat="50.216" lon="4.22671">
        <ele>185.641464</ele>
        <time>2023-05-18T09:31:28Z</time>
      </trkpt>
      <trkpt lat="50.216" lon="4.22674">
        <ele>185.314117</ele>
        <time>2023-05-18T09:31:30Z</time>
      </trkpt>
      <trkpt lat="50.216" lon="4.2268">
        <ele>184.957626</ele>
        <time>2023-05-18T09:31:32Z</time>
      </trkpt>
      <trkpt lat="50.216" lon="4.2269">
        <ele>184.554535</ele>
        <time>2023-05-18T09:31:34Z</time>
      </trkpt>
      <trkpt lat="50.21602" lon="4.22702">
        <ele>184.273056</ele>
        <time>2023-05-18T09:31:36Z</time>
      </trkpt>
      <trkpt lat="50.21605" lon="4.22715">
        <ele>183.96048</ele>
        <time>2023-05-18T09:31:38Z</time>
      </trkpt>
      <trkpt lat="50.21609" lon="4.22728">
        <ele>183.69664</ele>
        <time>2023-05-18T09:31:40Z</time>
      </trkpt>
      <trkpt lat="50.21613" lon="4.2274">
        <ele>183.354752</ele>
        <time>2023-05-18T09:31:42Z</time>
      </trkpt>
      <trkpt lat="50.21617" lon="4.22753">
        <ele>183.012878</ele>
        <time>2023-05-18T09:31:44Z</time>
      </trkpt>
      <trkpt lat="50.2162" lon="4.22766">
        <ele>182.673111</ele>
        <time>2023-05-18T09:31:46Z</time>
      </trkpt>
      <trkpt lat="50.21623" lon="4.2278">
        <ele>182.360458</ele>
        <time>2023-05-18T09:31:48Z</time>
      </trkpt>
      <trkpt lat="50.21624" lon="4.22794">
        <ele>182.181244</ele>
        <time>2023-05-18T09:31:50Z</time>
      </trkpt>
      <trkpt lat="50.21626" lon="4.22809">
        <ele>181.979095</ele>
        <time>2023-05-18T09:31:52Z</time>
      </trkpt>
      <trkpt lat="50.21627" lon="4.22823">
        <ele>181.664398</ele>
        <time>2023-05-18T09:31:54Z</time>
      </trkpt>
      <trkpt lat="50.21628" lon="4.22838">
        <ele>181.516418</ele>
        <time>2023-05-18T09:31:56Z</time>
      </trkpt>
      <trkpt lat="50.21629" lon="4.22853">
        <ele>181.235016</ele>
        <time>2023-05-18T09:31:58Z</time>
      </trkpt>
      <trkpt lat="50.21629" lon="4.22868">
        <ele>181.036697</ele>
        <time>2023-05-18T09:32:00Z</time>
      </trkpt>
      <trkpt lat="50.21629" lon="4.22883">
        <ele>180.919983</ele>
        <time>2023-05-18T09:32:02Z</time>
      </trkpt>
      <trkpt lat="50.21629" lon="4.22899">
        <ele>180.747009</ele>
        <time>2023-05-18T09:32:04Z</time>
      </trkpt>
      <trkpt lat="50.2163" lon="4.22915">
        <ele>180.642807</ele>
        <time>2023-05-18T09:32:06Z</time>
      </trkpt>
      <trkpt lat="50.21631" lon="4.22931">
        <ele>180.602158</ele>
        <time>2023-05-18T09:32:08Z</time>
      </trkpt>
      <trkpt lat="50.21632" lon="4.22946">
        <ele>180.537567</ele>
        <time>2023-05-18T09:32:10Z</time>
      </trkpt>
      <trkpt lat="50.21632" lon="4.22959">
        <ele>180.568817</ele>
        <time>2023-05-18T09:32:12Z</time>
      </trkpt>
      <trkpt lat="50.21634" lon="4.22972">
        <ele>180.594589</ele>
        <time>2023-05-18T09:32:14Z</time>
      </trkpt>
      <trkpt lat="50.21636" lon="4.22984">
        <ele>180.634171</ele>
        <time>2023-05-18T09:32:16Z</time>
      </trkpt>
      <trkpt lat="50.21639" lon="4.22995">
        <ele>180.67572</ele>
        <time>2023-05-18T09:32:18Z</time>
      </trkpt>
      <trkpt lat="50.21642" lon="4.23006">
        <ele>180.764435</ele>
        <time>2023-05-18T09:32:20Z</time>
      </trkpt>
      <trkpt lat="50.21644" lon="4.23016">
        <ele>180.849884</ele>
        <time>2023-05-18T09:32:22Z</time>
      </trkpt>
      <trkpt lat="50.21647" lon="4.23026">
        <ele>180.954117</ele>
        <time>2023-05-18T09:32:24Z</time>
      </trkpt>
      <trkpt lat="50.21649" lon="4.23036">
        <ele>181.137512</ele>
        <time>2023-05-18T09:32:26Z</time>
      </trkpt>
      <trkpt lat="50.21652" lon="4.23045">
        <ele>181.300064</ele>
        <time>2023-05-18T09:32:28Z</time>
      </trkpt>
      <trkpt lat="50.21655" lon="4.23055">
        <ele>181.520981</ele>
        <time>2023-05-18T09:32:30Z</time>
      </trkpt>
      <trkpt lat="50.21657" lon="4.23066">
        <ele>181.781509</ele>
        <time>2023-05-18T09:32:32Z</time>
      </trkpt>
      <trkpt lat="50.2166" lon="4.23078">
        <ele>182.071182</ele>
        <time>2023-05-18T09:32:34Z</time>
      </trkpt>
      <trkpt lat="50.21661" lon="4.2309">
        <ele>182.225433</ele>
        <time>2023-05-18T09:32:36Z</time>
      </trkpt>
      <trkpt lat="50.21661" lon="4.23103">
        <ele>182.467178</ele>
        <time>2023-05-18T09:32:38Z</time>
      </trkpt>
      <trkpt lat="50.21661" lon="4.23117">
        <ele>182.692596</ele>
        <time>2023-05-18T09:32:40Z</time>
      </trkpt>
      <trkpt lat="50.2166" lon="4.2313">
        <ele>182.911453</ele>
        <time>2023-05-18T09:32:42Z</time>
      </trkpt>
      <trkpt lat="50.21659" lon="4.23143">
        <ele>183.120575</ele>
        <time>2023-05-18T09:32:44Z</time>
      </trkpt>
      <trkpt lat="50.21657" lon="4.23159">
        <ele>183.349823</ele>
        <time>2023-05-18T09:32:46Z</time>
      </trkpt>
      <trkpt lat="50.21654" lon="4.23175">
        <ele>183.538467</ele>
        <time>2023-05-18T09:32:48Z</time>
      </trkpt>
      <trkpt lat="50.2165" lon="4.23192">
        <ele>183.694794</ele>
        <time>2023-05-18T09:32:50Z</time>
      </trkpt>
      <trkpt lat="50.21647" lon="4.23209">
        <ele>183.746918</ele>
        <time>2023-05-18T09:32:52Z</time>
      </trkpt>
      <trkpt lat="50.21643" lon="4.23226">
        <ele>183.85379</ele>
        <time>2023-05-18T09:32:54Z</time>
      </trkpt>
      <trkpt lat="50.2164" lon="4.23243">
        <ele>183.997238</ele>
        <time>2023-05-18T09:32:56Z</time>
      </trkpt>
      <trkpt lat="50.21639" lon="4.23259">
        <ele>184.103546</ele>
        <time>2023-05-18T09:32:58Z</time>
      </trkpt>
      <trkpt lat="50.21637" lon="4.23274">
        <ele>184.239044</ele>
        <time>2023-05-18T09:33:00Z</time>
      </trkpt>
      <trkpt lat="50.21635" lon="4.23289">
        <ele>184.299484</ele>
        <time>2023-05-18T09:33:02Z</time>
      </trkpt>
      <trkpt lat="50.21635" lon="4.23304">
        <ele>184.441254</ele>
        <time>2023-05-18T09:33:04Z</time>
      </trkpt>
      <trkpt lat="50.21634" lon="4.23318">
        <ele>184.499619</ele>
        <time>2023-05-18T09:33:06Z</time>
      </trkpt>
      <trkpt lat="50.21632" lon="4.23333">
        <ele>184.574677</ele>
        <time>2023-05-18T09:33:08Z</time>
      </trkpt>
      <trkpt lat="50.21631" lon="4.23346">
        <ele>184.637177</ele>
        <time>2023-05-18T09:33:10Z</time>
      </trkpt>
      <trkpt lat="50.2163" lon="4.2336">
        <ele>184.733078</ele>
        <time>2023-05-18T09:33:12Z</time>
      </trkpt>
      <trkpt lat="50.21629" lon="4.23374">
        <ele>184.842911</ele>
        <time>2023-05-18T09:33:14Z</time>
      </trkpt>
      <trkpt lat="50.21627" lon="4.23387">
        <ele>184.876129</ele>
        <time>2023-05-18T09:33:16Z</time>
      </trkpt>
      <trkpt lat="50.21626" lon="4.23401">
        <ele>184.932419</ele>
        <time>2023-05-18T09:33:18Z</time>
      </trkpt>
      <trkpt lat="50.21624" lon="4.23415">
        <ele>185.049164</ele>
        <time>2023-05-18T09:33:20Z</time>
      </trkpt>
      <trkpt lat="50.21622" lon="4.23428">
        <ele>185.145889</ele>
        <time>2023-05-18T09:33:22Z</time>
      </trkpt>
      <trkpt lat="50.2162" lon="4.23441">
        <ele>185.330765</ele>
        <time>2023-05-18T09:33:24Z</time>
      </trkpt>
      <trkpt lat="50.21618" lon="4.23453">
        <ele>185.520828</ele>
        <time>2023-05-18T09:33:26Z</time>
      </trkpt>
      <trkpt lat="50.21616" lon="4.23465">
        <ele>185.760605</ele>
        <time>2023-05-18T09:33:28Z</time>
      </trkpt>
      <trkpt lat="50.21615" lon="4.23477">
        <ele>185.996246</ele>
        <time>2023-05-18T09:33:30Z</time>
      </trkpt>
      <trkpt lat="50.21612" lon="4.23489">
        <ele>186.323639</ele>
        <time>2023-05-18T09:33:32Z</time>
      </trkpt>
      <trkpt lat="50.2161" lon="4.235">
        <ele>186.67395</ele>
        <time>2023-05-18T09:33:34Z</time>
      </trkpt>
      <trkpt lat="50.21608" lon="4.23511">
        <ele>186.973633</ele>
        <time>2023-05-18T09:33:36Z</time>
      </trkpt>
      <trkpt lat="50.21605" lon="4.23522">
        <ele>187.24852</ele>
        <time>2023-05-18T09:33:38Z</time>
      </trkpt>
      <trkpt lat="50.21603" lon="4.23533">
        <ele>187.575928</ele>
        <time>2023-05-18T09:33:40Z</time>
      </trkpt>
      <trkpt lat="50.216" lon="4.23544">
        <ele>187.911697</ele>
        <time>2023-05-18T09:33:42Z</time>
      </trkpt>
      <trkpt lat="50.21598" lon="4.23555">
        <ele>188.249557</ele>
        <time>2023-05-18T09:33:44Z</time>
      </trkpt>
      <trkpt lat="50.21595" lon="4.23567">
        <ele>188.604095</ele>
        <time>2023-05-18T09:33:46Z</time>
      </trkpt>
      <trkpt lat="50.21592" lon="4.23577">
        <ele>188.758423</ele>
        <time>2023-05-18T09:33:48Z</time>
      </trkpt>
      <trkpt lat="50.21589" lon="4.23588">
        <ele>189.274139</ele>
        <time>2023-05-18T09:33:50Z</time>
      </trkpt>
      <trkpt lat="50.21586" lon="4.23599">
        <ele>189.655807</ele>
        <time>2023-05-18T09:33:52Z</time>
      </trkpt>
      <trkpt lat="50.21582" lon="4.2361">
        <ele>189.812241</ele>
        <time>2023-05-18T09:33:54Z</time>
      </trkpt>
      <trkpt lat="50.21578" lon="4.2362">
        <ele>190.154999</ele>
        <time>2023-05-18T09:33:56Z</time>
      </trkpt>
      <trkpt lat="50.21574" lon="4.23631">
        <ele>190.53891</ele>
        <time>2023-05-18T09:33:58Z</time>
      </trkpt>
      <trkpt lat="50.21571" lon="4.23642">
        <ele>190.995712</ele>
        <time>2023-05-18T09:34:00Z</time>
      </trkpt>
      <trkpt lat="50.21567" lon="4.23653">
        <ele>191.358673</ele>
        <time>2023-05-18T09:34:02Z</time>
      </trkpt>
      <trkpt lat="50.21564" lon="4.23665">
        <ele>191.724991</ele>
        <time>2023-05-18T09:34:04Z</time>
      </trkpt>
      <trkpt lat="50.21561" lon="4.23676">
        <ele>192.025391</ele>
        <time>2023-05-18T09:34:06Z</time>
      </trkpt>
      <trkpt lat="50.21557" lon="4.23687">
        <ele>192.37764</ele>
        <time>2023-05-18T09:34:08Z</time>
      </trkpt>
      <trkpt lat="50.21553" lon="4.23699">
        <ele>192.675949</ele>
        <time>2023-05-18T09:34:10Z</time>
      </trkpt>
      <trkpt lat="50.2155" lon="4.23711">
        <ele>192.961792</ele>
        <time>2023-05-18T09:34:12Z</time>
      </trkpt>
      <trkpt lat="50.21547" lon="4.23721">
        <ele>193.201935</ele>
        <time>2023-05-18T09:34:14Z</time>
      </trkpt>
      <trkpt lat="50.21544" lon="4.23732">
        <ele>193.379242</ele>
        <time>2023-05-18T09:34:16Z</time>
      </trkpt>
      <trkpt lat="50.21541" lon="4.23743">
        <ele>193.079193</ele>
        <time>2023-05-18T09:34:18Z</time>
      </trkpt>
      <trkpt lat="50.21538" lon="4.23754">
        <ele>193.304535</ele>
        <time>2023-05-18T09:34:20Z</time>
      </trkpt>
      <trkpt lat="50.21535" lon="4.23763">
        <ele>193.565353</ele>
        <time>2023-05-18T09:34:22Z</time>
      </trkpt>
      <trkpt lat="50.21532" lon="4.23773">
        <ele>193.678024</ele>
        <time>2023-05-18T09:34:24Z</time>
      </trkpt>
      <trkpt lat="50.21529" lon="4.23783">
        <ele>193.888763</ele>
        <time>2023-05-18T09:34:26Z</time>
      </trkpt>
      <trkpt lat="50.21526" lon="4.23793">
        <ele>194.124557</ele>
        <time>2023-05-18T09:34:28Z</time>
      </trkpt>
      <trkpt lat="50.21523" lon="4.23802">
        <ele>194.326416</ele>
        <time>2023-05-18T09:34:30Z</time>
      </trkpt>
      <trkpt lat="50.21521" lon="4.23812">
        <ele>194.534546</ele>
        <time>2023-05-18T09:34:32Z</time>
      </trkpt>
      <trkpt lat="50.21518" lon="4.23822">
        <ele>194.755249</ele>
        <time>2023-05-18T09:34:34Z</time>
      </trkpt>
      <trkpt lat="50.21515" lon="4.23835">
        <ele>194.936813</ele>
        <time>2023-05-18T09:34:36Z</time>
      </trkpt>
      <trkpt lat="50.21512" lon="4.23851">
        <ele>195.045319</ele>
        <time>2023-05-18T09:34:38Z</time>
      </trkpt>
      <trkpt lat="50.21509" lon="4.23866">
        <ele>195.097488</ele>
        <time>2023-05-18T09:34:40Z</time>
      </trkpt>
      <trkpt lat="50.21507" lon="4.23879">
        <ele>195.191391</ele>
        <time>2023-05-18T09:34:42Z</time>
      </trkpt>
      <trkpt lat="50.21504" lon="4.23893">
        <ele>194.79538</ele>
        <time>2023-05-18T09:34:44Z</time>
      </trkpt>
      <trkpt lat="50.21503" lon="4.23907">
        <ele>194.87677</ele>
        <time>2023-05-18T09:34:46Z</time>
      </trkpt>
      <trkpt lat="50.2151" lon="4.23916">
        <ele>195.465805</ele>
        <time>2023-05-18T09:34:48Z</time>
      </trkpt>
      <trkpt lat="50.21518" lon="4.2392">
        <ele>195.569046</ele>
        <time>2023-05-18T09:34:50Z</time>
      </trkpt>
      <trkpt lat="50.21526" lon="4.23925">
        <ele>195.075897</ele>
        <time>2023-05-18T09:34:52Z</time>
      </trkpt>
      <trkpt lat="50.21536" lon="4.23928">
        <ele>195.154999</ele>
        <time>2023-05-18T09:34:54Z</time>
      </trkpt>
      <trkpt lat="50.21544" lon="4.23931">
        <ele>195.263519</ele>
        <time>2023-05-18T09:34:56Z</time>
      </trkpt>
      <trkpt lat="50.21553" lon="4.23933">
        <ele>195.855682</ele>
        <time>2023-05-18T09:34:58Z</time>
      </trkpt>
      <trkpt lat="50.21562" lon="4.23933">
        <ele>195.987167</ele>
        <time>2023-05-18T09:35:00Z</time>
      </trkpt>
      <trkpt lat="50.21571" lon="4.23933">
        <ele>195.995514</ele>
        <time>2023-05-18T09:35:02Z</time>
      </trkpt>
      <trkpt lat="50.2158" lon="4.23931">
        <ele>196.093613</ele>
        <time>2023-05-18T09:35:04Z</time>
      </trkpt>
      <trkpt lat="50.2159" lon="4.23929">
        <ele>196.141632</ele>
        <time>2023-05-18T09:35:06Z</time>
      </trkpt>
      <trkpt lat="50.216" lon="4.23927">
        <ele>196.234039</ele>
        <time>2023-05-18T09:35:08Z</time>
      </trkpt>
      <trkpt lat="50.2161" lon="4.23925">
        <ele>196.305328</ele>
        <time>2023-05-18T09:35:10Z</time>
      </trkpt>
      <trkpt lat="50.21619" lon="4.23924">
        <ele>196.351776</ele>
        <time>2023-05-18T09:35:12Z</time>
      </trkpt>
      <trkpt lat="50.2163" lon="4.23922">
        <ele>196.437347</ele>
        <time>2023-05-18T09:35:14Z</time>
      </trkpt>
      <trkpt lat="50.21641" lon="4.23922">
        <ele>196.476044</ele>
        <time>2023-05-18T09:35:16Z</time>
      </trkpt>
      <trkpt lat="50.2165" lon="4.23923">
        <ele>196.595016</ele>
        <time>2023-05-18T09:35:18Z</time>
      </trkpt>
      <trkpt lat="50.21659" lon="4.23925">
        <ele>196.647202</ele>
        <time>2023-05-18T09:35:20Z</time>
      </trkpt>
      <trkpt lat="50.21668" lon="4.23928">
        <ele>196.791443</ele>
        <time>2023-05-18T09:35:22Z</time>
      </trkpt>
      <trkpt lat="50.21676" lon="4.23933">
        <ele>197.437408</ele>
        <time>2023-05-18T09:35:24Z</time>
      </trkpt>
      <trkpt lat="50.21684" lon="4.23939">
        <ele>197.541779</ele>
        <time>2023-05-18T09:35:26Z</time>
      </trkpt>
      <trkpt lat="50.21693" lon="4.23944">
        <ele>197.178558</ele>
        <time>2023-05-18T09:35:28Z</time>
      </trkpt>
      <trkpt lat="50.21701" lon="4.2395">
        <ele>197.289703</ele>
        <time>2023-05-18T09:35:30Z</time>
      </trkpt>
      <trkpt lat="50.2171" lon="4.23955">
        <ele>197.297363</ele>
        <time>2023-05-18T09:35:32Z</time>
      </trkpt>
      <trkpt lat="50.21719" lon="4.23961">
        <ele>198.345001</ele>
        <time>2023-05-18T09:35:34Z</time>
      </trkpt>
      <trkpt lat="50.21727" lon="4.23966">
        <ele>198.403442</ele>
        <time>2023-05-18T09:35:36Z</time>
      </trkpt>
      <trkpt lat="50.21737" lon="4.23971">
        <ele>198.426392</ele>
        <time>2023-05-18T09:35:38Z</time>
      </trkpt>
      <trkpt lat="50.21745" lon="4.23976">
        <ele>198.378387</ele>
        <time>2023-05-18T09:35:40Z</time>
      </trkpt>
      <trkpt lat="50.21755" lon="4.23981">
        <ele>198.474411</ele>
        <time>2023-05-18T09:35:42Z</time>
      </trkpt>
      <trkpt lat="50.21767" lon="4.23986">
        <ele>198.503632</ele>
        <time>2023-05-18T09:35:44Z</time>
      </trkpt>
      <trkpt lat="50.21778" lon="4.2399">
        <ele>198.449371</ele>
        <time>2023-05-18T09:35:46Z</time>
      </trkpt>
      <trkpt lat="50.21788" lon="4.23994">
        <ele>198.424316</ele>
        <time>2023-05-18T09:35:48Z</time>
      </trkpt>
      <trkpt lat="50.21797" lon="4.23998">
        <ele>198.306854</ele>
        <time>2023-05-18T09:35:50Z</time>
      </trkpt>
      <trkpt lat="50.21806" lon="4.24004">
        <ele>198.262711</ele>
        <time>2023-05-18T09:35:52Z</time>
      </trkpt>
      <trkpt lat="50.21814" lon="4.2401">
        <ele>197.641296</ele>
        <time>2023-05-18T09:35:54Z</time>
      </trkpt>
      <trkpt lat="50.21822" lon="4.24016">
        <ele>197.473709</ele>
        <time>2023-05-18T09:35:56Z</time>
      </trkpt>
      <trkpt lat="50.2183" lon="4.24023">
        <ele>197.346008</ele>
        <time>2023-05-18T09:35:58Z</time>
      </trkpt>
      <trkpt lat="50.21839" lon="4.24029">
        <ele>196.703751</ele>
        <time>2023-05-18T09:36:00Z</time>
      </trkpt>
      <trkpt lat="50.21848" lon="4.24035">
        <ele>196.624481</ele>
        <time>2023-05-18T09:36:02Z</time>
      </trkpt>
      <trkpt lat="50.21857" lon="4.24041">
        <ele>196.453232</ele>
        <time>2023-05-18T09:36:04Z</time>
      </trkpt>
      <trkpt lat="50.21866" lon="4.24047">
        <ele>196.277908</ele>
        <time>2023-05-18T09:36:06Z</time>
      </trkpt>
      <trkpt lat="50.21875" lon="4.24054">
        <ele>196.077118</ele>
        <time>2023-05-18T09:36:08Z</time>
      </trkpt>
      <trkpt lat="50.21884" lon="4.24061">
        <ele>196.391312</ele>
        <time>2023-05-18T09:36:10Z</time>
      </trkpt>
      <trkpt lat="50.21895" lon="4.24069">
        <ele>196.138519</ele>
        <time>2023-05-18T09:36:12Z</time>
      </trkpt>
      <trkpt lat="50.21904" lon="4.24077">
        <ele>195.566193</ele>
        <time>2023-05-18T09:36:14Z</time>
      </trkpt>
      <trkpt lat="50.21914" lon="4.24085">
        <ele>195.330368</ele>
        <time>2023-05-18T09:36:16Z</time>
      </trkpt>
      <trkpt lat="50.21923" lon="4.24092">
        <ele>195.190536</ele>
        <time>2023-05-18T09:36:18Z</time>
      </trkpt>
      <trkpt lat="50.21933" lon="4.241">
        <ele>194.96727</ele>
        <time>2023-05-18T09:36:20Z</time>
      </trkpt>
      <trkpt lat="50.21944" lon="4.24107">
        <ele>194.92691</ele>
        <time>2023-05-18T09:36:22Z</time>
      </trkpt>
      <trkpt lat="50.21954" lon="4.24114">
        <ele>194.624298</ele>
        <time>2023-05-18T09:36:24Z</time>
      </trkpt>
      <trkpt lat="50.21965" lon="4.24122">
        <ele>194.405212</ele>
        <time>2023-05-18T09:36:26Z</time>
      </trkpt>
      <trkpt lat="50.21975" lon="4.2413">
        <ele>194.154816</ele>
        <time>2023-05-18T09:36:28Z</time>
      </trkpt>
      <trkpt lat="50.21985" lon="4.24137">
        <ele>193.96077</ele>
        <time>2023-05-18T09:36:30Z</time>
      </trkpt>
      <trkpt lat="50.21994" lon="4.24143">
        <ele>193.718719</ele>
        <time>2023-05-18T09:36:32Z</time>
      </trkpt>
      <trkpt lat="50.22001" lon="4.24148">
        <ele>193.510071</ele>
        <time>2023-05-18T09:36:34Z</time>
      </trkpt>
      <trkpt lat="50.22004" lon="4.24154">
        <ele>193.847244</ele>
        <time>2023-05-18T09:36:36Z</time>
      </trkpt>
      <trkpt lat="50.22001" lon="4.24162">
        <ele>193.567886</ele>
        <time>2023-05-18T09:36:38Z</time>
      </trkpt>
      <trkpt lat="50.21996" lon="4.2417">
        <ele>193.876984</ele>
        <time>2023-05-18T09:36:40Z</time>
      </trkpt>
      <trkpt lat="50.21991" lon="4.24182">
        <ele>193.602142</ele>
        <time>2023-05-18T09:36:42Z</time>
      </trkpt>
      <trkpt lat="50.21987" lon="4.24194">
        <ele>193.260529</ele>
        <time>2023-05-18T09:36:44Z</time>
      </trkpt>
      <trkpt lat="50.21982" lon="4.24207">
        <ele>192.955902</ele>
        <time>2023-05-18T09:36:46Z</time>
      </trkpt>
      <trkpt lat="50.21978" lon="4.24221">
        <ele>192.694534</ele>
        <time>2023-05-18T09:36:48Z</time>
      </trkpt>
      <trkpt lat="50.21974" lon="4.24233">
        <ele>192.460358</ele>
        <time>2023-05-18T09:36:50Z</time>
      </trkpt>
      <trkpt lat="50.2197" lon="4.24245">
        <ele>191.673157</ele>
        <time>2023-05-18T09:36:52Z</time>
      </trkpt>
      <trkpt lat="50.21966" lon="4.24258">
        <ele>191.233002</ele>
        <time>2023-05-18T09:36:54Z</time>
      </trkpt>
      <trkpt lat="50.21962" lon="4.2427">
        <ele>190.751221</ele>
        <time>2023-05-18T09:36:56Z</time>
      </trkpt>
      <trkpt lat="50.2196" lon="4.24284">
        <ele>190.422028</ele>
        <time>2023-05-18T09:36:58Z</time>
      </trkpt>
      <trkpt lat="50.21958" lon="4.24299">
        <ele>189.981979</ele>
        <time>2023-05-18T09:37:00Z</time>
      </trkpt>
      <trkpt lat="50.21956" lon="4.24313">
        <ele>189.621719</ele>
        <time>2023-05-18T09:37:02Z</time>
      </trkpt>
      <trkpt lat="50.21952" lon="4.24328">
        <ele>189.119125</ele>
        <time>2023-05-18T09:37:04Z</time>
      </trkpt>
      <trkpt lat="50.21948" lon="4.24342">
        <ele>188.474823</ele>
        <time>2023-05-18T09:37:06Z</time>
      </trkpt>
      <trkpt lat="50.21943" lon="4.24359">
        <ele>188.061966</ele>
        <time>2023-05-18T09:37:08Z</time>
      </trkpt>
      <trkpt lat="50.21939" lon="4.24376">
        <ele>187.384415</ele>
        <time>2023-05-18T09:37:10Z</time>
      </trkpt>
      <trkpt lat="50.21935" lon="4.24393">
        <ele>186.800629</ele>
        <time>2023-05-18T09:37:12Z</time>
      </trkpt>
      <trkpt lat="50.21934" lon="4.24412">
        <ele>186.21962</ele>
        <time>2023-05-18T09:37:14Z</time>
      </trkpt>
      <trkpt lat="50.21936" lon="4.24429">
        <ele>185.896881</ele>
        <time>2023-05-18T09:37:16Z</time>
      </trkpt>
      <trkpt lat="50.21939" lon="4.24446">
        <ele>185.263275</ele>
        <time>2023-05-18T09:37:18Z</time>
      </trkpt>
      <trkpt lat="50.21943" lon="4.24461">
        <ele>184.587173</ele>
        <time>2023-05-18T09:37:20Z</time>
      </trkpt>
      <trkpt lat="50.21944" lon="4.24476">
        <ele>183.777634</ele>
        <time>2023-05-18T09:37:22Z</time>
      </trkpt>
      <trkpt lat="50.21941" lon="4.24487">
        <ele>182.492615</ele>
        <time>2023-05-18T09:37:24Z</time>
      </trkpt>
      <trkpt lat="50.21932" lon="4.24491">
        <ele>181.84021</ele>
        <time>2023-05-18T09:37:26Z</time>
      </trkpt>
      <trkpt lat="50.21923" lon="4.24484">
        <ele>181.069031</ele>
        <time>2023-05-18T09:37:28Z</time>
      </trkpt>
      <trkpt lat="50.21915" lon="4.24477">
        <ele>180.256805</ele>
        <time>2023-05-18T09:37:30Z</time>
      </trkpt>
      <trkpt lat="50.21908" lon="4.2447">
        <ele>178.957687</ele>
        <time>2023-05-18T09:37:32Z</time>
      </trkpt>
      <trkpt lat="50.21901" lon="4.24462">
        <ele>178.188751</ele>
        <time>2023-05-18T09:37:34Z</time>
      </trkpt>
      <trkpt lat="50.21893" lon="4.24455">
        <ele>177.683273</ele>
        <time>2023-05-18T09:37:36Z</time>
      </trkpt>
      <trkpt lat="50.21886" lon="4.2445">
        <ele>177.012573</ele>
        <time>2023-05-18T09:37:38Z</time>
      </trkpt>
      <trkpt lat="50.2188" lon="4.24443">
        <ele>176.552094</ele>
        <time>2023-05-18T09:37:40Z</time>
      </trkpt>
      <trkpt lat="50.21872" lon="4.24438">
        <ele>176.022858</ele>
        <time>2023-05-18T09:37:42Z</time>
      </trkpt>
      <trkpt lat="50.21869" lon="4.24432">
        <ele>175.562454</ele>
        <time>2023-05-18T09:37:44Z</time>
      </trkpt>
      <trkpt lat="50.21864" lon="4.24429">
        <ele>175.233246</ele>
        <time>2023-05-18T09:37:46Z</time>
      </trkpt>
      <trkpt lat="50.2186" lon="4.24427">
        <ele>175.035324</ele>
        <time>2023-05-18T09:37:48Z</time>
      </trkpt>
      <trkpt lat="50.21855" lon="4.24424">
        <ele>174.770691</ele>
        <time>2023-05-18T09:37:50Z</time>
      </trkpt>
      <trkpt lat="50.21849" lon="4.24419">
        <ele>174.695679</ele>
        <time>2023-05-18T09:37:52Z</time>
      </trkpt>
      <trkpt lat="50.21843" lon="4.24413">
        <ele>174.472046</ele>
        <time>2023-05-18T09:37:54Z</time>
      </trkpt>
      <trkpt lat="50.21837" lon="4.24408">
        <ele>174.40329</ele>
        <time>2023-05-18T09:37:56Z</time>
      </trkpt>
      <trkpt lat="50.21832" lon="4.24403">
        <ele>174.405365</ele>
        <time>2023-05-18T09:37:58Z</time>
      </trkpt>
      <trkpt lat="50.21825" lon="4.24397">
        <ele>174.455368</ele>
        <time>2023-05-18T09:38:00Z</time>
      </trkpt>
      <trkpt lat="50.21819" lon="4.24391">
        <ele>174.519943</ele>
        <time>2023-05-18T09:38:02Z</time>
      </trkpt>
      <trkpt lat="50.21813" lon="4.24385">
        <ele>175.240036</ele>
        <time>2023-05-18T09:38:04Z</time>
      </trkpt>
      <trkpt lat="50.21807" lon="4.24379">
        <ele>175.369171</ele>
        <time>2023-05-18T09:38:06Z</time>
      </trkpt>
      <trkpt lat="50.21801" lon="4.24375">
        <ele>175.502487</ele>
        <time>2023-05-18T09:38:08Z</time>
      </trkpt>
      <trkpt lat="50.21796" lon="4.24369">
        <ele>175.692047</ele>
        <time>2023-05-18T09:38:10Z</time>
      </trkpt>
      <trkpt lat="50.2179" lon="4.24365">
        <ele>175.833679</ele>
        <time>2023-05-18T09:38:12Z</time>
      </trkpt>
      <trkpt lat="50.21784" lon="4.24362">
        <ele>176.555847</ele>
        <time>2023-05-18T09:38:14Z</time>
      </trkpt>
      <trkpt lat="50.21779" lon="4.24359">
        <ele>176.679962</ele>
        <time>2023-05-18T09:38:16Z</time>
      </trkpt>
      <trkpt lat="50.21772" lon="4.24357">
        <ele>176.80629</ele>
        <time>2023-05-18T09:38:18Z</time>
      </trkpt>
      <trkpt lat="50.21766" lon="4.24359">
        <ele>176.952087</ele>
        <time>2023-05-18T09:38:20Z</time>
      </trkpt>
      <trkpt lat="50.21763" lon="4.24366">
        <ele>176.985413</ele>
        <time>2023-05-18T09:38:22Z</time>
      </trkpt>
      <trkpt lat="50.21762" lon="4.24374">
        <ele>177.068741</ele>
        <time>2023-05-18T09:38:24Z</time>
      </trkpt>
      <trkpt lat="50.21763" lon="4.24383">
        <ele>177.068741</ele>
        <time>2023-05-18T09:38:26Z</time>
      </trkpt>
      <trkpt lat="50.21762" lon="4.24392">
        <ele>177.091644</ele>
        <time>2023-05-18T09:38:28Z</time>
      </trkpt>
      <trkpt lat="50.21761" lon="4.244">
        <ele>177.092346</ele>
        <time>2023-05-18T09:38:30Z</time>
      </trkpt>
      <trkpt lat="50.21761" lon="4.24407">
        <ele>177.147888</ele>
        <time>2023-05-18T09:38:32Z</time>
      </trkpt>
      <trkpt lat="50.2176" lon="4.24415">
        <ele>177.191635</ele>
        <time>2023-05-18T09:38:34Z</time>
      </trkpt>
      <trkpt lat="50.21759" lon="4.24423">
        <ele>177.233292</ele>
        <time>2023-05-18T09:38:36Z</time>
      </trkpt>
      <trkpt lat="50.21759" lon="4.24432">
        <ele>177.235382</ele>
        <time>2023-05-18T09:38:38Z</time>
      </trkpt>
      <trkpt lat="50.21759" lon="4.2444">
        <ele>177.231232</ele>
        <time>2023-05-18T09:38:40Z</time>
      </trkpt>
      <trkpt lat="50.21758" lon="4.24449">
        <ele>177.3479</ele>
        <time>2023-05-18T09:38:42Z</time>
      </trkpt>
      <trkpt lat="50.21757" lon="4.24457">
        <ele>177.395813</ele>
        <time>2023-05-18T09:38:44Z</time>
      </trkpt>
      <trkpt lat="50.21756" lon="4.24466">
        <ele>177.529175</ele>
        <time>2023-05-18T09:38:46Z</time>
      </trkpt>
      <trkpt lat="50.21755" lon="4.24474">
        <ele>177.635452</ele>
        <time>2023-05-18T09:38:48Z</time>
      </trkpt>
      <trkpt lat="50.21754" lon="4.24482">
        <ele>177.783386</ele>
        <time>2023-05-18T09:38:50Z</time>
      </trkpt>
      <trkpt lat="50.21753" lon="4.24491">
        <ele>177.962585</ele>
        <time>2023-05-18T09:38:52Z</time>
      </trkpt>
      <trkpt lat="50.21751" lon="4.24497">
        <ele>178.154938</ele>
        <time>2023-05-18T09:38:54Z</time>
      </trkpt>
      <trkpt lat="50.21751" lon="4.24505">
        <ele>178.38382</ele>
        <time>2023-05-18T09:38:56Z</time>
      </trkpt>
      <trkpt lat="50.21755" lon="4.24509">
        <ele>178.669281</ele>
        <time>2023-05-18T09:38:58Z</time>
      </trkpt>
      <trkpt lat="50.21756" lon="4.24515">
        <ele>178.952667</ele>
        <time>2023-05-18T09:39:00Z</time>
      </trkpt>
      <trkpt lat="50.21756" lon="4.24525">
        <ele>179.225601</ele>
        <time>2023-05-18T09:39:02Z</time>
      </trkpt>
      <trkpt lat="50.21755" lon="4.24536">
        <ele>179.538147</ele>
        <time>2023-05-18T09:39:04Z</time>
      </trkpt>
      <trkpt lat="50.21754" lon="4.24546">
        <ele>179.827744</ele>
        <time>2023-05-18T09:39:06Z</time>
      </trkpt>
      <trkpt lat="50.21754" lon="4.24557">
        <ele>180.17572</ele>
        <time>2023-05-18T09:39:08Z</time>
      </trkpt>
      <trkpt lat="50.21756" lon="4.24569">
        <ele>180.492462</ele>
        <time>2023-05-18T09:39:10Z</time>
      </trkpt>
      <trkpt lat="50.21757" lon="4.24579">
        <ele>180.804337</ele>
        <time>2023-05-18T09:39:12Z</time>
      </trkpt>
      <trkpt lat="50.21758" lon="4.2459">
        <ele>181.11554</ele>
        <time>2023-05-18T09:39:14Z</time>
      </trkpt>
      <trkpt lat="50.21757" lon="4.246">
        <ele>181.269745</ele>
        <time>2023-05-18T09:39:16Z</time>
      </trkpt>
      <trkpt lat="50.21755" lon="4.24609">
        <ele>181.572861</ele>
        <time>2023-05-18T09:39:18Z</time>
      </trkpt>
      <trkpt lat="50.21753" lon="4.24616">
        <ele>181.843369</ele>
        <time>2023-05-18T09:39:20Z</time>
      </trkpt>
      <trkpt lat="50.21751" lon="4.24622">
        <ele>182.085114</ele>
        <time>2023-05-18T09:39:22Z</time>
      </trkpt>
      <trkpt lat="50.21751" lon="4.24627">
        <ele>182.558243</ele>
        <time>2023-05-18T09:39:28Z</time>
      </trkpt>
      <trkpt lat="50.2175" lon="4.24629">
        <ele>182.906296</ele>
        <time>2023-05-18T09:39:32Z</time>
      </trkpt>
      <trkpt lat="50.21751" lon="4.24633">
        <ele>186.548111</ele>
        <time>2023-05-18T09:42:16Z</time>
      </trkpt>
      <trkpt lat="50.21754" lon="4.24634">
        <ele>186.478912</ele>
        <time>2023-05-18T09:42:18Z</time>
      </trkpt>
      <trkpt lat="50.21756" lon="4.24637">
        <ele>186.297531</ele>
        <time>2023-05-18T09:42:20Z</time>
      </trkpt>
      <trkpt lat="50.21758" lon="4.24642">
        <ele>186.112015</ele>
        <time>2023-05-18T09:42:22Z</time>
      </trkpt>
      <trkpt lat="50.21759" lon="4.24649">
        <ele>185.963989</ele>
        <time>2023-05-18T09:42:24Z</time>
      </trkpt>
      <trkpt lat="50.21761" lon="4.24656">
        <ele>185.707565</ele>
        <time>2023-05-18T09:42:26Z</time>
      </trkpt>
      <trkpt lat="50.21762" lon="4.24666">
        <ele>185.461578</ele>
        <time>2023-05-18T09:42:28Z</time>
      </trkpt>
      <trkpt lat="50.21763" lon="4.24677">
        <ele>185.271851</ele>
        <time>2023-05-18T09:42:30Z</time>
      </trkpt>
      <trkpt lat="50.21763" lon="4.24689">
        <ele>185.151581</ele>
        <time>2023-05-18T09:42:32Z</time>
      </trkpt>
      <trkpt lat="50.21762" lon="4.24701">
        <ele>185.007721</ele>
        <time>2023-05-18T09:42:34Z</time>
      </trkpt>
      <trkpt lat="50.21761" lon="4.24714">
        <ele>184.887558</ele>
        <time>2023-05-18T09:42:36Z</time>
      </trkpt>
      <trkpt lat="50.2176" lon="4.24727">
        <ele>184.774963</ele>
        <time>2023-05-18T09:42:38Z</time>
      </trkpt>
      <trkpt lat="50.21759" lon="4.2474">
        <ele>184.749939</ele>
        <time>2023-05-18T09:42:40Z</time>
      </trkpt>
      <trkpt lat="50.21758" lon="4.24752">
        <ele>184.710144</ele>
        <time>2023-05-18T09:42:42Z</time>
      </trkpt>
      <trkpt lat="50.21757" lon="4.24764">
        <ele>184.651749</ele>
        <time>2023-05-18T09:42:44Z</time>
      </trkpt>
      <trkpt lat="50.21756" lon="4.24777">
        <ele>184.658264</ele>
        <time>2023-05-18T09:42:46Z</time>
      </trkpt>
      <trkpt lat="50.21755" lon="4.2479">
        <ele>184.758362</ele>
        <time>2023-05-18T09:42:48Z</time>
      </trkpt>
      <trkpt lat="50.21753" lon="4.248">
        <ele>184.825531</ele>
        <time>2023-05-18T09:42:50Z</time>
      </trkpt>
      <trkpt lat="50.21752" lon="4.24805">
        <ele>185.069504</ele>
        <time>2023-05-18T09:42:52Z</time>
      </trkpt>
      <trkpt lat="50.21755" lon="4.24805">
        <ele>185.227997</ele>
        <time>2023-05-18T09:42:54Z</time>
      </trkpt>
      <trkpt lat="50.21756" lon="4.24801">
        <ele>185.549118</ele>
        <time>2023-05-18T09:42:56Z</time>
      </trkpt>
      <trkpt lat="50.21756" lon="4.24794">
        <ele>185.885239</ele>
        <time>2023-05-18T09:42:58Z</time>
      </trkpt>
      <trkpt lat="50.21757" lon="4.2479">
        <ele>186.254745</ele>
        <time>2023-05-18T09:43:00Z</time>
      </trkpt>
      <trkpt lat="50.21755" lon="4.24787">
        <ele>186.680145</ele>
        <time>2023-05-18T09:43:02Z</time>
      </trkpt>
      <trkpt lat="50.2175" lon="4.24786">
        <ele>187.120148</ele>
        <time>2023-05-18T09:43:04Z</time>
      </trkpt>
      <trkpt lat="50.21746" lon="4.24785">
        <ele>187.595612</ele>
        <time>2023-05-18T09:43:06Z</time>
      </trkpt>
      <trkpt lat="50.21739" lon="4.24783">
        <ele>188.149811</ele>
        <time>2023-05-18T09:43:08Z</time>
      </trkpt>
      <trkpt lat="50.21731" lon="4.24781">
        <ele>188.583527</ele>
        <time>2023-05-18T09:43:10Z</time>
      </trkpt>
      <trkpt lat="50.21725" lon="4.24779">
        <ele>188.969315</ele>
        <time>2023-05-18T09:43:12Z</time>
      </trkpt>
      <trkpt lat="50.21717" lon="4.24777">
        <ele>190.008804</ele>
        <time>2023-05-18T09:43:14Z</time>
      </trkpt>
      <trkpt lat="50.21709" lon="4.24774">
        <ele>190.438446</ele>
        <time>2023-05-18T09:43:16Z</time>
      </trkpt>
      <trkpt lat="50.21701" lon="4.24772">
        <ele>190.857635</ele>
        <time>2023-05-18T09:43:18Z</time>
      </trkpt>
      <trkpt lat="50.21693" lon="4.2477">
        <ele>190.793243</ele>
        <time>2023-05-18T09:43:20Z</time>
      </trkpt>
      <trkpt lat="50.21686" lon="4.24769">
        <ele>191.271103</ele>
        <time>2023-05-18T09:43:22Z</time>
      </trkpt>
      <trkpt lat="50.21681" lon="4.24771">
        <ele>191.721664</ele>
        <time>2023-05-18T09:43:24Z</time>
      </trkpt>
      <trkpt lat="50.21678" lon="4.24781">
        <ele>192.169891</ele>
        <time>2023-05-18T09:43:26Z</time>
      </trkpt>
      <trkpt lat="50.21677" lon="4.24794">
        <ele>192.468231</ele>
        <time>2023-05-18T09:43:28Z</time>
      </trkpt>
      <trkpt lat="50.21674" lon="4.24805">
        <ele>192.807816</ele>
        <time>2023-05-18T09:43:30Z</time>
      </trkpt>
      <trkpt lat="50.21667" lon="4.24811">
        <ele>193.083206</ele>
        <time>2023-05-18T09:43:32Z</time>
      </trkpt>
      <trkpt lat="50.21658" lon="4.24807">
        <ele>193.170822</ele>
        <time>2023-05-18T09:43:34Z</time>
      </trkpt>
      <trkpt lat="50.21649" lon="4.24799">
        <ele>193.389893</ele>
        <time>2023-05-18T09:43:36Z</time>
      </trkpt>
      <trkpt lat="50.21641" lon="4.24791">
        <ele>193.517136</ele>
        <time>2023-05-18T09:43:38Z</time>
      </trkpt>
      <trkpt lat="50.21635" lon="4.24777">
        <ele>193.648163</ele>
        <time>2023-05-18T09:43:40Z</time>
      </trkpt>
      <trkpt lat="50.21634" lon="4.2476">
        <ele>193.779617</ele>
        <time>2023-05-18T09:43:42Z</time>
      </trkpt>
      <trkpt lat="50.21632" lon="4.24741">
        <ele>193.888107</ele>
        <time>2023-05-18T09:43:44Z</time>
      </trkpt>
      <trkpt lat="50.21629" lon="4.24723">
        <ele>194.000778</ele>
        <time>2023-05-18T09:43:46Z</time>
      </trkpt>
      <trkpt lat="50.21626" lon="4.24703">
        <ele>194.164001</ele>
        <time>2023-05-18T09:43:48Z</time>
      </trkpt>
      <trkpt lat="50.21623" lon="4.2468">
        <ele>194.189041</ele>
        <time>2023-05-18T09:43:50Z</time>
      </trkpt>
      <trkpt lat="50.21621" lon="4.24659">
        <ele>194.278748</ele>
        <time>2023-05-18T09:43:52Z</time>
      </trkpt>
      <trkpt lat="50.21621" lon="4.2464">
        <ele>194.268311</ele>
        <time>2023-05-18T09:43:54Z</time>
      </trkpt>
      <trkpt lat="50.21619" lon="4.24629">
        <ele>193.704346</ele>
        <time>2023-05-18T09:43:56Z</time>
      </trkpt>
      <trkpt lat="50.21616" lon="4.24621">
        <ele>193.664703</ele>
        <time>2023-05-18T09:43:58Z</time>
      </trkpt>
      <trkpt lat="50.21611" lon="4.24619">
        <ele>194.087845</ele>
        <time>2023-05-18T09:44:00Z</time>
      </trkpt>
      <trkpt lat="50.21603" lon="4.2462">
        <ele>193.89798</ele>
        <time>2023-05-18T09:44:02Z</time>
      </trkpt>
      <trkpt lat="50.21594" lon="4.2462">
        <ele>193.76236</ele>
        <time>2023-05-18T09:44:04Z</time>
      </trkpt>
      <trkpt lat="50.21582" lon="4.24623">
        <ele>193.597336</ele>
        <time>2023-05-18T09:44:06Z</time>
      </trkpt>
      <trkpt lat="50.21571" lon="4.24624">
        <ele>193.463791</ele>
        <time>2023-05-18T09:44:08Z</time>
      </trkpt>
      <trkpt lat="50.2156" lon="4.24625">
        <ele>193.445007</ele>
        <time>2023-05-18T09:44:10Z</time>
      </trkpt>
      <trkpt lat="50.2155" lon="4.24626">
        <ele>193.321899</ele>
        <time>2023-05-18T09:44:12Z</time>
      </trkpt>
      <trkpt lat="50.21542" lon="4.24631">
        <ele>193.177948</ele>
        <time>2023-05-18T09:44:14Z</time>
      </trkpt>
      <trkpt lat="50.2154" lon="4.24642">
        <ele>193.103165</ele>
        <time>2023-05-18T09:44:16Z</time>
      </trkpt>
      <trkpt lat="50.21539" lon="4.24653">
        <ele>192.907059</ele>
        <time>2023-05-18T09:44:18Z</time>
      </trkpt>
      <trkpt lat="50.21538" lon="4.24658">
        <ele>192.86116</ele>
        <time>2023-05-18T09:44:20Z</time>
      </trkpt>
      <trkpt lat="50.21533" lon="4.24658">
        <ele>192.731812</ele>
        <time>2023-05-18T09:44:22Z</time>
      </trkpt>
      <trkpt lat="50.21525" lon="4.24656">
        <ele>192.431473</ele>
        <time>2023-05-18T09:44:24Z</time>
      </trkpt>
      <trkpt lat="50.21517" lon="4.24654">
        <ele>192.320892</ele>
        <time>2023-05-18T09:44:26Z</time>
      </trkpt>
      <trkpt lat="50.21509" lon="4.2465">
        <ele>192.03923</ele>
        <time>2023-05-18T09:44:28Z</time>
      </trkpt>
      <trkpt lat="50.21501" lon="4.24645">
        <ele>191.828537</ele>
        <time>2023-05-18T09:44:30Z</time>
      </trkpt>
      <trkpt lat="50.21494" lon="4.2464">
        <ele>191.690872</ele>
        <time>2023-05-18T09:44:32Z</time>
      </trkpt>
      <trkpt lat="50.21489" lon="4.24633">
        <ele>191.507294</ele>
        <time>2023-05-18T09:44:34Z</time>
      </trkpt>
      <trkpt lat="50.21487" lon="4.24623">
        <ele>191.256989</ele>
        <time>2023-05-18T09:44:36Z</time>
      </trkpt>
      <trkpt lat="50.21484" lon="4.24614">
        <ele>191.015015</ele>
        <time>2023-05-18T09:44:38Z</time>
      </trkpt>
      <trkpt lat="50.21479" lon="4.24607">
        <ele>190.766815</ele>
        <time>2023-05-18T09:44:40Z</time>
      </trkpt>
      <trkpt lat="50.21475" lon="4.246">
        <ele>190.476898</ele>
        <time>2023-05-18T09:44:42Z</time>
      </trkpt>
      <trkpt lat="50.21468" lon="4.24598">
        <ele>190.318405</ele>
        <time>2023-05-18T09:44:44Z</time>
      </trkpt>
      <trkpt lat="50.21459" lon="4.24599">
        <ele>189.926315</ele>
        <time>2023-05-18T09:44:46Z</time>
      </trkpt>
      <trkpt lat="50.21451" lon="4.24604">
        <ele>189.536545</ele>
        <time>2023-05-18T09:44:48Z</time>
      </trkpt>
      <trkpt lat="50.21442" lon="4.24611">
        <ele>189.088181</ele>
        <time>2023-05-18T09:44:50Z</time>
      </trkpt>
      <trkpt lat="50.21433" lon="4.24618">
        <ele>188.623093</ele>
        <time>2023-05-18T09:44:52Z</time>
      </trkpt>
      <trkpt lat="50.21425" lon="4.24623">
        <ele>188.18515</ele>
        <time>2023-05-18T09:44:54Z</time>
      </trkpt>
      <trkpt lat="50.21419" lon="4.24626">
        <ele>187.816071</ele>
        <time>2023-05-18T09:44:56Z</time>
      </trkpt>
      <trkpt lat="50.21411" lon="4.24628">
        <ele>187.427872</ele>
        <time>2023-05-18T09:44:58Z</time>
      </trkpt>
      <trkpt lat="50.21401" lon="4.2462">
        <ele>186.977448</ele>
        <time>2023-05-18T09:45:00Z</time>
      </trkpt>
      <trkpt lat="50.21389" lon="4.24606">
        <ele>186.548157</ele>
        <time>2023-05-18T09:45:02Z</time>
      </trkpt>
      <trkpt lat="50.21374" lon="4.246">
        <ele>186.078964</ele>
        <time>2023-05-18T09:45:04Z</time>
      </trkpt>
      <trkpt lat="50.21359" lon="4.24597">
        <ele>185.714066</ele>
        <time>2023-05-18T09:45:06Z</time>
      </trkpt>
      <trkpt lat="50.21347" lon="4.24593">
        <ele>185.249146</ele>
        <time>2023-05-18T09:45:08Z</time>
      </trkpt>
      <trkpt lat="50.21337" lon="4.24589">
        <ele>184.825897</ele>
        <time>2023-05-18T09:45:10Z</time>
      </trkpt>
      <trkpt lat="50.2133" lon="4.24583">
        <ele>184.413055</ele>
        <time>2023-05-18T09:45:12Z</time>
      </trkpt>
      <trkpt lat="50.21326" lon="4.2458">
        <ele>184.096161</ele>
        <time>2023-05-18T09:45:14Z</time>
      </trkpt>
      <trkpt lat="50.21324" lon="4.24577">
        <ele>183.679199</ele>
        <time>2023-05-18T09:45:16Z</time>
      </trkpt>
      <trkpt lat="50.21324" lon="4.24572">
        <ele>183.543686</ele>
        <time>2023-05-18T09:45:18Z</time>
      </trkpt>
      <trkpt lat="50.21325" lon="4.24566">
        <ele>183.206924</ele>
        <time>2023-05-18T09:45:20Z</time>
      </trkpt>
      <trkpt lat="50.21325" lon="4.2456">
        <ele>182.953751</ele>
        <time>2023-05-18T09:45:22Z</time>
      </trkpt>
      <trkpt lat="50.21324" lon="4.24557">
        <ele>182.643005</ele>
        <time>2023-05-18T09:45:26Z</time>
      </trkpt>
      <trkpt lat="50.21324" lon="4.2455">
        <ele>182.310516</ele>
        <time>2023-05-18T09:45:38Z</time>
      </trkpt>
      <trkpt lat="50.21324" lon="4.24548">
        <ele>182.354309</ele>
        <time>2023-05-18T09:45:40Z</time>
      </trkpt>
      <trkpt lat="50.21323" lon="4.24546">
        <ele>182.495758</ele>
        <time>2023-05-18T09:45:44Z</time>
      </trkpt>
      <trkpt lat="50.21322" lon="4.24543">
        <ele>182.512436</ele>
        <time>2023-05-18T09:45:46Z</time>
      </trkpt>
      <trkpt lat="50.21322" lon="4.24539">
        <ele>182.549957</ele>
        <time>2023-05-18T09:45:48Z</time>
      </trkpt>
      <trkpt lat="50.21322" lon="4.24533">
        <ele>182.574966</ele>
        <time>2023-05-18T09:45:50Z</time>
      </trkpt>
      <trkpt lat="50.21321" lon="4.24526">
        <ele>182.577057</ele>
        <time>2023-05-18T09:45:52Z</time>
      </trkpt>
      <trkpt lat="50.2132" lon="4.24518">
        <ele>182.53537</ele>
        <time>2023-05-18T09:45:54Z</time>
      </trkpt>
      <trkpt lat="50.2132" lon="4.24509">
        <ele>182.487427</ele>
        <time>2023-05-18T09:45:56Z</time>
      </trkpt>
      <trkpt lat="50.21319" lon="4.24501">
        <ele>182.468658</ele>
        <time>2023-05-18T09:45:58Z</time>
      </trkpt>
      <trkpt lat="50.21318" lon="4.24493">
        <ele>182.461456</ele>
        <time>2023-05-18T09:46:00Z</time>
      </trkpt>
      <trkpt lat="50.21317" lon="4.24484">
        <ele>182.349854</ele>
        <time>2023-05-18T09:46:02Z</time>
      </trkpt>
      <trkpt lat="50.21315" lon="4.24473">
        <ele>182.304703</ele>
        <time>2023-05-18T09:46:04Z</time>
      </trkpt>
      <trkpt lat="50.21313" lon="4.24461">
        <ele>182.102005</ele>
        <time>2023-05-18T09:46:06Z</time>
      </trkpt>
      <trkpt lat="50.2131" lon="4.2445">
        <ele>182.017792</ele>
        <time>2023-05-18T09:46:08Z</time>
      </trkpt>
      <trkpt lat="50.21307" lon="4.24438">
        <ele>181.842972</ele>
        <time>2023-05-18T09:46:10Z</time>
      </trkpt>
      <trkpt lat="50.21302" lon="4.24427">
        <ele>181.476227</ele>
        <time>2023-05-18T09:46:12Z</time>
      </trkpt>
      <trkpt lat="50.21299" lon="4.24418">
        <ele>181.212677</ele>
        <time>2023-05-18T09:46:14Z</time>
      </trkpt>
      <trkpt lat="50.21298" lon="4.24413">
        <ele>180.968872</ele>
        <time>2023-05-18T09:46:16Z</time>
      </trkpt>
      <trkpt lat="50.21297" lon="4.24404">
        <ele>180.716751</ele>
        <time>2023-05-18T09:46:18Z</time>
      </trkpt>
      <trkpt lat="50.21296" lon="4.24388">
        <ele>180.24585</ele>
        <time>2023-05-18T09:46:20Z</time>
      </trkpt>
      <trkpt lat="50.21297" lon="4.24371">
        <ele>179.810333</ele>
        <time>2023-05-18T09:46:22Z</time>
      </trkpt>
      <trkpt lat="50.21296" lon="4.24359">
        <ele>179.48732</ele>
        <time>2023-05-18T09:46:24Z</time>
      </trkpt>
      <trkpt lat="50.21296" lon="4.24348">
        <ele>179.11853</ele>
        <time>2023-05-18T09:46:26Z</time>
      </trkpt>
      <trkpt lat="50.21296" lon="4.24337">
        <ele>178.783325</ele>
        <time>2023-05-18T09:46:28Z</time>
      </trkpt>
      <trkpt lat="50.21296" lon="4.24326">
        <ele>178.45256</ele>
        <time>2023-05-18T09:46:30Z</time>
      </trkpt>
      <trkpt lat="50.21299" lon="4.24319">
        <ele>178.165024</ele>
        <time>2023-05-18T09:46:32Z</time>
      </trkpt>
      <trkpt lat="50.21301" lon="4.2431">
        <ele>177.925415</ele>
        <time>2023-05-18T09:46:34Z</time>
      </trkpt>
      <trkpt lat="50.21302" lon="4.24299">
        <ele>177.686325</ele>
        <time>2023-05-18T09:46:36Z</time>
      </trkpt>
      <trkpt lat="50.21306" lon="4.24288">
        <ele>177.410828</ele>
        <time>2023-05-18T09:46:38Z</time>
      </trkpt>
      <trkpt lat="50.2131" lon="4.24281">
        <ele>177.145248</ele>
        <time>2023-05-18T09:46:40Z</time>
      </trkpt>
      <trkpt lat="50.21314" lon="4.24276">
        <ele>176.984818</ele>
        <time>2023-05-18T09:46:42Z</time>
      </trkpt>
      <trkpt lat="50.21318" lon="4.24273">
        <ele>176.862183</ele>
        <time>2023-05-18T09:46:44Z</time>
      </trkpt>
      <trkpt lat="50.2132" lon="4.24269">
        <ele>176.855927</ele>
        <time>2023-05-18T09:46:46Z</time>
      </trkpt>
      <trkpt lat="50.21319" lon="4.24265">
        <ele>176.697906</ele>
        <time>2023-05-18T09:46:50Z</time>
      </trkpt>
      <trkpt lat="50.21318" lon="4.24263">
        <ele>176.68663</ele>
        <time>2023-05-18T09:46:52Z</time>
      </trkpt>
      <trkpt lat="50.21315" lon="4.2426">
        <ele>176.692886</ele>
        <time>2023-05-18T09:46:54Z</time>
      </trkpt>
      <trkpt lat="50.21312" lon="4.24258">
        <ele>176.709808</ele>
        <time>2023-05-18T09:46:56Z</time>
      </trkpt>
      <trkpt lat="50.21309" lon="4.24256">
        <ele>176.655624</ele>
        <time>2023-05-18T09:46:58Z</time>
      </trkpt>
      <trkpt lat="50.21306" lon="4.24255">
        <ele>176.649368</ele>
        <time>2023-05-18T09:47:00Z</time>
      </trkpt>
      <trkpt lat="50.21303" lon="4.24254">
        <ele>176.724274</ele>
        <time>2023-05-18T09:47:02Z</time>
      </trkpt>
      <trkpt lat="50.21301" lon="4.24252">
        <ele>176.7117</ele>
        <time>2023-05-18T09:47:04Z</time>
      </trkpt>
      <trkpt lat="50.21298" lon="4.24249">
        <ele>176.5159</ele>
        <time>2023-05-18T09:47:06Z</time>
      </trkpt>
      <trkpt lat="50.21295" lon="4.24247">
        <ele>176.467743</ele>
        <time>2023-05-18T09:47:08Z</time>
      </trkpt>
      <trkpt lat="50.21293" lon="4.24245">
        <ele>176.350601</ele>
        <time>2023-05-18T09:47:10Z</time>
      </trkpt>
      <trkpt lat="50.2129" lon="4.24243">
        <ele>176.302704</ele>
        <time>2023-05-18T09:47:12Z</time>
      </trkpt>
      <trkpt lat="50.21288" lon="4.24239">
        <ele>176.113174</ele>
        <time>2023-05-18T09:47:14Z</time>
      </trkpt>
      <trkpt lat="50.21285" lon="4.24237">
        <ele>175.980103</ele>
        <time>2023-05-18T09:47:16Z</time>
      </trkpt>
      <trkpt lat="50.21283" lon="4.24234">
        <ele>175.380341</ele>
        <time>2023-05-18T09:47:18Z</time>
      </trkpt>
      <trkpt lat="50.2128" lon="4.24232">
        <ele>174.764877</ele>
        <time>2023-05-18T09:47:20Z</time>
      </trkpt>
      <trkpt lat="50.21278" lon="4.2423">
        <ele>174.697189</ele>
        <time>2023-05-18T09:47:22Z</time>
      </trkpt>
      <trkpt lat="50.21275" lon="4.24227">
        <ele>174.453522</ele>
        <time>2023-05-18T09:47:24Z</time>
      </trkpt>
      <trkpt lat="50.21273" lon="4.24226">
        <ele>174.31366</ele>
        <time>2023-05-18T09:47:26Z</time>
      </trkpt>
      <trkpt lat="50.21272" lon="4.24225">
        <ele>174.196472</ele>
        <time>2023-05-18T09:47:28Z</time>
      </trkpt>
      <trkpt lat="50.21272" lon="4.24222">
        <ele>174.526016</ele>
        <time>2023-05-18T09:47:30Z</time>
      </trkpt>
      <trkpt lat="50.21271" lon="4.24218">
        <ele>174.430801</ele>
        <time>2023-05-18T09:47:32Z</time>
      </trkpt>
      <trkpt lat="50.21271" lon="4.24214">
        <ele>174.372467</ele>
        <time>2023-05-18T09:47:34Z</time>
      </trkpt>
      <trkpt lat="50.2127" lon="4.2421">
        <ele>174.394012</ele>
        <time>2023-05-18T09:47:36Z</time>
      </trkpt>
      <trkpt lat="50.21271" lon="4.24206">
        <ele>174.350266</ele>
        <time>2023-05-18T09:47:38Z</time>
      </trkpt>
      <trkpt lat="50.21272" lon="4.24202">
        <ele>174.427338</ele>
        <time>2023-05-18T09:47:40Z</time>
      </trkpt>
      <trkpt lat="50.21271" lon="4.24197">
        <ele>174.49617</ele>
        <time>2023-05-18T09:47:42Z</time>
      </trkpt>
      <trkpt lat="50.21269" lon="4.24192">
        <ele>174.51915</ele>
        <time>2023-05-18T09:47:44Z</time>
      </trkpt>
      <trkpt lat="50.21264" lon="4.2419">
        <ele>174.752457</ele>
        <time>2023-05-18T09:47:46Z</time>
      </trkpt>
      <trkpt lat="50.21259" lon="4.2419">
        <ele>174.878525</ele>
        <time>2023-05-18T09:47:48Z</time>
      </trkpt>
      <trkpt lat="50.21255" lon="4.2419">
        <ele>175.061829</ele>
        <time>2023-05-18T09:47:50Z</time>
      </trkpt>
      <trkpt lat="50.21251" lon="4.24192">
        <ele>175.277115</ele>
        <time>2023-05-18T09:47:52Z</time>
      </trkpt>
      <trkpt lat="50.21247" lon="4.24195">
        <ele>175.535385</ele>
        <time>2023-05-18T09:47:54Z</time>
      </trkpt>
      <trkpt lat="50.21241" lon="4.24195">
        <ele>175.783051</ele>
        <time>2023-05-18T09:47:56Z</time>
      </trkpt>
      <trkpt lat="50.21233" lon="4.24194">
        <ele>176.584381</ele>
        <time>2023-05-18T09:47:58Z</time>
      </trkpt>
      <trkpt lat="50.21226" lon="4.24192">
        <ele>177.356552</ele>
        <time>2023-05-18T09:48:00Z</time>
      </trkpt>
      <trkpt lat="50.21222" lon="4.24191">
        <ele>178.420929</ele>
        <time>2023-05-18T09:48:08Z</time>
      </trkpt>
      <trkpt lat="50.21221" lon="4.2419">
        <ele>178.178925</ele>
        <time>2023-05-18T09:48:10Z</time>
      </trkpt>
      <trkpt lat="50.21219" lon="4.2419">
        <ele>178.233063</ele>
        <time>2023-05-18T09:48:12Z</time>
      </trkpt>
      <trkpt lat="50.21217" lon="4.2419">
        <ele>178.358063</ele>
        <time>2023-05-18T09:48:14Z</time>
      </trkpt>
      <trkpt lat="50.21215" lon="4.24191">
        <ele>178.403915</ele>
        <time>2023-05-18T09:48:16Z</time>
      </trkpt>
      <trkpt lat="50.21211" lon="4.24191">
        <ele>178.499741</ele>
        <time>2023-05-18T09:48:18Z</time>
      </trkpt>
      <trkpt lat="50.21207" lon="4.24193">
        <ele>178.639374</ele>
        <time>2023-05-18T09:48:20Z</time>
      </trkpt>
      <trkpt lat="50.21201" lon="4.24194">
        <ele>178.828995</ele>
        <time>2023-05-18T09:48:22Z</time>
      </trkpt>
      <trkpt lat="50.21196" lon="4.24197">
        <ele>178.914597</ele>
        <time>2023-05-18T09:48:24Z</time>
      </trkpt>
      <trkpt lat="50.21191" lon="4.242">
        <ele>179.056305</ele>
        <time>2023-05-18T09:48:26Z</time>
      </trkpt>
      <trkpt lat="50.21184" lon="4.24205">
        <ele>179.250046</ele>
        <time>2023-05-18T09:48:28Z</time>
      </trkpt>
      <trkpt lat="50.21176" lon="4.24207">
        <ele>179.430237</ele>
        <time>2023-05-18T09:48:30Z</time>
      </trkpt>
      <trkpt lat="50.21168" lon="4.2421">
        <ele>179.624023</ele>
        <time>2023-05-18T09:48:32Z</time>
      </trkpt>
      <trkpt lat="50.21159" lon="4.24213">
        <ele>179.842392</ele>
        <time>2023-05-18T09:48:34Z</time>
      </trkpt>
      <trkpt lat="50.21152" lon="4.24216">
        <ele>179.973679</ele>
        <time>2023-05-18T09:48:36Z</time>
      </trkpt>
      <trkpt lat="50.21146" lon="4.24218">
        <ele>180.094528</ele>
        <time>2023-05-18T09:48:38Z</time>
      </trkpt>
      <trkpt lat="50.21138" lon="4.24224">
        <ele>180.205597</ele>
        <time>2023-05-18T09:48:40Z</time>
      </trkpt>
      <trkpt lat="50.21132" lon="4.24229">
        <ele>180.428574</ele>
        <time>2023-05-18T09:48:42Z</time>
      </trkpt>
      <trkpt lat="50.21123" lon="4.24237">
        <ele>180.536942</ele>
        <time>2023-05-18T09:48:44Z</time>
      </trkpt>
      <trkpt lat="50.21116" lon="4.24245">
        <ele>180.668213</ele>
        <time>2023-05-18T09:48:46Z</time>
      </trkpt>
      <trkpt lat="50.2111" lon="4.24252">
        <ele>180.686981</ele>
        <time>2023-05-18T09:48:48Z</time>
      </trkpt>
      <trkpt lat="50.21102" lon="4.24255">
        <ele>180.705734</ele>
        <time>2023-05-18T09:48:50Z</time>
      </trkpt>
      <trkpt lat="50.21093" lon="4.24256">
        <ele>180.837021</ele>
        <time>2023-05-18T09:48:52Z</time>
      </trkpt>
      <trkpt lat="50.21082" lon="4.24257">
        <ele>180.993317</ele>
        <time>2023-05-18T09:48:54Z</time>
      </trkpt>
      <trkpt lat="50.21075" lon="4.24257">
        <ele>181.168365</ele>
        <time>2023-05-18T09:48:56Z</time>
      </trkpt>
      <trkpt lat="50.21073" lon="4.24259">
        <ele>181.299103</ele>
        <time>2023-05-18T09:48:58Z</time>
      </trkpt>
      <trkpt lat="50.21071" lon="4.24262">
        <ele>181.475006</ele>
        <time>2023-05-18T09:49:02Z</time>
      </trkpt>
      <trkpt lat="50.2107" lon="4.24264">
        <ele>181.656113</ele>
        <time>2023-05-18T09:49:04Z</time>
      </trkpt>
      <trkpt lat="50.21067" lon="4.2427">
        <ele>182.081314</ele>
        <time>2023-05-18T09:49:12Z</time>
      </trkpt>
      <trkpt lat="50.21065" lon="4.24273">
        <ele>182.383224</ele>
        <time>2023-05-18T09:49:16Z</time>
      </trkpt>
      <trkpt lat="50.21061" lon="4.24277">
        <ele>182.726532</ele>
        <time>2023-05-18T09:49:22Z</time>
      </trkpt>
      <trkpt lat="50.21057" lon="4.2428">
        <ele>182.795319</ele>
        <time>2023-05-18T09:49:24Z</time>
      </trkpt>
      <trkpt lat="50.21047" lon="4.24287">
        <ele>182.954865</ele>
        <time>2023-05-18T09:49:26Z</time>
      </trkpt>
      <trkpt lat="50.21043" lon="4.24288">
        <ele>183.123688</ele>
        <time>2023-05-18T09:49:28Z</time>
      </trkpt>
      <trkpt lat="50.21038" lon="4.24291">
        <ele>183.275848</ele>
        <time>2023-05-18T09:49:30Z</time>
      </trkpt>
      <trkpt lat="50.21032" lon="4.24293">
        <ele>183.423828</ele>
        <time>2023-05-18T09:49:32Z</time>
      </trkpt>
      <trkpt lat="50.21026" lon="4.24295">
        <ele>183.524887</ele>
        <time>2023-05-18T09:49:34Z</time>
      </trkpt>
      <trkpt lat="50.21019" lon="4.24297">
        <ele>183.63327</ele>
        <time>2023-05-18T09:49:36Z</time>
      </trkpt>
      <trkpt lat="50.21014" lon="4.24297">
        <ele>183.75679</ele>
        <time>2023-05-18T09:49:38Z</time>
      </trkpt>
      <trkpt lat="50.21008" lon="4.24302">
        <ele>183.920624</ele>
        <time>2023-05-18T09:49:40Z</time>
      </trkpt>
      <trkpt lat="50.21003" lon="4.24304">
        <ele>184.139526</ele>
        <time>2023-05-18T09:49:42Z</time>
      </trkpt>
      <trkpt lat="50.20997" lon="4.24305">
        <ele>184.253342</ele>
        <time>2023-05-18T09:49:44Z</time>
      </trkpt>
      <trkpt lat="50.2099" lon="4.24308">
        <ele>184.422211</ele>
        <time>2023-05-18T09:49:46Z</time>
      </trkpt>
      <trkpt lat="50.20983" lon="4.24313">
        <ele>184.509766</ele>
        <time>2023-05-18T09:49:48Z</time>
      </trkpt>
      <trkpt lat="50.20975" lon="4.24317">
        <ele>184.599411</ele>
        <time>2023-05-18T09:49:50Z</time>
      </trkpt>
      <trkpt lat="50.20966" lon="4.24321">
        <ele>184.588989</ele>
        <time>2023-05-18T09:49:52Z</time>
      </trkpt>
      <trkpt lat="50.20958" lon="4.24329">
        <ele>184.618179</ele>
        <time>2023-05-18T09:49:54Z</time>
      </trkpt>
      <trkpt lat="50.2095" lon="4.24335">
        <ele>184.568146</ele>
        <time>2023-05-18T09:49:56Z</time>
      </trkpt>
      <trkpt lat="50.20944" lon="4.24342">
        <ele>184.468094</ele>
        <time>2023-05-18T09:49:58Z</time>
      </trkpt>
      <trkpt lat="50.20939" lon="4.24348">
        <ele>184.272186</ele>
        <time>2023-05-18T09:50:00Z</time>
      </trkpt>
      <trkpt lat="50.20935" lon="4.24354">
        <ele>184.318069</ele>
        <time>2023-05-18T09:50:02Z</time>
      </trkpt>
      <trkpt lat="50.2093" lon="4.24362">
        <ele>184.313889</ele>
        <time>2023-05-18T09:50:04Z</time>
      </trkpt>
      <trkpt lat="50.20926" lon="4.24371">
        <ele>184.303467</ele>
        <time>2023-05-18T09:50:06Z</time>
      </trkpt>
      <trkpt lat="50.20924" lon="4.24378">
        <ele>184.254181</ele>
        <time>2023-05-18T09:50:08Z</time>
      </trkpt>
      <trkpt lat="50.20922" lon="4.24387">
        <ele>184.260422</ele>
        <time>2023-05-18T09:50:10Z</time>
      </trkpt>
      <trkpt lat="50.20919" lon="4.24398">
        <ele>184.202057</ele>
        <time>2023-05-18T09:50:12Z</time>
      </trkpt>
      <trkpt lat="50.20919" lon="4.24409">
        <ele>184.274017</ele>
        <time>2023-05-18T09:50:14Z</time>
      </trkpt>
      <trkpt lat="50.20918" lon="4.2442">
        <ele>184.369919</ele>
        <time>2023-05-18T09:50:16Z</time>
      </trkpt>
      <trkpt lat="50.20914" lon="4.24434">
        <ele>184.344925</ele>
        <time>2023-05-18T09:50:18Z</time>
      </trkpt>
      <trkpt lat="50.2091" lon="4.24454">
        <ele>184.455444</ele>
        <time>2023-05-18T09:50:20Z</time>
      </trkpt>
      <trkpt lat="50.20905" lon="4.24475">
        <ele>184.497147</ele>
        <time>2023-05-18T09:50:22Z</time>
      </trkpt>
      <trkpt lat="50.20902" lon="4.24494">
        <ele>184.484634</ele>
        <time>2023-05-18T09:50:24Z</time>
      </trkpt>
      <trkpt lat="50.20897" lon="4.24508">
        <ele>184.472946</ele>
        <time>2023-05-18T09:50:26Z</time>
      </trkpt>
      <trkpt lat="50.20883" lon="4.2452">
        <ele>184.500061</ele>
        <time>2023-05-18T09:50:28Z</time>
      </trkpt>
      <trkpt lat="50.20868" lon="4.24536">
        <ele>184.537598</ele>
        <time>2023-05-18T09:50:30Z</time>
      </trkpt>
      <trkpt lat="50.20854" lon="4.24552">
        <ele>184.60849</ele>
        <time>2023-05-18T09:50:32Z</time>
      </trkpt>
      <trkpt lat="50.20843" lon="4.24562">
        <ele>184.72525</ele>
        <time>2023-05-18T09:50:34Z</time>
      </trkpt>
      <trkpt lat="50.20832" lon="4.24572">
        <ele>184.831573</ele>
        <time>2023-05-18T09:50:36Z</time>
      </trkpt>
      <trkpt lat="50.20821" lon="4.2458">
        <ele>185.067047</ele>
        <time>2023-05-18T09:50:38Z</time>
      </trkpt>
      <trkpt lat="50.20809" lon="4.24589">
        <ele>185.427689</ele>
        <time>2023-05-18T09:50:40Z</time>
      </trkpt>
      <trkpt lat="50.20797" lon="4.24599">
        <ele>185.421417</ele>
        <time>2023-05-18T09:50:42Z</time>
      </trkpt>
      <trkpt lat="50.20785" lon="4.24608">
        <ele>185.617401</ele>
        <time>2023-05-18T09:50:44Z</time>
      </trkpt>
      <trkpt lat="50.20774" lon="4.24615">
        <ele>185.721634</ele>
        <time>2023-05-18T09:50:46Z</time>
      </trkpt>
      <trkpt lat="50.20765" lon="4.24618">
        <ele>185.812225</ele>
        <time>2023-05-18T09:50:48Z</time>
      </trkpt>
      <trkpt lat="50.20753" lon="4.24627">
        <ele>185.999863</ele>
        <time>2023-05-18T09:50:50Z</time>
      </trkpt>
      <trkpt lat="50.20742" lon="4.24633">
        <ele>186.118698</ele>
        <time>2023-05-18T09:50:52Z</time>
      </trkpt>
      <trkpt lat="50.2073" lon="4.24641">
        <ele>186.149521</ele>
        <time>2023-05-18T09:50:54Z</time>
      </trkpt>
      <trkpt lat="50.2072" lon="4.24646">
        <ele>186.310074</ele>
        <time>2023-05-18T09:50:56Z</time>
      </trkpt>
      <trkpt lat="50.2071" lon="4.24655">
        <ele>186.322556</ele>
        <time>2023-05-18T09:50:58Z</time>
      </trkpt>
      <trkpt lat="50.207" lon="4.24661">
        <ele>186.343384</ele>
        <time>2023-05-18T09:51:00Z</time>
      </trkpt>
      <trkpt lat="50.2069" lon="4.24666">
        <ele>186.474747</ele>
        <time>2023-05-18T09:51:02Z</time>
      </trkpt>
      <trkpt lat="50.2068" lon="4.24671">
        <ele>186.589432</ele>
        <time>2023-05-18T09:51:04Z</time>
      </trkpt>
      <trkpt lat="50.2067" lon="4.24676">
        <ele>186.614456</ele>
        <time>2023-05-18T09:51:06Z</time>
      </trkpt>
      <trkpt lat="50.2066" lon="4.24684">
        <ele>186.645721</ele>
        <time>2023-05-18T09:51:08Z</time>
      </trkpt>
      <trkpt lat="50.20652" lon="4.24688">
        <ele>186.739563</ele>
        <time>2023-05-18T09:51:10Z</time>
      </trkpt>
      <trkpt lat="50.20643" lon="4.24691">
        <ele>186.912628</ele>
        <time>2023-05-18T09:51:12Z</time>
      </trkpt>
      <trkpt lat="50.20635" lon="4.24695">
        <ele>186.964935</ele>
        <time>2023-05-18T09:51:14Z</time>
      </trkpt>
      <trkpt lat="50.20625" lon="4.247">
        <ele>187.219086</ele>
        <time>2023-05-18T09:51:16Z</time>
      </trkpt>
      <trkpt lat="50.20616" lon="4.24704">
        <ele>187.287994</ele>
        <time>2023-05-18T09:51:18Z</time>
      </trkpt>
      <trkpt lat="50.20609" lon="4.24708">
        <ele>187.471527</ele>
        <time>2023-05-18T09:51:20Z</time>
      </trkpt>
      <trkpt lat="50.20602" lon="4.24709">
        <ele>187.615433</ele>
        <time>2023-05-18T09:51:22Z</time>
      </trkpt>
      <trkpt lat="50.20596" lon="4.24707">
        <ele>187.82608</ele>
        <time>2023-05-18T09:51:24Z</time>
      </trkpt>
      <trkpt lat="50.2059" lon="4.24704">
        <ele>188.155594</ele>
        <time>2023-05-18T09:51:26Z</time>
      </trkpt>
      <trkpt lat="50.20583" lon="4.24699">
        <ele>188.482758</ele>
        <time>2023-05-18T09:51:28Z</time>
      </trkpt>
      <trkpt lat="50.20578" lon="4.24695">
        <ele>188.751175</ele>
        <time>2023-05-18T09:51:30Z</time>
      </trkpt>
      <trkpt lat="50.20573" lon="4.24687">
        <ele>188.970139</ele>
        <time>2023-05-18T09:51:32Z</time>
      </trkpt>
      <trkpt lat="50.20568" lon="4.2468">
        <ele>189.31218</ele>
        <time>2023-05-18T09:51:34Z</time>
      </trkpt>
      <trkpt lat="50.20563" lon="4.24671">
        <ele>189.600464</ele>
        <time>2023-05-18T09:51:36Z</time>
      </trkpt>
      <trkpt lat="50.2056" lon="4.24659">
        <ele>189.894592</ele>
        <time>2023-05-18T09:51:38Z</time>
      </trkpt>
      <trkpt lat="50.20556" lon="4.24647">
        <ele>190.194946</ele>
        <time>2023-05-18T09:51:40Z</time>
      </trkpt>
      <trkpt lat="50.20554" lon="4.24637">
        <ele>190.480698</ele>
        <time>2023-05-18T09:51:42Z</time>
      </trkpt>
      <trkpt lat="50.20551" lon="4.24628">
        <ele>190.747696</ele>
        <time>2023-05-18T09:51:44Z</time>
      </trkpt>
      <trkpt lat="50.20547" lon="4.24615">
        <ele>191.012024</ele>
        <time>2023-05-18T09:51:46Z</time>
      </trkpt>
      <trkpt lat="50.20542" lon="4.24604">
        <ele>191.40625</ele>
        <time>2023-05-18T09:51:48Z</time>
      </trkpt>
      <trkpt lat="50.20537" lon="4.24592">
        <ele>191.706619</ele>
        <time>2023-05-18T09:51:50Z</time>
      </trkpt>
      <trkpt lat="50.20532" lon="4.24582">
        <ele>191.974396</ele>
        <time>2023-05-18T09:51:52Z</time>
      </trkpt>
      <trkpt lat="50.20527" lon="4.24567">
        <ele>192.203873</ele>
        <time>2023-05-18T09:51:54Z</time>
      </trkpt>
      <trkpt lat="50.20525" lon="4.2455">
        <ele>192.410217</ele>
        <time>2023-05-18T09:51:56Z</time>
      </trkpt>
      <trkpt lat="50.2052" lon="4.24536">
        <ele>193.153763</ele>
        <time>2023-05-18T09:51:58Z</time>
      </trkpt>
      <trkpt lat="50.20517" lon="4.24525">
        <ele>193.396439</ele>
        <time>2023-05-18T09:52:00Z</time>
      </trkpt>
      <trkpt lat="50.20509" lon="4.24514">
        <ele>193.540375</ele>
        <time>2023-05-18T09:52:02Z</time>
      </trkpt>
      <trkpt lat="50.205" lon="4.24506">
        <ele>193.563324</ele>
        <time>2023-05-18T09:52:04Z</time>
      </trkpt>
      <trkpt lat="50.2049" lon="4.24502">
        <ele>193.696854</ele>
        <time>2023-05-18T09:52:06Z</time>
      </trkpt>
      <trkpt lat="50.20484" lon="4.24502">
        <ele>193.794449</ele>
        <time>2023-05-18T09:52:08Z</time>
      </trkpt>
      <trkpt lat="50.20478" lon="4.24504">
        <ele>193.954742</ele>
        <time>2023-05-18T09:52:10Z</time>
      </trkpt>
      <trkpt lat="50.20471" lon="4.24509">
        <ele>194.011078</ele>
        <time>2023-05-18T09:52:12Z</time>
      </trkpt>
      <trkpt lat="50.20464" lon="4.24519">
        <ele>193.931808</ele>
        <time>2023-05-18T09:52:14Z</time>
      </trkpt>
      <trkpt lat="50.20456" lon="4.24531">
        <ele>193.94223</ele>
        <time>2023-05-18T09:52:16Z</time>
      </trkpt>
      <trkpt lat="50.20448" lon="4.24543">
        <ele>193.906769</ele>
        <time>2023-05-18T09:52:18Z</time>
      </trkpt>
      <trkpt lat="50.20438" lon="4.24552">
        <ele>193.639771</ele>
        <time>2023-05-18T09:52:20Z</time>
      </trkpt>
      <trkpt lat="50.20429" lon="4.24556">
        <ele>193.483322</ele>
        <time>2023-05-18T09:52:22Z</time>
      </trkpt>
      <trkpt lat="50.20422" lon="4.24557">
        <ele>193.362701</ele>
        <time>2023-05-18T09:52:24Z</time>
      </trkpt>
      <trkpt lat="50.20417" lon="4.24561">
        <ele>193.115097</ele>
        <time>2023-05-18T09:52:26Z</time>
      </trkpt>
      <trkpt lat="50.20415" lon="4.24564">
        <ele>192.853088</ele>
        <time>2023-05-18T09:52:28Z</time>
      </trkpt>
      <trkpt lat="50.20414" lon="4.24565">
        <ele>192.598618</ele>
        <time>2023-05-18T09:52:30Z</time>
      </trkpt>
      <trkpt lat="50.20412" lon="4.24567">
        <ele>192.274506</ele>
        <time>2023-05-18T09:52:32Z</time>
      </trkpt>
      <trkpt lat="50.20409" lon="4.24566">
        <ele>192.030457</ele>
        <time>2023-05-18T09:52:34Z</time>
      </trkpt>
      <trkpt lat="50.20408" lon="4.24565">
        <ele>191.723831</ele>
        <time>2023-05-18T09:52:36Z</time>
      </trkpt>
      <trkpt lat="50.20404" lon="4.24564">
        <ele>190.849121</ele>
        <time>2023-05-18T09:52:38Z</time>
      </trkpt>
      <trkpt lat="50.20402" lon="4.24563">
        <ele>190.581299</ele>
        <time>2023-05-18T09:52:40Z</time>
      </trkpt>
      <trkpt lat="50.20398" lon="4.24563">
        <ele>190.261459</ele>
        <time>2023-05-18T09:52:42Z</time>
      </trkpt>
      <trkpt lat="50.20395" lon="4.24565">
        <ele>189.906891</ele>
        <time>2023-05-18T09:52:44Z</time>
      </trkpt>
      <trkpt lat="50.20393" lon="4.24569">
        <ele>189.529404</ele>
        <time>2023-05-18T09:52:46Z</time>
      </trkpt>
      <trkpt lat="50.2039" lon="4.24575">
        <ele>189.068512</ele>
        <time>2023-05-18T09:52:48Z</time>
      </trkpt>
      <trkpt lat="50.20386" lon="4.24581">
        <ele>188.649261</ele>
        <time>2023-05-18T09:52:50Z</time>
      </trkpt>
      <trkpt lat="50.20382" lon="4.24585">
        <ele>188.180923</ele>
        <time>2023-05-18T09:52:52Z</time>
      </trkpt>
      <trkpt lat="50.20378" lon="4.24591">
        <ele>187.863892</ele>
        <time>2023-05-18T09:52:54Z</time>
      </trkpt>
      <trkpt lat="50.20375" lon="4.24598">
        <ele>187.526016</ele>
        <time>2023-05-18T09:52:56Z</time>
      </trkpt>
      <trkpt lat="50.2037" lon="4.24605">
        <ele>187.233078</ele>
        <time>2023-05-18T09:52:58Z</time>
      </trkpt>
      <trkpt lat="50.20366" lon="4.24614">
        <ele>187.065231</ele>
        <time>2023-05-18T09:53:00Z</time>
      </trkpt>
      <trkpt lat="50.20363" lon="4.24623">
        <ele>186.979462</ele>
        <time>2023-05-18T09:53:02Z</time>
      </trkpt>
      <trkpt lat="50.20358" lon="4.24631">
        <ele>186.881378</ele>
        <time>2023-05-18T09:53:04Z</time>
      </trkpt>
      <trkpt lat="50.20353" lon="4.2464">
        <ele>186.691208</ele>
        <time>2023-05-18T09:53:06Z</time>
      </trkpt>
      <trkpt lat="50.20347" lon="4.24651">
        <ele>186.662018</ele>
        <time>2023-05-18T09:53:08Z</time>
      </trkpt>
      <trkpt lat="50.20338" lon="4.24662">
        <ele>186.550629</ele>
        <time>2023-05-18T09:53:10Z</time>
      </trkpt>
      <trkpt lat="50.20331" lon="4.24672">
        <ele>186.450531</ele>
        <time>2023-05-18T09:53:12Z</time>
      </trkpt>
      <trkpt lat="50.20323" lon="4.24682">
        <ele>186.381714</ele>
        <time>2023-05-18T09:53:14Z</time>
      </trkpt>
      <trkpt lat="50.20314" lon="4.2469">
        <ele>186.216995</ele>
        <time>2023-05-18T09:53:16Z</time>
      </trkpt>
      <trkpt lat="50.20305" lon="4.24695">
        <ele>186.0961</ele>
        <time>2023-05-18T09:53:18Z</time>
      </trkpt>
      <trkpt lat="50.20296" lon="4.24699">
        <ele>185.940552</ele>
        <time>2023-05-18T09:53:20Z</time>
      </trkpt>
      <trkpt lat="50.20287" lon="4.24702">
        <ele>185.75293</ele>
        <time>2023-05-18T09:53:22Z</time>
      </trkpt>
      <trkpt lat="50.20278" lon="4.24704">
        <ele>185.609467</ele>
        <time>2023-05-18T09:53:24Z</time>
      </trkpt>
      <trkpt lat="50.20271" lon="4.24706">
        <ele>185.48233</ele>
        <time>2023-05-18T09:53:26Z</time>
      </trkpt>
      <trkpt lat="50.20264" lon="4.24715">
        <ele>185.412689</ele>
        <time>2023-05-18T09:53:28Z</time>
      </trkpt>
      <trkpt lat="50.20258" lon="4.24727">
        <ele>185.261871</ele>
        <time>2023-05-18T09:53:30Z</time>
      </trkpt>
      <trkpt lat="50.20254" lon="4.24737">
        <ele>185.099243</ele>
        <time>2023-05-18T09:53:32Z</time>
      </trkpt>
      <trkpt lat="50.20245" lon="4.24749">
        <ele>184.828293</ele>
        <time>2023-05-18T09:53:34Z</time>
      </trkpt>
      <trkpt lat="50.20237" lon="4.2476">
        <ele>184.559402</ele>
        <time>2023-05-18T09:53:36Z</time>
      </trkpt>
      <trkpt lat="50.20229" lon="4.2477">
        <ele>184.339386</ele>
        <time>2023-05-18T09:53:38Z</time>
      </trkpt>
      <trkpt lat="50.20223" lon="4.24781">
        <ele>184.129837</ele>
        <time>2023-05-18T09:53:40Z</time>
      </trkpt>
      <trkpt lat="50.20217" lon="4.24791">
        <ele>183.72995</ele>
        <time>2023-05-18T09:53:42Z</time>
      </trkpt>
      <trkpt lat="50.20212" lon="4.248">
        <ele>183.359009</ele>
        <time>2023-05-18T09:53:44Z</time>
      </trkpt>
      <trkpt lat="50.20207" lon="4.2481">
        <ele>183.006744</ele>
        <time>2023-05-18T09:53:46Z</time>
      </trkpt>
      <trkpt lat="50.20203" lon="4.24818">
        <ele>182.600266</ele>
        <time>2023-05-18T09:53:48Z</time>
      </trkpt>
      <trkpt lat="50.20199" lon="4.24826">
        <ele>182.206329</ele>
        <time>2023-05-18T09:53:50Z</time>
      </trkpt>
      <trkpt lat="50.20196" lon="4.24833">
        <ele>182.018768</ele>
        <time>2023-05-18T09:53:52Z</time>
      </trkpt>
      <trkpt lat="50.20194" lon="4.24841">
        <ele>181.639389</ele>
        <time>2023-05-18T09:53:54Z</time>
      </trkpt>
      <trkpt lat="50.20191" lon="4.2485">
        <ele>181.274643</ele>
        <time>2023-05-18T09:53:56Z</time>
      </trkpt>
      <trkpt lat="50.20189" lon="4.24858">
        <ele>180.974503</ele>
        <time>2023-05-18T09:53:58Z</time>
      </trkpt>
      <trkpt lat="50.20187" lon="4.24864">
        <ele>180.83696</ele>
        <time>2023-05-18T09:54:00Z</time>
      </trkpt>
      <trkpt lat="50.20186" lon="4.24871">
        <ele>180.68898</ele>
        <time>2023-05-18T09:54:02Z</time>
      </trkpt>
      <trkpt lat="50.20184" lon="4.24879">
        <ele>180.563492</ele>
        <time>2023-05-18T09:54:04Z</time>
      </trkpt>
      <trkpt lat="50.20184" lon="4.24886">
        <ele>180.499786</ele>
        <time>2023-05-18T09:54:06Z</time>
      </trkpt>
      <trkpt lat="50.20186" lon="4.24895">
        <ele>180.461029</ele>
        <time>2023-05-18T09:54:08Z</time>
      </trkpt>
      <trkpt lat="50.2019" lon="4.24904">
        <ele>180.430527</ele>
        <time>2023-05-18T09:54:10Z</time>
      </trkpt>
      <trkpt lat="50.20195" lon="4.24915">
        <ele>180.549301</ele>
        <time>2023-05-18T09:54:12Z</time>
      </trkpt>
      <trkpt lat="50.20199" lon="4.24926">
        <ele>180.718155</ele>
        <time>2023-05-18T09:54:14Z</time>
      </trkpt>
      <trkpt lat="50.20203" lon="4.24939">
        <ele>180.9245</ele>
        <time>2023-05-18T09:54:16Z</time>
      </trkpt>
      <trkpt lat="50.20207" lon="4.24951">
        <ele>181.160049</ele>
        <time>2023-05-18T09:54:18Z</time>
      </trkpt>
      <trkpt lat="50.20211" lon="4.24965">
        <ele>181.408112</ele>
        <time>2023-05-18T09:54:20Z</time>
      </trkpt>
      <trkpt lat="50.20215" lon="4.2498">
        <ele>181.649841</ele>
        <time>2023-05-18T09:54:22Z</time>
      </trkpt>
      <trkpt lat="50.20219" lon="4.24995">
        <ele>182.056305</ele>
        <time>2023-05-18T09:54:24Z</time>
      </trkpt>
      <trkpt lat="50.20222" lon="4.25006">
        <ele>182.391876</ele>
        <time>2023-05-18T09:54:26Z</time>
      </trkpt>
      <trkpt lat="50.20225" lon="4.25018">
        <ele>182.573227</ele>
        <time>2023-05-18T09:54:28Z</time>
      </trkpt>
      <trkpt lat="50.20231" lon="4.25035">
        <ele>182.931732</ele>
        <time>2023-05-18T09:54:30Z</time>
      </trkpt>
      <trkpt lat="50.20235" lon="4.25048">
        <ele>183.41716</ele>
        <time>2023-05-18T09:54:32Z</time>
      </trkpt>
      <trkpt lat="50.20239" lon="4.2506">
        <ele>183.821533</ele>
        <time>2023-05-18T09:54:34Z</time>
      </trkpt>
      <trkpt lat="50.20242" lon="4.25073">
        <ele>184.344742</ele>
        <time>2023-05-18T09:54:36Z</time>
      </trkpt>
      <trkpt lat="50.20244" lon="4.2508">
        <ele>184.847137</ele>
        <time>2023-05-18T09:54:38Z</time>
      </trkpt>
      <trkpt lat="50.20248" lon="4.25087">
        <ele>185.38504</ele>
        <time>2023-05-18T09:54:40Z</time>
      </trkpt>
      <trkpt lat="50.20249" lon="4.25093">
        <ele>185.81868</ele>
        <time>2023-05-18T09:54:42Z</time>
      </trkpt>
      <trkpt lat="50.20253" lon="4.251">
        <ele>186.273193</ele>
        <time>2023-05-18T09:54:44Z</time>
      </trkpt>
      <trkpt lat="50.20255" lon="4.25109">
        <ele>186.694366</ele>
        <time>2023-05-18T09:54:46Z</time>
      </trkpt>
      <trkpt lat="50.20256" lon="4.25117">
        <ele>187.143799</ele>
        <time>2023-05-18T09:54:48Z</time>
      </trkpt>
      <trkpt lat="50.20257" lon="4.25127">
        <ele>187.558777</ele>
        <time>2023-05-18T09:54:50Z</time>
      </trkpt>
      <trkpt lat="50.20257" lon="4.25132">
        <ele>188.065521</ele>
        <time>2023-05-18T09:54:52Z</time>
      </trkpt>
      <trkpt lat="50.20258" lon="4.25144">
        <ele>188.939468</ele>
        <time>2023-05-18T09:54:54Z</time>
      </trkpt>
      <trkpt lat="50.20261" lon="4.25154">
        <ele>189.335693</ele>
        <time>2023-05-18T09:54:56Z</time>
      </trkpt>
      <trkpt lat="50.20264" lon="4.25163">
        <ele>189.713165</ele>
        <time>2023-05-18T09:54:58Z</time>
      </trkpt>
      <trkpt lat="50.20269" lon="4.25174">
        <ele>190.021835</ele>
        <time>2023-05-18T09:55:00Z</time>
      </trkpt>
      <trkpt lat="50.20269" lon="4.25183">
        <ele>190.128204</ele>
        <time>2023-05-18T09:55:02Z</time>
      </trkpt>
      <trkpt lat="50.20269" lon="4.25194">
        <ele>190.52861</ele>
        <time>2023-05-18T09:55:04Z</time>
      </trkpt>
      <trkpt lat="50.20266" lon="4.25206">
        <ele>190.780975</ele>
        <time>2023-05-18T09:55:06Z</time>
      </trkpt>
      <trkpt lat="50.20264" lon="4.25215">
        <ele>191.068375</ele>
        <time>2023-05-18T09:55:08Z</time>
      </trkpt>
      <trkpt lat="50.2026" lon="4.25227">
        <ele>191.308929</ele>
        <time>2023-05-18T09:55:10Z</time>
      </trkpt>
      <trkpt lat="50.20255" lon="4.25239">
        <ele>191.521942</ele>
        <time>2023-05-18T09:55:12Z</time>
      </trkpt>
      <trkpt lat="50.20245" lon="4.25252">
        <ele>191.768097</ele>
        <time>2023-05-18T09:55:14Z</time>
      </trkpt>
      <trkpt lat="50.20238" lon="4.25265">
        <ele>192.020493</ele>
        <time>2023-05-18T09:55:16Z</time>
      </trkpt>
      <trkpt lat="50.20231" lon="4.25278">
        <ele>192.17276</ele>
        <time>2023-05-18T09:55:18Z</time>
      </trkpt>
      <trkpt lat="50.20224" lon="4.25289">
        <ele>192.17067</ele>
        <time>2023-05-18T09:55:20Z</time>
      </trkpt>
      <trkpt lat="50.20215" lon="4.25299">
        <ele>192.233246</ele>
        <time>2023-05-18T09:55:22Z</time>
      </trkpt>
      <trkpt lat="50.20208" lon="4.25312">
        <ele>192.381363</ele>
        <time>2023-05-18T09:55:24Z</time>
      </trkpt>
      <trkpt lat="50.20199" lon="4.25326">
        <ele>192.454376</ele>
        <time>2023-05-18T09:55:26Z</time>
      </trkpt>
      <trkpt lat="50.2019" lon="4.2534">
        <ele>192.487747</ele>
        <time>2023-05-18T09:55:28Z</time>
      </trkpt>
      <trkpt lat="50.20182" lon="4.25353">
        <ele>192.462708</ele>
        <time>2023-05-18T09:55:30Z</time>
      </trkpt>
      <trkpt lat="50.20171" lon="4.25363">
        <ele>192.454361</ele>
        <time>2023-05-18T09:55:32Z</time>
      </trkpt>
      <trkpt lat="50.20163" lon="4.25374">
        <ele>192.509247</ele>
        <time>2023-05-18T09:55:34Z</time>
      </trkpt>
      <trkpt lat="50.20156" lon="4.25383">
        <ele>191.959991</ele>
        <time>2023-05-18T09:55:36Z</time>
      </trkpt>
      <trkpt lat="50.20148" lon="4.25396">
        <ele>191.943329</ele>
        <time>2023-05-18T09:55:38Z</time>
      </trkpt>
      <trkpt lat="50.20144" lon="4.2541">
        <ele>191.901947</ele>
        <time>2023-05-18T09:55:40Z</time>
      </trkpt>
      <trkpt lat="50.2014" lon="4.25424">
        <ele>191.962845</ele>
        <time>2023-05-18T09:55:42Z</time>
      </trkpt>
      <trkpt lat="50.20135" lon="4.25447">
        <ele>191.955139</ele>
        <time>2023-05-18T09:55:44Z</time>
      </trkpt>
      <trkpt lat="50.20134" lon="4.25464">
        <ele>191.957169</ele>
        <time>2023-05-18T09:55:46Z</time>
      </trkpt>
      <trkpt lat="50.20131" lon="4.25475">
        <ele>191.983063</ele>
        <time>2023-05-18T09:55:48Z</time>
      </trkpt>
      <trkpt lat="50.20129" lon="4.25485">
        <ele>192.111725</ele>
        <time>2023-05-18T09:55:50Z</time>
      </trkpt>
      <trkpt lat="50.20129" lon="4.25497">
        <ele>192.161789</ele>
        <time>2023-05-18T09:55:52Z</time>
      </trkpt>
      <trkpt lat="50.20128" lon="4.25506">
        <ele>192.24733</ele>
        <time>2023-05-18T09:55:54Z</time>
      </trkpt>
      <trkpt lat="50.20126" lon="4.25514">
        <ele>192.253586</ele>
        <time>2023-05-18T09:55:56Z</time>
      </trkpt>
      <trkpt lat="50.20125" lon="4.25521">
        <ele>192.284882</ele>
        <time>2023-05-18T09:55:58Z</time>
      </trkpt>
      <trkpt lat="50.20125" lon="4.25527">
        <ele>192.44136</ele>
        <time>2023-05-18T09:56:00Z</time>
      </trkpt>
      <trkpt lat="50.20125" lon="4.25534">
        <ele>192.618973</ele>
        <time>2023-05-18T09:56:02Z</time>
      </trkpt>
      <trkpt lat="50.20125" lon="4.25542">
        <ele>192.787964</ele>
        <time>2023-05-18T09:56:04Z</time>
      </trkpt>
      <trkpt lat="50.20125" lon="4.25552">
        <ele>192.852646</ele>
        <time>2023-05-18T09:56:06Z</time>
      </trkpt>
      <trkpt lat="50.20125" lon="4.25562">
        <ele>193.046677</ele>
        <time>2023-05-18T09:56:08Z</time>
      </trkpt>
      <trkpt lat="50.20125" lon="4.25571">
        <ele>193.255325</ele>
        <time>2023-05-18T09:56:10Z</time>
      </trkpt>
      <trkpt lat="50.20126" lon="4.25583">
        <ele>193.992462</ele>
        <time>2023-05-18T09:56:12Z</time>
      </trkpt>
      <trkpt lat="50.20126" lon="4.25592">
        <ele>193.652786</ele>
        <time>2023-05-18T09:56:14Z</time>
      </trkpt>
      <trkpt lat="50.20127" lon="4.25604">
        <ele>194.283295</ele>
        <time>2023-05-18T09:56:16Z</time>
      </trkpt>
      <trkpt lat="50.20128" lon="4.25614">
        <ele>194.501007</ele>
        <time>2023-05-18T09:56:18Z</time>
      </trkpt>
      <trkpt lat="50.20129" lon="4.25636">
        <ele>194.807404</ele>
        <time>2023-05-18T09:56:20Z</time>
      </trkpt>
      <trkpt lat="50.20131" lon="4.25643">
        <ele>194.990616</ele>
        <time>2023-05-18T09:56:22Z</time>
      </trkpt>
      <trkpt lat="50.20134" lon="4.25651">
        <ele>195.221619</ele>
        <time>2023-05-18T09:56:24Z</time>
      </trkpt>
      <trkpt lat="50.20135" lon="4.25658">
        <ele>195.933823</ele>
        <time>2023-05-18T09:56:26Z</time>
      </trkpt>
      <trkpt lat="50.20135" lon="4.25664">
        <ele>196.038162</ele>
        <time>2023-05-18T09:56:28Z</time>
      </trkpt>
      <trkpt lat="50.20134" lon="4.25672">
        <ele>196.238068</ele>
        <time>2023-05-18T09:56:30Z</time>
      </trkpt>
      <trkpt lat="50.20136" lon="4.25679">
        <ele>196.425873</ele>
        <time>2023-05-18T09:56:32Z</time>
      </trkpt>
      <trkpt lat="50.20139" lon="4.25686">
        <ele>196.638748</ele>
        <time>2023-05-18T09:56:34Z</time>
      </trkpt>
      <trkpt lat="50.20142" lon="4.25692">
        <ele>196.828659</ele>
        <time>2023-05-18T09:56:36Z</time>
      </trkpt>
      <trkpt lat="50.20144" lon="4.25698">
        <ele>197.114578</ele>
        <time>2023-05-18T09:56:38Z</time>
      </trkpt>
      <trkpt lat="50.20145" lon="4.25704">
        <ele>197.325348</ele>
        <time>2023-05-18T09:56:40Z</time>
      </trkpt>
      <trkpt lat="50.20145" lon="4.25713">
        <ele>197.560928</ele>
        <time>2023-05-18T09:56:42Z</time>
      </trkpt>
      <trkpt lat="50.20144" lon="4.25721">
        <ele>197.75502</ele>
        <time>2023-05-18T09:56:44Z</time>
      </trkpt>
      <trkpt lat="50.20145" lon="4.25729">
        <ele>197.949127</ele>
        <time>2023-05-18T09:56:46Z</time>
      </trkpt>
      <trkpt lat="50.20147" lon="4.25738">
        <ele>198.201691</ele>
        <time>2023-05-18T09:56:48Z</time>
      </trkpt>
      <trkpt lat="50.20147" lon="4.25749">
        <ele>198.447968</ele>
        <time>2023-05-18T09:56:50Z</time>
      </trkpt>
      <trkpt lat="50.20148" lon="4.25761">
        <ele>198.086456</ele>
        <time>2023-05-18T09:56:52Z</time>
      </trkpt>
      <trkpt lat="50.20149" lon="4.25773">
        <ele>198.787201</ele>
        <time>2023-05-18T09:56:54Z</time>
      </trkpt>
      <trkpt lat="50.2015" lon="4.25782">
        <ele>198.454865</ele>
        <time>2023-05-18T09:56:56Z</time>
      </trkpt>
      <trkpt lat="50.20153" lon="4.25788">
        <ele>198.730713</ele>
        <time>2023-05-18T09:56:58Z</time>
      </trkpt>
      <trkpt lat="50.20155" lon="4.25797">
        <ele>198.842697</ele>
        <time>2023-05-18T09:57:00Z</time>
      </trkpt>
      <trkpt lat="50.20155" lon="4.25804">
        <ele>198.940811</ele>
        <time>2023-05-18T09:57:02Z</time>
      </trkpt>
      <trkpt lat="50.20158" lon="4.25814">
        <ele>199.183975</ele>
        <time>2023-05-18T09:57:04Z</time>
      </trkpt>
      <trkpt lat="50.2016" lon="4.25824">
        <ele>199.381882</ele>
        <time>2023-05-18T09:57:06Z</time>
      </trkpt>
      <trkpt lat="50.20163" lon="4.25831">
        <ele>199.105957</ele>
        <time>2023-05-18T09:57:08Z</time>
      </trkpt>
      <trkpt lat="50.20164" lon="4.25838">
        <ele>199.320984</ele>
        <time>2023-05-18T09:57:10Z</time>
      </trkpt>
      <trkpt lat="50.20164" lon="4.25846">
        <ele>199.632065</ele>
        <time>2023-05-18T09:57:12Z</time>
      </trkpt>
      <trkpt lat="50.20166" lon="4.25855">
        <ele>199.790726</ele>
        <time>2023-05-18T09:57:14Z</time>
      </trkpt>
      <trkpt lat="50.20168" lon="4.25861">
        <ele>200.007843</ele>
        <time>2023-05-18T09:57:16Z</time>
      </trkpt>
      <trkpt lat="50.20169" lon="4.25867">
        <ele>200.179031</ele>
        <time>2023-05-18T09:57:18Z</time>
      </trkpt>
      <trkpt lat="50.2017" lon="4.25875">
        <ele>200.364853</ele>
        <time>2023-05-18T09:57:20Z</time>
      </trkpt>
      <trkpt lat="50.20171" lon="4.25881">
        <ele>200.556931</ele>
        <time>2023-05-18T09:57:22Z</time>
      </trkpt>
      <trkpt lat="50.20173" lon="4.25889">
        <ele>200.652985</ele>
        <time>2023-05-18T09:57:24Z</time>
      </trkpt>
      <trkpt lat="50.20176" lon="4.25896">
        <ele>200.851349</ele>
        <time>2023-05-18T09:57:26Z</time>
      </trkpt>
      <trkpt lat="50.20178" lon="4.25905">
        <ele>201.005707</ele>
        <time>2023-05-18T09:57:28Z</time>
      </trkpt>
      <trkpt lat="50.20181" lon="4.25915">
        <ele>201.231232</ele>
        <time>2023-05-18T09:57:30Z</time>
      </trkpt>
      <trkpt lat="50.20184" lon="4.25923">
        <ele>201.446289</ele>
        <time>2023-05-18T09:57:32Z</time>
      </trkpt>
      <trkpt lat="50.20186" lon="4.25931">
        <ele>201.671799</ele>
        <time>2023-05-18T09:57:34Z</time>
      </trkpt>
      <trkpt lat="50.20189" lon="4.2594">
        <ele>201.90152</ele>
        <time>2023-05-18T09:57:36Z</time>
      </trkpt>
      <trkpt lat="50.2019" lon="4.25946">
        <ele>202.014282</ele>
        <time>2023-05-18T09:57:38Z</time>
      </trkpt>
      <trkpt lat="50.20192" lon="4.25953">
        <ele>202.198074</ele>
        <time>2023-05-18T09:57:40Z</time>
      </trkpt>
      <trkpt lat="50.20195" lon="4.25961">
        <ele>202.62619</ele>
        <time>2023-05-18T09:57:42Z</time>
      </trkpt>
      <trkpt lat="50.202" lon="4.25969">
        <ele>202.788055</ele>
        <time>2023-05-18T09:57:44Z</time>
      </trkpt>
      <trkpt lat="50.20203" lon="4.25976">
        <ele>203.066345</ele>
        <time>2023-05-18T09:57:46Z</time>
      </trkpt>
      <trkpt lat="50.20206" lon="4.25981">
        <ele>203.362946</ele>
        <time>2023-05-18T09:57:48Z</time>
      </trkpt>
      <trkpt lat="50.2021" lon="4.25987">
        <ele>203.684601</ele>
        <time>2023-05-18T09:57:50Z</time>
      </trkpt>
      <trkpt lat="50.20213" lon="4.25993">
        <ele>203.997925</ele>
        <time>2023-05-18T09:57:52Z</time>
      </trkpt>
      <trkpt lat="50.20216" lon="4.25999">
        <ele>204.277832</ele>
        <time>2023-05-18T09:57:54Z</time>
      </trkpt>
      <trkpt lat="50.20219" lon="4.26005">
        <ele>204.637115</ele>
        <time>2023-05-18T09:57:56Z</time>
      </trkpt>
      <trkpt lat="50.20222" lon="4.26009">
        <ele>205.05278</ele>
        <time>2023-05-18T09:57:58Z</time>
      </trkpt>
      <trkpt lat="50.20225" lon="4.26014">
        <ele>205.407913</ele>
        <time>2023-05-18T09:58:00Z</time>
      </trkpt>
      <trkpt lat="50.20228" lon="4.26018">
        <ele>205.777664</ele>
        <time>2023-05-18T09:58:02Z</time>
      </trkpt>
      <trkpt lat="50.20234" lon="4.26028">
        <ele>206.136688</ele>
        <time>2023-05-18T09:58:04Z</time>
      </trkpt>
      <trkpt lat="50.20238" lon="4.26031">
        <ele>206.648483</ele>
        <time>2023-05-18T09:58:06Z</time>
      </trkpt>
      <trkpt lat="50.20242" lon="4.26035">
        <ele>207.047638</ele>
        <time>2023-05-18T09:58:08Z</time>
      </trkpt>
      <trkpt lat="50.20246" lon="4.26036">
        <ele>207.392334</ele>
        <time>2023-05-18T09:58:10Z</time>
      </trkpt>
      <trkpt lat="50.20249" lon="4.2604">
        <ele>207.720581</ele>
        <time>2023-05-18T09:58:12Z</time>
      </trkpt>
      <trkpt lat="50.20253" lon="4.26042">
        <ele>208.031891</ele>
        <time>2023-05-18T09:58:14Z</time>
      </trkpt>
      <trkpt lat="50.20256" lon="4.26045">
        <ele>208.217819</ele>
        <time>2023-05-18T09:58:16Z</time>
      </trkpt>
      <trkpt lat="50.2026" lon="4.26047">
        <ele>208.502609</ele>
        <time>2023-05-18T09:58:18Z</time>
      </trkpt>
      <trkpt lat="50.20265" lon="4.26048">
        <ele>208.759186</ele>
        <time>2023-05-18T09:58:20Z</time>
      </trkpt>
      <trkpt lat="50.2027" lon="4.26048">
        <ele>209.040894</ele>
        <time>2023-05-18T09:58:22Z</time>
      </trkpt>
      <trkpt lat="50.20275" lon="4.2605">
        <ele>209.258179</ele>
        <time>2023-05-18T09:58:24Z</time>
      </trkpt>
      <trkpt lat="50.20281" lon="4.26051">
        <ele>209.468353</ele>
        <time>2023-05-18T09:58:26Z</time>
      </trkpt>
      <trkpt lat="50.20286" lon="4.26052">
        <ele>209.635529</ele>
        <time>2023-05-18T09:58:28Z</time>
      </trkpt>
      <trkpt lat="50.20291" lon="4.26055">
        <ele>209.742096</ele>
        <time>2023-05-18T09:58:30Z</time>
      </trkpt>
      <trkpt lat="50.20296" lon="4.26058">
        <ele>209.844482</ele>
        <time>2023-05-18T09:58:32Z</time>
      </trkpt>
      <trkpt lat="50.20302" lon="4.26061">
        <ele>209.969879</ele>
        <time>2023-05-18T09:58:34Z</time>
      </trkpt>
      <trkpt lat="50.20308" lon="4.26063">
        <ele>210.030472</ele>
        <time>2023-05-18T09:58:36Z</time>
      </trkpt>
      <trkpt lat="50.20314" lon="4.26065">
        <ele>210.151688</ele>
        <time>2023-05-18T09:58:38Z</time>
      </trkpt>
      <trkpt lat="50.2032" lon="4.26068">
        <ele>210.180939</ele>
        <time>2023-05-18T09:58:40Z</time>
      </trkpt>
      <trkpt lat="50.20326" lon="4.26071">
        <ele>210.25827</ele>
        <time>2023-05-18T09:58:42Z</time>
      </trkpt>
      <trkpt lat="50.20332" lon="4.26075">
        <ele>210.314972</ele>
        <time>2023-05-18T09:58:44Z</time>
      </trkpt>
      <trkpt lat="50.20338" lon="4.2608">
        <ele>210.323318</ele>
        <time>2023-05-18T09:58:46Z</time>
      </trkpt>
      <trkpt lat="50.20343" lon="4.26085">
        <ele>210.300339</ele>
        <time>2023-05-18T09:58:48Z</time>
      </trkpt>
      <trkpt lat="50.20348" lon="4.2609">
        <ele>210.30661</ele>
        <time>2023-05-18T09:58:50Z</time>
      </trkpt>
      <trkpt lat="50.20354" lon="4.26094">
        <ele>210.287796</ele>
        <time>2023-05-18T09:58:52Z</time>
      </trkpt>
      <trkpt lat="50.20359" lon="4.26099">
        <ele>210.287552</ele>
        <time>2023-05-18T09:58:54Z</time>
      </trkpt>
      <trkpt lat="50.20363" lon="4.26104">
        <ele>210.285446</ele>
        <time>2023-05-18T09:58:56Z</time>
      </trkpt>
      <trkpt lat="50.20367" lon="4.26109">
        <ele>210.205399</ele>
        <time>2023-05-18T09:58:58Z</time>
      </trkpt>
      <trkpt lat="50.20371" lon="4.26113">
        <ele>210.172363</ele>
        <time>2023-05-18T09:59:00Z</time>
      </trkpt>
      <trkpt lat="50.20374" lon="4.26118">
        <ele>210.130936</ele>
        <time>2023-05-18T09:59:02Z</time>
      </trkpt>
      <trkpt lat="50.20378" lon="4.26121">
        <ele>210.020172</ele>
        <time>2023-05-18T09:59:04Z</time>
      </trkpt>
      <trkpt lat="50.20382" lon="4.26122">
        <ele>209.989548</ele>
        <time>2023-05-18T09:59:06Z</time>
      </trkpt>
      <trkpt lat="50.20387" lon="4.2612">
        <ele>209.97702</ele>
        <time>2023-05-18T09:59:08Z</time>
      </trkpt>
      <trkpt lat="50.20391" lon="4.26116">
        <ele>209.966461</ele>
        <time>2023-05-18T09:59:10Z</time>
      </trkpt>
      <trkpt lat="50.20395" lon="4.26113">
        <ele>209.9897</ele>
        <time>2023-05-18T09:59:12Z</time>
      </trkpt>
      <trkpt lat="50.20398" lon="4.26108">
        <ele>210.039841</ele>
        <time>2023-05-18T09:59:14Z</time>
      </trkpt>
      <trkpt lat="50.20401" lon="4.26104">
        <ele>210.192429</ele>
        <time>2023-05-18T09:59:16Z</time>
      </trkpt>
      <trkpt lat="50.20404" lon="4.261">
        <ele>210.349197</ele>
        <time>2023-05-18T09:59:18Z</time>
      </trkpt>
      <trkpt lat="50.20408" lon="4.26096">
        <ele>210.556122</ele>
        <time>2023-05-18T09:59:20Z</time>
      </trkpt>
      <trkpt lat="50.20411" lon="4.26092">
        <ele>210.800735</ele>
        <time>2023-05-18T09:59:22Z</time>
      </trkpt>
      <trkpt lat="50.20414" lon="4.26087">
        <ele>211.016037</ele>
        <time>2023-05-18T09:59:24Z</time>
      </trkpt>
      <trkpt lat="50.20418" lon="4.26083">
        <ele>211.344269</ele>
        <time>2023-05-18T09:59:26Z</time>
      </trkpt>
      <trkpt lat="50.20421" lon="4.26079">
        <ele>212.16658</ele>
        <time>2023-05-18T09:59:28Z</time>
      </trkpt>
      <trkpt lat="50.20425" lon="4.26075">
        <ele>212.583939</ele>
        <time>2023-05-18T09:59:30Z</time>
      </trkpt>
      <trkpt lat="50.20428" lon="4.26071">
        <ele>213.035522</ele>
        <time>2023-05-18T09:59:32Z</time>
      </trkpt>
      <trkpt lat="50.20432" lon="4.26067">
        <ele>213.491287</ele>
        <time>2023-05-18T09:59:34Z</time>
      </trkpt>
      <trkpt lat="50.20435" lon="4.26063">
        <ele>213.944977</ele>
        <time>2023-05-18T09:59:36Z</time>
      </trkpt>
      <trkpt lat="50.20438" lon="4.26059">
        <ele>214.478104</ele>
        <time>2023-05-18T09:59:38Z</time>
      </trkpt>
      <trkpt lat="50.20441" lon="4.26055">
        <ele>215.01474</ele>
        <time>2023-05-18T09:59:40Z</time>
      </trkpt>
      <trkpt lat="50.20445" lon="4.26051">
        <ele>215.338837</ele>
        <time>2023-05-18T09:59:42Z</time>
      </trkpt>
      <trkpt lat="50.20448" lon="4.26047">
        <ele>215.943771</ele>
        <time>2023-05-18T09:59:44Z</time>
      </trkpt>
      <trkpt lat="50.20451" lon="4.26043">
        <ele>216.583008</ele>
        <time>2023-05-18T09:59:46Z</time>
      </trkpt>
      <trkpt lat="50.20455" lon="4.26039">
        <ele>217.258423</ele>
        <time>2023-05-18T09:59:48Z</time>
      </trkpt>
      <trkpt lat="50.20458" lon="4.26035">
        <ele>217.905807</ele>
        <time>2023-05-18T09:59:50Z</time>
      </trkpt>
      <trkpt lat="50.20462" lon="4.26031">
        <ele>218.577362</ele>
        <time>2023-05-18T09:59:52Z</time>
      </trkpt>
      <trkpt lat="50.20465" lon="4.26027">
        <ele>219.241501</ele>
        <time>2023-05-18T09:59:54Z</time>
      </trkpt>
      <trkpt lat="50.20469" lon="4.26023">
        <ele>219.841766</ele>
        <time>2023-05-18T09:59:56Z</time>
      </trkpt>
      <trkpt lat="50.20472" lon="4.26019">
        <ele>220.395142</ele>
        <time>2023-05-18T09:59:58Z</time>
      </trkpt>
      <trkpt lat="50.20475" lon="4.26014">
        <ele>221.00386</ele>
        <time>2023-05-18T10:00:00Z</time>
      </trkpt>
      <trkpt lat="50.20479" lon="4.2601">
        <ele>221.5457</ele>
        <time>2023-05-18T10:00:02Z</time>
      </trkpt>
      <trkpt lat="50.20482" lon="4.26006">
        <ele>222.072876</ele>
        <time>2023-05-18T10:00:04Z</time>
      </trkpt>
      <trkpt lat="50.20486" lon="4.26001">
        <ele>222.568695</ele>
        <time>2023-05-18T10:00:06Z</time>
      </trkpt>
      <trkpt lat="50.2049" lon="4.25997">
        <ele>222.551682</ele>
        <time>2023-05-18T10:00:08Z</time>
      </trkpt>
      <trkpt lat="50.20496" lon="4.25991">
        <ele>223.09436</ele>
        <time>2023-05-18T10:00:10Z</time>
      </trkpt>
      <trkpt lat="50.205" lon="4.25987">
        <ele>223.56308</ele>
        <time>2023-05-18T10:00:12Z</time>
      </trkpt>
      <trkpt lat="50.20504" lon="4.25982">
        <ele>224.061111</ele>
        <time>2023-05-18T10:00:14Z</time>
      </trkpt>
      <trkpt lat="50.20507" lon="4.25978">
        <ele>224.547485</ele>
        <time>2023-05-18T10:00:16Z</time>
      </trkpt>
      <trkpt lat="50.20511" lon="4.25974">
        <ele>224.776443</ele>
        <time>2023-05-18T10:00:18Z</time>
      </trkpt>
      <trkpt lat="50.20514" lon="4.25969">
        <ele>225.310135</ele>
        <time>2023-05-18T10:00:20Z</time>
      </trkpt>
      <trkpt lat="50.20518" lon="4.25965">
        <ele>225.817337</ele>
        <time>2023-05-18T10:00:22Z</time>
      </trkpt>
      <trkpt lat="50.20521" lon="4.25961">
        <ele>226.306427</ele>
        <time>2023-05-18T10:00:24Z</time>
      </trkpt>
      <trkpt lat="50.20525" lon="4.25956">
        <ele>226.796799</ele>
        <time>2023-05-18T10:00:26Z</time>
      </trkpt>
      <trkpt lat="50.20528" lon="4.25952">
        <ele>227.209183</ele>
        <time>2023-05-18T10:00:28Z</time>
      </trkpt>
      <trkpt lat="50.20532" lon="4.25947">
        <ele>227.604813</ele>
        <time>2023-05-18T10:00:30Z</time>
      </trkpt>
      <trkpt lat="50.20536" lon="4.25942">
        <ele>228.016083</ele>
        <time>2023-05-18T10:00:32Z</time>
      </trkpt>
      <trkpt lat="50.2054" lon="4.25937">
        <ele>228.462936</ele>
        <time>2023-05-18T10:00:34Z</time>
      </trkpt>
      <trkpt lat="50.20543" lon="4.25932">
        <ele>228.911896</ele>
        <time>2023-05-18T10:00:36Z</time>
      </trkpt>
      <trkpt lat="50.20548" lon="4.25927">
        <ele>229.395538</ele>
        <time>2023-05-18T10:00:38Z</time>
      </trkpt>
      <trkpt lat="50.20552" lon="4.25921">
        <ele>229.857086</ele>
        <time>2023-05-18T10:00:40Z</time>
      </trkpt>
      <trkpt lat="50.20556" lon="4.25916">
        <ele>230.261185</ele>
        <time>2023-05-18T10:00:42Z</time>
      </trkpt>
      <trkpt lat="50.2056" lon="4.2591">
        <ele>230.67366</ele>
        <time>2023-05-18T10:00:44Z</time>
      </trkpt>
      <trkpt lat="50.20565" lon="4.25905">
        <ele>231.140625</ele>
        <time>2023-05-18T10:00:46Z</time>
      </trkpt>
      <trkpt lat="50.20569" lon="4.25899">
        <ele>231.580399</ele>
        <time>2023-05-18T10:00:48Z</time>
      </trkpt>
      <trkpt lat="50.20575" lon="4.25893">
        <ele>232.005539</ele>
        <time>2023-05-18T10:00:50Z</time>
      </trkpt>
      <trkpt lat="50.2058" lon="4.25888">
        <ele>232.424393</ele>
        <time>2023-05-18T10:00:52Z</time>
      </trkpt>
      <trkpt lat="50.20586" lon="4.25882">
        <ele>232.807648</ele>
        <time>2023-05-18T10:00:54Z</time>
      </trkpt>
      <trkpt lat="50.20592" lon="4.25877">
        <ele>233.150223</ele>
        <time>2023-05-18T10:00:56Z</time>
      </trkpt>
      <trkpt lat="50.20598" lon="4.25871">
        <ele>233.603851</ele>
        <time>2023-05-18T10:00:58Z</time>
      </trkpt>
      <trkpt lat="50.20605" lon="4.25867">
        <ele>233.968338</ele>
        <time>2023-05-18T10:01:00Z</time>
      </trkpt>
      <trkpt lat="50.20611" lon="4.25864">
        <ele>234.280426</ele>
        <time>2023-05-18T10:01:02Z</time>
      </trkpt>
      <trkpt lat="50.20616" lon="4.25869">
        <ele>234.556915</ele>
        <time>2023-05-18T10:01:04Z</time>
      </trkpt>
      <trkpt lat="50.20618" lon="4.25879">
        <ele>234.812454</ele>
        <time>2023-05-18T10:01:06Z</time>
      </trkpt>
      <trkpt lat="50.2062" lon="4.25891">
        <ele>234.956955</ele>
        <time>2023-05-18T10:01:08Z</time>
      </trkpt>
      <trkpt lat="50.20622" lon="4.25902">
        <ele>235.212524</ele>
        <time>2023-05-18T10:01:10Z</time>
      </trkpt>
      <trkpt lat="50.20625" lon="4.25913">
        <ele>235.460617</ele>
        <time>2023-05-18T10:01:12Z</time>
      </trkpt>
      <trkpt lat="50.20626" lon="4.25925">
        <ele>235.658417</ele>
        <time>2023-05-18T10:01:14Z</time>
      </trkpt>
      <trkpt lat="50.20629" lon="4.25939">
        <ele>235.635376</ele>
        <time>2023-05-18T10:01:16Z</time>
      </trkpt>
      <trkpt lat="50.20631" lon="4.25954">
        <ele>235.658401</ele>
        <time>2023-05-18T10:01:18Z</time>
      </trkpt>
      <trkpt lat="50.20633" lon="4.25968">
        <ele>235.633255</ele>
        <time>2023-05-18T10:01:20Z</time>
      </trkpt>
      <trkpt lat="50.20636" lon="4.25981">
        <ele>235.553665</ele>
        <time>2023-05-18T10:01:22Z</time>
      </trkpt>
      <trkpt lat="50.20639" lon="4.25995">
        <ele>235.415451</ele>
        <time>2023-05-18T10:01:24Z</time>
      </trkpt>
      <trkpt lat="50.20641" lon="4.2601">
        <ele>235.231155</ele>
        <time>2023-05-18T10:01:26Z</time>
      </trkpt>
      <trkpt lat="50.20644" lon="4.26027">
        <ele>234.937958</ele>
        <time>2023-05-18T10:01:28Z</time>
      </trkpt>
      <trkpt lat="50.20647" lon="4.26043">
        <ele>234.801178</ele>
        <time>2023-05-18T10:01:30Z</time>
      </trkpt>
      <trkpt lat="50.20649" lon="4.26059">
        <ele>234.602097</ele>
        <time>2023-05-18T10:01:32Z</time>
      </trkpt>
      <trkpt lat="50.20652" lon="4.26075">
        <ele>234.268951</ele>
        <time>2023-05-18T10:01:34Z</time>
      </trkpt>
      <trkpt lat="50.20655" lon="4.26091">
        <ele>233.971527</ele>
        <time>2023-05-18T10:01:36Z</time>
      </trkpt>
      <trkpt lat="50.20659" lon="4.26107">
        <ele>233.521317</ele>
        <time>2023-05-18T10:01:38Z</time>
      </trkpt>
      <trkpt lat="50.20661" lon="4.26124">
        <ele>233.114944</ele>
        <time>2023-05-18T10:01:40Z</time>
      </trkpt>
      <trkpt lat="50.20664" lon="4.26139">
        <ele>232.6521</ele>
        <time>2023-05-18T10:01:42Z</time>
      </trkpt>
      <trkpt lat="50.20668" lon="4.26155">
        <ele>232.189255</ele>
        <time>2023-05-18T10:01:44Z</time>
      </trkpt>
      <trkpt lat="50.20673" lon="4.26169">
        <ele>231.776688</ele>
        <time>2023-05-18T10:01:46Z</time>
      </trkpt>
      <trkpt lat="50.20681" lon="4.26182">
        <ele>231.640305</ele>
        <time>2023-05-18T10:01:48Z</time>
      </trkpt>
      <trkpt lat="50.20689" lon="4.26193">
        <ele>231.149338</ele>
        <time>2023-05-18T10:01:50Z</time>
      </trkpt>
      <trkpt lat="50.20698" lon="4.26203">
        <ele>230.734665</ele>
        <time>2023-05-18T10:01:52Z</time>
      </trkpt>
      <trkpt lat="50.20705" lon="4.26215">
        <ele>230.317291</ele>
        <time>2023-05-18T10:01:54Z</time>
      </trkpt>
      <trkpt lat="50.20706" lon="4.2623">
        <ele>229.948441</ele>
        <time>2023-05-18T10:01:56Z</time>
      </trkpt>
      <trkpt lat="50.20705" lon="4.26246">
        <ele>229.684601</ele>
        <time>2023-05-18T10:01:58Z</time>
      </trkpt>
      <trkpt lat="50.20703" lon="4.26262">
        <ele>229.351639</ele>
        <time>2023-05-18T10:02:00Z</time>
      </trkpt>
      <trkpt lat="50.207" lon="4.26279">
        <ele>229.08989</ele>
        <time>2023-05-18T10:02:02Z</time>
      </trkpt>
      <trkpt lat="50.20697" lon="4.26295">
        <ele>228.76326</ele>
        <time>2023-05-18T10:02:04Z</time>
      </trkpt>
      <trkpt lat="50.20694" lon="4.26309">
        <ele>228.537186</ele>
        <time>2023-05-18T10:02:06Z</time>
      </trkpt>
      <trkpt lat="50.20691" lon="4.26323">
        <ele>228.405243</ele>
        <time>2023-05-18T10:02:08Z</time>
      </trkpt>
      <trkpt lat="50.20688" lon="4.26337">
        <ele>228.307373</ele>
        <time>2023-05-18T10:02:10Z</time>
      </trkpt>
      <trkpt lat="50.20684" lon="4.2635">
        <ele>228.00386</ele>
        <time>2023-05-18T10:02:12Z</time>
      </trkpt>
      <trkpt lat="50.20681" lon="4.26363">
        <ele>227.681595</ele>
        <time>2023-05-18T10:02:14Z</time>
      </trkpt>
      <trkpt lat="50.20679" lon="4.26377">
        <ele>227.532959</ele>
        <time>2023-05-18T10:02:16Z</time>
      </trkpt>
      <trkpt lat="50.20679" lon="4.26392">
        <ele>227.452393</ele>
        <time>2023-05-18T10:02:18Z</time>
      </trkpt>
      <trkpt lat="50.20679" lon="4.26407">
        <ele>227.393768</ele>
        <time>2023-05-18T10:02:20Z</time>
      </trkpt>
      <trkpt lat="50.20678" lon="4.26422">
        <ele>227.185303</ele>
        <time>2023-05-18T10:02:22Z</time>
      </trkpt>
      <trkpt lat="50.20676" lon="4.26437">
        <ele>227.093185</ele>
        <time>2023-05-18T10:02:24Z</time>
      </trkpt>
      <trkpt lat="50.20676" lon="4.26451">
        <ele>227.078537</ele>
        <time>2023-05-18T10:02:26Z</time>
      </trkpt>
      <trkpt lat="50.20675" lon="4.26466">
        <ele>226.916473</ele>
        <time>2023-05-18T10:02:28Z</time>
      </trkpt>
      <trkpt lat="50.20675" lon="4.26482">
        <ele>226.954147</ele>
        <time>2023-05-18T10:02:30Z</time>
      </trkpt>
      <trkpt lat="50.20674" lon="4.26497">
        <ele>226.798096</ele>
        <time>2023-05-18T10:02:32Z</time>
      </trkpt>
      <trkpt lat="50.20673" lon="4.26511">
        <ele>226.628571</ele>
        <time>2023-05-18T10:02:34Z</time>
      </trkpt>
      <trkpt lat="50.20673" lon="4.26526">
        <ele>226.571777</ele>
        <time>2023-05-18T10:02:36Z</time>
      </trkpt>
      <trkpt lat="50.20672" lon="4.26541">
        <ele>226.596893</ele>
        <time>2023-05-18T10:02:38Z</time>
      </trkpt>
      <trkpt lat="50.20671" lon="4.26556">
        <ele>226.594803</ele>
        <time>2023-05-18T10:02:40Z</time>
      </trkpt>
      <trkpt lat="50.2067" lon="4.26571">
        <ele>226.552933</ele>
        <time>2023-05-18T10:02:42Z</time>
      </trkpt>
      <trkpt lat="50.20669" lon="4.26586">
        <ele>226.607346</ele>
        <time>2023-05-18T10:02:44Z</time>
      </trkpt>
      <trkpt lat="50.20667" lon="4.26601">
        <ele>226.630341</ele>
        <time>2023-05-18T10:02:46Z</time>
      </trkpt>
      <trkpt lat="50.20667" lon="4.26616">
        <ele>226.647095</ele>
        <time>2023-05-18T10:02:48Z</time>
      </trkpt>
      <trkpt lat="50.20665" lon="4.2663">
        <ele>226.676392</ele>
        <time>2023-05-18T10:02:50Z</time>
      </trkpt>
      <trkpt lat="50.20664" lon="4.26644">
        <ele>226.797897</ele>
        <time>2023-05-18T10:02:52Z</time>
      </trkpt>
      <trkpt lat="50.20663" lon="4.26658">
        <ele>226.97168</ele>
        <time>2023-05-18T10:02:54Z</time>
      </trkpt>
      <trkpt lat="50.20663" lon="4.26671">
        <ele>227.141235</ele>
        <time>2023-05-18T10:02:56Z</time>
      </trkpt>
      <trkpt lat="50.20662" lon="4.26684">
        <ele>227.340088</ele>
        <time>2023-05-18T10:02:58Z</time>
      </trkpt>
      <trkpt lat="50.20662" lon="4.26697">
        <ele>227.550491</ele>
        <time>2023-05-18T10:03:00Z</time>
      </trkpt>
      <trkpt lat="50.20662" lon="4.26709">
        <ele>227.770294</ele>
        <time>2023-05-18T10:03:02Z</time>
      </trkpt>
      <trkpt lat="50.20663" lon="4.26722">
        <ele>227.901291</ele>
        <time>2023-05-18T10:03:04Z</time>
      </trkpt>
      <trkpt lat="50.20663" lon="4.26734">
        <ele>228.096725</ele>
        <time>2023-05-18T10:03:06Z</time>
      </trkpt>
      <trkpt lat="50.20664" lon="4.26747">
        <ele>228.331375</ele>
        <time>2023-05-18T10:03:08Z</time>
      </trkpt>
      <trkpt lat="50.20664" lon="4.26759">
        <ele>228.653778</ele>
        <time>2023-05-18T10:03:10Z</time>
      </trkpt>
      <trkpt lat="50.20664" lon="4.26772">
        <ele>228.905151</ele>
        <time>2023-05-18T10:03:12Z</time>
      </trkpt>
      <trkpt lat="50.20665" lon="4.26784">
        <ele>229.432709</ele>
        <time>2023-05-18T10:03:14Z</time>
      </trkpt>
      <trkpt lat="50.20665" lon="4.26797">
        <ele>229.555756</ele>
        <time>2023-05-18T10:03:16Z</time>
      </trkpt>
      <trkpt lat="50.20666" lon="4.2681">
        <ele>229.851639</ele>
        <time>2023-05-18T10:03:18Z</time>
      </trkpt>
      <trkpt lat="50.20667" lon="4.26823">
        <ele>230.026077</ele>
        <time>2023-05-18T10:03:20Z</time>
      </trkpt>
      <trkpt lat="50.20668" lon="4.26836">
        <ele>230.339203</ele>
        <time>2023-05-18T10:03:22Z</time>
      </trkpt>
      <trkpt lat="50.2067" lon="4.2685">
        <ele>230.52063</ele>
        <time>2023-05-18T10:03:24Z</time>
      </trkpt>
      <trkpt lat="50.20671" lon="4.26863">
        <ele>230.815399</ele>
        <time>2023-05-18T10:03:26Z</time>
      </trkpt>
      <trkpt lat="50.20672" lon="4.26877">
        <ele>231.024811</ele>
        <time>2023-05-18T10:03:28Z</time>
      </trkpt>
      <trkpt lat="50.20673" lon="4.26891">
        <ele>231.236298</ele>
        <time>2023-05-18T10:03:30Z</time>
      </trkpt>
      <trkpt lat="50.20674" lon="4.26907">
        <ele>231.433136</ele>
        <time>2023-05-18T10:03:32Z</time>
      </trkpt>
      <trkpt lat="50.20675" lon="4.26922">
        <ele>231.57132</ele>
        <time>2023-05-18T10:03:34Z</time>
      </trkpt>
      <trkpt lat="50.20676" lon="4.26938">
        <ele>231.770264</ele>
        <time>2023-05-18T10:03:36Z</time>
      </trkpt>
      <trkpt lat="50.20678" lon="4.26952">
        <ele>231.97551</ele>
        <time>2023-05-18T10:03:38Z</time>
      </trkpt>
      <trkpt lat="50.2068" lon="4.26967">
        <ele>232.032028</ele>
        <time>2023-05-18T10:03:40Z</time>
      </trkpt>
      <trkpt lat="50.2068" lon="4.26981">
        <ele>232.101151</ele>
        <time>2023-05-18T10:03:42Z</time>
      </trkpt>
      <trkpt lat="50.20681" lon="4.26995">
        <ele>232.264481</ele>
        <time>2023-05-18T10:03:44Z</time>
      </trkpt>
      <trkpt lat="50.20683" lon="4.27009">
        <ele>232.37265</ele>
        <time>2023-05-18T10:03:46Z</time>
      </trkpt>
      <trkpt lat="50.20684" lon="4.27024">
        <ele>232.420898</ele>
        <time>2023-05-18T10:03:48Z</time>
      </trkpt>
      <trkpt lat="50.20684" lon="4.2704">
        <ele>232.468353</ele>
        <time>2023-05-18T10:03:50Z</time>
      </trkpt>
      <trkpt lat="50.20685" lon="4.27054">
        <ele>232.545853</ele>
        <time>2023-05-18T10:03:52Z</time>
      </trkpt>
      <trkpt lat="50.20686" lon="4.27067">
        <ele>232.582489</ele>
        <time>2023-05-18T10:03:54Z</time>
      </trkpt>
      <trkpt lat="50.20687" lon="4.27076">
        <ele>232.515503</ele>
        <time>2023-05-18T10:03:56Z</time>
      </trkpt>
      <trkpt lat="50.20687" lon="4.2708">
        <ele>232.55368</ele>
        <time>2023-05-18T10:03:58Z</time>
      </trkpt>
      <trkpt lat="50.20688" lon="4.27084">
        <ele>232.607468</ele>
        <time>2023-05-18T10:04:00Z</time>
      </trkpt>
      <trkpt lat="50.20687" lon="4.27089">
        <ele>232.543991</ele>
        <time>2023-05-18T10:04:02Z</time>
      </trkpt>
      <trkpt lat="50.20686" lon="4.27094">
        <ele>232.595215</ele>
        <time>2023-05-18T10:04:04Z</time>
      </trkpt>
      <trkpt lat="50.20685" lon="4.271">
        <ele>232.56662</ele>
        <time>2023-05-18T10:04:06Z</time>
      </trkpt>
      <trkpt lat="50.20685" lon="4.27105">
        <ele>232.629929</ele>
        <time>2023-05-18T10:04:08Z</time>
      </trkpt>
      <trkpt lat="50.20683" lon="4.27111">
        <ele>232.639496</ele>
        <time>2023-05-18T10:04:10Z</time>
      </trkpt>
      <trkpt lat="50.20685" lon="4.27117">
        <ele>232.807083</ele>
        <time>2023-05-18T10:04:12Z</time>
      </trkpt>
      <trkpt lat="50.20687" lon="4.27121">
        <ele>232.93486</ele>
        <time>2023-05-18T10:04:14Z</time>
      </trkpt>
      <trkpt lat="50.20691" lon="4.27124">
        <ele>233.100342</ele>
        <time>2023-05-18T10:04:16Z</time>
      </trkpt>
      <trkpt lat="50.20695" lon="4.27126">
        <ele>233.056366</ele>
        <time>2023-05-18T10:04:18Z</time>
      </trkpt>
      <trkpt lat="50.20698" lon="4.27131">
        <ele>233.198807</ele>
        <time>2023-05-18T10:04:20Z</time>
      </trkpt>
      <trkpt lat="50.20702" lon="4.27133">
        <ele>233.378937</ele>
        <time>2023-05-18T10:04:22Z</time>
      </trkpt>
      <trkpt lat="50.20706" lon="4.27135">
        <ele>233.65332</ele>
        <time>2023-05-18T10:04:24Z</time>
      </trkpt>
      <trkpt lat="50.20708" lon="4.27137">
        <ele>233.904709</ele>
        <time>2023-05-18T10:04:26Z</time>
      </trkpt>
      <trkpt lat="50.20715" lon="4.2714">
        <ele>236.098602</ele>
        <time>2023-05-18T10:04:46Z</time>
      </trkpt>
      <trkpt lat="50.20717" lon="4.27139">
        <ele>236.234772</ele>
        <time>2023-05-18T10:04:48Z</time>
      </trkpt>
      <trkpt lat="50.20719" lon="4.27137">
        <ele>236.318558</ele>
        <time>2023-05-18T10:04:50Z</time>
      </trkpt>
      <trkpt lat="50.20721" lon="4.27137">
        <ele>236.461914</ele>
        <time>2023-05-18T10:04:55Z</time>
      </trkpt>
      <trkpt lat="50.20723" lon="4.27138">
        <ele>236.451447</ele>
        <time>2023-05-18T10:04:57Z</time>
      </trkpt>
      <trkpt lat="50.20725" lon="4.27141">
        <ele>236.568726</ele>
        <time>2023-05-18T10:04:59Z</time>
      </trkpt>
      <trkpt lat="50.20727" lon="4.27142">
        <ele>236.623199</ele>
        <time>2023-05-18T10:05:01Z</time>
      </trkpt>
      <trkpt lat="50.20729" lon="4.27144">
        <ele>236.616913</ele>
        <time>2023-05-18T10:05:03Z</time>
      </trkpt>
      <trkpt lat="50.20733" lon="4.27146">
        <ele>236.466064</ele>
        <time>2023-05-18T10:05:05Z</time>
      </trkpt>
      <trkpt lat="50.20736" lon="4.27149">
        <ele>236.336182</ele>
        <time>2023-05-18T10:05:07Z</time>
      </trkpt>
      <trkpt lat="50.20739" lon="4.27151">
        <ele>236.220093</ele>
        <time>2023-05-18T10:05:09Z</time>
      </trkpt>
      <trkpt lat="50.20742" lon="4.27153">
        <ele>236.09021</ele>
        <time>2023-05-18T10:05:11Z</time>
      </trkpt>
      <trkpt lat="50.20746" lon="4.27156">
        <ele>235.949493</ele>
        <time>2023-05-18T10:05:13Z</time>
      </trkpt>
      <trkpt lat="50.20749" lon="4.27161">
        <ele>235.828094</ele>
        <time>2023-05-18T10:05:15Z</time>
      </trkpt>
      <trkpt lat="50.20752" lon="4.27165">
        <ele>235.729645</ele>
        <time>2023-05-18T10:05:17Z</time>
      </trkpt>
      <trkpt lat="50.20754" lon="4.2717">
        <ele>235.597656</ele>
        <time>2023-05-18T10:05:19Z</time>
      </trkpt>
      <trkpt lat="50.20757" lon="4.27173">
        <ele>235.37561</ele>
        <time>2023-05-18T10:05:21Z</time>
      </trkpt>
      <trkpt lat="50.20759" lon="4.27175">
        <ele>235.218475</ele>
        <time>2023-05-18T10:05:23Z</time>
      </trkpt>
      <trkpt lat="50.2076" lon="4.27176">
        <ele>235.048798</ele>
        <time>2023-05-18T10:05:25Z</time>
      </trkpt>
      <trkpt lat="50.20762" lon="4.27177">
        <ele>234.893768</ele>
        <time>2023-05-18T10:05:27Z</time>
      </trkpt>
      <trkpt lat="50.20764" lon="4.27178">
        <ele>234.654984</ele>
        <time>2023-05-18T10:05:31Z</time>
      </trkpt>
      <trkpt lat="50.20768" lon="4.2718">
        <ele>234.2397</ele>
        <time>2023-05-18T10:05:37Z</time>
      </trkpt>
      <trkpt lat="50.20774" lon="4.27183">
        <ele>233.759979</ele>
        <time>2023-05-18T10:05:45Z</time>
      </trkpt>
      <trkpt lat="50.20776" lon="4.27184">
        <ele>233.648972</ele>
        <time>2023-05-18T10:05:47Z</time>
      </trkpt>
      <trkpt lat="50.20778" lon="4.27186">
        <ele>233.377533</ele>
        <time>2023-05-18T10:05:51Z</time>
      </trkpt>
      <trkpt lat="50.20787" lon="4.2719">
        <ele>233.260254</ele>
        <time>2023-05-18T10:05:53Z</time>
      </trkpt>
      <trkpt lat="50.2079" lon="4.2719">
        <ele>233.078156</ele>
        <time>2023-05-18T10:05:55Z</time>
      </trkpt>
      <trkpt lat="50.20792" lon="4.27192">
        <ele>232.944</ele>
        <time>2023-05-18T10:05:57Z</time>
      </trkpt>
      <trkpt lat="50.20795" lon="4.27195">
        <ele>232.824615</ele>
        <time>2023-05-18T10:05:59Z</time>
      </trkpt>
      <trkpt lat="50.20798" lon="4.27198">
        <ele>232.715698</ele>
        <time>2023-05-18T10:06:01Z</time>
      </trkpt>
      <trkpt lat="50.20801" lon="4.27203">
        <ele>232.659149</ele>
        <time>2023-05-18T10:06:03Z</time>
      </trkpt>
      <trkpt lat="50.20804" lon="4.27207">
        <ele>232.516724</ele>
        <time>2023-05-18T10:06:05Z</time>
      </trkpt>
      <trkpt lat="50.20808" lon="4.27211">
        <ele>232.384796</ele>
        <time>2023-05-18T10:06:07Z</time>
      </trkpt>
      <trkpt lat="50.20812" lon="4.27213">
        <ele>232.26651</ele>
        <time>2023-05-18T10:06:09Z</time>
      </trkpt>
      <trkpt lat="50.20815" lon="4.27214">
        <ele>232.151321</ele>
        <time>2023-05-18T10:06:13Z</time>
      </trkpt>
      <trkpt lat="50.20818" lon="4.27219">
        <ele>232.084274</ele>
        <time>2023-05-18T10:06:15Z</time>
      </trkpt>
      <trkpt lat="50.20821" lon="4.27226">
        <ele>231.934006</ele>
        <time>2023-05-18T10:06:19Z</time>
      </trkpt>
      <trkpt lat="50.20825" lon="4.27229">
        <ele>231.8293</ele>
        <time>2023-05-18T10:06:21Z</time>
      </trkpt>
      <trkpt lat="50.20829" lon="4.27232">
        <ele>231.781097</ele>
        <time>2023-05-18T10:06:23Z</time>
      </trkpt>
      <trkpt lat="50.20832" lon="4.27236">
        <ele>231.741791</ele>
        <time>2023-05-18T10:06:25Z</time>
      </trkpt>
      <trkpt lat="50.20834" lon="4.27238">
        <ele>231.696976</ele>
        <time>2023-05-18T10:06:27Z</time>
      </trkpt>
      <trkpt lat="50.20839" lon="4.27242">
        <ele>231.992996</ele>
        <time>2023-05-18T10:06:43Z</time>
      </trkpt>
      <trkpt lat="50.20842" lon="4.27245">
        <ele>232.007645</ele>
        <time>2023-05-18T10:06:45Z</time>
      </trkpt>
      <trkpt lat="50.20844" lon="4.27242">
        <ele>232.039063</ele>
        <time>2023-05-18T10:06:47Z</time>
      </trkpt>
      <trkpt lat="50.20847" lon="4.27241">
        <ele>232.038742</ele>
        <time>2023-05-18T10:06:51Z</time>
      </trkpt>
      <trkpt lat="50.20848" lon="4.27242">
        <ele>231.978027</ele>
        <time>2023-05-18T10:06:53Z</time>
      </trkpt>
      <trkpt lat="50.2085" lon="4.27243">
        <ele>231.902634</ele>
        <time>2023-05-18T10:06:55Z</time>
      </trkpt>
      <trkpt lat="50.20855" lon="4.27244">
        <ele>231.699493</ele>
        <time>2023-05-18T10:07:03Z</time>
      </trkpt>
      <trkpt lat="50.20856" lon="4.27245">
        <ele>231.60318</ele>
        <time>2023-05-18T10:07:05Z</time>
      </trkpt>
      <trkpt lat="50.20858" lon="4.27247">
        <ele>231.521042</ele>
        <time>2023-05-18T10:07:07Z</time>
      </trkpt>
      <trkpt lat="50.2086" lon="4.27251">
        <ele>231.408813</ele>
        <time>2023-05-18T10:07:09Z</time>
      </trkpt>
      <trkpt lat="50.20861" lon="4.27254">
        <ele>231.198654</ele>
        <time>2023-05-18T10:07:11Z</time>
      </trkpt>
      <trkpt lat="50.20862" lon="4.27257">
        <ele>231.087692</ele>
        <time>2023-05-18T10:07:13Z</time>
      </trkpt>
      <trkpt lat="50.20861" lon="4.27262">
        <ele>230.987183</ele>
        <time>2023-05-18T10:07:15Z</time>
      </trkpt>
      <trkpt lat="50.20861" lon="4.27266">
        <ele>230.89505</ele>
        <time>2023-05-18T10:07:17Z</time>
      </trkpt>
      <trkpt lat="50.20861" lon="4.27269">
        <ele>230.70723</ele>
        <time>2023-05-18T10:07:19Z</time>
      </trkpt>
      <trkpt lat="50.2086" lon="4.27271">
        <ele>230.58786</ele>
        <time>2023-05-18T10:07:21Z</time>
      </trkpt>
      <trkpt lat="50.20861" lon="4.27272">
        <ele>230.282196</ele>
        <time>2023-05-18T10:07:23Z</time>
      </trkpt>
      <trkpt lat="50.20862" lon="4.27274">
        <ele>230.102127</ele>
        <time>2023-05-18T10:07:25Z</time>
      </trkpt>
      <trkpt lat="50.20863" lon="4.27276">
        <ele>230.026733</ele>
        <time>2023-05-18T10:07:27Z</time>
      </trkpt>
      <trkpt lat="50.20866" lon="4.27277">
        <ele>229.896927</ele>
        <time>2023-05-18T10:07:29Z</time>
      </trkpt>
      <trkpt lat="50.20869" lon="4.27279">
        <ele>229.725739</ele>
        <time>2023-05-18T10:07:31Z</time>
      </trkpt>
      <trkpt lat="50.20873" lon="4.27282">
        <ele>229.513474</ele>
        <time>2023-05-18T10:07:33Z</time>
      </trkpt>
      <trkpt lat="50.20878" lon="4.27285">
        <ele>229.373199</ele>
        <time>2023-05-18T10:07:35Z</time>
      </trkpt>
      <trkpt lat="50.20881" lon="4.27288">
        <ele>229.228729</ele>
        <time>2023-05-18T10:07:37Z</time>
      </trkpt>
      <trkpt lat="50.20885" lon="4.2729">
        <ele>229.034027</ele>
        <time>2023-05-18T10:07:39Z</time>
      </trkpt>
      <trkpt lat="50.20889" lon="4.27294">
        <ele>228.780731</ele>
        <time>2023-05-18T10:07:41Z</time>
      </trkpt>
      <trkpt lat="50.20894" lon="4.27298">
        <ele>228.577667</ele>
        <time>2023-05-18T10:07:43Z</time>
      </trkpt>
      <trkpt lat="50.20898" lon="4.27301">
        <ele>228.326447</ele>
        <time>2023-05-18T10:07:45Z</time>
      </trkpt>
      <trkpt lat="50.20903" lon="4.27304">
        <ele>228.084259</ele>
        <time>2023-05-18T10:07:47Z</time>
      </trkpt>
      <trkpt lat="50.20907" lon="4.27306">
        <ele>227.77861</ele>
        <time>2023-05-18T10:07:49Z</time>
      </trkpt>
      <trkpt lat="50.2091" lon="4.27308">
        <ele>227.493942</ele>
        <time>2023-05-18T10:07:51Z</time>
      </trkpt>
      <trkpt lat="50.20913" lon="4.2731">
        <ele>227.23233</ele>
        <time>2023-05-18T10:07:53Z</time>
      </trkpt>
      <trkpt lat="50.20916" lon="4.27313">
        <ele>226.834625</ele>
        <time>2023-05-18T10:07:55Z</time>
      </trkpt>
      <trkpt lat="50.20919" lon="4.27316">
        <ele>226.459259</ele>
        <time>2023-05-18T10:07:57Z</time>
      </trkpt>
      <trkpt lat="50.20922" lon="4.27318">
        <ele>226.058838</ele>
        <time>2023-05-18T10:07:59Z</time>
      </trkpt>
      <trkpt lat="50.20924" lon="4.2732">
        <ele>225.763718</ele>
        <time>2023-05-18T10:08:01Z</time>
      </trkpt>
      <trkpt lat="50.20926" lon="4.27321">
        <ele>224.185181</ele>
        <time>2023-05-18T10:08:10Z</time>
      </trkpt>
      <trkpt lat="50.20928" lon="4.27322">
        <ele>223.890106</ele>
        <time>2023-05-18T10:08:12Z</time>
      </trkpt>
      <trkpt lat="50.20931" lon="4.27324">
        <ele>223.519684</ele>
        <time>2023-05-18T10:08:14Z</time>
      </trkpt>
      <trkpt lat="50.20934" lon="4.27326">
        <ele>223.381561</ele>
        <time>2023-05-18T10:08:16Z</time>
      </trkpt>
      <trkpt lat="50.20937" lon="4.27328">
        <ele>223.03418</ele>
        <time>2023-05-18T10:08:18Z</time>
      </trkpt>
      <trkpt lat="50.20941" lon="4.2733">
        <ele>222.703568</ele>
        <time>2023-05-18T10:08:20Z</time>
      </trkpt>
      <trkpt lat="50.20944" lon="4.27332">
        <ele>222.456665</ele>
        <time>2023-05-18T10:08:22Z</time>
      </trkpt>
      <trkpt lat="50.20948" lon="4.27335">
        <ele>222.153275</ele>
        <time>2023-05-18T10:08:24Z</time>
      </trkpt>
      <trkpt lat="50.20952" lon="4.27337">
        <ele>221.81221</ele>
        <time>2023-05-18T10:08:26Z</time>
      </trkpt>
      <trkpt lat="50.20956" lon="4.2734">
        <ele>221.541656</ele>
        <time>2023-05-18T10:08:28Z</time>
      </trkpt>
      <trkpt lat="50.20961" lon="4.27342">
        <ele>221.321121</ele>
        <time>2023-05-18T10:08:30Z</time>
      </trkpt>
      <trkpt lat="50.20964" lon="4.27344">
        <ele>221.109955</ele>
        <time>2023-05-18T10:08:32Z</time>
      </trkpt>
      <trkpt lat="50.20968" lon="4.27346">
        <ele>220.93721</ele>
        <time>2023-05-18T10:08:34Z</time>
      </trkpt>
      <trkpt lat="50.20972" lon="4.27349">
        <ele>220.721725</ele>
        <time>2023-05-18T10:08:36Z</time>
      </trkpt>
      <trkpt lat="50.20977" lon="4.27351">
        <ele>220.494385</ele>
        <time>2023-05-18T10:08:38Z</time>
      </trkpt>
      <trkpt lat="50.20981" lon="4.27353">
        <ele>220.335403</ele>
        <time>2023-05-18T10:08:40Z</time>
      </trkpt>
      <trkpt lat="50.20985" lon="4.27356">
        <ele>220.117844</ele>
        <time>2023-05-18T10:08:42Z</time>
      </trkpt>
      <trkpt lat="50.20989" lon="4.27358">
        <ele>219.956787</ele>
        <time>2023-05-18T10:08:44Z</time>
      </trkpt>
      <trkpt lat="50.20993" lon="4.2736">
        <ele>219.801971</ele>
        <time>2023-05-18T10:08:46Z</time>
      </trkpt>
      <trkpt lat="50.20997" lon="4.27362">
        <ele>219.706696</ele>
        <time>2023-05-18T10:08:48Z</time>
      </trkpt>
      <trkpt lat="50.21" lon="4.27365">
        <ele>219.581024</ele>
        <time>2023-05-18T10:08:50Z</time>
      </trkpt>
      <trkpt lat="50.21005" lon="4.27367">
        <ele>219.411591</ele>
        <time>2023-05-18T10:08:52Z</time>
      </trkpt>
      <trkpt lat="50.21008" lon="4.27368">
        <ele>219.292358</ele>
        <time>2023-05-18T10:08:54Z</time>
      </trkpt>
      <trkpt lat="50.21011" lon="4.2737">
        <ele>219.237991</ele>
        <time>2023-05-18T10:08:56Z</time>
      </trkpt>
      <trkpt lat="50.21016" lon="4.27373">
        <ele>219.039276</ele>
        <time>2023-05-18T10:08:58Z</time>
      </trkpt>
      <trkpt lat="50.2102" lon="4.27375">
        <ele>218.905396</ele>
        <time>2023-05-18T10:09:00Z</time>
      </trkpt>
      <trkpt lat="50.21024" lon="4.27378">
        <ele>218.788284</ele>
        <time>2023-05-18T10:09:02Z</time>
      </trkpt>
      <trkpt lat="50.21029" lon="4.27381">
        <ele>218.624023</ele>
        <time>2023-05-18T10:09:04Z</time>
      </trkpt>
      <trkpt lat="50.21034" lon="4.27383">
        <ele>218.529907</ele>
        <time>2023-05-18T10:09:06Z</time>
      </trkpt>
      <trkpt lat="50.2104" lon="4.27386">
        <ele>218.530716</ele>
        <time>2023-05-18T10:09:08Z</time>
      </trkpt>
      <trkpt lat="50.21046" lon="4.2739">
        <ele>218.485031</ele>
        <time>2023-05-18T10:09:10Z</time>
      </trkpt>
      <trkpt lat="50.21053" lon="4.27393">
        <ele>218.343674</ele>
        <time>2023-05-18T10:09:12Z</time>
      </trkpt>
      <trkpt lat="50.21059" lon="4.27397">
        <ele>218.226395</ele>
        <time>2023-05-18T10:09:14Z</time>
      </trkpt>
      <trkpt lat="50.21066" lon="4.274">
        <ele>218.141846</ele>
        <time>2023-05-18T10:09:16Z</time>
      </trkpt>
      <trkpt lat="50.21072" lon="4.27404">
        <ele>218.108368</ele>
        <time>2023-05-18T10:09:18Z</time>
      </trkpt>
      <trkpt lat="50.21079" lon="4.27408">
        <ele>218.571075</ele>
        <time>2023-05-18T10:09:20Z</time>
      </trkpt>
      <trkpt lat="50.21087" lon="4.27412">
        <ele>217.933792</ele>
        <time>2023-05-18T10:09:22Z</time>
      </trkpt>
      <trkpt lat="50.21093" lon="4.27416">
        <ele>217.91214</ele>
        <time>2023-05-18T10:09:24Z</time>
      </trkpt>
      <trkpt lat="50.21099" lon="4.27419">
        <ele>217.876709</ele>
        <time>2023-05-18T10:09:26Z</time>
      </trkpt>
      <trkpt lat="50.21104" lon="4.27422">
        <ele>217.677124</ele>
        <time>2023-05-18T10:09:28Z</time>
      </trkpt>
      <trkpt lat="50.2111" lon="4.27425">
        <ele>217.012772</ele>
        <time>2023-05-18T10:09:30Z</time>
      </trkpt>
      <trkpt lat="50.21116" lon="4.27428">
        <ele>216.987671</ele>
        <time>2023-05-18T10:09:32Z</time>
      </trkpt>
      <trkpt lat="50.21122" lon="4.27431">
        <ele>216.759735</ele>
        <time>2023-05-18T10:09:34Z</time>
      </trkpt>
      <trkpt lat="50.21129" lon="4.27435">
        <ele>216.705368</ele>
        <time>2023-05-18T10:09:36Z</time>
      </trkpt>
      <trkpt lat="50.21134" lon="4.27439">
        <ele>216.6008</ele>
        <time>2023-05-18T10:09:38Z</time>
      </trkpt>
      <trkpt lat="50.2114" lon="4.27444">
        <ele>216.450241</ele>
        <time>2023-05-18T10:09:40Z</time>
      </trkpt>
      <trkpt lat="50.21146" lon="4.27448">
        <ele>216.299683</ele>
        <time>2023-05-18T10:09:42Z</time>
      </trkpt>
      <trkpt lat="50.21151" lon="4.27452">
        <ele>216.245331</ele>
        <time>2023-05-18T10:09:44Z</time>
      </trkpt>
      <trkpt lat="50.21157" lon="4.27456">
        <ele>216.093796</ele>
        <time>2023-05-18T10:09:46Z</time>
      </trkpt>
      <trkpt lat="50.21162" lon="4.27461">
        <ele>215.550583</ele>
        <time>2023-05-18T10:09:48Z</time>
      </trkpt>
      <trkpt lat="50.21168" lon="4.27465">
        <ele>215.451462</ele>
        <time>2023-05-18T10:09:50Z</time>
      </trkpt>
      <trkpt lat="50.21174" lon="4.27469">
        <ele>215.126999</ele>
        <time>2023-05-18T10:09:52Z</time>
      </trkpt>
      <trkpt lat="50.2118" lon="4.27473">
        <ele>215.110275</ele>
        <time>2023-05-18T10:09:54Z</time>
      </trkpt>
      <trkpt lat="50.21186" lon="4.27478">
        <ele>214.911652</ele>
        <time>2023-05-18T10:09:56Z</time>
      </trkpt>
      <trkpt lat="50.21192" lon="4.27483">
        <ele>214.666992</ele>
        <time>2023-05-18T10:09:58Z</time>
      </trkpt>
      <trkpt lat="50.21198" lon="4.27487">
        <ele>214.026566</ele>
        <time>2023-05-18T10:10:00Z</time>
      </trkpt>
      <trkpt lat="50.21204" lon="4.27492">
        <ele>214.371124</ele>
        <time>2023-05-18T10:10:02Z</time>
      </trkpt>
      <trkpt lat="50.2121" lon="4.27496">
        <ele>214.1147</ele>
        <time>2023-05-18T10:10:04Z</time>
      </trkpt>
      <trkpt lat="50.21216" lon="4.275">
        <ele>214.047638</ele>
        <time>2023-05-18T10:10:06Z</time>
      </trkpt>
      <trkpt lat="50.21221" lon="4.27504">
        <ele>213.909637</ele>
        <time>2023-05-18T10:10:08Z</time>
      </trkpt>
      <trkpt lat="50.21227" lon="4.27509">
        <ele>214.277222</ele>
        <time>2023-05-18T10:10:10Z</time>
      </trkpt>
      <trkpt lat="50.21233" lon="4.27514">
        <ele>214.12561</ele>
        <time>2023-05-18T10:10:12Z</time>
      </trkpt>
      <trkpt lat="50.2124" lon="4.27519">
        <ele>214.016891</ele>
        <time>2023-05-18T10:10:14Z</time>
      </trkpt>
      <trkpt lat="50.21246" lon="4.27525">
        <ele>214.025269</ele>
        <time>2023-05-18T10:10:16Z</time>
      </trkpt>
      <trkpt lat="50.21252" lon="4.27531">
        <ele>213.868454</ele>
        <time>2023-05-18T10:10:18Z</time>
      </trkpt>
      <trkpt lat="50.21259" lon="4.27538">
        <ele>213.736771</ele>
        <time>2023-05-18T10:10:20Z</time>
      </trkpt>
      <trkpt lat="50.21267" lon="4.27545">
        <ele>213.696457</ele>
        <time>2023-05-18T10:10:22Z</time>
      </trkpt>
      <trkpt lat="50.21276" lon="4.27553">
        <ele>213.710602</ele>
        <time>2023-05-18T10:10:24Z</time>
      </trkpt>
      <trkpt lat="50.21284" lon="4.2756">
        <ele>213.599777</ele>
        <time>2023-05-18T10:10:26Z</time>
      </trkpt>
      <trkpt lat="50.21291" lon="4.27567">
        <ele>213.560028</ele>
        <time>2023-05-18T10:10:28Z</time>
      </trkpt>
      <trkpt lat="50.21299" lon="4.27575">
        <ele>213.992432</ele>
        <time>2023-05-18T10:10:30Z</time>
      </trkpt>
      <trkpt lat="50.21308" lon="4.27583">
        <ele>213.912994</ele>
        <time>2023-05-18T10:10:32Z</time>
      </trkpt>
      <trkpt lat="50.21316" lon="4.27591">
        <ele>213.902512</ele>
        <time>2023-05-18T10:10:34Z</time>
      </trkpt>
      <trkpt lat="50.21325" lon="4.27598">
        <ele>213.87114</ele>
        <time>2023-05-18T10:10:36Z</time>
      </trkpt>
      <trkpt lat="50.21333" lon="4.27605">
        <ele>213.869064</ele>
        <time>2023-05-18T10:10:38Z</time>
      </trkpt>
      <trkpt lat="50.21343" lon="4.27613">
        <ele>213.932861</ele>
        <time>2023-05-18T10:10:40Z</time>
      </trkpt>
      <trkpt lat="50.21353" lon="4.27621">
        <ele>214.028152</ele>
        <time>2023-05-18T10:10:42Z</time>
      </trkpt>
      <trkpt lat="50.21363" lon="4.2763">
        <ele>214.059494</ele>
        <time>2023-05-18T10:10:44Z</time>
      </trkpt>
      <trkpt lat="50.21374" lon="4.27639">
        <ele>214.030228</ele>
        <time>2023-05-18T10:10:46Z</time>
      </trkpt>
      <trkpt lat="50.21385" lon="4.27648">
        <ele>214.026031</ele>
        <time>2023-05-18T10:10:48Z</time>
      </trkpt>
      <trkpt lat="50.21396" lon="4.27657">
        <ele>214.084564</ele>
        <time>2023-05-18T10:10:50Z</time>
      </trkpt>
      <trkpt lat="50.21407" lon="4.27666">
        <ele>214.171295</ele>
        <time>2023-05-18T10:10:52Z</time>
      </trkpt>
      <trkpt lat="50.21418" lon="4.27676">
        <ele>214.17131</ele>
        <time>2023-05-18T10:10:54Z</time>
      </trkpt>
      <trkpt lat="50.2143" lon="4.27686">
        <ele>214.19429</ele>
        <time>2023-05-18T10:10:56Z</time>
      </trkpt>
      <trkpt lat="50.21442" lon="4.27696">
        <ele>214.359451</ele>
        <time>2023-05-18T10:10:58Z</time>
      </trkpt>
      <trkpt lat="50.21455" lon="4.27706">
        <ele>214.415894</ele>
        <time>2023-05-18T10:11:00Z</time>
      </trkpt>
      <trkpt lat="50.21468" lon="4.27717">
        <ele>214.42276</ele>
        <time>2023-05-18T10:11:02Z</time>
      </trkpt>
      <trkpt lat="50.21481" lon="4.27731">
        <ele>214.373077</ele>
        <time>2023-05-18T10:11:04Z</time>
      </trkpt>
      <trkpt lat="50.21495" lon="4.27747">
        <ele>214.272736</ele>
        <time>2023-05-18T10:11:06Z</time>
      </trkpt>
      <trkpt lat="50.21508" lon="4.27765">
        <ele>214.20163</ele>
        <time>2023-05-18T10:11:08Z</time>
      </trkpt>
      <trkpt lat="50.21522" lon="4.27783">
        <ele>214.053223</ele>
        <time>2023-05-18T10:11:10Z</time>
      </trkpt>
      <trkpt lat="50.21535" lon="4.278">
        <ele>214.000946</ele>
        <time>2023-05-18T10:11:12Z</time>
      </trkpt>
      <trkpt lat="50.21547" lon="4.27816">
        <ele>213.867157</ele>
        <time>2023-05-18T10:11:14Z</time>
      </trkpt>
      <trkpt lat="50.2156" lon="4.27832">
        <ele>213.83902</ele>
        <time>2023-05-18T10:11:16Z</time>
      </trkpt>
      <trkpt lat="50.21572" lon="4.27849">
        <ele>213.776291</ele>
        <time>2023-05-18T10:11:18Z</time>
      </trkpt>
      <trkpt lat="50.21584" lon="4.27866">
        <ele>213.613235</ele>
        <time>2023-05-18T10:11:20Z</time>
      </trkpt>
      <trkpt lat="50.21595" lon="4.27884">
        <ele>213.459564</ele>
        <time>2023-05-18T10:11:22Z</time>
      </trkpt>
      <trkpt lat="50.21603" lon="4.27907">
        <ele>213.25769</ele>
        <time>2023-05-18T10:11:24Z</time>
      </trkpt>
      <trkpt lat="50.21608" lon="4.27932">
        <ele>213.098831</ele>
        <time>2023-05-18T10:11:26Z</time>
      </trkpt>
      <trkpt lat="50.21617" lon="4.27958">
        <ele>212.887726</ele>
        <time>2023-05-18T10:11:28Z</time>
      </trkpt>
      <trkpt lat="50.21629" lon="4.27982">
        <ele>212.645233</ele>
        <time>2023-05-18T10:11:30Z</time>
      </trkpt>
      <trkpt lat="50.21641" lon="4.28009">
        <ele>212.275345</ele>
        <time>2023-05-18T10:11:32Z</time>
      </trkpt>
      <trkpt lat="50.21654" lon="4.28034">
        <ele>211.922119</ele>
        <time>2023-05-18T10:11:34Z</time>
      </trkpt>
      <trkpt lat="50.21667" lon="4.28058">
        <ele>211.587738</ele>
        <time>2023-05-18T10:11:36Z</time>
      </trkpt>
      <trkpt lat="50.21676" lon="4.28085">
        <ele>211.130051</ele>
        <time>2023-05-18T10:11:38Z</time>
      </trkpt>
      <trkpt lat="50.21678" lon="4.28112">
        <ele>210.703735</ele>
        <time>2023-05-18T10:11:40Z</time>
      </trkpt>
      <trkpt lat="50.21676" lon="4.28139">
        <ele>210.300385</ele>
        <time>2023-05-18T10:11:42Z</time>
      </trkpt>
      <trkpt lat="50.21669" lon="4.28163">
        <ele>210.11441</ele>
        <time>2023-05-18T10:11:44Z</time>
      </trkpt>
      <trkpt lat="50.21665" lon="4.28187">
        <ele>209.673508</ele>
        <time>2023-05-18T10:11:46Z</time>
      </trkpt>
      <trkpt lat="50.21663" lon="4.28211">
        <ele>209.205475</ele>
        <time>2023-05-18T10:11:48Z</time>
      </trkpt>
      <trkpt lat="50.21664" lon="4.28235">
        <ele>208.775055</ele>
        <time>2023-05-18T10:11:50Z</time>
      </trkpt>
      <trkpt lat="50.21667" lon="4.28259">
        <ele>208.256622</ele>
        <time>2023-05-18T10:11:52Z</time>
      </trkpt>
      <trkpt lat="50.2167" lon="4.28282">
        <ele>207.746857</ele>
        <time>2023-05-18T10:11:54Z</time>
      </trkpt>
      <trkpt lat="50.21672" lon="4.28306">
        <ele>207.131516</ele>
        <time>2023-05-18T10:11:56Z</time>
      </trkpt>
      <trkpt lat="50.21675" lon="4.28328">
        <ele>206.511032</ele>
        <time>2023-05-18T10:11:58Z</time>
      </trkpt>
      <trkpt lat="50.21681" lon="4.28346">
        <ele>206.001129</ele>
        <time>2023-05-18T10:12:00Z</time>
      </trkpt>
      <trkpt lat="50.21685" lon="4.28361">
        <ele>205.441437</ele>
        <time>2023-05-18T10:12:02Z</time>
      </trkpt>
      <trkpt lat="50.21689" lon="4.28374">
        <ele>205.025711</ele>
        <time>2023-05-18T10:12:04Z</time>
      </trkpt>
      <trkpt lat="50.21689" lon="4.28384">
        <ele>204.530624</ele>
        <time>2023-05-18T10:12:06Z</time>
      </trkpt>
      <trkpt lat="50.21689" lon="4.28393">
        <ele>204.037598</ele>
        <time>2023-05-18T10:12:08Z</time>
      </trkpt>
      <trkpt lat="50.21689" lon="4.28402">
        <ele>203.68602</ele>
        <time>2023-05-18T10:12:10Z</time>
      </trkpt>
      <trkpt lat="50.21689" lon="4.28411">
        <ele>203.29747</ele>
        <time>2023-05-18T10:12:12Z</time>
      </trkpt>
      <trkpt lat="50.21689" lon="4.28422">
        <ele>203.132477</ele>
        <time>2023-05-18T10:12:14Z</time>
      </trkpt>
      <trkpt lat="50.2169" lon="4.28432">
        <ele>202.833771</ele>
        <time>2023-05-18T10:12:16Z</time>
      </trkpt>
      <trkpt lat="50.2169" lon="4.28442">
        <ele>202.600586</ele>
        <time>2023-05-18T10:12:18Z</time>
      </trkpt>
      <trkpt lat="50.2169" lon="4.28453">
        <ele>202.505447</ele>
        <time>2023-05-18T10:12:20Z</time>
      </trkpt>
      <trkpt lat="50.21689" lon="4.28462">
        <ele>202.355042</ele>
        <time>2023-05-18T10:12:22Z</time>
      </trkpt>
      <trkpt lat="50.21689" lon="4.2847">
        <ele>202.233902</ele>
        <time>2023-05-18T10:12:24Z</time>
      </trkpt>
      <trkpt lat="50.21689" lon="4.28478">
        <ele>202.265228</ele>
        <time>2023-05-18T10:12:26Z</time>
      </trkpt>
      <trkpt lat="50.2169" lon="4.28485">
        <ele>202.361298</ele>
        <time>2023-05-18T10:12:28Z</time>
      </trkpt>
      <trkpt lat="50.21692" lon="4.28492">
        <ele>202.413528</ele>
        <time>2023-05-18T10:12:30Z</time>
      </trkpt>
      <trkpt lat="50.21692" lon="4.28499">
        <ele>202.465973</ele>
        <time>2023-05-18T10:12:32Z</time>
      </trkpt>
      <trkpt lat="50.21693" lon="4.28509">
        <ele>202.470139</ele>
        <time>2023-05-18T10:12:34Z</time>
      </trkpt>
      <trkpt lat="50.21693" lon="4.28517">
        <ele>202.630951</ele>
        <time>2023-05-18T10:12:36Z</time>
      </trkpt>
      <trkpt lat="50.21692" lon="4.28525">
        <ele>202.854401</ele>
        <time>2023-05-18T10:12:38Z</time>
      </trkpt>
      <trkpt lat="50.21693" lon="4.28531">
        <ele>203.036758</ele>
        <time>2023-05-18T10:12:40Z</time>
      </trkpt>
      <trkpt lat="50.21695" lon="4.28537">
        <ele>203.277084</ele>
        <time>2023-05-18T10:12:42Z</time>
      </trkpt>
      <trkpt lat="50.21696" lon="4.28544">
        <ele>203.416794</ele>
        <time>2023-05-18T10:12:44Z</time>
      </trkpt>
      <trkpt lat="50.21696" lon="4.28551">
        <ele>203.604767</ele>
        <time>2023-05-18T10:12:46Z</time>
      </trkpt>
      <trkpt lat="50.21696" lon="4.28558">
        <ele>203.828217</ele>
        <time>2023-05-18T10:12:48Z</time>
      </trkpt>
      <trkpt lat="50.21698" lon="4.28564">
        <ele>204.005676</ele>
        <time>2023-05-18T10:12:50Z</time>
      </trkpt>
      <trkpt lat="50.21702" lon="4.28569">
        <ele>204.202744</ele>
        <time>2023-05-18T10:12:52Z</time>
      </trkpt>
      <trkpt lat="50.21706" lon="4.28574">
        <ele>204.325974</ele>
        <time>2023-05-18T10:12:54Z</time>
      </trkpt>
      <trkpt lat="50.21713" lon="4.28578">
        <ele>204.493073</ele>
        <time>2023-05-18T10:12:56Z</time>
      </trkpt>
      <trkpt lat="50.21719" lon="4.28584">
        <ele>204.707214</ele>
        <time>2023-05-18T10:12:58Z</time>
      </trkpt>
      <trkpt lat="50.21723" lon="4.2859">
        <ele>204.926834</ele>
        <time>2023-05-18T10:13:00Z</time>
      </trkpt>
      <trkpt lat="50.21726" lon="4.28596">
        <ele>205.050049</ele>
        <time>2023-05-18T10:13:02Z</time>
      </trkpt>
      <trkpt lat="50.21729" lon="4.28601">
        <ele>205.150055</ele>
        <time>2023-05-18T10:13:04Z</time>
      </trkpt>
      <trkpt lat="50.21734" lon="4.28607">
        <ele>205.189743</ele>
        <time>2023-05-18T10:13:06Z</time>
      </trkpt>
      <trkpt lat="50.21738" lon="4.28612">
        <ele>205.129181</ele>
        <time>2023-05-18T10:13:08Z</time>
      </trkpt>
      <trkpt lat="50.21742" lon="4.28618">
        <ele>205.085297</ele>
        <time>2023-05-18T10:13:10Z</time>
      </trkpt>
      <trkpt lat="50.21744" lon="4.28622">
        <ele>205.022629</ele>
        <time>2023-05-18T10:13:12Z</time>
      </trkpt>
      <trkpt lat="50.21748" lon="4.28626">
        <ele>204.955811</ele>
        <time>2023-05-18T10:13:14Z</time>
      </trkpt>
      <trkpt lat="50.21751" lon="4.28629">
        <ele>204.85347</ele>
        <time>2023-05-18T10:13:16Z</time>
      </trkpt>
      <trkpt lat="50.21754" lon="4.28633">
        <ele>204.698929</ele>
        <time>2023-05-18T10:13:18Z</time>
      </trkpt>
      <trkpt lat="50.21757" lon="4.28636">
        <ele>204.524918</ele>
        <time>2023-05-18T10:13:20Z</time>
      </trkpt>
      <trkpt lat="50.21759" lon="4.28639">
        <ele>204.280548</ele>
        <time>2023-05-18T10:13:22Z</time>
      </trkpt>
      <trkpt lat="50.21764" lon="4.2864">
        <ele>204.157333</ele>
        <time>2023-05-18T10:13:24Z</time>
      </trkpt>
      <trkpt lat="50.21769" lon="4.28635">
        <ele>203.950592</ele>
        <time>2023-05-18T10:13:26Z</time>
      </trkpt>
      <trkpt lat="50.21773" lon="4.28628">
        <ele>203.666595</ele>
        <time>2023-05-18T10:13:28Z</time>
      </trkpt>
      <trkpt lat="50.21778" lon="4.28622">
        <ele>203.46402</ele>
        <time>2023-05-18T10:13:30Z</time>
      </trkpt>
      <trkpt lat="50.21783" lon="4.28616">
        <ele>203.287216</ele>
        <time>2023-05-18T10:13:32Z</time>
      </trkpt>
      <trkpt lat="50.2179" lon="4.28613">
        <ele>203.108963</ele>
        <time>2023-05-18T10:13:34Z</time>
      </trkpt>
      <trkpt lat="50.21796" lon="4.28611">
        <ele>202.900085</ele>
        <time>2023-05-18T10:13:36Z</time>
      </trkpt>
      <trkpt lat="50.21801" lon="4.28608">
        <ele>202.737396</ele>
        <time>2023-05-18T10:13:38Z</time>
      </trkpt>
      <trkpt lat="50.21806" lon="4.28605">
        <ele>202.627579</ele>
        <time>2023-05-18T10:13:40Z</time>
      </trkpt>
      <trkpt lat="50.2181" lon="4.28602">
        <ele>202.456314</ele>
        <time>2023-05-18T10:13:42Z</time>
      </trkpt>
      <trkpt lat="50.21814" lon="4.28599">
        <ele>202.283218</ele>
        <time>2023-05-18T10:13:44Z</time>
      </trkpt>
      <trkpt lat="50.21817" lon="4.28598">
        <ele>202.208023</ele>
        <time>2023-05-18T10:13:46Z</time>
      </trkpt>
      <trkpt lat="50.21821" lon="4.28596">
        <ele>202.16832</ele>
        <time>2023-05-18T10:13:48Z</time>
      </trkpt>
      <trkpt lat="50.21826" lon="4.28595">
        <ele>202.132721</ele>
        <time>2023-05-18T10:13:50Z</time>
      </trkpt>
      <trkpt lat="50.21829" lon="4.28595">
        <ele>202.157806</ele>
        <time>2023-05-18T10:13:52Z</time>
      </trkpt>
      <trkpt lat="50.21831" lon="4.28595">
        <ele>202.207916</ele>
        <time>2023-05-18T10:13:54Z</time>
      </trkpt>
      <trkpt lat="50.21833" lon="4.28592">
        <ele>202.638</ele>
        <time>2023-05-18T10:14:00Z</time>
      </trkpt>
      <trkpt lat="50.21838" lon="4.28592">
        <ele>203.490036</ele>
        <time>2023-05-18T10:14:08Z</time>
      </trkpt>
      <trkpt lat="50.21838" lon="4.28594">
        <ele>204.145798</ele>
        <time>2023-05-18T10:14:20Z</time>
      </trkpt>
      <trkpt lat="50.21839" lon="4.28595">
        <ele>204.170868</ele>
        <time>2023-05-18T10:14:22Z</time>
      </trkpt>
      <trkpt lat="50.21839" lon="4.28597">
        <ele>204.310776</ele>
        <time>2023-05-18T10:14:24Z</time>
      </trkpt>
      <trkpt lat="50.21838" lon="4.28599">
        <ele>204.325409</ele>
        <time>2023-05-18T10:14:26Z</time>
      </trkpt>
      <trkpt lat="50.21837" lon="4.28602">
        <ele>204.395935</ele>
        <time>2023-05-18T10:14:30Z</time>
      </trkpt>
      <trkpt lat="50.21837" lon="4.28606">
        <ele>204.391022</ele>
        <time>2023-05-18T10:14:32Z</time>
      </trkpt>
      <trkpt lat="50.21836" lon="4.28607">
        <ele>204.439072</ele>
        <time>2023-05-18T10:14:34Z</time>
      </trkpt>
      <trkpt lat="50.21835" lon="4.28609">
        <ele>204.443253</ele>
        <time>2023-05-18T10:14:36Z</time>
      </trkpt>
      <trkpt lat="50.21833" lon="4.28611">
        <ele>204.4328</ele>
        <time>2023-05-18T10:14:38Z</time>
      </trkpt>
      <trkpt lat="50.21832" lon="4.28612">
        <ele>204.426666</ele>
        <time>2023-05-18T10:14:40Z</time>
      </trkpt>
      <trkpt lat="50.21832" lon="4.28615">
        <ele>204.501862</ele>
        <time>2023-05-18T10:14:42Z</time>
      </trkpt>
      <trkpt lat="50.2183" lon="4.28618">
        <ele>204.516495</ele>
        <time>2023-05-18T10:14:44Z</time>
      </trkpt>
      <trkpt lat="50.2183" lon="4.2862">
        <ele>204.547821</ele>
        <time>2023-05-18T10:14:46Z</time>
      </trkpt>
      <trkpt lat="50.21828" lon="4.28623">
        <ele>204.600037</ele>
        <time>2023-05-18T10:14:48Z</time>
      </trkpt>
      <trkpt lat="50.21824" lon="4.28628">
        <ele>204.848633</ele>
        <time>2023-05-18T10:14:54Z</time>
      </trkpt>
      <trkpt lat="50.21823" lon="4.2863">
        <ele>204.955933</ele>
        <time>2023-05-18T10:14:56Z</time>
      </trkpt>
      <trkpt lat="50.21822" lon="4.28632">
        <ele>205.095734</ele>
        <time>2023-05-18T10:14:58Z</time>
      </trkpt>
      <trkpt lat="50.21822" lon="4.28634">
        <ele>205.260773</ele>
        <time>2023-05-18T10:15:00Z</time>
      </trkpt>
      <trkpt lat="50.2182" lon="4.28638">
        <ele>205.482208</ele>
        <time>2023-05-18T10:15:02Z</time>
      </trkpt>
      <trkpt lat="50.21818" lon="4.28642">
        <ele>205.653519</ele>
        <time>2023-05-18T10:15:04Z</time>
      </trkpt>
      <trkpt lat="50.21816" lon="4.28647">
        <ele>205.897919</ele>
        <time>2023-05-18T10:15:06Z</time>
      </trkpt>
      <trkpt lat="50.21814" lon="4.28652">
        <ele>206.14653</ele>
        <time>2023-05-18T10:15:08Z</time>
      </trkpt>
      <trkpt lat="50.21809" lon="4.2866">
        <ele>206.42749</ele>
        <time>2023-05-18T10:15:10Z</time>
      </trkpt>
      <trkpt lat="50.21808" lon="4.28663">
        <ele>206.704834</ele>
        <time>2023-05-18T10:15:12Z</time>
      </trkpt>
      <trkpt lat="50.21807" lon="4.28667">
        <ele>206.968903</ele>
        <time>2023-05-18T10:15:14Z</time>
      </trkpt>
      <trkpt lat="50.21806" lon="4.28671">
        <ele>207.292725</ele>
        <time>2023-05-18T10:15:16Z</time>
      </trkpt>
      <trkpt lat="50.21804" lon="4.28677">
        <ele>207.871414</ele>
        <time>2023-05-18T10:15:20Z</time>
      </trkpt>
      <trkpt lat="50.21804" lon="4.28684">
        <ele>208.575607</ele>
        <time>2023-05-18T10:15:24Z</time>
      </trkpt>
      <trkpt lat="50.21803" lon="4.28689">
        <ele>208.918304</ele>
        <time>2023-05-18T10:15:26Z</time>
      </trkpt>
      <trkpt lat="50.21803" lon="4.28691">
        <ele>209.307007</ele>
        <time>2023-05-18T10:15:28Z</time>
      </trkpt>
      <trkpt lat="50.21803" lon="4.28695">
        <ele>209.637177</ele>
        <time>2023-05-18T10:15:30Z</time>
      </trkpt>
      <trkpt lat="50.218" lon="4.28701">
        <ele>210.019623</ele>
        <time>2023-05-18T10:15:32Z</time>
      </trkpt>
      <trkpt lat="50.21799" lon="4.28706">
        <ele>210.376984</ele>
        <time>2023-05-18T10:15:34Z</time>
      </trkpt>
      <trkpt lat="50.21797" lon="4.28711">
        <ele>210.585236</ele>
        <time>2023-05-18T10:15:36Z</time>
      </trkpt>
      <trkpt lat="50.21795" lon="4.28715">
        <ele>210.949005</ele>
        <time>2023-05-18T10:15:38Z</time>
      </trkpt>
      <trkpt lat="50.21794" lon="4.28717">
        <ele>211.295944</ele>
        <time>2023-05-18T10:15:40Z</time>
      </trkpt>
      <trkpt lat="50.21793" lon="4.28721">
        <ele>211.619919</ele>
        <time>2023-05-18T10:15:42Z</time>
      </trkpt>
      <trkpt lat="50.21793" lon="4.28724">
        <ele>211.943893</ele>
        <time>2023-05-18T10:15:44Z</time>
      </trkpt>
      <trkpt lat="50.21792" lon="4.28729">
        <ele>212.27832</ele>
        <time>2023-05-18T10:15:46Z</time>
      </trkpt>
      <trkpt lat="50.21792" lon="4.28733">
        <ele>212.650391</ele>
        <time>2023-05-18T10:15:48Z</time>
      </trkpt>
      <trkpt lat="50.21791" lon="4.28737">
        <ele>212.943039</ele>
        <time>2023-05-18T10:15:50Z</time>
      </trkpt>
      <trkpt lat="50.21791" lon="4.28743">
        <ele>213.277512</ele>
        <time>2023-05-18T10:15:52Z</time>
      </trkpt>
      <trkpt lat="50.21791" lon="4.28748">
        <ele>213.561768</ele>
        <time>2023-05-18T10:15:54Z</time>
      </trkpt>
      <trkpt lat="50.2179" lon="4.28752">
        <ele>213.823074</ele>
        <time>2023-05-18T10:15:56Z</time>
      </trkpt>
      <trkpt lat="50.2179" lon="4.28758">
        <ele>214.038422</ele>
        <time>2023-05-18T10:15:58Z</time>
      </trkpt>
      <trkpt lat="50.2179" lon="4.28762">
        <ele>214.31546</ele>
        <time>2023-05-18T10:16:00Z</time>
      </trkpt>
      <trkpt lat="50.2179" lon="4.28767">
        <ele>214.534958</ele>
        <time>2023-05-18T10:16:02Z</time>
      </trkpt>
      <trkpt lat="50.2179" lon="4.28771">
        <ele>214.744049</ele>
        <time>2023-05-18T10:16:04Z</time>
      </trkpt>
      <trkpt lat="50.21791" lon="4.28777">
        <ele>214.928024</ele>
        <time>2023-05-18T10:16:06Z</time>
      </trkpt>
      <trkpt lat="50.21791" lon="4.2878">
        <ele>214.581375</ele>
        <time>2023-05-18T10:16:08Z</time>
      </trkpt>
      <trkpt lat="50.21791" lon="4.28787">
        <ele>214.266083</ele>
        <time>2023-05-18T10:16:10Z</time>
      </trkpt>
      <trkpt lat="50.21792" lon="4.28792">
        <ele>214.360184</ele>
        <time>2023-05-18T10:16:12Z</time>
      </trkpt>
      <trkpt lat="50.21792" lon="4.28795">
        <ele>214.007248</ele>
        <time>2023-05-18T10:16:14Z</time>
      </trkpt>
      <trkpt lat="50.21793" lon="4.28799">
        <ele>214.247726</ele>
        <time>2023-05-18T10:16:16Z</time>
      </trkpt>
      <trkpt lat="50.21793" lon="4.28803">
        <ele>214.925827</ele>
        <time>2023-05-18T10:16:18Z</time>
      </trkpt>
      <trkpt lat="50.21794" lon="4.28809">
        <ele>215.149567</ele>
        <time>2023-05-18T10:16:20Z</time>
      </trkpt>
      <trkpt lat="50.21795" lon="4.28815">
        <ele>215.333588</ele>
        <time>2023-05-18T10:16:22Z</time>
      </trkpt>
      <trkpt lat="50.21795" lon="4.28821">
        <ele>215.498779</ele>
        <time>2023-05-18T10:16:24Z</time>
      </trkpt>
      <trkpt lat="50.21795" lon="4.28835">
        <ele>215.663986</ele>
        <time>2023-05-18T10:16:26Z</time>
      </trkpt>
      <trkpt lat="50.21795" lon="4.2884">
        <ele>215.799896</ele>
        <time>2023-05-18T10:16:28Z</time>
      </trkpt>
      <trkpt lat="50.21794" lon="4.28843">
        <ele>215.92746</ele>
        <time>2023-05-18T10:16:30Z</time>
      </trkpt>
      <trkpt lat="50.21794" lon="4.28847">
        <ele>216.059235</ele>
        <time>2023-05-18T10:16:32Z</time>
      </trkpt>
      <trkpt lat="50.21794" lon="4.28849">
        <ele>216.224442</ele>
        <time>2023-05-18T10:16:34Z</time>
      </trkpt>
      <trkpt lat="50.21794" lon="4.28854">
        <ele>216.400116</ele>
        <time>2023-05-18T10:16:36Z</time>
      </trkpt>
      <trkpt lat="50.21796" lon="4.28856">
        <ele>216.62532</ele>
        <time>2023-05-18T10:16:38Z</time>
      </trkpt>
      <trkpt lat="50.21798" lon="4.28854">
        <ele>216.878372</ele>
        <time>2023-05-18T10:16:40Z</time>
      </trkpt>
      <trkpt lat="50.21799" lon="4.28852">
        <ele>217.111542</ele>
        <time>2023-05-18T10:16:42Z</time>
      </trkpt>
      <trkpt lat="50.21801" lon="4.2885">
        <ele>217.349976</ele>
        <time>2023-05-18T10:16:44Z</time>
      </trkpt>
      <trkpt lat="50.21803" lon="4.28848">
        <ele>217.632324</ele>
        <time>2023-05-18T10:16:46Z</time>
      </trkpt>
      <trkpt lat="50.21803" lon="4.28845">
        <ele>218.405609</ele>
        <time>2023-05-18T10:16:48Z</time>
      </trkpt>
      <trkpt lat="50.21809" lon="4.28844">
        <ele>221.163971</ele>
        <time>2023-05-18T10:17:24Z</time>
      </trkpt>
      <trkpt lat="50.2181" lon="4.28839">
        <ele>221.103317</ele>
        <time>2023-05-18T10:17:26Z</time>
      </trkpt>
      <trkpt lat="50.21812" lon="4.28834">
        <ele>221.086578</ele>
        <time>2023-05-18T10:17:28Z</time>
      </trkpt>
      <trkpt lat="50.21813" lon="4.28829">
        <ele>221.028</ele>
        <time>2023-05-18T10:17:30Z</time>
      </trkpt>
      <trkpt lat="50.21816" lon="4.28823">
        <ele>220.948517</ele>
        <time>2023-05-18T10:17:32Z</time>
      </trkpt>
      <trkpt lat="50.21817" lon="4.28818">
        <ele>220.904877</ele>
        <time>2023-05-18T10:17:34Z</time>
      </trkpt>
      <trkpt lat="50.2182" lon="4.28813">
        <ele>220.854691</ele>
        <time>2023-05-18T10:17:36Z</time>
      </trkpt>
      <trkpt lat="50.21823" lon="4.28807">
        <ele>220.810211</ele>
        <time>2023-05-18T10:17:38Z</time>
      </trkpt>
      <trkpt lat="50.21825" lon="4.28801">
        <ele>220.797333</ele>
        <time>2023-05-18T10:17:40Z</time>
      </trkpt>
      <trkpt lat="50.21827" lon="4.28794">
        <ele>220.725708</ele>
        <time>2023-05-18T10:17:42Z</time>
      </trkpt>
      <trkpt lat="50.2183" lon="4.28788">
        <ele>220.813568</ele>
        <time>2023-05-18T10:17:44Z</time>
      </trkpt>
      <trkpt lat="50.21833" lon="4.28782">
        <ele>220.947479</ele>
        <time>2023-05-18T10:17:46Z</time>
      </trkpt>
      <trkpt lat="50.21837" lon="4.28777">
        <ele>221.01445</ele>
        <time>2023-05-18T10:17:48Z</time>
      </trkpt>
      <trkpt lat="50.2184" lon="4.28771">
        <ele>221.108597</ele>
        <time>2023-05-18T10:17:50Z</time>
      </trkpt>
      <trkpt lat="50.21843" lon="4.28764">
        <ele>221.273895</ele>
        <time>2023-05-18T10:17:52Z</time>
      </trkpt>
      <trkpt lat="50.21846" lon="4.28758">
        <ele>221.466385</ele>
        <time>2023-05-18T10:17:54Z</time>
      </trkpt>
      <trkpt lat="50.21849" lon="4.28751">
        <ele>221.688187</ele>
        <time>2023-05-18T10:17:56Z</time>
      </trkpt>
      <trkpt lat="50.21853" lon="4.28747">
        <ele>221.895309</ele>
        <time>2023-05-18T10:17:58Z</time>
      </trkpt>
      <trkpt lat="50.21857" lon="4.28741">
        <ele>222.188278</ele>
        <time>2023-05-18T10:18:00Z</time>
      </trkpt>
      <trkpt lat="50.2186" lon="4.28734">
        <ele>222.440704</ele>
        <time>2023-05-18T10:18:02Z</time>
      </trkpt>
      <trkpt lat="50.21864" lon="4.28728">
        <ele>222.750397</ele>
        <time>2023-05-18T10:18:04Z</time>
      </trkpt>
      <trkpt lat="50.21868" lon="4.28723">
        <ele>223.133331</ele>
        <time>2023-05-18T10:18:06Z</time>
      </trkpt>
      <trkpt lat="50.21871" lon="4.28718">
        <ele>223.409515</ele>
        <time>2023-05-18T10:18:08Z</time>
      </trkpt>
      <trkpt lat="50.21872" lon="4.28715">
        <ele>223.689941</ele>
        <time>2023-05-18T10:18:10Z</time>
      </trkpt>
      <trkpt lat="50.21875" lon="4.28708">
        <ele>226.92746</ele>
        <time>2023-05-18T10:18:36Z</time>
      </trkpt>
      <trkpt lat="50.2188" lon="4.2871">
        <ele>227.040497</ele>
        <time>2023-05-18T10:18:38Z</time>
      </trkpt>
      <trkpt lat="50.21884" lon="4.28713">
        <ele>227.097</ele>
        <time>2023-05-18T10:18:40Z</time>
      </trkpt>
      <trkpt lat="50.2189" lon="4.2872">
        <ele>227.127319</ele>
        <time>2023-05-18T10:18:42Z</time>
      </trkpt>
      <trkpt lat="50.21894" lon="4.28727">
        <ele>227.125214</ele>
        <time>2023-05-18T10:18:44Z</time>
      </trkpt>
      <trkpt lat="50.21899" lon="4.28733">
        <ele>227.091751</ele>
        <time>2023-05-18T10:18:46Z</time>
      </trkpt>
      <trkpt lat="50.21902" lon="4.28739">
        <ele>227.089645</ele>
        <time>2023-05-18T10:18:48Z</time>
      </trkpt>
      <trkpt lat="50.21904" lon="4.28742">
        <ele>227.049881</ele>
        <time>2023-05-18T10:18:50Z</time>
      </trkpt>
      <trkpt lat="50.21914" lon="4.28759">
        <ele>225.184967</ele>
        <time>2023-05-18T10:19:25Z</time>
      </trkpt>
      <trkpt lat="50.21927" lon="4.28775">
        <ele>224.998703</ele>
        <time>2023-05-18T10:19:27Z</time>
      </trkpt>
      <trkpt lat="50.21938" lon="4.28786">
        <ele>224.741302</ele>
        <time>2023-05-18T10:19:29Z</time>
      </trkpt>
      <trkpt lat="50.21951" lon="4.28797">
        <ele>224.561371</ele>
        <time>2023-05-18T10:19:31Z</time>
      </trkpt>
      <trkpt lat="50.21963" lon="4.28806">
        <ele>224.375122</ele>
        <time>2023-05-18T10:19:33Z</time>
      </trkpt>
      <trkpt lat="50.21973" lon="4.28813">
        <ele>224.157516</ele>
        <time>2023-05-18T10:19:35Z</time>
      </trkpt>
      <trkpt lat="50.21981" lon="4.28817">
        <ele>223.774628</ele>
        <time>2023-05-18T10:19:37Z</time>
      </trkpt>
      <trkpt lat="50.21985" lon="4.28817">
        <ele>223.559082</ele>
        <time>2023-05-18T10:19:39Z</time>
      </trkpt>
      <trkpt lat="50.21986" lon="4.28815">
        <ele>223.320526</ele>
        <time>2023-05-18T10:19:41Z</time>
      </trkpt>
      <trkpt lat="50.21982" lon="4.28809">
        <ele>223.063187</ele>
        <time>2023-05-18T10:19:43Z</time>
      </trkpt>
      <trkpt lat="50.21977" lon="4.28801">
        <ele>222.784882</ele>
        <time>2023-05-18T10:19:45Z</time>
      </trkpt>
      <trkpt lat="50.21969" lon="4.28792">
        <ele>222.473114</ele>
        <time>2023-05-18T10:19:47Z</time>
      </trkpt>
      <trkpt lat="50.21962" lon="4.2878">
        <ele>222.063843</ele>
        <time>2023-05-18T10:19:49Z</time>
      </trkpt>
      <trkpt lat="50.21953" lon="4.28767">
        <ele>221.517868</ele>
        <time>2023-05-18T10:19:51Z</time>
      </trkpt>
      <trkpt lat="50.21944" lon="4.28754">
        <ele>221.099457</ele>
        <time>2023-05-18T10:19:53Z</time>
      </trkpt>
      <trkpt lat="50.21935" lon="4.28739">
        <ele>220.635086</ele>
        <time>2023-05-18T10:19:55Z</time>
      </trkpt>
      <trkpt lat="50.21926" lon="4.28722">
        <ele>220.137238</ele>
        <time>2023-05-18T10:19:57Z</time>
      </trkpt>
      <trkpt lat="50.21919" lon="4.28704">
        <ele>219.615204</ele>
        <time>2023-05-18T10:19:59Z</time>
      </trkpt>
      <trkpt lat="50.21912" lon="4.28684">
        <ele>219.054901</ele>
        <time>2023-05-18T10:20:01Z</time>
      </trkpt>
      <trkpt lat="50.21909" lon="4.28664">
        <ele>218.504852</ele>
        <time>2023-05-18T10:20:03Z</time>
      </trkpt>
      <trkpt lat="50.21908" lon="4.28644">
        <ele>217.735794</ele>
        <time>2023-05-18T10:20:05Z</time>
      </trkpt>
      <trkpt lat="50.21912" lon="4.28625">
        <ele>217.033173</ele>
        <time>2023-05-18T10:20:07Z</time>
      </trkpt>
      <trkpt lat="50.21916" lon="4.2861">
        <ele>216.44986</ele>
        <time>2023-05-18T10:20:09Z</time>
      </trkpt>
      <trkpt lat="50.2192" lon="4.28598">
        <ele>216.104889</ele>
        <time>2023-05-18T10:20:11Z</time>
      </trkpt>
      <trkpt lat="50.21925" lon="4.28597">
        <ele>215.113892</ele>
        <time>2023-05-18T10:20:13Z</time>
      </trkpt>
      <trkpt lat="50.21929" lon="4.28609">
        <ele>214.708328</ele>
        <time>2023-05-18T10:20:15Z</time>
      </trkpt>
      <trkpt lat="50.21932" lon="4.28623">
        <ele>213.989258</ele>
        <time>2023-05-18T10:20:17Z</time>
      </trkpt>
      <trkpt lat="50.21935" lon="4.28637">
        <ele>213.102982</ele>
        <time>2023-05-18T10:20:19Z</time>
      </trkpt>
      <trkpt lat="50.21939" lon="4.28651">
        <ele>212.276001</ele>
        <time>2023-05-18T10:20:21Z</time>
      </trkpt>
      <trkpt lat="50.21944" lon="4.28665">
        <ele>211.322968</ele>
        <time>2023-05-18T10:20:23Z</time>
      </trkpt>
      <trkpt lat="50.21951" lon="4.28679">
        <ele>210.425903</ele>
        <time>2023-05-18T10:20:25Z</time>
      </trkpt>
      <trkpt lat="50.21957" lon="4.28693">
        <ele>209.376877</ele>
        <time>2023-05-18T10:20:27Z</time>
      </trkpt>
      <trkpt lat="50.21961" lon="4.28705">
        <ele>208.401093</ele>
        <time>2023-05-18T10:20:29Z</time>
      </trkpt>
      <trkpt lat="50.21966" lon="4.28715">
        <ele>207.458832</ele>
        <time>2023-05-18T10:20:31Z</time>
      </trkpt>
      <trkpt lat="50.21972" lon="4.28717">
        <ele>206.50415</ele>
        <time>2023-05-18T10:20:33Z</time>
      </trkpt>
      <trkpt lat="50.21977" lon="4.28708">
        <ele>205.715576</ele>
        <time>2023-05-18T10:20:35Z</time>
      </trkpt>
      <trkpt lat="50.2198" lon="4.28696">
        <ele>204.967575</ele>
        <time>2023-05-18T10:20:37Z</time>
      </trkpt>
      <trkpt lat="50.21982" lon="4.28685">
        <ele>204.030777</ele>
        <time>2023-05-18T10:20:39Z</time>
      </trkpt>
      <trkpt lat="50.21984" lon="4.28674">
        <ele>203.242325</ele>
        <time>2023-05-18T10:20:41Z</time>
      </trkpt>
      <trkpt lat="50.21987" lon="4.28661">
        <ele>202.51181</ele>
        <time>2023-05-18T10:20:43Z</time>
      </trkpt>
      <trkpt lat="50.21989" lon="4.28652">
        <ele>202.043961</ele>
        <time>2023-05-18T10:20:45Z</time>
      </trkpt>
      <trkpt lat="50.21992" lon="4.28644">
        <ele>201.50087</ele>
        <time>2023-05-18T10:20:47Z</time>
      </trkpt>
      <trkpt lat="50.21994" lon="4.28635">
        <ele>201.016342</ele>
        <time>2023-05-18T10:20:49Z</time>
      </trkpt>
      <trkpt lat="50.21996" lon="4.28629">
        <ele>200.797028</ele>
        <time>2023-05-18T10:20:51Z</time>
      </trkpt>
      <trkpt lat="50.21999" lon="4.28623">
        <ele>200.408554</ele>
        <time>2023-05-18T10:20:53Z</time>
      </trkpt>
      <trkpt lat="50.22002" lon="4.28619">
        <ele>200.040924</ele>
        <time>2023-05-18T10:20:55Z</time>
      </trkpt>
      <trkpt lat="50.22008" lon="4.2862">
        <ele>199.794525</ele>
        <time>2023-05-18T10:20:57Z</time>
      </trkpt>
      <trkpt lat="50.22012" lon="4.28623">
        <ele>199.594025</ele>
        <time>2023-05-18T10:20:59Z</time>
      </trkpt>
      <trkpt lat="50.22018" lon="4.28624">
        <ele>199.284149</ele>
        <time>2023-05-18T10:21:01Z</time>
      </trkpt>
      <trkpt lat="50.22024" lon="4.28624">
        <ele>199.202698</ele>
        <time>2023-05-18T10:21:03Z</time>
      </trkpt>
      <trkpt lat="50.2203" lon="4.28623">
        <ele>199.127533</ele>
        <time>2023-05-18T10:21:05Z</time>
      </trkpt>
      <trkpt lat="50.22039" lon="4.28622">
        <ele>199.052765</ele>
        <time>2023-05-18T10:21:07Z</time>
      </trkpt>
      <trkpt lat="50.22047" lon="4.28623">
        <ele>199.109131</ele>
        <time>2023-05-18T10:21:09Z</time>
      </trkpt>
      <trkpt lat="50.22055" lon="4.28622">
        <ele>199.208481</ele>
        <time>2023-05-18T10:21:11Z</time>
      </trkpt>
      <trkpt lat="50.22062" lon="4.28622">
        <ele>199.352631</ele>
        <time>2023-05-18T10:21:13Z</time>
      </trkpt>
      <trkpt lat="50.2207" lon="4.28624">
        <ele>199.409897</ele>
        <time>2023-05-18T10:21:15Z</time>
      </trkpt>
      <trkpt lat="50.22079" lon="4.28624">
        <ele>199.366058</ele>
        <time>2023-05-18T10:21:17Z</time>
      </trkpt>
      <trkpt lat="50.22088" lon="4.28628">
        <ele>199.420319</ele>
        <time>2023-05-18T10:21:19Z</time>
      </trkpt>
      <trkpt lat="50.22097" lon="4.28631">
        <ele>199.449554</ele>
        <time>2023-05-18T10:21:21Z</time>
      </trkpt>
      <trkpt lat="50.22104" lon="4.28636">
        <ele>199.450012</ele>
        <time>2023-05-18T10:21:23Z</time>
      </trkpt>
      <trkpt lat="50.22113" lon="4.28639">
        <ele>199.485489</ele>
        <time>2023-05-18T10:21:25Z</time>
      </trkpt>
      <trkpt lat="50.22122" lon="4.28641">
        <ele>199.464615</ele>
        <time>2023-05-18T10:21:27Z</time>
      </trkpt>
      <trkpt lat="50.2213" lon="4.28646">
        <ele>199.383209</ele>
        <time>2023-05-18T10:21:29Z</time>
      </trkpt>
      <trkpt lat="50.22137" lon="4.28649">
        <ele>199.351898</ele>
        <time>2023-05-18T10:21:31Z</time>
      </trkpt>
      <trkpt lat="50.22143" lon="4.28654">
        <ele>199.197418</ele>
        <time>2023-05-18T10:21:33Z</time>
      </trkpt>
      <trkpt lat="50.22149" lon="4.28659">
        <ele>199.174454</ele>
        <time>2023-05-18T10:21:35Z</time>
      </trkpt>
      <trkpt lat="50.22154" lon="4.28663">
        <ele>199.118103</ele>
        <time>2023-05-18T10:21:37Z</time>
      </trkpt>
      <trkpt lat="50.22159" lon="4.28671">
        <ele>199.20163</ele>
        <time>2023-05-18T10:21:39Z</time>
      </trkpt>
      <trkpt lat="50.22164" lon="4.28681">
        <ele>198.999176</ele>
        <time>2023-05-18T10:21:41Z</time>
      </trkpt>
      <trkpt lat="50.22168" lon="4.28694">
        <ele>199.103577</ele>
        <time>2023-05-18T10:21:43Z</time>
      </trkpt>
      <trkpt lat="50.22172" lon="4.28706">
        <ele>199.090683</ele>
        <time>2023-05-18T10:21:45Z</time>
      </trkpt>
      <trkpt lat="50.22176" lon="4.28719">
        <ele>198.556915</ele>
        <time>2023-05-18T10:21:47Z</time>
      </trkpt>
      <trkpt lat="50.2218" lon="4.28731">
        <ele>198.55484</ele>
        <time>2023-05-18T10:21:49Z</time>
      </trkpt>
      <trkpt lat="50.22184" lon="4.28744">
        <ele>198.616806</ele>
        <time>2023-05-18T10:21:51Z</time>
      </trkpt>
      <trkpt lat="50.22189" lon="4.28756">
        <ele>198.79422</ele>
        <time>2023-05-18T10:21:53Z</time>
      </trkpt>
      <trkpt lat="50.22194" lon="4.28769">
        <ele>198.877731</ele>
        <time>2023-05-18T10:21:55Z</time>
      </trkpt>
      <trkpt lat="50.22198" lon="4.28782">
        <ele>198.996124</ele>
        <time>2023-05-18T10:21:57Z</time>
      </trkpt>
      <trkpt lat="50.22201" lon="4.28795">
        <ele>199.014923</ele>
        <time>2023-05-18T10:21:59Z</time>
      </trkpt>
      <trkpt lat="50.22205" lon="4.28807">
        <ele>199.062943</ele>
        <time>2023-05-18T10:22:01Z</time>
      </trkpt>
      <trkpt lat="50.22208" lon="4.28819">
        <ele>199.336456</ele>
        <time>2023-05-18T10:22:03Z</time>
      </trkpt>
      <trkpt lat="50.22212" lon="4.28831">
        <ele>199.473206</ele>
        <time>2023-05-18T10:22:05Z</time>
      </trkpt>
      <trkpt lat="50.22215" lon="4.28844">
        <ele>199.573425</ele>
        <time>2023-05-18T10:22:07Z</time>
      </trkpt>
      <trkpt lat="50.22217" lon="4.28856">
        <ele>199.717484</ele>
        <time>2023-05-18T10:22:09Z</time>
      </trkpt>
      <trkpt lat="50.22217" lon="4.28868">
        <ele>199.956696</ele>
        <time>2023-05-18T10:22:11Z</time>
      </trkpt>
      <trkpt lat="50.22221" lon="4.28878">
        <ele>200.073593</ele>
        <time>2023-05-18T10:22:13Z</time>
      </trkpt>
      <trkpt lat="50.22224" lon="4.28889">
        <ele>200.26358</ele>
        <time>2023-05-18T10:22:15Z</time>
      </trkpt>
      <trkpt lat="50.22228" lon="4.28901">
        <ele>200.299103</ele>
        <time>2023-05-18T10:22:17Z</time>
      </trkpt>
      <trkpt lat="50.2223" lon="4.28915">
        <ele>200.300827</ele>
        <time>2023-05-18T10:22:19Z</time>
      </trkpt>
      <trkpt lat="50.22234" lon="4.28928">
        <ele>200.432281</ele>
        <time>2023-05-18T10:22:21Z</time>
      </trkpt>
      <trkpt lat="50.22236" lon="4.28942">
        <ele>200.380096</ele>
        <time>2023-05-18T10:22:23Z</time>
      </trkpt>
      <trkpt lat="50.22237" lon="4.28955">
        <ele>200.388428</ele>
        <time>2023-05-18T10:22:25Z</time>
      </trkpt>
      <trkpt lat="50.22239" lon="4.28968">
        <ele>200.251022</ele>
        <time>2023-05-18T10:22:27Z</time>
      </trkpt>
      <trkpt lat="50.2224" lon="4.28981">
        <ele>200.76915</ele>
        <time>2023-05-18T10:22:29Z</time>
      </trkpt>
      <trkpt lat="50.2224" lon="4.28992">
        <ele>200.631363</ele>
        <time>2023-05-18T10:22:31Z</time>
      </trkpt>
      <trkpt lat="50.22241" lon="4.29004">
        <ele>200.438721</ele>
        <time>2023-05-18T10:22:33Z</time>
      </trkpt>
      <trkpt lat="50.22242" lon="4.29016">
        <ele>200.198593</ele>
        <time>2023-05-18T10:22:35Z</time>
      </trkpt>
      <trkpt lat="50.2224" lon="4.29029">
        <ele>200.060822</ele>
        <time>2023-05-18T10:22:37Z</time>
      </trkpt>
      <trkpt lat="50.22233" lon="4.2904">
        <ele>199.948685</ele>
        <time>2023-05-18T10:22:39Z</time>
      </trkpt>
      <trkpt lat="50.22228" lon="4.29053">
        <ele>199.912933</ele>
        <time>2023-05-18T10:22:41Z</time>
      </trkpt>
      <trkpt lat="50.22222" lon="4.29067">
        <ele>199.779312</ele>
        <time>2023-05-18T10:22:43Z</time>
      </trkpt>
      <trkpt lat="50.22216" lon="4.2908">
        <ele>199.973785</ele>
        <time>2023-05-18T10:22:45Z</time>
      </trkpt>
      <trkpt lat="50.2221" lon="4.29094">
        <ele>199.79007</ele>
        <time>2023-05-18T10:22:47Z</time>
      </trkpt>
      <trkpt lat="50.22204" lon="4.29107">
        <ele>199.591736</ele>
        <time>2023-05-18T10:22:49Z</time>
      </trkpt>
      <trkpt lat="50.22199" lon="4.2912">
        <ele>199.30661</ele>
        <time>2023-05-18T10:22:51Z</time>
      </trkpt>
      <trkpt lat="50.22193" lon="4.29133">
        <ele>199.187607</ele>
        <time>2023-05-18T10:22:53Z</time>
      </trkpt>
      <trkpt lat="50.22187" lon="4.29145">
        <ele>198.991364</ele>
        <time>2023-05-18T10:22:55Z</time>
      </trkpt>
      <trkpt lat="50.22181" lon="4.29156">
        <ele>198.879089</ele>
        <time>2023-05-18T10:22:57Z</time>
      </trkpt>
      <trkpt lat="50.22175" lon="4.29165">
        <ele>197.959534</ele>
        <time>2023-05-18T10:22:59Z</time>
      </trkpt>
      <trkpt lat="50.22171" lon="4.29171">
        <ele>197.694443</ele>
        <time>2023-05-18T10:23:01Z</time>
      </trkpt>
      <trkpt lat="50.22163" lon="4.29175">
        <ele>197.456512</ele>
        <time>2023-05-18T10:23:03Z</time>
      </trkpt>
      <trkpt lat="50.22156" lon="4.29176">
        <ele>197.208115</ele>
        <time>2023-05-18T10:23:05Z</time>
      </trkpt>
      <trkpt lat="50.2215" lon="4.29175">
        <ele>197.047394</ele>
        <time>2023-05-18T10:23:07Z</time>
      </trkpt>
      <trkpt lat="50.22144" lon="4.29174">
        <ele>196.982681</ele>
        <time>2023-05-18T10:23:09Z</time>
      </trkpt>
      <trkpt lat="50.2214" lon="4.29173">
        <ele>196.841766</ele>
        <time>2023-05-18T10:23:11Z</time>
      </trkpt>
      <trkpt lat="50.22136" lon="4.29172">
        <ele>197.24295</ele>
        <time>2023-05-18T10:23:13Z</time>
      </trkpt>
      <trkpt lat="50.22134" lon="4.29172">
        <ele>197.239517</ele>
        <time>2023-05-18T10:23:15Z</time>
      </trkpt>
      <trkpt lat="50.22131" lon="4.29172">
        <ele>197.195679</ele>
        <time>2023-05-18T10:23:17Z</time>
      </trkpt>
      <trkpt lat="50.22129" lon="4.29175">
        <ele>197.103836</ele>
        <time>2023-05-18T10:23:19Z</time>
      </trkpt>
      <trkpt lat="50.22126" lon="4.29179">
        <ele>197.062347</ele>
        <time>2023-05-18T10:23:21Z</time>
      </trkpt>
      <trkpt lat="50.22124" lon="4.29181">
        <ele>197.081131</ele>
        <time>2023-05-18T10:23:23Z</time>
      </trkpt>
      <trkpt lat="50.22123" lon="4.29185">
        <ele>197.085297</ele>
        <time>2023-05-18T10:23:25Z</time>
      </trkpt>
      <trkpt lat="50.22122" lon="4.29187">
        <ele>196.694534</ele>
        <time>2023-05-18T10:23:27Z</time>
      </trkpt>
      <trkpt lat="50.22121" lon="4.29189">
        <ele>196.677826</ele>
        <time>2023-05-18T10:23:29Z</time>
      </trkpt>
      <trkpt lat="50.22121" lon="4.29189">
        <ele>197.064011</ele>
        <time>2023-05-18T10:23:33Z</time>
      </trkpt>
      <trkpt lat="50.2212" lon="4.29192">
        <ele>197.233124</ele>
        <time>2023-05-18T10:23:35Z</time>
      </trkpt>
      <trkpt lat="50.22119" lon="4.29193">
        <ele>197.481094</ele>
        <time>2023-05-18T10:23:37Z</time>
      </trkpt>
      <trkpt lat="50.22118" lon="4.29195">
        <ele>198.334198</ele>
        <time>2023-05-18T10:23:39Z</time>
      </trkpt>
      <trkpt lat="50.22117" lon="4.29197">
        <ele>198.486572</ele>
        <time>2023-05-18T10:23:41Z</time>
      </trkpt>
      <trkpt lat="50.22117" lon="4.29199">
        <ele>198.822662</ele>
        <time>2023-05-18T10:23:43Z</time>
      </trkpt>
      <trkpt lat="50.22117" lon="4.29201">
        <ele>199.254776</ele>
        <time>2023-05-18T10:23:45Z</time>
      </trkpt>
      <trkpt lat="50.22116" lon="4.29203">
        <ele>199.628464</ele>
        <time>2023-05-18T10:23:47Z</time>
      </trkpt>
      <trkpt lat="50.22116" lon="4.29205">
        <ele>199.985489</ele>
        <time>2023-05-18T10:23:49Z</time>
      </trkpt>
      <trkpt lat="50.22117" lon="4.29207">
        <ele>200.34726</ele>
        <time>2023-05-18T10:23:51Z</time>
      </trkpt>
      <trkpt lat="50.22116" lon="4.29209">
        <ele>200.244659</ele>
        <time>2023-05-18T10:23:53Z</time>
      </trkpt>
      <trkpt lat="50.22116" lon="4.29211">
        <ele>200.634369</ele>
        <time>2023-05-18T10:23:55Z</time>
      </trkpt>
      <trkpt lat="50.22116" lon="4.29215">
        <ele>201.488388</ele>
        <time>2023-05-18T10:23:59Z</time>
      </trkpt>
      <trkpt lat="50.22116" lon="4.29217">
        <ele>201.943634</ele>
        <time>2023-05-18T10:24:01Z</time>
      </trkpt>
      <trkpt lat="50.22116" lon="4.2922">
        <ele>202.436508</ele>
        <time>2023-05-18T10:24:03Z</time>
      </trkpt>
      <trkpt lat="50.22116" lon="4.29222">
        <ele>202.898026</ele>
        <time>2023-05-18T10:24:05Z</time>
      </trkpt>
      <trkpt lat="50.22115" lon="4.29226">
        <ele>203.797348</ele>
        <time>2023-05-18T10:24:09Z</time>
      </trkpt>
      <trkpt lat="50.22114" lon="4.29229">
        <ele>204.246414</ele>
        <time>2023-05-18T10:24:11Z</time>
      </trkpt>
      <trkpt lat="50.22113" lon="4.29232">
        <ele>204.482437</ele>
        <time>2023-05-18T10:24:13Z</time>
      </trkpt>
      <trkpt lat="50.22113" lon="4.29234">
        <ele>204.964966</ele>
        <time>2023-05-18T10:24:15Z</time>
      </trkpt>
      <trkpt lat="50.22112" lon="4.29239">
        <ele>205.853027</ele>
        <time>2023-05-18T10:24:19Z</time>
      </trkpt>
      <trkpt lat="50.22113" lon="4.29241">
        <ele>206.338791</ele>
        <time>2023-05-18T10:24:21Z</time>
      </trkpt>
      <trkpt lat="50.22113" lon="4.29244">
        <ele>206.856903</ele>
        <time>2023-05-18T10:24:23Z</time>
      </trkpt>
      <trkpt lat="50.22113" lon="4.29245">
        <ele>207.339111</ele>
        <time>2023-05-18T10:24:25Z</time>
      </trkpt>
      <trkpt lat="50.22113" lon="4.29247">
        <ele>207.840546</ele>
        <time>2023-05-18T10:24:27Z</time>
      </trkpt>
      <trkpt lat="50.22112" lon="4.2925">
        <ele>208.333664</ele>
        <time>2023-05-18T10:24:29Z</time>
      </trkpt>
      <trkpt lat="50.22112" lon="4.29252">
        <ele>208.819916</ele>
        <time>2023-05-18T10:24:31Z</time>
      </trkpt>
      <trkpt lat="50.22112" lon="4.29255">
        <ele>209.239944</ele>
        <time>2023-05-18T10:24:33Z</time>
      </trkpt>
      <trkpt lat="50.22111" lon="4.29256">
        <ele>209.743561</ele>
        <time>2023-05-18T10:24:35Z</time>
      </trkpt>
      <trkpt lat="50.2211" lon="4.29258">
        <ele>210.182373</ele>
        <time>2023-05-18T10:24:37Z</time>
      </trkpt>
      <trkpt lat="50.22109" lon="4.29261">
        <ele>210.635864</ele>
        <time>2023-05-18T10:24:39Z</time>
      </trkpt>
      <trkpt lat="50.22108" lon="4.29263">
        <ele>211.03714</ele>
        <time>2023-05-18T10:24:41Z</time>
      </trkpt>
      <trkpt lat="50.22108" lon="4.29267">
        <ele>211.348557</ele>
        <time>2023-05-18T10:24:43Z</time>
      </trkpt>
      <trkpt lat="50.22107" lon="4.29271">
        <ele>211.73938</ele>
        <time>2023-05-18T10:24:45Z</time>
      </trkpt>
      <trkpt lat="50.22106" lon="4.29273">
        <ele>212.073807</ele>
        <time>2023-05-18T10:24:47Z</time>
      </trkpt>
      <trkpt lat="50.22105" lon="4.29281">
        <ele>213.489716</ele>
        <time>2023-05-18T10:24:55Z</time>
      </trkpt>
      <trkpt lat="50.22104" lon="4.29284">
        <ele>213.845673</ele>
        <time>2023-05-18T10:24:57Z</time>
      </trkpt>
      <trkpt lat="50.22104" lon="4.29286">
        <ele>213.70723</ele>
        <time>2023-05-18T10:24:59Z</time>
      </trkpt>
      <trkpt lat="50.22104" lon="4.29289">
        <ele>213.952805</ele>
        <time>2023-05-18T10:25:01Z</time>
      </trkpt>
      <trkpt lat="50.22104" lon="4.29294">
        <ele>213.656296</ele>
        <time>2023-05-18T10:25:03Z</time>
      </trkpt>
      <trkpt lat="50.22103" lon="4.29298">
        <ele>213.972412</ele>
        <time>2023-05-18T10:25:05Z</time>
      </trkpt>
      <trkpt lat="50.22102" lon="4.29301">
        <ele>214.263031</ele>
        <time>2023-05-18T10:25:07Z</time>
      </trkpt>
      <trkpt lat="50.22101" lon="4.29303">
        <ele>214.541138</ele>
        <time>2023-05-18T10:25:09Z</time>
      </trkpt>
      <trkpt lat="50.22098" lon="4.29311">
        <ele>215.444427</ele>
        <time>2023-05-18T10:25:17Z</time>
      </trkpt>
      <trkpt lat="50.22097" lon="4.29315">
        <ele>215.94632</ele>
        <time>2023-05-18T10:25:21Z</time>
      </trkpt>
      <trkpt lat="50.22096" lon="4.29318">
        <ele>216.172165</ele>
        <time>2023-05-18T10:25:23Z</time>
      </trkpt>
      <trkpt lat="50.22094" lon="4.2932">
        <ele>216.471222</ele>
        <time>2023-05-18T10:25:25Z</time>
      </trkpt>
      <trkpt lat="50.22093" lon="4.29324">
        <ele>216.686615</ele>
        <time>2023-05-18T10:25:27Z</time>
      </trkpt>
      <trkpt lat="50.22092" lon="4.29326">
        <ele>216.923126</ele>
        <time>2023-05-18T10:25:29Z</time>
      </trkpt>
      <trkpt lat="50.22091" lon="4.29328">
        <ele>217.180374</ele>
        <time>2023-05-18T10:25:31Z</time>
      </trkpt>
      <trkpt lat="50.2209" lon="4.2933">
        <ele>217.326782</ele>
        <time>2023-05-18T10:25:33Z</time>
      </trkpt>
      <trkpt lat="50.22088" lon="4.29332">
        <ele>217.521317</ele>
        <time>2023-05-18T10:25:35Z</time>
      </trkpt>
      <trkpt lat="50.22086" lon="4.29335">
        <ele>217.73465</ele>
        <time>2023-05-18T10:25:37Z</time>
      </trkpt>
      <trkpt lat="50.22084" lon="4.29337">
        <ele>218.438919</ele>
        <time>2023-05-18T10:25:39Z</time>
      </trkpt>
      <trkpt lat="50.22083" lon="4.29339">
        <ele>218.654343</ele>
        <time>2023-05-18T10:25:41Z</time>
      </trkpt>
      <trkpt lat="50.22081" lon="4.29343">
        <ele>219.781128</ele>
        <time>2023-05-18T10:25:45Z</time>
      </trkpt>
      <trkpt lat="50.2208" lon="4.29346">
        <ele>219.996582</ele>
        <time>2023-05-18T10:25:47Z</time>
      </trkpt>
      <trkpt lat="50.22078" lon="4.29349">
        <ele>220.285309</ele>
        <time>2023-05-18T10:25:49Z</time>
      </trkpt>
      <trkpt lat="50.22077" lon="4.29351">
        <ele>220.540497</ele>
        <time>2023-05-18T10:25:51Z</time>
      </trkpt>
      <trkpt lat="50.22075" lon="4.29355">
        <ele>220.770599</ele>
        <time>2023-05-18T10:25:53Z</time>
      </trkpt>
      <trkpt lat="50.22073" lon="4.29357">
        <ele>221.013275</ele>
        <time>2023-05-18T10:25:55Z</time>
      </trkpt>
      <trkpt lat="50.22072" lon="4.29359">
        <ele>221.247559</ele>
        <time>2023-05-18T10:25:57Z</time>
      </trkpt>
      <trkpt lat="50.22071" lon="4.29364">
        <ele>221.3396</ele>
        <time>2023-05-18T10:25:59Z</time>
      </trkpt>
      <trkpt lat="50.2207" lon="4.2937">
        <ele>221.431641</ele>
        <time>2023-05-18T10:26:01Z</time>
      </trkpt>
      <trkpt lat="50.2207" lon="4.29376">
        <ele>221.519531</ele>
        <time>2023-05-18T10:26:03Z</time>
      </trkpt>
      <trkpt lat="50.22072" lon="4.29383">
        <ele>221.596924</ele>
        <time>2023-05-18T10:26:05Z</time>
      </trkpt>
      <trkpt lat="50.22073" lon="4.29393">
        <ele>221.626221</ele>
        <time>2023-05-18T10:26:07Z</time>
      </trkpt>
      <trkpt lat="50.22075" lon="4.29402">
        <ele>221.699432</ele>
        <time>2023-05-18T10:26:09Z</time>
      </trkpt>
      <trkpt lat="50.22077" lon="4.29412">
        <ele>221.686127</ele>
        <time>2023-05-18T10:26:11Z</time>
      </trkpt>
      <trkpt lat="50.22078" lon="4.29423">
        <ele>221.690308</ele>
        <time>2023-05-18T10:26:13Z</time>
      </trkpt>
      <trkpt lat="50.2208" lon="4.29434">
        <ele>221.633835</ele>
        <time>2023-05-18T10:26:15Z</time>
      </trkpt>
      <trkpt lat="50.22081" lon="4.29445">
        <ele>221.566895</ele>
        <time>2023-05-18T10:26:17Z</time>
      </trkpt>
      <trkpt lat="50.22083" lon="4.29456">
        <ele>221.465118</ele>
        <time>2023-05-18T10:26:19Z</time>
      </trkpt>
      <trkpt lat="50.22084" lon="4.29467">
        <ele>221.481857</ele>
        <time>2023-05-18T10:26:21Z</time>
      </trkpt>
      <trkpt lat="50.22086" lon="4.29479">
        <ele>221.343796</ele>
        <time>2023-05-18T10:26:23Z</time>
      </trkpt>
      <trkpt lat="50.22088" lon="4.2949">
        <ele>221.184784</ele>
        <time>2023-05-18T10:26:25Z</time>
      </trkpt>
      <trkpt lat="50.22089" lon="4.29501">
        <ele>221.10849</ele>
        <time>2023-05-18T10:26:27Z</time>
      </trkpt>
      <trkpt lat="50.22091" lon="4.29511">
        <ele>220.99295</ele>
        <time>2023-05-18T10:26:29Z</time>
      </trkpt>
      <trkpt lat="50.22093" lon="4.29522">
        <ele>220.932205</ele>
        <time>2023-05-18T10:26:31Z</time>
      </trkpt>
      <trkpt lat="50.22094" lon="4.29534">
        <ele>220.913528</ele>
        <time>2023-05-18T10:26:33Z</time>
      </trkpt>
      <trkpt lat="50.22094" lon="4.29547">
        <ele>220.946991</ele>
        <time>2023-05-18T10:26:35Z</time>
      </trkpt>
      <trkpt lat="50.22096" lon="4.29559">
        <ele>220.999313</ele>
        <time>2023-05-18T10:26:37Z</time>
      </trkpt>
      <trkpt lat="50.22097" lon="4.29571">
        <ele>221.106033</ele>
        <time>2023-05-18T10:26:39Z</time>
      </trkpt>
      <trkpt lat="50.22098" lon="4.29583">
        <ele>221.378052</ele>
        <time>2023-05-18T10:26:41Z</time>
      </trkpt>
      <trkpt lat="50.22098" lon="4.29596">
        <ele>221.589386</ele>
        <time>2023-05-18T10:26:43Z</time>
      </trkpt>
      <trkpt lat="50.22098" lon="4.29609">
        <ele>221.790283</ele>
        <time>2023-05-18T10:26:45Z</time>
      </trkpt>
      <trkpt lat="50.22099" lon="4.29622">
        <ele>222.072784</ele>
        <time>2023-05-18T10:26:47Z</time>
      </trkpt>
      <trkpt lat="50.22099" lon="4.29635">
        <ele>222.355255</ele>
        <time>2023-05-18T10:26:49Z</time>
      </trkpt>
      <trkpt lat="50.22098" lon="4.29648">
        <ele>222.65239</ele>
        <time>2023-05-18T10:26:51Z</time>
      </trkpt>
      <trkpt lat="50.22099" lon="4.29661">
        <ele>222.868439</ele>
        <time>2023-05-18T10:26:53Z</time>
      </trkpt>
      <trkpt lat="50.22099" lon="4.29674">
        <ele>223.19278</ele>
        <time>2023-05-18T10:26:55Z</time>
      </trkpt>
      <trkpt lat="50.22099" lon="4.29688">
        <ele>223.47525</ele>
        <time>2023-05-18T10:26:57Z</time>
      </trkpt>
      <trkpt lat="50.22099" lon="4.29703">
        <ele>223.634277</ele>
        <time>2023-05-18T10:26:59Z</time>
      </trkpt>
      <trkpt lat="50.221" lon="4.29717">
        <ele>223.995483</ele>
        <time>2023-05-18T10:27:01Z</time>
      </trkpt>
      <trkpt lat="50.221" lon="4.2973">
        <ele>224.127319</ele>
        <time>2023-05-18T10:27:03Z</time>
      </trkpt>
      <trkpt lat="50.22099" lon="4.29744">
        <ele>224.514404</ele>
        <time>2023-05-18T10:27:05Z</time>
      </trkpt>
      <trkpt lat="50.221" lon="4.29758">
        <ele>224.647186</ele>
        <time>2023-05-18T10:27:07Z</time>
      </trkpt>
      <trkpt lat="50.22101" lon="4.29772">
        <ele>224.850616</ele>
        <time>2023-05-18T10:27:09Z</time>
      </trkpt>
      <trkpt lat="50.22102" lon="4.29786">
        <ele>225.047394</ele>
        <time>2023-05-18T10:27:11Z</time>
      </trkpt>
      <trkpt lat="50.22103" lon="4.29798">
        <ele>225.256516</ele>
        <time>2023-05-18T10:27:13Z</time>
      </trkpt>
      <trkpt lat="50.22104" lon="4.2981">
        <ele>225.455353</ele>
        <time>2023-05-18T10:27:15Z</time>
      </trkpt>
      <trkpt lat="50.22105" lon="4.29822">
        <ele>225.574661</ele>
        <time>2023-05-18T10:27:17Z</time>
      </trkpt>
      <trkpt lat="50.22106" lon="4.29833">
        <ele>225.660446</ele>
        <time>2023-05-18T10:27:19Z</time>
      </trkpt>
      <trkpt lat="50.22107" lon="4.29844">
        <ele>225.714874</ele>
        <time>2023-05-18T10:27:21Z</time>
      </trkpt>
      <trkpt lat="50.22109" lon="4.29854">
        <ele>225.6772</ele>
        <time>2023-05-18T10:27:23Z</time>
      </trkpt>
      <trkpt lat="50.22114" lon="4.29863">
        <ele>225.675095</ele>
        <time>2023-05-18T10:27:25Z</time>
      </trkpt>
      <trkpt lat="50.22121" lon="4.29871">
        <ele>225.570465</ele>
        <time>2023-05-18T10:27:27Z</time>
      </trkpt>
      <trkpt lat="50.22131" lon="4.29879">
        <ele>225.597687</ele>
        <time>2023-05-18T10:27:29Z</time>
      </trkpt>
      <trkpt lat="50.22142" lon="4.29888">
        <ele>225.560013</ele>
        <time>2023-05-18T10:27:31Z</time>
      </trkpt>
      <trkpt lat="50.22154" lon="4.29896">
        <ele>225.633255</ele>
        <time>2023-05-18T10:27:33Z</time>
      </trkpt>
      <trkpt lat="50.22167" lon="4.29903">
        <ele>225.668854</ele>
        <time>2023-05-18T10:27:35Z</time>
      </trkpt>
      <trkpt lat="50.2218" lon="4.29908">
        <ele>225.524445</ele>
        <time>2023-05-18T10:27:37Z</time>
      </trkpt>
      <trkpt lat="50.22192" lon="4.29912">
        <ele>225.472122</ele>
        <time>2023-05-18T10:27:39Z</time>
      </trkpt>
      <trkpt lat="50.22204" lon="4.29915">
        <ele>225.468292</ele>
        <time>2023-05-18T10:27:41Z</time>
      </trkpt>
      <trkpt lat="50.22214" lon="4.2992">
        <ele>225.428101</ele>
        <time>2023-05-18T10:27:43Z</time>
      </trkpt>
      <trkpt lat="50.22222" lon="4.2993">
        <ele>225.286163</ele>
        <time>2023-05-18T10:27:45Z</time>
      </trkpt>
      <trkpt lat="50.22227" lon="4.29944">
        <ele>225.25058</ele>
        <time>2023-05-18T10:27:47Z</time>
      </trkpt>
      <trkpt lat="50.22232" lon="4.29958">
        <ele>225.240143</ele>
        <time>2023-05-18T10:27:49Z</time>
      </trkpt>
      <trkpt lat="50.22238" lon="4.2997">
        <ele>225.133392</ele>
        <time>2023-05-18T10:27:51Z</time>
      </trkpt>
      <trkpt lat="50.22247" lon="4.29978">
        <ele>225.03714</ele>
        <time>2023-05-18T10:27:53Z</time>
      </trkpt>
      <trkpt lat="50.22255" lon="4.29982">
        <ele>224.878052</ele>
        <time>2023-05-18T10:27:55Z</time>
      </trkpt>
      <trkpt lat="50.22265" lon="4.29989">
        <ele>224.693893</ele>
        <time>2023-05-18T10:27:57Z</time>
      </trkpt>
      <trkpt lat="50.22273" lon="4.3">
        <ele>224.518097</ele>
        <time>2023-05-18T10:27:59Z</time>
      </trkpt>
      <trkpt lat="50.22281" lon="4.30009">
        <ele>224.376312</ele>
        <time>2023-05-18T10:28:01Z</time>
      </trkpt>
      <trkpt lat="50.22291" lon="4.30016">
        <ele>224.294724</ele>
        <time>2023-05-18T10:28:03Z</time>
      </trkpt>
      <trkpt lat="50.223" lon="4.30023">
        <ele>224.20047</ele>
        <time>2023-05-18T10:28:05Z</time>
      </trkpt>
      <trkpt lat="50.22311" lon="4.30026">
        <ele>224.240234</ele>
        <time>2023-05-18T10:28:07Z</time>
      </trkpt>
      <trkpt lat="50.22324" lon="4.30027">
        <ele>224.028885</ele>
        <time>2023-05-18T10:28:09Z</time>
      </trkpt>
      <trkpt lat="50.2234" lon="4.30025">
        <ele>223.627167</ele>
        <time>2023-05-18T10:28:11Z</time>
      </trkpt>
      <trkpt lat="50.22355" lon="4.30023">
        <ele>223.568558</ele>
        <time>2023-05-18T10:28:13Z</time>
      </trkpt>
      <trkpt lat="50.22368" lon="4.30027">
        <ele>223.46904</ele>
        <time>2023-05-18T10:28:15Z</time>
      </trkpt>
      <trkpt lat="50.22373" lon="4.3004">
        <ele>222.781204</ele>
        <time>2023-05-18T10:28:17Z</time>
      </trkpt>
      <trkpt lat="50.22379" lon="4.30058">
        <ele>222.910934</ele>
        <time>2023-05-18T10:28:19Z</time>
      </trkpt>
      <trkpt lat="50.22382" lon="4.30074">
        <ele>222.782928</ele>
        <time>2023-05-18T10:28:21Z</time>
      </trkpt>
      <trkpt lat="50.22389" lon="4.30084">
        <ele>222.869171</ele>
        <time>2023-05-18T10:28:23Z</time>
      </trkpt>
      <trkpt lat="50.22398" lon="4.30092">
        <ele>222.829758</ele>
        <time>2023-05-18T10:28:25Z</time>
      </trkpt>
      <trkpt lat="50.2241" lon="4.301">
        <ele>222.796295</ele>
        <time>2023-05-18T10:28:27Z</time>
      </trkpt>
      <trkpt lat="50.22419" lon="4.30105">
        <ele>222.772461</ele>
        <time>2023-05-18T10:28:29Z</time>
      </trkpt>
      <trkpt lat="50.22427" lon="4.30114">
        <ele>222.609009</ele>
        <time>2023-05-18T10:28:31Z</time>
      </trkpt>
      <trkpt lat="50.2244" lon="4.30124">
        <ele>222.583817</ele>
        <time>2023-05-18T10:28:33Z</time>
      </trkpt>
      <trkpt lat="50.22453" lon="4.30133">
        <ele>222.376678</ele>
        <time>2023-05-18T10:28:35Z</time>
      </trkpt>
      <trkpt lat="50.22467" lon="4.30143">
        <ele>222.046173</ele>
        <time>2023-05-18T10:28:37Z</time>
      </trkpt>
      <trkpt lat="50.22477" lon="4.30153">
        <ele>221.855789</ele>
        <time>2023-05-18T10:28:39Z</time>
      </trkpt>
      <trkpt lat="50.22487" lon="4.30171">
        <ele>221.794708</ele>
        <time>2023-05-18T10:28:41Z</time>
      </trkpt>
      <trkpt lat="50.22498" lon="4.3019">
        <ele>221.618439</ele>
        <time>2023-05-18T10:28:43Z</time>
      </trkpt>
      <trkpt lat="50.22509" lon="4.30207">
        <ele>221.214722</ele>
        <time>2023-05-18T10:28:45Z</time>
      </trkpt>
      <trkpt lat="50.22519" lon="4.30228">
        <ele>220.838181</ele>
        <time>2023-05-18T10:28:47Z</time>
      </trkpt>
      <trkpt lat="50.22526" lon="4.30244">
        <ele>220.4366</ele>
        <time>2023-05-18T10:28:49Z</time>
      </trkpt>
      <trkpt lat="50.22533" lon="4.30259">
        <ele>220.334549</ele>
        <time>2023-05-18T10:28:51Z</time>
      </trkpt>
      <trkpt lat="50.2254" lon="4.30273">
        <ele>219.981049</ele>
        <time>2023-05-18T10:28:53Z</time>
      </trkpt>
      <trkpt lat="50.22545" lon="4.30284">
        <ele>219.537628</ele>
        <time>2023-05-18T10:28:55Z</time>
      </trkpt>
      <trkpt lat="50.22549" lon="4.30294">
        <ele>219.607452</ele>
        <time>2023-05-18T10:28:57Z</time>
      </trkpt>
      <trkpt lat="50.22554" lon="4.30303">
        <ele>219.095001</ele>
        <time>2023-05-18T10:28:59Z</time>
      </trkpt>
      <trkpt lat="50.22555" lon="4.30312">
        <ele>218.558807</ele>
        <time>2023-05-18T10:29:01Z</time>
      </trkpt>
      <trkpt lat="50.22555" lon="4.30319">
        <ele>217.991989</ele>
        <time>2023-05-18T10:29:03Z</time>
      </trkpt>
      <trkpt lat="50.22552" lon="4.30327">
        <ele>217.548218</ele>
        <time>2023-05-18T10:29:05Z</time>
      </trkpt>
      <trkpt lat="50.2255" lon="4.30335">
        <ele>217.062302</ele>
        <time>2023-05-18T10:29:07Z</time>
      </trkpt>
      <trkpt lat="50.22548" lon="4.30344">
        <ele>216.828827</ele>
        <time>2023-05-18T10:29:09Z</time>
      </trkpt>
      <trkpt lat="50.22546" lon="4.30353">
        <ele>216.37056</ele>
        <time>2023-05-18T10:29:11Z</time>
      </trkpt>
      <trkpt lat="50.22543" lon="4.30361">
        <ele>216.013062</ele>
        <time>2023-05-18T10:29:13Z</time>
      </trkpt>
      <trkpt lat="50.22541" lon="4.30369">
        <ele>215.682663</ele>
        <time>2023-05-18T10:29:15Z</time>
      </trkpt>
      <trkpt lat="50.2254" lon="4.30378">
        <ele>215.486084</ele>
        <time>2023-05-18T10:29:17Z</time>
      </trkpt>
      <trkpt lat="50.2254" lon="4.30387">
        <ele>215.206863</ele>
        <time>2023-05-18T10:29:19Z</time>
      </trkpt>
      <trkpt lat="50.2254" lon="4.30397">
        <ele>214.863922</ele>
        <time>2023-05-18T10:29:21Z</time>
      </trkpt>
      <trkpt lat="50.22539" lon="4.30406">
        <ele>214.533936</ele>
        <time>2023-05-18T10:29:23Z</time>
      </trkpt>
      <trkpt lat="50.22538" lon="4.30416">
        <ele>214.274658</ele>
        <time>2023-05-18T10:29:25Z</time>
      </trkpt>
      <trkpt lat="50.22537" lon="4.30425">
        <ele>214.10527</ele>
        <time>2023-05-18T10:29:27Z</time>
      </trkpt>
      <trkpt lat="50.22536" lon="4.30434">
        <ele>214.027924</ele>
        <time>2023-05-18T10:29:29Z</time>
      </trkpt>
      <trkpt lat="50.22535" lon="4.30443">
        <ele>213.85112</ele>
        <time>2023-05-18T10:29:31Z</time>
      </trkpt>
      <trkpt lat="50.22534" lon="4.30452">
        <ele>213.681763</ele>
        <time>2023-05-18T10:29:33Z</time>
      </trkpt>
      <trkpt lat="50.22532" lon="4.3046">
        <ele>213.631592</ele>
        <time>2023-05-18T10:29:35Z</time>
      </trkpt>
      <trkpt lat="50.22532" lon="4.30468">
        <ele>213.554245</ele>
        <time>2023-05-18T10:29:37Z</time>
      </trkpt>
      <trkpt lat="50.2253" lon="4.30477">
        <ele>213.524979</ele>
        <time>2023-05-18T10:29:39Z</time>
      </trkpt>
      <trkpt lat="50.22529" lon="4.30486">
        <ele>213.506149</ele>
        <time>2023-05-18T10:29:41Z</time>
      </trkpt>
      <trkpt lat="50.22529" lon="4.30494">
        <ele>213.410721</ele>
        <time>2023-05-18T10:29:43Z</time>
      </trkpt>
      <trkpt lat="50.22527" lon="4.30504">
        <ele>213.421173</ele>
        <time>2023-05-18T10:29:45Z</time>
      </trkpt>
      <trkpt lat="50.22527" lon="4.30513">
        <ele>213.325348</ele>
        <time>2023-05-18T10:29:47Z</time>
      </trkpt>
      <trkpt lat="50.22526" lon="4.30522">
        <ele>213.259186</ele>
        <time>2023-05-18T10:29:49Z</time>
      </trkpt>
      <trkpt lat="50.22525" lon="4.30532">
        <ele>213.238495</ele>
        <time>2023-05-18T10:29:51Z</time>
      </trkpt>
      <trkpt lat="50.22524" lon="4.3054">
        <ele>213.156982</ele>
        <time>2023-05-18T10:29:53Z</time>
      </trkpt>
      <trkpt lat="50.22523" lon="4.30548">
        <ele>213.196701</ele>
        <time>2023-05-18T10:29:55Z</time>
      </trkpt>
      <trkpt lat="50.22522" lon="4.30558">
        <ele>213.240601</ele>
        <time>2023-05-18T10:29:57Z</time>
      </trkpt>
      <trkpt lat="50.22521" lon="4.30568">
        <ele>213.198776</ele>
        <time>2023-05-18T10:29:59Z</time>
      </trkpt>
      <trkpt lat="50.22521" lon="4.30577">
        <ele>213.183441</ele>
        <time>2023-05-18T10:30:01Z</time>
      </trkpt>
      <trkpt lat="50.2252" lon="4.30586">
        <ele>213.227493</ele>
        <time>2023-05-18T10:30:03Z</time>
      </trkpt>
      <trkpt lat="50.22519" lon="4.30595">
        <ele>213.181519</ele>
        <time>2023-05-18T10:30:05Z</time>
      </trkpt>
      <trkpt lat="50.22519" lon="4.30604">
        <ele>213.193558</ele>
        <time>2023-05-18T10:30:07Z</time>
      </trkpt>
      <trkpt lat="50.22518" lon="4.30612">
        <ele>213.10994</ele>
        <time>2023-05-18T10:30:09Z</time>
      </trkpt>
      <trkpt lat="50.22518" lon="4.30621">
        <ele>213.144989</ele>
        <time>2023-05-18T10:30:11Z</time>
      </trkpt>
      <trkpt lat="50.22519" lon="4.3063">
        <ele>213.196014</ele>
        <time>2023-05-18T10:30:13Z</time>
      </trkpt>
      <trkpt lat="50.22518" lon="4.3064">
        <ele>213.277542</ele>
        <time>2023-05-18T10:30:15Z</time>
      </trkpt>
      <trkpt lat="50.22517" lon="4.3065">
        <ele>213.31308</ele>
        <time>2023-05-18T10:30:17Z</time>
      </trkpt>
      <trkpt lat="50.22517" lon="4.30659">
        <ele>213.354889</ele>
        <time>2023-05-18T10:30:19Z</time>
      </trkpt>
      <trkpt lat="50.22519" lon="4.30669">
        <ele>213.446869</ele>
        <time>2023-05-18T10:30:21Z</time>
      </trkpt>
      <trkpt lat="50.22524" lon="4.30679">
        <ele>213.628784</ele>
        <time>2023-05-18T10:30:23Z</time>
      </trkpt>
      <trkpt lat="50.22529" lon="4.30688">
        <ele>213.234039</ele>
        <time>2023-05-18T10:30:25Z</time>
      </trkpt>
      <trkpt lat="50.22534" lon="4.30693">
        <ele>213.336502</ele>
        <time>2023-05-18T10:30:27Z</time>
      </trkpt>
      <trkpt lat="50.22538" lon="4.30697">
        <ele>213.131226</ele>
        <time>2023-05-18T10:30:29Z</time>
      </trkpt>
      <trkpt lat="50.22544" lon="4.307">
        <ele>213.769577</ele>
        <time>2023-05-18T10:30:31Z</time>
      </trkpt>
      <trkpt lat="50.22549" lon="4.30705">
        <ele>214.206879</ele>
        <time>2023-05-18T10:30:33Z</time>
      </trkpt>
      <trkpt lat="50.22557" lon="4.30712">
        <ele>214.47879</ele>
        <time>2023-05-18T10:30:35Z</time>
      </trkpt>
      <trkpt lat="50.22564" lon="4.30719">
        <ele>214.677414</ele>
        <time>2023-05-18T10:30:37Z</time>
      </trkpt>
      <trkpt lat="50.22572" lon="4.30723">
        <ele>215.024582</ele>
        <time>2023-05-18T10:30:39Z</time>
      </trkpt>
      <trkpt lat="50.2258" lon="4.30722">
        <ele>215.304962</ele>
        <time>2023-05-18T10:30:41Z</time>
      </trkpt>
      <trkpt lat="50.22587" lon="4.30718">
        <ele>215.574554</ele>
        <time>2023-05-18T10:30:43Z</time>
      </trkpt>
      <trkpt lat="50.22593" lon="4.30713">
        <ele>215.907059</ele>
        <time>2023-05-18T10:30:45Z</time>
      </trkpt>
      <trkpt lat="50.22599" lon="4.30707">
        <ele>216.3237</ele>
        <time>2023-05-18T10:30:47Z</time>
      </trkpt>
      <trkpt lat="50.22605" lon="4.30701">
        <ele>216.741989</ele>
        <time>2023-05-18T10:30:49Z</time>
      </trkpt>
      <trkpt lat="50.22612" lon="4.30699">
        <ele>217.219971</ele>
        <time>2023-05-18T10:30:51Z</time>
      </trkpt>
      <trkpt lat="50.22622" lon="4.30701">
        <ele>217.691803</ele>
        <time>2023-05-18T10:30:53Z</time>
      </trkpt>
      <trkpt lat="50.22633" lon="4.30702">
        <ele>218.080811</ele>
        <time>2023-05-18T10:30:55Z</time>
      </trkpt>
      <trkpt lat="50.22645" lon="4.30705">
        <ele>218.507492</ele>
        <time>2023-05-18T10:30:57Z</time>
      </trkpt>
      <trkpt lat="50.22657" lon="4.30708">
        <ele>219.038742</ele>
        <time>2023-05-18T10:30:59Z</time>
      </trkpt>
      <trkpt lat="50.22669" lon="4.30711">
        <ele>219.417313</ele>
        <time>2023-05-18T10:31:01Z</time>
      </trkpt>
      <trkpt lat="50.22681" lon="4.30714">
        <ele>219.680862</ele>
        <time>2023-05-18T10:31:03Z</time>
      </trkpt>
      <trkpt lat="50.22693" lon="4.30717">
        <ele>220.105423</ele>
        <time>2023-05-18T10:31:05Z</time>
      </trkpt>
      <trkpt lat="50.22704" lon="4.30719">
        <ele>220.966644</ele>
        <time>2023-05-18T10:31:07Z</time>
      </trkpt>
      <trkpt lat="50.22715" lon="4.30719">
        <ele>221.085892</ele>
        <time>2023-05-18T10:31:09Z</time>
      </trkpt>
      <trkpt lat="50.22726" lon="4.30717">
        <ele>221.367218</ele>
        <time>2023-05-18T10:31:11Z</time>
      </trkpt>
      <trkpt lat="50.22737" lon="4.30713">
        <ele>221.555466</ele>
        <time>2023-05-18T10:31:13Z</time>
      </trkpt>
      <trkpt lat="50.22749" lon="4.30712">
        <ele>221.668427</ele>
        <time>2023-05-18T10:31:15Z</time>
      </trkpt>
      <trkpt lat="50.22761" lon="4.30714">
        <ele>221.697678</ele>
        <time>2023-05-18T10:31:17Z</time>
      </trkpt>
      <trkpt lat="50.22773" lon="4.30718">
        <ele>221.775101</ele>
        <time>2023-05-18T10:31:19Z</time>
      </trkpt>
      <trkpt lat="50.22783" lon="4.30723">
        <ele>221.783478</ele>
        <time>2023-05-18T10:31:21Z</time>
      </trkpt>
      <trkpt lat="50.22792" lon="4.30728">
        <ele>221.856232</ele>
        <time>2023-05-18T10:31:23Z</time>
      </trkpt>
      <trkpt lat="50.22799" lon="4.3073">
        <ele>221.847855</ele>
        <time>2023-05-18T10:31:25Z</time>
      </trkpt>
      <trkpt lat="50.22803" lon="4.30729">
        <ele>221.852051</ele>
        <time>2023-05-18T10:31:27Z</time>
      </trkpt>
      <trkpt lat="50.22808" lon="4.30725">
        <ele>221.789307</ele>
        <time>2023-05-18T10:31:29Z</time>
      </trkpt>
      <trkpt lat="50.22812" lon="4.30715">
        <ele>221.703522</ele>
        <time>2023-05-18T10:31:31Z</time>
      </trkpt>
      <trkpt lat="50.22814" lon="4.30703">
        <ele>221.517334</ele>
        <time>2023-05-18T10:31:33Z</time>
      </trkpt>
      <trkpt lat="50.22816" lon="4.30691">
        <ele>221.326981</ele>
        <time>2023-05-18T10:31:35Z</time>
      </trkpt>
      <trkpt lat="50.22818" lon="4.30678">
        <ele>221.111481</ele>
        <time>2023-05-18T10:31:37Z</time>
      </trkpt>
      <trkpt lat="50.2282" lon="4.30665">
        <ele>220.881348</ele>
        <time>2023-05-18T10:31:39Z</time>
      </trkpt>
      <trkpt lat="50.22821" lon="4.30652">
        <ele>220.617752</ele>
        <time>2023-05-18T10:31:41Z</time>
      </trkpt>
      <trkpt lat="50.22823" lon="4.3064">
        <ele>220.479691</ele>
        <time>2023-05-18T10:31:43Z</time>
      </trkpt>
      <trkpt lat="50.22826" lon="4.30629">
        <ele>220.255859</ele>
        <time>2023-05-18T10:31:45Z</time>
      </trkpt>
      <trkpt lat="50.22831" lon="4.30622">
        <ele>220.04248</ele>
        <time>2023-05-18T10:31:47Z</time>
      </trkpt>
      <trkpt lat="50.22837" lon="4.30618">
        <ele>219.824829</ele>
        <time>2023-05-18T10:31:49Z</time>
      </trkpt>
      <trkpt lat="50.22844" lon="4.30613">
        <ele>220.151535</ele>
        <time>2023-05-18T10:31:51Z</time>
      </trkpt>
      <trkpt lat="50.22851" lon="4.30608">
        <ele>219.978073</ele>
        <time>2023-05-18T10:31:53Z</time>
      </trkpt>
      <trkpt lat="50.22857" lon="4.30602">
        <ele>219.798187</ele>
        <time>2023-05-18T10:31:55Z</time>
      </trkpt>
      <trkpt lat="50.22864" lon="4.30596">
        <ele>219.676849</ele>
        <time>2023-05-18T10:31:57Z</time>
      </trkpt>
      <trkpt lat="50.2287" lon="4.30589">
        <ele>219.609909</ele>
        <time>2023-05-18T10:31:59Z</time>
      </trkpt>
      <trkpt lat="50.22876" lon="4.30582">
        <ele>219.513702</ele>
        <time>2023-05-18T10:32:01Z</time>
      </trkpt>
      <trkpt lat="50.22882" lon="4.30573">
        <ele>219.430023</ele>
        <time>2023-05-18T10:32:03Z</time>
      </trkpt>
      <trkpt lat="50.22887" lon="4.30565">
        <ele>219.342194</ele>
        <time>2023-05-18T10:32:05Z</time>
      </trkpt>
      <trkpt lat="50.22892" lon="4.30557">
        <ele>219.34201</ele>
        <time>2023-05-18T10:32:07Z</time>
      </trkpt>
      <trkpt lat="50.22897" lon="4.3055">
        <ele>219.256271</ele>
        <time>2023-05-18T10:32:09Z</time>
      </trkpt>
      <trkpt lat="50.22903" lon="4.30543">
        <ele>219.268829</ele>
        <time>2023-05-18T10:32:11Z</time>
      </trkpt>
      <trkpt lat="50.2291" lon="4.30537">
        <ele>219.333664</ele>
        <time>2023-05-18T10:32:13Z</time>
      </trkpt>
      <trkpt lat="50.22916" lon="4.30532">
        <ele>219.354584</ele>
        <time>2023-05-18T10:32:15Z</time>
      </trkpt>
      <trkpt lat="50.22922" lon="4.30526">
        <ele>219.465454</ele>
        <time>2023-05-18T10:32:17Z</time>
      </trkpt>
      <trkpt lat="50.22929" lon="4.30522">
        <ele>219.655807</ele>
        <time>2023-05-18T10:32:19Z</time>
      </trkpt>
      <trkpt lat="50.22935" lon="4.30516">
        <ele>219.791794</ele>
        <time>2023-05-18T10:32:21Z</time>
      </trkpt>
      <trkpt lat="50.22941" lon="4.30511">
        <ele>220.042816</ele>
        <time>2023-05-18T10:32:23Z</time>
      </trkpt>
      <trkpt lat="50.22946" lon="4.30504">
        <ele>220.197632</ele>
        <time>2023-05-18T10:32:25Z</time>
      </trkpt>
      <trkpt lat="50.22951" lon="4.30496">
        <ele>220.381714</ele>
        <time>2023-05-18T10:32:27Z</time>
      </trkpt>
      <trkpt lat="50.22954" lon="4.30487">
        <ele>220.561615</ele>
        <time>2023-05-18T10:32:29Z</time>
      </trkpt>
      <trkpt lat="50.22957" lon="4.30477">
        <ele>220.795898</ele>
        <time>2023-05-18T10:32:31Z</time>
      </trkpt>
      <trkpt lat="50.22958" lon="4.30468">
        <ele>220.534027</ele>
        <time>2023-05-18T10:32:33Z</time>
      </trkpt>
      <trkpt lat="50.22959" lon="4.30458">
        <ele>220.717987</ele>
        <time>2023-05-18T10:32:35Z</time>
      </trkpt>
      <trkpt lat="50.2296" lon="4.30448">
        <ele>220.996246</ele>
        <time>2023-05-18T10:32:37Z</time>
      </trkpt>
      <trkpt lat="50.22962" lon="4.30439">
        <ele>221.1866</ele>
        <time>2023-05-18T10:32:39Z</time>
      </trkpt>
      <trkpt lat="50.22963" lon="4.30429">
        <ele>221.374908</ele>
        <time>2023-05-18T10:32:41Z</time>
      </trkpt>
      <trkpt lat="50.22964" lon="4.30419">
        <ele>221.53598</ele>
        <time>2023-05-18T10:32:43Z</time>
      </trkpt>
      <trkpt lat="50.22966" lon="4.30409">
        <ele>221.797516</ele>
        <time>2023-05-18T10:32:45Z</time>
      </trkpt>
      <trkpt lat="50.22968" lon="4.30399">
        <ele>222.031815</ele>
        <time>2023-05-18T10:32:47Z</time>
      </trkpt>
      <trkpt lat="50.2297" lon="4.30389">
        <ele>222.3228</ele>
        <time>2023-05-18T10:32:49Z</time>
      </trkpt>
      <trkpt lat="50.22973" lon="4.3038">
        <ele>222.559204</ele>
        <time>2023-05-18T10:32:51Z</time>
      </trkpt>
      <trkpt lat="50.22975" lon="4.30371">
        <ele>222.724487</ele>
        <time>2023-05-18T10:32:53Z</time>
      </trkpt>
      <trkpt lat="50.22978" lon="4.30363">
        <ele>222.97348</ele>
        <time>2023-05-18T10:32:55Z</time>
      </trkpt>
      <trkpt lat="50.22981" lon="4.30356">
        <ele>223.199432</ele>
        <time>2023-05-18T10:32:57Z</time>
      </trkpt>
      <trkpt lat="50.22984" lon="4.30349">
        <ele>223.306427</ele>
        <time>2023-05-18T10:32:59Z</time>
      </trkpt>
      <trkpt lat="50.22988" lon="4.30343">
        <ele>223.419403</ele>
        <time>2023-05-18T10:33:01Z</time>
      </trkpt>
      <trkpt lat="50.22992" lon="4.30337">
        <ele>223.549149</ele>
        <time>2023-05-18T10:33:03Z</time>
      </trkpt>
      <trkpt lat="50.22996" lon="4.30331">
        <ele>223.739578</ele>
        <time>2023-05-18T10:33:05Z</time>
      </trkpt>
      <trkpt lat="50.23001" lon="4.30325">
        <ele>223.966034</ele>
        <time>2023-05-18T10:33:07Z</time>
      </trkpt>
      <trkpt lat="50.23005" lon="4.30318">
        <ele>224.1586</ele>
        <time>2023-05-18T10:33:09Z</time>
      </trkpt>
      <trkpt lat="50.2301" lon="4.30311">
        <ele>224.441086</ele>
        <time>2023-05-18T10:33:11Z</time>
      </trkpt>
      <trkpt lat="50.23015" lon="4.30305">
        <ele>224.654587</ele>
        <time>2023-05-18T10:33:13Z</time>
      </trkpt>
      <trkpt lat="50.23021" lon="4.30298">
        <ele>224.893188</ele>
        <time>2023-05-18T10:33:15Z</time>
      </trkpt>
      <trkpt lat="50.23026" lon="4.30291">
        <ele>225.23645</ele>
        <time>2023-05-18T10:33:17Z</time>
      </trkpt>
      <trkpt lat="50.23031" lon="4.30286">
        <ele>225.577637</ele>
        <time>2023-05-18T10:33:19Z</time>
      </trkpt>
      <trkpt lat="50.23036" lon="4.3028">
        <ele>225.856033</ele>
        <time>2023-05-18T10:33:21Z</time>
      </trkpt>
      <trkpt lat="50.23042" lon="4.30275">
        <ele>226.186768</ele>
        <time>2023-05-18T10:33:23Z</time>
      </trkpt>
      <trkpt lat="50.23048" lon="4.3027">
        <ele>226.498688</ele>
        <time>2023-05-18T10:33:25Z</time>
      </trkpt>
      <trkpt lat="50.23053" lon="4.30265">
        <ele>226.860794</ele>
        <time>2023-05-18T10:33:27Z</time>
      </trkpt>
      <trkpt lat="50.23058" lon="4.30261">
        <ele>227.061798</ele>
        <time>2023-05-18T10:33:29Z</time>
      </trkpt>
      <trkpt lat="50.23064" lon="4.30259">
        <ele>227.321365</ele>
        <time>2023-05-18T10:33:31Z</time>
      </trkpt>
      <trkpt lat="50.2307" lon="4.30255">
        <ele>227.763107</ele>
        <time>2023-05-18T10:33:33Z</time>
      </trkpt>
      <trkpt lat="50.23076" lon="4.30252">
        <ele>228.198563</ele>
        <time>2023-05-18T10:33:35Z</time>
      </trkpt>
      <trkpt lat="50.23082" lon="4.30249">
        <ele>228.611008</ele>
        <time>2023-05-18T10:33:37Z</time>
      </trkpt>
      <trkpt lat="50.23088" lon="4.30247">
        <ele>229.048309</ele>
        <time>2023-05-18T10:33:39Z</time>
      </trkpt>
      <trkpt lat="50.23094" lon="4.30244">
        <ele>229.471237</ele>
        <time>2023-05-18T10:33:41Z</time>
      </trkpt>
      <trkpt lat="50.231" lon="4.30241">
        <ele>229.977859</ele>
        <time>2023-05-18T10:33:43Z</time>
      </trkpt>
      <trkpt lat="50.23107" lon="4.3024">
        <ele>230.343704</ele>
        <time>2023-05-18T10:33:45Z</time>
      </trkpt>
      <trkpt lat="50.23113" lon="4.30239">
        <ele>230.728516</ele>
        <time>2023-05-18T10:33:47Z</time>
      </trkpt>
      <trkpt lat="50.23119" lon="4.30238">
        <ele>231.03215</ele>
        <time>2023-05-18T10:33:49Z</time>
      </trkpt>
      <trkpt lat="50.23126" lon="4.30237">
        <ele>231.496948</ele>
        <time>2023-05-18T10:33:51Z</time>
      </trkpt>
      <trkpt lat="50.23131" lon="4.30239">
        <ele>231.836212</ele>
        <time>2023-05-18T10:33:53Z</time>
      </trkpt>
      <trkpt lat="50.23138" lon="4.3024">
        <ele>232.102814</ele>
        <time>2023-05-18T10:33:55Z</time>
      </trkpt>
      <trkpt lat="50.23144" lon="4.30241">
        <ele>232.500656</ele>
        <time>2023-05-18T10:33:57Z</time>
      </trkpt>
      <trkpt lat="50.23149" lon="4.30241">
        <ele>232.7939</ele>
        <time>2023-05-18T10:33:59Z</time>
      </trkpt>
      <trkpt lat="50.23155" lon="4.30242">
        <ele>233.041016</ele>
        <time>2023-05-18T10:34:01Z</time>
      </trkpt>
      <trkpt lat="50.23161" lon="4.30243">
        <ele>233.369843</ele>
        <time>2023-05-18T10:34:03Z</time>
      </trkpt>
      <trkpt lat="50.23167" lon="4.30243">
        <ele>233.531097</ele>
        <time>2023-05-18T10:34:05Z</time>
      </trkpt>
      <trkpt lat="50.23173" lon="4.30243">
        <ele>233.815948</ele>
        <time>2023-05-18T10:34:07Z</time>
      </trkpt>
      <trkpt lat="50.23179" lon="4.30242">
        <ele>234.011688</ele>
        <time>2023-05-18T10:34:09Z</time>
      </trkpt>
      <trkpt lat="50.23185" lon="4.3024">
        <ele>234.405487</ele>
        <time>2023-05-18T10:34:11Z</time>
      </trkpt>
      <trkpt lat="50.23192" lon="4.30238">
        <ele>234.690399</ele>
        <time>2023-05-18T10:34:13Z</time>
      </trkpt>
      <trkpt lat="50.23198" lon="4.30237">
        <ele>235.403244</ele>
        <time>2023-05-18T10:34:15Z</time>
      </trkpt>
      <trkpt lat="50.23204" lon="4.30236">
        <ele>235.581299</ele>
        <time>2023-05-18T10:34:17Z</time>
      </trkpt>
      <trkpt lat="50.2321" lon="4.30234">
        <ele>235.853668</ele>
        <time>2023-05-18T10:34:19Z</time>
      </trkpt>
      <trkpt lat="50.23217" lon="4.30232">
        <ele>236.094604</ele>
        <time>2023-05-18T10:34:21Z</time>
      </trkpt>
      <trkpt lat="50.23222" lon="4.3023">
        <ele>235.847778</ele>
        <time>2023-05-18T10:34:23Z</time>
      </trkpt>
      <trkpt lat="50.23229" lon="4.30229">
        <ele>236.097092</ele>
        <time>2023-05-18T10:34:25Z</time>
      </trkpt>
      <trkpt lat="50.23234" lon="4.30228">
        <ele>236.44339</ele>
        <time>2023-05-18T10:34:27Z</time>
      </trkpt>
      <trkpt lat="50.23241" lon="4.30227">
        <ele>236.698975</ele>
        <time>2023-05-18T10:34:29Z</time>
      </trkpt>
      <trkpt lat="50.23248" lon="4.30227">
        <ele>237.023773</ele>
        <time>2023-05-18T10:34:31Z</time>
      </trkpt>
      <trkpt lat="50.23254" lon="4.30227">
        <ele>237.793304</ele>
        <time>2023-05-18T10:34:33Z</time>
      </trkpt>
      <trkpt lat="50.23261" lon="4.30227">
        <ele>238.079758</ele>
        <time>2023-05-18T10:34:35Z</time>
      </trkpt>
      <trkpt lat="50.23268" lon="4.30226">
        <ele>238.421341</ele>
        <time>2023-05-18T10:34:37Z</time>
      </trkpt>
      <trkpt lat="50.23274" lon="4.30227">
        <ele>238.788055</ele>
        <time>2023-05-18T10:34:39Z</time>
      </trkpt>
      <trkpt lat="50.2328" lon="4.30228">
        <ele>239.081421</ele>
        <time>2023-05-18T10:34:41Z</time>
      </trkpt>
      <trkpt lat="50.23287" lon="4.30229">
        <ele>239.452393</ele>
        <time>2023-05-18T10:34:43Z</time>
      </trkpt>
      <trkpt lat="50.23294" lon="4.3023">
        <ele>239.777191</ele>
        <time>2023-05-18T10:34:45Z</time>
      </trkpt>
      <trkpt lat="50.23301" lon="4.30232">
        <ele>240.162796</ele>
        <time>2023-05-18T10:34:47Z</time>
      </trkpt>
      <trkpt lat="50.23308" lon="4.30233">
        <ele>240.535843</ele>
        <time>2023-05-18T10:34:49Z</time>
      </trkpt>
      <trkpt lat="50.23316" lon="4.30234">
        <ele>240.861862</ele>
        <time>2023-05-18T10:34:51Z</time>
      </trkpt>
      <trkpt lat="50.23323" lon="4.30234">
        <ele>241.075684</ele>
        <time>2023-05-18T10:34:53Z</time>
      </trkpt>
      <trkpt lat="50.2333" lon="4.30235">
        <ele>241.316696</ele>
        <time>2023-05-18T10:34:55Z</time>
      </trkpt>
      <trkpt lat="50.23337" lon="4.30236">
        <ele>241.085815</ele>
        <time>2023-05-18T10:34:57Z</time>
      </trkpt>
      <trkpt lat="50.23344" lon="4.30235">
        <ele>241.335251</ele>
        <time>2023-05-18T10:34:59Z</time>
      </trkpt>
      <trkpt lat="50.2335" lon="4.30235">
        <ele>241.519684</ele>
        <time>2023-05-18T10:35:01Z</time>
      </trkpt>
      <trkpt lat="50.23356" lon="4.30234">
        <ele>242.301071</ele>
        <time>2023-05-18T10:35:03Z</time>
      </trkpt>
      <trkpt lat="50.23362" lon="4.30232">
        <ele>242.659576</ele>
        <time>2023-05-18T10:35:05Z</time>
      </trkpt>
      <trkpt lat="50.23367" lon="4.30228">
        <ele>242.927887</ele>
        <time>2023-05-18T10:35:07Z</time>
      </trkpt>
      <trkpt lat="50.23372" lon="4.30223">
        <ele>243.267532</ele>
        <time>2023-05-18T10:35:09Z</time>
      </trkpt>
      <trkpt lat="50.23375" lon="4.30217">
        <ele>243.584137</ele>
        <time>2023-05-18T10:35:11Z</time>
      </trkpt>
      <trkpt lat="50.23378" lon="4.3021">
        <ele>243.468903</ele>
        <time>2023-05-18T10:35:13Z</time>
      </trkpt>
      <trkpt lat="50.23381" lon="4.30201">
        <ele>243.796829</ele>
        <time>2023-05-18T10:35:15Z</time>
      </trkpt>
      <trkpt lat="50.23385" lon="4.30193">
        <ele>244.172119</ele>
        <time>2023-05-18T10:35:17Z</time>
      </trkpt>
      <trkpt lat="50.23388" lon="4.30184">
        <ele>244.474075</ele>
        <time>2023-05-18T10:35:19Z</time>
      </trkpt>
      <trkpt lat="50.23392" lon="4.30175">
        <ele>244.734085</ele>
        <time>2023-05-18T10:35:21Z</time>
      </trkpt>
      <trkpt lat="50.23395" lon="4.30165">
        <ele>244.947601</ele>
        <time>2023-05-18T10:35:23Z</time>
      </trkpt>
      <trkpt lat="50.23398" lon="4.30154">
        <ele>245.249069</ele>
        <time>2023-05-18T10:35:25Z</time>
      </trkpt>
      <trkpt lat="50.23401" lon="4.30143">
        <ele>245.486893</ele>
        <time>2023-05-18T10:35:27Z</time>
      </trkpt>
      <trkpt lat="50.23404" lon="4.30131">
        <ele>245.545578</ele>
        <time>2023-05-18T10:35:29Z</time>
      </trkpt>
      <trkpt lat="50.23407" lon="4.30121">
        <ele>245.717529</ele>
        <time>2023-05-18T10:35:31Z</time>
      </trkpt>
      <trkpt lat="50.2341" lon="4.30111">
        <ele>245.858002</ele>
        <time>2023-05-18T10:35:33Z</time>
      </trkpt>
      <trkpt lat="50.23412" lon="4.30101">
        <ele>245.906219</ele>
        <time>2023-05-18T10:35:35Z</time>
      </trkpt>
      <trkpt lat="50.23414" lon="4.30089">
        <ele>246.287918</ele>
        <time>2023-05-18T10:35:37Z</time>
      </trkpt>
      <trkpt lat="50.23417" lon="4.30078">
        <ele>246.342407</ele>
        <time>2023-05-18T10:35:39Z</time>
      </trkpt>
      <trkpt lat="50.2342" lon="4.30069">
        <ele>246.453537</ele>
        <time>2023-05-18T10:35:41Z</time>
      </trkpt>
      <trkpt lat="50.23424" lon="4.30058">
        <ele>246.612946</ele>
        <time>2023-05-18T10:35:43Z</time>
      </trkpt>
      <trkpt lat="50.23427" lon="4.30048">
        <ele>246.642136</ele>
        <time>2023-05-18T10:35:45Z</time>
      </trkpt>
      <trkpt lat="50.2343" lon="4.30039">
        <ele>246.69455</ele>
        <time>2023-05-18T10:35:47Z</time>
      </trkpt>
      <trkpt lat="50.23434" lon="4.30028">
        <ele>246.730225</ele>
        <time>2023-05-18T10:35:49Z</time>
      </trkpt>
      <trkpt lat="50.23437" lon="4.30017">
        <ele>246.885422</ele>
        <time>2023-05-18T10:35:51Z</time>
      </trkpt>
      <trkpt lat="50.2344" lon="4.30005">
        <ele>246.872833</ele>
        <time>2023-05-18T10:35:53Z</time>
      </trkpt>
      <trkpt lat="50.23443" lon="4.29993">
        <ele>246.885086</ele>
        <time>2023-05-18T10:35:55Z</time>
      </trkpt>
      <trkpt lat="50.23447" lon="4.29981">
        <ele>246.812912</ele>
        <time>2023-05-18T10:35:57Z</time>
      </trkpt>
      <trkpt lat="50.2345" lon="4.29969">
        <ele>246.756271</ele>
        <time>2023-05-18T10:35:59Z</time>
      </trkpt>
      <trkpt lat="50.23453" lon="4.29957">
        <ele>246.745804</ele>
        <time>2023-05-18T10:36:01Z</time>
      </trkpt>
      <trkpt lat="50.23456" lon="4.29946">
        <ele>246.832184</ele>
        <time>2023-05-18T10:36:03Z</time>
      </trkpt>
      <trkpt lat="50.23459" lon="4.29935">
        <ele>246.824249</ele>
        <time>2023-05-18T10:36:05Z</time>
      </trkpt>
      <trkpt lat="50.23463" lon="4.29923">
        <ele>246.806564</ele>
        <time>2023-05-18T10:36:07Z</time>
      </trkpt>
      <trkpt lat="50.23467" lon="4.29911">
        <ele>246.944992</ele>
        <time>2023-05-18T10:36:09Z</time>
      </trkpt>
      <trkpt lat="50.2347" lon="4.299">
        <ele>247.035187</ele>
        <time>2023-05-18T10:36:11Z</time>
      </trkpt>
      <trkpt lat="50.23473" lon="4.29888">
        <ele>247.068756</ele>
        <time>2023-05-18T10:36:13Z</time>
      </trkpt>
      <trkpt lat="50.23477" lon="4.29876">
        <ele>247.19873</ele>
        <time>2023-05-18T10:36:15Z</time>
      </trkpt>
      <trkpt lat="50.2348" lon="4.29864">
        <ele>247.173553</ele>
        <time>2023-05-18T10:36:17Z</time>
      </trkpt>
      <trkpt lat="50.23484" lon="4.29853">
        <ele>247.074951</ele>
        <time>2023-05-18T10:36:19Z</time>
      </trkpt>
      <trkpt lat="50.23487" lon="4.29844">
        <ele>247.17981</ele>
        <time>2023-05-18T10:36:21Z</time>
      </trkpt>
      <trkpt lat="50.2349" lon="4.29834">
        <ele>247.141571</ele>
        <time>2023-05-18T10:36:23Z</time>
      </trkpt>
      <trkpt lat="50.23493" lon="4.29826">
        <ele>247.238937</ele>
        <time>2023-05-18T10:36:25Z</time>
      </trkpt>
      <trkpt lat="50.23497" lon="4.29819">
        <ele>247.33728</ele>
        <time>2023-05-18T10:36:27Z</time>
      </trkpt>
      <trkpt lat="50.23502" lon="4.29816">
        <ele>247.366653</ele>
        <time>2023-05-18T10:36:29Z</time>
      </trkpt>
      <trkpt lat="50.23507" lon="4.29819">
        <ele>247.289032</ele>
        <time>2023-05-18T10:36:31Z</time>
      </trkpt>
      <trkpt lat="50.23512" lon="4.29824">
        <ele>247.244705</ele>
        <time>2023-05-18T10:36:33Z</time>
      </trkpt>
      <trkpt lat="50.23517" lon="4.29829">
        <ele>247.104172</ele>
        <time>2023-05-18T10:36:35Z</time>
      </trkpt>
      <trkpt lat="50.23522" lon="4.29835">
        <ele>247.175461</ele>
        <time>2023-05-18T10:36:37Z</time>
      </trkpt>
      <trkpt lat="50.23527" lon="4.29841">
        <ele>247.078979</ele>
        <time>2023-05-18T10:36:39Z</time>
      </trkpt>
      <trkpt lat="50.23532" lon="4.29847">
        <ele>247.037033</ele>
        <time>2023-05-18T10:36:41Z</time>
      </trkpt>
      <trkpt lat="50.23537" lon="4.29854">
        <ele>246.948944</ele>
        <time>2023-05-18T10:36:43Z</time>
      </trkpt>
      <trkpt lat="50.23543" lon="4.29861">
        <ele>246.78537</ele>
        <time>2023-05-18T10:36:45Z</time>
      </trkpt>
      <trkpt lat="50.23549" lon="4.29868">
        <ele>246.70369</ele>
        <time>2023-05-18T10:36:47Z</time>
      </trkpt>
      <trkpt lat="50.23555" lon="4.29875">
        <ele>246.657547</ele>
        <time>2023-05-18T10:36:49Z</time>
      </trkpt>
      <trkpt lat="50.23561" lon="4.29882">
        <ele>246.451996</ele>
        <time>2023-05-18T10:36:51Z</time>
      </trkpt>
      <trkpt lat="50.23568" lon="4.29889">
        <ele>246.321976</ele>
        <time>2023-05-18T10:36:53Z</time>
      </trkpt>
      <trkpt lat="50.23574" lon="4.29896">
        <ele>246.307297</ele>
        <time>2023-05-18T10:36:55Z</time>
      </trkpt>
      <trkpt lat="50.2358" lon="4.29904">
        <ele>246.120697</ele>
        <time>2023-05-18T10:36:57Z</time>
      </trkpt>
      <trkpt lat="50.23587" lon="4.29911">
        <ele>246.101837</ele>
        <time>2023-05-18T10:36:59Z</time>
      </trkpt>
      <trkpt lat="50.23594" lon="4.29919">
        <ele>246.015839</ele>
        <time>2023-05-18T10:37:01Z</time>
      </trkpt>
      <trkpt lat="50.236" lon="4.29927">
        <ele>245.936615</ele>
        <time>2023-05-18T10:37:03Z</time>
      </trkpt>
      <trkpt lat="50.23607" lon="4.29935">
        <ele>245.904266</ele>
        <time>2023-05-18T10:37:05Z</time>
      </trkpt>
      <trkpt lat="50.23613" lon="4.29945">
        <ele>245.787064</ele>
        <time>2023-05-18T10:37:07Z</time>
      </trkpt>
      <trkpt lat="50.2362" lon="4.29955">
        <ele>245.691559</ele>
        <time>2023-05-18T10:37:09Z</time>
      </trkpt>
      <trkpt lat="50.23626" lon="4.29967">
        <ele>245.618652</ele>
        <time>2023-05-18T10:37:11Z</time>
      </trkpt>
      <trkpt lat="50.23631" lon="4.2998">
        <ele>245.547638</ele>
        <time>2023-05-18T10:37:13Z</time>
      </trkpt>
      <trkpt lat="50.23635" lon="4.29993">
        <ele>245.486816</ele>
        <time>2023-05-18T10:37:15Z</time>
      </trkpt>
      <trkpt lat="50.23637" lon="4.30006">
        <ele>245.419708</ele>
        <time>2023-05-18T10:37:17Z</time>
      </trkpt>
      <trkpt lat="50.23639" lon="4.30019">
        <ele>245.35051</ele>
        <time>2023-05-18T10:37:19Z</time>
      </trkpt>
      <trkpt lat="50.23641" lon="4.30032">
        <ele>245.389725</ele>
        <time>2023-05-18T10:37:21Z</time>
      </trkpt>
      <trkpt lat="50.23642" lon="4.30044">
        <ele>245.326813</ele>
        <time>2023-05-18T10:37:23Z</time>
      </trkpt>
      <trkpt lat="50.23644" lon="4.30056">
        <ele>245.29953</ele>
        <time>2023-05-18T10:37:25Z</time>
      </trkpt>
      <trkpt lat="50.23646" lon="4.30068">
        <ele>245.24292</ele>
        <time>2023-05-18T10:37:27Z</time>
      </trkpt>
      <trkpt lat="50.23648" lon="4.30081">
        <ele>245.234451</ele>
        <time>2023-05-18T10:37:29Z</time>
      </trkpt>
      <trkpt lat="50.2365" lon="4.30093">
        <ele>245.165253</ele>
        <time>2023-05-18T10:37:31Z</time>
      </trkpt>
      <trkpt lat="50.23651" lon="4.30105">
        <ele>245.286896</ele>
        <time>2023-05-18T10:37:33Z</time>
      </trkpt>
      <trkpt lat="50.23653" lon="4.30117">
        <ele>245.276398</ele>
        <time>2023-05-18T10:37:35Z</time>
      </trkpt>
      <trkpt lat="50.23654" lon="4.30129">
        <ele>245.320435</ele>
        <time>2023-05-18T10:37:37Z</time>
      </trkpt>
      <trkpt lat="50.23656" lon="4.30143">
        <ele>245.265915</ele>
        <time>2023-05-18T10:37:39Z</time>
      </trkpt>
      <trkpt lat="50.23657" lon="4.30157">
        <ele>245.19043</ele>
        <time>2023-05-18T10:37:41Z</time>
      </trkpt>
      <trkpt lat="50.23659" lon="4.30169">
        <ele>245.098175</ele>
        <time>2023-05-18T10:37:43Z</time>
      </trkpt>
      <trkpt lat="50.23661" lon="4.30183">
        <ele>245.001709</ele>
        <time>2023-05-18T10:37:45Z</time>
      </trkpt>
      <trkpt lat="50.23663" lon="4.30196">
        <ele>244.783615</ele>
        <time>2023-05-18T10:37:47Z</time>
      </trkpt>
      <trkpt lat="50.23666" lon="4.3021">
        <ele>244.64946</ele>
        <time>2023-05-18T10:37:49Z</time>
      </trkpt>
      <trkpt lat="50.23667" lon="4.30225">
        <ele>244.570892</ele>
        <time>2023-05-18T10:37:51Z</time>
      </trkpt>
      <trkpt lat="50.23667" lon="4.3024">
        <ele>244.482346</ele>
        <time>2023-05-18T10:37:53Z</time>
      </trkpt>
      <trkpt lat="50.23666" lon="4.30255">
        <ele>244.348175</ele>
        <time>2023-05-18T10:37:55Z</time>
      </trkpt>
      <trkpt lat="50.23667" lon="4.30271">
        <ele>244.277252</ele>
        <time>2023-05-18T10:37:57Z</time>
      </trkpt>
      <trkpt lat="50.23668" lon="4.30286">
        <ele>244.198318</ele>
        <time>2023-05-18T10:37:59Z</time>
      </trkpt>
      <trkpt lat="50.23669" lon="4.30302">
        <ele>244.020721</ele>
        <time>2023-05-18T10:38:01Z</time>
      </trkpt>
      <trkpt lat="50.2367" lon="4.30316">
        <ele>243.859299</ele>
        <time>2023-05-18T10:38:03Z</time>
      </trkpt>
      <trkpt lat="50.23671" lon="4.30331">
        <ele>243.727219</ele>
        <time>2023-05-18T10:38:05Z</time>
      </trkpt>
      <trkpt lat="50.23673" lon="4.30346">
        <ele>243.549026</ele>
        <time>2023-05-18T10:38:07Z</time>
      </trkpt>
      <trkpt lat="50.23674" lon="4.30361">
        <ele>243.389694</ele>
        <time>2023-05-18T10:38:09Z</time>
      </trkpt>
      <trkpt lat="50.23676" lon="4.30376">
        <ele>243.255493</ele>
        <time>2023-05-18T10:38:11Z</time>
      </trkpt>
      <trkpt lat="50.23677" lon="4.30391">
        <ele>243.091949</ele>
        <time>2023-05-18T10:38:13Z</time>
      </trkpt>
      <trkpt lat="50.23679" lon="4.30408">
        <ele>242.936798</ele>
        <time>2023-05-18T10:38:15Z</time>
      </trkpt>
      <trkpt lat="50.23681" lon="4.30424">
        <ele>242.878082</ele>
        <time>2023-05-18T10:38:17Z</time>
      </trkpt>
      <trkpt lat="50.23682" lon="4.30441">
        <ele>242.762741</ele>
        <time>2023-05-18T10:38:19Z</time>
      </trkpt>
      <trkpt lat="50.23684" lon="4.30457">
        <ele>242.649536</ele>
        <time>2023-05-18T10:38:21Z</time>
      </trkpt>
      <trkpt lat="50.23686" lon="4.30473">
        <ele>242.587067</ele>
        <time>2023-05-18T10:38:23Z</time>
      </trkpt>
      <trkpt lat="50.23687" lon="4.3049">
        <ele>242.532547</ele>
        <time>2023-05-18T10:38:25Z</time>
      </trkpt>
      <trkpt lat="50.23689" lon="4.30507">
        <ele>242.434006</ele>
        <time>2023-05-18T10:38:27Z</time>
      </trkpt>
      <trkpt lat="50.2369" lon="4.30524">
        <ele>242.519974</ele>
        <time>2023-05-18T10:38:29Z</time>
      </trkpt>
      <trkpt lat="50.23692" lon="4.30541">
        <ele>242.457077</ele>
        <time>2023-05-18T10:38:31Z</time>
      </trkpt>
      <trkpt lat="50.23694" lon="4.30558">
        <ele>242.333405</ele>
        <time>2023-05-18T10:38:33Z</time>
      </trkpt>
      <trkpt lat="50.23695" lon="4.30575">
        <ele>242.356476</ele>
        <time>2023-05-18T10:38:35Z</time>
      </trkpt>
      <trkpt lat="50.23697" lon="4.30592">
        <ele>242.337601</ele>
        <time>2023-05-18T10:38:37Z</time>
      </trkpt>
      <trkpt lat="50.23698" lon="4.30608">
        <ele>242.267456</ele>
        <time>2023-05-18T10:38:39Z</time>
      </trkpt>
      <trkpt lat="50.237" lon="4.30625">
        <ele>242.247833</ele>
        <time>2023-05-18T10:38:41Z</time>
      </trkpt>
      <trkpt lat="50.23702" lon="4.30641">
        <ele>242.277176</ele>
        <time>2023-05-18T10:38:43Z</time>
      </trkpt>
      <trkpt lat="50.23703" lon="4.30659">
        <ele>242.352615</ele>
        <time>2023-05-18T10:38:45Z</time>
      </trkpt>
      <trkpt lat="50.23705" lon="4.30676">
        <ele>242.39035</ele>
        <time>2023-05-18T10:38:47Z</time>
      </trkpt>
      <trkpt lat="50.23707" lon="4.30694">
        <ele>242.495163</ele>
        <time>2023-05-18T10:38:49Z</time>
      </trkpt>
      <trkpt lat="50.23708" lon="4.30711">
        <ele>242.600006</ele>
        <time>2023-05-18T10:38:51Z</time>
      </trkpt>
      <trkpt lat="50.2371" lon="4.30729">
        <ele>242.653442</ele>
        <time>2023-05-18T10:38:53Z</time>
      </trkpt>
      <trkpt lat="50.23711" lon="4.30747">
        <ele>242.728912</ele>
        <time>2023-05-18T10:38:55Z</time>
      </trkpt>
      <trkpt lat="50.23713" lon="4.30764">
        <ele>242.848434</ele>
        <time>2023-05-18T10:38:57Z</time>
      </trkpt>
      <trkpt lat="50.23715" lon="4.30781">
        <ele>242.884079</ele>
        <time>2023-05-18T10:38:59Z</time>
      </trkpt>
      <trkpt lat="50.23716" lon="4.30798">
        <ele>242.993088</ele>
        <time>2023-05-18T10:39:01Z</time>
      </trkpt>
      <trkpt lat="50.23718" lon="4.30813">
        <ele>243.095413</ele>
        <time>2023-05-18T10:39:03Z</time>
      </trkpt>
      <trkpt lat="50.23719" lon="4.30829">
        <ele>243.116898</ele>
        <time>2023-05-18T10:39:05Z</time>
      </trkpt>
      <trkpt lat="50.23721" lon="4.30844">
        <ele>243.24324</ele>
        <time>2023-05-18T10:39:07Z</time>
      </trkpt>
      <trkpt lat="50.23723" lon="4.30859">
        <ele>243.276779</ele>
        <time>2023-05-18T10:39:09Z</time>
      </trkpt>
      <trkpt lat="50.23724" lon="4.30874">
        <ele>243.410934</ele>
        <time>2023-05-18T10:39:11Z</time>
      </trkpt>
      <trkpt lat="50.23726" lon="4.30889">
        <ele>243.452881</ele>
        <time>2023-05-18T10:39:13Z</time>
      </trkpt>
      <trkpt lat="50.23727" lon="4.30904">
        <ele>243.578659</ele>
        <time>2023-05-18T10:39:15Z</time>
      </trkpt>
      <trkpt lat="50.23728" lon="4.30919">
        <ele>243.608002</ele>
        <time>2023-05-18T10:39:17Z</time>
      </trkpt>
      <trkpt lat="50.23731" lon="4.30933">
        <ele>243.734406</ele>
        <time>2023-05-18T10:39:19Z</time>
      </trkpt>
      <trkpt lat="50.23733" lon="4.30947">
        <ele>243.897949</ele>
        <time>2023-05-18T10:39:21Z</time>
      </trkpt>
      <trkpt lat="50.23736" lon="4.3096">
        <ele>244.044724</ele>
        <time>2023-05-18T10:39:23Z</time>
      </trkpt>
      <trkpt lat="50.2374" lon="4.30973">
        <ele>244.191406</ele>
        <time>2023-05-18T10:39:25Z</time>
      </trkpt>
      <trkpt lat="50.23743" lon="4.30987">
        <ele>244.361252</ele>
        <time>2023-05-18T10:39:27Z</time>
      </trkpt>
      <trkpt lat="50.23746" lon="4.31001">
        <ele>244.466095</ele>
        <time>2023-05-18T10:39:29Z</time>
      </trkpt>
      <trkpt lat="50.2375" lon="4.31014">
        <ele>244.650635</ele>
        <time>2023-05-18T10:39:31Z</time>
      </trkpt>
      <trkpt lat="50.23753" lon="4.31028">
        <ele>244.776459</ele>
        <time>2023-05-18T10:39:33Z</time>
      </trkpt>
      <trkpt lat="50.23756" lon="4.31042">
        <ele>244.966263</ele>
        <time>2023-05-18T10:39:35Z</time>
      </trkpt>
      <trkpt lat="50.23758" lon="4.31055">
        <ele>245.136108</ele>
        <time>2023-05-18T10:39:37Z</time>
      </trkpt>
      <trkpt lat="50.2376" lon="4.31067">
        <ele>245.207397</ele>
        <time>2023-05-18T10:39:39Z</time>
      </trkpt>
      <trkpt lat="50.23761" lon="4.31078">
        <ele>245.398224</ele>
        <time>2023-05-18T10:39:41Z</time>
      </trkpt>
      <trkpt lat="50.23763" lon="4.31087">
        <ele>245.505157</ele>
        <time>2023-05-18T10:39:43Z</time>
      </trkpt>
      <trkpt lat="50.23763" lon="4.31098">
        <ele>245.619965</ele>
        <time>2023-05-18T10:39:45Z</time>
      </trkpt>
      <trkpt lat="50.23764" lon="4.31108">
        <ele>245.615265</ele>
        <time>2023-05-18T10:39:47Z</time>
      </trkpt>
      <trkpt lat="50.23766" lon="4.31118">
        <ele>245.711716</ele>
        <time>2023-05-18T10:39:49Z</time>
      </trkpt>
      <trkpt lat="50.23765" lon="4.31128">
        <ele>245.734772</ele>
        <time>2023-05-18T10:39:51Z</time>
      </trkpt>
      <trkpt lat="50.23763" lon="4.3114">
        <ele>245.787186</ele>
        <time>2023-05-18T10:39:53Z</time>
      </trkpt>
      <trkpt lat="50.2376" lon="4.31152">
        <ele>245.921417</ele>
        <time>2023-05-18T10:39:55Z</time>
      </trkpt>
      <trkpt lat="50.23758" lon="4.31164">
        <ele>246.087082</ele>
        <time>2023-05-18T10:39:57Z</time>
      </trkpt>
      <trkpt lat="50.23757" lon="4.31179">
        <ele>246.11853</ele>
        <time>2023-05-18T10:39:59Z</time>
      </trkpt>
      <trkpt lat="50.23755" lon="4.31191">
        <ele>246.240158</ele>
        <time>2023-05-18T10:40:01Z</time>
      </trkpt>
      <trkpt lat="50.23754" lon="4.31204">
        <ele>246.261154</ele>
        <time>2023-05-18T10:40:03Z</time>
      </trkpt>
      <trkpt lat="50.23753" lon="4.31216">
        <ele>246.437424</ele>
        <time>2023-05-18T10:40:05Z</time>
      </trkpt>
      <trkpt lat="50.23752" lon="4.3123">
        <ele>246.571686</ele>
        <time>2023-05-18T10:40:07Z</time>
      </trkpt>
      <trkpt lat="50.2375" lon="4.31246">
        <ele>246.794022</ele>
        <time>2023-05-18T10:40:09Z</time>
      </trkpt>
      <trkpt lat="50.2375" lon="4.31262">
        <ele>247.010056</ele>
        <time>2023-05-18T10:40:11Z</time>
      </trkpt>
      <trkpt lat="50.2375" lon="4.31279">
        <ele>247.179962</ele>
        <time>2023-05-18T10:40:13Z</time>
      </trkpt>
      <trkpt lat="50.23749" lon="4.31296">
        <ele>247.421173</ele>
        <time>2023-05-18T10:40:15Z</time>
      </trkpt>
      <trkpt lat="50.23749" lon="4.31314">
        <ele>247.551224</ele>
        <time>2023-05-18T10:40:17Z</time>
      </trkpt>
      <trkpt lat="50.23748" lon="4.31333">
        <ele>247.744217</ele>
        <time>2023-05-18T10:40:19Z</time>
      </trkpt>
      <trkpt lat="50.23747" lon="4.31351">
        <ele>247.957199</ele>
        <time>2023-05-18T10:40:21Z</time>
      </trkpt>
      <trkpt lat="50.23745" lon="4.31371">
        <ele>248.131302</ele>
        <time>2023-05-18T10:40:23Z</time>
      </trkpt>
      <trkpt lat="50.23742" lon="4.3139">
        <ele>248.280273</ele>
        <time>2023-05-18T10:40:25Z</time>
      </trkpt>
      <trkpt lat="50.2374" lon="4.31409">
        <ele>248.531952</ele>
        <time>2023-05-18T10:40:27Z</time>
      </trkpt>
      <trkpt lat="50.23739" lon="4.31426">
        <ele>248.632645</ele>
        <time>2023-05-18T10:40:29Z</time>
      </trkpt>
      <trkpt lat="50.23737" lon="4.31441">
        <ele>248.789948</ele>
        <time>2023-05-18T10:40:31Z</time>
      </trkpt>
      <trkpt lat="50.23736" lon="4.31454">
        <ele>248.972382</ele>
        <time>2023-05-18T10:40:33Z</time>
      </trkpt>
      <trkpt lat="50.23735" lon="4.31468">
        <ele>248.907379</ele>
        <time>2023-05-18T10:40:35Z</time>
      </trkpt>
      <trkpt lat="50.23732" lon="4.31481">
        <ele>248.907349</ele>
        <time>2023-05-18T10:40:37Z</time>
      </trkpt>
      <trkpt lat="50.2373" lon="4.31494">
        <ele>248.896881</ele>
        <time>2023-05-18T10:40:39Z</time>
      </trkpt>
      <trkpt lat="50.23728" lon="4.31508">
        <ele>248.83606</ele>
        <time>2023-05-18T10:40:41Z</time>
      </trkpt>
      <trkpt lat="50.23727" lon="4.31522">
        <ele>248.880096</ele>
        <time>2023-05-18T10:40:43Z</time>
      </trkpt>
      <trkpt lat="50.23726" lon="4.31536">
        <ele>248.712311</ele>
        <time>2023-05-18T10:40:45Z</time>
      </trkpt>
      <trkpt lat="50.23724" lon="4.31549">
        <ele>248.37471</ele>
        <time>2023-05-18T10:40:47Z</time>
      </trkpt>
      <trkpt lat="50.23723" lon="4.31562">
        <ele>248.254074</ele>
        <time>2023-05-18T10:40:49Z</time>
      </trkpt>
      <trkpt lat="50.23721" lon="4.31576">
        <ele>247.961212</ele>
        <time>2023-05-18T10:40:51Z</time>
      </trkpt>
      <trkpt lat="50.23719" lon="4.3159">
        <ele>247.684372</ele>
        <time>2023-05-18T10:40:53Z</time>
      </trkpt>
      <trkpt lat="50.23718" lon="4.31603">
        <ele>247.340408</ele>
        <time>2023-05-18T10:40:55Z</time>
      </trkpt>
      <trkpt lat="50.23717" lon="4.31616">
        <ele>247.027908</ele>
        <time>2023-05-18T10:40:57Z</time>
      </trkpt>
      <trkpt lat="50.23714" lon="4.31627">
        <ele>246.793015</ele>
        <time>2023-05-18T10:40:59Z</time>
      </trkpt>
      <trkpt lat="50.23714" lon="4.31637">
        <ele>246.412262</ele>
        <time>2023-05-18T10:41:01Z</time>
      </trkpt>
      <trkpt lat="50.23711" lon="4.3165">
        <ele>245.94455</ele>
        <time>2023-05-18T10:41:03Z</time>
      </trkpt>
      <trkpt lat="50.23709" lon="4.31667">
        <ele>245.564896</ele>
        <time>2023-05-18T10:41:05Z</time>
      </trkpt>
      <trkpt lat="50.23707" lon="4.31679">
        <ele>245.367752</ele>
        <time>2023-05-18T10:41:07Z</time>
      </trkpt>
      <trkpt lat="50.23706" lon="4.31691">
        <ele>245.172394</ele>
        <time>2023-05-18T10:41:09Z</time>
      </trkpt>
      <trkpt lat="50.23703" lon="4.317">
        <ele>244.953644</ele>
        <time>2023-05-18T10:41:11Z</time>
      </trkpt>
      <trkpt lat="50.23697" lon="4.31714">
        <ele>244.743942</ele>
        <time>2023-05-18T10:41:13Z</time>
      </trkpt>
      <trkpt lat="50.23694" lon="4.31721">
        <ele>244.446198</ele>
        <time>2023-05-18T10:41:15Z</time>
      </trkpt>
      <trkpt lat="50.2369" lon="4.31731">
        <ele>244.374908</ele>
        <time>2023-05-18T10:41:17Z</time>
      </trkpt>
      <trkpt lat="50.23685" lon="4.31739">
        <ele>244.200851</ele>
        <time>2023-05-18T10:41:19Z</time>
      </trkpt>
      <trkpt lat="50.23677" lon="4.31748">
        <ele>244.161011</ele>
        <time>2023-05-18T10:41:21Z</time>
      </trkpt>
      <trkpt lat="50.23669" lon="4.31754">
        <ele>243.758575</ele>
        <time>2023-05-18T10:41:23Z</time>
      </trkpt>
      <trkpt lat="50.23661" lon="4.3176">
        <ele>243.691483</ele>
        <time>2023-05-18T10:41:25Z</time>
      </trkpt>
      <trkpt lat="50.23654" lon="4.31766">
        <ele>243.789963</ele>
        <time>2023-05-18T10:41:27Z</time>
      </trkpt>
      <trkpt lat="50.23647" lon="4.31771">
        <ele>243.624313</ele>
        <time>2023-05-18T10:41:29Z</time>
      </trkpt>
      <trkpt lat="50.23639" lon="4.3178">
        <ele>243.527435</ele>
        <time>2023-05-18T10:41:31Z</time>
      </trkpt>
      <trkpt lat="50.23631" lon="4.31791">
        <ele>243.44278</ele>
        <time>2023-05-18T10:41:33Z</time>
      </trkpt>
      <trkpt lat="50.23623" lon="4.31805">
        <ele>243.474243</ele>
        <time>2023-05-18T10:41:35Z</time>
      </trkpt>
      <trkpt lat="50.23615" lon="4.31819">
        <ele>243.495193</ele>
        <time>2023-05-18T10:41:37Z</time>
      </trkpt>
      <trkpt lat="50.23609" lon="4.3183">
        <ele>243.495209</ele>
        <time>2023-05-18T10:41:39Z</time>
      </trkpt>
      <trkpt lat="50.23604" lon="4.31841">
        <ele>243.474213</ele>
        <time>2023-05-18T10:41:41Z</time>
      </trkpt>
      <trkpt lat="50.236" lon="4.31854">
        <ele>243.478424</ele>
        <time>2023-05-18T10:41:43Z</time>
      </trkpt>
      <trkpt lat="50.23596" lon="4.31869">
        <ele>243.457443</ele>
        <time>2023-05-18T10:41:45Z</time>
      </trkpt>
      <trkpt lat="50.23597" lon="4.31881">
        <ele>243.511963</ele>
        <time>2023-05-18T10:41:47Z</time>
      </trkpt>
      <trkpt lat="50.23598" lon="4.31892">
        <ele>243.500092</ele>
        <time>2023-05-18T10:41:49Z</time>
      </trkpt>
      <trkpt lat="50.23601" lon="4.31899">
        <ele>243.507034</ele>
        <time>2023-05-18T10:41:51Z</time>
      </trkpt>
      <trkpt lat="50.23604" lon="4.31906">
        <ele>243.395905</ele>
        <time>2023-05-18T10:41:53Z</time>
      </trkpt>
      <trkpt lat="50.23605" lon="4.31918">
        <ele>243.43364</ele>
        <time>2023-05-18T10:41:55Z</time>
      </trkpt>
      <trkpt lat="50.23606" lon="4.31927">
        <ele>243.393829</ele>
        <time>2023-05-18T10:41:57Z</time>
      </trkpt>
      <trkpt lat="50.23608" lon="4.31939">
        <ele>243.295288</ele>
        <time>2023-05-18T10:41:59Z</time>
      </trkpt>
      <trkpt lat="50.2361" lon="4.31951">
        <ele>243.150635</ele>
        <time>2023-05-18T10:42:01Z</time>
      </trkpt>
      <trkpt lat="50.2361" lon="4.31958">
        <ele>243.100311</ele>
        <time>2023-05-18T10:42:03Z</time>
      </trkpt>
      <trkpt lat="50.23612" lon="4.31966">
        <ele>243.299362</ele>
        <time>2023-05-18T10:42:05Z</time>
      </trkpt>
      <trkpt lat="50.23615" lon="4.31977">
        <ele>243.17569</ele>
        <time>2023-05-18T10:42:07Z</time>
      </trkpt>
      <trkpt lat="50.23617" lon="4.31987">
        <ele>243.08345</ele>
        <time>2023-05-18T10:42:09Z</time>
      </trkpt>
      <trkpt lat="50.23621" lon="4.31997">
        <ele>243.091827</ele>
        <time>2023-05-18T10:42:11Z</time>
      </trkpt>
      <trkpt lat="50.23625" lon="4.32008">
        <ele>242.965408</ele>
        <time>2023-05-18T10:42:13Z</time>
      </trkpt>
      <trkpt lat="50.23629" lon="4.32018">
        <ele>242.871063</ele>
        <time>2023-05-18T10:42:15Z</time>
      </trkpt>
      <trkpt lat="50.2363" lon="4.32028">
        <ele>242.705444</ele>
        <time>2023-05-18T10:42:17Z</time>
      </trkpt>
      <trkpt lat="50.23632" lon="4.32037">
        <ele>242.61528</ele>
        <time>2023-05-18T10:42:19Z</time>
      </trkpt>
      <trkpt lat="50.23634" lon="4.32045">
        <ele>242.489502</ele>
        <time>2023-05-18T10:42:21Z</time>
      </trkpt>
      <trkpt lat="50.23636" lon="4.32056">
        <ele>242.539841</ele>
        <time>2023-05-18T10:42:23Z</time>
      </trkpt>
      <trkpt lat="50.23638" lon="4.32066">
        <ele>242.573395</ele>
        <time>2023-05-18T10:42:25Z</time>
      </trkpt>
      <trkpt lat="50.2364" lon="4.32075">
        <ele>242.575485</ele>
        <time>2023-05-18T10:42:27Z</time>
      </trkpt>
      <trkpt lat="50.23642" lon="4.32084">
        <ele>242.48494</ele>
        <time>2023-05-18T10:42:29Z</time>
      </trkpt>
      <trkpt lat="50.23642" lon="4.32094">
        <ele>242.455597</ele>
        <time>2023-05-18T10:42:31Z</time>
      </trkpt>
      <trkpt lat="50.23643" lon="4.32102">
        <ele>241.854584</ele>
        <time>2023-05-18T10:42:33Z</time>
      </trkpt>
      <trkpt lat="50.23645" lon="4.32112">
        <ele>241.907013</ele>
        <time>2023-05-18T10:42:35Z</time>
      </trkpt>
      <trkpt lat="50.23647" lon="4.32121">
        <ele>242.062134</ele>
        <time>2023-05-18T10:42:37Z</time>
      </trkpt>
      <trkpt lat="50.23651" lon="4.32132">
        <ele>242.145996</ele>
        <time>2023-05-18T10:42:39Z</time>
      </trkpt>
      <trkpt lat="50.23656" lon="4.32143">
        <ele>242.349335</ele>
        <time>2023-05-18T10:42:41Z</time>
      </trkpt>
      <trkpt lat="50.23661" lon="4.32154">
        <ele>242.525467</ele>
        <time>2023-05-18T10:42:43Z</time>
      </trkpt>
      <trkpt lat="50.23664" lon="4.32162">
        <ele>242.676422</ele>
        <time>2023-05-18T10:42:45Z</time>
      </trkpt>
      <trkpt lat="50.23666" lon="4.32173">
        <ele>242.8022</ele>
        <time>2023-05-18T10:42:47Z</time>
      </trkpt>
      <trkpt lat="50.2367" lon="4.32184">
        <ele>242.863007</ele>
        <time>2023-05-18T10:42:49Z</time>
      </trkpt>
      <trkpt lat="50.23674" lon="4.32197">
        <ele>242.995087</ele>
        <time>2023-05-18T10:42:51Z</time>
      </trkpt>
      <trkpt lat="50.23678" lon="4.32208">
        <ele>243.139771</ele>
        <time>2023-05-18T10:42:53Z</time>
      </trkpt>
      <trkpt lat="50.23683" lon="4.32217">
        <ele>243.158661</ele>
        <time>2023-05-18T10:42:55Z</time>
      </trkpt>
      <trkpt lat="50.23689" lon="4.32228">
        <ele>243.225739</ele>
        <time>2023-05-18T10:42:57Z</time>
      </trkpt>
      <trkpt lat="50.23696" lon="4.32243">
        <ele>243.320099</ele>
        <time>2023-05-18T10:42:59Z</time>
      </trkpt>
      <trkpt lat="50.23702" lon="4.32256">
        <ele>243.450073</ele>
        <time>2023-05-18T10:43:01Z</time>
      </trkpt>
      <trkpt lat="50.23706" lon="4.32267">
        <ele>243.408127</ele>
        <time>2023-05-18T10:43:03Z</time>
      </trkpt>
      <trkpt lat="50.23711" lon="4.3228">
        <ele>243.424896</ele>
        <time>2023-05-18T10:43:05Z</time>
      </trkpt>
      <trkpt lat="50.23716" lon="4.32293">
        <ele>243.462646</ele>
        <time>2023-05-18T10:43:07Z</time>
      </trkpt>
      <trkpt lat="50.23721" lon="4.32304">
        <ele>243.489914</ele>
        <time>2023-05-18T10:43:09Z</time>
      </trkpt>
      <trkpt lat="50.23725" lon="4.32317">
        <ele>243.584274</ele>
        <time>2023-05-18T10:43:11Z</time>
      </trkpt>
      <trkpt lat="50.23728" lon="4.32329">
        <ele>244.33017</ele>
        <time>2023-05-18T10:43:13Z</time>
      </trkpt>
      <trkpt lat="50.2373" lon="4.32342">
        <ele>244.279861</ele>
        <time>2023-05-18T10:43:15Z</time>
      </trkpt>
      <trkpt lat="50.23734" lon="4.32353">
        <ele>244.223236</ele>
        <time>2023-05-18T10:43:17Z</time>
      </trkpt>
      <trkpt lat="50.23737" lon="4.32366">
        <ele>244.240021</ele>
        <time>2023-05-18T10:43:19Z</time>
      </trkpt>
      <trkpt lat="50.23743" lon="4.3238">
        <ele>244.25679</ele>
        <time>2023-05-18T10:43:21Z</time>
      </trkpt>
      <trkpt lat="50.23747" lon="4.32392">
        <ele>244.250519</ele>
        <time>2023-05-18T10:43:23Z</time>
      </trkpt>
      <trkpt lat="50.2375" lon="4.32405">
        <ele>244.151947</ele>
        <time>2023-05-18T10:43:25Z</time>
      </trkpt>
      <trkpt lat="50.23755" lon="4.32416">
        <ele>244.180817</ele>
        <time>2023-05-18T10:43:27Z</time>
      </trkpt>
      <trkpt lat="50.23758" lon="4.32429">
        <ele>244.280685</ele>
        <time>2023-05-18T10:43:29Z</time>
      </trkpt>
      <trkpt lat="50.2376" lon="4.32444">
        <ele>244.298431</ele>
        <time>2023-05-18T10:43:31Z</time>
      </trkpt>
      <trkpt lat="50.23763" lon="4.32458">
        <ele>244.283737</ele>
        <time>2023-05-18T10:43:33Z</time>
      </trkpt>
      <trkpt lat="50.23768" lon="4.32473">
        <ele>244.394852</ele>
        <time>2023-05-18T10:43:35Z</time>
      </trkpt>
      <trkpt lat="50.23769" lon="4.32486">
        <ele>244.508087</ele>
        <time>2023-05-18T10:43:37Z</time>
      </trkpt>
      <trkpt lat="50.23772" lon="4.32499">
        <ele>244.596161</ele>
        <time>2023-05-18T10:43:39Z</time>
      </trkpt>
      <trkpt lat="50.23775" lon="4.32513">
        <ele>244.7052</ele>
        <time>2023-05-18T10:43:41Z</time>
      </trkpt>
      <trkpt lat="50.23778" lon="4.32525">
        <ele>244.673752</ele>
        <time>2023-05-18T10:43:43Z</time>
      </trkpt>
      <trkpt lat="50.23779" lon="4.32539">
        <ele>244.772308</ele>
        <time>2023-05-18T10:43:45Z</time>
      </trkpt>
      <trkpt lat="50.2378" lon="4.32551">
        <ele>244.79538</ele>
        <time>2023-05-18T10:43:47Z</time>
      </trkpt>
      <trkpt lat="50.23784" lon="4.32565">
        <ele>244.761322</ele>
        <time>2023-05-18T10:43:49Z</time>
      </trkpt>
      <trkpt lat="50.23785" lon="4.32579">
        <ele>244.852249</ele>
        <time>2023-05-18T10:43:51Z</time>
      </trkpt>
      <trkpt lat="50.23787" lon="4.32593">
        <ele>244.856201</ele>
        <time>2023-05-18T10:43:53Z</time>
      </trkpt>
      <trkpt lat="50.23789" lon="4.32608">
        <ele>244.835236</ele>
        <time>2023-05-18T10:43:55Z</time>
      </trkpt>
      <trkpt lat="50.23791" lon="4.32623">
        <ele>245.042816</ele>
        <time>2023-05-18T10:43:57Z</time>
      </trkpt>
      <trkpt lat="50.23795" lon="4.32639">
        <ele>245.13298</ele>
        <time>2023-05-18T10:43:59Z</time>
      </trkpt>
      <trkpt lat="50.23794" lon="4.32654">
        <ele>245.244095</ele>
        <time>2023-05-18T10:44:01Z</time>
      </trkpt>
      <trkpt lat="50.23796" lon="4.32667">
        <ele>245.252487</ele>
        <time>2023-05-18T10:44:03Z</time>
      </trkpt>
      <trkpt lat="50.23797" lon="4.32681">
        <ele>245.382736</ele>
        <time>2023-05-18T10:44:05Z</time>
      </trkpt>
      <trkpt lat="50.238" lon="4.32694">
        <ele>245.42012</ele>
        <time>2023-05-18T10:44:07Z</time>
      </trkpt>
      <trkpt lat="50.23803" lon="4.32707">
        <ele>245.257111</ele>
        <time>2023-05-18T10:44:09Z</time>
      </trkpt>
      <trkpt lat="50.23804" lon="4.32721">
        <ele>245.199142</ele>
        <time>2023-05-18T10:44:11Z</time>
      </trkpt>
      <trkpt lat="50.23804" lon="4.32737">
        <ele>245.225998</ele>
        <time>2023-05-18T10:44:13Z</time>
      </trkpt>
      <trkpt lat="50.238" lon="4.32756">
        <ele>245.170822</ele>
        <time>2023-05-18T10:44:15Z</time>
      </trkpt>
      <trkpt lat="50.23799" lon="4.32772">
        <ele>245.16452</ele>
        <time>2023-05-18T10:44:17Z</time>
      </trkpt>
      <trkpt lat="50.238" lon="4.32787">
        <ele>245.055466</ele>
        <time>2023-05-18T10:44:19Z</time>
      </trkpt>
      <trkpt lat="50.23806" lon="4.32795">
        <ele>244.904251</ele>
        <time>2023-05-18T10:44:21Z</time>
      </trkpt>
      <trkpt lat="50.23817" lon="4.32802">
        <ele>244.794388</ele>
        <time>2023-05-18T10:44:23Z</time>
      </trkpt>
      <trkpt lat="50.23826" lon="4.32809">
        <ele>244.773468</ele>
        <time>2023-05-18T10:44:25Z</time>
      </trkpt>
      <trkpt lat="50.23835" lon="4.32814">
        <ele>244.754562</ele>
        <time>2023-05-18T10:44:27Z</time>
      </trkpt>
      <trkpt lat="50.23846" lon="4.32819">
        <ele>244.585236</ele>
        <time>2023-05-18T10:44:29Z</time>
      </trkpt>
      <trkpt lat="50.23858" lon="4.32822">
        <ele>244.379028</ele>
        <time>2023-05-18T10:44:31Z</time>
      </trkpt>
      <trkpt lat="50.23869" lon="4.32822">
        <ele>243.968185</ele>
        <time>2023-05-18T10:44:33Z</time>
      </trkpt>
      <trkpt lat="50.23882" lon="4.32815">
        <ele>243.748016</ele>
        <time>2023-05-18T10:44:35Z</time>
      </trkpt>
      <trkpt lat="50.2389" lon="4.328">
        <ele>243.541138</ele>
        <time>2023-05-18T10:44:37Z</time>
      </trkpt>
      <trkpt lat="50.23895" lon="4.32788">
        <ele>243.223953</ele>
        <time>2023-05-18T10:44:39Z</time>
      </trkpt>
      <trkpt lat="50.23902" lon="4.32774">
        <ele>243.037323</ele>
        <time>2023-05-18T10:44:41Z</time>
      </trkpt>
      <trkpt lat="50.23909" lon="4.32761">
        <ele>242.919952</ele>
        <time>2023-05-18T10:44:43Z</time>
      </trkpt>
      <trkpt lat="50.23916" lon="4.32745">
        <ele>242.647141</ele>
        <time>2023-05-18T10:44:45Z</time>
      </trkpt>
      <trkpt lat="50.23924" lon="4.3273">
        <ele>242.425507</ele>
        <time>2023-05-18T10:44:47Z</time>
      </trkpt>
      <trkpt lat="50.23931" lon="4.32713">
        <ele>242.255829</ele>
        <time>2023-05-18T10:44:49Z</time>
      </trkpt>
      <trkpt lat="50.23938" lon="4.32699">
        <ele>242.175171</ele>
        <time>2023-05-18T10:44:51Z</time>
      </trkpt>
      <trkpt lat="50.23946" lon="4.32682">
        <ele>241.837128</ele>
        <time>2023-05-18T10:44:53Z</time>
      </trkpt>
      <trkpt lat="50.23953" lon="4.32664">
        <ele>241.514969</ele>
        <time>2023-05-18T10:44:55Z</time>
      </trkpt>
      <trkpt lat="50.23961" lon="4.32644">
        <ele>241.219406</ele>
        <time>2023-05-18T10:44:57Z</time>
      </trkpt>
      <trkpt lat="50.23969" lon="4.32625">
        <ele>240.934357</ele>
        <time>2023-05-18T10:44:59Z</time>
      </trkpt>
      <trkpt lat="50.23976" lon="4.32608">
        <ele>240.44194</ele>
        <time>2023-05-18T10:45:01Z</time>
      </trkpt>
      <trkpt lat="50.23986" lon="4.3259">
        <ele>240.091232</ele>
        <time>2023-05-18T10:45:03Z</time>
      </trkpt>
      <trkpt lat="50.23994" lon="4.32569">
        <ele>239.285645</ele>
        <time>2023-05-18T10:45:05Z</time>
      </trkpt>
      <trkpt lat="50.24002" lon="4.32549">
        <ele>238.646652</ele>
        <time>2023-05-18T10:45:07Z</time>
      </trkpt>
      <trkpt lat="50.24011" lon="4.3253">
        <ele>238.279877</ele>
        <time>2023-05-18T10:45:09Z</time>
      </trkpt>
      <trkpt lat="50.2402" lon="4.32513">
        <ele>237.821014</ele>
        <time>2023-05-18T10:45:11Z</time>
      </trkpt>
      <trkpt lat="50.24031" lon="4.32498">
        <ele>237.567505</ele>
        <time>2023-05-18T10:45:13Z</time>
      </trkpt>
      <trkpt lat="50.24041" lon="4.32479">
        <ele>237.1884</ele>
        <time>2023-05-18T10:45:15Z</time>
      </trkpt>
      <trkpt lat="50.24049" lon="4.3246">
        <ele>236.716309</ele>
        <time>2023-05-18T10:45:17Z</time>
      </trkpt>
      <trkpt lat="50.24059" lon="4.32442">
        <ele>236.36911</ele>
        <time>2023-05-18T10:45:19Z</time>
      </trkpt>
      <trkpt lat="50.24067" lon="4.32424">
        <ele>236.019287</ele>
        <time>2023-05-18T10:45:21Z</time>
      </trkpt>
      <trkpt lat="50.24076" lon="4.32403">
        <ele>235.422195</ele>
        <time>2023-05-18T10:45:23Z</time>
      </trkpt>
      <trkpt lat="50.24086" lon="4.32382">
        <ele>234.90686</ele>
        <time>2023-05-18T10:45:25Z</time>
      </trkpt>
      <trkpt lat="50.24097" lon="4.32359">
        <ele>234.213165</ele>
        <time>2023-05-18T10:45:27Z</time>
      </trkpt>
      <trkpt lat="50.24109" lon="4.32332">
        <ele>233.783524</ele>
        <time>2023-05-18T10:45:29Z</time>
      </trkpt>
      <trkpt lat="50.24123" lon="4.32304">
        <ele>233.239899</ele>
        <time>2023-05-18T10:45:31Z</time>
      </trkpt>
      <trkpt lat="50.24133" lon="4.32275">
        <ele>232.567719</ele>
        <time>2023-05-18T10:45:33Z</time>
      </trkpt>
      <trkpt lat="50.24143" lon="4.3225">
        <ele>232.23259</ele>
        <time>2023-05-18T10:45:35Z</time>
      </trkpt>
      <trkpt lat="50.2415" lon="4.32228">
        <ele>231.593872</ele>
        <time>2023-05-18T10:45:37Z</time>
      </trkpt>
      <trkpt lat="50.24157" lon="4.32207">
        <ele>230.772919</ele>
        <time>2023-05-18T10:45:39Z</time>
      </trkpt>
      <trkpt lat="50.24163" lon="4.32187">
        <ele>230.159576</ele>
        <time>2023-05-18T10:45:41Z</time>
      </trkpt>
      <trkpt lat="50.2417" lon="4.32167">
        <ele>229.460495</ele>
        <time>2023-05-18T10:45:43Z</time>
      </trkpt>
      <trkpt lat="50.24178" lon="4.32148">
        <ele>229.170242</ele>
        <time>2023-05-18T10:45:45Z</time>
      </trkpt>
      <trkpt lat="50.24183" lon="4.3213">
        <ele>227.988235</ele>
        <time>2023-05-18T10:45:47Z</time>
      </trkpt>
      <trkpt lat="50.24189" lon="4.32113">
        <ele>227.25769</ele>
        <time>2023-05-18T10:45:49Z</time>
      </trkpt>
      <trkpt lat="50.24192" lon="4.32098">
        <ele>226.648514</ele>
        <time>2023-05-18T10:45:51Z</time>
      </trkpt>
      <trkpt lat="50.24194" lon="4.32087">
        <ele>225.932663</ele>
        <time>2023-05-18T10:45:53Z</time>
      </trkpt>
      <trkpt lat="50.24198" lon="4.32076">
        <ele>225.3927</ele>
        <time>2023-05-18T10:45:55Z</time>
      </trkpt>
      <trkpt lat="50.242" lon="4.32067">
        <ele>224.553375</ele>
        <time>2023-05-18T10:45:57Z</time>
      </trkpt>
      <trkpt lat="50.24202" lon="4.32058">
        <ele>223.747513</ele>
        <time>2023-05-18T10:45:59Z</time>
      </trkpt>
      <trkpt lat="50.24206" lon="4.32047">
        <ele>223.146881</ele>
        <time>2023-05-18T10:46:01Z</time>
      </trkpt>
      <trkpt lat="50.24209" lon="4.32035">
        <ele>222.59639</ele>
        <time>2023-05-18T10:46:03Z</time>
      </trkpt>
      <trkpt lat="50.24213" lon="4.32025">
        <ele>222.048004</ele>
        <time>2023-05-18T10:46:05Z</time>
      </trkpt>
      <trkpt lat="50.24217" lon="4.32015">
        <ele>221.631546</ele>
        <time>2023-05-18T10:46:07Z</time>
      </trkpt>
      <trkpt lat="50.2422" lon="4.32006">
        <ele>221.062057</ele>
        <time>2023-05-18T10:46:09Z</time>
      </trkpt>
      <trkpt lat="50.24223" lon="4.31998">
        <ele>220.949051</ele>
        <time>2023-05-18T10:46:11Z</time>
      </trkpt>
      <trkpt lat="50.24225" lon="4.31988">
        <ele>220.56601</ele>
        <time>2023-05-18T10:46:13Z</time>
      </trkpt>
      <trkpt lat="50.24228" lon="4.3198">
        <ele>220.388153</ele>
        <time>2023-05-18T10:46:15Z</time>
      </trkpt>
      <trkpt lat="50.24231" lon="4.31972">
        <ele>220.068771</ele>
        <time>2023-05-18T10:46:17Z</time>
      </trkpt>
      <trkpt lat="50.24233" lon="4.31964">
        <ele>219.971848</ele>
        <time>2023-05-18T10:46:19Z</time>
      </trkpt>
      <trkpt lat="50.24235" lon="4.31956">
        <ele>219.779373</ele>
        <time>2023-05-18T10:46:21Z</time>
      </trkpt>
      <trkpt lat="50.24237" lon="4.31946">
        <ele>219.814911</ele>
        <time>2023-05-18T10:46:23Z</time>
      </trkpt>
      <trkpt lat="50.24239" lon="4.31936">
        <ele>219.840057</ele>
        <time>2023-05-18T10:46:25Z</time>
      </trkpt>
      <trkpt lat="50.24239" lon="4.31926">
        <ele>220.358368</ele>
        <time>2023-05-18T10:46:27Z</time>
      </trkpt>
      <trkpt lat="50.24243" lon="4.31918">
        <ele>220.324905</ele>
        <time>2023-05-18T10:46:29Z</time>
      </trkpt>
      <trkpt lat="50.24244" lon="4.31909">
        <ele>220.394165</ele>
        <time>2023-05-18T10:46:31Z</time>
      </trkpt>
      <trkpt lat="50.24246" lon="4.319">
        <ele>220.402512</ele>
        <time>2023-05-18T10:46:33Z</time>
      </trkpt>
      <trkpt lat="50.24248" lon="4.31891">
        <ele>220.507111</ele>
        <time>2023-05-18T10:46:35Z</time>
      </trkpt>
      <trkpt lat="50.24251" lon="4.31883">
        <ele>220.649368</ele>
        <time>2023-05-18T10:46:37Z</time>
      </trkpt>
      <trkpt lat="50.24254" lon="4.31874">
        <ele>220.789505</ele>
        <time>2023-05-18T10:46:39Z</time>
      </trkpt>
      <trkpt lat="50.24255" lon="4.31866">
        <ele>220.975677</ele>
        <time>2023-05-18T10:46:41Z</time>
      </trkpt>
      <trkpt lat="50.24257" lon="4.31857">
        <ele>221.186981</ele>
        <time>2023-05-18T10:46:43Z</time>
      </trkpt>
      <trkpt lat="50.24258" lon="4.3185">
        <ele>221.172333</ele>
        <time>2023-05-18T10:46:45Z</time>
      </trkpt>
      <trkpt lat="50.2426" lon="4.31843">
        <ele>221.368973</ele>
        <time>2023-05-18T10:46:47Z</time>
      </trkpt>
      <trkpt lat="50.2426" lon="4.31834">
        <ele>221.335526</ele>
        <time>2023-05-18T10:46:49Z</time>
      </trkpt>
      <trkpt lat="50.24263" lon="4.31826">
        <ele>221.348068</ele>
        <time>2023-05-18T10:46:51Z</time>
      </trkpt>
      <trkpt lat="50.24264" lon="4.31819">
        <ele>221.369461</ele>
        <time>2023-05-18T10:46:53Z</time>
      </trkpt>
      <trkpt lat="50.24266" lon="4.31811">
        <ele>221.379303</ele>
        <time>2023-05-18T10:46:55Z</time>
      </trkpt>
      <trkpt lat="50.24268" lon="4.31803">
        <ele>221.584991</ele>
        <time>2023-05-18T10:46:57Z</time>
      </trkpt>
      <trkpt lat="50.24271" lon="4.31793">
        <ele>221.81221</ele>
        <time>2023-05-18T10:46:59Z</time>
      </trkpt>
      <trkpt lat="50.24273" lon="4.31783">
        <ele>221.98262</ele>
        <time>2023-05-18T10:47:01Z</time>
      </trkpt>
      <trkpt lat="50.24276" lon="4.31774">
        <ele>222.169998</ele>
        <time>2023-05-18T10:47:03Z</time>
      </trkpt>
      <trkpt lat="50.24279" lon="4.31765">
        <ele>222.405243</ele>
        <time>2023-05-18T10:47:05Z</time>
      </trkpt>
      <trkpt lat="50.24283" lon="4.31756">
        <ele>222.656372</ele>
        <time>2023-05-18T10:47:07Z</time>
      </trkpt>
      <trkpt lat="50.24286" lon="4.31747">
        <ele>223.152344</ele>
        <time>2023-05-18T10:47:09Z</time>
      </trkpt>
      <trkpt lat="50.24289" lon="4.31741">
        <ele>223.503693</ele>
        <time>2023-05-18T10:47:11Z</time>
      </trkpt>
      <trkpt lat="50.24291" lon="4.31732">
        <ele>223.894928</ele>
        <time>2023-05-18T10:47:13Z</time>
      </trkpt>
      <trkpt lat="50.24295" lon="4.31724">
        <ele>224.315643</ele>
        <time>2023-05-18T10:47:15Z</time>
      </trkpt>
      <trkpt lat="50.24297" lon="4.31714">
        <ele>224.74678</ele>
        <time>2023-05-18T10:47:17Z</time>
      </trkpt>
      <trkpt lat="50.24301" lon="4.31705">
        <ele>225.196777</ele>
        <time>2023-05-18T10:47:19Z</time>
      </trkpt>
      <trkpt lat="50.24305" lon="4.31698">
        <ele>225.633057</ele>
        <time>2023-05-18T10:47:21Z</time>
      </trkpt>
      <trkpt lat="50.24307" lon="4.31691">
        <ele>226.016113</ele>
        <time>2023-05-18T10:47:23Z</time>
      </trkpt>
      <trkpt lat="50.24312" lon="4.31681">
        <ele>226.512238</ele>
        <time>2023-05-18T10:47:25Z</time>
      </trkpt>
      <trkpt lat="50.24316" lon="4.3167">
        <ele>226.94548</ele>
        <time>2023-05-18T10:47:27Z</time>
      </trkpt>
      <trkpt lat="50.24318" lon="4.3166">
        <ele>227.319092</ele>
        <time>2023-05-18T10:47:29Z</time>
      </trkpt>
      <trkpt lat="50.24321" lon="4.31653">
        <ele>227.818268</ele>
        <time>2023-05-18T10:47:31Z</time>
      </trkpt>
      <trkpt lat="50.24324" lon="4.31643">
        <ele>228.09201</ele>
        <time>2023-05-18T10:47:33Z</time>
      </trkpt>
      <trkpt lat="50.24326" lon="4.31631">
        <ele>228.538498</ele>
        <time>2023-05-18T10:47:35Z</time>
      </trkpt>
      <trkpt lat="50.24329" lon="4.3162">
        <ele>229.116989</ele>
        <time>2023-05-18T10:47:37Z</time>
      </trkpt>
      <trkpt lat="50.24335" lon="4.31612">
        <ele>229.49324</ele>
        <time>2023-05-18T10:47:39Z</time>
      </trkpt>
      <trkpt lat="50.2434" lon="4.31611">
        <ele>229.952927</ele>
        <time>2023-05-18T10:47:41Z</time>
      </trkpt>
      <trkpt lat="50.24345" lon="4.31612">
        <ele>230.443878</ele>
        <time>2023-05-18T10:47:43Z</time>
      </trkpt>
      <trkpt lat="50.2435" lon="4.31613">
        <ele>230.951828</ele>
        <time>2023-05-18T10:47:45Z</time>
      </trkpt>
      <trkpt lat="50.24355" lon="4.31615">
        <ele>231.263794</ele>
        <time>2023-05-18T10:47:47Z</time>
      </trkpt>
      <trkpt lat="50.24363" lon="4.31619">
        <ele>231.605103</ele>
        <time>2023-05-18T10:47:49Z</time>
      </trkpt>
      <trkpt lat="50.24372" lon="4.31624">
        <ele>231.822876</ele>
        <time>2023-05-18T10:47:51Z</time>
      </trkpt>
      <trkpt lat="50.2438" lon="4.31628">
        <ele>232.118164</ele>
        <time>2023-05-18T10:47:53Z</time>
      </trkpt>
      <trkpt lat="50.24389" lon="4.31633">
        <ele>232.398895</ele>
        <time>2023-05-18T10:47:55Z</time>
      </trkpt>
      <trkpt lat="50.24397" lon="4.31638">
        <ele>232.679565</ele>
        <time>2023-05-18T10:47:57Z</time>
      </trkpt>
      <trkpt lat="50.24406" lon="4.31644">
        <ele>232.89946</ele>
        <time>2023-05-18T10:47:59Z</time>
      </trkpt>
      <trkpt lat="50.24416" lon="4.3165">
        <ele>233.034637</ele>
        <time>2023-05-18T10:48:01Z</time>
      </trkpt>
      <trkpt lat="50.24427" lon="4.31657">
        <ele>233.128876</ele>
        <time>2023-05-18T10:48:03Z</time>
      </trkpt>
      <trkpt lat="50.24437" lon="4.31664">
        <ele>233.277557</ele>
        <time>2023-05-18T10:48:05Z</time>
      </trkpt>
      <trkpt lat="50.24447" lon="4.3167">
        <ele>233.342499</ele>
        <time>2023-05-18T10:48:07Z</time>
      </trkpt>
      <trkpt lat="50.24459" lon="4.31678">
        <ele>233.445114</ele>
        <time>2023-05-18T10:48:09Z</time>
      </trkpt>
      <trkpt lat="50.2447" lon="4.31686">
        <ele>233.515305</ele>
        <time>2023-05-18T10:48:11Z</time>
      </trkpt>
      <trkpt lat="50.24482" lon="4.31696">
        <ele>233.738434</ele>
        <time>2023-05-18T10:48:13Z</time>
      </trkpt>
      <trkpt lat="50.24493" lon="4.31706">
        <ele>233.627441</ele>
        <time>2023-05-18T10:48:15Z</time>
      </trkpt>
      <trkpt lat="50.24503" lon="4.31716">
        <ele>233.62326</ele>
        <time>2023-05-18T10:48:17Z</time>
      </trkpt>
      <trkpt lat="50.24514" lon="4.31726">
        <ele>233.566696</ele>
        <time>2023-05-18T10:48:19Z</time>
      </trkpt>
      <trkpt lat="50.24526" lon="4.31733">
        <ele>233.519318</ele>
        <time>2023-05-18T10:48:21Z</time>
      </trkpt>
      <trkpt lat="50.24538" lon="4.31739">
        <ele>233.566574</ele>
        <time>2023-05-18T10:48:23Z</time>
      </trkpt>
      <trkpt lat="50.2455" lon="4.31745">
        <ele>233.246094</ele>
        <time>2023-05-18T10:48:25Z</time>
      </trkpt>
      <trkpt lat="50.24563" lon="4.31751">
        <ele>233.118362</ele>
        <time>2023-05-18T10:48:27Z</time>
      </trkpt>
      <trkpt lat="50.24575" lon="4.31756">
        <ele>232.915207</ele>
        <time>2023-05-18T10:48:29Z</time>
      </trkpt>
      <trkpt lat="50.24588" lon="4.31762">
        <ele>232.532028</ele>
        <time>2023-05-18T10:48:31Z</time>
      </trkpt>
      <trkpt lat="50.24594" lon="4.31764">
        <ele>232.366669</ele>
        <time>2023-05-18T10:48:32Z</time>
      </trkpt>
      <trkpt lat="50.24606" lon="4.3177">
        <ele>231.938446</ele>
        <time>2023-05-18T10:48:34Z</time>
      </trkpt>
      <trkpt lat="50.24618" lon="4.31775">
        <ele>231.505051</ele>
        <time>2023-05-18T10:48:36Z</time>
      </trkpt>
      <trkpt lat="50.2463" lon="4.3178">
        <ele>230.998322</ele>
        <time>2023-05-18T10:48:38Z</time>
      </trkpt>
      <trkpt lat="50.24643" lon="4.31786">
        <ele>230.619339</ele>
        <time>2023-05-18T10:48:40Z</time>
      </trkpt>
      <trkpt lat="50.24655" lon="4.31791">
        <ele>230.330399</ele>
        <time>2023-05-18T10:48:42Z</time>
      </trkpt>
      <trkpt lat="50.24667" lon="4.31797">
        <ele>230.024704</ele>
        <time>2023-05-18T10:48:44Z</time>
      </trkpt>
      <trkpt lat="50.2468" lon="4.31802">
        <ele>229.58699</ele>
        <time>2023-05-18T10:48:46Z</time>
      </trkpt>
      <trkpt lat="50.24692" lon="4.31808">
        <ele>229.088058</ele>
        <time>2023-05-18T10:48:48Z</time>
      </trkpt>
      <trkpt lat="50.24704" lon="4.31813">
        <ele>228.586914</ele>
        <time>2023-05-18T10:48:50Z</time>
      </trkpt>
      <trkpt lat="50.24716" lon="4.31818">
        <ele>228.150116</ele>
        <time>2023-05-18T10:48:52Z</time>
      </trkpt>
      <trkpt lat="50.24728" lon="4.31824">
        <ele>227.195679</ele>
        <time>2023-05-18T10:48:54Z</time>
      </trkpt>
      <trkpt lat="50.2474" lon="4.31829">
        <ele>226.634796</ele>
        <time>2023-05-18T10:48:56Z</time>
      </trkpt>
      <trkpt lat="50.24752" lon="4.31834">
        <ele>226.031403</ele>
        <time>2023-05-18T10:48:58Z</time>
      </trkpt>
      <trkpt lat="50.24763" lon="4.31839">
        <ele>225.347015</ele>
        <time>2023-05-18T10:49:00Z</time>
      </trkpt>
      <trkpt lat="50.24774" lon="4.31844">
        <ele>224.63887</ele>
        <time>2023-05-18T10:49:02Z</time>
      </trkpt>
      <trkpt lat="50.24786" lon="4.31848">
        <ele>223.777496</ele>
        <time>2023-05-18T10:49:04Z</time>
      </trkpt>
      <trkpt lat="50.24796" lon="4.31853">
        <ele>223.16008</ele>
        <time>2023-05-18T10:49:06Z</time>
      </trkpt>
      <trkpt lat="50.24807" lon="4.31858">
        <ele>222.51889</ele>
        <time>2023-05-18T10:49:08Z</time>
      </trkpt>
      <trkpt lat="50.24817" lon="4.31863">
        <ele>221.853439</ele>
        <time>2023-05-18T10:49:10Z</time>
      </trkpt>
      <trkpt lat="50.24827" lon="4.31868">
        <ele>221.96048</ele>
        <time>2023-05-18T10:49:12Z</time>
      </trkpt>
      <trkpt lat="50.24837" lon="4.31871">
        <ele>221.438477</ele>
        <time>2023-05-18T10:49:14Z</time>
      </trkpt>
      <trkpt lat="50.24848" lon="4.31875">
        <ele>221.294144</ele>
        <time>2023-05-18T10:49:16Z</time>
      </trkpt>
      <trkpt lat="50.24858" lon="4.31881">
        <ele>220.635101</ele>
        <time>2023-05-18T10:49:18Z</time>
      </trkpt>
      <trkpt lat="50.24868" lon="4.31886">
        <ele>220.174835</ele>
        <time>2023-05-18T10:49:20Z</time>
      </trkpt>
      <trkpt lat="50.2488" lon="4.31891">
        <ele>219.800369</ele>
        <time>2023-05-18T10:49:22Z</time>
      </trkpt>
      <trkpt lat="50.24891" lon="4.31896">
        <ele>219.317093</ele>
        <time>2023-05-18T10:49:24Z</time>
      </trkpt>
      <trkpt lat="50.24902" lon="4.31901">
        <ele>218.900589</ele>
        <time>2023-05-18T10:49:26Z</time>
      </trkpt>
      <trkpt lat="50.24913" lon="4.31906">
        <ele>218.604218</ele>
        <time>2023-05-18T10:49:28Z</time>
      </trkpt>
      <trkpt lat="50.24925" lon="4.31911">
        <ele>218.142822</ele>
        <time>2023-05-18T10:49:30Z</time>
      </trkpt>
      <trkpt lat="50.24936" lon="4.31916">
        <ele>217.792755</ele>
        <time>2023-05-18T10:49:32Z</time>
      </trkpt>
      <trkpt lat="50.24947" lon="4.31922">
        <ele>217.566864</ele>
        <time>2023-05-18T10:49:34Z</time>
      </trkpt>
      <trkpt lat="50.24959" lon="4.31927">
        <ele>217.307587</ele>
        <time>2023-05-18T10:49:36Z</time>
      </trkpt>
      <trkpt lat="50.2497" lon="4.31932">
        <ele>217.001633</ele>
        <time>2023-05-18T10:49:38Z</time>
      </trkpt>
      <trkpt lat="50.24981" lon="4.31937">
        <ele>216.74292</ele>
        <time>2023-05-18T10:49:40Z</time>
      </trkpt>
      <trkpt lat="50.24992" lon="4.31943">
        <ele>216.462738</ele>
        <time>2023-05-18T10:49:42Z</time>
      </trkpt>
      <trkpt lat="50.25003" lon="4.31948">
        <ele>216.205597</ele>
        <time>2023-05-18T10:49:44Z</time>
      </trkpt>
      <trkpt lat="50.25015" lon="4.31953">
        <ele>215.898239</ele>
        <time>2023-05-18T10:49:46Z</time>
      </trkpt>
      <trkpt lat="50.25026" lon="4.31958">
        <ele>215.507278</ele>
        <time>2023-05-18T10:49:48Z</time>
      </trkpt>
      <trkpt lat="50.25037" lon="4.31962">
        <ele>215.160156</ele>
        <time>2023-05-18T10:49:50Z</time>
      </trkpt>
      <trkpt lat="50.25047" lon="4.31968">
        <ele>214.438187</ele>
        <time>2023-05-18T10:49:52Z</time>
      </trkpt>
      <trkpt lat="50.25057" lon="4.31973">
        <ele>214.158051</ele>
        <time>2023-05-18T10:49:54Z</time>
      </trkpt>
      <trkpt lat="50.25066" lon="4.31977">
        <ele>213.827759</ele>
        <time>2023-05-18T10:49:56Z</time>
      </trkpt>
      <trkpt lat="50.25076" lon="4.31982">
        <ele>213.46814</ele>
        <time>2023-05-18T10:49:58Z</time>
      </trkpt>
      <trkpt lat="50.25087" lon="4.31986">
        <ele>213.129471</ele>
        <time>2023-05-18T10:50:00Z</time>
      </trkpt>
      <trkpt lat="50.25097" lon="4.3199">
        <ele>212.83699</ele>
        <time>2023-05-18T10:50:02Z</time>
      </trkpt>
      <trkpt lat="50.25108" lon="4.31995">
        <ele>212.555206</ele>
        <time>2023-05-18T10:50:04Z</time>
      </trkpt>
      <trkpt lat="50.25118" lon="4.32">
        <ele>212.329742</ele>
        <time>2023-05-18T10:50:06Z</time>
      </trkpt>
      <trkpt lat="50.25128" lon="4.32005">
        <ele>212.120438</ele>
        <time>2023-05-18T10:50:08Z</time>
      </trkpt>
      <trkpt lat="50.25139" lon="4.32009">
        <ele>211.939911</ele>
        <time>2023-05-18T10:50:10Z</time>
      </trkpt>
      <trkpt lat="50.25149" lon="4.32014">
        <ele>211.889725</ele>
        <time>2023-05-18T10:50:12Z</time>
      </trkpt>
      <trkpt lat="50.25158" lon="4.32018">
        <ele>211.602615</ele>
        <time>2023-05-18T10:50:14Z</time>
      </trkpt>
      <trkpt lat="50.25168" lon="4.32022">
        <ele>211.437469</ele>
        <time>2023-05-18T10:50:16Z</time>
      </trkpt>
      <trkpt lat="50.25178" lon="4.32026">
        <ele>211.329422</ele>
        <time>2023-05-18T10:50:18Z</time>
      </trkpt>
      <trkpt lat="50.25188" lon="4.32031">
        <ele>211.321075</ele>
        <time>2023-05-18T10:50:20Z</time>
      </trkpt>
      <trkpt lat="50.25198" lon="4.32035">
        <ele>211.172653</ele>
        <time>2023-05-18T10:50:22Z</time>
      </trkpt>
      <trkpt lat="50.25208" lon="4.32039">
        <ele>211.055618</ele>
        <time>2023-05-18T10:50:24Z</time>
      </trkpt>
      <trkpt lat="50.25219" lon="4.32044">
        <ele>210.969925</ele>
        <time>2023-05-18T10:50:26Z</time>
      </trkpt>
      <trkpt lat="50.2523" lon="4.32047">
        <ele>210.831985</ele>
        <time>2023-05-18T10:50:28Z</time>
      </trkpt>
      <trkpt lat="50.25243" lon="4.32052">
        <ele>210.974091</ele>
        <time>2023-05-18T10:50:30Z</time>
      </trkpt>
      <trkpt lat="50.25255" lon="4.32058">
        <ele>210.720001</ele>
        <time>2023-05-18T10:50:32Z</time>
      </trkpt>
      <trkpt lat="50.25269" lon="4.32063">
        <ele>210.517288</ele>
        <time>2023-05-18T10:50:34Z</time>
      </trkpt>
      <trkpt lat="50.25282" lon="4.3207">
        <ele>210.38147</ele>
        <time>2023-05-18T10:50:36Z</time>
      </trkpt>
      <trkpt lat="50.25296" lon="4.32075">
        <ele>210.23938</ele>
        <time>2023-05-18T10:50:38Z</time>
      </trkpt>
      <trkpt lat="50.2531" lon="4.32082">
        <ele>209.857101</ele>
        <time>2023-05-18T10:50:40Z</time>
      </trkpt>
      <trkpt lat="50.25324" lon="4.32087">
        <ele>209.644012</ele>
        <time>2023-05-18T10:50:42Z</time>
      </trkpt>
      <trkpt lat="50.2534" lon="4.32093">
        <ele>209.587402</ele>
        <time>2023-05-18T10:50:44Z</time>
      </trkpt>
      <trkpt lat="50.25355" lon="4.32099">
        <ele>209.296463</ele>
        <time>2023-05-18T10:50:46Z</time>
      </trkpt>
      <trkpt lat="50.2537" lon="4.32106">
        <ele>209.020676</ele>
        <time>2023-05-18T10:50:48Z</time>
      </trkpt>
      <trkpt lat="50.25386" lon="4.32114">
        <ele>208.753571</ele>
        <time>2023-05-18T10:50:50Z</time>
      </trkpt>
      <trkpt lat="50.25403" lon="4.32121">
        <ele>208.3741</ele>
        <time>2023-05-18T10:50:52Z</time>
      </trkpt>
      <trkpt lat="50.2542" lon="4.32129">
        <ele>207.92984</ele>
        <time>2023-05-18T10:50:54Z</time>
      </trkpt>
      <trkpt lat="50.25438" lon="4.32136">
        <ele>207.597687</ele>
        <time>2023-05-18T10:50:56Z</time>
      </trkpt>
      <trkpt lat="50.25457" lon="4.32144">
        <ele>207.069122</ele>
        <time>2023-05-18T10:50:58Z</time>
      </trkpt>
      <trkpt lat="50.25476" lon="4.32148">
        <ele>206.517899</ele>
        <time>2023-05-18T10:51:00Z</time>
      </trkpt>
      <trkpt lat="50.25496" lon="4.32149">
        <ele>205.897537</ele>
        <time>2023-05-18T10:51:02Z</time>
      </trkpt>
      <trkpt lat="50.25517" lon="4.32151">
        <ele>205.302216</ele>
        <time>2023-05-18T10:51:04Z</time>
      </trkpt>
      <trkpt lat="50.25537" lon="4.32155">
        <ele>204.782166</ele>
        <time>2023-05-18T10:51:06Z</time>
      </trkpt>
      <trkpt lat="50.25558" lon="4.32159">
        <ele>204.163956</ele>
        <time>2023-05-18T10:51:08Z</time>
      </trkpt>
      <trkpt lat="50.25578" lon="4.32164">
        <ele>203.397491</ele>
        <time>2023-05-18T10:51:10Z</time>
      </trkpt>
      <trkpt lat="50.25598" lon="4.32168">
        <ele>202.766846</ele>
        <time>2023-05-18T10:51:12Z</time>
      </trkpt>
      <trkpt lat="50.25617" lon="4.32171">
        <ele>202.014984</ele>
        <time>2023-05-18T10:51:14Z</time>
      </trkpt>
      <trkpt lat="50.25636" lon="4.32176">
        <ele>201.451263</ele>
        <time>2023-05-18T10:51:16Z</time>
      </trkpt>
      <trkpt lat="50.25653" lon="4.32181">
        <ele>200.72464</ele>
        <time>2023-05-18T10:51:18Z</time>
      </trkpt>
      <trkpt lat="50.2567" lon="4.32187">
        <ele>199.996002</ele>
        <time>2023-05-18T10:51:20Z</time>
      </trkpt>
      <trkpt lat="50.25686" lon="4.32193">
        <ele>199.555573</ele>
        <time>2023-05-18T10:51:22Z</time>
      </trkpt>
      <trkpt lat="50.257" lon="4.322">
        <ele>198.718246</ele>
        <time>2023-05-18T10:51:24Z</time>
      </trkpt>
      <trkpt lat="50.25712" lon="4.32206">
        <ele>197.891541</ele>
        <time>2023-05-18T10:51:26Z</time>
      </trkpt>
      <trkpt lat="50.25721" lon="4.32212">
        <ele>197.129517</ele>
        <time>2023-05-18T10:51:28Z</time>
      </trkpt>
      <trkpt lat="50.25727" lon="4.32212">
        <ele>196.841492</ele>
        <time>2023-05-18T10:51:30Z</time>
      </trkpt>
      <trkpt lat="50.2573" lon="4.322">
        <ele>196.400909</ele>
        <time>2023-05-18T10:51:32Z</time>
      </trkpt>
      <trkpt lat="50.25731" lon="4.32185">
        <ele>195.712189</ele>
        <time>2023-05-18T10:51:34Z</time>
      </trkpt>
      <trkpt lat="50.25729" lon="4.3217">
        <ele>195.096497</ele>
        <time>2023-05-18T10:51:36Z</time>
      </trkpt>
      <trkpt lat="50.25728" lon="4.32155">
        <ele>194.326477</ele>
        <time>2023-05-18T10:51:38Z</time>
      </trkpt>
      <trkpt lat="50.25726" lon="4.32141">
        <ele>193.61087</ele>
        <time>2023-05-18T10:51:40Z</time>
      </trkpt>
      <trkpt lat="50.25724" lon="4.32127">
        <ele>192.840607</ele>
        <time>2023-05-18T10:51:42Z</time>
      </trkpt>
      <trkpt lat="50.25723" lon="4.32112">
        <ele>192.164688</ele>
        <time>2023-05-18T10:51:44Z</time>
      </trkpt>
      <trkpt lat="50.25721" lon="4.32097">
        <ele>191.445023</ele>
        <time>2023-05-18T10:51:46Z</time>
      </trkpt>
      <trkpt lat="50.2572" lon="4.32082">
        <ele>190.539902</ele>
        <time>2023-05-18T10:51:48Z</time>
      </trkpt>
      <trkpt lat="50.25718" lon="4.32068">
        <ele>189.866241</ele>
        <time>2023-05-18T10:51:50Z</time>
      </trkpt>
      <trkpt lat="50.25717" lon="4.32053">
        <ele>189.139236</ele>
        <time>2023-05-18T10:51:52Z</time>
      </trkpt>
      <trkpt lat="50.25716" lon="4.32039">
        <ele>188.535248</ele>
        <time>2023-05-18T10:51:54Z</time>
      </trkpt>
      <trkpt lat="50.25714" lon="4.32025">
        <ele>187.884613</ele>
        <time>2023-05-18T10:51:56Z</time>
      </trkpt>
      <trkpt lat="50.25712" lon="4.32011">
        <ele>187.15274</ele>
        <time>2023-05-18T10:51:58Z</time>
      </trkpt>
      <trkpt lat="50.25711" lon="4.31997">
        <ele>186.485504</ele>
        <time>2023-05-18T10:52:00Z</time>
      </trkpt>
      <trkpt lat="50.25713" lon="4.31983">
        <ele>185.901672</ele>
        <time>2023-05-18T10:52:02Z</time>
      </trkpt>
      <trkpt lat="50.25716" lon="4.31969">
        <ele>185.149017</ele>
        <time>2023-05-18T10:52:04Z</time>
      </trkpt>
      <trkpt lat="50.25719" lon="4.31956">
        <ele>184.448547</ele>
        <time>2023-05-18T10:52:06Z</time>
      </trkpt>
      <trkpt lat="50.25721" lon="4.31943">
        <ele>183.783539</ele>
        <time>2023-05-18T10:52:08Z</time>
      </trkpt>
      <trkpt lat="50.25723" lon="4.31931">
        <ele>183.103897</ele>
        <time>2023-05-18T10:52:10Z</time>
      </trkpt>
      <trkpt lat="50.25726" lon="4.3192">
        <ele>182.760071</ele>
        <time>2023-05-18T10:52:12Z</time>
      </trkpt>
      <trkpt lat="50.25729" lon="4.3191">
        <ele>182.05336</ele>
        <time>2023-05-18T10:52:14Z</time>
      </trkpt>
      <trkpt lat="50.25734" lon="4.31903">
        <ele>181.550995</ele>
        <time>2023-05-18T10:52:16Z</time>
      </trkpt>
      <trkpt lat="50.25741" lon="4.31898">
        <ele>180.93187</ele>
        <time>2023-05-18T10:52:18Z</time>
      </trkpt>
      <trkpt lat="50.25746" lon="4.31892">
        <ele>180.514252</ele>
        <time>2023-05-18T10:52:20Z</time>
      </trkpt>
      <trkpt lat="50.25749" lon="4.31882">
        <ele>180.223236</ele>
        <time>2023-05-18T10:52:22Z</time>
      </trkpt>
      <trkpt lat="50.25753" lon="4.31873">
        <ele>179.875275</ele>
        <time>2023-05-18T10:52:24Z</time>
      </trkpt>
      <trkpt lat="50.25757" lon="4.31864">
        <ele>179.663788</ele>
        <time>2023-05-18T10:52:26Z</time>
      </trkpt>
      <trkpt lat="50.2576" lon="4.31854">
        <ele>179.400055</ele>
        <time>2023-05-18T10:52:28Z</time>
      </trkpt>
      <trkpt lat="50.2576" lon="4.31843">
        <ele>179.385468</ele>
        <time>2023-05-18T10:52:30Z</time>
      </trkpt>
      <trkpt lat="50.2576" lon="4.31833">
        <ele>179.278473</ele>
        <time>2023-05-18T10:52:32Z</time>
      </trkpt>
      <trkpt lat="50.25758" lon="4.31823">
        <ele>179.012909</ele>
        <time>2023-05-18T10:52:34Z</time>
      </trkpt>
      <trkpt lat="50.25759" lon="4.31817">
        <ele>178.595245</ele>
        <time>2023-05-18T10:52:44Z</time>
      </trkpt>
      <trkpt lat="50.25761" lon="4.31816">
        <ele>178.65358</ele>
        <time>2023-05-18T10:52:46Z</time>
      </trkpt>
      <trkpt lat="50.25762" lon="4.31815">
        <ele>178.705658</ele>
        <time>2023-05-18T10:52:48Z</time>
      </trkpt>
      <trkpt lat="50.25765" lon="4.31815">
        <ele>178.701492</ele>
        <time>2023-05-18T10:52:52Z</time>
      </trkpt>
      <trkpt lat="50.25766" lon="4.31816">
        <ele>178.582016</ele>
        <time>2023-05-18T10:53:05Z</time>
      </trkpt>
      <trkpt lat="50.25769" lon="4.31816">
        <ele>178.411209</ele>
        <time>2023-05-18T10:53:11Z</time>
      </trkpt>
      <trkpt lat="50.25772" lon="4.31816">
        <ele>178.376022</ele>
        <time>2023-05-18T10:53:13Z</time>
      </trkpt>
      <trkpt lat="50.25774" lon="4.31816">
        <ele>178.380188</ele>
        <time>2023-05-18T10:53:15Z</time>
      </trkpt>
      <trkpt lat="50.25777" lon="4.31817">
        <ele>178.446869</ele>
        <time>2023-05-18T10:53:17Z</time>
      </trkpt>
      <trkpt lat="50.25781" lon="4.31818">
        <ele>178.428116</ele>
        <time>2023-05-18T10:53:19Z</time>
      </trkpt>
      <trkpt lat="50.25785" lon="4.31821">
        <ele>178.492706</ele>
        <time>2023-05-18T10:53:21Z</time>
      </trkpt>
      <trkpt lat="50.25791" lon="4.31821">
        <ele>178.494781</ele>
        <time>2023-05-18T10:53:23Z</time>
      </trkpt>
      <trkpt lat="50.25793" lon="4.31822">
        <ele>178.555206</ele>
        <time>2023-05-18T10:53:25Z</time>
      </trkpt>
      <trkpt lat="50.25797" lon="4.31824">
        <ele>178.721893</ele>
        <time>2023-05-18T10:53:29Z</time>
      </trkpt>
      <trkpt lat="50.25803" lon="4.31829">
        <ele>178.788574</ele>
        <time>2023-05-18T10:53:31Z</time>
      </trkpt>
      <trkpt lat="50.25809" lon="4.31835">
        <ele>179.055283</ele>
        <time>2023-05-18T10:53:33Z</time>
      </trkpt>
      <trkpt lat="50.25815" lon="4.31839">
        <ele>179.236649</ele>
        <time>2023-05-18T10:53:35Z</time>
      </trkpt>
      <trkpt lat="50.25821" lon="4.31841">
        <ele>179.340179</ele>
        <time>2023-05-18T10:53:37Z</time>
      </trkpt>
      <trkpt lat="50.2583" lon="4.31845">
        <ele>179.5802</ele>
        <time>2023-05-18T10:53:39Z</time>
      </trkpt>
      <trkpt lat="50.25838" lon="4.31849">
        <ele>179.799118</ele>
        <time>2023-05-18T10:53:41Z</time>
      </trkpt>
      <trkpt lat="50.25847" lon="4.31853">
        <ele>179.958389</ele>
        <time>2023-05-18T10:53:43Z</time>
      </trkpt>
      <trkpt lat="50.25858" lon="4.3186">
        <ele>180.119278</ele>
        <time>2023-05-18T10:53:45Z</time>
      </trkpt>
      <trkpt lat="50.25867" lon="4.31866">
        <ele>180.276398</ele>
        <time>2023-05-18T10:53:47Z</time>
      </trkpt>
      <trkpt lat="50.25875" lon="4.3187">
        <ele>180.461838</ele>
        <time>2023-05-18T10:53:49Z</time>
      </trkpt>
      <trkpt lat="50.25884" lon="4.31874">
        <ele>180.693161</ele>
        <time>2023-05-18T10:53:51Z</time>
      </trkpt>
      <trkpt lat="50.25891" lon="4.31879">
        <ele>180.899475</ele>
        <time>2023-05-18T10:53:53Z</time>
      </trkpt>
      <trkpt lat="50.25898" lon="4.31883">
        <ele>181.139603</ele>
        <time>2023-05-18T10:53:55Z</time>
      </trkpt>
      <trkpt lat="50.25903" lon="4.31885">
        <ele>181.348022</ele>
        <time>2023-05-18T10:53:57Z</time>
      </trkpt>
      <trkpt lat="50.25905" lon="4.31882">
        <ele>181.60228</ele>
        <time>2023-05-18T10:53:59Z</time>
      </trkpt>
      <trkpt lat="50.25907" lon="4.31875">
        <ele>181.84404</ele>
        <time>2023-05-18T10:54:01Z</time>
      </trkpt>
      <trkpt lat="50.25908" lon="4.31867">
        <ele>182.121246</ele>
        <time>2023-05-18T10:54:03Z</time>
      </trkpt>
      <trkpt lat="50.25909" lon="4.31858">
        <ele>182.333832</ele>
        <time>2023-05-18T10:54:05Z</time>
      </trkpt>
      <trkpt lat="50.25911" lon="4.31848">
        <ele>182.534592</ele>
        <time>2023-05-18T10:54:07Z</time>
      </trkpt>
      <trkpt lat="50.25913" lon="4.31838">
        <ele>182.630463</ele>
        <time>2023-05-18T10:54:09Z</time>
      </trkpt>
      <trkpt lat="50.25916" lon="4.31828">
        <ele>182.845291</ele>
        <time>2023-05-18T10:54:11Z</time>
      </trkpt>
      <trkpt lat="50.25917" lon="4.31819">
        <ele>182.975143</ele>
        <time>2023-05-18T10:54:13Z</time>
      </trkpt>
      <trkpt lat="50.25918" lon="4.3181">
        <ele>183.112701</ele>
        <time>2023-05-18T10:54:15Z</time>
      </trkpt>
      <trkpt lat="50.25917" lon="4.31799">
        <ele>183.151321</ele>
        <time>2023-05-18T10:54:17Z</time>
      </trkpt>
      <trkpt lat="50.25918" lon="4.31788">
        <ele>183.176987</ele>
        <time>2023-05-18T10:54:19Z</time>
      </trkpt>
      <trkpt lat="50.2592" lon="4.31777">
        <ele>183.259964</ele>
        <time>2023-05-18T10:54:21Z</time>
      </trkpt>
      <trkpt lat="50.25923" lon="4.31766">
        <ele>183.314148</ele>
        <time>2023-05-18T10:54:23Z</time>
      </trkpt>
      <trkpt lat="50.25927" lon="4.31757">
        <ele>183.372513</ele>
        <time>2023-05-18T10:54:25Z</time>
      </trkpt>
      <trkpt lat="50.2593" lon="4.31747">
        <ele>183.357117</ele>
        <time>2023-05-18T10:54:27Z</time>
      </trkpt>
      <trkpt lat="50.25933" lon="4.31737">
        <ele>183.384338</ele>
        <time>2023-05-18T10:54:29Z</time>
      </trkpt>
      <trkpt lat="50.25935" lon="4.3173">
        <ele>183.463531</ele>
        <time>2023-05-18T10:54:31Z</time>
      </trkpt>
      <trkpt lat="50.25938" lon="4.31723">
        <ele>183.530228</ele>
        <time>2023-05-18T10:54:33Z</time>
      </trkpt>
      <trkpt lat="50.2594" lon="4.31717">
        <ele>183.523972</ele>
        <time>2023-05-18T10:54:35Z</time>
      </trkpt>
      <trkpt lat="50.25938" lon="4.31713">
        <ele>183.505219</ele>
        <time>2023-05-18T10:54:37Z</time>
      </trkpt>
      <trkpt lat="50.25935" lon="4.31698">
        <ele>183.001068</ele>
        <time>2023-05-18T10:55:20Z</time>
      </trkpt>
      <trkpt lat="50.25932" lon="4.31691">
        <ele>182.938538</ele>
        <time>2023-05-18T10:55:22Z</time>
      </trkpt>
      <trkpt lat="50.25928" lon="4.31686">
        <ele>182.844742</ele>
        <time>2023-05-18T10:55:24Z</time>
      </trkpt>
      <trkpt lat="50.25927" lon="4.31679">
        <ele>182.790558</ele>
        <time>2023-05-18T10:55:26Z</time>
      </trkpt>
      <trkpt lat="50.25927" lon="4.3167">
        <ele>182.730103</ele>
        <time>2023-05-18T10:55:28Z</time>
      </trkpt>
      <trkpt lat="50.25929" lon="4.31663">
        <ele>182.621735</ele>
        <time>2023-05-18T10:55:30Z</time>
      </trkpt>
      <trkpt lat="50.25932" lon="4.31657">
        <ele>182.546692</ele>
        <time>2023-05-18T10:55:32Z</time>
      </trkpt>
      <trkpt lat="50.25934" lon="4.31652">
        <ele>182.404953</ele>
        <time>2023-05-18T10:55:34Z</time>
      </trkpt>
      <trkpt lat="50.25936" lon="4.31647">
        <ele>182.348663</ele>
        <time>2023-05-18T10:55:36Z</time>
      </trkpt>
      <trkpt lat="50.25937" lon="4.31644">
        <ele>182.229858</ele>
        <time>2023-05-18T10:55:38Z</time>
      </trkpt>
      <trkpt lat="50.25937" lon="4.31641">
        <ele>182.094452</ele>
        <time>2023-05-18T10:55:40Z</time>
      </trkpt>
      <trkpt lat="50.25939" lon="4.31636">
        <ele>182.027756</ele>
        <time>2023-05-18T10:55:42Z</time>
      </trkpt>
      <trkpt lat="50.25943" lon="4.31633">
        <ele>181.977921</ele>
        <time>2023-05-18T10:55:44Z</time>
      </trkpt>
      <trkpt lat="50.25947" lon="4.31631">
        <ele>181.94249</ele>
        <time>2023-05-18T10:55:46Z</time>
      </trkpt>
      <trkpt lat="50.25951" lon="4.31628">
        <ele>181.899734</ele>
        <time>2023-05-18T10:55:48Z</time>
      </trkpt>
      <trkpt lat="50.25954" lon="4.31624">
        <ele>181.853882</ele>
        <time>2023-05-18T10:55:50Z</time>
      </trkpt>
      <trkpt lat="50.25956" lon="4.31621">
        <ele>181.797623</ele>
        <time>2023-05-18T10:55:52Z</time>
      </trkpt>
      <trkpt lat="50.25958" lon="4.31618">
        <ele>181.705902</ele>
        <time>2023-05-18T10:56:00Z</time>
      </trkpt>
      <trkpt lat="50.25959" lon="4.31616">
        <ele>181.645462</ele>
        <time>2023-05-18T10:56:06Z</time>
      </trkpt>
      <trkpt lat="50.2596" lon="4.31616">
        <ele>181.624619</ele>
        <time>2023-05-18T10:56:08Z</time>
      </trkpt>
      <trkpt lat="50.25962" lon="4.31616">
        <ele>181.620453</ele>
        <time>2023-05-18T10:56:10Z</time>
      </trkpt>
      <trkpt lat="50.25964" lon="4.31616">
        <ele>181.649628</ele>
        <time>2023-05-18T10:56:12Z</time>
      </trkpt>
      <trkpt lat="50.25966" lon="4.31615">
        <ele>181.626709</ele>
        <time>2023-05-18T10:56:14Z</time>
      </trkpt>
      <trkpt lat="50.25967" lon="4.31617">
        <ele>181.657959</ele>
        <time>2023-05-18T10:56:16Z</time>
      </trkpt>
      <trkpt lat="50.25968" lon="4.31618">
        <ele>181.684296</ele>
        <time>2023-05-18T10:56:18Z</time>
      </trkpt>
      <trkpt lat="50.25969" lon="4.3162">
        <ele>181.703827</ele>
        <time>2023-05-18T10:56:20Z</time>
      </trkpt>
    </trkseg>
  </trk>
</gpx>